<?xml version="1.0" encoding="UTF-8" standalone="no" ?>
<gpx xmlns="http://www.topografix.com/GPX/1/1" xmlns:xsi="http://www.w3.org/2001/XMLSchema-instance" xsi:schemaLocation="http://www.topografix.com/GPX/1/1 http://www.topografix.com/GPX/1/1/gpx.xsd" version="1.1" creator="VisuGPX - https://www.visugpx.com">
  <metadata>
    <name>2018-01-23 Bike ride-Georges de Reneins O v47k</name>
    <desc><![CDATA[2018-01-23 Bike ride-Georges de Reneins O v47k]]></desc>
  </metadata>
  <wpt lat="45.92453" lon="4.73712">
    <ele>174</ele>
    <name><![CDATA[2018-01-23 10:39 (Start)]]></name>
  </wpt>
  <wpt lat="45.92469" lon="4.73712">
    <ele>174</ele>
    <name><![CDATA[2018-01-23 10:39 (End)]]></name>
  </wpt>
  <trk>
    <name><![CDATA[2018-01-23 10:39]]></name>
    <trkseg>
      <trkpt lat="45.92453" lon="4.73712">
        <ele>174</ele>
        <time>2018-01-23T09:39:19.664Z</time>
      </trkpt>
      <trkpt lat="45.92456" lon="4.73709">
        <ele>174</ele>
        <time>2018-01-23T09:39:25.656Z</time>
      </trkpt>
      <trkpt lat="45.92461" lon="4.73719">
        <ele>174</ele>
        <time>2018-01-23T09:39:26.657Z</time>
      </trkpt>
      <trkpt lat="45.92457" lon="4.73705">
        <ele>174</ele>
        <time>2018-01-23T09:39:27Z</time>
      </trkpt>
      <trkpt lat="45.92464" lon="4.73711">
        <ele>174</ele>
        <time>2018-01-23T09:39:30Z</time>
      </trkpt>
      <trkpt lat="45.92468" lon="4.73717">
        <ele>174</ele>
        <time>2018-01-23T09:39:31Z</time>
      </trkpt>
      <trkpt lat="45.92464" lon="4.73707">
        <ele>174</ele>
        <time>2018-01-23T09:39:39Z</time>
      </trkpt>
      <trkpt lat="45.92465" lon="4.73705">
        <ele>174</ele>
        <time>2018-01-23T09:39:40Z</time>
      </trkpt>
      <trkpt lat="45.92466" lon="4.73693">
        <ele>174</ele>
        <time>2018-01-23T09:39:44Z</time>
      </trkpt>
      <trkpt lat="45.92466" lon="4.7369">
        <ele>174</ele>
        <time>2018-01-23T09:39:45Z</time>
      </trkpt>
      <trkpt lat="45.92468" lon="4.7368">
        <ele>174</ele>
        <time>2018-01-23T09:39:48Z</time>
      </trkpt>
      <trkpt lat="45.92469" lon="4.73676">
        <ele>174</ele>
        <time>2018-01-23T09:39:49Z</time>
      </trkpt>
      <trkpt lat="45.9247" lon="4.73666">
        <ele>174</ele>
        <time>2018-01-23T09:39:51Z</time>
      </trkpt>
      <trkpt lat="45.92471" lon="4.73661">
        <ele>174</ele>
        <time>2018-01-23T09:39:52Z</time>
      </trkpt>
      <trkpt lat="45.92472" lon="4.7365">
        <ele>174</ele>
        <time>2018-01-23T09:39:54Z</time>
      </trkpt>
      <trkpt lat="45.92472" lon="4.73644">
        <ele>174</ele>
        <time>2018-01-23T09:39:55Z</time>
      </trkpt>
      <trkpt lat="45.92472" lon="4.73632">
        <ele>174</ele>
        <time>2018-01-23T09:39:57Z</time>
      </trkpt>
      <trkpt lat="45.92472" lon="4.73626">
        <ele>174</ele>
        <time>2018-01-23T09:39:58Z</time>
      </trkpt>
      <trkpt lat="45.92472" lon="4.73614">
        <ele>174</ele>
        <time>2018-01-23T09:40:00Z</time>
      </trkpt>
      <trkpt lat="45.92472" lon="4.73607">
        <ele>174</ele>
        <time>2018-01-23T09:40:01Z</time>
      </trkpt>
      <trkpt lat="45.92471" lon="4.73595">
        <ele>174</ele>
        <time>2018-01-23T09:40:03Z</time>
      </trkpt>
      <trkpt lat="45.92471" lon="4.73589">
        <ele>174</ele>
        <time>2018-01-23T09:40:04Z</time>
      </trkpt>
      <trkpt lat="45.9247" lon="4.73577">
        <ele>173</ele>
        <time>2018-01-23T09:40:06Z</time>
      </trkpt>
      <trkpt lat="45.9247" lon="4.73571">
        <ele>173</ele>
        <time>2018-01-23T09:40:07Z</time>
      </trkpt>
      <trkpt lat="45.92469" lon="4.7356">
        <ele>173</ele>
        <time>2018-01-23T09:40:09Z</time>
      </trkpt>
      <trkpt lat="45.92468" lon="4.73555">
        <ele>173</ele>
        <time>2018-01-23T09:40:10Z</time>
      </trkpt>
      <trkpt lat="45.92468" lon="4.73546">
        <ele>173</ele>
        <time>2018-01-23T09:40:12Z</time>
      </trkpt>
      <trkpt lat="45.92469" lon="4.73541">
        <ele>174</ele>
        <time>2018-01-23T09:40:13Z</time>
      </trkpt>
      <trkpt lat="45.92469" lon="4.7353">
        <ele>174</ele>
        <time>2018-01-23T09:40:15Z</time>
      </trkpt>
      <trkpt lat="45.9247" lon="4.73524">
        <ele>174</ele>
        <time>2018-01-23T09:40:16Z</time>
      </trkpt>
      <trkpt lat="45.9247" lon="4.73511">
        <ele>174</ele>
        <time>2018-01-23T09:40:18Z</time>
      </trkpt>
      <trkpt lat="45.92471" lon="4.73505">
        <ele>174</ele>
        <time>2018-01-23T09:40:19Z</time>
      </trkpt>
      <trkpt lat="45.92472" lon="4.73492">
        <ele>173</ele>
        <time>2018-01-23T09:40:21Z</time>
      </trkpt>
      <trkpt lat="45.92472" lon="4.73486">
        <ele>173</ele>
        <time>2018-01-23T09:40:22Z</time>
      </trkpt>
      <trkpt lat="45.92471" lon="4.73478">
        <ele>173</ele>
        <time>2018-01-23T09:40:23Z</time>
      </trkpt>
      <trkpt lat="45.92471" lon="4.73471">
        <ele>173</ele>
        <time>2018-01-23T09:40:24Z</time>
      </trkpt>
      <trkpt lat="45.9247" lon="4.73465">
        <ele>173</ele>
        <time>2018-01-23T09:40:25Z</time>
      </trkpt>
      <trkpt lat="45.9247" lon="4.73458">
        <ele>173</ele>
        <time>2018-01-23T09:40:26Z</time>
      </trkpt>
      <trkpt lat="45.92469" lon="4.73452">
        <ele>173</ele>
        <time>2018-01-23T09:40:27Z</time>
      </trkpt>
      <trkpt lat="45.92467" lon="4.73445">
        <ele>173</ele>
        <time>2018-01-23T09:40:28Z</time>
      </trkpt>
      <trkpt lat="45.92464" lon="4.73439">
        <ele>173</ele>
        <time>2018-01-23T09:40:29Z</time>
      </trkpt>
      <trkpt lat="45.92461" lon="4.73434">
        <ele>173</ele>
        <time>2018-01-23T09:40:30Z</time>
      </trkpt>
      <trkpt lat="45.92457" lon="4.73429">
        <ele>173</ele>
        <time>2018-01-23T09:40:31Z</time>
      </trkpt>
      <trkpt lat="45.92454" lon="4.73426">
        <ele>173</ele>
        <time>2018-01-23T09:40:32Z</time>
      </trkpt>
      <trkpt lat="45.9245" lon="4.73423">
        <ele>173</ele>
        <time>2018-01-23T09:40:33Z</time>
      </trkpt>
      <trkpt lat="45.92445" lon="4.73419">
        <ele>173</ele>
        <time>2018-01-23T09:40:34Z</time>
      </trkpt>
      <trkpt lat="45.92442" lon="4.73415">
        <ele>172</ele>
        <time>2018-01-23T09:40:35Z</time>
      </trkpt>
      <trkpt lat="45.92438" lon="4.7341">
        <ele>172</ele>
        <time>2018-01-23T09:40:36Z</time>
      </trkpt>
      <trkpt lat="45.92434" lon="4.73404">
        <ele>172</ele>
        <time>2018-01-23T09:40:37Z</time>
      </trkpt>
      <trkpt lat="45.9243" lon="4.73398">
        <ele>172</ele>
        <time>2018-01-23T09:40:38Z</time>
      </trkpt>
      <trkpt lat="45.92428" lon="4.73392">
        <ele>172</ele>
        <time>2018-01-23T09:40:39Z</time>
      </trkpt>
      <trkpt lat="45.92427" lon="4.73384">
        <ele>172</ele>
        <time>2018-01-23T09:40:40Z</time>
      </trkpt>
      <trkpt lat="45.92425" lon="4.73376">
        <ele>172</ele>
        <time>2018-01-23T09:40:41Z</time>
      </trkpt>
      <trkpt lat="45.92424" lon="4.73368">
        <ele>172</ele>
        <time>2018-01-23T09:40:42Z</time>
      </trkpt>
      <trkpt lat="45.92423" lon="4.7336">
        <ele>171</ele>
        <time>2018-01-23T09:40:43Z</time>
      </trkpt>
      <trkpt lat="45.92422" lon="4.73352">
        <ele>171</ele>
        <time>2018-01-23T09:40:44Z</time>
      </trkpt>
      <trkpt lat="45.92421" lon="4.73345">
        <ele>171</ele>
        <time>2018-01-23T09:40:45Z</time>
      </trkpt>
      <trkpt lat="45.9242" lon="4.73338">
        <ele>171</ele>
        <time>2018-01-23T09:40:46Z</time>
      </trkpt>
      <trkpt lat="45.9242" lon="4.73331">
        <ele>171</ele>
        <time>2018-01-23T09:40:47Z</time>
      </trkpt>
      <trkpt lat="45.92418" lon="4.73324">
        <ele>171</ele>
        <time>2018-01-23T09:40:48Z</time>
      </trkpt>
      <trkpt lat="45.92417" lon="4.73316">
        <ele>171</ele>
        <time>2018-01-23T09:40:49Z</time>
      </trkpt>
      <trkpt lat="45.92417" lon="4.73309">
        <ele>171</ele>
        <time>2018-01-23T09:40:50Z</time>
      </trkpt>
      <trkpt lat="45.92417" lon="4.73301">
        <ele>171</ele>
        <time>2018-01-23T09:40:51Z</time>
      </trkpt>
      <trkpt lat="45.92416" lon="4.73294">
        <ele>171</ele>
        <time>2018-01-23T09:40:52Z</time>
      </trkpt>
      <trkpt lat="45.92416" lon="4.73286">
        <ele>171</ele>
        <time>2018-01-23T09:40:53Z</time>
      </trkpt>
      <trkpt lat="45.92415" lon="4.73278">
        <ele>171</ele>
        <time>2018-01-23T09:40:54Z</time>
      </trkpt>
      <trkpt lat="45.92414" lon="4.73271">
        <ele>171</ele>
        <time>2018-01-23T09:40:55Z</time>
      </trkpt>
      <trkpt lat="45.92413" lon="4.73263">
        <ele>171</ele>
        <time>2018-01-23T09:40:56Z</time>
      </trkpt>
      <trkpt lat="45.92413" lon="4.73256">
        <ele>171</ele>
        <time>2018-01-23T09:40:57Z</time>
      </trkpt>
      <trkpt lat="45.92412" lon="4.73248">
        <ele>171</ele>
        <time>2018-01-23T09:40:58Z</time>
      </trkpt>
      <trkpt lat="45.92412" lon="4.7324">
        <ele>171</ele>
        <time>2018-01-23T09:40:59Z</time>
      </trkpt>
      <trkpt lat="45.92412" lon="4.73232">
        <ele>171</ele>
        <time>2018-01-23T09:41:00Z</time>
      </trkpt>
      <trkpt lat="45.92412" lon="4.73224">
        <ele>171</ele>
        <time>2018-01-23T09:41:01Z</time>
      </trkpt>
      <trkpt lat="45.92411" lon="4.73216">
        <ele>171</ele>
        <time>2018-01-23T09:41:02Z</time>
      </trkpt>
      <trkpt lat="45.92411" lon="4.73207">
        <ele>171</ele>
        <time>2018-01-23T09:41:03Z</time>
      </trkpt>
      <trkpt lat="45.9241" lon="4.73199">
        <ele>171</ele>
        <time>2018-01-23T09:41:04Z</time>
      </trkpt>
      <trkpt lat="45.9241" lon="4.73191">
        <ele>171</ele>
        <time>2018-01-23T09:41:05Z</time>
      </trkpt>
      <trkpt lat="45.92409" lon="4.73183">
        <ele>171</ele>
        <time>2018-01-23T09:41:06Z</time>
      </trkpt>
      <trkpt lat="45.9241" lon="4.73174">
        <ele>170</ele>
        <time>2018-01-23T09:41:07Z</time>
      </trkpt>
      <trkpt lat="45.9241" lon="4.73166">
        <ele>170</ele>
        <time>2018-01-23T09:41:08Z</time>
      </trkpt>
      <trkpt lat="45.9241" lon="4.73159">
        <ele>170</ele>
        <time>2018-01-23T09:41:09Z</time>
      </trkpt>
      <trkpt lat="45.9241" lon="4.73151">
        <ele>171</ele>
        <time>2018-01-23T09:41:10Z</time>
      </trkpt>
      <trkpt lat="45.9241" lon="4.73144">
        <ele>171</ele>
        <time>2018-01-23T09:41:11Z</time>
      </trkpt>
      <trkpt lat="45.9241" lon="4.73137">
        <ele>171</ele>
        <time>2018-01-23T09:41:12Z</time>
      </trkpt>
      <trkpt lat="45.92411" lon="4.73129">
        <ele>171</ele>
        <time>2018-01-23T09:41:13Z</time>
      </trkpt>
      <trkpt lat="45.92411" lon="4.73123">
        <ele>171</ele>
        <time>2018-01-23T09:41:14Z</time>
      </trkpt>
      <trkpt lat="45.92417" lon="4.73113">
        <ele>170</ele>
        <time>2018-01-23T09:41:16Z</time>
      </trkpt>
      <trkpt lat="45.92421" lon="4.73109">
        <ele>170</ele>
        <time>2018-01-23T09:41:17Z</time>
      </trkpt>
      <trkpt lat="45.92425" lon="4.73105">
        <ele>171</ele>
        <time>2018-01-23T09:41:18Z</time>
      </trkpt>
      <trkpt lat="45.9243" lon="4.73101">
        <ele>171</ele>
        <time>2018-01-23T09:41:19Z</time>
      </trkpt>
      <trkpt lat="45.92434" lon="4.73097">
        <ele>171</ele>
        <time>2018-01-23T09:41:20Z</time>
      </trkpt>
      <trkpt lat="45.92439" lon="4.73094">
        <ele>171</ele>
        <time>2018-01-23T09:41:21Z</time>
      </trkpt>
      <trkpt lat="45.92444" lon="4.7309">
        <ele>170</ele>
        <time>2018-01-23T09:41:22Z</time>
      </trkpt>
      <trkpt lat="45.92449" lon="4.73086">
        <ele>170</ele>
        <time>2018-01-23T09:41:23Z</time>
      </trkpt>
      <trkpt lat="45.92453" lon="4.73082">
        <ele>170</ele>
        <time>2018-01-23T09:41:24Z</time>
      </trkpt>
      <trkpt lat="45.92458" lon="4.73077">
        <ele>170</ele>
        <time>2018-01-23T09:41:25Z</time>
      </trkpt>
      <trkpt lat="45.92463" lon="4.73073">
        <ele>170</ele>
        <time>2018-01-23T09:41:26Z</time>
      </trkpt>
      <trkpt lat="45.92468" lon="4.73069">
        <ele>170</ele>
        <time>2018-01-23T09:41:27Z</time>
      </trkpt>
      <trkpt lat="45.92473" lon="4.73064">
        <ele>170</ele>
        <time>2018-01-23T09:41:28Z</time>
      </trkpt>
      <trkpt lat="45.92478" lon="4.7306">
        <ele>170</ele>
        <time>2018-01-23T09:41:29Z</time>
      </trkpt>
      <trkpt lat="45.92482" lon="4.73057">
        <ele>170</ele>
        <time>2018-01-23T09:41:30Z</time>
      </trkpt>
      <trkpt lat="45.92487" lon="4.73052">
        <ele>170</ele>
        <time>2018-01-23T09:41:31Z</time>
      </trkpt>
      <trkpt lat="45.92492" lon="4.73048">
        <ele>170</ele>
        <time>2018-01-23T09:41:32Z</time>
      </trkpt>
      <trkpt lat="45.92497" lon="4.73044">
        <ele>170</ele>
        <time>2018-01-23T09:41:33Z</time>
      </trkpt>
      <trkpt lat="45.92502" lon="4.7304">
        <ele>169</ele>
        <time>2018-01-23T09:41:34Z</time>
      </trkpt>
      <trkpt lat="45.92506" lon="4.73036">
        <ele>169</ele>
        <time>2018-01-23T09:41:35Z</time>
      </trkpt>
      <trkpt lat="45.92511" lon="4.73032">
        <ele>169</ele>
        <time>2018-01-23T09:41:36Z</time>
      </trkpt>
      <trkpt lat="45.92516" lon="4.73028">
        <ele>169</ele>
        <time>2018-01-23T09:41:37Z</time>
      </trkpt>
      <trkpt lat="45.92521" lon="4.73025">
        <ele>169</ele>
        <time>2018-01-23T09:41:38Z</time>
      </trkpt>
      <trkpt lat="45.92526" lon="4.73021">
        <ele>169</ele>
        <time>2018-01-23T09:41:39Z</time>
      </trkpt>
      <trkpt lat="45.92531" lon="4.73016">
        <ele>169</ele>
        <time>2018-01-23T09:41:40Z</time>
      </trkpt>
      <trkpt lat="45.92536" lon="4.73012">
        <ele>169</ele>
        <time>2018-01-23T09:41:41Z</time>
      </trkpt>
      <trkpt lat="45.9254" lon="4.73007">
        <ele>169</ele>
        <time>2018-01-23T09:41:42Z</time>
      </trkpt>
      <trkpt lat="45.92546" lon="4.73003">
        <ele>169</ele>
        <time>2018-01-23T09:41:43Z</time>
      </trkpt>
      <trkpt lat="45.9255" lon="4.72997">
        <ele>169</ele>
        <time>2018-01-23T09:41:44Z</time>
      </trkpt>
      <trkpt lat="45.92556" lon="4.72992">
        <ele>169</ele>
        <time>2018-01-23T09:41:45Z</time>
      </trkpt>
      <trkpt lat="45.92561" lon="4.72988">
        <ele>169</ele>
        <time>2018-01-23T09:41:46Z</time>
      </trkpt>
      <trkpt lat="45.92567" lon="4.72983">
        <ele>169</ele>
        <time>2018-01-23T09:41:47Z</time>
      </trkpt>
      <trkpt lat="45.92571" lon="4.72977">
        <ele>169</ele>
        <time>2018-01-23T09:41:48Z</time>
      </trkpt>
      <trkpt lat="45.92576" lon="4.72971">
        <ele>169</ele>
        <time>2018-01-23T09:41:49Z</time>
      </trkpt>
      <trkpt lat="45.92581" lon="4.72966">
        <ele>169</ele>
        <time>2018-01-23T09:41:50Z</time>
      </trkpt>
      <trkpt lat="45.92585" lon="4.72962">
        <ele>169</ele>
        <time>2018-01-23T09:41:51Z</time>
      </trkpt>
      <trkpt lat="45.92589" lon="4.72956">
        <ele>169</ele>
        <time>2018-01-23T09:41:52Z</time>
      </trkpt>
      <trkpt lat="45.92593" lon="4.72951">
        <ele>169</ele>
        <time>2018-01-23T09:41:53Z</time>
      </trkpt>
      <trkpt lat="45.92597" lon="4.72945">
        <ele>169</ele>
        <time>2018-01-23T09:41:54Z</time>
      </trkpt>
      <trkpt lat="45.92602" lon="4.7294">
        <ele>169</ele>
        <time>2018-01-23T09:41:55Z</time>
      </trkpt>
      <trkpt lat="45.92607" lon="4.72936">
        <ele>169</ele>
        <time>2018-01-23T09:41:56Z</time>
      </trkpt>
      <trkpt lat="45.92612" lon="4.72931">
        <ele>169</ele>
        <time>2018-01-23T09:41:57Z</time>
      </trkpt>
      <trkpt lat="45.92616" lon="4.72927">
        <ele>169</ele>
        <time>2018-01-23T09:41:58Z</time>
      </trkpt>
      <trkpt lat="45.9262" lon="4.72923">
        <ele>169</ele>
        <time>2018-01-23T09:41:59Z</time>
      </trkpt>
      <trkpt lat="45.92625" lon="4.72919">
        <ele>170</ele>
        <time>2018-01-23T09:42:00Z</time>
      </trkpt>
      <trkpt lat="45.9263" lon="4.72916">
        <ele>169</ele>
        <time>2018-01-23T09:42:01Z</time>
      </trkpt>
      <trkpt lat="45.92635" lon="4.72912">
        <ele>169</ele>
        <time>2018-01-23T09:42:02Z</time>
      </trkpt>
      <trkpt lat="45.92639" lon="4.72908">
        <ele>169</ele>
        <time>2018-01-23T09:42:03Z</time>
      </trkpt>
      <trkpt lat="45.92645" lon="4.72905">
        <ele>169</ele>
        <time>2018-01-23T09:42:04Z</time>
      </trkpt>
      <trkpt lat="45.9265" lon="4.72901">
        <ele>170</ele>
        <time>2018-01-23T09:42:05Z</time>
      </trkpt>
      <trkpt lat="45.92655" lon="4.72896">
        <ele>170</ele>
        <time>2018-01-23T09:42:06Z</time>
      </trkpt>
      <trkpt lat="45.92661" lon="4.72892">
        <ele>169</ele>
        <time>2018-01-23T09:42:07Z</time>
      </trkpt>
      <trkpt lat="45.92666" lon="4.72887">
        <ele>169</ele>
        <time>2018-01-23T09:42:08Z</time>
      </trkpt>
      <trkpt lat="45.92671" lon="4.72884">
        <ele>170</ele>
        <time>2018-01-23T09:42:09Z</time>
      </trkpt>
      <trkpt lat="45.92676" lon="4.72879">
        <ele>170</ele>
        <time>2018-01-23T09:42:10Z</time>
      </trkpt>
      <trkpt lat="45.92682" lon="4.72874">
        <ele>169</ele>
        <time>2018-01-23T09:42:11Z</time>
      </trkpt>
      <trkpt lat="45.92687" lon="4.72869">
        <ele>169</ele>
        <time>2018-01-23T09:42:12Z</time>
      </trkpt>
      <trkpt lat="45.92692" lon="4.72865">
        <ele>169</ele>
        <time>2018-01-23T09:42:13Z</time>
      </trkpt>
      <trkpt lat="45.92698" lon="4.72861">
        <ele>169</ele>
        <time>2018-01-23T09:42:14Z</time>
      </trkpt>
      <trkpt lat="45.92703" lon="4.72857">
        <ele>169</ele>
        <time>2018-01-23T09:42:15Z</time>
      </trkpt>
      <trkpt lat="45.92708" lon="4.72853">
        <ele>169</ele>
        <time>2018-01-23T09:42:16Z</time>
      </trkpt>
      <trkpt lat="45.92713" lon="4.72848">
        <ele>169</ele>
        <time>2018-01-23T09:42:17Z</time>
      </trkpt>
      <trkpt lat="45.92718" lon="4.72845">
        <ele>169</ele>
        <time>2018-01-23T09:42:18Z</time>
      </trkpt>
      <trkpt lat="45.92723" lon="4.72841">
        <ele>169</ele>
        <time>2018-01-23T09:42:19Z</time>
      </trkpt>
      <trkpt lat="45.92728" lon="4.72837">
        <ele>169</ele>
        <time>2018-01-23T09:42:20Z</time>
      </trkpt>
      <trkpt lat="45.92733" lon="4.72833">
        <ele>169</ele>
        <time>2018-01-23T09:42:21Z</time>
      </trkpt>
      <trkpt lat="45.92739" lon="4.72829">
        <ele>169</ele>
        <time>2018-01-23T09:42:22Z</time>
      </trkpt>
      <trkpt lat="45.92744" lon="4.72826">
        <ele>169</ele>
        <time>2018-01-23T09:42:23Z</time>
      </trkpt>
      <trkpt lat="45.92749" lon="4.72821">
        <ele>169</ele>
        <time>2018-01-23T09:42:24Z</time>
      </trkpt>
      <trkpt lat="45.92755" lon="4.72816">
        <ele>170</ele>
        <time>2018-01-23T09:42:25Z</time>
      </trkpt>
      <trkpt lat="45.92761" lon="4.72812">
        <ele>170</ele>
        <time>2018-01-23T09:42:26Z</time>
      </trkpt>
      <trkpt lat="45.92766" lon="4.72808">
        <ele>170</ele>
        <time>2018-01-23T09:42:27Z</time>
      </trkpt>
      <trkpt lat="45.92771" lon="4.72803">
        <ele>170</ele>
        <time>2018-01-23T09:42:28Z</time>
      </trkpt>
      <trkpt lat="45.92776" lon="4.72801">
        <ele>170</ele>
        <time>2018-01-23T09:42:29Z</time>
      </trkpt>
      <trkpt lat="45.92781" lon="4.72796">
        <ele>170</ele>
        <time>2018-01-23T09:42:30Z</time>
      </trkpt>
      <trkpt lat="45.92786" lon="4.72792">
        <ele>170</ele>
        <time>2018-01-23T09:42:31Z</time>
      </trkpt>
      <trkpt lat="45.9279" lon="4.72789">
        <ele>171</ele>
        <time>2018-01-23T09:42:32Z</time>
      </trkpt>
      <trkpt lat="45.92795" lon="4.72789">
        <ele>171</ele>
        <time>2018-01-23T09:42:33Z</time>
      </trkpt>
      <trkpt lat="45.92802" lon="4.72795">
        <ele>171</ele>
        <time>2018-01-23T09:42:35Z</time>
      </trkpt>
      <trkpt lat="45.92804" lon="4.72801">
        <ele>171</ele>
        <time>2018-01-23T09:42:36Z</time>
      </trkpt>
      <trkpt lat="45.92806" lon="4.72808">
        <ele>171</ele>
        <time>2018-01-23T09:42:37Z</time>
      </trkpt>
      <trkpt lat="45.92807" lon="4.72815">
        <ele>171</ele>
        <time>2018-01-23T09:42:38Z</time>
      </trkpt>
      <trkpt lat="45.92808" lon="4.72822">
        <ele>171</ele>
        <time>2018-01-23T09:42:39Z</time>
      </trkpt>
      <trkpt lat="45.92809" lon="4.72829">
        <ele>171</ele>
        <time>2018-01-23T09:42:40Z</time>
      </trkpt>
      <trkpt lat="45.9281" lon="4.72837">
        <ele>170</ele>
        <time>2018-01-23T09:42:41Z</time>
      </trkpt>
      <trkpt lat="45.92812" lon="4.72845">
        <ele>170</ele>
        <time>2018-01-23T09:42:42Z</time>
      </trkpt>
      <trkpt lat="45.92813" lon="4.72852">
        <ele>170</ele>
        <time>2018-01-23T09:42:43Z</time>
      </trkpt>
      <trkpt lat="45.92815" lon="4.72859">
        <ele>170</ele>
        <time>2018-01-23T09:42:44Z</time>
      </trkpt>
      <trkpt lat="45.92817" lon="4.72867">
        <ele>170</ele>
        <time>2018-01-23T09:42:45Z</time>
      </trkpt>
      <trkpt lat="45.92819" lon="4.72875">
        <ele>170</ele>
        <time>2018-01-23T09:42:46Z</time>
      </trkpt>
      <trkpt lat="45.92821" lon="4.72882">
        <ele>170</ele>
        <time>2018-01-23T09:42:47Z</time>
      </trkpt>
      <trkpt lat="45.92823" lon="4.72891">
        <ele>170</ele>
        <time>2018-01-23T09:42:48Z</time>
      </trkpt>
      <trkpt lat="45.92824" lon="4.729">
        <ele>170</ele>
        <time>2018-01-23T09:42:49Z</time>
      </trkpt>
      <trkpt lat="45.92826" lon="4.72907">
        <ele>170</ele>
        <time>2018-01-23T09:42:50Z</time>
      </trkpt>
      <trkpt lat="45.92827" lon="4.72915">
        <ele>170</ele>
        <time>2018-01-23T09:42:51Z</time>
      </trkpt>
      <trkpt lat="45.92828" lon="4.72923">
        <ele>170</ele>
        <time>2018-01-23T09:42:52Z</time>
      </trkpt>
      <trkpt lat="45.92828" lon="4.72931">
        <ele>170</ele>
        <time>2018-01-23T09:42:53Z</time>
      </trkpt>
      <trkpt lat="45.92829" lon="4.72938">
        <ele>170</ele>
        <time>2018-01-23T09:42:54Z</time>
      </trkpt>
      <trkpt lat="45.9283" lon="4.72946">
        <ele>170</ele>
        <time>2018-01-23T09:42:55Z</time>
      </trkpt>
      <trkpt lat="45.9283" lon="4.72953">
        <ele>170</ele>
        <time>2018-01-23T09:42:56Z</time>
      </trkpt>
      <trkpt lat="45.92831" lon="4.7296">
        <ele>170</ele>
        <time>2018-01-23T09:42:57Z</time>
      </trkpt>
      <trkpt lat="45.92831" lon="4.72967">
        <ele>170</ele>
        <time>2018-01-23T09:42:58Z</time>
      </trkpt>
      <trkpt lat="45.92833" lon="4.72976">
        <ele>170</ele>
        <time>2018-01-23T09:42:59Z</time>
      </trkpt>
      <trkpt lat="45.92834" lon="4.72984">
        <ele>171</ele>
        <time>2018-01-23T09:43:00Z</time>
      </trkpt>
      <trkpt lat="45.92835" lon="4.72992">
        <ele>170</ele>
        <time>2018-01-23T09:43:01Z</time>
      </trkpt>
      <trkpt lat="45.92835" lon="4.73002">
        <ele>170</ele>
        <time>2018-01-23T09:43:02Z</time>
      </trkpt>
      <trkpt lat="45.92836" lon="4.7301">
        <ele>170</ele>
        <time>2018-01-23T09:43:03Z</time>
      </trkpt>
      <trkpt lat="45.92837" lon="4.73017">
        <ele>171</ele>
        <time>2018-01-23T09:43:04Z</time>
      </trkpt>
      <trkpt lat="45.92839" lon="4.73025">
        <ele>171</ele>
        <time>2018-01-23T09:43:05Z</time>
      </trkpt>
      <trkpt lat="45.92841" lon="4.73034">
        <ele>171</ele>
        <time>2018-01-23T09:43:06Z</time>
      </trkpt>
      <trkpt lat="45.92842" lon="4.73042">
        <ele>171</ele>
        <time>2018-01-23T09:43:07Z</time>
      </trkpt>
      <trkpt lat="45.92844" lon="4.7305">
        <ele>171</ele>
        <time>2018-01-23T09:43:08Z</time>
      </trkpt>
      <trkpt lat="45.92845" lon="4.73059">
        <ele>171</ele>
        <time>2018-01-23T09:43:09Z</time>
      </trkpt>
      <trkpt lat="45.92846" lon="4.73066">
        <ele>171</ele>
        <time>2018-01-23T09:43:10Z</time>
      </trkpt>
      <trkpt lat="45.92847" lon="4.73073">
        <ele>171</ele>
        <time>2018-01-23T09:43:11Z</time>
      </trkpt>
      <trkpt lat="45.92847" lon="4.7308">
        <ele>171</ele>
        <time>2018-01-23T09:43:12Z</time>
      </trkpt>
      <trkpt lat="45.92848" lon="4.73087">
        <ele>171</ele>
        <time>2018-01-23T09:43:13Z</time>
      </trkpt>
      <trkpt lat="45.92849" lon="4.73094">
        <ele>171</ele>
        <time>2018-01-23T09:43:14Z</time>
      </trkpt>
      <trkpt lat="45.92853" lon="4.73104">
        <ele>171</ele>
        <time>2018-01-23T09:43:16Z</time>
      </trkpt>
      <trkpt lat="45.92856" lon="4.73106">
        <ele>171</ele>
        <time>2018-01-23T09:43:17Z</time>
      </trkpt>
      <trkpt lat="45.92863" lon="4.73102">
        <ele>171</ele>
        <time>2018-01-23T09:43:19Z</time>
      </trkpt>
      <trkpt lat="45.92865" lon="4.73098">
        <ele>171</ele>
        <time>2018-01-23T09:43:20Z</time>
      </trkpt>
      <trkpt lat="45.92871" lon="4.73091">
        <ele>172</ele>
        <time>2018-01-23T09:43:22Z</time>
      </trkpt>
      <trkpt lat="45.92874" lon="4.73087">
        <ele>172</ele>
        <time>2018-01-23T09:43:23Z</time>
      </trkpt>
      <trkpt lat="45.92881" lon="4.73082">
        <ele>172</ele>
        <time>2018-01-23T09:43:25Z</time>
      </trkpt>
      <trkpt lat="45.92885" lon="4.73078">
        <ele>172</ele>
        <time>2018-01-23T09:43:26Z</time>
      </trkpt>
      <trkpt lat="45.92889" lon="4.73073">
        <ele>172</ele>
        <time>2018-01-23T09:43:27Z</time>
      </trkpt>
      <trkpt lat="45.92894" lon="4.73067">
        <ele>172</ele>
        <time>2018-01-23T09:43:28Z</time>
      </trkpt>
      <trkpt lat="45.92898" lon="4.73061">
        <ele>172</ele>
        <time>2018-01-23T09:43:29Z</time>
      </trkpt>
      <trkpt lat="45.92902" lon="4.73056">
        <ele>172</ele>
        <time>2018-01-23T09:43:30Z</time>
      </trkpt>
      <trkpt lat="45.92905" lon="4.73052">
        <ele>172</ele>
        <time>2018-01-23T09:43:31Z</time>
      </trkpt>
      <trkpt lat="45.92908" lon="4.73046">
        <ele>172</ele>
        <time>2018-01-23T09:43:32Z</time>
      </trkpt>
      <trkpt lat="45.92912" lon="4.73039">
        <ele>172</ele>
        <time>2018-01-23T09:43:33Z</time>
      </trkpt>
      <trkpt lat="45.92916" lon="4.73035">
        <ele>172</ele>
        <time>2018-01-23T09:43:34Z</time>
      </trkpt>
      <trkpt lat="45.9292" lon="4.73028">
        <ele>171</ele>
        <time>2018-01-23T09:43:35Z</time>
      </trkpt>
      <trkpt lat="45.92924" lon="4.73023">
        <ele>171</ele>
        <time>2018-01-23T09:43:36Z</time>
      </trkpt>
      <trkpt lat="45.9293" lon="4.73017">
        <ele>171</ele>
        <time>2018-01-23T09:43:37Z</time>
      </trkpt>
      <trkpt lat="45.92935" lon="4.73011">
        <ele>171</ele>
        <time>2018-01-23T09:43:38Z</time>
      </trkpt>
      <trkpt lat="45.92939" lon="4.73006">
        <ele>171</ele>
        <time>2018-01-23T09:43:39Z</time>
      </trkpt>
      <trkpt lat="45.92944" lon="4.73">
        <ele>171</ele>
        <time>2018-01-23T09:43:40Z</time>
      </trkpt>
      <trkpt lat="45.92948" lon="4.72994">
        <ele>171</ele>
        <time>2018-01-23T09:43:41Z</time>
      </trkpt>
      <trkpt lat="45.92953" lon="4.72988">
        <ele>171</ele>
        <time>2018-01-23T09:43:42Z</time>
      </trkpt>
      <trkpt lat="45.92958" lon="4.72982">
        <ele>171</ele>
        <time>2018-01-23T09:43:43Z</time>
      </trkpt>
      <trkpt lat="45.92963" lon="4.72977">
        <ele>171</ele>
        <time>2018-01-23T09:43:44Z</time>
      </trkpt>
      <trkpt lat="45.92967" lon="4.72972">
        <ele>171</ele>
        <time>2018-01-23T09:43:45Z</time>
      </trkpt>
      <trkpt lat="45.92971" lon="4.72967">
        <ele>171</ele>
        <time>2018-01-23T09:43:46Z</time>
      </trkpt>
      <trkpt lat="45.92976" lon="4.72962">
        <ele>171</ele>
        <time>2018-01-23T09:43:47Z</time>
      </trkpt>
      <trkpt lat="45.9298" lon="4.72957">
        <ele>171</ele>
        <time>2018-01-23T09:43:48Z</time>
      </trkpt>
      <trkpt lat="45.92985" lon="4.72951">
        <ele>171</ele>
        <time>2018-01-23T09:43:49Z</time>
      </trkpt>
      <trkpt lat="45.92989" lon="4.72945">
        <ele>171</ele>
        <time>2018-01-23T09:43:50Z</time>
      </trkpt>
      <trkpt lat="45.92993" lon="4.72939">
        <ele>171</ele>
        <time>2018-01-23T09:43:51Z</time>
      </trkpt>
      <trkpt lat="45.92998" lon="4.72934">
        <ele>171</ele>
        <time>2018-01-23T09:43:52Z</time>
      </trkpt>
      <trkpt lat="45.93003" lon="4.72928">
        <ele>170</ele>
        <time>2018-01-23T09:43:53Z</time>
      </trkpt>
      <trkpt lat="45.93007" lon="4.72923">
        <ele>170</ele>
        <time>2018-01-23T09:43:54Z</time>
      </trkpt>
      <trkpt lat="45.93012" lon="4.72917">
        <ele>170</ele>
        <time>2018-01-23T09:43:55Z</time>
      </trkpt>
      <trkpt lat="45.93017" lon="4.7291">
        <ele>171</ele>
        <time>2018-01-23T09:43:56Z</time>
      </trkpt>
      <trkpt lat="45.93022" lon="4.72904">
        <ele>172</ele>
        <time>2018-01-23T09:43:57Z</time>
      </trkpt>
      <trkpt lat="45.93028" lon="4.72898">
        <ele>172</ele>
        <time>2018-01-23T09:43:58Z</time>
      </trkpt>
      <trkpt lat="45.93033" lon="4.72892">
        <ele>172</ele>
        <time>2018-01-23T09:43:59Z</time>
      </trkpt>
      <trkpt lat="45.93038" lon="4.72886">
        <ele>172</ele>
        <time>2018-01-23T09:44:00Z</time>
      </trkpt>
      <trkpt lat="45.93043" lon="4.72881">
        <ele>172</ele>
        <time>2018-01-23T09:44:01Z</time>
      </trkpt>
      <trkpt lat="45.93049" lon="4.72874">
        <ele>172</ele>
        <time>2018-01-23T09:44:02Z</time>
      </trkpt>
      <trkpt lat="45.93053" lon="4.72869">
        <ele>172</ele>
        <time>2018-01-23T09:44:03Z</time>
      </trkpt>
      <trkpt lat="45.93057" lon="4.72864">
        <ele>172</ele>
        <time>2018-01-23T09:44:04Z</time>
      </trkpt>
      <trkpt lat="45.93062" lon="4.7286">
        <ele>172</ele>
        <time>2018-01-23T09:44:05Z</time>
      </trkpt>
      <trkpt lat="45.93067" lon="4.72856">
        <ele>172</ele>
        <time>2018-01-23T09:44:06Z</time>
      </trkpt>
      <trkpt lat="45.93071" lon="4.7285">
        <ele>172</ele>
        <time>2018-01-23T09:44:07Z</time>
      </trkpt>
      <trkpt lat="45.93084" lon="4.7283">
        <ele>173</ele>
        <time>2018-01-23T09:44:10Z</time>
      </trkpt>
      <trkpt lat="45.93089" lon="4.72824">
        <ele>172</ele>
        <time>2018-01-23T09:44:11Z</time>
      </trkpt>
      <trkpt lat="45.93096" lon="4.72817">
        <ele>172</ele>
        <time>2018-01-23T09:44:12Z</time>
      </trkpt>
      <trkpt lat="45.93099" lon="4.72811">
        <ele>172</ele>
        <time>2018-01-23T09:44:13Z</time>
      </trkpt>
      <trkpt lat="45.93104" lon="4.72806">
        <ele>171</ele>
        <time>2018-01-23T09:44:14Z</time>
      </trkpt>
      <trkpt lat="45.9311" lon="4.72801">
        <ele>171</ele>
        <time>2018-01-23T09:44:15Z</time>
      </trkpt>
      <trkpt lat="45.93115" lon="4.72795">
        <ele>171</ele>
        <time>2018-01-23T09:44:16Z</time>
      </trkpt>
      <trkpt lat="45.93121" lon="4.72791">
        <ele>171</ele>
        <time>2018-01-23T09:44:17Z</time>
      </trkpt>
      <trkpt lat="45.93125" lon="4.72786">
        <ele>171</ele>
        <time>2018-01-23T09:44:18Z</time>
      </trkpt>
      <trkpt lat="45.9313" lon="4.72781">
        <ele>171</ele>
        <time>2018-01-23T09:44:19Z</time>
      </trkpt>
      <trkpt lat="45.93135" lon="4.72776">
        <ele>171</ele>
        <time>2018-01-23T09:44:20Z</time>
      </trkpt>
      <trkpt lat="45.9314" lon="4.72771">
        <ele>171</ele>
        <time>2018-01-23T09:44:21Z</time>
      </trkpt>
      <trkpt lat="45.93145" lon="4.72765">
        <ele>171</ele>
        <time>2018-01-23T09:44:22Z</time>
      </trkpt>
      <trkpt lat="45.9315" lon="4.7276">
        <ele>170</ele>
        <time>2018-01-23T09:44:23Z</time>
      </trkpt>
      <trkpt lat="45.93154" lon="4.72755">
        <ele>170</ele>
        <time>2018-01-23T09:44:24Z</time>
      </trkpt>
      <trkpt lat="45.93158" lon="4.72749">
        <ele>170</ele>
        <time>2018-01-23T09:44:25Z</time>
      </trkpt>
      <trkpt lat="45.93163" lon="4.72743">
        <ele>170</ele>
        <time>2018-01-23T09:44:26Z</time>
      </trkpt>
      <trkpt lat="45.93167" lon="4.72739">
        <ele>170</ele>
        <time>2018-01-23T09:44:27Z</time>
      </trkpt>
      <trkpt lat="45.93171" lon="4.72734">
        <ele>170</ele>
        <time>2018-01-23T09:44:28Z</time>
      </trkpt>
      <trkpt lat="45.93176" lon="4.72729">
        <ele>170</ele>
        <time>2018-01-23T09:44:29Z</time>
      </trkpt>
      <trkpt lat="45.93182" lon="4.72722">
        <ele>169</ele>
        <time>2018-01-23T09:44:30Z</time>
      </trkpt>
      <trkpt lat="45.93187" lon="4.72717">
        <ele>169</ele>
        <time>2018-01-23T09:44:31Z</time>
      </trkpt>
      <trkpt lat="45.93191" lon="4.72711">
        <ele>169</ele>
        <time>2018-01-23T09:44:32Z</time>
      </trkpt>
      <trkpt lat="45.93197" lon="4.72704">
        <ele>169</ele>
        <time>2018-01-23T09:44:33Z</time>
      </trkpt>
      <trkpt lat="45.93202" lon="4.727">
        <ele>169</ele>
        <time>2018-01-23T09:44:34Z</time>
      </trkpt>
      <trkpt lat="45.93207" lon="4.72693">
        <ele>169</ele>
        <time>2018-01-23T09:44:35Z</time>
      </trkpt>
      <trkpt lat="45.93212" lon="4.72687">
        <ele>169</ele>
        <time>2018-01-23T09:44:36Z</time>
      </trkpt>
      <trkpt lat="45.93217" lon="4.72681">
        <ele>169</ele>
        <time>2018-01-23T09:44:37Z</time>
      </trkpt>
      <trkpt lat="45.93222" lon="4.72675">
        <ele>169</ele>
        <time>2018-01-23T09:44:38Z</time>
      </trkpt>
      <trkpt lat="45.93226" lon="4.72669">
        <ele>169</ele>
        <time>2018-01-23T09:44:39Z</time>
      </trkpt>
      <trkpt lat="45.9323" lon="4.72663">
        <ele>169</ele>
        <time>2018-01-23T09:44:40Z</time>
      </trkpt>
      <trkpt lat="45.93235" lon="4.72658">
        <ele>169</ele>
        <time>2018-01-23T09:44:41Z</time>
      </trkpt>
      <trkpt lat="45.93239" lon="4.72652">
        <ele>169</ele>
        <time>2018-01-23T09:44:42Z</time>
      </trkpt>
      <trkpt lat="45.93244" lon="4.72646">
        <ele>170</ele>
        <time>2018-01-23T09:44:43Z</time>
      </trkpt>
      <trkpt lat="45.93249" lon="4.72639">
        <ele>170</ele>
        <time>2018-01-23T09:44:44Z</time>
      </trkpt>
      <trkpt lat="45.93254" lon="4.72635">
        <ele>170</ele>
        <time>2018-01-23T09:44:45Z</time>
      </trkpt>
      <trkpt lat="45.93259" lon="4.72629">
        <ele>170</ele>
        <time>2018-01-23T09:44:46Z</time>
      </trkpt>
      <trkpt lat="45.93264" lon="4.72623">
        <ele>170</ele>
        <time>2018-01-23T09:44:47Z</time>
      </trkpt>
      <trkpt lat="45.93268" lon="4.72618">
        <ele>170</ele>
        <time>2018-01-23T09:44:48Z</time>
      </trkpt>
      <trkpt lat="45.93273" lon="4.72613">
        <ele>170</ele>
        <time>2018-01-23T09:44:49Z</time>
      </trkpt>
      <trkpt lat="45.93279" lon="4.72604">
        <ele>170</ele>
        <time>2018-01-23T09:44:50Z</time>
      </trkpt>
      <trkpt lat="45.93284" lon="4.72598">
        <ele>170</ele>
        <time>2018-01-23T09:44:51Z</time>
      </trkpt>
      <trkpt lat="45.93288" lon="4.72592">
        <ele>170</ele>
        <time>2018-01-23T09:44:52Z</time>
      </trkpt>
      <trkpt lat="45.93294" lon="4.72586">
        <ele>170</ele>
        <time>2018-01-23T09:44:53Z</time>
      </trkpt>
      <trkpt lat="45.93299" lon="4.72578">
        <ele>171</ele>
        <time>2018-01-23T09:44:54Z</time>
      </trkpt>
      <trkpt lat="45.93305" lon="4.72574">
        <ele>171</ele>
        <time>2018-01-23T09:44:55Z</time>
      </trkpt>
      <trkpt lat="45.93311" lon="4.72568">
        <ele>171</ele>
        <time>2018-01-23T09:44:56Z</time>
      </trkpt>
      <trkpt lat="45.93316" lon="4.72562">
        <ele>171</ele>
        <time>2018-01-23T09:44:57Z</time>
      </trkpt>
      <trkpt lat="45.93321" lon="4.72556">
        <ele>171</ele>
        <time>2018-01-23T09:44:58Z</time>
      </trkpt>
      <trkpt lat="45.93325" lon="4.72552">
        <ele>172</ele>
        <time>2018-01-23T09:44:59Z</time>
      </trkpt>
      <trkpt lat="45.9333" lon="4.72546">
        <ele>172</ele>
        <time>2018-01-23T09:45:00Z</time>
      </trkpt>
      <trkpt lat="45.93334" lon="4.7254">
        <ele>171</ele>
        <time>2018-01-23T09:45:01Z</time>
      </trkpt>
      <trkpt lat="45.93339" lon="4.72534">
        <ele>172</ele>
        <time>2018-01-23T09:45:02Z</time>
      </trkpt>
      <trkpt lat="45.93343" lon="4.72529">
        <ele>172</ele>
        <time>2018-01-23T09:45:03Z</time>
      </trkpt>
      <trkpt lat="45.93347" lon="4.72525">
        <ele>172</ele>
        <time>2018-01-23T09:45:04Z</time>
      </trkpt>
      <trkpt lat="45.93351" lon="4.72519">
        <ele>172</ele>
        <time>2018-01-23T09:45:05Z</time>
      </trkpt>
      <trkpt lat="45.93356" lon="4.72514">
        <ele>172</ele>
        <time>2018-01-23T09:45:06Z</time>
      </trkpt>
      <trkpt lat="45.9336" lon="4.7251">
        <ele>172</ele>
        <time>2018-01-23T09:45:07Z</time>
      </trkpt>
      <trkpt lat="45.93365" lon="4.72504">
        <ele>172</ele>
        <time>2018-01-23T09:45:08Z</time>
      </trkpt>
      <trkpt lat="45.93369" lon="4.72499">
        <ele>173</ele>
        <time>2018-01-23T09:45:09Z</time>
      </trkpt>
      <trkpt lat="45.93374" lon="4.72493">
        <ele>173</ele>
        <time>2018-01-23T09:45:10Z</time>
      </trkpt>
      <trkpt lat="45.93379" lon="4.72487">
        <ele>173</ele>
        <time>2018-01-23T09:45:11Z</time>
      </trkpt>
      <trkpt lat="45.93384" lon="4.72482">
        <ele>173</ele>
        <time>2018-01-23T09:45:12Z</time>
      </trkpt>
      <trkpt lat="45.93389" lon="4.72477">
        <ele>173</ele>
        <time>2018-01-23T09:45:13Z</time>
      </trkpt>
      <trkpt lat="45.93393" lon="4.72472">
        <ele>173</ele>
        <time>2018-01-23T09:45:14Z</time>
      </trkpt>
      <trkpt lat="45.93396" lon="4.72466">
        <ele>173</ele>
        <time>2018-01-23T09:45:15Z</time>
      </trkpt>
      <trkpt lat="45.93398" lon="4.72461">
        <ele>173</ele>
        <time>2018-01-23T09:45:16Z</time>
      </trkpt>
      <trkpt lat="45.93401" lon="4.72451">
        <ele>173</ele>
        <time>2018-01-23T09:45:21Z</time>
      </trkpt>
      <trkpt lat="45.93402" lon="4.72449">
        <ele>173</ele>
        <time>2018-01-23T09:45:22Z</time>
      </trkpt>
      <trkpt lat="45.93407" lon="4.72439">
        <ele>173</ele>
        <time>2018-01-23T09:45:26Z</time>
      </trkpt>
      <trkpt lat="45.93409" lon="4.72436">
        <ele>173</ele>
        <time>2018-01-23T09:45:27Z</time>
      </trkpt>
      <trkpt lat="45.93413" lon="4.72428">
        <ele>174</ele>
        <time>2018-01-23T09:45:29Z</time>
      </trkpt>
      <trkpt lat="45.93415" lon="4.72423">
        <ele>174</ele>
        <time>2018-01-23T09:45:30Z</time>
      </trkpt>
      <trkpt lat="45.93423" lon="4.72419">
        <ele>174</ele>
        <time>2018-01-23T09:45:32Z</time>
      </trkpt>
      <trkpt lat="45.93427" lon="4.72417">
        <ele>174</ele>
        <time>2018-01-23T09:45:33Z</time>
      </trkpt>
      <trkpt lat="45.93432" lon="4.72414">
        <ele>174</ele>
        <time>2018-01-23T09:45:34Z</time>
      </trkpt>
      <trkpt lat="45.93436" lon="4.72411">
        <ele>174</ele>
        <time>2018-01-23T09:45:35Z</time>
      </trkpt>
      <trkpt lat="45.93441" lon="4.72409">
        <ele>174</ele>
        <time>2018-01-23T09:45:36Z</time>
      </trkpt>
      <trkpt lat="45.93445" lon="4.72405">
        <ele>173</ele>
        <time>2018-01-23T09:45:37Z</time>
      </trkpt>
      <trkpt lat="45.9345" lon="4.72401">
        <ele>173</ele>
        <time>2018-01-23T09:45:38Z</time>
      </trkpt>
      <trkpt lat="45.93455" lon="4.72396">
        <ele>173</ele>
        <time>2018-01-23T09:45:39Z</time>
      </trkpt>
      <trkpt lat="45.9346" lon="4.72391">
        <ele>173</ele>
        <time>2018-01-23T09:45:40Z</time>
      </trkpt>
      <trkpt lat="45.93465" lon="4.72385">
        <ele>173</ele>
        <time>2018-01-23T09:45:41Z</time>
      </trkpt>
      <trkpt lat="45.93469" lon="4.72379">
        <ele>173</ele>
        <time>2018-01-23T09:45:42Z</time>
      </trkpt>
      <trkpt lat="45.93474" lon="4.72373">
        <ele>173</ele>
        <time>2018-01-23T09:45:43Z</time>
      </trkpt>
      <trkpt lat="45.93478" lon="4.72367">
        <ele>173</ele>
        <time>2018-01-23T09:45:44Z</time>
      </trkpt>
      <trkpt lat="45.93482" lon="4.72361">
        <ele>173</ele>
        <time>2018-01-23T09:45:45Z</time>
      </trkpt>
      <trkpt lat="45.93487" lon="4.72355">
        <ele>173</ele>
        <time>2018-01-23T09:45:46Z</time>
      </trkpt>
      <trkpt lat="45.93492" lon="4.7235">
        <ele>173</ele>
        <time>2018-01-23T09:45:47Z</time>
      </trkpt>
      <trkpt lat="45.93495" lon="4.72345">
        <ele>173</ele>
        <time>2018-01-23T09:45:48Z</time>
      </trkpt>
      <trkpt lat="45.93499" lon="4.72339">
        <ele>173</ele>
        <time>2018-01-23T09:45:49Z</time>
      </trkpt>
      <trkpt lat="45.93504" lon="4.7233">
        <ele>173</ele>
        <time>2018-01-23T09:45:50Z</time>
      </trkpt>
      <trkpt lat="45.93509" lon="4.72324">
        <ele>173</ele>
        <time>2018-01-23T09:45:51Z</time>
      </trkpt>
      <trkpt lat="45.93513" lon="4.72319">
        <ele>173</ele>
        <time>2018-01-23T09:45:52Z</time>
      </trkpt>
      <trkpt lat="45.93516" lon="4.72314">
        <ele>173</ele>
        <time>2018-01-23T09:45:53Z</time>
      </trkpt>
      <trkpt lat="45.93519" lon="4.72309">
        <ele>173</ele>
        <time>2018-01-23T09:45:54Z</time>
      </trkpt>
      <trkpt lat="45.93522" lon="4.72303">
        <ele>173</ele>
        <time>2018-01-23T09:45:55Z</time>
      </trkpt>
      <trkpt lat="45.93524" lon="4.72297">
        <ele>172</ele>
        <time>2018-01-23T09:45:56Z</time>
      </trkpt>
      <trkpt lat="45.93527" lon="4.72292">
        <ele>172</ele>
        <time>2018-01-23T09:45:57Z</time>
      </trkpt>
      <trkpt lat="45.93529" lon="4.72287">
        <ele>172</ele>
        <time>2018-01-23T09:45:58Z</time>
      </trkpt>
      <trkpt lat="45.93531" lon="4.7228">
        <ele>172</ele>
        <time>2018-01-23T09:45:59Z</time>
      </trkpt>
      <trkpt lat="45.93533" lon="4.72275">
        <ele>172</ele>
        <time>2018-01-23T09:46:00Z</time>
      </trkpt>
      <trkpt lat="45.93535" lon="4.72268">
        <ele>172</ele>
        <time>2018-01-23T09:46:01Z</time>
      </trkpt>
      <trkpt lat="45.93539" lon="4.72257">
        <ele>172</ele>
        <time>2018-01-23T09:46:03Z</time>
      </trkpt>
      <trkpt lat="45.93542" lon="4.72252">
        <ele>172</ele>
        <time>2018-01-23T09:46:04Z</time>
      </trkpt>
      <trkpt lat="45.93544" lon="4.72246">
        <ele>172</ele>
        <time>2018-01-23T09:46:05Z</time>
      </trkpt>
      <trkpt lat="45.93546" lon="4.7224">
        <ele>172</ele>
        <time>2018-01-23T09:46:06Z</time>
      </trkpt>
      <trkpt lat="45.93549" lon="4.72234">
        <ele>172</ele>
        <time>2018-01-23T09:46:07Z</time>
      </trkpt>
      <trkpt lat="45.93552" lon="4.72228">
        <ele>172</ele>
        <time>2018-01-23T09:46:08Z</time>
      </trkpt>
      <trkpt lat="45.93556" lon="4.72222">
        <ele>173</ele>
        <time>2018-01-23T09:46:09Z</time>
      </trkpt>
      <trkpt lat="45.9356" lon="4.72217">
        <ele>173</ele>
        <time>2018-01-23T09:46:10Z</time>
      </trkpt>
      <trkpt lat="45.93563" lon="4.72212">
        <ele>173</ele>
        <time>2018-01-23T09:46:11Z</time>
      </trkpt>
      <trkpt lat="45.93568" lon="4.72208">
        <ele>173</ele>
        <time>2018-01-23T09:46:12Z</time>
      </trkpt>
      <trkpt lat="45.93573" lon="4.72204">
        <ele>173</ele>
        <time>2018-01-23T09:46:13Z</time>
      </trkpt>
      <trkpt lat="45.93578" lon="4.72199">
        <ele>173</ele>
        <time>2018-01-23T09:46:14Z</time>
      </trkpt>
      <trkpt lat="45.93582" lon="4.72194">
        <ele>173</ele>
        <time>2018-01-23T09:46:15Z</time>
      </trkpt>
      <trkpt lat="45.93587" lon="4.7219">
        <ele>173</ele>
        <time>2018-01-23T09:46:16Z</time>
      </trkpt>
      <trkpt lat="45.93591" lon="4.72186">
        <ele>173</ele>
        <time>2018-01-23T09:46:17Z</time>
      </trkpt>
      <trkpt lat="45.93595" lon="4.72183">
        <ele>173</ele>
        <time>2018-01-23T09:46:18Z</time>
      </trkpt>
      <trkpt lat="45.93599" lon="4.7218">
        <ele>173</ele>
        <time>2018-01-23T09:46:19Z</time>
      </trkpt>
      <trkpt lat="45.93604" lon="4.72176">
        <ele>173</ele>
        <time>2018-01-23T09:46:20Z</time>
      </trkpt>
      <trkpt lat="45.93609" lon="4.72173">
        <ele>173</ele>
        <time>2018-01-23T09:46:21Z</time>
      </trkpt>
      <trkpt lat="45.93613" lon="4.72169">
        <ele>173</ele>
        <time>2018-01-23T09:46:22Z</time>
      </trkpt>
      <trkpt lat="45.93618" lon="4.72163">
        <ele>173</ele>
        <time>2018-01-23T09:46:23Z</time>
      </trkpt>
      <trkpt lat="45.93623" lon="4.72157">
        <ele>173</ele>
        <time>2018-01-23T09:46:24Z</time>
      </trkpt>
      <trkpt lat="45.93628" lon="4.72152">
        <ele>173</ele>
        <time>2018-01-23T09:46:25Z</time>
      </trkpt>
      <trkpt lat="45.93633" lon="4.72146">
        <ele>173</ele>
        <time>2018-01-23T09:46:26Z</time>
      </trkpt>
      <trkpt lat="45.93637" lon="4.7214">
        <ele>173</ele>
        <time>2018-01-23T09:46:27Z</time>
      </trkpt>
      <trkpt lat="45.93641" lon="4.72133">
        <ele>173</ele>
        <time>2018-01-23T09:46:28Z</time>
      </trkpt>
      <trkpt lat="45.93646" lon="4.72126">
        <ele>173</ele>
        <time>2018-01-23T09:46:29Z</time>
      </trkpt>
      <trkpt lat="45.9365" lon="4.72121">
        <ele>173</ele>
        <time>2018-01-23T09:46:30Z</time>
      </trkpt>
      <trkpt lat="45.93653" lon="4.72115">
        <ele>173</ele>
        <time>2018-01-23T09:46:31Z</time>
      </trkpt>
      <trkpt lat="45.93657" lon="4.72109">
        <ele>173</ele>
        <time>2018-01-23T09:46:32Z</time>
      </trkpt>
      <trkpt lat="45.9366" lon="4.72104">
        <ele>173</ele>
        <time>2018-01-23T09:46:33Z</time>
      </trkpt>
      <trkpt lat="45.93664" lon="4.72098">
        <ele>173</ele>
        <time>2018-01-23T09:46:34Z</time>
      </trkpt>
      <trkpt lat="45.93667" lon="4.72093">
        <ele>172</ele>
        <time>2018-01-23T09:46:35Z</time>
      </trkpt>
      <trkpt lat="45.93671" lon="4.72087">
        <ele>172</ele>
        <time>2018-01-23T09:46:36Z</time>
      </trkpt>
      <trkpt lat="45.93675" lon="4.7208">
        <ele>172</ele>
        <time>2018-01-23T09:46:37Z</time>
      </trkpt>
      <trkpt lat="45.9368" lon="4.72071">
        <ele>172</ele>
        <time>2018-01-23T09:46:38Z</time>
      </trkpt>
      <trkpt lat="45.93683" lon="4.72065">
        <ele>172</ele>
        <time>2018-01-23T09:46:39Z</time>
      </trkpt>
      <trkpt lat="45.93687" lon="4.72059">
        <ele>172</ele>
        <time>2018-01-23T09:46:40Z</time>
      </trkpt>
      <trkpt lat="45.9369" lon="4.72052">
        <ele>172</ele>
        <time>2018-01-23T09:46:41Z</time>
      </trkpt>
      <trkpt lat="45.93693" lon="4.72045">
        <ele>173</ele>
        <time>2018-01-23T09:46:42Z</time>
      </trkpt>
      <trkpt lat="45.93697" lon="4.72038">
        <ele>172</ele>
        <time>2018-01-23T09:46:43Z</time>
      </trkpt>
      <trkpt lat="45.93701" lon="4.72031">
        <ele>172</ele>
        <time>2018-01-23T09:46:44Z</time>
      </trkpt>
      <trkpt lat="45.93705" lon="4.72024">
        <ele>172</ele>
        <time>2018-01-23T09:46:45Z</time>
      </trkpt>
      <trkpt lat="45.93709" lon="4.72017">
        <ele>172</ele>
        <time>2018-01-23T09:46:46Z</time>
      </trkpt>
      <trkpt lat="45.93712" lon="4.72011">
        <ele>172</ele>
        <time>2018-01-23T09:46:47Z</time>
      </trkpt>
      <trkpt lat="45.93716" lon="4.72005">
        <ele>172</ele>
        <time>2018-01-23T09:46:48Z</time>
      </trkpt>
      <trkpt lat="45.93719" lon="4.71998">
        <ele>172</ele>
        <time>2018-01-23T09:46:49Z</time>
      </trkpt>
      <trkpt lat="45.93723" lon="4.71991">
        <ele>172</ele>
        <time>2018-01-23T09:46:50Z</time>
      </trkpt>
      <trkpt lat="45.93727" lon="4.71984">
        <ele>172</ele>
        <time>2018-01-23T09:46:51Z</time>
      </trkpt>
      <trkpt lat="45.93731" lon="4.71978">
        <ele>172</ele>
        <time>2018-01-23T09:46:52Z</time>
      </trkpt>
      <trkpt lat="45.93735" lon="4.71972">
        <ele>172</ele>
        <time>2018-01-23T09:46:53Z</time>
      </trkpt>
      <trkpt lat="45.93739" lon="4.71966">
        <ele>172</ele>
        <time>2018-01-23T09:46:54Z</time>
      </trkpt>
      <trkpt lat="45.93743" lon="4.71962">
        <ele>172</ele>
        <time>2018-01-23T09:46:55Z</time>
      </trkpt>
      <trkpt lat="45.93748" lon="4.71959">
        <ele>172</ele>
        <time>2018-01-23T09:46:56Z</time>
      </trkpt>
      <trkpt lat="45.93753" lon="4.71955">
        <ele>171</ele>
        <time>2018-01-23T09:46:57Z</time>
      </trkpt>
      <trkpt lat="45.93757" lon="4.7195">
        <ele>171</ele>
        <time>2018-01-23T09:46:58Z</time>
      </trkpt>
      <trkpt lat="45.93761" lon="4.71945">
        <ele>171</ele>
        <time>2018-01-23T09:46:59Z</time>
      </trkpt>
      <trkpt lat="45.93763" lon="4.7194">
        <ele>171</ele>
        <time>2018-01-23T09:47:00Z</time>
      </trkpt>
      <trkpt lat="45.93768" lon="4.71929">
        <ele>171</ele>
        <time>2018-01-23T09:47:02Z</time>
      </trkpt>
      <trkpt lat="45.93769" lon="4.71921">
        <ele>171</ele>
        <time>2018-01-23T09:47:03Z</time>
      </trkpt>
      <trkpt lat="45.93769" lon="4.71909">
        <ele>172</ele>
        <time>2018-01-23T09:47:05Z</time>
      </trkpt>
      <trkpt lat="45.93769" lon="4.71905">
        <ele>172</ele>
        <time>2018-01-23T09:47:06Z</time>
      </trkpt>
      <trkpt lat="45.93775" lon="4.71898">
        <ele>172</ele>
        <time>2018-01-23T09:47:09Z</time>
      </trkpt>
      <trkpt lat="45.93777" lon="4.71894">
        <ele>172</ele>
        <time>2018-01-23T09:47:10Z</time>
      </trkpt>
      <trkpt lat="45.93782" lon="4.71884">
        <ele>172</ele>
        <time>2018-01-23T09:47:12Z</time>
      </trkpt>
      <trkpt lat="45.93784" lon="4.7188">
        <ele>172</ele>
        <time>2018-01-23T09:47:13Z</time>
      </trkpt>
      <trkpt lat="45.93787" lon="4.71874">
        <ele>172</ele>
        <time>2018-01-23T09:47:14Z</time>
      </trkpt>
      <trkpt lat="45.9379" lon="4.71868">
        <ele>172</ele>
        <time>2018-01-23T09:47:15Z</time>
      </trkpt>
      <trkpt lat="45.93793" lon="4.71862">
        <ele>172</ele>
        <time>2018-01-23T09:47:16Z</time>
      </trkpt>
      <trkpt lat="45.93796" lon="4.71857">
        <ele>172</ele>
        <time>2018-01-23T09:47:17Z</time>
      </trkpt>
      <trkpt lat="45.938" lon="4.71851">
        <ele>172</ele>
        <time>2018-01-23T09:47:18Z</time>
      </trkpt>
      <trkpt lat="45.93803" lon="4.71846">
        <ele>172</ele>
        <time>2018-01-23T09:47:19Z</time>
      </trkpt>
      <trkpt lat="45.93808" lon="4.71836">
        <ele>172</ele>
        <time>2018-01-23T09:47:21Z</time>
      </trkpt>
      <trkpt lat="45.9381" lon="4.71831">
        <ele>173</ele>
        <time>2018-01-23T09:47:22Z</time>
      </trkpt>
      <trkpt lat="45.93813" lon="4.71825">
        <ele>173</ele>
        <time>2018-01-23T09:47:23Z</time>
      </trkpt>
      <trkpt lat="45.93816" lon="4.71821">
        <ele>173</ele>
        <time>2018-01-23T09:47:24Z</time>
      </trkpt>
      <trkpt lat="45.9382" lon="4.71812">
        <ele>173</ele>
        <time>2018-01-23T09:47:26Z</time>
      </trkpt>
      <trkpt lat="45.93823" lon="4.71807">
        <ele>173</ele>
        <time>2018-01-23T09:47:27Z</time>
      </trkpt>
      <trkpt lat="45.93828" lon="4.71798">
        <ele>174</ele>
        <time>2018-01-23T09:47:29Z</time>
      </trkpt>
      <trkpt lat="45.93832" lon="4.71794">
        <ele>174</ele>
        <time>2018-01-23T09:47:30Z</time>
      </trkpt>
      <trkpt lat="45.93835" lon="4.7179">
        <ele>173</ele>
        <time>2018-01-23T09:47:31Z</time>
      </trkpt>
      <trkpt lat="45.93839" lon="4.71785">
        <ele>173</ele>
        <time>2018-01-23T09:47:32Z</time>
      </trkpt>
      <trkpt lat="45.93843" lon="4.71782">
        <ele>173</ele>
        <time>2018-01-23T09:47:33Z</time>
      </trkpt>
      <trkpt lat="45.93846" lon="4.71777">
        <ele>173</ele>
        <time>2018-01-23T09:47:34Z</time>
      </trkpt>
      <trkpt lat="45.93851" lon="4.71771">
        <ele>173</ele>
        <time>2018-01-23T09:47:35Z</time>
      </trkpt>
      <trkpt lat="45.93854" lon="4.71765">
        <ele>173</ele>
        <time>2018-01-23T09:47:36Z</time>
      </trkpt>
      <trkpt lat="45.93858" lon="4.71759">
        <ele>173</ele>
        <time>2018-01-23T09:47:37Z</time>
      </trkpt>
      <trkpt lat="45.93861" lon="4.71755">
        <ele>173</ele>
        <time>2018-01-23T09:47:38Z</time>
      </trkpt>
      <trkpt lat="45.93865" lon="4.7175">
        <ele>173</ele>
        <time>2018-01-23T09:47:39Z</time>
      </trkpt>
      <trkpt lat="45.9387" lon="4.71745">
        <ele>174</ele>
        <time>2018-01-23T09:47:40Z</time>
      </trkpt>
      <trkpt lat="45.93874" lon="4.7174">
        <ele>174</ele>
        <time>2018-01-23T09:47:41Z</time>
      </trkpt>
      <trkpt lat="45.93878" lon="4.71736">
        <ele>174</ele>
        <time>2018-01-23T09:47:42Z</time>
      </trkpt>
      <trkpt lat="45.93881" lon="4.71732">
        <ele>174</ele>
        <time>2018-01-23T09:47:43Z</time>
      </trkpt>
      <trkpt lat="45.93886" lon="4.71727">
        <ele>174</ele>
        <time>2018-01-23T09:47:44Z</time>
      </trkpt>
      <trkpt lat="45.9389" lon="4.71723">
        <ele>174</ele>
        <time>2018-01-23T09:47:45Z</time>
      </trkpt>
      <trkpt lat="45.93894" lon="4.71719">
        <ele>174</ele>
        <time>2018-01-23T09:47:46Z</time>
      </trkpt>
      <trkpt lat="45.93898" lon="4.71714">
        <ele>174</ele>
        <time>2018-01-23T09:47:47Z</time>
      </trkpt>
      <trkpt lat="45.93903" lon="4.7171">
        <ele>174</ele>
        <time>2018-01-23T09:47:48Z</time>
      </trkpt>
      <trkpt lat="45.93907" lon="4.71706">
        <ele>174</ele>
        <time>2018-01-23T09:47:49Z</time>
      </trkpt>
      <trkpt lat="45.93912" lon="4.71704">
        <ele>174</ele>
        <time>2018-01-23T09:47:50Z</time>
      </trkpt>
      <trkpt lat="45.93917" lon="4.71702">
        <ele>174</ele>
        <time>2018-01-23T09:47:51Z</time>
      </trkpt>
      <trkpt lat="45.93923" lon="4.717">
        <ele>174</ele>
        <time>2018-01-23T09:47:52Z</time>
      </trkpt>
      <trkpt lat="45.93928" lon="4.71698">
        <ele>174</ele>
        <time>2018-01-23T09:47:53Z</time>
      </trkpt>
      <trkpt lat="45.93933" lon="4.71696">
        <ele>174</ele>
        <time>2018-01-23T09:47:54Z</time>
      </trkpt>
      <trkpt lat="45.93938" lon="4.71694">
        <ele>175</ele>
        <time>2018-01-23T09:47:55Z</time>
      </trkpt>
      <trkpt lat="45.93943" lon="4.71691">
        <ele>175</ele>
        <time>2018-01-23T09:47:56Z</time>
      </trkpt>
      <trkpt lat="45.93947" lon="4.71689">
        <ele>175</ele>
        <time>2018-01-23T09:47:57Z</time>
      </trkpt>
      <trkpt lat="45.93951" lon="4.71687">
        <ele>175</ele>
        <time>2018-01-23T09:47:58Z</time>
      </trkpt>
      <trkpt lat="45.93957" lon="4.71683">
        <ele>175</ele>
        <time>2018-01-23T09:47:59Z</time>
      </trkpt>
      <trkpt lat="45.93962" lon="4.71681">
        <ele>175</ele>
        <time>2018-01-23T09:48:00Z</time>
      </trkpt>
      <trkpt lat="45.93967" lon="4.71678">
        <ele>175</ele>
        <time>2018-01-23T09:48:01Z</time>
      </trkpt>
      <trkpt lat="45.93972" lon="4.71677">
        <ele>175</ele>
        <time>2018-01-23T09:48:02Z</time>
      </trkpt>
      <trkpt lat="45.93978" lon="4.71676">
        <ele>175</ele>
        <time>2018-01-23T09:48:03Z</time>
      </trkpt>
      <trkpt lat="45.93982" lon="4.71673">
        <ele>176</ele>
        <time>2018-01-23T09:48:04Z</time>
      </trkpt>
      <trkpt lat="45.93989" lon="4.71676">
        <ele>176</ele>
        <time>2018-01-23T09:48:05Z</time>
      </trkpt>
      <trkpt lat="45.93994" lon="4.71677">
        <ele>176</ele>
        <time>2018-01-23T09:48:06Z</time>
      </trkpt>
      <trkpt lat="45.94" lon="4.7168">
        <ele>176</ele>
        <time>2018-01-23T09:48:07Z</time>
      </trkpt>
      <trkpt lat="45.94005" lon="4.71682">
        <ele>176</ele>
        <time>2018-01-23T09:48:08Z</time>
      </trkpt>
      <trkpt lat="45.9401" lon="4.71682">
        <ele>176</ele>
        <time>2018-01-23T09:48:09Z</time>
      </trkpt>
      <trkpt lat="45.94015" lon="4.71679">
        <ele>175</ele>
        <time>2018-01-23T09:48:10Z</time>
      </trkpt>
      <trkpt lat="45.94019" lon="4.71673">
        <ele>175</ele>
        <time>2018-01-23T09:48:11Z</time>
      </trkpt>
      <trkpt lat="45.94021" lon="4.71667">
        <ele>175</ele>
        <time>2018-01-23T09:48:12Z</time>
      </trkpt>
      <trkpt lat="45.94024" lon="4.71661">
        <ele>175</ele>
        <time>2018-01-23T09:48:13Z</time>
      </trkpt>
      <trkpt lat="45.94026" lon="4.71656">
        <ele>175</ele>
        <time>2018-01-23T09:48:14Z</time>
      </trkpt>
      <trkpt lat="45.94034" lon="4.71651">
        <ele>175</ele>
        <time>2018-01-23T09:48:16Z</time>
      </trkpt>
      <trkpt lat="45.94038" lon="4.71648">
        <ele>175</ele>
        <time>2018-01-23T09:48:17Z</time>
      </trkpt>
      <trkpt lat="45.94047" lon="4.71645">
        <ele>175</ele>
        <time>2018-01-23T09:48:19Z</time>
      </trkpt>
      <trkpt lat="45.94052" lon="4.71644">
        <ele>175</ele>
        <time>2018-01-23T09:48:20Z</time>
      </trkpt>
      <trkpt lat="45.94057" lon="4.71642">
        <ele>174</ele>
        <time>2018-01-23T09:48:21Z</time>
      </trkpt>
      <trkpt lat="45.94062" lon="4.71639">
        <ele>174</ele>
        <time>2018-01-23T09:48:22Z</time>
      </trkpt>
      <trkpt lat="45.94067" lon="4.71637">
        <ele>174</ele>
        <time>2018-01-23T09:48:23Z</time>
      </trkpt>
      <trkpt lat="45.94073" lon="4.71636">
        <ele>174</ele>
        <time>2018-01-23T09:48:24Z</time>
      </trkpt>
      <trkpt lat="45.94078" lon="4.71635">
        <ele>174</ele>
        <time>2018-01-23T09:48:25Z</time>
      </trkpt>
      <trkpt lat="45.94084" lon="4.71633">
        <ele>173</ele>
        <time>2018-01-23T09:48:26Z</time>
      </trkpt>
      <trkpt lat="45.9409" lon="4.71631">
        <ele>173</ele>
        <time>2018-01-23T09:48:27Z</time>
      </trkpt>
      <trkpt lat="45.94096" lon="4.71629">
        <ele>173</ele>
        <time>2018-01-23T09:48:28Z</time>
      </trkpt>
      <trkpt lat="45.94102" lon="4.71625">
        <ele>173</ele>
        <time>2018-01-23T09:48:29Z</time>
      </trkpt>
      <trkpt lat="45.94108" lon="4.71622">
        <ele>173</ele>
        <time>2018-01-23T09:48:30Z</time>
      </trkpt>
      <trkpt lat="45.94112" lon="4.71619">
        <ele>173</ele>
        <time>2018-01-23T09:48:31Z</time>
      </trkpt>
      <trkpt lat="45.94117" lon="4.71616">
        <ele>173</ele>
        <time>2018-01-23T09:48:32Z</time>
      </trkpt>
      <trkpt lat="45.94122" lon="4.71613">
        <ele>173</ele>
        <time>2018-01-23T09:48:33Z</time>
      </trkpt>
      <trkpt lat="45.94126" lon="4.71612">
        <ele>173</ele>
        <time>2018-01-23T09:48:34Z</time>
      </trkpt>
      <trkpt lat="45.94131" lon="4.71611">
        <ele>173</ele>
        <time>2018-01-23T09:48:35Z</time>
      </trkpt>
      <trkpt lat="45.94135" lon="4.7161">
        <ele>173</ele>
        <time>2018-01-23T09:48:36Z</time>
      </trkpt>
      <trkpt lat="45.9414" lon="4.71608">
        <ele>173</ele>
        <time>2018-01-23T09:48:37Z</time>
      </trkpt>
      <trkpt lat="45.94145" lon="4.71606">
        <ele>173</ele>
        <time>2018-01-23T09:48:38Z</time>
      </trkpt>
      <trkpt lat="45.9415" lon="4.71604">
        <ele>173</ele>
        <time>2018-01-23T09:48:39Z</time>
      </trkpt>
      <trkpt lat="45.94155" lon="4.71603">
        <ele>173</ele>
        <time>2018-01-23T09:48:40Z</time>
      </trkpt>
      <trkpt lat="45.94161" lon="4.716">
        <ele>173</ele>
        <time>2018-01-23T09:48:41Z</time>
      </trkpt>
      <trkpt lat="45.94166" lon="4.71598">
        <ele>173</ele>
        <time>2018-01-23T09:48:42Z</time>
      </trkpt>
      <trkpt lat="45.94171" lon="4.71596">
        <ele>173</ele>
        <time>2018-01-23T09:48:43Z</time>
      </trkpt>
      <trkpt lat="45.94176" lon="4.71594">
        <ele>173</ele>
        <time>2018-01-23T09:48:44Z</time>
      </trkpt>
      <trkpt lat="45.94182" lon="4.71591">
        <ele>173</ele>
        <time>2018-01-23T09:48:45Z</time>
      </trkpt>
      <trkpt lat="45.94188" lon="4.71589">
        <ele>173</ele>
        <time>2018-01-23T09:48:46Z</time>
      </trkpt>
      <trkpt lat="45.94193" lon="4.71588">
        <ele>173</ele>
        <time>2018-01-23T09:48:47Z</time>
      </trkpt>
      <trkpt lat="45.94198" lon="4.71586">
        <ele>173</ele>
        <time>2018-01-23T09:48:48Z</time>
      </trkpt>
      <trkpt lat="45.94203" lon="4.71585">
        <ele>173</ele>
        <time>2018-01-23T09:48:49Z</time>
      </trkpt>
      <trkpt lat="45.94207" lon="4.71584">
        <ele>173</ele>
        <time>2018-01-23T09:48:50Z</time>
      </trkpt>
      <trkpt lat="45.94212" lon="4.71582">
        <ele>174</ele>
        <time>2018-01-23T09:48:51Z</time>
      </trkpt>
      <trkpt lat="45.94218" lon="4.71579">
        <ele>174</ele>
        <time>2018-01-23T09:48:52Z</time>
      </trkpt>
      <trkpt lat="45.94224" lon="4.71578">
        <ele>174</ele>
        <time>2018-01-23T09:48:53Z</time>
      </trkpt>
      <trkpt lat="45.94229" lon="4.71574">
        <ele>174</ele>
        <time>2018-01-23T09:48:54Z</time>
      </trkpt>
      <trkpt lat="45.94234" lon="4.71572">
        <ele>174</ele>
        <time>2018-01-23T09:48:55Z</time>
      </trkpt>
      <trkpt lat="45.9424" lon="4.71569">
        <ele>174</ele>
        <time>2018-01-23T09:48:56Z</time>
      </trkpt>
      <trkpt lat="45.94245" lon="4.71568">
        <ele>174</ele>
        <time>2018-01-23T09:48:57Z</time>
      </trkpt>
      <trkpt lat="45.94251" lon="4.71566">
        <ele>175</ele>
        <time>2018-01-23T09:48:58Z</time>
      </trkpt>
      <trkpt lat="45.94256" lon="4.71563">
        <ele>175</ele>
        <time>2018-01-23T09:48:59Z</time>
      </trkpt>
      <trkpt lat="45.94262" lon="4.71561">
        <ele>175</ele>
        <time>2018-01-23T09:49:00Z</time>
      </trkpt>
      <trkpt lat="45.94267" lon="4.71558">
        <ele>175</ele>
        <time>2018-01-23T09:49:01Z</time>
      </trkpt>
      <trkpt lat="45.94272" lon="4.71556">
        <ele>175</ele>
        <time>2018-01-23T09:49:02Z</time>
      </trkpt>
      <trkpt lat="45.94278" lon="4.71556">
        <ele>175</ele>
        <time>2018-01-23T09:49:03Z</time>
      </trkpt>
      <trkpt lat="45.94283" lon="4.71553">
        <ele>175</ele>
        <time>2018-01-23T09:49:04Z</time>
      </trkpt>
      <trkpt lat="45.94288" lon="4.71552">
        <ele>175</ele>
        <time>2018-01-23T09:49:05Z</time>
      </trkpt>
      <trkpt lat="45.94293" lon="4.71551">
        <ele>175</ele>
        <time>2018-01-23T09:49:06Z</time>
      </trkpt>
      <trkpt lat="45.94298" lon="4.71549">
        <ele>175</ele>
        <time>2018-01-23T09:49:07Z</time>
      </trkpt>
      <trkpt lat="45.94303" lon="4.71548">
        <ele>175</ele>
        <time>2018-01-23T09:49:08Z</time>
      </trkpt>
      <trkpt lat="45.9431" lon="4.71544">
        <ele>175</ele>
        <time>2018-01-23T09:49:09Z</time>
      </trkpt>
      <trkpt lat="45.94314" lon="4.71543">
        <ele>175</ele>
        <time>2018-01-23T09:49:10Z</time>
      </trkpt>
      <trkpt lat="45.94319" lon="4.7154">
        <ele>175</ele>
        <time>2018-01-23T09:49:11Z</time>
      </trkpt>
      <trkpt lat="45.94324" lon="4.71539">
        <ele>176</ele>
        <time>2018-01-23T09:49:12Z</time>
      </trkpt>
      <trkpt lat="45.94332" lon="4.71539">
        <ele>176</ele>
        <time>2018-01-23T09:49:14Z</time>
      </trkpt>
      <trkpt lat="45.94338" lon="4.71535">
        <ele>176</ele>
        <time>2018-01-23T09:49:15Z</time>
      </trkpt>
      <trkpt lat="45.94344" lon="4.71533">
        <ele>176</ele>
        <time>2018-01-23T09:49:16Z</time>
      </trkpt>
      <trkpt lat="45.9435" lon="4.71532">
        <ele>176</ele>
        <time>2018-01-23T09:49:17Z</time>
      </trkpt>
      <trkpt lat="45.94355" lon="4.71529">
        <ele>176</ele>
        <time>2018-01-23T09:49:18Z</time>
      </trkpt>
      <trkpt lat="45.9436" lon="4.71527">
        <ele>176</ele>
        <time>2018-01-23T09:49:19Z</time>
      </trkpt>
      <trkpt lat="45.94365" lon="4.71524">
        <ele>176</ele>
        <time>2018-01-23T09:49:20Z</time>
      </trkpt>
      <trkpt lat="45.94371" lon="4.71522">
        <ele>176</ele>
        <time>2018-01-23T09:49:21Z</time>
      </trkpt>
      <trkpt lat="45.94377" lon="4.7152">
        <ele>176</ele>
        <time>2018-01-23T09:49:22Z</time>
      </trkpt>
      <trkpt lat="45.94382" lon="4.71518">
        <ele>177</ele>
        <time>2018-01-23T09:49:23Z</time>
      </trkpt>
      <trkpt lat="45.94388" lon="4.71516">
        <ele>177</ele>
        <time>2018-01-23T09:49:24Z</time>
      </trkpt>
      <trkpt lat="45.94393" lon="4.71515">
        <ele>177</ele>
        <time>2018-01-23T09:49:25Z</time>
      </trkpt>
      <trkpt lat="45.94398" lon="4.71514">
        <ele>177</ele>
        <time>2018-01-23T09:49:26Z</time>
      </trkpt>
      <trkpt lat="45.94403" lon="4.71512">
        <ele>177</ele>
        <time>2018-01-23T09:49:27Z</time>
      </trkpt>
      <trkpt lat="45.94408" lon="4.7151">
        <ele>177</ele>
        <time>2018-01-23T09:49:28Z</time>
      </trkpt>
      <trkpt lat="45.94413" lon="4.71508">
        <ele>177</ele>
        <time>2018-01-23T09:49:29Z</time>
      </trkpt>
      <trkpt lat="45.94418" lon="4.71505">
        <ele>178</ele>
        <time>2018-01-23T09:49:30Z</time>
      </trkpt>
      <trkpt lat="45.94422" lon="4.71502">
        <ele>178</ele>
        <time>2018-01-23T09:49:31Z</time>
      </trkpt>
      <trkpt lat="45.94427" lon="4.715">
        <ele>177</ele>
        <time>2018-01-23T09:49:32Z</time>
      </trkpt>
      <trkpt lat="45.94431" lon="4.71499">
        <ele>178</ele>
        <time>2018-01-23T09:49:33Z</time>
      </trkpt>
      <trkpt lat="45.94437" lon="4.71497">
        <ele>178</ele>
        <time>2018-01-23T09:49:34Z</time>
      </trkpt>
      <trkpt lat="45.94441" lon="4.71494">
        <ele>178</ele>
        <time>2018-01-23T09:49:35Z</time>
      </trkpt>
      <trkpt lat="45.94445" lon="4.71491">
        <ele>179</ele>
        <time>2018-01-23T09:49:36Z</time>
      </trkpt>
      <trkpt lat="45.9445" lon="4.7149">
        <ele>179</ele>
        <time>2018-01-23T09:49:37Z</time>
      </trkpt>
      <trkpt lat="45.94455" lon="4.71491">
        <ele>179</ele>
        <time>2018-01-23T09:49:38Z</time>
      </trkpt>
      <trkpt lat="45.94459" lon="4.71488">
        <ele>179</ele>
        <time>2018-01-23T09:49:39Z</time>
      </trkpt>
      <trkpt lat="45.94463" lon="4.71485">
        <ele>179</ele>
        <time>2018-01-23T09:49:40Z</time>
      </trkpt>
      <trkpt lat="45.94469" lon="4.71485">
        <ele>179</ele>
        <time>2018-01-23T09:49:41Z</time>
      </trkpt>
      <trkpt lat="45.94473" lon="4.71482">
        <ele>179</ele>
        <time>2018-01-23T09:49:42Z</time>
      </trkpt>
      <trkpt lat="45.94479" lon="4.71479">
        <ele>179</ele>
        <time>2018-01-23T09:49:43Z</time>
      </trkpt>
      <trkpt lat="45.94484" lon="4.71477">
        <ele>179</ele>
        <time>2018-01-23T09:49:44Z</time>
      </trkpt>
      <trkpt lat="45.94489" lon="4.71474">
        <ele>179</ele>
        <time>2018-01-23T09:49:45Z</time>
      </trkpt>
      <trkpt lat="45.94493" lon="4.71472">
        <ele>179</ele>
        <time>2018-01-23T09:49:46Z</time>
      </trkpt>
      <trkpt lat="45.94498" lon="4.7147">
        <ele>179</ele>
        <time>2018-01-23T09:49:47Z</time>
      </trkpt>
      <trkpt lat="45.94502" lon="4.71468">
        <ele>179</ele>
        <time>2018-01-23T09:49:48Z</time>
      </trkpt>
      <trkpt lat="45.94507" lon="4.71466">
        <ele>179</ele>
        <time>2018-01-23T09:49:49Z</time>
      </trkpt>
      <trkpt lat="45.94511" lon="4.71464">
        <ele>180</ele>
        <time>2018-01-23T09:49:50Z</time>
      </trkpt>
      <trkpt lat="45.94516" lon="4.71461">
        <ele>180</ele>
        <time>2018-01-23T09:49:51Z</time>
      </trkpt>
      <trkpt lat="45.94525" lon="4.71458">
        <ele>180</ele>
        <time>2018-01-23T09:49:53Z</time>
      </trkpt>
      <trkpt lat="45.94529" lon="4.71457">
        <ele>180</ele>
        <time>2018-01-23T09:49:54Z</time>
      </trkpt>
      <trkpt lat="45.94538" lon="4.71454">
        <ele>180</ele>
        <time>2018-01-23T09:49:56Z</time>
      </trkpt>
      <trkpt lat="45.94542" lon="4.71454">
        <ele>180</ele>
        <time>2018-01-23T09:49:57Z</time>
      </trkpt>
      <trkpt lat="45.94546" lon="4.71452">
        <ele>180</ele>
        <time>2018-01-23T09:49:58Z</time>
      </trkpt>
      <trkpt lat="45.94552" lon="4.71448">
        <ele>181</ele>
        <time>2018-01-23T09:49:59Z</time>
      </trkpt>
      <trkpt lat="45.94556" lon="4.71446">
        <ele>181</ele>
        <time>2018-01-23T09:50:00Z</time>
      </trkpt>
      <trkpt lat="45.9456" lon="4.71445">
        <ele>181</ele>
        <time>2018-01-23T09:50:01Z</time>
      </trkpt>
      <trkpt lat="45.94565" lon="4.71443">
        <ele>181</ele>
        <time>2018-01-23T09:50:02Z</time>
      </trkpt>
      <trkpt lat="45.9457" lon="4.71443">
        <ele>181</ele>
        <time>2018-01-23T09:50:03Z</time>
      </trkpt>
      <trkpt lat="45.94574" lon="4.71441">
        <ele>182</ele>
        <time>2018-01-23T09:50:04Z</time>
      </trkpt>
      <trkpt lat="45.94579" lon="4.7144">
        <ele>182</ele>
        <time>2018-01-23T09:50:05Z</time>
      </trkpt>
      <trkpt lat="45.94584" lon="4.7144">
        <ele>182</ele>
        <time>2018-01-23T09:50:06Z</time>
      </trkpt>
      <trkpt lat="45.94588" lon="4.7144">
        <ele>182</ele>
        <time>2018-01-23T09:50:07Z</time>
      </trkpt>
      <trkpt lat="45.94593" lon="4.71441">
        <ele>182</ele>
        <time>2018-01-23T09:50:08Z</time>
      </trkpt>
      <trkpt lat="45.94598" lon="4.71442">
        <ele>182</ele>
        <time>2018-01-23T09:50:09Z</time>
      </trkpt>
      <trkpt lat="45.94603" lon="4.71443">
        <ele>182</ele>
        <time>2018-01-23T09:50:10Z</time>
      </trkpt>
      <trkpt lat="45.94607" lon="4.71442">
        <ele>181</ele>
        <time>2018-01-23T09:50:11Z</time>
      </trkpt>
      <trkpt lat="45.94612" lon="4.71442">
        <ele>181</ele>
        <time>2018-01-23T09:50:12Z</time>
      </trkpt>
      <trkpt lat="45.94617" lon="4.71443">
        <ele>181</ele>
        <time>2018-01-23T09:50:13Z</time>
      </trkpt>
      <trkpt lat="45.94622" lon="4.71443">
        <ele>181</ele>
        <time>2018-01-23T09:50:14Z</time>
      </trkpt>
      <trkpt lat="45.94628" lon="4.71444">
        <ele>181</ele>
        <time>2018-01-23T09:50:15Z</time>
      </trkpt>
      <trkpt lat="45.94633" lon="4.71445">
        <ele>181</ele>
        <time>2018-01-23T09:50:16Z</time>
      </trkpt>
      <trkpt lat="45.94639" lon="4.71445">
        <ele>181</ele>
        <time>2018-01-23T09:50:17Z</time>
      </trkpt>
      <trkpt lat="45.94644" lon="4.71446">
        <ele>181</ele>
        <time>2018-01-23T09:50:18Z</time>
      </trkpt>
      <trkpt lat="45.94649" lon="4.71446">
        <ele>181</ele>
        <time>2018-01-23T09:50:19Z</time>
      </trkpt>
      <trkpt lat="45.94654" lon="4.71447">
        <ele>181</ele>
        <time>2018-01-23T09:50:20Z</time>
      </trkpt>
      <trkpt lat="45.94659" lon="4.71447">
        <ele>181</ele>
        <time>2018-01-23T09:50:21Z</time>
      </trkpt>
      <trkpt lat="45.94665" lon="4.71448">
        <ele>181</ele>
        <time>2018-01-23T09:50:22Z</time>
      </trkpt>
      <trkpt lat="45.9467" lon="4.71449">
        <ele>182</ele>
        <time>2018-01-23T09:50:23Z</time>
      </trkpt>
      <trkpt lat="45.94675" lon="4.7145">
        <ele>182</ele>
        <time>2018-01-23T09:50:24Z</time>
      </trkpt>
      <trkpt lat="45.94681" lon="4.7145">
        <ele>182</ele>
        <time>2018-01-23T09:50:25Z</time>
      </trkpt>
      <trkpt lat="45.94686" lon="4.71451">
        <ele>182</ele>
        <time>2018-01-23T09:50:26Z</time>
      </trkpt>
      <trkpt lat="45.94692" lon="4.71452">
        <ele>182</ele>
        <time>2018-01-23T09:50:27Z</time>
      </trkpt>
      <trkpt lat="45.94698" lon="4.71452">
        <ele>182</ele>
        <time>2018-01-23T09:50:28Z</time>
      </trkpt>
      <trkpt lat="45.94702" lon="4.71452">
        <ele>182</ele>
        <time>2018-01-23T09:50:29Z</time>
      </trkpt>
      <trkpt lat="45.94708" lon="4.71453">
        <ele>182</ele>
        <time>2018-01-23T09:50:30Z</time>
      </trkpt>
      <trkpt lat="45.94714" lon="4.71453">
        <ele>182</ele>
        <time>2018-01-23T09:50:31Z</time>
      </trkpt>
      <trkpt lat="45.94718" lon="4.71454">
        <ele>182</ele>
        <time>2018-01-23T09:50:32Z</time>
      </trkpt>
      <trkpt lat="45.94724" lon="4.71454">
        <ele>182</ele>
        <time>2018-01-23T09:50:33Z</time>
      </trkpt>
      <trkpt lat="45.94729" lon="4.71454">
        <ele>182</ele>
        <time>2018-01-23T09:50:34Z</time>
      </trkpt>
      <trkpt lat="45.94734" lon="4.71456">
        <ele>182</ele>
        <time>2018-01-23T09:50:35Z</time>
      </trkpt>
      <trkpt lat="45.94739" lon="4.71457">
        <ele>182</ele>
        <time>2018-01-23T09:50:36Z</time>
      </trkpt>
      <trkpt lat="45.94745" lon="4.71458">
        <ele>182</ele>
        <time>2018-01-23T09:50:37Z</time>
      </trkpt>
      <trkpt lat="45.9475" lon="4.71459">
        <ele>183</ele>
        <time>2018-01-23T09:50:38Z</time>
      </trkpt>
      <trkpt lat="45.94757" lon="4.71459">
        <ele>183</ele>
        <time>2018-01-23T09:50:39Z</time>
      </trkpt>
      <trkpt lat="45.94763" lon="4.7146">
        <ele>183</ele>
        <time>2018-01-23T09:50:40Z</time>
      </trkpt>
      <trkpt lat="45.94768" lon="4.71461">
        <ele>183</ele>
        <time>2018-01-23T09:50:41Z</time>
      </trkpt>
      <trkpt lat="45.94774" lon="4.71459">
        <ele>183</ele>
        <time>2018-01-23T09:50:42Z</time>
      </trkpt>
      <trkpt lat="45.94779" lon="4.71459">
        <ele>183</ele>
        <time>2018-01-23T09:50:43Z</time>
      </trkpt>
      <trkpt lat="45.94785" lon="4.71461">
        <ele>183</ele>
        <time>2018-01-23T09:50:44Z</time>
      </trkpt>
      <trkpt lat="45.9479" lon="4.71462">
        <ele>183</ele>
        <time>2018-01-23T09:50:45Z</time>
      </trkpt>
      <trkpt lat="45.94795" lon="4.71462">
        <ele>183</ele>
        <time>2018-01-23T09:50:46Z</time>
      </trkpt>
      <trkpt lat="45.94799" lon="4.71464">
        <ele>183</ele>
        <time>2018-01-23T09:50:47Z</time>
      </trkpt>
      <trkpt lat="45.94805" lon="4.71464">
        <ele>183</ele>
        <time>2018-01-23T09:50:48Z</time>
      </trkpt>
      <trkpt lat="45.94811" lon="4.71466">
        <ele>183</ele>
        <time>2018-01-23T09:50:49Z</time>
      </trkpt>
      <trkpt lat="45.94817" lon="4.71467">
        <ele>183</ele>
        <time>2018-01-23T09:50:50Z</time>
      </trkpt>
      <trkpt lat="45.94823" lon="4.71467">
        <ele>183</ele>
        <time>2018-01-23T09:50:51Z</time>
      </trkpt>
      <trkpt lat="45.94829" lon="4.71468">
        <ele>183</ele>
        <time>2018-01-23T09:50:52Z</time>
      </trkpt>
      <trkpt lat="45.94835" lon="4.71469">
        <ele>183</ele>
        <time>2018-01-23T09:50:53Z</time>
      </trkpt>
      <trkpt lat="45.94841" lon="4.7147">
        <ele>183</ele>
        <time>2018-01-23T09:50:54Z</time>
      </trkpt>
      <trkpt lat="45.94848" lon="4.7147">
        <ele>183</ele>
        <time>2018-01-23T09:50:55Z</time>
      </trkpt>
      <trkpt lat="45.94853" lon="4.71471">
        <ele>183</ele>
        <time>2018-01-23T09:50:56Z</time>
      </trkpt>
      <trkpt lat="45.94859" lon="4.71472">
        <ele>183</ele>
        <time>2018-01-23T09:50:57Z</time>
      </trkpt>
      <trkpt lat="45.94864" lon="4.71473">
        <ele>183</ele>
        <time>2018-01-23T09:50:58Z</time>
      </trkpt>
      <trkpt lat="45.94869" lon="4.71475">
        <ele>183</ele>
        <time>2018-01-23T09:50:59Z</time>
      </trkpt>
      <trkpt lat="45.94875" lon="4.71476">
        <ele>183</ele>
        <time>2018-01-23T09:51:00Z</time>
      </trkpt>
      <trkpt lat="45.9488" lon="4.71477">
        <ele>183</ele>
        <time>2018-01-23T09:51:01Z</time>
      </trkpt>
      <trkpt lat="45.94886" lon="4.71478">
        <ele>183</ele>
        <time>2018-01-23T09:51:02Z</time>
      </trkpt>
      <trkpt lat="45.9489" lon="4.71478">
        <ele>183</ele>
        <time>2018-01-23T09:51:03Z</time>
      </trkpt>
      <trkpt lat="45.94896" lon="4.71477">
        <ele>183</ele>
        <time>2018-01-23T09:51:04Z</time>
      </trkpt>
      <trkpt lat="45.94901" lon="4.71477">
        <ele>182</ele>
        <time>2018-01-23T09:51:05Z</time>
      </trkpt>
      <trkpt lat="45.94906" lon="4.71477">
        <ele>182</ele>
        <time>2018-01-23T09:51:06Z</time>
      </trkpt>
      <trkpt lat="45.94911" lon="4.71476">
        <ele>182</ele>
        <time>2018-01-23T09:51:07Z</time>
      </trkpt>
      <trkpt lat="45.94916" lon="4.71476">
        <ele>182</ele>
        <time>2018-01-23T09:51:08Z</time>
      </trkpt>
      <trkpt lat="45.94921" lon="4.71476">
        <ele>182</ele>
        <time>2018-01-23T09:51:09Z</time>
      </trkpt>
      <trkpt lat="45.94927" lon="4.71475">
        <ele>182</ele>
        <time>2018-01-23T09:51:10Z</time>
      </trkpt>
      <trkpt lat="45.94932" lon="4.71475">
        <ele>183</ele>
        <time>2018-01-23T09:51:11Z</time>
      </trkpt>
      <trkpt lat="45.94939" lon="4.71475">
        <ele>183</ele>
        <time>2018-01-23T09:51:12Z</time>
      </trkpt>
      <trkpt lat="45.94944" lon="4.71479">
        <ele>183</ele>
        <time>2018-01-23T09:51:13Z</time>
      </trkpt>
      <trkpt lat="45.9495" lon="4.71483">
        <ele>183</ele>
        <time>2018-01-23T09:51:14Z</time>
      </trkpt>
      <trkpt lat="45.94955" lon="4.71488">
        <ele>182</ele>
        <time>2018-01-23T09:51:15Z</time>
      </trkpt>
      <trkpt lat="45.9496" lon="4.71491">
        <ele>182</ele>
        <time>2018-01-23T09:51:16Z</time>
      </trkpt>
      <trkpt lat="45.94965" lon="4.71494">
        <ele>182</ele>
        <time>2018-01-23T09:51:17Z</time>
      </trkpt>
      <trkpt lat="45.94971" lon="4.71493">
        <ele>182</ele>
        <time>2018-01-23T09:51:18Z</time>
      </trkpt>
      <trkpt lat="45.94976" lon="4.7149">
        <ele>182</ele>
        <time>2018-01-23T09:51:19Z</time>
      </trkpt>
      <trkpt lat="45.94982" lon="4.71487">
        <ele>182</ele>
        <time>2018-01-23T09:51:20Z</time>
      </trkpt>
      <trkpt lat="45.94986" lon="4.71483">
        <ele>182</ele>
        <time>2018-01-23T09:51:21Z</time>
      </trkpt>
      <trkpt lat="45.94991" lon="4.71481">
        <ele>182</ele>
        <time>2018-01-23T09:51:22Z</time>
      </trkpt>
      <trkpt lat="45.94997" lon="4.71481">
        <ele>182</ele>
        <time>2018-01-23T09:51:23Z</time>
      </trkpt>
      <trkpt lat="45.95002" lon="4.71481">
        <ele>181</ele>
        <time>2018-01-23T09:51:24Z</time>
      </trkpt>
      <trkpt lat="45.95008" lon="4.71481">
        <ele>181</ele>
        <time>2018-01-23T09:51:25Z</time>
      </trkpt>
      <trkpt lat="45.95014" lon="4.71481">
        <ele>181</ele>
        <time>2018-01-23T09:51:26Z</time>
      </trkpt>
      <trkpt lat="45.95021" lon="4.71481">
        <ele>181</ele>
        <time>2018-01-23T09:51:27Z</time>
      </trkpt>
      <trkpt lat="45.95027" lon="4.71481">
        <ele>181</ele>
        <time>2018-01-23T09:51:28Z</time>
      </trkpt>
      <trkpt lat="45.95034" lon="4.71481">
        <ele>181</ele>
        <time>2018-01-23T09:51:29Z</time>
      </trkpt>
      <trkpt lat="45.95041" lon="4.71482">
        <ele>181</ele>
        <time>2018-01-23T09:51:30Z</time>
      </trkpt>
      <trkpt lat="45.95049" lon="4.71483">
        <ele>181</ele>
        <time>2018-01-23T09:51:31Z</time>
      </trkpt>
      <trkpt lat="45.95056" lon="4.71484">
        <ele>181</ele>
        <time>2018-01-23T09:51:32Z</time>
      </trkpt>
      <trkpt lat="45.95064" lon="4.71484">
        <ele>181</ele>
        <time>2018-01-23T09:51:33Z</time>
      </trkpt>
      <trkpt lat="45.95072" lon="4.71484">
        <ele>180</ele>
        <time>2018-01-23T09:51:34Z</time>
      </trkpt>
      <trkpt lat="45.9508" lon="4.71486">
        <ele>180</ele>
        <time>2018-01-23T09:51:35Z</time>
      </trkpt>
      <trkpt lat="45.95088" lon="4.71486">
        <ele>179</ele>
        <time>2018-01-23T09:51:36Z</time>
      </trkpt>
      <trkpt lat="45.95097" lon="4.71486">
        <ele>179</ele>
        <time>2018-01-23T09:51:37Z</time>
      </trkpt>
      <trkpt lat="45.95105" lon="4.71486">
        <ele>179</ele>
        <time>2018-01-23T09:51:38Z</time>
      </trkpt>
      <trkpt lat="45.95113" lon="4.71486">
        <ele>179</ele>
        <time>2018-01-23T09:51:39Z</time>
      </trkpt>
      <trkpt lat="45.95122" lon="4.71486">
        <ele>178</ele>
        <time>2018-01-23T09:51:40Z</time>
      </trkpt>
      <trkpt lat="45.9513" lon="4.71487">
        <ele>178</ele>
        <time>2018-01-23T09:51:41Z</time>
      </trkpt>
      <trkpt lat="45.95139" lon="4.71487">
        <ele>178</ele>
        <time>2018-01-23T09:51:42Z</time>
      </trkpt>
      <trkpt lat="45.95147" lon="4.71488">
        <ele>178</ele>
        <time>2018-01-23T09:51:43Z</time>
      </trkpt>
      <trkpt lat="45.95155" lon="4.71489">
        <ele>178</ele>
        <time>2018-01-23T09:51:44Z</time>
      </trkpt>
      <trkpt lat="45.95163" lon="4.7149">
        <ele>177</ele>
        <time>2018-01-23T09:51:45Z</time>
      </trkpt>
      <trkpt lat="45.95172" lon="4.7149">
        <ele>177</ele>
        <time>2018-01-23T09:51:46Z</time>
      </trkpt>
      <trkpt lat="45.9518" lon="4.7149">
        <ele>177</ele>
        <time>2018-01-23T09:51:47Z</time>
      </trkpt>
      <trkpt lat="45.95188" lon="4.71491">
        <ele>177</ele>
        <time>2018-01-23T09:51:48Z</time>
      </trkpt>
      <trkpt lat="45.95196" lon="4.71493">
        <ele>177</ele>
        <time>2018-01-23T09:51:49Z</time>
      </trkpt>
      <trkpt lat="45.95204" lon="4.71493">
        <ele>177</ele>
        <time>2018-01-23T09:51:50Z</time>
      </trkpt>
      <trkpt lat="45.95211" lon="4.71493">
        <ele>177</ele>
        <time>2018-01-23T09:51:51Z</time>
      </trkpt>
      <trkpt lat="45.95219" lon="4.71493">
        <ele>177</ele>
        <time>2018-01-23T09:51:52Z</time>
      </trkpt>
      <trkpt lat="45.95226" lon="4.71494">
        <ele>177</ele>
        <time>2018-01-23T09:51:53Z</time>
      </trkpt>
      <trkpt lat="45.95234" lon="4.71494">
        <ele>177</ele>
        <time>2018-01-23T09:51:54Z</time>
      </trkpt>
      <trkpt lat="45.95241" lon="4.71495">
        <ele>177</ele>
        <time>2018-01-23T09:51:55Z</time>
      </trkpt>
      <trkpt lat="45.95249" lon="4.71495">
        <ele>177</ele>
        <time>2018-01-23T09:51:56Z</time>
      </trkpt>
      <trkpt lat="45.95256" lon="4.71495">
        <ele>177</ele>
        <time>2018-01-23T09:51:57Z</time>
      </trkpt>
      <trkpt lat="45.95263" lon="4.71495">
        <ele>176</ele>
        <time>2018-01-23T09:51:58Z</time>
      </trkpt>
      <trkpt lat="45.95271" lon="4.71496">
        <ele>176</ele>
        <time>2018-01-23T09:51:59Z</time>
      </trkpt>
      <trkpt lat="45.95278" lon="4.71497">
        <ele>176</ele>
        <time>2018-01-23T09:52:00Z</time>
      </trkpt>
      <trkpt lat="45.95285" lon="4.71498">
        <ele>176</ele>
        <time>2018-01-23T09:52:01Z</time>
      </trkpt>
      <trkpt lat="45.95292" lon="4.71499">
        <ele>176</ele>
        <time>2018-01-23T09:52:02Z</time>
      </trkpt>
      <trkpt lat="45.95299" lon="4.71499">
        <ele>175</ele>
        <time>2018-01-23T09:52:03Z</time>
      </trkpt>
      <trkpt lat="45.95305" lon="4.715">
        <ele>175</ele>
        <time>2018-01-23T09:52:04Z</time>
      </trkpt>
      <trkpt lat="45.95311" lon="4.71499">
        <ele>175</ele>
        <time>2018-01-23T09:52:05Z</time>
      </trkpt>
      <trkpt lat="45.95318" lon="4.71499">
        <ele>175</ele>
        <time>2018-01-23T09:52:06Z</time>
      </trkpt>
      <trkpt lat="45.95324" lon="4.71498">
        <ele>175</ele>
        <time>2018-01-23T09:52:07Z</time>
      </trkpt>
      <trkpt lat="45.95329" lon="4.71499">
        <ele>174</ele>
        <time>2018-01-23T09:52:08Z</time>
      </trkpt>
      <trkpt lat="45.95335" lon="4.715">
        <ele>174</ele>
        <time>2018-01-23T09:52:09Z</time>
      </trkpt>
      <trkpt lat="45.95341" lon="4.71501">
        <ele>174</ele>
        <time>2018-01-23T09:52:10Z</time>
      </trkpt>
      <trkpt lat="45.95347" lon="4.71502">
        <ele>174</ele>
        <time>2018-01-23T09:52:11Z</time>
      </trkpt>
      <trkpt lat="45.95353" lon="4.71502">
        <ele>174</ele>
        <time>2018-01-23T09:52:12Z</time>
      </trkpt>
      <trkpt lat="45.95359" lon="4.71502">
        <ele>174</ele>
        <time>2018-01-23T09:52:13Z</time>
      </trkpt>
      <trkpt lat="45.95366" lon="4.71503">
        <ele>174</ele>
        <time>2018-01-23T09:52:14Z</time>
      </trkpt>
      <trkpt lat="45.95372" lon="4.71503">
        <ele>174</ele>
        <time>2018-01-23T09:52:15Z</time>
      </trkpt>
      <trkpt lat="45.95378" lon="4.71502">
        <ele>174</ele>
        <time>2018-01-23T09:52:16Z</time>
      </trkpt>
      <trkpt lat="45.95384" lon="4.71503">
        <ele>174</ele>
        <time>2018-01-23T09:52:17Z</time>
      </trkpt>
      <trkpt lat="45.95391" lon="4.71504">
        <ele>174</ele>
        <time>2018-01-23T09:52:18Z</time>
      </trkpt>
      <trkpt lat="45.95397" lon="4.71504">
        <ele>174</ele>
        <time>2018-01-23T09:52:19Z</time>
      </trkpt>
      <trkpt lat="45.95403" lon="4.71505">
        <ele>174</ele>
        <time>2018-01-23T09:52:20Z</time>
      </trkpt>
      <trkpt lat="45.95408" lon="4.71506">
        <ele>174</ele>
        <time>2018-01-23T09:52:21Z</time>
      </trkpt>
      <trkpt lat="45.95414" lon="4.71507">
        <ele>174</ele>
        <time>2018-01-23T09:52:22Z</time>
      </trkpt>
      <trkpt lat="45.9542" lon="4.71507">
        <ele>174</ele>
        <time>2018-01-23T09:52:23Z</time>
      </trkpt>
      <trkpt lat="45.95426" lon="4.71508">
        <ele>174</ele>
        <time>2018-01-23T09:52:24Z</time>
      </trkpt>
      <trkpt lat="45.95432" lon="4.71509">
        <ele>175</ele>
        <time>2018-01-23T09:52:25Z</time>
      </trkpt>
      <trkpt lat="45.95437" lon="4.71511">
        <ele>175</ele>
        <time>2018-01-23T09:52:26Z</time>
      </trkpt>
      <trkpt lat="45.95443" lon="4.71512">
        <ele>175</ele>
        <time>2018-01-23T09:52:27Z</time>
      </trkpt>
      <trkpt lat="45.95449" lon="4.71511">
        <ele>175</ele>
        <time>2018-01-23T09:52:28Z</time>
      </trkpt>
      <trkpt lat="45.95455" lon="4.71511">
        <ele>175</ele>
        <time>2018-01-23T09:52:29Z</time>
      </trkpt>
      <trkpt lat="45.95461" lon="4.71512">
        <ele>175</ele>
        <time>2018-01-23T09:52:30Z</time>
      </trkpt>
      <trkpt lat="45.95467" lon="4.71512">
        <ele>175</ele>
        <time>2018-01-23T09:52:31Z</time>
      </trkpt>
      <trkpt lat="45.95473" lon="4.71512">
        <ele>176</ele>
        <time>2018-01-23T09:52:32Z</time>
      </trkpt>
      <trkpt lat="45.95479" lon="4.71512">
        <ele>176</ele>
        <time>2018-01-23T09:52:33Z</time>
      </trkpt>
      <trkpt lat="45.95485" lon="4.71513">
        <ele>176</ele>
        <time>2018-01-23T09:52:34Z</time>
      </trkpt>
      <trkpt lat="45.95492" lon="4.71514">
        <ele>176</ele>
        <time>2018-01-23T09:52:35Z</time>
      </trkpt>
      <trkpt lat="45.95498" lon="4.71515">
        <ele>176</ele>
        <time>2018-01-23T09:52:36Z</time>
      </trkpt>
      <trkpt lat="45.95504" lon="4.71516">
        <ele>177</ele>
        <time>2018-01-23T09:52:37Z</time>
      </trkpt>
      <trkpt lat="45.9551" lon="4.71516">
        <ele>177</ele>
        <time>2018-01-23T09:52:38Z</time>
      </trkpt>
      <trkpt lat="45.95516" lon="4.71516">
        <ele>177</ele>
        <time>2018-01-23T09:52:39Z</time>
      </trkpt>
      <trkpt lat="45.95523" lon="4.71516">
        <ele>177</ele>
        <time>2018-01-23T09:52:40Z</time>
      </trkpt>
      <trkpt lat="45.95529" lon="4.71515">
        <ele>177</ele>
        <time>2018-01-23T09:52:41Z</time>
      </trkpt>
      <trkpt lat="45.95535" lon="4.71516">
        <ele>177</ele>
        <time>2018-01-23T09:52:42Z</time>
      </trkpt>
      <trkpt lat="45.95541" lon="4.71517">
        <ele>177</ele>
        <time>2018-01-23T09:52:43Z</time>
      </trkpt>
      <trkpt lat="45.95547" lon="4.71517">
        <ele>178</ele>
        <time>2018-01-23T09:52:44Z</time>
      </trkpt>
      <trkpt lat="45.95554" lon="4.71518">
        <ele>178</ele>
        <time>2018-01-23T09:52:45Z</time>
      </trkpt>
      <trkpt lat="45.95559" lon="4.71518">
        <ele>178</ele>
        <time>2018-01-23T09:52:46Z</time>
      </trkpt>
      <trkpt lat="45.95568" lon="4.71517">
        <ele>178</ele>
        <time>2018-01-23T09:52:48Z</time>
      </trkpt>
      <trkpt lat="45.95576" lon="4.71519">
        <ele>178</ele>
        <time>2018-01-23T09:52:49Z</time>
      </trkpt>
      <trkpt lat="45.95581" lon="4.71519">
        <ele>178</ele>
        <time>2018-01-23T09:52:50Z</time>
      </trkpt>
      <trkpt lat="45.95586" lon="4.71521">
        <ele>179</ele>
        <time>2018-01-23T09:52:51Z</time>
      </trkpt>
      <trkpt lat="45.95592" lon="4.71521">
        <ele>179</ele>
        <time>2018-01-23T09:52:52Z</time>
      </trkpt>
      <trkpt lat="45.95597" lon="4.71522">
        <ele>179</ele>
        <time>2018-01-23T09:52:53Z</time>
      </trkpt>
      <trkpt lat="45.95602" lon="4.71522">
        <ele>179</ele>
        <time>2018-01-23T09:52:54Z</time>
      </trkpt>
      <trkpt lat="45.95608" lon="4.71523">
        <ele>179</ele>
        <time>2018-01-23T09:52:55Z</time>
      </trkpt>
      <trkpt lat="45.95614" lon="4.71524">
        <ele>179</ele>
        <time>2018-01-23T09:52:56Z</time>
      </trkpt>
      <trkpt lat="45.95619" lon="4.71523">
        <ele>179</ele>
        <time>2018-01-23T09:52:57Z</time>
      </trkpt>
      <trkpt lat="45.95624" lon="4.71523">
        <ele>179</ele>
        <time>2018-01-23T09:52:58Z</time>
      </trkpt>
      <trkpt lat="45.9563" lon="4.71525">
        <ele>179</ele>
        <time>2018-01-23T09:52:59Z</time>
      </trkpt>
      <trkpt lat="45.95635" lon="4.71525">
        <ele>179</ele>
        <time>2018-01-23T09:53:00Z</time>
      </trkpt>
      <trkpt lat="45.9564" lon="4.71525">
        <ele>179</ele>
        <time>2018-01-23T09:53:01Z</time>
      </trkpt>
      <trkpt lat="45.95645" lon="4.71525">
        <ele>180</ele>
        <time>2018-01-23T09:53:02Z</time>
      </trkpt>
      <trkpt lat="45.95652" lon="4.71524">
        <ele>180</ele>
        <time>2018-01-23T09:53:03Z</time>
      </trkpt>
      <trkpt lat="45.95658" lon="4.71524">
        <ele>180</ele>
        <time>2018-01-23T09:53:04Z</time>
      </trkpt>
      <trkpt lat="45.95663" lon="4.71523">
        <ele>180</ele>
        <time>2018-01-23T09:53:05Z</time>
      </trkpt>
      <trkpt lat="45.95668" lon="4.71524">
        <ele>180</ele>
        <time>2018-01-23T09:53:06Z</time>
      </trkpt>
      <trkpt lat="45.95673" lon="4.71524">
        <ele>180</ele>
        <time>2018-01-23T09:53:07Z</time>
      </trkpt>
      <trkpt lat="45.95678" lon="4.71523">
        <ele>180</ele>
        <time>2018-01-23T09:53:08Z</time>
      </trkpt>
      <trkpt lat="45.95683" lon="4.71524">
        <ele>180</ele>
        <time>2018-01-23T09:53:09Z</time>
      </trkpt>
      <trkpt lat="45.95689" lon="4.71524">
        <ele>180</ele>
        <time>2018-01-23T09:53:10Z</time>
      </trkpt>
      <trkpt lat="45.95694" lon="4.71525">
        <ele>180</ele>
        <time>2018-01-23T09:53:11Z</time>
      </trkpt>
      <trkpt lat="45.95699" lon="4.71526">
        <ele>180</ele>
        <time>2018-01-23T09:53:12Z</time>
      </trkpt>
      <trkpt lat="45.95704" lon="4.71526">
        <ele>180</ele>
        <time>2018-01-23T09:53:13Z</time>
      </trkpt>
      <trkpt lat="45.95709" lon="4.71526">
        <ele>180</ele>
        <time>2018-01-23T09:53:14Z</time>
      </trkpt>
      <trkpt lat="45.95713" lon="4.71526">
        <ele>180</ele>
        <time>2018-01-23T09:53:15Z</time>
      </trkpt>
      <trkpt lat="45.95719" lon="4.71527">
        <ele>180</ele>
        <time>2018-01-23T09:53:16Z</time>
      </trkpt>
      <trkpt lat="45.95724" lon="4.71528">
        <ele>180</ele>
        <time>2018-01-23T09:53:17Z</time>
      </trkpt>
      <trkpt lat="45.95728" lon="4.71528">
        <ele>180</ele>
        <time>2018-01-23T09:53:18Z</time>
      </trkpt>
      <trkpt lat="45.95734" lon="4.71529">
        <ele>180</ele>
        <time>2018-01-23T09:53:19Z</time>
      </trkpt>
      <trkpt lat="45.95739" lon="4.7153">
        <ele>180</ele>
        <time>2018-01-23T09:53:20Z</time>
      </trkpt>
      <trkpt lat="45.95744" lon="4.7153">
        <ele>180</ele>
        <time>2018-01-23T09:53:21Z</time>
      </trkpt>
      <trkpt lat="45.9575" lon="4.7153">
        <ele>180</ele>
        <time>2018-01-23T09:53:22Z</time>
      </trkpt>
      <trkpt lat="45.95755" lon="4.71531">
        <ele>180</ele>
        <time>2018-01-23T09:53:23Z</time>
      </trkpt>
      <trkpt lat="45.95759" lon="4.71531">
        <ele>180</ele>
        <time>2018-01-23T09:53:24Z</time>
      </trkpt>
      <trkpt lat="45.95765" lon="4.71533">
        <ele>180</ele>
        <time>2018-01-23T09:53:25Z</time>
      </trkpt>
      <trkpt lat="45.9577" lon="4.71533">
        <ele>180</ele>
        <time>2018-01-23T09:53:26Z</time>
      </trkpt>
      <trkpt lat="45.95775" lon="4.71533">
        <ele>180</ele>
        <time>2018-01-23T09:53:27Z</time>
      </trkpt>
      <trkpt lat="45.95782" lon="4.71532">
        <ele>180</ele>
        <time>2018-01-23T09:53:28Z</time>
      </trkpt>
      <trkpt lat="45.95787" lon="4.71532">
        <ele>181</ele>
        <time>2018-01-23T09:53:29Z</time>
      </trkpt>
      <trkpt lat="45.95792" lon="4.71532">
        <ele>181</ele>
        <time>2018-01-23T09:53:30Z</time>
      </trkpt>
      <trkpt lat="45.95797" lon="4.71532">
        <ele>181</ele>
        <time>2018-01-23T09:53:31Z</time>
      </trkpt>
      <trkpt lat="45.95803" lon="4.71531">
        <ele>181</ele>
        <time>2018-01-23T09:53:32Z</time>
      </trkpt>
      <trkpt lat="45.95808" lon="4.71532">
        <ele>181</ele>
        <time>2018-01-23T09:53:33Z</time>
      </trkpt>
      <trkpt lat="45.95812" lon="4.71532">
        <ele>181</ele>
        <time>2018-01-23T09:53:34Z</time>
      </trkpt>
      <trkpt lat="45.95817" lon="4.71533">
        <ele>181</ele>
        <time>2018-01-23T09:53:35Z</time>
      </trkpt>
      <trkpt lat="45.95822" lon="4.71534">
        <ele>181</ele>
        <time>2018-01-23T09:53:36Z</time>
      </trkpt>
      <trkpt lat="45.95827" lon="4.71534">
        <ele>181</ele>
        <time>2018-01-23T09:53:37Z</time>
      </trkpt>
      <trkpt lat="45.95832" lon="4.71534">
        <ele>181</ele>
        <time>2018-01-23T09:53:38Z</time>
      </trkpt>
      <trkpt lat="45.95837" lon="4.71534">
        <ele>182</ele>
        <time>2018-01-23T09:53:39Z</time>
      </trkpt>
      <trkpt lat="45.95841" lon="4.71535">
        <ele>182</ele>
        <time>2018-01-23T09:53:40Z</time>
      </trkpt>
      <trkpt lat="45.95847" lon="4.71535">
        <ele>182</ele>
        <time>2018-01-23T09:53:41Z</time>
      </trkpt>
      <trkpt lat="45.95855" lon="4.71537">
        <ele>181</ele>
        <time>2018-01-23T09:53:43Z</time>
      </trkpt>
      <trkpt lat="45.9586" lon="4.71537">
        <ele>181</ele>
        <time>2018-01-23T09:53:44Z</time>
      </trkpt>
      <trkpt lat="45.95866" lon="4.71537">
        <ele>181</ele>
        <time>2018-01-23T09:53:45Z</time>
      </trkpt>
      <trkpt lat="45.95871" lon="4.71537">
        <ele>181</ele>
        <time>2018-01-23T09:53:46Z</time>
      </trkpt>
      <trkpt lat="45.95875" lon="4.71538">
        <ele>181</ele>
        <time>2018-01-23T09:53:47Z</time>
      </trkpt>
      <trkpt lat="45.9588" lon="4.71538">
        <ele>181</ele>
        <time>2018-01-23T09:53:48Z</time>
      </trkpt>
      <trkpt lat="45.95885" lon="4.71538">
        <ele>181</ele>
        <time>2018-01-23T09:53:49Z</time>
      </trkpt>
      <trkpt lat="45.9589" lon="4.71538">
        <ele>181</ele>
        <time>2018-01-23T09:53:50Z</time>
      </trkpt>
      <trkpt lat="45.95895" lon="4.71539">
        <ele>181</ele>
        <time>2018-01-23T09:53:51Z</time>
      </trkpt>
      <trkpt lat="45.95899" lon="4.71538">
        <ele>182</ele>
        <time>2018-01-23T09:53:52Z</time>
      </trkpt>
      <trkpt lat="45.95904" lon="4.71539">
        <ele>181</ele>
        <time>2018-01-23T09:53:53Z</time>
      </trkpt>
      <trkpt lat="45.95909" lon="4.71539">
        <ele>181</ele>
        <time>2018-01-23T09:53:54Z</time>
      </trkpt>
      <trkpt lat="45.95914" lon="4.71539">
        <ele>181</ele>
        <time>2018-01-23T09:53:55Z</time>
      </trkpt>
      <trkpt lat="45.95919" lon="4.71541">
        <ele>183</ele>
        <time>2018-01-23T09:53:56Z</time>
      </trkpt>
      <trkpt lat="45.95927" lon="4.71541">
        <ele>183</ele>
        <time>2018-01-23T09:53:58Z</time>
      </trkpt>
      <trkpt lat="45.95933" lon="4.71543">
        <ele>183</ele>
        <time>2018-01-23T09:53:59Z</time>
      </trkpt>
      <trkpt lat="45.95938" lon="4.71543">
        <ele>183</ele>
        <time>2018-01-23T09:54:00Z</time>
      </trkpt>
      <trkpt lat="45.95942" lon="4.71543">
        <ele>183</ele>
        <time>2018-01-23T09:54:01Z</time>
      </trkpt>
      <trkpt lat="45.95951" lon="4.71544">
        <ele>183</ele>
        <time>2018-01-23T09:54:03Z</time>
      </trkpt>
      <trkpt lat="45.95956" lon="4.71544">
        <ele>183</ele>
        <time>2018-01-23T09:54:04Z</time>
      </trkpt>
      <trkpt lat="45.95964" lon="4.71546">
        <ele>183</ele>
        <time>2018-01-23T09:54:06Z</time>
      </trkpt>
      <trkpt lat="45.95968" lon="4.71547">
        <ele>183</ele>
        <time>2018-01-23T09:54:07Z</time>
      </trkpt>
      <trkpt lat="45.95973" lon="4.71549">
        <ele>183</ele>
        <time>2018-01-23T09:54:08Z</time>
      </trkpt>
      <trkpt lat="45.95977" lon="4.7155">
        <ele>183</ele>
        <time>2018-01-23T09:54:09Z</time>
      </trkpt>
      <trkpt lat="45.95985" lon="4.71552">
        <ele>183</ele>
        <time>2018-01-23T09:54:11Z</time>
      </trkpt>
      <trkpt lat="45.9599" lon="4.71551">
        <ele>183</ele>
        <time>2018-01-23T09:54:12Z</time>
      </trkpt>
      <trkpt lat="45.95994" lon="4.71549">
        <ele>184</ele>
        <time>2018-01-23T09:54:13Z</time>
      </trkpt>
      <trkpt lat="45.95998" lon="4.71547">
        <ele>184</ele>
        <time>2018-01-23T09:54:14Z</time>
      </trkpt>
      <trkpt lat="45.96003" lon="4.71545">
        <ele>185</ele>
        <time>2018-01-23T09:54:15Z</time>
      </trkpt>
      <trkpt lat="45.96008" lon="4.71543">
        <ele>185</ele>
        <time>2018-01-23T09:54:16Z</time>
      </trkpt>
      <trkpt lat="45.96013" lon="4.71543">
        <ele>185</ele>
        <time>2018-01-23T09:54:17Z</time>
      </trkpt>
      <trkpt lat="45.96018" lon="4.71544">
        <ele>185</ele>
        <time>2018-01-23T09:54:18Z</time>
      </trkpt>
      <trkpt lat="45.96023" lon="4.71544">
        <ele>185</ele>
        <time>2018-01-23T09:54:19Z</time>
      </trkpt>
      <trkpt lat="45.96029" lon="4.71543">
        <ele>185</ele>
        <time>2018-01-23T09:54:20Z</time>
      </trkpt>
      <trkpt lat="45.96034" lon="4.71544">
        <ele>185</ele>
        <time>2018-01-23T09:54:21Z</time>
      </trkpt>
      <trkpt lat="45.96039" lon="4.71546">
        <ele>185</ele>
        <time>2018-01-23T09:54:22Z</time>
      </trkpt>
      <trkpt lat="45.96043" lon="4.71547">
        <ele>185</ele>
        <time>2018-01-23T09:54:23Z</time>
      </trkpt>
      <trkpt lat="45.96049" lon="4.71547">
        <ele>185</ele>
        <time>2018-01-23T09:54:24Z</time>
      </trkpt>
      <trkpt lat="45.96054" lon="4.71547">
        <ele>185</ele>
        <time>2018-01-23T09:54:25Z</time>
      </trkpt>
      <trkpt lat="45.9606" lon="4.71548">
        <ele>185</ele>
        <time>2018-01-23T09:54:26Z</time>
      </trkpt>
      <trkpt lat="45.96064" lon="4.71547">
        <ele>185</ele>
        <time>2018-01-23T09:54:27Z</time>
      </trkpt>
      <trkpt lat="45.9607" lon="4.71548">
        <ele>185</ele>
        <time>2018-01-23T09:54:28Z</time>
      </trkpt>
      <trkpt lat="45.96075" lon="4.71549">
        <ele>185</ele>
        <time>2018-01-23T09:54:29Z</time>
      </trkpt>
      <trkpt lat="45.96081" lon="4.71551">
        <ele>185</ele>
        <time>2018-01-23T09:54:30Z</time>
      </trkpt>
      <trkpt lat="45.96086" lon="4.71552">
        <ele>185</ele>
        <time>2018-01-23T09:54:31Z</time>
      </trkpt>
      <trkpt lat="45.96092" lon="4.71553">
        <ele>184</ele>
        <time>2018-01-23T09:54:32Z</time>
      </trkpt>
      <trkpt lat="45.96097" lon="4.71554">
        <ele>184</ele>
        <time>2018-01-23T09:54:33Z</time>
      </trkpt>
      <trkpt lat="45.96102" lon="4.71555">
        <ele>184</ele>
        <time>2018-01-23T09:54:34Z</time>
      </trkpt>
      <trkpt lat="45.96107" lon="4.71556">
        <ele>184</ele>
        <time>2018-01-23T09:54:35Z</time>
      </trkpt>
      <trkpt lat="45.96112" lon="4.71557">
        <ele>184</ele>
        <time>2018-01-23T09:54:36Z</time>
      </trkpt>
      <trkpt lat="45.96117" lon="4.71558">
        <ele>184</ele>
        <time>2018-01-23T09:54:37Z</time>
      </trkpt>
      <trkpt lat="45.96122" lon="4.71559">
        <ele>184</ele>
        <time>2018-01-23T09:54:38Z</time>
      </trkpt>
      <trkpt lat="45.96128" lon="4.71559">
        <ele>184</ele>
        <time>2018-01-23T09:54:39Z</time>
      </trkpt>
      <trkpt lat="45.96133" lon="4.7156">
        <ele>184</ele>
        <time>2018-01-23T09:54:40Z</time>
      </trkpt>
      <trkpt lat="45.96139" lon="4.7156">
        <ele>184</ele>
        <time>2018-01-23T09:54:41Z</time>
      </trkpt>
      <trkpt lat="45.96146" lon="4.71562">
        <ele>183</ele>
        <time>2018-01-23T09:54:42Z</time>
      </trkpt>
      <trkpt lat="45.96152" lon="4.71562">
        <ele>183</ele>
        <time>2018-01-23T09:54:43Z</time>
      </trkpt>
      <trkpt lat="45.96158" lon="4.71563">
        <ele>183</ele>
        <time>2018-01-23T09:54:44Z</time>
      </trkpt>
      <trkpt lat="45.96165" lon="4.71564">
        <ele>183</ele>
        <time>2018-01-23T09:54:45Z</time>
      </trkpt>
      <trkpt lat="45.96171" lon="4.71565">
        <ele>182</ele>
        <time>2018-01-23T09:54:46Z</time>
      </trkpt>
      <trkpt lat="45.96177" lon="4.71567">
        <ele>182</ele>
        <time>2018-01-23T09:54:47Z</time>
      </trkpt>
      <trkpt lat="45.96183" lon="4.71568">
        <ele>183</ele>
        <time>2018-01-23T09:54:48Z</time>
      </trkpt>
      <trkpt lat="45.96189" lon="4.71569">
        <ele>183</ele>
        <time>2018-01-23T09:54:49Z</time>
      </trkpt>
      <trkpt lat="45.96195" lon="4.7157">
        <ele>183</ele>
        <time>2018-01-23T09:54:50Z</time>
      </trkpt>
      <trkpt lat="45.962" lon="4.7157">
        <ele>183</ele>
        <time>2018-01-23T09:54:51Z</time>
      </trkpt>
      <trkpt lat="45.96206" lon="4.71571">
        <ele>183</ele>
        <time>2018-01-23T09:54:52Z</time>
      </trkpt>
      <trkpt lat="45.96212" lon="4.71572">
        <ele>183</ele>
        <time>2018-01-23T09:54:53Z</time>
      </trkpt>
      <trkpt lat="45.96218" lon="4.71572">
        <ele>183</ele>
        <time>2018-01-23T09:54:54Z</time>
      </trkpt>
      <trkpt lat="45.96224" lon="4.71572">
        <ele>183</ele>
        <time>2018-01-23T09:54:55Z</time>
      </trkpt>
      <trkpt lat="45.9623" lon="4.71573">
        <ele>183</ele>
        <time>2018-01-23T09:54:56Z</time>
      </trkpt>
      <trkpt lat="45.96236" lon="4.71573">
        <ele>183</ele>
        <time>2018-01-23T09:54:57Z</time>
      </trkpt>
      <trkpt lat="45.96241" lon="4.71574">
        <ele>182</ele>
        <time>2018-01-23T09:54:58Z</time>
      </trkpt>
      <trkpt lat="45.96247" lon="4.71575">
        <ele>182</ele>
        <time>2018-01-23T09:54:59Z</time>
      </trkpt>
      <trkpt lat="45.96253" lon="4.71576">
        <ele>182</ele>
        <time>2018-01-23T09:55:00Z</time>
      </trkpt>
      <trkpt lat="45.96258" lon="4.71577">
        <ele>182</ele>
        <time>2018-01-23T09:55:01Z</time>
      </trkpt>
      <trkpt lat="45.96264" lon="4.71578">
        <ele>183</ele>
        <time>2018-01-23T09:55:02Z</time>
      </trkpt>
      <trkpt lat="45.96269" lon="4.71578">
        <ele>183</ele>
        <time>2018-01-23T09:55:03Z</time>
      </trkpt>
      <trkpt lat="45.96274" lon="4.71579">
        <ele>183</ele>
        <time>2018-01-23T09:55:04Z</time>
      </trkpt>
      <trkpt lat="45.9628" lon="4.71581">
        <ele>184</ele>
        <time>2018-01-23T09:55:05Z</time>
      </trkpt>
      <trkpt lat="45.96285" lon="4.71581">
        <ele>184</ele>
        <time>2018-01-23T09:55:06Z</time>
      </trkpt>
      <trkpt lat="45.96291" lon="4.71582">
        <ele>184</ele>
        <time>2018-01-23T09:55:07Z</time>
      </trkpt>
      <trkpt lat="45.96296" lon="4.71584">
        <ele>181</ele>
        <time>2018-01-23T09:55:08Z</time>
      </trkpt>
      <trkpt lat="45.96302" lon="4.71585">
        <ele>181</ele>
        <time>2018-01-23T09:55:09Z</time>
      </trkpt>
      <trkpt lat="45.96308" lon="4.71586">
        <ele>181</ele>
        <time>2018-01-23T09:55:10Z</time>
      </trkpt>
      <trkpt lat="45.96313" lon="4.71587">
        <ele>181</ele>
        <time>2018-01-23T09:55:11Z</time>
      </trkpt>
      <trkpt lat="45.96319" lon="4.71589">
        <ele>182</ele>
        <time>2018-01-23T09:55:12Z</time>
      </trkpt>
      <trkpt lat="45.96325" lon="4.7159">
        <ele>182</ele>
        <time>2018-01-23T09:55:13Z</time>
      </trkpt>
      <trkpt lat="45.9633" lon="4.71592">
        <ele>182</ele>
        <time>2018-01-23T09:55:14Z</time>
      </trkpt>
      <trkpt lat="45.96336" lon="4.71592">
        <ele>183</ele>
        <time>2018-01-23T09:55:15Z</time>
      </trkpt>
      <trkpt lat="45.96342" lon="4.71593">
        <ele>182</ele>
        <time>2018-01-23T09:55:16Z</time>
      </trkpt>
      <trkpt lat="45.96346" lon="4.71594">
        <ele>182</ele>
        <time>2018-01-23T09:55:17Z</time>
      </trkpt>
      <trkpt lat="45.96351" lon="4.71595">
        <ele>182</ele>
        <time>2018-01-23T09:55:18Z</time>
      </trkpt>
      <trkpt lat="45.96356" lon="4.71596">
        <ele>182</ele>
        <time>2018-01-23T09:55:19Z</time>
      </trkpt>
      <trkpt lat="45.96361" lon="4.71596">
        <ele>182</ele>
        <time>2018-01-23T09:55:20Z</time>
      </trkpt>
      <trkpt lat="45.96366" lon="4.71597">
        <ele>182</ele>
        <time>2018-01-23T09:55:21Z</time>
      </trkpt>
      <trkpt lat="45.96371" lon="4.71598">
        <ele>182</ele>
        <time>2018-01-23T09:55:22Z</time>
      </trkpt>
      <trkpt lat="45.9638" lon="4.716">
        <ele>182</ele>
        <time>2018-01-23T09:55:24Z</time>
      </trkpt>
      <trkpt lat="45.96385" lon="4.71601">
        <ele>182</ele>
        <time>2018-01-23T09:55:25Z</time>
      </trkpt>
      <trkpt lat="45.9639" lon="4.71602">
        <ele>182</ele>
        <time>2018-01-23T09:55:26Z</time>
      </trkpt>
      <trkpt lat="45.96396" lon="4.71602">
        <ele>183</ele>
        <time>2018-01-23T09:55:27Z</time>
      </trkpt>
      <trkpt lat="45.96401" lon="4.71603">
        <ele>183</ele>
        <time>2018-01-23T09:55:28Z</time>
      </trkpt>
      <trkpt lat="45.96407" lon="4.71604">
        <ele>183</ele>
        <time>2018-01-23T09:55:29Z</time>
      </trkpt>
      <trkpt lat="45.96413" lon="4.71605">
        <ele>183</ele>
        <time>2018-01-23T09:55:30Z</time>
      </trkpt>
      <trkpt lat="45.96419" lon="4.71607">
        <ele>183</ele>
        <time>2018-01-23T09:55:31Z</time>
      </trkpt>
      <trkpt lat="45.96425" lon="4.71607">
        <ele>183</ele>
        <time>2018-01-23T09:55:32Z</time>
      </trkpt>
      <trkpt lat="45.9643" lon="4.71608">
        <ele>183</ele>
        <time>2018-01-23T09:55:33Z</time>
      </trkpt>
      <trkpt lat="45.96436" lon="4.71609">
        <ele>183</ele>
        <time>2018-01-23T09:55:34Z</time>
      </trkpt>
      <trkpt lat="45.96441" lon="4.7161">
        <ele>183</ele>
        <time>2018-01-23T09:55:35Z</time>
      </trkpt>
      <trkpt lat="45.96446" lon="4.71611">
        <ele>183</ele>
        <time>2018-01-23T09:55:36Z</time>
      </trkpt>
      <trkpt lat="45.96451" lon="4.71612">
        <ele>183</ele>
        <time>2018-01-23T09:55:37Z</time>
      </trkpt>
      <trkpt lat="45.96457" lon="4.71613">
        <ele>183</ele>
        <time>2018-01-23T09:55:38Z</time>
      </trkpt>
      <trkpt lat="45.96462" lon="4.71615">
        <ele>183</ele>
        <time>2018-01-23T09:55:39Z</time>
      </trkpt>
      <trkpt lat="45.96467" lon="4.71615">
        <ele>183</ele>
        <time>2018-01-23T09:55:40Z</time>
      </trkpt>
      <trkpt lat="45.96473" lon="4.71617">
        <ele>183</ele>
        <time>2018-01-23T09:55:41Z</time>
      </trkpt>
      <trkpt lat="45.96478" lon="4.71618">
        <ele>183</ele>
        <time>2018-01-23T09:55:42Z</time>
      </trkpt>
      <trkpt lat="45.96483" lon="4.71619">
        <ele>183</ele>
        <time>2018-01-23T09:55:43Z</time>
      </trkpt>
      <trkpt lat="45.96489" lon="4.7162">
        <ele>183</ele>
        <time>2018-01-23T09:55:44Z</time>
      </trkpt>
      <trkpt lat="45.96495" lon="4.71619">
        <ele>183</ele>
        <time>2018-01-23T09:55:45Z</time>
      </trkpt>
      <trkpt lat="45.965" lon="4.7162">
        <ele>183</ele>
        <time>2018-01-23T09:55:46Z</time>
      </trkpt>
      <trkpt lat="45.96505" lon="4.7162">
        <ele>184</ele>
        <time>2018-01-23T09:55:47Z</time>
      </trkpt>
      <trkpt lat="45.96513" lon="4.71625">
        <ele>184</ele>
        <time>2018-01-23T09:55:49Z</time>
      </trkpt>
      <trkpt lat="45.96516" lon="4.7163">
        <ele>184</ele>
        <time>2018-01-23T09:55:50Z</time>
      </trkpt>
      <trkpt lat="45.9652" lon="4.71634">
        <ele>183</ele>
        <time>2018-01-23T09:55:51Z</time>
      </trkpt>
      <trkpt lat="45.96524" lon="4.71639">
        <ele>183</ele>
        <time>2018-01-23T09:55:52Z</time>
      </trkpt>
      <trkpt lat="45.96528" lon="4.71643">
        <ele>183</ele>
        <time>2018-01-23T09:55:53Z</time>
      </trkpt>
      <trkpt lat="45.96533" lon="4.71643">
        <ele>183</ele>
        <time>2018-01-23T09:55:54Z</time>
      </trkpt>
      <trkpt lat="45.96538" lon="4.71642">
        <ele>184</ele>
        <time>2018-01-23T09:55:55Z</time>
      </trkpt>
      <trkpt lat="45.96542" lon="4.71639">
        <ele>184</ele>
        <time>2018-01-23T09:55:56Z</time>
      </trkpt>
      <trkpt lat="45.96547" lon="4.71634">
        <ele>184</ele>
        <time>2018-01-23T09:55:57Z</time>
      </trkpt>
      <trkpt lat="45.96551" lon="4.71631">
        <ele>184</ele>
        <time>2018-01-23T09:55:58Z</time>
      </trkpt>
      <trkpt lat="45.96555" lon="4.71628">
        <ele>184</ele>
        <time>2018-01-23T09:55:59Z</time>
      </trkpt>
      <trkpt lat="45.96561" lon="4.71628">
        <ele>185</ele>
        <time>2018-01-23T09:56:00Z</time>
      </trkpt>
      <trkpt lat="45.96566" lon="4.7163">
        <ele>184</ele>
        <time>2018-01-23T09:56:01Z</time>
      </trkpt>
      <trkpt lat="45.96571" lon="4.71632">
        <ele>184</ele>
        <time>2018-01-23T09:56:02Z</time>
      </trkpt>
      <trkpt lat="45.96577" lon="4.71633">
        <ele>184</ele>
        <time>2018-01-23T09:56:03Z</time>
      </trkpt>
      <trkpt lat="45.96582" lon="4.71633">
        <ele>184</ele>
        <time>2018-01-23T09:56:04Z</time>
      </trkpt>
      <trkpt lat="45.96587" lon="4.71634">
        <ele>187</ele>
        <time>2018-01-23T09:56:05Z</time>
      </trkpt>
      <trkpt lat="45.96591" lon="4.71635">
        <ele>187</ele>
        <time>2018-01-23T09:56:06Z</time>
      </trkpt>
      <trkpt lat="45.96596" lon="4.71635">
        <ele>187</ele>
        <time>2018-01-23T09:56:07Z</time>
      </trkpt>
      <trkpt lat="45.96601" lon="4.71636">
        <ele>187</ele>
        <time>2018-01-23T09:56:08Z</time>
      </trkpt>
      <trkpt lat="45.96609" lon="4.71638">
        <ele>187</ele>
        <time>2018-01-23T09:56:10Z</time>
      </trkpt>
      <trkpt lat="45.96614" lon="4.71638">
        <ele>187</ele>
        <time>2018-01-23T09:56:11Z</time>
      </trkpt>
      <trkpt lat="45.96619" lon="4.71639">
        <ele>187</ele>
        <time>2018-01-23T09:56:12Z</time>
      </trkpt>
      <trkpt lat="45.96623" lon="4.71638">
        <ele>187</ele>
        <time>2018-01-23T09:56:13Z</time>
      </trkpt>
      <trkpt lat="45.96628" lon="4.71639">
        <ele>187</ele>
        <time>2018-01-23T09:56:14Z</time>
      </trkpt>
      <trkpt lat="45.96633" lon="4.7164">
        <ele>187</ele>
        <time>2018-01-23T09:56:15Z</time>
      </trkpt>
      <trkpt lat="45.96638" lon="4.7164">
        <ele>188</ele>
        <time>2018-01-23T09:56:16Z</time>
      </trkpt>
      <trkpt lat="45.96643" lon="4.7164">
        <ele>188</ele>
        <time>2018-01-23T09:56:17Z</time>
      </trkpt>
      <trkpt lat="45.96647" lon="4.71641">
        <ele>188</ele>
        <time>2018-01-23T09:56:18Z</time>
      </trkpt>
      <trkpt lat="45.96653" lon="4.71642">
        <ele>188</ele>
        <time>2018-01-23T09:56:19Z</time>
      </trkpt>
      <trkpt lat="45.96658" lon="4.71643">
        <ele>188</ele>
        <time>2018-01-23T09:56:20Z</time>
      </trkpt>
      <trkpt lat="45.96663" lon="4.71643">
        <ele>188</ele>
        <time>2018-01-23T09:56:21Z</time>
      </trkpt>
      <trkpt lat="45.96668" lon="4.71644">
        <ele>189</ele>
        <time>2018-01-23T09:56:22Z</time>
      </trkpt>
      <trkpt lat="45.96674" lon="4.71643">
        <ele>189</ele>
        <time>2018-01-23T09:56:23Z</time>
      </trkpt>
      <trkpt lat="45.96679" lon="4.71644">
        <ele>189</ele>
        <time>2018-01-23T09:56:24Z</time>
      </trkpt>
      <trkpt lat="45.96685" lon="4.71644">
        <ele>189</ele>
        <time>2018-01-23T09:56:25Z</time>
      </trkpt>
      <trkpt lat="45.9669" lon="4.71646">
        <ele>190</ele>
        <time>2018-01-23T09:56:26Z</time>
      </trkpt>
      <trkpt lat="45.96694" lon="4.71646">
        <ele>190</ele>
        <time>2018-01-23T09:56:27Z</time>
      </trkpt>
      <trkpt lat="45.96699" lon="4.71648">
        <ele>190</ele>
        <time>2018-01-23T09:56:28Z</time>
      </trkpt>
      <trkpt lat="45.96704" lon="4.71648">
        <ele>190</ele>
        <time>2018-01-23T09:56:29Z</time>
      </trkpt>
      <trkpt lat="45.96708" lon="4.7165">
        <ele>190</ele>
        <time>2018-01-23T09:56:30Z</time>
      </trkpt>
      <trkpt lat="45.96713" lon="4.71651">
        <ele>190</ele>
        <time>2018-01-23T09:56:31Z</time>
      </trkpt>
      <trkpt lat="45.96718" lon="4.71652">
        <ele>190</ele>
        <time>2018-01-23T09:56:32Z</time>
      </trkpt>
      <trkpt lat="45.96723" lon="4.71653">
        <ele>190</ele>
        <time>2018-01-23T09:56:33Z</time>
      </trkpt>
      <trkpt lat="45.96728" lon="4.71653">
        <ele>190</ele>
        <time>2018-01-23T09:56:34Z</time>
      </trkpt>
      <trkpt lat="45.96734" lon="4.71654">
        <ele>190</ele>
        <time>2018-01-23T09:56:35Z</time>
      </trkpt>
      <trkpt lat="45.96739" lon="4.71655">
        <ele>190</ele>
        <time>2018-01-23T09:56:36Z</time>
      </trkpt>
      <trkpt lat="45.96745" lon="4.71656">
        <ele>190</ele>
        <time>2018-01-23T09:56:37Z</time>
      </trkpt>
      <trkpt lat="45.9675" lon="4.71658">
        <ele>189</ele>
        <time>2018-01-23T09:56:38Z</time>
      </trkpt>
      <trkpt lat="45.96755" lon="4.71658">
        <ele>190</ele>
        <time>2018-01-23T09:56:39Z</time>
      </trkpt>
      <trkpt lat="45.9676" lon="4.71659">
        <ele>191</ele>
        <time>2018-01-23T09:56:40Z</time>
      </trkpt>
      <trkpt lat="45.96765" lon="4.7166">
        <ele>191</ele>
        <time>2018-01-23T09:56:41Z</time>
      </trkpt>
      <trkpt lat="45.96771" lon="4.71661">
        <ele>191</ele>
        <time>2018-01-23T09:56:42Z</time>
      </trkpt>
      <trkpt lat="45.96776" lon="4.71661">
        <ele>192</ele>
        <time>2018-01-23T09:56:43Z</time>
      </trkpt>
      <trkpt lat="45.9678" lon="4.71661">
        <ele>192</ele>
        <time>2018-01-23T09:56:44Z</time>
      </trkpt>
      <trkpt lat="45.96785" lon="4.71662">
        <ele>192</ele>
        <time>2018-01-23T09:56:45Z</time>
      </trkpt>
      <trkpt lat="45.9679" lon="4.71663">
        <ele>192</ele>
        <time>2018-01-23T09:56:46Z</time>
      </trkpt>
      <trkpt lat="45.96795" lon="4.71663">
        <ele>192</ele>
        <time>2018-01-23T09:56:47Z</time>
      </trkpt>
      <trkpt lat="45.968" lon="4.71663">
        <ele>192</ele>
        <time>2018-01-23T09:56:48Z</time>
      </trkpt>
      <trkpt lat="45.96804" lon="4.71664">
        <ele>192</ele>
        <time>2018-01-23T09:56:49Z</time>
      </trkpt>
      <trkpt lat="45.9681" lon="4.71665">
        <ele>192</ele>
        <time>2018-01-23T09:56:50Z</time>
      </trkpt>
      <trkpt lat="45.96816" lon="4.71667">
        <ele>189</ele>
        <time>2018-01-23T09:56:51Z</time>
      </trkpt>
      <trkpt lat="45.96821" lon="4.71668">
        <ele>190</ele>
        <time>2018-01-23T09:56:52Z</time>
      </trkpt>
      <trkpt lat="45.96826" lon="4.71669">
        <ele>191</ele>
        <time>2018-01-23T09:56:53Z</time>
      </trkpt>
      <trkpt lat="45.96831" lon="4.7167">
        <ele>191</ele>
        <time>2018-01-23T09:56:54Z</time>
      </trkpt>
      <trkpt lat="45.96836" lon="4.71671">
        <ele>191</ele>
        <time>2018-01-23T09:56:55Z</time>
      </trkpt>
      <trkpt lat="45.9684" lon="4.7167">
        <ele>191</ele>
        <time>2018-01-23T09:56:56Z</time>
      </trkpt>
      <trkpt lat="45.96847" lon="4.71671">
        <ele>191</ele>
        <time>2018-01-23T09:56:57Z</time>
      </trkpt>
      <trkpt lat="45.96852" lon="4.71672">
        <ele>191</ele>
        <time>2018-01-23T09:56:58Z</time>
      </trkpt>
      <trkpt lat="45.96858" lon="4.71672">
        <ele>190</ele>
        <time>2018-01-23T09:56:59Z</time>
      </trkpt>
      <trkpt lat="45.96863" lon="4.71675">
        <ele>190</ele>
        <time>2018-01-23T09:57:00Z</time>
      </trkpt>
      <trkpt lat="45.96869" lon="4.71676">
        <ele>190</ele>
        <time>2018-01-23T09:57:01Z</time>
      </trkpt>
      <trkpt lat="45.96874" lon="4.71676">
        <ele>190</ele>
        <time>2018-01-23T09:57:02Z</time>
      </trkpt>
      <trkpt lat="45.96879" lon="4.71677">
        <ele>190</ele>
        <time>2018-01-23T09:57:03Z</time>
      </trkpt>
      <trkpt lat="45.96888" lon="4.71679">
        <ele>191</ele>
        <time>2018-01-23T09:57:05Z</time>
      </trkpt>
      <trkpt lat="45.96894" lon="4.71678">
        <ele>191</ele>
        <time>2018-01-23T09:57:06Z</time>
      </trkpt>
      <trkpt lat="45.96899" lon="4.71679">
        <ele>191</ele>
        <time>2018-01-23T09:57:07Z</time>
      </trkpt>
      <trkpt lat="45.96904" lon="4.71679">
        <ele>192</ele>
        <time>2018-01-23T09:57:08Z</time>
      </trkpt>
      <trkpt lat="45.96909" lon="4.7168">
        <ele>192</ele>
        <time>2018-01-23T09:57:09Z</time>
      </trkpt>
      <trkpt lat="45.96914" lon="4.71681">
        <ele>192</ele>
        <time>2018-01-23T09:57:10Z</time>
      </trkpt>
      <trkpt lat="45.96919" lon="4.71681">
        <ele>193</ele>
        <time>2018-01-23T09:57:11Z</time>
      </trkpt>
      <trkpt lat="45.96924" lon="4.71681">
        <ele>193</ele>
        <time>2018-01-23T09:57:12Z</time>
      </trkpt>
      <trkpt lat="45.9693" lon="4.71682">
        <ele>192</ele>
        <time>2018-01-23T09:57:13Z</time>
      </trkpt>
      <trkpt lat="45.96936" lon="4.71684">
        <ele>192</ele>
        <time>2018-01-23T09:57:14Z</time>
      </trkpt>
      <trkpt lat="45.96941" lon="4.71684">
        <ele>192</ele>
        <time>2018-01-23T09:57:15Z</time>
      </trkpt>
      <trkpt lat="45.96946" lon="4.71684">
        <ele>192</ele>
        <time>2018-01-23T09:57:16Z</time>
      </trkpt>
      <trkpt lat="45.96952" lon="4.71685">
        <ele>192</ele>
        <time>2018-01-23T09:57:17Z</time>
      </trkpt>
      <trkpt lat="45.96958" lon="4.71686">
        <ele>192</ele>
        <time>2018-01-23T09:57:18Z</time>
      </trkpt>
      <trkpt lat="45.96963" lon="4.71686">
        <ele>192</ele>
        <time>2018-01-23T09:57:19Z</time>
      </trkpt>
      <trkpt lat="45.96968" lon="4.71686">
        <ele>192</ele>
        <time>2018-01-23T09:57:20Z</time>
      </trkpt>
      <trkpt lat="45.96974" lon="4.71686">
        <ele>192</ele>
        <time>2018-01-23T09:57:21Z</time>
      </trkpt>
      <trkpt lat="45.96979" lon="4.71687">
        <ele>192</ele>
        <time>2018-01-23T09:57:22Z</time>
      </trkpt>
      <trkpt lat="45.96985" lon="4.71687">
        <ele>192</ele>
        <time>2018-01-23T09:57:23Z</time>
      </trkpt>
      <trkpt lat="45.9699" lon="4.71688">
        <ele>192</ele>
        <time>2018-01-23T09:57:24Z</time>
      </trkpt>
      <trkpt lat="45.96994" lon="4.71688">
        <ele>192</ele>
        <time>2018-01-23T09:57:25Z</time>
      </trkpt>
      <trkpt lat="45.96999" lon="4.71688">
        <ele>192</ele>
        <time>2018-01-23T09:57:26Z</time>
      </trkpt>
      <trkpt lat="45.97004" lon="4.71688">
        <ele>193</ele>
        <time>2018-01-23T09:57:27Z</time>
      </trkpt>
      <trkpt lat="45.97009" lon="4.71688">
        <ele>193</ele>
        <time>2018-01-23T09:57:28Z</time>
      </trkpt>
      <trkpt lat="45.97014" lon="4.71689">
        <ele>193</ele>
        <time>2018-01-23T09:57:29Z</time>
      </trkpt>
      <trkpt lat="45.97019" lon="4.71691">
        <ele>193</ele>
        <time>2018-01-23T09:57:30Z</time>
      </trkpt>
      <trkpt lat="45.97025" lon="4.71692">
        <ele>192</ele>
        <time>2018-01-23T09:57:31Z</time>
      </trkpt>
      <trkpt lat="45.9703" lon="4.71692">
        <ele>192</ele>
        <time>2018-01-23T09:57:32Z</time>
      </trkpt>
      <trkpt lat="45.97035" lon="4.71692">
        <ele>192</ele>
        <time>2018-01-23T09:57:33Z</time>
      </trkpt>
      <trkpt lat="45.97041" lon="4.71692">
        <ele>192</ele>
        <time>2018-01-23T09:57:34Z</time>
      </trkpt>
      <trkpt lat="45.97047" lon="4.71693">
        <ele>192</ele>
        <time>2018-01-23T09:57:35Z</time>
      </trkpt>
      <trkpt lat="45.97052" lon="4.71694">
        <ele>193</ele>
        <time>2018-01-23T09:57:36Z</time>
      </trkpt>
      <trkpt lat="45.97058" lon="4.71693">
        <ele>193</ele>
        <time>2018-01-23T09:57:37Z</time>
      </trkpt>
      <trkpt lat="45.97064" lon="4.71695">
        <ele>193</ele>
        <time>2018-01-23T09:57:38Z</time>
      </trkpt>
      <trkpt lat="45.97069" lon="4.71695">
        <ele>193</ele>
        <time>2018-01-23T09:57:39Z</time>
      </trkpt>
      <trkpt lat="45.97074" lon="4.71696">
        <ele>193</ele>
        <time>2018-01-23T09:57:40Z</time>
      </trkpt>
      <trkpt lat="45.97079" lon="4.71696">
        <ele>193</ele>
        <time>2018-01-23T09:57:41Z</time>
      </trkpt>
      <trkpt lat="45.97084" lon="4.71696">
        <ele>194</ele>
        <time>2018-01-23T09:57:42Z</time>
      </trkpt>
      <trkpt lat="45.9709" lon="4.71697">
        <ele>194</ele>
        <time>2018-01-23T09:57:43Z</time>
      </trkpt>
      <trkpt lat="45.97095" lon="4.71698">
        <ele>194</ele>
        <time>2018-01-23T09:57:44Z</time>
      </trkpt>
      <trkpt lat="45.971" lon="4.71697">
        <ele>194</ele>
        <time>2018-01-23T09:57:45Z</time>
      </trkpt>
      <trkpt lat="45.97106" lon="4.71696">
        <ele>194</ele>
        <time>2018-01-23T09:57:46Z</time>
      </trkpt>
      <trkpt lat="45.9711" lon="4.71697">
        <ele>194</ele>
        <time>2018-01-23T09:57:47Z</time>
      </trkpt>
      <trkpt lat="45.97116" lon="4.71697">
        <ele>194</ele>
        <time>2018-01-23T09:57:48Z</time>
      </trkpt>
      <trkpt lat="45.97123" lon="4.71698">
        <ele>194</ele>
        <time>2018-01-23T09:57:49Z</time>
      </trkpt>
      <trkpt lat="45.97128" lon="4.71698">
        <ele>194</ele>
        <time>2018-01-23T09:57:50Z</time>
      </trkpt>
      <trkpt lat="45.97133" lon="4.71699">
        <ele>194</ele>
        <time>2018-01-23T09:57:51Z</time>
      </trkpt>
      <trkpt lat="45.97138" lon="4.717">
        <ele>195</ele>
        <time>2018-01-23T09:57:52Z</time>
      </trkpt>
      <trkpt lat="45.97143" lon="4.71702">
        <ele>195</ele>
        <time>2018-01-23T09:57:53Z</time>
      </trkpt>
      <trkpt lat="45.97148" lon="4.71701">
        <ele>195</ele>
        <time>2018-01-23T09:57:54Z</time>
      </trkpt>
      <trkpt lat="45.97153" lon="4.71702">
        <ele>195</ele>
        <time>2018-01-23T09:57:55Z</time>
      </trkpt>
      <trkpt lat="45.97158" lon="4.71703">
        <ele>195</ele>
        <time>2018-01-23T09:57:56Z</time>
      </trkpt>
      <trkpt lat="45.97164" lon="4.71703">
        <ele>195</ele>
        <time>2018-01-23T09:57:57Z</time>
      </trkpt>
      <trkpt lat="45.97169" lon="4.71703">
        <ele>196</ele>
        <time>2018-01-23T09:57:58Z</time>
      </trkpt>
      <trkpt lat="45.97174" lon="4.71703">
        <ele>196</ele>
        <time>2018-01-23T09:57:59Z</time>
      </trkpt>
      <trkpt lat="45.9718" lon="4.71704">
        <ele>196</ele>
        <time>2018-01-23T09:58:00Z</time>
      </trkpt>
      <trkpt lat="45.97186" lon="4.71703">
        <ele>196</ele>
        <time>2018-01-23T09:58:01Z</time>
      </trkpt>
      <trkpt lat="45.97191" lon="4.71704">
        <ele>196</ele>
        <time>2018-01-23T09:58:02Z</time>
      </trkpt>
      <trkpt lat="45.97196" lon="4.71705">
        <ele>196</ele>
        <time>2018-01-23T09:58:03Z</time>
      </trkpt>
      <trkpt lat="45.97202" lon="4.71705">
        <ele>196</ele>
        <time>2018-01-23T09:58:04Z</time>
      </trkpt>
      <trkpt lat="45.97207" lon="4.71706">
        <ele>196</ele>
        <time>2018-01-23T09:58:05Z</time>
      </trkpt>
      <trkpt lat="45.97213" lon="4.71707">
        <ele>196</ele>
        <time>2018-01-23T09:58:06Z</time>
      </trkpt>
      <trkpt lat="45.9722" lon="4.71708">
        <ele>196</ele>
        <time>2018-01-23T09:58:07Z</time>
      </trkpt>
      <trkpt lat="45.97225" lon="4.71708">
        <ele>196</ele>
        <time>2018-01-23T09:58:08Z</time>
      </trkpt>
      <trkpt lat="45.97231" lon="4.71709">
        <ele>196</ele>
        <time>2018-01-23T09:58:09Z</time>
      </trkpt>
      <trkpt lat="45.97236" lon="4.7171">
        <ele>196</ele>
        <time>2018-01-23T09:58:10Z</time>
      </trkpt>
      <trkpt lat="45.97242" lon="4.7171">
        <ele>196</ele>
        <time>2018-01-23T09:58:11Z</time>
      </trkpt>
      <trkpt lat="45.97248" lon="4.71712">
        <ele>196</ele>
        <time>2018-01-23T09:58:12Z</time>
      </trkpt>
      <trkpt lat="45.97253" lon="4.71712">
        <ele>196</ele>
        <time>2018-01-23T09:58:13Z</time>
      </trkpt>
      <trkpt lat="45.97258" lon="4.71713">
        <ele>196</ele>
        <time>2018-01-23T09:58:14Z</time>
      </trkpt>
      <trkpt lat="45.97263" lon="4.71715">
        <ele>196</ele>
        <time>2018-01-23T09:58:15Z</time>
      </trkpt>
      <trkpt lat="45.97268" lon="4.71716">
        <ele>196</ele>
        <time>2018-01-23T09:58:16Z</time>
      </trkpt>
      <trkpt lat="45.97272" lon="4.71718">
        <ele>196</ele>
        <time>2018-01-23T09:58:17Z</time>
      </trkpt>
      <trkpt lat="45.97277" lon="4.71718">
        <ele>196</ele>
        <time>2018-01-23T09:58:18Z</time>
      </trkpt>
      <trkpt lat="45.97281" lon="4.7172">
        <ele>196</ele>
        <time>2018-01-23T09:58:19Z</time>
      </trkpt>
      <trkpt lat="45.97285" lon="4.71723">
        <ele>196</ele>
        <time>2018-01-23T09:58:20Z</time>
      </trkpt>
      <trkpt lat="45.97292" lon="4.71727">
        <ele>196</ele>
        <time>2018-01-23T09:58:22Z</time>
      </trkpt>
      <trkpt lat="45.97297" lon="4.71732">
        <ele>196</ele>
        <time>2018-01-23T09:58:23Z</time>
      </trkpt>
      <trkpt lat="45.97302" lon="4.71734">
        <ele>196</ele>
        <time>2018-01-23T09:58:24Z</time>
      </trkpt>
      <trkpt lat="45.97309" lon="4.71734">
        <ele>196</ele>
        <time>2018-01-23T09:58:25Z</time>
      </trkpt>
      <trkpt lat="45.97314" lon="4.71731">
        <ele>195</ele>
        <time>2018-01-23T09:58:26Z</time>
      </trkpt>
      <trkpt lat="45.97319" lon="4.71727">
        <ele>196</ele>
        <time>2018-01-23T09:58:27Z</time>
      </trkpt>
      <trkpt lat="45.97324" lon="4.71723">
        <ele>196</ele>
        <time>2018-01-23T09:58:28Z</time>
      </trkpt>
      <trkpt lat="45.97329" lon="4.71719">
        <ele>196</ele>
        <time>2018-01-23T09:58:29Z</time>
      </trkpt>
      <trkpt lat="45.97337" lon="4.71716">
        <ele>195</ele>
        <time>2018-01-23T09:58:31Z</time>
      </trkpt>
      <trkpt lat="45.97342" lon="4.71715">
        <ele>195</ele>
        <time>2018-01-23T09:58:32Z</time>
      </trkpt>
      <trkpt lat="45.97347" lon="4.71716">
        <ele>195</ele>
        <time>2018-01-23T09:58:33Z</time>
      </trkpt>
      <trkpt lat="45.97351" lon="4.71717">
        <ele>195</ele>
        <time>2018-01-23T09:58:34Z</time>
      </trkpt>
      <trkpt lat="45.97356" lon="4.71719">
        <ele>195</ele>
        <time>2018-01-23T09:58:35Z</time>
      </trkpt>
      <trkpt lat="45.97361" lon="4.71719">
        <ele>195</ele>
        <time>2018-01-23T09:58:36Z</time>
      </trkpt>
      <trkpt lat="45.97365" lon="4.71719">
        <ele>195</ele>
        <time>2018-01-23T09:58:37Z</time>
      </trkpt>
      <trkpt lat="45.9737" lon="4.7172">
        <ele>195</ele>
        <time>2018-01-23T09:58:38Z</time>
      </trkpt>
      <trkpt lat="45.97375" lon="4.71721">
        <ele>195</ele>
        <time>2018-01-23T09:58:39Z</time>
      </trkpt>
      <trkpt lat="45.97381" lon="4.71722">
        <ele>195</ele>
        <time>2018-01-23T09:58:40Z</time>
      </trkpt>
      <trkpt lat="45.97386" lon="4.71722">
        <ele>195</ele>
        <time>2018-01-23T09:58:41Z</time>
      </trkpt>
      <trkpt lat="45.97392" lon="4.71722">
        <ele>195</ele>
        <time>2018-01-23T09:58:42Z</time>
      </trkpt>
      <trkpt lat="45.97397" lon="4.71723">
        <ele>195</ele>
        <time>2018-01-23T09:58:43Z</time>
      </trkpt>
      <trkpt lat="45.97403" lon="4.71723">
        <ele>195</ele>
        <time>2018-01-23T09:58:44Z</time>
      </trkpt>
      <trkpt lat="45.97409" lon="4.71724">
        <ele>195</ele>
        <time>2018-01-23T09:58:45Z</time>
      </trkpt>
      <trkpt lat="45.97414" lon="4.71725">
        <ele>195</ele>
        <time>2018-01-23T09:58:46Z</time>
      </trkpt>
      <trkpt lat="45.97419" lon="4.71725">
        <ele>196</ele>
        <time>2018-01-23T09:58:47Z</time>
      </trkpt>
      <trkpt lat="45.97425" lon="4.71726">
        <ele>196</ele>
        <time>2018-01-23T09:58:48Z</time>
      </trkpt>
      <trkpt lat="45.97429" lon="4.71726">
        <ele>196</ele>
        <time>2018-01-23T09:58:49Z</time>
      </trkpt>
      <trkpt lat="45.97434" lon="4.71727">
        <ele>196</ele>
        <time>2018-01-23T09:58:50Z</time>
      </trkpt>
      <trkpt lat="45.9744" lon="4.71727">
        <ele>196</ele>
        <time>2018-01-23T09:58:51Z</time>
      </trkpt>
      <trkpt lat="45.97445" lon="4.71727">
        <ele>196</ele>
        <time>2018-01-23T09:58:52Z</time>
      </trkpt>
      <trkpt lat="45.9745" lon="4.71728">
        <ele>196</ele>
        <time>2018-01-23T09:58:53Z</time>
      </trkpt>
      <trkpt lat="45.97456" lon="4.71729">
        <ele>197</ele>
        <time>2018-01-23T09:58:54Z</time>
      </trkpt>
      <trkpt lat="45.97462" lon="4.71729">
        <ele>197</ele>
        <time>2018-01-23T09:58:55Z</time>
      </trkpt>
      <trkpt lat="45.97467" lon="4.7173">
        <ele>197</ele>
        <time>2018-01-23T09:58:56Z</time>
      </trkpt>
      <trkpt lat="45.97473" lon="4.7173">
        <ele>197</ele>
        <time>2018-01-23T09:58:57Z</time>
      </trkpt>
      <trkpt lat="45.97478" lon="4.7173">
        <ele>197</ele>
        <time>2018-01-23T09:58:58Z</time>
      </trkpt>
      <trkpt lat="45.97484" lon="4.71731">
        <ele>197</ele>
        <time>2018-01-23T09:58:59Z</time>
      </trkpt>
      <trkpt lat="45.9749" lon="4.71731">
        <ele>197</ele>
        <time>2018-01-23T09:59:00Z</time>
      </trkpt>
      <trkpt lat="45.97496" lon="4.71731">
        <ele>197</ele>
        <time>2018-01-23T09:59:01Z</time>
      </trkpt>
      <trkpt lat="45.97502" lon="4.71732">
        <ele>197</ele>
        <time>2018-01-23T09:59:02Z</time>
      </trkpt>
      <trkpt lat="45.97508" lon="4.71733">
        <ele>197</ele>
        <time>2018-01-23T09:59:03Z</time>
      </trkpt>
      <trkpt lat="45.97513" lon="4.71733">
        <ele>198</ele>
        <time>2018-01-23T09:59:04Z</time>
      </trkpt>
      <trkpt lat="45.97519" lon="4.71733">
        <ele>198</ele>
        <time>2018-01-23T09:59:05Z</time>
      </trkpt>
      <trkpt lat="45.97524" lon="4.71734">
        <ele>198</ele>
        <time>2018-01-23T09:59:06Z</time>
      </trkpt>
      <trkpt lat="45.9753" lon="4.71734">
        <ele>198</ele>
        <time>2018-01-23T09:59:07Z</time>
      </trkpt>
      <trkpt lat="45.97535" lon="4.71735">
        <ele>198</ele>
        <time>2018-01-23T09:59:08Z</time>
      </trkpt>
      <trkpt lat="45.9754" lon="4.71735">
        <ele>198</ele>
        <time>2018-01-23T09:59:09Z</time>
      </trkpt>
      <trkpt lat="45.97546" lon="4.71736">
        <ele>198</ele>
        <time>2018-01-23T09:59:10Z</time>
      </trkpt>
      <trkpt lat="45.97552" lon="4.71737">
        <ele>197</ele>
        <time>2018-01-23T09:59:11Z</time>
      </trkpt>
      <trkpt lat="45.97557" lon="4.71738">
        <ele>197</ele>
        <time>2018-01-23T09:59:12Z</time>
      </trkpt>
      <trkpt lat="45.97562" lon="4.71739">
        <ele>197</ele>
        <time>2018-01-23T09:59:13Z</time>
      </trkpt>
      <trkpt lat="45.97568" lon="4.7174">
        <ele>197</ele>
        <time>2018-01-23T09:59:14Z</time>
      </trkpt>
      <trkpt lat="45.97574" lon="4.71739">
        <ele>197</ele>
        <time>2018-01-23T09:59:15Z</time>
      </trkpt>
      <trkpt lat="45.9758" lon="4.71739">
        <ele>196</ele>
        <time>2018-01-23T09:59:16Z</time>
      </trkpt>
      <trkpt lat="45.97585" lon="4.71738">
        <ele>196</ele>
        <time>2018-01-23T09:59:17Z</time>
      </trkpt>
      <trkpt lat="45.97591" lon="4.71739">
        <ele>196</ele>
        <time>2018-01-23T09:59:18Z</time>
      </trkpt>
      <trkpt lat="45.97596" lon="4.71743">
        <ele>196</ele>
        <time>2018-01-23T09:59:19Z</time>
      </trkpt>
      <trkpt lat="45.97601" lon="4.71748">
        <ele>196</ele>
        <time>2018-01-23T09:59:20Z</time>
      </trkpt>
      <trkpt lat="45.97604" lon="4.71753">
        <ele>194</ele>
        <time>2018-01-23T09:59:21Z</time>
      </trkpt>
      <trkpt lat="45.97609" lon="4.71758">
        <ele>194</ele>
        <time>2018-01-23T09:59:22Z</time>
      </trkpt>
      <trkpt lat="45.97614" lon="4.71762">
        <ele>194</ele>
        <time>2018-01-23T09:59:23Z</time>
      </trkpt>
      <trkpt lat="45.9762" lon="4.71762">
        <ele>194</ele>
        <time>2018-01-23T09:59:24Z</time>
      </trkpt>
      <trkpt lat="45.97625" lon="4.71761">
        <ele>194</ele>
        <time>2018-01-23T09:59:25Z</time>
      </trkpt>
      <trkpt lat="45.97629" lon="4.71758">
        <ele>194</ele>
        <time>2018-01-23T09:59:26Z</time>
      </trkpt>
      <trkpt lat="45.97634" lon="4.71754">
        <ele>194</ele>
        <time>2018-01-23T09:59:27Z</time>
      </trkpt>
      <trkpt lat="45.97638" lon="4.71752">
        <ele>194</ele>
        <time>2018-01-23T09:59:28Z</time>
      </trkpt>
      <trkpt lat="45.97647" lon="4.71748">
        <ele>196</ele>
        <time>2018-01-23T09:59:30Z</time>
      </trkpt>
      <trkpt lat="45.97651" lon="4.71747">
        <ele>195</ele>
        <time>2018-01-23T09:59:31Z</time>
      </trkpt>
      <trkpt lat="45.97658" lon="4.71748">
        <ele>195</ele>
        <time>2018-01-23T09:59:32Z</time>
      </trkpt>
      <trkpt lat="45.97663" lon="4.71749">
        <ele>194</ele>
        <time>2018-01-23T09:59:33Z</time>
      </trkpt>
      <trkpt lat="45.97669" lon="4.7175">
        <ele>194</ele>
        <time>2018-01-23T09:59:34Z</time>
      </trkpt>
      <trkpt lat="45.97675" lon="4.71751">
        <ele>194</ele>
        <time>2018-01-23T09:59:35Z</time>
      </trkpt>
      <trkpt lat="45.97681" lon="4.71752">
        <ele>194</ele>
        <time>2018-01-23T09:59:36Z</time>
      </trkpt>
      <trkpt lat="45.97687" lon="4.71752">
        <ele>194</ele>
        <time>2018-01-23T09:59:37Z</time>
      </trkpt>
      <trkpt lat="45.97693" lon="4.71752">
        <ele>195</ele>
        <time>2018-01-23T09:59:38Z</time>
      </trkpt>
      <trkpt lat="45.97699" lon="4.71753">
        <ele>195</ele>
        <time>2018-01-23T09:59:39Z</time>
      </trkpt>
      <trkpt lat="45.97705" lon="4.71755">
        <ele>195</ele>
        <time>2018-01-23T09:59:40Z</time>
      </trkpt>
      <trkpt lat="45.97711" lon="4.71756">
        <ele>195</ele>
        <time>2018-01-23T09:59:41Z</time>
      </trkpt>
      <trkpt lat="45.97716" lon="4.71756">
        <ele>195</ele>
        <time>2018-01-23T09:59:42Z</time>
      </trkpt>
      <trkpt lat="45.97722" lon="4.71757">
        <ele>195</ele>
        <time>2018-01-23T09:59:43Z</time>
      </trkpt>
      <trkpt lat="45.97728" lon="4.71756">
        <ele>195</ele>
        <time>2018-01-23T09:59:44Z</time>
      </trkpt>
      <trkpt lat="45.97732" lon="4.71756">
        <ele>195</ele>
        <time>2018-01-23T09:59:45Z</time>
      </trkpt>
      <trkpt lat="45.97737" lon="4.71756">
        <ele>195</ele>
        <time>2018-01-23T09:59:46Z</time>
      </trkpt>
      <trkpt lat="45.97743" lon="4.71757">
        <ele>196</ele>
        <time>2018-01-23T09:59:47Z</time>
      </trkpt>
      <trkpt lat="45.97748" lon="4.71757">
        <ele>196</ele>
        <time>2018-01-23T09:59:48Z</time>
      </trkpt>
      <trkpt lat="45.97753" lon="4.71755">
        <ele>196</ele>
        <time>2018-01-23T09:59:49Z</time>
      </trkpt>
      <trkpt lat="45.97758" lon="4.71754">
        <ele>196</ele>
        <time>2018-01-23T09:59:50Z</time>
      </trkpt>
      <trkpt lat="45.97765" lon="4.71754">
        <ele>196</ele>
        <time>2018-01-23T09:59:51Z</time>
      </trkpt>
      <trkpt lat="45.9777" lon="4.71753">
        <ele>195</ele>
        <time>2018-01-23T09:59:52Z</time>
      </trkpt>
      <trkpt lat="45.97776" lon="4.71754">
        <ele>195</ele>
        <time>2018-01-23T09:59:53Z</time>
      </trkpt>
      <trkpt lat="45.97782" lon="4.71754">
        <ele>195</ele>
        <time>2018-01-23T09:59:54Z</time>
      </trkpt>
      <trkpt lat="45.97788" lon="4.71755">
        <ele>195</ele>
        <time>2018-01-23T09:59:55Z</time>
      </trkpt>
      <trkpt lat="45.97794" lon="4.71756">
        <ele>195</ele>
        <time>2018-01-23T09:59:56Z</time>
      </trkpt>
      <trkpt lat="45.978" lon="4.71756">
        <ele>195</ele>
        <time>2018-01-23T09:59:57Z</time>
      </trkpt>
      <trkpt lat="45.97806" lon="4.71756">
        <ele>195</ele>
        <time>2018-01-23T09:59:58Z</time>
      </trkpt>
      <trkpt lat="45.97812" lon="4.71757">
        <ele>195</ele>
        <time>2018-01-23T09:59:59Z</time>
      </trkpt>
      <trkpt lat="45.97817" lon="4.71757">
        <ele>195</ele>
        <time>2018-01-23T10:00:00Z</time>
      </trkpt>
      <trkpt lat="45.97822" lon="4.71758">
        <ele>195</ele>
        <time>2018-01-23T10:00:01Z</time>
      </trkpt>
      <trkpt lat="45.97827" lon="4.71758">
        <ele>195</ele>
        <time>2018-01-23T10:00:02Z</time>
      </trkpt>
      <trkpt lat="45.97832" lon="4.71759">
        <ele>195</ele>
        <time>2018-01-23T10:00:03Z</time>
      </trkpt>
      <trkpt lat="45.97837" lon="4.7176">
        <ele>195</ele>
        <time>2018-01-23T10:00:04Z</time>
      </trkpt>
      <trkpt lat="45.97842" lon="4.71761">
        <ele>195</ele>
        <time>2018-01-23T10:00:05Z</time>
      </trkpt>
      <trkpt lat="45.97847" lon="4.71762">
        <ele>195</ele>
        <time>2018-01-23T10:00:06Z</time>
      </trkpt>
      <trkpt lat="45.97851" lon="4.71765">
        <ele>195</ele>
        <time>2018-01-23T10:00:07Z</time>
      </trkpt>
      <trkpt lat="45.97855" lon="4.7177">
        <ele>194</ele>
        <time>2018-01-23T10:00:08Z</time>
      </trkpt>
      <trkpt lat="45.97859" lon="4.71774">
        <ele>194</ele>
        <time>2018-01-23T10:00:09Z</time>
      </trkpt>
      <trkpt lat="45.97863" lon="4.71777">
        <ele>194</ele>
        <time>2018-01-23T10:00:10Z</time>
      </trkpt>
      <trkpt lat="45.97868" lon="4.71781">
        <ele>194</ele>
        <time>2018-01-23T10:00:11Z</time>
      </trkpt>
      <trkpt lat="45.97874" lon="4.71784">
        <ele>194</ele>
        <time>2018-01-23T10:00:12Z</time>
      </trkpt>
      <trkpt lat="45.97879" lon="4.71785">
        <ele>194</ele>
        <time>2018-01-23T10:00:13Z</time>
      </trkpt>
      <trkpt lat="45.97884" lon="4.71784">
        <ele>194</ele>
        <time>2018-01-23T10:00:14Z</time>
      </trkpt>
      <trkpt lat="45.97888" lon="4.71779">
        <ele>194</ele>
        <time>2018-01-23T10:00:15Z</time>
      </trkpt>
      <trkpt lat="45.97892" lon="4.71775">
        <ele>194</ele>
        <time>2018-01-23T10:00:16Z</time>
      </trkpt>
      <trkpt lat="45.97895" lon="4.71768">
        <ele>194</ele>
        <time>2018-01-23T10:00:17Z</time>
      </trkpt>
      <trkpt lat="45.97898" lon="4.71761">
        <ele>195</ele>
        <time>2018-01-23T10:00:18Z</time>
      </trkpt>
      <trkpt lat="45.97899" lon="4.71752">
        <ele>195</ele>
        <time>2018-01-23T10:00:19Z</time>
      </trkpt>
      <trkpt lat="45.979" lon="4.71744">
        <ele>195</ele>
        <time>2018-01-23T10:00:20Z</time>
      </trkpt>
      <trkpt lat="45.979" lon="4.71736">
        <ele>196</ele>
        <time>2018-01-23T10:00:21Z</time>
      </trkpt>
      <trkpt lat="45.97901" lon="4.71727">
        <ele>196</ele>
        <time>2018-01-23T10:00:22Z</time>
      </trkpt>
      <trkpt lat="45.97902" lon="4.71719">
        <ele>196</ele>
        <time>2018-01-23T10:00:23Z</time>
      </trkpt>
      <trkpt lat="45.97904" lon="4.71709">
        <ele>196</ele>
        <time>2018-01-23T10:00:24Z</time>
      </trkpt>
      <trkpt lat="45.97907" lon="4.71702">
        <ele>196</ele>
        <time>2018-01-23T10:00:25Z</time>
      </trkpt>
      <trkpt lat="45.97911" lon="4.71696">
        <ele>196</ele>
        <time>2018-01-23T10:00:26Z</time>
      </trkpt>
      <trkpt lat="45.97915" lon="4.71692">
        <ele>196</ele>
        <time>2018-01-23T10:00:27Z</time>
      </trkpt>
      <trkpt lat="45.9792" lon="4.71688">
        <ele>196</ele>
        <time>2018-01-23T10:00:28Z</time>
      </trkpt>
      <trkpt lat="45.97925" lon="4.71683">
        <ele>197</ele>
        <time>2018-01-23T10:00:29Z</time>
      </trkpt>
      <trkpt lat="45.97929" lon="4.71679">
        <ele>197</ele>
        <time>2018-01-23T10:00:30Z</time>
      </trkpt>
      <trkpt lat="45.97934" lon="4.71674">
        <ele>197</ele>
        <time>2018-01-23T10:00:31Z</time>
      </trkpt>
      <trkpt lat="45.97939" lon="4.71671">
        <ele>197</ele>
        <time>2018-01-23T10:00:32Z</time>
      </trkpt>
      <trkpt lat="45.97943" lon="4.71668">
        <ele>197</ele>
        <time>2018-01-23T10:00:33Z</time>
      </trkpt>
      <trkpt lat="45.97948" lon="4.71664">
        <ele>197</ele>
        <time>2018-01-23T10:00:34Z</time>
      </trkpt>
      <trkpt lat="45.97953" lon="4.71661">
        <ele>197</ele>
        <time>2018-01-23T10:00:35Z</time>
      </trkpt>
      <trkpt lat="45.97958" lon="4.71658">
        <ele>197</ele>
        <time>2018-01-23T10:00:36Z</time>
      </trkpt>
      <trkpt lat="45.97962" lon="4.71654">
        <ele>197</ele>
        <time>2018-01-23T10:00:37Z</time>
      </trkpt>
      <trkpt lat="45.97967" lon="4.71651">
        <ele>197</ele>
        <time>2018-01-23T10:00:38Z</time>
      </trkpt>
      <trkpt lat="45.97971" lon="4.71647">
        <ele>197</ele>
        <time>2018-01-23T10:00:39Z</time>
      </trkpt>
      <trkpt lat="45.97976" lon="4.71644">
        <ele>197</ele>
        <time>2018-01-23T10:00:40Z</time>
      </trkpt>
      <trkpt lat="45.97981" lon="4.7164">
        <ele>197</ele>
        <time>2018-01-23T10:00:41Z</time>
      </trkpt>
      <trkpt lat="45.97986" lon="4.71636">
        <ele>197</ele>
        <time>2018-01-23T10:00:42Z</time>
      </trkpt>
      <trkpt lat="45.9799" lon="4.71634">
        <ele>198</ele>
        <time>2018-01-23T10:00:43Z</time>
      </trkpt>
      <trkpt lat="45.97994" lon="4.71631">
        <ele>198</ele>
        <time>2018-01-23T10:00:44Z</time>
      </trkpt>
      <trkpt lat="45.97999" lon="4.71628">
        <ele>198</ele>
        <time>2018-01-23T10:00:45Z</time>
      </trkpt>
      <trkpt lat="45.98004" lon="4.71623">
        <ele>198</ele>
        <time>2018-01-23T10:00:46Z</time>
      </trkpt>
      <trkpt lat="45.98009" lon="4.71618">
        <ele>198</ele>
        <time>2018-01-23T10:00:47Z</time>
      </trkpt>
      <trkpt lat="45.98014" lon="4.71615">
        <ele>198</ele>
        <time>2018-01-23T10:00:48Z</time>
      </trkpt>
      <trkpt lat="45.98019" lon="4.7161">
        <ele>198</ele>
        <time>2018-01-23T10:00:49Z</time>
      </trkpt>
      <trkpt lat="45.98025" lon="4.71606">
        <ele>198</ele>
        <time>2018-01-23T10:00:50Z</time>
      </trkpt>
      <trkpt lat="45.98029" lon="4.71601">
        <ele>198</ele>
        <time>2018-01-23T10:00:51Z</time>
      </trkpt>
      <trkpt lat="45.98034" lon="4.71597">
        <ele>198</ele>
        <time>2018-01-23T10:00:52Z</time>
      </trkpt>
      <trkpt lat="45.9804" lon="4.71593">
        <ele>198</ele>
        <time>2018-01-23T10:00:53Z</time>
      </trkpt>
      <trkpt lat="45.98045" lon="4.71589">
        <ele>198</ele>
        <time>2018-01-23T10:00:54Z</time>
      </trkpt>
      <trkpt lat="45.9805" lon="4.71585">
        <ele>198</ele>
        <time>2018-01-23T10:00:55Z</time>
      </trkpt>
      <trkpt lat="45.98055" lon="4.71582">
        <ele>198</ele>
        <time>2018-01-23T10:00:56Z</time>
      </trkpt>
      <trkpt lat="45.98061" lon="4.71578">
        <ele>198</ele>
        <time>2018-01-23T10:00:57Z</time>
      </trkpt>
      <trkpt lat="45.98067" lon="4.71574">
        <ele>198</ele>
        <time>2018-01-23T10:00:58Z</time>
      </trkpt>
      <trkpt lat="45.98071" lon="4.7157">
        <ele>198</ele>
        <time>2018-01-23T10:00:59Z</time>
      </trkpt>
      <trkpt lat="45.98076" lon="4.71566">
        <ele>198</ele>
        <time>2018-01-23T10:01:00Z</time>
      </trkpt>
      <trkpt lat="45.9808" lon="4.71563">
        <ele>198</ele>
        <time>2018-01-23T10:01:01Z</time>
      </trkpt>
      <trkpt lat="45.98085" lon="4.71559">
        <ele>198</ele>
        <time>2018-01-23T10:01:02Z</time>
      </trkpt>
      <trkpt lat="45.9809" lon="4.71555">
        <ele>198</ele>
        <time>2018-01-23T10:01:03Z</time>
      </trkpt>
      <trkpt lat="45.98094" lon="4.71551">
        <ele>197</ele>
        <time>2018-01-23T10:01:04Z</time>
      </trkpt>
      <trkpt lat="45.981" lon="4.71547">
        <ele>197</ele>
        <time>2018-01-23T10:01:05Z</time>
      </trkpt>
      <trkpt lat="45.98104" lon="4.71546">
        <ele>197</ele>
        <time>2018-01-23T10:01:06Z</time>
      </trkpt>
      <trkpt lat="45.98109" lon="4.71543">
        <ele>197</ele>
        <time>2018-01-23T10:01:07Z</time>
      </trkpt>
      <trkpt lat="45.98114" lon="4.71541">
        <ele>197</ele>
        <time>2018-01-23T10:01:08Z</time>
      </trkpt>
      <trkpt lat="45.98117" lon="4.71538">
        <ele>197</ele>
        <time>2018-01-23T10:01:09Z</time>
      </trkpt>
      <trkpt lat="45.98122" lon="4.71536">
        <ele>197</ele>
        <time>2018-01-23T10:01:10Z</time>
      </trkpt>
      <trkpt lat="45.98126" lon="4.71533">
        <ele>197</ele>
        <time>2018-01-23T10:01:11Z</time>
      </trkpt>
      <trkpt lat="45.9813" lon="4.7153">
        <ele>197</ele>
        <time>2018-01-23T10:01:12Z</time>
      </trkpt>
      <trkpt lat="45.98134" lon="4.71527">
        <ele>197</ele>
        <time>2018-01-23T10:01:13Z</time>
      </trkpt>
      <trkpt lat="45.98139" lon="4.71525">
        <ele>197</ele>
        <time>2018-01-23T10:01:14Z</time>
      </trkpt>
      <trkpt lat="45.98144" lon="4.71522">
        <ele>197</ele>
        <time>2018-01-23T10:01:15Z</time>
      </trkpt>
      <trkpt lat="45.98148" lon="4.7152">
        <ele>197</ele>
        <time>2018-01-23T10:01:16Z</time>
      </trkpt>
      <trkpt lat="45.98153" lon="4.71518">
        <ele>197</ele>
        <time>2018-01-23T10:01:17Z</time>
      </trkpt>
      <trkpt lat="45.98157" lon="4.71515">
        <ele>197</ele>
        <time>2018-01-23T10:01:18Z</time>
      </trkpt>
      <trkpt lat="45.98161" lon="4.71512">
        <ele>197</ele>
        <time>2018-01-23T10:01:19Z</time>
      </trkpt>
      <trkpt lat="45.98169" lon="4.71508">
        <ele>197</ele>
        <time>2018-01-23T10:01:21Z</time>
      </trkpt>
      <trkpt lat="45.98172" lon="4.71507">
        <ele>197</ele>
        <time>2018-01-23T10:01:22Z</time>
      </trkpt>
      <trkpt lat="45.98174" lon="4.71497">
        <ele>197</ele>
        <time>2018-01-23T10:01:24Z</time>
      </trkpt>
      <trkpt lat="45.9818" lon="4.71498">
        <ele>197</ele>
        <time>2018-01-23T10:01:25Z</time>
      </trkpt>
      <trkpt lat="45.98186" lon="4.71496">
        <ele>197</ele>
        <time>2018-01-23T10:01:26Z</time>
      </trkpt>
      <trkpt lat="45.98192" lon="4.71496">
        <ele>197</ele>
        <time>2018-01-23T10:01:27Z</time>
      </trkpt>
      <trkpt lat="45.98197" lon="4.71497">
        <ele>197</ele>
        <time>2018-01-23T10:01:28Z</time>
      </trkpt>
      <trkpt lat="45.98203" lon="4.71499">
        <ele>197</ele>
        <time>2018-01-23T10:01:29Z</time>
      </trkpt>
      <trkpt lat="45.98209" lon="4.71502">
        <ele>196</ele>
        <time>2018-01-23T10:01:30Z</time>
      </trkpt>
      <trkpt lat="45.98214" lon="4.71504">
        <ele>196</ele>
        <time>2018-01-23T10:01:31Z</time>
      </trkpt>
      <trkpt lat="45.9822" lon="4.71509">
        <ele>196</ele>
        <time>2018-01-23T10:01:32Z</time>
      </trkpt>
      <trkpt lat="45.98225" lon="4.71512">
        <ele>196</ele>
        <time>2018-01-23T10:01:33Z</time>
      </trkpt>
      <trkpt lat="45.9823" lon="4.71514">
        <ele>196</ele>
        <time>2018-01-23T10:01:34Z</time>
      </trkpt>
      <trkpt lat="45.98234" lon="4.71517">
        <ele>196</ele>
        <time>2018-01-23T10:01:35Z</time>
      </trkpt>
      <trkpt lat="45.9824" lon="4.7152">
        <ele>196</ele>
        <time>2018-01-23T10:01:36Z</time>
      </trkpt>
      <trkpt lat="45.98246" lon="4.71523">
        <ele>196</ele>
        <time>2018-01-23T10:01:37Z</time>
      </trkpt>
      <trkpt lat="45.98251" lon="4.71526">
        <ele>197</ele>
        <time>2018-01-23T10:01:38Z</time>
      </trkpt>
      <trkpt lat="45.98255" lon="4.7153">
        <ele>197</ele>
        <time>2018-01-23T10:01:39Z</time>
      </trkpt>
      <trkpt lat="45.9826" lon="4.71533">
        <ele>197</ele>
        <time>2018-01-23T10:01:40Z</time>
      </trkpt>
      <trkpt lat="45.98265" lon="4.71536">
        <ele>197</ele>
        <time>2018-01-23T10:01:41Z</time>
      </trkpt>
      <trkpt lat="45.98272" lon="4.71539">
        <ele>197</ele>
        <time>2018-01-23T10:01:42Z</time>
      </trkpt>
      <trkpt lat="45.98277" lon="4.71543">
        <ele>198</ele>
        <time>2018-01-23T10:01:43Z</time>
      </trkpt>
      <trkpt lat="45.98283" lon="4.71548">
        <ele>198</ele>
        <time>2018-01-23T10:01:44Z</time>
      </trkpt>
      <trkpt lat="45.98288" lon="4.71551">
        <ele>198</ele>
        <time>2018-01-23T10:01:45Z</time>
      </trkpt>
      <trkpt lat="45.98292" lon="4.71554">
        <ele>198</ele>
        <time>2018-01-23T10:01:46Z</time>
      </trkpt>
      <trkpt lat="45.98297" lon="4.7156">
        <ele>198</ele>
        <time>2018-01-23T10:01:47Z</time>
      </trkpt>
      <trkpt lat="45.98302" lon="4.71563">
        <ele>198</ele>
        <time>2018-01-23T10:01:48Z</time>
      </trkpt>
      <trkpt lat="45.98307" lon="4.71565">
        <ele>198</ele>
        <time>2018-01-23T10:01:49Z</time>
      </trkpt>
      <trkpt lat="45.98312" lon="4.71568">
        <ele>198</ele>
        <time>2018-01-23T10:01:50Z</time>
      </trkpt>
      <trkpt lat="45.98316" lon="4.7157">
        <ele>198</ele>
        <time>2018-01-23T10:01:51Z</time>
      </trkpt>
      <trkpt lat="45.98321" lon="4.71572">
        <ele>198</ele>
        <time>2018-01-23T10:01:52Z</time>
      </trkpt>
      <trkpt lat="45.98325" lon="4.71575">
        <ele>199</ele>
        <time>2018-01-23T10:01:53Z</time>
      </trkpt>
      <trkpt lat="45.98329" lon="4.71577">
        <ele>199</ele>
        <time>2018-01-23T10:01:54Z</time>
      </trkpt>
      <trkpt lat="45.98334" lon="4.71581">
        <ele>199</ele>
        <time>2018-01-23T10:01:55Z</time>
      </trkpt>
      <trkpt lat="45.98338" lon="4.71585">
        <ele>199</ele>
        <time>2018-01-23T10:01:56Z</time>
      </trkpt>
      <trkpt lat="45.98343" lon="4.71587">
        <ele>199</ele>
        <time>2018-01-23T10:01:57Z</time>
      </trkpt>
      <trkpt lat="45.98349" lon="4.7159">
        <ele>198</ele>
        <time>2018-01-23T10:01:58Z</time>
      </trkpt>
      <trkpt lat="45.98353" lon="4.71594">
        <ele>198</ele>
        <time>2018-01-23T10:01:59Z</time>
      </trkpt>
      <trkpt lat="45.98359" lon="4.71596">
        <ele>198</ele>
        <time>2018-01-23T10:02:00Z</time>
      </trkpt>
      <trkpt lat="45.98364" lon="4.716">
        <ele>198</ele>
        <time>2018-01-23T10:02:01Z</time>
      </trkpt>
      <trkpt lat="45.9837" lon="4.71603">
        <ele>198</ele>
        <time>2018-01-23T10:02:02Z</time>
      </trkpt>
      <trkpt lat="45.98375" lon="4.71603">
        <ele>198</ele>
        <time>2018-01-23T10:02:03Z</time>
      </trkpt>
      <trkpt lat="45.98381" lon="4.71602">
        <ele>198</ele>
        <time>2018-01-23T10:02:04Z</time>
      </trkpt>
      <trkpt lat="45.98387" lon="4.716">
        <ele>198</ele>
        <time>2018-01-23T10:02:05Z</time>
      </trkpt>
      <trkpt lat="45.98392" lon="4.71596">
        <ele>198</ele>
        <time>2018-01-23T10:02:06Z</time>
      </trkpt>
      <trkpt lat="45.98396" lon="4.71592">
        <ele>198</ele>
        <time>2018-01-23T10:02:07Z</time>
      </trkpt>
      <trkpt lat="45.984" lon="4.71587">
        <ele>197</ele>
        <time>2018-01-23T10:02:08Z</time>
      </trkpt>
      <trkpt lat="45.98404" lon="4.71582">
        <ele>198</ele>
        <time>2018-01-23T10:02:09Z</time>
      </trkpt>
      <trkpt lat="45.98407" lon="4.71578">
        <ele>198</ele>
        <time>2018-01-23T10:02:10Z</time>
      </trkpt>
      <trkpt lat="45.98411" lon="4.71574">
        <ele>198</ele>
        <time>2018-01-23T10:02:11Z</time>
      </trkpt>
      <trkpt lat="45.98415" lon="4.7157">
        <ele>198</ele>
        <time>2018-01-23T10:02:12Z</time>
      </trkpt>
      <trkpt lat="45.98419" lon="4.71567">
        <ele>197</ele>
        <time>2018-01-23T10:02:13Z</time>
      </trkpt>
      <trkpt lat="45.98422" lon="4.71562">
        <ele>197</ele>
        <time>2018-01-23T10:02:14Z</time>
      </trkpt>
      <trkpt lat="45.98426" lon="4.71556">
        <ele>197</ele>
        <time>2018-01-23T10:02:15Z</time>
      </trkpt>
      <trkpt lat="45.9843" lon="4.71552">
        <ele>197</ele>
        <time>2018-01-23T10:02:16Z</time>
      </trkpt>
      <trkpt lat="45.98434" lon="4.71548">
        <ele>197</ele>
        <time>2018-01-23T10:02:17Z</time>
      </trkpt>
      <trkpt lat="45.98439" lon="4.71546">
        <ele>197</ele>
        <time>2018-01-23T10:02:18Z</time>
      </trkpt>
      <trkpt lat="45.98445" lon="4.71544">
        <ele>197</ele>
        <time>2018-01-23T10:02:19Z</time>
      </trkpt>
      <trkpt lat="45.98451" lon="4.71543">
        <ele>197</ele>
        <time>2018-01-23T10:02:20Z</time>
      </trkpt>
      <trkpt lat="45.98457" lon="4.71539">
        <ele>197</ele>
        <time>2018-01-23T10:02:21Z</time>
      </trkpt>
      <trkpt lat="45.98463" lon="4.71537">
        <ele>197</ele>
        <time>2018-01-23T10:02:22Z</time>
      </trkpt>
      <trkpt lat="45.98469" lon="4.71536">
        <ele>197</ele>
        <time>2018-01-23T10:02:23Z</time>
      </trkpt>
      <trkpt lat="45.98476" lon="4.71534">
        <ele>196</ele>
        <time>2018-01-23T10:02:24Z</time>
      </trkpt>
      <trkpt lat="45.98482" lon="4.71532">
        <ele>196</ele>
        <time>2018-01-23T10:02:25Z</time>
      </trkpt>
      <trkpt lat="45.98489" lon="4.7153">
        <ele>196</ele>
        <time>2018-01-23T10:02:26Z</time>
      </trkpt>
      <trkpt lat="45.98496" lon="4.71528">
        <ele>196</ele>
        <time>2018-01-23T10:02:27Z</time>
      </trkpt>
      <trkpt lat="45.98501" lon="4.71525">
        <ele>195</ele>
        <time>2018-01-23T10:02:28Z</time>
      </trkpt>
      <trkpt lat="45.98507" lon="4.71524">
        <ele>195</ele>
        <time>2018-01-23T10:02:29Z</time>
      </trkpt>
      <trkpt lat="45.98513" lon="4.71522">
        <ele>195</ele>
        <time>2018-01-23T10:02:30Z</time>
      </trkpt>
      <trkpt lat="45.9852" lon="4.71521">
        <ele>194</ele>
        <time>2018-01-23T10:02:31Z</time>
      </trkpt>
      <trkpt lat="45.98526" lon="4.71519">
        <ele>194</ele>
        <time>2018-01-23T10:02:32Z</time>
      </trkpt>
      <trkpt lat="45.98533" lon="4.71518">
        <ele>194</ele>
        <time>2018-01-23T10:02:33Z</time>
      </trkpt>
      <trkpt lat="45.9854" lon="4.71515">
        <ele>194</ele>
        <time>2018-01-23T10:02:34Z</time>
      </trkpt>
      <trkpt lat="45.98547" lon="4.71514">
        <ele>194</ele>
        <time>2018-01-23T10:02:35Z</time>
      </trkpt>
      <trkpt lat="45.98553" lon="4.71512">
        <ele>194</ele>
        <time>2018-01-23T10:02:36Z</time>
      </trkpt>
      <trkpt lat="45.9856" lon="4.7151">
        <ele>193</ele>
        <time>2018-01-23T10:02:37Z</time>
      </trkpt>
      <trkpt lat="45.98567" lon="4.71509">
        <ele>193</ele>
        <time>2018-01-23T10:02:38Z</time>
      </trkpt>
      <trkpt lat="45.98573" lon="4.71509">
        <ele>193</ele>
        <time>2018-01-23T10:02:39Z</time>
      </trkpt>
      <trkpt lat="45.9858" lon="4.71509">
        <ele>193</ele>
        <time>2018-01-23T10:02:40Z</time>
      </trkpt>
      <trkpt lat="45.98586" lon="4.7151">
        <ele>192</ele>
        <time>2018-01-23T10:02:41Z</time>
      </trkpt>
      <trkpt lat="45.98592" lon="4.71508">
        <ele>192</ele>
        <time>2018-01-23T10:02:42Z</time>
      </trkpt>
      <trkpt lat="45.98599" lon="4.71505">
        <ele>192</ele>
        <time>2018-01-23T10:02:43Z</time>
      </trkpt>
      <trkpt lat="45.98606" lon="4.71504">
        <ele>191</ele>
        <time>2018-01-23T10:02:44Z</time>
      </trkpt>
      <trkpt lat="45.98613" lon="4.71505">
        <ele>191</ele>
        <time>2018-01-23T10:02:45Z</time>
      </trkpt>
      <trkpt lat="45.9862" lon="4.71504">
        <ele>191</ele>
        <time>2018-01-23T10:02:46Z</time>
      </trkpt>
      <trkpt lat="45.98627" lon="4.71503">
        <ele>191</ele>
        <time>2018-01-23T10:02:47Z</time>
      </trkpt>
      <trkpt lat="45.98633" lon="4.71501">
        <ele>191</ele>
        <time>2018-01-23T10:02:48Z</time>
      </trkpt>
      <trkpt lat="45.98639" lon="4.71499">
        <ele>190</ele>
        <time>2018-01-23T10:02:49Z</time>
      </trkpt>
      <trkpt lat="45.98645" lon="4.71497">
        <ele>190</ele>
        <time>2018-01-23T10:02:50Z</time>
      </trkpt>
      <trkpt lat="45.9865" lon="4.71496">
        <ele>190</ele>
        <time>2018-01-23T10:02:51Z</time>
      </trkpt>
      <trkpt lat="45.98655" lon="4.71495">
        <ele>190</ele>
        <time>2018-01-23T10:02:52Z</time>
      </trkpt>
      <trkpt lat="45.9866" lon="4.71496">
        <ele>189</ele>
        <time>2018-01-23T10:02:53Z</time>
      </trkpt>
      <trkpt lat="45.98667" lon="4.71494">
        <ele>188</ele>
        <time>2018-01-23T10:02:56Z</time>
      </trkpt>
      <trkpt lat="45.98671" lon="4.71494">
        <ele>188</ele>
        <time>2018-01-23T10:02:57Z</time>
      </trkpt>
      <trkpt lat="45.98678" lon="4.71496">
        <ele>188</ele>
        <time>2018-01-23T10:02:59Z</time>
      </trkpt>
      <trkpt lat="45.98683" lon="4.71497">
        <ele>188</ele>
        <time>2018-01-23T10:03:00Z</time>
      </trkpt>
      <trkpt lat="45.98688" lon="4.71497">
        <ele>187</ele>
        <time>2018-01-23T10:03:01Z</time>
      </trkpt>
      <trkpt lat="45.98693" lon="4.71497">
        <ele>187</ele>
        <time>2018-01-23T10:03:02Z</time>
      </trkpt>
      <trkpt lat="45.98699" lon="4.71499">
        <ele>187</ele>
        <time>2018-01-23T10:03:03Z</time>
      </trkpt>
      <trkpt lat="45.98705" lon="4.71501">
        <ele>187</ele>
        <time>2018-01-23T10:03:04Z</time>
      </trkpt>
      <trkpt lat="45.9871" lon="4.71503">
        <ele>187</ele>
        <time>2018-01-23T10:03:05Z</time>
      </trkpt>
      <trkpt lat="45.98716" lon="4.71504">
        <ele>187</ele>
        <time>2018-01-23T10:03:06Z</time>
      </trkpt>
      <trkpt lat="45.98722" lon="4.71503">
        <ele>186</ele>
        <time>2018-01-23T10:03:07Z</time>
      </trkpt>
      <trkpt lat="45.98728" lon="4.71503">
        <ele>186</ele>
        <time>2018-01-23T10:03:08Z</time>
      </trkpt>
      <trkpt lat="45.98733" lon="4.71503">
        <ele>186</ele>
        <time>2018-01-23T10:03:09Z</time>
      </trkpt>
      <trkpt lat="45.9874" lon="4.71502">
        <ele>185</ele>
        <time>2018-01-23T10:03:10Z</time>
      </trkpt>
      <trkpt lat="45.98746" lon="4.71503">
        <ele>185</ele>
        <time>2018-01-23T10:03:11Z</time>
      </trkpt>
      <trkpt lat="45.98753" lon="4.71503">
        <ele>184</ele>
        <time>2018-01-23T10:03:12Z</time>
      </trkpt>
      <trkpt lat="45.98759" lon="4.71504">
        <ele>184</ele>
        <time>2018-01-23T10:03:13Z</time>
      </trkpt>
      <trkpt lat="45.98765" lon="4.71504">
        <ele>184</ele>
        <time>2018-01-23T10:03:14Z</time>
      </trkpt>
      <trkpt lat="45.98772" lon="4.71504">
        <ele>184</ele>
        <time>2018-01-23T10:03:15Z</time>
      </trkpt>
      <trkpt lat="45.9878" lon="4.71506">
        <ele>184</ele>
        <time>2018-01-23T10:03:16Z</time>
      </trkpt>
      <trkpt lat="45.98787" lon="4.71507">
        <ele>184</ele>
        <time>2018-01-23T10:03:17Z</time>
      </trkpt>
      <trkpt lat="45.98793" lon="4.71506">
        <ele>184</ele>
        <time>2018-01-23T10:03:18Z</time>
      </trkpt>
      <trkpt lat="45.98799" lon="4.71507">
        <ele>184</ele>
        <time>2018-01-23T10:03:19Z</time>
      </trkpt>
      <trkpt lat="45.98805" lon="4.71507">
        <ele>184</ele>
        <time>2018-01-23T10:03:20Z</time>
      </trkpt>
      <trkpt lat="45.98811" lon="4.71508">
        <ele>184</ele>
        <time>2018-01-23T10:03:21Z</time>
      </trkpt>
      <trkpt lat="45.98816" lon="4.71508">
        <ele>184</ele>
        <time>2018-01-23T10:03:22Z</time>
      </trkpt>
      <trkpt lat="45.98821" lon="4.71509">
        <ele>184</ele>
        <time>2018-01-23T10:03:23Z</time>
      </trkpt>
      <trkpt lat="45.98826" lon="4.71509">
        <ele>184</ele>
        <time>2018-01-23T10:03:24Z</time>
      </trkpt>
      <trkpt lat="45.98831" lon="4.71508">
        <ele>184</ele>
        <time>2018-01-23T10:03:25Z</time>
      </trkpt>
      <trkpt lat="45.98836" lon="4.71508">
        <ele>184</ele>
        <time>2018-01-23T10:03:26Z</time>
      </trkpt>
      <trkpt lat="45.98842" lon="4.71508">
        <ele>184</ele>
        <time>2018-01-23T10:03:27Z</time>
      </trkpt>
      <trkpt lat="45.98847" lon="4.71508">
        <ele>184</ele>
        <time>2018-01-23T10:03:28Z</time>
      </trkpt>
      <trkpt lat="45.98852" lon="4.71508">
        <ele>185</ele>
        <time>2018-01-23T10:03:29Z</time>
      </trkpt>
      <trkpt lat="45.98857" lon="4.71509">
        <ele>185</ele>
        <time>2018-01-23T10:03:30Z</time>
      </trkpt>
      <trkpt lat="45.98863" lon="4.71508">
        <ele>185</ele>
        <time>2018-01-23T10:03:31Z</time>
      </trkpt>
      <trkpt lat="45.98868" lon="4.71508">
        <ele>185</ele>
        <time>2018-01-23T10:03:32Z</time>
      </trkpt>
      <trkpt lat="45.98874" lon="4.71508">
        <ele>185</ele>
        <time>2018-01-23T10:03:33Z</time>
      </trkpt>
      <trkpt lat="45.98879" lon="4.71507">
        <ele>185</ele>
        <time>2018-01-23T10:03:34Z</time>
      </trkpt>
      <trkpt lat="45.98883" lon="4.7151">
        <ele>185</ele>
        <time>2018-01-23T10:03:35Z</time>
      </trkpt>
      <trkpt lat="45.98888" lon="4.71511">
        <ele>185</ele>
        <time>2018-01-23T10:03:36Z</time>
      </trkpt>
      <trkpt lat="45.98895" lon="4.71513">
        <ele>185</ele>
        <time>2018-01-23T10:03:37Z</time>
      </trkpt>
      <trkpt lat="45.989" lon="4.71514">
        <ele>185</ele>
        <time>2018-01-23T10:03:38Z</time>
      </trkpt>
      <trkpt lat="45.98904" lon="4.71515">
        <ele>185</ele>
        <time>2018-01-23T10:03:39Z</time>
      </trkpt>
      <trkpt lat="45.98909" lon="4.71515">
        <ele>185</ele>
        <time>2018-01-23T10:03:40Z</time>
      </trkpt>
      <trkpt lat="45.98914" lon="4.71515">
        <ele>185</ele>
        <time>2018-01-23T10:03:41Z</time>
      </trkpt>
      <trkpt lat="45.98919" lon="4.71515">
        <ele>185</ele>
        <time>2018-01-23T10:03:42Z</time>
      </trkpt>
      <trkpt lat="45.98922" lon="4.71516">
        <ele>186</ele>
        <time>2018-01-23T10:03:43Z</time>
      </trkpt>
      <trkpt lat="45.98928" lon="4.71517">
        <ele>186</ele>
        <time>2018-01-23T10:03:44Z</time>
      </trkpt>
      <trkpt lat="45.98936" lon="4.71519">
        <ele>186</ele>
        <time>2018-01-23T10:03:46Z</time>
      </trkpt>
      <trkpt lat="45.98938" lon="4.71521">
        <ele>186</ele>
        <time>2018-01-23T10:03:47Z</time>
      </trkpt>
      <trkpt lat="45.98939" lon="4.71521">
        <ele>186</ele>
        <time>2018-01-23T10:03:48Z</time>
      </trkpt>
      <trkpt lat="45.9894" lon="4.7152">
        <ele>186</ele>
        <time>2018-01-23T10:03:49Z</time>
      </trkpt>
      <trkpt lat="45.98938" lon="4.71518">
        <ele>186</ele>
        <time>2018-01-23T10:04:31Z</time>
      </trkpt>
      <trkpt lat="45.98939" lon="4.71519">
        <ele>186</ele>
        <time>2018-01-23T10:04:32Z</time>
      </trkpt>
      <trkpt lat="45.98947" lon="4.71522">
        <ele>186</ele>
        <time>2018-01-23T10:04:36Z</time>
      </trkpt>
      <trkpt lat="45.98949" lon="4.71522">
        <ele>186</ele>
        <time>2018-01-23T10:04:37Z</time>
      </trkpt>
      <trkpt lat="45.98956" lon="4.71523">
        <ele>186</ele>
        <time>2018-01-23T10:04:39Z</time>
      </trkpt>
      <trkpt lat="45.98959" lon="4.71523">
        <ele>186</ele>
        <time>2018-01-23T10:04:40Z</time>
      </trkpt>
      <trkpt lat="45.98967" lon="4.71522">
        <ele>186</ele>
        <time>2018-01-23T10:04:42Z</time>
      </trkpt>
      <trkpt lat="45.98971" lon="4.71521">
        <ele>186</ele>
        <time>2018-01-23T10:04:43Z</time>
      </trkpt>
      <trkpt lat="45.98979" lon="4.7152">
        <ele>186</ele>
        <time>2018-01-23T10:04:45Z</time>
      </trkpt>
      <trkpt lat="45.98983" lon="4.7152">
        <ele>186</ele>
        <time>2018-01-23T10:04:46Z</time>
      </trkpt>
      <trkpt lat="45.98991" lon="4.71518">
        <ele>186</ele>
        <time>2018-01-23T10:04:48Z</time>
      </trkpt>
      <trkpt lat="45.98995" lon="4.71517">
        <ele>186</ele>
        <time>2018-01-23T10:04:49Z</time>
      </trkpt>
      <trkpt lat="45.99001" lon="4.71517">
        <ele>188</ele>
        <time>2018-01-23T10:04:51Z</time>
      </trkpt>
      <trkpt lat="45.99005" lon="4.71516">
        <ele>188</ele>
        <time>2018-01-23T10:04:52Z</time>
      </trkpt>
      <trkpt lat="45.99013" lon="4.71517">
        <ele>188</ele>
        <time>2018-01-23T10:04:54Z</time>
      </trkpt>
      <trkpt lat="45.99017" lon="4.71517">
        <ele>188</ele>
        <time>2018-01-23T10:04:55Z</time>
      </trkpt>
      <trkpt lat="45.99024" lon="4.71517">
        <ele>188</ele>
        <time>2018-01-23T10:04:57Z</time>
      </trkpt>
      <trkpt lat="45.99027" lon="4.71517">
        <ele>188</ele>
        <time>2018-01-23T10:04:58Z</time>
      </trkpt>
      <trkpt lat="45.99035" lon="4.71517">
        <ele>188</ele>
        <time>2018-01-23T10:05:00Z</time>
      </trkpt>
      <trkpt lat="45.99038" lon="4.71517">
        <ele>188</ele>
        <time>2018-01-23T10:05:01Z</time>
      </trkpt>
      <trkpt lat="45.99045" lon="4.71518">
        <ele>189</ele>
        <time>2018-01-23T10:05:03Z</time>
      </trkpt>
      <trkpt lat="45.99049" lon="4.71518">
        <ele>189</ele>
        <time>2018-01-23T10:05:04Z</time>
      </trkpt>
      <trkpt lat="45.99055" lon="4.71517">
        <ele>189</ele>
        <time>2018-01-23T10:05:06Z</time>
      </trkpt>
      <trkpt lat="45.99058" lon="4.71517">
        <ele>189</ele>
        <time>2018-01-23T10:05:07Z</time>
      </trkpt>
      <trkpt lat="45.99064" lon="4.71516">
        <ele>189</ele>
        <time>2018-01-23T10:05:09Z</time>
      </trkpt>
      <trkpt lat="45.99067" lon="4.71515">
        <ele>189</ele>
        <time>2018-01-23T10:05:10Z</time>
      </trkpt>
      <trkpt lat="45.99074" lon="4.71514">
        <ele>189</ele>
        <time>2018-01-23T10:05:12Z</time>
      </trkpt>
      <trkpt lat="45.99077" lon="4.71513">
        <ele>189</ele>
        <time>2018-01-23T10:05:13Z</time>
      </trkpt>
      <trkpt lat="45.99084" lon="4.71513">
        <ele>191</ele>
        <time>2018-01-23T10:05:15Z</time>
      </trkpt>
      <trkpt lat="45.99087" lon="4.71513">
        <ele>191</ele>
        <time>2018-01-23T10:05:16Z</time>
      </trkpt>
      <trkpt lat="45.99095" lon="4.71513">
        <ele>191</ele>
        <time>2018-01-23T10:05:18Z</time>
      </trkpt>
      <trkpt lat="45.99098" lon="4.71513">
        <ele>191</ele>
        <time>2018-01-23T10:05:19Z</time>
      </trkpt>
      <trkpt lat="45.99105" lon="4.71514">
        <ele>191</ele>
        <time>2018-01-23T10:05:21Z</time>
      </trkpt>
      <trkpt lat="45.99109" lon="4.71513">
        <ele>191</ele>
        <time>2018-01-23T10:05:22Z</time>
      </trkpt>
      <trkpt lat="45.99116" lon="4.71513">
        <ele>191</ele>
        <time>2018-01-23T10:05:24Z</time>
      </trkpt>
      <trkpt lat="45.99119" lon="4.71513">
        <ele>192</ele>
        <time>2018-01-23T10:05:25Z</time>
      </trkpt>
      <trkpt lat="45.99126" lon="4.71514">
        <ele>192</ele>
        <time>2018-01-23T10:05:27Z</time>
      </trkpt>
      <trkpt lat="45.99129" lon="4.71514">
        <ele>192</ele>
        <time>2018-01-23T10:05:28Z</time>
      </trkpt>
      <trkpt lat="45.99136" lon="4.71515">
        <ele>192</ele>
        <time>2018-01-23T10:05:30Z</time>
      </trkpt>
      <trkpt lat="45.99139" lon="4.71515">
        <ele>192</ele>
        <time>2018-01-23T10:05:31Z</time>
      </trkpt>
      <trkpt lat="45.99145" lon="4.71516">
        <ele>192</ele>
        <time>2018-01-23T10:05:33Z</time>
      </trkpt>
      <trkpt lat="45.99149" lon="4.71516">
        <ele>192</ele>
        <time>2018-01-23T10:05:34Z</time>
      </trkpt>
      <trkpt lat="45.99156" lon="4.71515">
        <ele>192</ele>
        <time>2018-01-23T10:05:36Z</time>
      </trkpt>
      <trkpt lat="45.9916" lon="4.71515">
        <ele>192</ele>
        <time>2018-01-23T10:05:37Z</time>
      </trkpt>
      <trkpt lat="45.99167" lon="4.71514">
        <ele>194</ele>
        <time>2018-01-23T10:05:39Z</time>
      </trkpt>
      <trkpt lat="45.99171" lon="4.71514">
        <ele>194</ele>
        <time>2018-01-23T10:05:40Z</time>
      </trkpt>
      <trkpt lat="45.99179" lon="4.71513">
        <ele>194</ele>
        <time>2018-01-23T10:05:42Z</time>
      </trkpt>
      <trkpt lat="45.99183" lon="4.71512">
        <ele>194</ele>
        <time>2018-01-23T10:05:43Z</time>
      </trkpt>
      <trkpt lat="45.99192" lon="4.71512">
        <ele>194</ele>
        <time>2018-01-23T10:05:45Z</time>
      </trkpt>
      <trkpt lat="45.99196" lon="4.71511">
        <ele>195</ele>
        <time>2018-01-23T10:05:46Z</time>
      </trkpt>
      <trkpt lat="45.99201" lon="4.71511">
        <ele>195</ele>
        <time>2018-01-23T10:05:47Z</time>
      </trkpt>
      <trkpt lat="45.99205" lon="4.71511">
        <ele>195</ele>
        <time>2018-01-23T10:05:48Z</time>
      </trkpt>
      <trkpt lat="45.99214" lon="4.71511">
        <ele>195</ele>
        <time>2018-01-23T10:05:50Z</time>
      </trkpt>
      <trkpt lat="45.99218" lon="4.71511">
        <ele>195</ele>
        <time>2018-01-23T10:05:51Z</time>
      </trkpt>
      <trkpt lat="45.99226" lon="4.71511">
        <ele>195</ele>
        <time>2018-01-23T10:05:53Z</time>
      </trkpt>
      <trkpt lat="45.9923" lon="4.71511">
        <ele>196</ele>
        <time>2018-01-23T10:05:54Z</time>
      </trkpt>
      <trkpt lat="45.99238" lon="4.71511">
        <ele>196</ele>
        <time>2018-01-23T10:05:56Z</time>
      </trkpt>
      <trkpt lat="45.99241" lon="4.71511">
        <ele>196</ele>
        <time>2018-01-23T10:05:57Z</time>
      </trkpt>
      <trkpt lat="45.99249" lon="4.71511">
        <ele>196</ele>
        <time>2018-01-23T10:06:00Z</time>
      </trkpt>
      <trkpt lat="45.99252" lon="4.71511">
        <ele>197</ele>
        <time>2018-01-23T10:06:01Z</time>
      </trkpt>
      <trkpt lat="45.99259" lon="4.71512">
        <ele>197</ele>
        <time>2018-01-23T10:06:04Z</time>
      </trkpt>
      <trkpt lat="45.99261" lon="4.71512">
        <ele>198</ele>
        <time>2018-01-23T10:06:05Z</time>
      </trkpt>
      <trkpt lat="45.99269" lon="4.71514">
        <ele>198</ele>
        <time>2018-01-23T10:06:38Z</time>
      </trkpt>
      <trkpt lat="45.99271" lon="4.71515">
        <ele>198</ele>
        <time>2018-01-23T10:06:39Z</time>
      </trkpt>
      <trkpt lat="45.99279" lon="4.71515">
        <ele>198</ele>
        <time>2018-01-23T10:06:43Z</time>
      </trkpt>
      <trkpt lat="45.99281" lon="4.71515">
        <ele>199</ele>
        <time>2018-01-23T10:06:44Z</time>
      </trkpt>
      <trkpt lat="45.99287" lon="4.71515">
        <ele>199</ele>
        <time>2018-01-23T10:06:46Z</time>
      </trkpt>
      <trkpt lat="45.99291" lon="4.71514">
        <ele>199</ele>
        <time>2018-01-23T10:06:47Z</time>
      </trkpt>
      <trkpt lat="45.99298" lon="4.71513">
        <ele>199</ele>
        <time>2018-01-23T10:06:49Z</time>
      </trkpt>
      <trkpt lat="45.99302" lon="4.71513">
        <ele>199</ele>
        <time>2018-01-23T10:06:50Z</time>
      </trkpt>
      <trkpt lat="45.99311" lon="4.71513">
        <ele>199</ele>
        <time>2018-01-23T10:06:52Z</time>
      </trkpt>
      <trkpt lat="45.99315" lon="4.71513">
        <ele>199</ele>
        <time>2018-01-23T10:06:53Z</time>
      </trkpt>
      <trkpt lat="45.99324" lon="4.71513">
        <ele>200</ele>
        <time>2018-01-23T10:06:55Z</time>
      </trkpt>
      <trkpt lat="45.99328" lon="4.71513">
        <ele>200</ele>
        <time>2018-01-23T10:06:56Z</time>
      </trkpt>
      <trkpt lat="45.99333" lon="4.71511">
        <ele>200</ele>
        <time>2018-01-23T10:06:57Z</time>
      </trkpt>
      <trkpt lat="45.99338" lon="4.71511">
        <ele>200</ele>
        <time>2018-01-23T10:06:58Z</time>
      </trkpt>
      <trkpt lat="45.99343" lon="4.71512">
        <ele>200</ele>
        <time>2018-01-23T10:06:59Z</time>
      </trkpt>
      <trkpt lat="45.99348" lon="4.71512">
        <ele>200</ele>
        <time>2018-01-23T10:07:00Z</time>
      </trkpt>
      <trkpt lat="45.99356" lon="4.71512">
        <ele>200</ele>
        <time>2018-01-23T10:07:02Z</time>
      </trkpt>
      <trkpt lat="45.99361" lon="4.71512">
        <ele>200</ele>
        <time>2018-01-23T10:07:03Z</time>
      </trkpt>
      <trkpt lat="45.99369" lon="4.71512">
        <ele>200</ele>
        <time>2018-01-23T10:07:05Z</time>
      </trkpt>
      <trkpt lat="45.99373" lon="4.71512">
        <ele>200</ele>
        <time>2018-01-23T10:07:06Z</time>
      </trkpt>
      <trkpt lat="45.99377" lon="4.71511">
        <ele>200</ele>
        <time>2018-01-23T10:07:07Z</time>
      </trkpt>
      <trkpt lat="45.99382" lon="4.71511">
        <ele>200</ele>
        <time>2018-01-23T10:07:08Z</time>
      </trkpt>
      <trkpt lat="45.9939" lon="4.71511">
        <ele>200</ele>
        <time>2018-01-23T10:07:10Z</time>
      </trkpt>
      <trkpt lat="45.99394" lon="4.71511">
        <ele>200</ele>
        <time>2018-01-23T10:07:11Z</time>
      </trkpt>
      <trkpt lat="45.99399" lon="4.7151">
        <ele>200</ele>
        <time>2018-01-23T10:07:12Z</time>
      </trkpt>
      <trkpt lat="45.99404" lon="4.7151">
        <ele>200</ele>
        <time>2018-01-23T10:07:13Z</time>
      </trkpt>
      <trkpt lat="45.99409" lon="4.7151">
        <ele>199</ele>
        <time>2018-01-23T10:07:14Z</time>
      </trkpt>
      <trkpt lat="45.99413" lon="4.7151">
        <ele>199</ele>
        <time>2018-01-23T10:07:15Z</time>
      </trkpt>
      <trkpt lat="45.99418" lon="4.71511">
        <ele>199</ele>
        <time>2018-01-23T10:07:16Z</time>
      </trkpt>
      <trkpt lat="45.99422" lon="4.7151">
        <ele>199</ele>
        <time>2018-01-23T10:07:17Z</time>
      </trkpt>
      <trkpt lat="45.99428" lon="4.71511">
        <ele>199</ele>
        <time>2018-01-23T10:07:18Z</time>
      </trkpt>
      <trkpt lat="45.99433" lon="4.71511">
        <ele>199</ele>
        <time>2018-01-23T10:07:19Z</time>
      </trkpt>
      <trkpt lat="45.99438" lon="4.7151">
        <ele>199</ele>
        <time>2018-01-23T10:07:20Z</time>
      </trkpt>
      <trkpt lat="45.99443" lon="4.71509">
        <ele>199</ele>
        <time>2018-01-23T10:07:21Z</time>
      </trkpt>
      <trkpt lat="45.99448" lon="4.71509">
        <ele>199</ele>
        <time>2018-01-23T10:07:22Z</time>
      </trkpt>
      <trkpt lat="45.99453" lon="4.7151">
        <ele>199</ele>
        <time>2018-01-23T10:07:23Z</time>
      </trkpt>
      <trkpt lat="45.99458" lon="4.71512">
        <ele>199</ele>
        <time>2018-01-23T10:07:24Z</time>
      </trkpt>
      <trkpt lat="45.99464" lon="4.71512">
        <ele>199</ele>
        <time>2018-01-23T10:07:25Z</time>
      </trkpt>
      <trkpt lat="45.99468" lon="4.71512">
        <ele>199</ele>
        <time>2018-01-23T10:07:26Z</time>
      </trkpt>
      <trkpt lat="45.99473" lon="4.71511">
        <ele>199</ele>
        <time>2018-01-23T10:07:27Z</time>
      </trkpt>
      <trkpt lat="45.99477" lon="4.71511">
        <ele>199</ele>
        <time>2018-01-23T10:07:28Z</time>
      </trkpt>
      <trkpt lat="45.99483" lon="4.7151">
        <ele>199</ele>
        <time>2018-01-23T10:07:29Z</time>
      </trkpt>
      <trkpt lat="45.99489" lon="4.71509">
        <ele>199</ele>
        <time>2018-01-23T10:07:30Z</time>
      </trkpt>
      <trkpt lat="45.99494" lon="4.71507">
        <ele>199</ele>
        <time>2018-01-23T10:07:31Z</time>
      </trkpt>
      <trkpt lat="45.99499" lon="4.71506">
        <ele>199</ele>
        <time>2018-01-23T10:07:32Z</time>
      </trkpt>
      <trkpt lat="45.99504" lon="4.71506">
        <ele>199</ele>
        <time>2018-01-23T10:07:33Z</time>
      </trkpt>
      <trkpt lat="45.99512" lon="4.71507">
        <ele>199</ele>
        <time>2018-01-23T10:07:35Z</time>
      </trkpt>
      <trkpt lat="45.99516" lon="4.71507">
        <ele>199</ele>
        <time>2018-01-23T10:07:36Z</time>
      </trkpt>
      <trkpt lat="45.9952" lon="4.71507">
        <ele>198</ele>
        <time>2018-01-23T10:07:37Z</time>
      </trkpt>
      <trkpt lat="45.99525" lon="4.71507">
        <ele>198</ele>
        <time>2018-01-23T10:07:38Z</time>
      </trkpt>
      <trkpt lat="45.9953" lon="4.71507">
        <ele>198</ele>
        <time>2018-01-23T10:07:39Z</time>
      </trkpt>
      <trkpt lat="45.99535" lon="4.71507">
        <ele>198</ele>
        <time>2018-01-23T10:07:40Z</time>
      </trkpt>
      <trkpt lat="45.9954" lon="4.71506">
        <ele>198</ele>
        <time>2018-01-23T10:07:41Z</time>
      </trkpt>
      <trkpt lat="45.99545" lon="4.71506">
        <ele>198</ele>
        <time>2018-01-23T10:07:42Z</time>
      </trkpt>
      <trkpt lat="45.99551" lon="4.71506">
        <ele>198</ele>
        <time>2018-01-23T10:07:43Z</time>
      </trkpt>
      <trkpt lat="45.99556" lon="4.71506">
        <ele>198</ele>
        <time>2018-01-23T10:07:44Z</time>
      </trkpt>
      <trkpt lat="45.99561" lon="4.71505">
        <ele>197</ele>
        <time>2018-01-23T10:07:45Z</time>
      </trkpt>
      <trkpt lat="45.99567" lon="4.71505">
        <ele>197</ele>
        <time>2018-01-23T10:07:46Z</time>
      </trkpt>
      <trkpt lat="45.99572" lon="4.71505">
        <ele>197</ele>
        <time>2018-01-23T10:07:47Z</time>
      </trkpt>
      <trkpt lat="45.99577" lon="4.71506">
        <ele>197</ele>
        <time>2018-01-23T10:07:48Z</time>
      </trkpt>
      <trkpt lat="45.99582" lon="4.7151">
        <ele>197</ele>
        <time>2018-01-23T10:07:49Z</time>
      </trkpt>
      <trkpt lat="45.99585" lon="4.71515">
        <ele>197</ele>
        <time>2018-01-23T10:07:50Z</time>
      </trkpt>
      <trkpt lat="45.99588" lon="4.71521">
        <ele>197</ele>
        <time>2018-01-23T10:07:51Z</time>
      </trkpt>
      <trkpt lat="45.99591" lon="4.71527">
        <ele>197</ele>
        <time>2018-01-23T10:07:52Z</time>
      </trkpt>
      <trkpt lat="45.99597" lon="4.71534">
        <ele>197</ele>
        <time>2018-01-23T10:07:54Z</time>
      </trkpt>
      <trkpt lat="45.99602" lon="4.71535">
        <ele>198</ele>
        <time>2018-01-23T10:07:55Z</time>
      </trkpt>
      <trkpt lat="45.99607" lon="4.71532">
        <ele>198</ele>
        <time>2018-01-23T10:07:56Z</time>
      </trkpt>
      <trkpt lat="45.99611" lon="4.71526">
        <ele>197</ele>
        <time>2018-01-23T10:07:57Z</time>
      </trkpt>
      <trkpt lat="45.99613" lon="4.7152">
        <ele>197</ele>
        <time>2018-01-23T10:07:58Z</time>
      </trkpt>
      <trkpt lat="45.99614" lon="4.71512">
        <ele>197</ele>
        <time>2018-01-23T10:07:59Z</time>
      </trkpt>
      <trkpt lat="45.99613" lon="4.71504">
        <ele>197</ele>
        <time>2018-01-23T10:08:00Z</time>
      </trkpt>
      <trkpt lat="45.99612" lon="4.71498">
        <ele>197</ele>
        <time>2018-01-23T10:08:01Z</time>
      </trkpt>
      <trkpt lat="45.99613" lon="4.7149">
        <ele>197</ele>
        <time>2018-01-23T10:08:02Z</time>
      </trkpt>
      <trkpt lat="45.99615" lon="4.71482">
        <ele>197</ele>
        <time>2018-01-23T10:08:03Z</time>
      </trkpt>
      <trkpt lat="45.99616" lon="4.71476">
        <ele>197</ele>
        <time>2018-01-23T10:08:04Z</time>
      </trkpt>
      <trkpt lat="45.99618" lon="4.7147">
        <ele>197</ele>
        <time>2018-01-23T10:08:05Z</time>
      </trkpt>
      <trkpt lat="45.99623" lon="4.71462">
        <ele>197</ele>
        <time>2018-01-23T10:08:07Z</time>
      </trkpt>
      <trkpt lat="45.99626" lon="4.71458">
        <ele>197</ele>
        <time>2018-01-23T10:08:08Z</time>
      </trkpt>
      <trkpt lat="45.99629" lon="4.71452">
        <ele>197</ele>
        <time>2018-01-23T10:08:09Z</time>
      </trkpt>
      <trkpt lat="45.99631" lon="4.71445">
        <ele>197</ele>
        <time>2018-01-23T10:08:10Z</time>
      </trkpt>
      <trkpt lat="45.99634" lon="4.7144">
        <ele>197</ele>
        <time>2018-01-23T10:08:11Z</time>
      </trkpt>
      <trkpt lat="45.99638" lon="4.71432">
        <ele>197</ele>
        <time>2018-01-23T10:08:12Z</time>
      </trkpt>
      <trkpt lat="45.99642" lon="4.71428">
        <ele>197</ele>
        <time>2018-01-23T10:08:13Z</time>
      </trkpt>
      <trkpt lat="45.99645" lon="4.71422">
        <ele>197</ele>
        <time>2018-01-23T10:08:14Z</time>
      </trkpt>
      <trkpt lat="45.99648" lon="4.71415">
        <ele>198</ele>
        <time>2018-01-23T10:08:15Z</time>
      </trkpt>
      <trkpt lat="45.99652" lon="4.71408">
        <ele>198</ele>
        <time>2018-01-23T10:08:16Z</time>
      </trkpt>
      <trkpt lat="45.99655" lon="4.71402">
        <ele>198</ele>
        <time>2018-01-23T10:08:17Z</time>
      </trkpt>
      <trkpt lat="45.99659" lon="4.71396">
        <ele>198</ele>
        <time>2018-01-23T10:08:18Z</time>
      </trkpt>
      <trkpt lat="45.99662" lon="4.7139">
        <ele>198</ele>
        <time>2018-01-23T10:08:19Z</time>
      </trkpt>
      <trkpt lat="45.99666" lon="4.71383">
        <ele>198</ele>
        <time>2018-01-23T10:08:20Z</time>
      </trkpt>
      <trkpt lat="45.99669" lon="4.71378">
        <ele>198</ele>
        <time>2018-01-23T10:08:21Z</time>
      </trkpt>
      <trkpt lat="45.99672" lon="4.71372">
        <ele>197</ele>
        <time>2018-01-23T10:08:22Z</time>
      </trkpt>
      <trkpt lat="45.99677" lon="4.71363">
        <ele>197</ele>
        <time>2018-01-23T10:08:24Z</time>
      </trkpt>
      <trkpt lat="45.99681" lon="4.71356">
        <ele>197</ele>
        <time>2018-01-23T10:08:25Z</time>
      </trkpt>
      <trkpt lat="45.99683" lon="4.7135">
        <ele>197</ele>
        <time>2018-01-23T10:08:26Z</time>
      </trkpt>
      <trkpt lat="45.99686" lon="4.71344">
        <ele>197</ele>
        <time>2018-01-23T10:08:27Z</time>
      </trkpt>
      <trkpt lat="45.99689" lon="4.71337">
        <ele>197</ele>
        <time>2018-01-23T10:08:28Z</time>
      </trkpt>
      <trkpt lat="45.99693" lon="4.71329">
        <ele>197</ele>
        <time>2018-01-23T10:08:29Z</time>
      </trkpt>
      <trkpt lat="45.99696" lon="4.71322">
        <ele>198</ele>
        <time>2018-01-23T10:08:30Z</time>
      </trkpt>
      <trkpt lat="45.99699" lon="4.71316">
        <ele>198</ele>
        <time>2018-01-23T10:08:31Z</time>
      </trkpt>
      <trkpt lat="45.99702" lon="4.7131">
        <ele>198</ele>
        <time>2018-01-23T10:08:32Z</time>
      </trkpt>
      <trkpt lat="45.99705" lon="4.71305">
        <ele>198</ele>
        <time>2018-01-23T10:08:33Z</time>
      </trkpt>
      <trkpt lat="45.99708" lon="4.71299">
        <ele>198</ele>
        <time>2018-01-23T10:08:34Z</time>
      </trkpt>
      <trkpt lat="45.99711" lon="4.71292">
        <ele>198</ele>
        <time>2018-01-23T10:08:35Z</time>
      </trkpt>
      <trkpt lat="45.99713" lon="4.71286">
        <ele>198</ele>
        <time>2018-01-23T10:08:36Z</time>
      </trkpt>
      <trkpt lat="45.99717" lon="4.71279">
        <ele>198</ele>
        <time>2018-01-23T10:08:37Z</time>
      </trkpt>
      <trkpt lat="45.99722" lon="4.71269">
        <ele>198</ele>
        <time>2018-01-23T10:08:39Z</time>
      </trkpt>
      <trkpt lat="45.99727" lon="4.7126">
        <ele>198</ele>
        <time>2018-01-23T10:08:40Z</time>
      </trkpt>
      <trkpt lat="45.9973" lon="4.71252">
        <ele>198</ele>
        <time>2018-01-23T10:08:41Z</time>
      </trkpt>
      <trkpt lat="45.99734" lon="4.71247">
        <ele>198</ele>
        <time>2018-01-23T10:08:42Z</time>
      </trkpt>
      <trkpt lat="45.99737" lon="4.71242">
        <ele>198</ele>
        <time>2018-01-23T10:08:43Z</time>
      </trkpt>
      <trkpt lat="45.9974" lon="4.71235">
        <ele>198</ele>
        <time>2018-01-23T10:08:44Z</time>
      </trkpt>
      <trkpt lat="45.99744" lon="4.71227">
        <ele>198</ele>
        <time>2018-01-23T10:08:45Z</time>
      </trkpt>
      <trkpt lat="45.99748" lon="4.71217">
        <ele>198</ele>
        <time>2018-01-23T10:08:46Z</time>
      </trkpt>
      <trkpt lat="45.99751" lon="4.7121">
        <ele>199</ele>
        <time>2018-01-23T10:08:47Z</time>
      </trkpt>
      <trkpt lat="45.99755" lon="4.71203">
        <ele>198</ele>
        <time>2018-01-23T10:08:48Z</time>
      </trkpt>
      <trkpt lat="45.99758" lon="4.71197">
        <ele>198</ele>
        <time>2018-01-23T10:08:49Z</time>
      </trkpt>
      <trkpt lat="45.99762" lon="4.71191">
        <ele>198</ele>
        <time>2018-01-23T10:08:50Z</time>
      </trkpt>
      <trkpt lat="45.99765" lon="4.71184">
        <ele>198</ele>
        <time>2018-01-23T10:08:51Z</time>
      </trkpt>
      <trkpt lat="45.99768" lon="4.71177">
        <ele>198</ele>
        <time>2018-01-23T10:08:52Z</time>
      </trkpt>
      <trkpt lat="45.99772" lon="4.71169">
        <ele>198</ele>
        <time>2018-01-23T10:08:53Z</time>
      </trkpt>
      <trkpt lat="45.99775" lon="4.71162">
        <ele>198</ele>
        <time>2018-01-23T10:08:54Z</time>
      </trkpt>
      <trkpt lat="45.99779" lon="4.71154">
        <ele>198</ele>
        <time>2018-01-23T10:08:55Z</time>
      </trkpt>
      <trkpt lat="45.99782" lon="4.71146">
        <ele>198</ele>
        <time>2018-01-23T10:08:56Z</time>
      </trkpt>
      <trkpt lat="45.99784" lon="4.71139">
        <ele>198</ele>
        <time>2018-01-23T10:08:57Z</time>
      </trkpt>
      <trkpt lat="45.99787" lon="4.71133">
        <ele>198</ele>
        <time>2018-01-23T10:08:58Z</time>
      </trkpt>
      <trkpt lat="45.9979" lon="4.71127">
        <ele>198</ele>
        <time>2018-01-23T10:08:59Z</time>
      </trkpt>
      <trkpt lat="45.99792" lon="4.71122">
        <ele>198</ele>
        <time>2018-01-23T10:09:00Z</time>
      </trkpt>
      <trkpt lat="45.99795" lon="4.71116">
        <ele>198</ele>
        <time>2018-01-23T10:09:01Z</time>
      </trkpt>
      <trkpt lat="45.99797" lon="4.7111">
        <ele>198</ele>
        <time>2018-01-23T10:09:02Z</time>
      </trkpt>
      <trkpt lat="45.99799" lon="4.711">
        <ele>198</ele>
        <time>2018-01-23T10:09:03Z</time>
      </trkpt>
      <trkpt lat="45.99801" lon="4.71094">
        <ele>198</ele>
        <time>2018-01-23T10:09:04Z</time>
      </trkpt>
      <trkpt lat="45.99803" lon="4.71087">
        <ele>198</ele>
        <time>2018-01-23T10:09:05Z</time>
      </trkpt>
      <trkpt lat="45.99803" lon="4.71081">
        <ele>199</ele>
        <time>2018-01-23T10:09:06Z</time>
      </trkpt>
      <trkpt lat="45.99805" lon="4.71073">
        <ele>199</ele>
        <time>2018-01-23T10:09:07Z</time>
      </trkpt>
      <trkpt lat="45.99806" lon="4.71065">
        <ele>199</ele>
        <time>2018-01-23T10:09:08Z</time>
      </trkpt>
      <trkpt lat="45.99807" lon="4.71058">
        <ele>199</ele>
        <time>2018-01-23T10:09:09Z</time>
      </trkpt>
      <trkpt lat="45.99807" lon="4.71051">
        <ele>199</ele>
        <time>2018-01-23T10:09:10Z</time>
      </trkpt>
      <trkpt lat="45.99807" lon="4.71045">
        <ele>199</ele>
        <time>2018-01-23T10:09:11Z</time>
      </trkpt>
      <trkpt lat="45.99809" lon="4.71037">
        <ele>199</ele>
        <time>2018-01-23T10:09:12Z</time>
      </trkpt>
      <trkpt lat="45.9981" lon="4.71029">
        <ele>199</ele>
        <time>2018-01-23T10:09:13Z</time>
      </trkpt>
      <trkpt lat="45.99811" lon="4.7102">
        <ele>199</ele>
        <time>2018-01-23T10:09:14Z</time>
      </trkpt>
      <trkpt lat="45.99813" lon="4.71011">
        <ele>200</ele>
        <time>2018-01-23T10:09:15Z</time>
      </trkpt>
      <trkpt lat="45.99815" lon="4.71006">
        <ele>200</ele>
        <time>2018-01-23T10:09:16Z</time>
      </trkpt>
      <trkpt lat="45.99817" lon="4.70998">
        <ele>200</ele>
        <time>2018-01-23T10:09:18Z</time>
      </trkpt>
      <trkpt lat="45.99818" lon="4.70991">
        <ele>200</ele>
        <time>2018-01-23T10:09:19Z</time>
      </trkpt>
      <trkpt lat="45.9982" lon="4.70979">
        <ele>200</ele>
        <time>2018-01-23T10:09:21Z</time>
      </trkpt>
      <trkpt lat="45.99821" lon="4.70973">
        <ele>200</ele>
        <time>2018-01-23T10:09:22Z</time>
      </trkpt>
      <trkpt lat="45.99823" lon="4.70962">
        <ele>200</ele>
        <time>2018-01-23T10:09:23Z</time>
      </trkpt>
      <trkpt lat="45.99824" lon="4.70955">
        <ele>199</ele>
        <time>2018-01-23T10:09:24Z</time>
      </trkpt>
      <trkpt lat="45.99825" lon="4.70948">
        <ele>199</ele>
        <time>2018-01-23T10:09:25Z</time>
      </trkpt>
      <trkpt lat="45.99829" lon="4.70936">
        <ele>199</ele>
        <time>2018-01-23T10:09:26Z</time>
      </trkpt>
      <trkpt lat="45.99829" lon="4.70929">
        <ele>199</ele>
        <time>2018-01-23T10:09:27Z</time>
      </trkpt>
      <trkpt lat="45.99831" lon="4.70922">
        <ele>199</ele>
        <time>2018-01-23T10:09:28Z</time>
      </trkpt>
      <trkpt lat="45.99833" lon="4.7091">
        <ele>199</ele>
        <time>2018-01-23T10:09:30Z</time>
      </trkpt>
      <trkpt lat="45.99835" lon="4.70903">
        <ele>199</ele>
        <time>2018-01-23T10:09:31Z</time>
      </trkpt>
      <trkpt lat="45.99837" lon="4.70894">
        <ele>199</ele>
        <time>2018-01-23T10:09:32Z</time>
      </trkpt>
      <trkpt lat="45.99838" lon="4.70887">
        <ele>199</ele>
        <time>2018-01-23T10:09:33Z</time>
      </trkpt>
      <trkpt lat="45.9984" lon="4.7088">
        <ele>200</ele>
        <time>2018-01-23T10:09:34Z</time>
      </trkpt>
      <trkpt lat="45.99841" lon="4.70874">
        <ele>200</ele>
        <time>2018-01-23T10:09:35Z</time>
      </trkpt>
      <trkpt lat="45.99842" lon="4.70869">
        <ele>200</ele>
        <time>2018-01-23T10:09:36Z</time>
      </trkpt>
      <trkpt lat="45.99844" lon="4.70858">
        <ele>200</ele>
        <time>2018-01-23T10:09:37Z</time>
      </trkpt>
      <trkpt lat="45.99846" lon="4.7085">
        <ele>200</ele>
        <time>2018-01-23T10:09:38Z</time>
      </trkpt>
      <trkpt lat="45.99847" lon="4.70843">
        <ele>201</ele>
        <time>2018-01-23T10:09:39Z</time>
      </trkpt>
      <trkpt lat="45.99848" lon="4.70834">
        <ele>201</ele>
        <time>2018-01-23T10:09:40Z</time>
      </trkpt>
      <trkpt lat="45.99849" lon="4.70827">
        <ele>201</ele>
        <time>2018-01-23T10:09:41Z</time>
      </trkpt>
      <trkpt lat="45.99851" lon="4.70819">
        <ele>201</ele>
        <time>2018-01-23T10:09:42Z</time>
      </trkpt>
      <trkpt lat="45.99851" lon="4.70811">
        <ele>201</ele>
        <time>2018-01-23T10:09:43Z</time>
      </trkpt>
      <trkpt lat="45.99853" lon="4.70804">
        <ele>201</ele>
        <time>2018-01-23T10:09:44Z</time>
      </trkpt>
      <trkpt lat="45.99855" lon="4.70795">
        <ele>201</ele>
        <time>2018-01-23T10:09:45Z</time>
      </trkpt>
      <trkpt lat="45.99856" lon="4.70786">
        <ele>200</ele>
        <time>2018-01-23T10:09:47Z</time>
      </trkpt>
      <trkpt lat="45.99857" lon="4.70775">
        <ele>200</ele>
        <time>2018-01-23T10:09:48Z</time>
      </trkpt>
      <trkpt lat="45.99859" lon="4.70769">
        <ele>200</ele>
        <time>2018-01-23T10:09:49Z</time>
      </trkpt>
      <trkpt lat="45.99859" lon="4.70762">
        <ele>200</ele>
        <time>2018-01-23T10:09:50Z</time>
      </trkpt>
      <trkpt lat="45.99861" lon="4.70752">
        <ele>200</ele>
        <time>2018-01-23T10:09:51Z</time>
      </trkpt>
      <trkpt lat="45.99863" lon="4.70744">
        <ele>200</ele>
        <time>2018-01-23T10:09:52Z</time>
      </trkpt>
      <trkpt lat="45.99865" lon="4.70736">
        <ele>200</ele>
        <time>2018-01-23T10:09:53Z</time>
      </trkpt>
      <trkpt lat="45.99866" lon="4.70728">
        <ele>200</ele>
        <time>2018-01-23T10:09:54Z</time>
      </trkpt>
      <trkpt lat="45.99868" lon="4.70717">
        <ele>200</ele>
        <time>2018-01-23T10:09:56Z</time>
      </trkpt>
      <trkpt lat="45.99869" lon="4.7071">
        <ele>200</ele>
        <time>2018-01-23T10:09:57Z</time>
      </trkpt>
      <trkpt lat="45.99871" lon="4.70698">
        <ele>200</ele>
        <time>2018-01-23T10:09:59Z</time>
      </trkpt>
      <trkpt lat="45.99872" lon="4.70692">
        <ele>200</ele>
        <time>2018-01-23T10:10:00Z</time>
      </trkpt>
      <trkpt lat="45.99873" lon="4.70686">
        <ele>200</ele>
        <time>2018-01-23T10:10:02Z</time>
      </trkpt>
      <trkpt lat="45.99875" lon="4.70676">
        <ele>200</ele>
        <time>2018-01-23T10:10:03Z</time>
      </trkpt>
      <trkpt lat="45.99878" lon="4.70669">
        <ele>200</ele>
        <time>2018-01-23T10:10:04Z</time>
      </trkpt>
      <trkpt lat="45.9988" lon="4.70664">
        <ele>200</ele>
        <time>2018-01-23T10:10:05Z</time>
      </trkpt>
      <trkpt lat="45.99884" lon="4.7066">
        <ele>200</ele>
        <time>2018-01-23T10:10:06Z</time>
      </trkpt>
      <trkpt lat="45.9989" lon="4.70658">
        <ele>200</ele>
        <time>2018-01-23T10:10:07Z</time>
      </trkpt>
      <trkpt lat="45.99896" lon="4.70654">
        <ele>200</ele>
        <time>2018-01-23T10:10:08Z</time>
      </trkpt>
      <trkpt lat="45.99902" lon="4.70653">
        <ele>200</ele>
        <time>2018-01-23T10:10:09Z</time>
      </trkpt>
      <trkpt lat="45.99907" lon="4.7065">
        <ele>200</ele>
        <time>2018-01-23T10:10:10Z</time>
      </trkpt>
      <trkpt lat="45.99914" lon="4.70648">
        <ele>200</ele>
        <time>2018-01-23T10:10:11Z</time>
      </trkpt>
      <trkpt lat="45.9992" lon="4.70644">
        <ele>199</ele>
        <time>2018-01-23T10:10:12Z</time>
      </trkpt>
      <trkpt lat="45.99926" lon="4.70643">
        <ele>199</ele>
        <time>2018-01-23T10:10:13Z</time>
      </trkpt>
      <trkpt lat="45.99934" lon="4.70639">
        <ele>199</ele>
        <time>2018-01-23T10:10:15Z</time>
      </trkpt>
      <trkpt lat="45.9994" lon="4.70638">
        <ele>199</ele>
        <time>2018-01-23T10:10:16Z</time>
      </trkpt>
      <trkpt lat="45.99945" lon="4.70637">
        <ele>199</ele>
        <time>2018-01-23T10:10:17Z</time>
      </trkpt>
      <trkpt lat="45.9995" lon="4.70635">
        <ele>199</ele>
        <time>2018-01-23T10:10:18Z</time>
      </trkpt>
      <trkpt lat="45.99955" lon="4.70634">
        <ele>199</ele>
        <time>2018-01-23T10:10:19Z</time>
      </trkpt>
      <trkpt lat="45.99959" lon="4.70634">
        <ele>199</ele>
        <time>2018-01-23T10:10:20Z</time>
      </trkpt>
      <trkpt lat="45.99968" lon="4.70632">
        <ele>199</ele>
        <time>2018-01-23T10:10:22Z</time>
      </trkpt>
      <trkpt lat="45.99973" lon="4.70632">
        <ele>199</ele>
        <time>2018-01-23T10:10:23Z</time>
      </trkpt>
      <trkpt lat="45.99979" lon="4.7063">
        <ele>199</ele>
        <time>2018-01-23T10:10:24Z</time>
      </trkpt>
      <trkpt lat="45.99984" lon="4.70629">
        <ele>199</ele>
        <time>2018-01-23T10:10:25Z</time>
      </trkpt>
      <trkpt lat="45.99988" lon="4.70629">
        <ele>199</ele>
        <time>2018-01-23T10:10:26Z</time>
      </trkpt>
      <trkpt lat="45.99994" lon="4.70628">
        <ele>199</ele>
        <time>2018-01-23T10:10:27Z</time>
      </trkpt>
      <trkpt lat="46" lon="4.70626">
        <ele>199</ele>
        <time>2018-01-23T10:10:28Z</time>
      </trkpt>
      <trkpt lat="46.00004" lon="4.70625">
        <ele>199</ele>
        <time>2018-01-23T10:10:29Z</time>
      </trkpt>
      <trkpt lat="46.00009" lon="4.70622">
        <ele>199</ele>
        <time>2018-01-23T10:10:30Z</time>
      </trkpt>
      <trkpt lat="46.00015" lon="4.70621">
        <ele>199</ele>
        <time>2018-01-23T10:10:31Z</time>
      </trkpt>
      <trkpt lat="46.00023" lon="4.70621">
        <ele>199</ele>
        <time>2018-01-23T10:10:32Z</time>
      </trkpt>
      <trkpt lat="46.00029" lon="4.7062">
        <ele>199</ele>
        <time>2018-01-23T10:10:33Z</time>
      </trkpt>
      <trkpt lat="46.00037" lon="4.70614">
        <ele>199</ele>
        <time>2018-01-23T10:10:34Z</time>
      </trkpt>
      <trkpt lat="46.00043" lon="4.70613">
        <ele>198</ele>
        <time>2018-01-23T10:10:35Z</time>
      </trkpt>
      <trkpt lat="46.00047" lon="4.70611">
        <ele>198</ele>
        <time>2018-01-23T10:10:36Z</time>
      </trkpt>
      <trkpt lat="46.00053" lon="4.70611">
        <ele>198</ele>
        <time>2018-01-23T10:10:37Z</time>
      </trkpt>
      <trkpt lat="46.00059" lon="4.70608">
        <ele>198</ele>
        <time>2018-01-23T10:10:38Z</time>
      </trkpt>
      <trkpt lat="46.00065" lon="4.70606">
        <ele>198</ele>
        <time>2018-01-23T10:10:39Z</time>
      </trkpt>
      <trkpt lat="46.00071" lon="4.70606">
        <ele>198</ele>
        <time>2018-01-23T10:10:40Z</time>
      </trkpt>
      <trkpt lat="46.00076" lon="4.70604">
        <ele>198</ele>
        <time>2018-01-23T10:10:41Z</time>
      </trkpt>
      <trkpt lat="46.00083" lon="4.70601">
        <ele>198</ele>
        <time>2018-01-23T10:10:42Z</time>
      </trkpt>
      <trkpt lat="46.00089" lon="4.70598">
        <ele>198</ele>
        <time>2018-01-23T10:10:43Z</time>
      </trkpt>
      <trkpt lat="46.00095" lon="4.70594">
        <ele>198</ele>
        <time>2018-01-23T10:10:44Z</time>
      </trkpt>
      <trkpt lat="46.00101" lon="4.7059">
        <ele>198</ele>
        <time>2018-01-23T10:10:45Z</time>
      </trkpt>
      <trkpt lat="46.00106" lon="4.70587">
        <ele>198</ele>
        <time>2018-01-23T10:10:46Z</time>
      </trkpt>
      <trkpt lat="46.00111" lon="4.70582">
        <ele>198</ele>
        <time>2018-01-23T10:10:47Z</time>
      </trkpt>
      <trkpt lat="46.00117" lon="4.70578">
        <ele>198</ele>
        <time>2018-01-23T10:10:48Z</time>
      </trkpt>
      <trkpt lat="46.00122" lon="4.70574">
        <ele>198</ele>
        <time>2018-01-23T10:10:49Z</time>
      </trkpt>
      <trkpt lat="46.00127" lon="4.70569">
        <ele>198</ele>
        <time>2018-01-23T10:10:50Z</time>
      </trkpt>
      <trkpt lat="46.00132" lon="4.70566">
        <ele>198</ele>
        <time>2018-01-23T10:10:51Z</time>
      </trkpt>
      <trkpt lat="46.00137" lon="4.70563">
        <ele>198</ele>
        <time>2018-01-23T10:10:52Z</time>
      </trkpt>
      <trkpt lat="46.00143" lon="4.70562">
        <ele>198</ele>
        <time>2018-01-23T10:10:53Z</time>
      </trkpt>
      <trkpt lat="46.00148" lon="4.70561">
        <ele>198</ele>
        <time>2018-01-23T10:10:54Z</time>
      </trkpt>
      <trkpt lat="46.00153" lon="4.70559">
        <ele>198</ele>
        <time>2018-01-23T10:10:55Z</time>
      </trkpt>
      <trkpt lat="46.00158" lon="4.70555">
        <ele>198</ele>
        <time>2018-01-23T10:10:56Z</time>
      </trkpt>
      <trkpt lat="46.00163" lon="4.70551">
        <ele>198</ele>
        <time>2018-01-23T10:10:57Z</time>
      </trkpt>
      <trkpt lat="46.0017" lon="4.70545">
        <ele>198</ele>
        <time>2018-01-23T10:10:58Z</time>
      </trkpt>
      <trkpt lat="46.00176" lon="4.70542">
        <ele>198</ele>
        <time>2018-01-23T10:10:59Z</time>
      </trkpt>
      <trkpt lat="46.00182" lon="4.70541">
        <ele>198</ele>
        <time>2018-01-23T10:11:00Z</time>
      </trkpt>
      <trkpt lat="46.00188" lon="4.70542">
        <ele>198</ele>
        <time>2018-01-23T10:11:01Z</time>
      </trkpt>
      <trkpt lat="46.00194" lon="4.70541">
        <ele>198</ele>
        <time>2018-01-23T10:11:02Z</time>
      </trkpt>
      <trkpt lat="46.002" lon="4.70539">
        <ele>198</ele>
        <time>2018-01-23T10:11:03Z</time>
      </trkpt>
      <trkpt lat="46.00206" lon="4.70539">
        <ele>198</ele>
        <time>2018-01-23T10:11:04Z</time>
      </trkpt>
      <trkpt lat="46.00212" lon="4.70536">
        <ele>198</ele>
        <time>2018-01-23T10:11:05Z</time>
      </trkpt>
      <trkpt lat="46.00218" lon="4.70534">
        <ele>198</ele>
        <time>2018-01-23T10:11:06Z</time>
      </trkpt>
      <trkpt lat="46.00224" lon="4.70534">
        <ele>198</ele>
        <time>2018-01-23T10:11:07Z</time>
      </trkpt>
      <trkpt lat="46.0023" lon="4.70532">
        <ele>198</ele>
        <time>2018-01-23T10:11:08Z</time>
      </trkpt>
      <trkpt lat="46.00236" lon="4.70531">
        <ele>198</ele>
        <time>2018-01-23T10:11:09Z</time>
      </trkpt>
      <trkpt lat="46.00242" lon="4.70529">
        <ele>198</ele>
        <time>2018-01-23T10:11:10Z</time>
      </trkpt>
      <trkpt lat="46.00246" lon="4.70528">
        <ele>198</ele>
        <time>2018-01-23T10:11:11Z</time>
      </trkpt>
      <trkpt lat="46.00252" lon="4.70527">
        <ele>197</ele>
        <time>2018-01-23T10:11:12Z</time>
      </trkpt>
      <trkpt lat="46.00257" lon="4.70525">
        <ele>197</ele>
        <time>2018-01-23T10:11:13Z</time>
      </trkpt>
      <trkpt lat="46.00262" lon="4.70523">
        <ele>197</ele>
        <time>2018-01-23T10:11:14Z</time>
      </trkpt>
      <trkpt lat="46.00267" lon="4.70522">
        <ele>197</ele>
        <time>2018-01-23T10:11:15Z</time>
      </trkpt>
      <trkpt lat="46.00272" lon="4.70521">
        <ele>197</ele>
        <time>2018-01-23T10:11:16Z</time>
      </trkpt>
      <trkpt lat="46.00278" lon="4.7052">
        <ele>197</ele>
        <time>2018-01-23T10:11:17Z</time>
      </trkpt>
      <trkpt lat="46.00284" lon="4.7052">
        <ele>197</ele>
        <time>2018-01-23T10:11:18Z</time>
      </trkpt>
      <trkpt lat="46.00289" lon="4.70519">
        <ele>197</ele>
        <time>2018-01-23T10:11:19Z</time>
      </trkpt>
      <trkpt lat="46.00295" lon="4.70516">
        <ele>197</ele>
        <time>2018-01-23T10:11:20Z</time>
      </trkpt>
      <trkpt lat="46.00301" lon="4.70515">
        <ele>197</ele>
        <time>2018-01-23T10:11:21Z</time>
      </trkpt>
      <trkpt lat="46.00307" lon="4.70514">
        <ele>197</ele>
        <time>2018-01-23T10:11:22Z</time>
      </trkpt>
      <trkpt lat="46.00312" lon="4.70513">
        <ele>197</ele>
        <time>2018-01-23T10:11:23Z</time>
      </trkpt>
      <trkpt lat="46.00317" lon="4.70512">
        <ele>197</ele>
        <time>2018-01-23T10:11:24Z</time>
      </trkpt>
      <trkpt lat="46.00323" lon="4.70512">
        <ele>198</ele>
        <time>2018-01-23T10:11:25Z</time>
      </trkpt>
      <trkpt lat="46.00328" lon="4.70511">
        <ele>198</ele>
        <time>2018-01-23T10:11:26Z</time>
      </trkpt>
      <trkpt lat="46.00334" lon="4.70509">
        <ele>198</ele>
        <time>2018-01-23T10:11:27Z</time>
      </trkpt>
      <trkpt lat="46.00339" lon="4.70507">
        <ele>198</ele>
        <time>2018-01-23T10:11:28Z</time>
      </trkpt>
      <trkpt lat="46.00345" lon="4.70506">
        <ele>198</ele>
        <time>2018-01-23T10:11:29Z</time>
      </trkpt>
      <trkpt lat="46.0035" lon="4.70504">
        <ele>198</ele>
        <time>2018-01-23T10:11:30Z</time>
      </trkpt>
      <trkpt lat="46.00355" lon="4.70503">
        <ele>198</ele>
        <time>2018-01-23T10:11:31Z</time>
      </trkpt>
      <trkpt lat="46.00361" lon="4.70503">
        <ele>198</ele>
        <time>2018-01-23T10:11:32Z</time>
      </trkpt>
      <trkpt lat="46.00366" lon="4.70502">
        <ele>198</ele>
        <time>2018-01-23T10:11:33Z</time>
      </trkpt>
      <trkpt lat="46.00372" lon="4.70502">
        <ele>198</ele>
        <time>2018-01-23T10:11:34Z</time>
      </trkpt>
      <trkpt lat="46.00377" lon="4.705">
        <ele>198</ele>
        <time>2018-01-23T10:11:35Z</time>
      </trkpt>
      <trkpt lat="46.00382" lon="4.705">
        <ele>200</ele>
        <time>2018-01-23T10:11:36Z</time>
      </trkpt>
      <trkpt lat="46.00387" lon="4.70498">
        <ele>200</ele>
        <time>2018-01-23T10:11:37Z</time>
      </trkpt>
      <trkpt lat="46.00392" lon="4.70498">
        <ele>200</ele>
        <time>2018-01-23T10:11:38Z</time>
      </trkpt>
      <trkpt lat="46.00397" lon="4.70498">
        <ele>200</ele>
        <time>2018-01-23T10:11:39Z</time>
      </trkpt>
      <trkpt lat="46.00402" lon="4.70498">
        <ele>200</ele>
        <time>2018-01-23T10:11:40Z</time>
      </trkpt>
      <trkpt lat="46.00407" lon="4.70497">
        <ele>200</ele>
        <time>2018-01-23T10:11:41Z</time>
      </trkpt>
      <trkpt lat="46.00412" lon="4.70498">
        <ele>200</ele>
        <time>2018-01-23T10:11:42Z</time>
      </trkpt>
      <trkpt lat="46.00417" lon="4.70498">
        <ele>200</ele>
        <time>2018-01-23T10:11:43Z</time>
      </trkpt>
      <trkpt lat="46.00421" lon="4.70499">
        <ele>201</ele>
        <time>2018-01-23T10:11:44Z</time>
      </trkpt>
      <trkpt lat="46.00426" lon="4.705">
        <ele>201</ele>
        <time>2018-01-23T10:11:45Z</time>
      </trkpt>
      <trkpt lat="46.00435" lon="4.70502">
        <ele>200</ele>
        <time>2018-01-23T10:11:47Z</time>
      </trkpt>
      <trkpt lat="46.00439" lon="4.70503">
        <ele>200</ele>
        <time>2018-01-23T10:11:48Z</time>
      </trkpt>
      <trkpt lat="46.00447" lon="4.70505">
        <ele>201</ele>
        <time>2018-01-23T10:11:50Z</time>
      </trkpt>
      <trkpt lat="46.00451" lon="4.70506">
        <ele>201</ele>
        <time>2018-01-23T10:11:51Z</time>
      </trkpt>
      <trkpt lat="46.00458" lon="4.70511">
        <ele>201</ele>
        <time>2018-01-23T10:11:53Z</time>
      </trkpt>
      <trkpt lat="46.00461" lon="4.70514">
        <ele>201</ele>
        <time>2018-01-23T10:11:54Z</time>
      </trkpt>
      <trkpt lat="46.00467" lon="4.70523">
        <ele>201</ele>
        <time>2018-01-23T10:11:56Z</time>
      </trkpt>
      <trkpt lat="46.00469" lon="4.70529">
        <ele>201</ele>
        <time>2018-01-23T10:11:57Z</time>
      </trkpt>
      <trkpt lat="46.00471" lon="4.70535">
        <ele>201</ele>
        <time>2018-01-23T10:11:58Z</time>
      </trkpt>
      <trkpt lat="46.00473" lon="4.70541">
        <ele>201</ele>
        <time>2018-01-23T10:11:59Z</time>
      </trkpt>
      <trkpt lat="46.00478" lon="4.70545">
        <ele>201</ele>
        <time>2018-01-23T10:12:00Z</time>
      </trkpt>
      <trkpt lat="46.00483" lon="4.70548">
        <ele>201</ele>
        <time>2018-01-23T10:12:01Z</time>
      </trkpt>
      <trkpt lat="46.00488" lon="4.70549">
        <ele>201</ele>
        <time>2018-01-23T10:12:02Z</time>
      </trkpt>
      <trkpt lat="46.00493" lon="4.70548">
        <ele>201</ele>
        <time>2018-01-23T10:12:03Z</time>
      </trkpt>
      <trkpt lat="46.00499" lon="4.7054">
        <ele>201</ele>
        <time>2018-01-23T10:12:05Z</time>
      </trkpt>
      <trkpt lat="46.00501" lon="4.70535">
        <ele>203</ele>
        <time>2018-01-23T10:12:06Z</time>
      </trkpt>
      <trkpt lat="46.00507" lon="4.70525">
        <ele>203</ele>
        <time>2018-01-23T10:12:08Z</time>
      </trkpt>
      <trkpt lat="46.00511" lon="4.70522">
        <ele>203</ele>
        <time>2018-01-23T10:12:09Z</time>
      </trkpt>
      <trkpt lat="46.00518" lon="4.70519">
        <ele>204</ele>
        <time>2018-01-23T10:12:11Z</time>
      </trkpt>
      <trkpt lat="46.00523" lon="4.70519">
        <ele>204</ele>
        <time>2018-01-23T10:12:12Z</time>
      </trkpt>
      <trkpt lat="46.00527" lon="4.70519">
        <ele>204</ele>
        <time>2018-01-23T10:12:13Z</time>
      </trkpt>
      <trkpt lat="46.00532" lon="4.70519">
        <ele>204</ele>
        <time>2018-01-23T10:12:14Z</time>
      </trkpt>
      <trkpt lat="46.00536" lon="4.70519">
        <ele>204</ele>
        <time>2018-01-23T10:12:15Z</time>
      </trkpt>
      <trkpt lat="46.00541" lon="4.70519">
        <ele>204</ele>
        <time>2018-01-23T10:12:16Z</time>
      </trkpt>
      <trkpt lat="46.0055" lon="4.70519">
        <ele>204</ele>
        <time>2018-01-23T10:12:18Z</time>
      </trkpt>
      <trkpt lat="46.00555" lon="4.70518">
        <ele>204</ele>
        <time>2018-01-23T10:12:19Z</time>
      </trkpt>
      <trkpt lat="46.00564" lon="4.70518">
        <ele>205</ele>
        <time>2018-01-23T10:12:21Z</time>
      </trkpt>
      <trkpt lat="46.00568" lon="4.70517">
        <ele>205</ele>
        <time>2018-01-23T10:12:22Z</time>
      </trkpt>
      <trkpt lat="46.00577" lon="4.70516">
        <ele>205</ele>
        <time>2018-01-23T10:12:24Z</time>
      </trkpt>
      <trkpt lat="46.00582" lon="4.70516">
        <ele>205</ele>
        <time>2018-01-23T10:12:25Z</time>
      </trkpt>
      <trkpt lat="46.00587" lon="4.70514">
        <ele>207</ele>
        <time>2018-01-23T10:12:26Z</time>
      </trkpt>
      <trkpt lat="46.00592" lon="4.70513">
        <ele>207</ele>
        <time>2018-01-23T10:12:27Z</time>
      </trkpt>
      <trkpt lat="46.00596" lon="4.70511">
        <ele>207</ele>
        <time>2018-01-23T10:12:28Z</time>
      </trkpt>
      <trkpt lat="46.00601" lon="4.7051">
        <ele>207</ele>
        <time>2018-01-23T10:12:29Z</time>
      </trkpt>
      <trkpt lat="46.00606" lon="4.70508">
        <ele>207</ele>
        <time>2018-01-23T10:12:30Z</time>
      </trkpt>
      <trkpt lat="46.00611" lon="4.70507">
        <ele>207</ele>
        <time>2018-01-23T10:12:31Z</time>
      </trkpt>
      <trkpt lat="46.00615" lon="4.70507">
        <ele>207</ele>
        <time>2018-01-23T10:12:32Z</time>
      </trkpt>
      <trkpt lat="46.0062" lon="4.70506">
        <ele>207</ele>
        <time>2018-01-23T10:12:33Z</time>
      </trkpt>
      <trkpt lat="46.00624" lon="4.70506">
        <ele>207</ele>
        <time>2018-01-23T10:12:34Z</time>
      </trkpt>
      <trkpt lat="46.00629" lon="4.70505">
        <ele>207</ele>
        <time>2018-01-23T10:12:35Z</time>
      </trkpt>
      <trkpt lat="46.00635" lon="4.70506">
        <ele>208</ele>
        <time>2018-01-23T10:12:36Z</time>
      </trkpt>
      <trkpt lat="46.00639" lon="4.70506">
        <ele>208</ele>
        <time>2018-01-23T10:12:37Z</time>
      </trkpt>
      <trkpt lat="46.00648" lon="4.70504">
        <ele>209</ele>
        <time>2018-01-23T10:12:39Z</time>
      </trkpt>
      <trkpt lat="46.00651" lon="4.70502">
        <ele>209</ele>
        <time>2018-01-23T10:12:40Z</time>
      </trkpt>
      <trkpt lat="46.00659" lon="4.70501">
        <ele>210</ele>
        <time>2018-01-23T10:12:42Z</time>
      </trkpt>
      <trkpt lat="46.00664" lon="4.70501">
        <ele>211</ele>
        <time>2018-01-23T10:12:43Z</time>
      </trkpt>
      <trkpt lat="46.00672" lon="4.705">
        <ele>211</ele>
        <time>2018-01-23T10:12:45Z</time>
      </trkpt>
      <trkpt lat="46.00676" lon="4.70501">
        <ele>210</ele>
        <time>2018-01-23T10:12:46Z</time>
      </trkpt>
      <trkpt lat="46.00682" lon="4.70501">
        <ele>209</ele>
        <time>2018-01-23T10:12:47Z</time>
      </trkpt>
      <trkpt lat="46.00688" lon="4.70501">
        <ele>209</ele>
        <time>2018-01-23T10:12:48Z</time>
      </trkpt>
      <trkpt lat="46.00696" lon="4.70501">
        <ele>208</ele>
        <time>2018-01-23T10:12:50Z</time>
      </trkpt>
      <trkpt lat="46.00701" lon="4.70501">
        <ele>208</ele>
        <time>2018-01-23T10:12:51Z</time>
      </trkpt>
      <trkpt lat="46.00706" lon="4.70502">
        <ele>208</ele>
        <time>2018-01-23T10:12:52Z</time>
      </trkpt>
      <trkpt lat="46.00711" lon="4.70506">
        <ele>207</ele>
        <time>2018-01-23T10:12:53Z</time>
      </trkpt>
      <trkpt lat="46.00717" lon="4.70508">
        <ele>207</ele>
        <time>2018-01-23T10:12:54Z</time>
      </trkpt>
      <trkpt lat="46.00723" lon="4.70509">
        <ele>207</ele>
        <time>2018-01-23T10:12:55Z</time>
      </trkpt>
      <trkpt lat="46.00728" lon="4.70509">
        <ele>207</ele>
        <time>2018-01-23T10:12:56Z</time>
      </trkpt>
      <trkpt lat="46.00734" lon="4.70511">
        <ele>207</ele>
        <time>2018-01-23T10:12:57Z</time>
      </trkpt>
      <trkpt lat="46.0074" lon="4.70512">
        <ele>207</ele>
        <time>2018-01-23T10:12:58Z</time>
      </trkpt>
      <trkpt lat="46.00745" lon="4.70514">
        <ele>207</ele>
        <time>2018-01-23T10:12:59Z</time>
      </trkpt>
      <trkpt lat="46.00751" lon="4.70516">
        <ele>206</ele>
        <time>2018-01-23T10:13:00Z</time>
      </trkpt>
      <trkpt lat="46.00758" lon="4.70517">
        <ele>206</ele>
        <time>2018-01-23T10:13:01Z</time>
      </trkpt>
      <trkpt lat="46.00764" lon="4.70519">
        <ele>205</ele>
        <time>2018-01-23T10:13:02Z</time>
      </trkpt>
      <trkpt lat="46.0077" lon="4.70522">
        <ele>205</ele>
        <time>2018-01-23T10:13:03Z</time>
      </trkpt>
      <trkpt lat="46.00776" lon="4.70524">
        <ele>204</ele>
        <time>2018-01-23T10:13:04Z</time>
      </trkpt>
      <trkpt lat="46.00782" lon="4.70526">
        <ele>204</ele>
        <time>2018-01-23T10:13:05Z</time>
      </trkpt>
      <trkpt lat="46.00789" lon="4.70528">
        <ele>204</ele>
        <time>2018-01-23T10:13:06Z</time>
      </trkpt>
      <trkpt lat="46.00795" lon="4.7053">
        <ele>204</ele>
        <time>2018-01-23T10:13:07Z</time>
      </trkpt>
      <trkpt lat="46.00801" lon="4.70533">
        <ele>204</ele>
        <time>2018-01-23T10:13:08Z</time>
      </trkpt>
      <trkpt lat="46.00807" lon="4.70536">
        <ele>204</ele>
        <time>2018-01-23T10:13:09Z</time>
      </trkpt>
      <trkpt lat="46.00813" lon="4.70538">
        <ele>203</ele>
        <time>2018-01-23T10:13:10Z</time>
      </trkpt>
      <trkpt lat="46.00819" lon="4.70541">
        <ele>203</ele>
        <time>2018-01-23T10:13:11Z</time>
      </trkpt>
      <trkpt lat="46.00825" lon="4.70544">
        <ele>203</ele>
        <time>2018-01-23T10:13:12Z</time>
      </trkpt>
      <trkpt lat="46.00832" lon="4.70546">
        <ele>203</ele>
        <time>2018-01-23T10:13:13Z</time>
      </trkpt>
      <trkpt lat="46.00838" lon="4.70549">
        <ele>201</ele>
        <time>2018-01-23T10:13:14Z</time>
      </trkpt>
      <trkpt lat="46.00845" lon="4.70552">
        <ele>201</ele>
        <time>2018-01-23T10:13:15Z</time>
      </trkpt>
      <trkpt lat="46.00851" lon="4.70554">
        <ele>201</ele>
        <time>2018-01-23T10:13:16Z</time>
      </trkpt>
      <trkpt lat="46.00857" lon="4.70557">
        <ele>201</ele>
        <time>2018-01-23T10:13:17Z</time>
      </trkpt>
      <trkpt lat="46.00864" lon="4.7056">
        <ele>201</ele>
        <time>2018-01-23T10:13:18Z</time>
      </trkpt>
      <trkpt lat="46.00871" lon="4.70563">
        <ele>201</ele>
        <time>2018-01-23T10:13:19Z</time>
      </trkpt>
      <trkpt lat="46.00878" lon="4.70566">
        <ele>200</ele>
        <time>2018-01-23T10:13:20Z</time>
      </trkpt>
      <trkpt lat="46.00885" lon="4.70569">
        <ele>200</ele>
        <time>2018-01-23T10:13:21Z</time>
      </trkpt>
      <trkpt lat="46.00892" lon="4.70572">
        <ele>200</ele>
        <time>2018-01-23T10:13:22Z</time>
      </trkpt>
      <trkpt lat="46.00899" lon="4.70575">
        <ele>200</ele>
        <time>2018-01-23T10:13:23Z</time>
      </trkpt>
      <trkpt lat="46.00906" lon="4.70578">
        <ele>199</ele>
        <time>2018-01-23T10:13:24Z</time>
      </trkpt>
      <trkpt lat="46.00913" lon="4.70582">
        <ele>198</ele>
        <time>2018-01-23T10:13:25Z</time>
      </trkpt>
      <trkpt lat="46.0092" lon="4.70584">
        <ele>198</ele>
        <time>2018-01-23T10:13:26Z</time>
      </trkpt>
      <trkpt lat="46.00927" lon="4.70588">
        <ele>198</ele>
        <time>2018-01-23T10:13:27Z</time>
      </trkpt>
      <trkpt lat="46.00933" lon="4.70591">
        <ele>198</ele>
        <time>2018-01-23T10:13:28Z</time>
      </trkpt>
      <trkpt lat="46.0094" lon="4.70595">
        <ele>198</ele>
        <time>2018-01-23T10:13:29Z</time>
      </trkpt>
      <trkpt lat="46.00947" lon="4.70599">
        <ele>197</ele>
        <time>2018-01-23T10:13:30Z</time>
      </trkpt>
      <trkpt lat="46.00954" lon="4.70603">
        <ele>197</ele>
        <time>2018-01-23T10:13:31Z</time>
      </trkpt>
      <trkpt lat="46.0096" lon="4.70606">
        <ele>197</ele>
        <time>2018-01-23T10:13:32Z</time>
      </trkpt>
      <trkpt lat="46.00967" lon="4.70609">
        <ele>197</ele>
        <time>2018-01-23T10:13:33Z</time>
      </trkpt>
      <trkpt lat="46.00974" lon="4.70612">
        <ele>197</ele>
        <time>2018-01-23T10:13:34Z</time>
      </trkpt>
      <trkpt lat="46.0098" lon="4.70617">
        <ele>197</ele>
        <time>2018-01-23T10:13:35Z</time>
      </trkpt>
      <trkpt lat="46.00987" lon="4.70619">
        <ele>197</ele>
        <time>2018-01-23T10:13:36Z</time>
      </trkpt>
      <trkpt lat="46.00994" lon="4.70621">
        <ele>197</ele>
        <time>2018-01-23T10:13:37Z</time>
      </trkpt>
      <trkpt lat="46.01" lon="4.70625">
        <ele>196</ele>
        <time>2018-01-23T10:13:38Z</time>
      </trkpt>
      <trkpt lat="46.01007" lon="4.70627">
        <ele>196</ele>
        <time>2018-01-23T10:13:39Z</time>
      </trkpt>
      <trkpt lat="46.01014" lon="4.70629">
        <ele>196</ele>
        <time>2018-01-23T10:13:40Z</time>
      </trkpt>
      <trkpt lat="46.0102" lon="4.70633">
        <ele>196</ele>
        <time>2018-01-23T10:13:41Z</time>
      </trkpt>
      <trkpt lat="46.01026" lon="4.70636">
        <ele>196</ele>
        <time>2018-01-23T10:13:42Z</time>
      </trkpt>
      <trkpt lat="46.01033" lon="4.70638">
        <ele>196</ele>
        <time>2018-01-23T10:13:43Z</time>
      </trkpt>
      <trkpt lat="46.01039" lon="4.7064">
        <ele>196</ele>
        <time>2018-01-23T10:13:44Z</time>
      </trkpt>
      <trkpt lat="46.01045" lon="4.70643">
        <ele>195</ele>
        <time>2018-01-23T10:13:45Z</time>
      </trkpt>
      <trkpt lat="46.01051" lon="4.70645">
        <ele>195</ele>
        <time>2018-01-23T10:13:46Z</time>
      </trkpt>
      <trkpt lat="46.01057" lon="4.70647">
        <ele>195</ele>
        <time>2018-01-23T10:13:47Z</time>
      </trkpt>
      <trkpt lat="46.01063" lon="4.70649">
        <ele>195</ele>
        <time>2018-01-23T10:13:48Z</time>
      </trkpt>
      <trkpt lat="46.01068" lon="4.70651">
        <ele>195</ele>
        <time>2018-01-23T10:13:49Z</time>
      </trkpt>
      <trkpt lat="46.01074" lon="4.70654">
        <ele>195</ele>
        <time>2018-01-23T10:13:50Z</time>
      </trkpt>
      <trkpt lat="46.0108" lon="4.70657">
        <ele>195</ele>
        <time>2018-01-23T10:13:51Z</time>
      </trkpt>
      <trkpt lat="46.01085" lon="4.7066">
        <ele>195</ele>
        <time>2018-01-23T10:13:52Z</time>
      </trkpt>
      <trkpt lat="46.01091" lon="4.70662">
        <ele>195</ele>
        <time>2018-01-23T10:13:53Z</time>
      </trkpt>
      <trkpt lat="46.01098" lon="4.70665">
        <ele>195</ele>
        <time>2018-01-23T10:13:54Z</time>
      </trkpt>
      <trkpt lat="46.01104" lon="4.70668">
        <ele>195</ele>
        <time>2018-01-23T10:13:55Z</time>
      </trkpt>
      <trkpt lat="46.0111" lon="4.70671">
        <ele>195</ele>
        <time>2018-01-23T10:13:56Z</time>
      </trkpt>
      <trkpt lat="46.01115" lon="4.70674">
        <ele>195</ele>
        <time>2018-01-23T10:13:57Z</time>
      </trkpt>
      <trkpt lat="46.01122" lon="4.70677">
        <ele>195</ele>
        <time>2018-01-23T10:13:58Z</time>
      </trkpt>
      <trkpt lat="46.01128" lon="4.70678">
        <ele>194</ele>
        <time>2018-01-23T10:13:59Z</time>
      </trkpt>
      <trkpt lat="46.01134" lon="4.70681">
        <ele>194</ele>
        <time>2018-01-23T10:14:00Z</time>
      </trkpt>
      <trkpt lat="46.0114" lon="4.70684">
        <ele>194</ele>
        <time>2018-01-23T10:14:01Z</time>
      </trkpt>
      <trkpt lat="46.01146" lon="4.70687">
        <ele>194</ele>
        <time>2018-01-23T10:14:02Z</time>
      </trkpt>
      <trkpt lat="46.01154" lon="4.70691">
        <ele>194</ele>
        <time>2018-01-23T10:14:03Z</time>
      </trkpt>
      <trkpt lat="46.01161" lon="4.70693">
        <ele>194</ele>
        <time>2018-01-23T10:14:04Z</time>
      </trkpt>
      <trkpt lat="46.01167" lon="4.70695">
        <ele>194</ele>
        <time>2018-01-23T10:14:05Z</time>
      </trkpt>
      <trkpt lat="46.01173" lon="4.70698">
        <ele>194</ele>
        <time>2018-01-23T10:14:06Z</time>
      </trkpt>
      <trkpt lat="46.01179" lon="4.707">
        <ele>194</ele>
        <time>2018-01-23T10:14:07Z</time>
      </trkpt>
      <trkpt lat="46.01185" lon="4.70703">
        <ele>194</ele>
        <time>2018-01-23T10:14:08Z</time>
      </trkpt>
      <trkpt lat="46.01191" lon="4.70706">
        <ele>194</ele>
        <time>2018-01-23T10:14:09Z</time>
      </trkpt>
      <trkpt lat="46.01197" lon="4.70709">
        <ele>194</ele>
        <time>2018-01-23T10:14:10Z</time>
      </trkpt>
      <trkpt lat="46.01202" lon="4.70711">
        <ele>194</ele>
        <time>2018-01-23T10:14:11Z</time>
      </trkpt>
      <trkpt lat="46.01208" lon="4.70714">
        <ele>194</ele>
        <time>2018-01-23T10:14:12Z</time>
      </trkpt>
      <trkpt lat="46.01213" lon="4.70716">
        <ele>194</ele>
        <time>2018-01-23T10:14:13Z</time>
      </trkpt>
      <trkpt lat="46.01219" lon="4.70718">
        <ele>194</ele>
        <time>2018-01-23T10:14:14Z</time>
      </trkpt>
      <trkpt lat="46.01224" lon="4.7072">
        <ele>194</ele>
        <time>2018-01-23T10:14:15Z</time>
      </trkpt>
      <trkpt lat="46.0123" lon="4.70722">
        <ele>194</ele>
        <time>2018-01-23T10:14:16Z</time>
      </trkpt>
      <trkpt lat="46.01235" lon="4.70725">
        <ele>194</ele>
        <time>2018-01-23T10:14:17Z</time>
      </trkpt>
      <trkpt lat="46.01241" lon="4.70726">
        <ele>193</ele>
        <time>2018-01-23T10:14:18Z</time>
      </trkpt>
      <trkpt lat="46.01248" lon="4.70728">
        <ele>193</ele>
        <time>2018-01-23T10:14:19Z</time>
      </trkpt>
      <trkpt lat="46.01254" lon="4.7073">
        <ele>192</ele>
        <time>2018-01-23T10:14:20Z</time>
      </trkpt>
      <trkpt lat="46.01261" lon="4.70732">
        <ele>192</ele>
        <time>2018-01-23T10:14:21Z</time>
      </trkpt>
      <trkpt lat="46.01267" lon="4.70734">
        <ele>192</ele>
        <time>2018-01-23T10:14:22Z</time>
      </trkpt>
      <trkpt lat="46.01273" lon="4.70736">
        <ele>192</ele>
        <time>2018-01-23T10:14:23Z</time>
      </trkpt>
      <trkpt lat="46.0128" lon="4.70737">
        <ele>192</ele>
        <time>2018-01-23T10:14:24Z</time>
      </trkpt>
      <trkpt lat="46.01287" lon="4.70737">
        <ele>191</ele>
        <time>2018-01-23T10:14:25Z</time>
      </trkpt>
      <trkpt lat="46.01293" lon="4.70739">
        <ele>191</ele>
        <time>2018-01-23T10:14:26Z</time>
      </trkpt>
      <trkpt lat="46.013" lon="4.70741">
        <ele>191</ele>
        <time>2018-01-23T10:14:27Z</time>
      </trkpt>
      <trkpt lat="46.01306" lon="4.70741">
        <ele>191</ele>
        <time>2018-01-23T10:14:28Z</time>
      </trkpt>
      <trkpt lat="46.01314" lon="4.70743">
        <ele>190</ele>
        <time>2018-01-23T10:14:29Z</time>
      </trkpt>
      <trkpt lat="46.01321" lon="4.70745">
        <ele>190</ele>
        <time>2018-01-23T10:14:30Z</time>
      </trkpt>
      <trkpt lat="46.01329" lon="4.70747">
        <ele>189</ele>
        <time>2018-01-23T10:14:31Z</time>
      </trkpt>
      <trkpt lat="46.01336" lon="4.70747">
        <ele>189</ele>
        <time>2018-01-23T10:14:32Z</time>
      </trkpt>
      <trkpt lat="46.01343" lon="4.70748">
        <ele>189</ele>
        <time>2018-01-23T10:14:33Z</time>
      </trkpt>
      <trkpt lat="46.01351" lon="4.70748">
        <ele>189</ele>
        <time>2018-01-23T10:14:34Z</time>
      </trkpt>
      <trkpt lat="46.01358" lon="4.70748">
        <ele>189</ele>
        <time>2018-01-23T10:14:35Z</time>
      </trkpt>
      <trkpt lat="46.01365" lon="4.70748">
        <ele>189</ele>
        <time>2018-01-23T10:14:36Z</time>
      </trkpt>
      <trkpt lat="46.01372" lon="4.70748">
        <ele>189</ele>
        <time>2018-01-23T10:14:37Z</time>
      </trkpt>
      <trkpt lat="46.01379" lon="4.70747">
        <ele>189</ele>
        <time>2018-01-23T10:14:38Z</time>
      </trkpt>
      <trkpt lat="46.01386" lon="4.70747">
        <ele>189</ele>
        <time>2018-01-23T10:14:39Z</time>
      </trkpt>
      <trkpt lat="46.01392" lon="4.70747">
        <ele>189</ele>
        <time>2018-01-23T10:14:40Z</time>
      </trkpt>
      <trkpt lat="46.01399" lon="4.70747">
        <ele>189</ele>
        <time>2018-01-23T10:14:41Z</time>
      </trkpt>
      <trkpt lat="46.01406" lon="4.70746">
        <ele>189</ele>
        <time>2018-01-23T10:14:42Z</time>
      </trkpt>
      <trkpt lat="46.01412" lon="4.70746">
        <ele>189</ele>
        <time>2018-01-23T10:14:43Z</time>
      </trkpt>
      <trkpt lat="46.01419" lon="4.70746">
        <ele>189</ele>
        <time>2018-01-23T10:14:44Z</time>
      </trkpt>
      <trkpt lat="46.01425" lon="4.70745">
        <ele>189</ele>
        <time>2018-01-23T10:14:45Z</time>
      </trkpt>
      <trkpt lat="46.01432" lon="4.70745">
        <ele>189</ele>
        <time>2018-01-23T10:14:46Z</time>
      </trkpt>
      <trkpt lat="46.01439" lon="4.70745">
        <ele>189</ele>
        <time>2018-01-23T10:14:47Z</time>
      </trkpt>
      <trkpt lat="46.01446" lon="4.70744">
        <ele>189</ele>
        <time>2018-01-23T10:14:48Z</time>
      </trkpt>
      <trkpt lat="46.01452" lon="4.70744">
        <ele>189</ele>
        <time>2018-01-23T10:14:49Z</time>
      </trkpt>
      <trkpt lat="46.01459" lon="4.70743">
        <ele>190</ele>
        <time>2018-01-23T10:14:50Z</time>
      </trkpt>
      <trkpt lat="46.01466" lon="4.70743">
        <ele>190</ele>
        <time>2018-01-23T10:14:51Z</time>
      </trkpt>
      <trkpt lat="46.01474" lon="4.70742">
        <ele>190</ele>
        <time>2018-01-23T10:14:52Z</time>
      </trkpt>
      <trkpt lat="46.01482" lon="4.70741">
        <ele>190</ele>
        <time>2018-01-23T10:14:53Z</time>
      </trkpt>
      <trkpt lat="46.01489" lon="4.70739">
        <ele>190</ele>
        <time>2018-01-23T10:14:54Z</time>
      </trkpt>
      <trkpt lat="46.01497" lon="4.70739">
        <ele>190</ele>
        <time>2018-01-23T10:14:55Z</time>
      </trkpt>
      <trkpt lat="46.01504" lon="4.70738">
        <ele>190</ele>
        <time>2018-01-23T10:14:56Z</time>
      </trkpt>
      <trkpt lat="46.01512" lon="4.70737">
        <ele>190</ele>
        <time>2018-01-23T10:14:57Z</time>
      </trkpt>
      <trkpt lat="46.01518" lon="4.70736">
        <ele>190</ele>
        <time>2018-01-23T10:14:58Z</time>
      </trkpt>
      <trkpt lat="46.01524" lon="4.70734">
        <ele>190</ele>
        <time>2018-01-23T10:14:59Z</time>
      </trkpt>
      <trkpt lat="46.01531" lon="4.70733">
        <ele>190</ele>
        <time>2018-01-23T10:15:00Z</time>
      </trkpt>
      <trkpt lat="46.01538" lon="4.70732">
        <ele>190</ele>
        <time>2018-01-23T10:15:01Z</time>
      </trkpt>
      <trkpt lat="46.01546" lon="4.7073">
        <ele>190</ele>
        <time>2018-01-23T10:15:02Z</time>
      </trkpt>
      <trkpt lat="46.01553" lon="4.7073">
        <ele>190</ele>
        <time>2018-01-23T10:15:03Z</time>
      </trkpt>
      <trkpt lat="46.01559" lon="4.70729">
        <ele>190</ele>
        <time>2018-01-23T10:15:04Z</time>
      </trkpt>
      <trkpt lat="46.01565" lon="4.70727">
        <ele>190</ele>
        <time>2018-01-23T10:15:05Z</time>
      </trkpt>
      <trkpt lat="46.01572" lon="4.70727">
        <ele>190</ele>
        <time>2018-01-23T10:15:06Z</time>
      </trkpt>
      <trkpt lat="46.01578" lon="4.70726">
        <ele>190</ele>
        <time>2018-01-23T10:15:07Z</time>
      </trkpt>
      <trkpt lat="46.01585" lon="4.70726">
        <ele>190</ele>
        <time>2018-01-23T10:15:08Z</time>
      </trkpt>
      <trkpt lat="46.01591" lon="4.70725">
        <ele>190</ele>
        <time>2018-01-23T10:15:09Z</time>
      </trkpt>
      <trkpt lat="46.01598" lon="4.70724">
        <ele>190</ele>
        <time>2018-01-23T10:15:10Z</time>
      </trkpt>
      <trkpt lat="46.01604" lon="4.70723">
        <ele>190</ele>
        <time>2018-01-23T10:15:11Z</time>
      </trkpt>
      <trkpt lat="46.0161" lon="4.70723">
        <ele>190</ele>
        <time>2018-01-23T10:15:12Z</time>
      </trkpt>
      <trkpt lat="46.01616" lon="4.70722">
        <ele>190</ele>
        <time>2018-01-23T10:15:13Z</time>
      </trkpt>
      <trkpt lat="46.01623" lon="4.70721">
        <ele>190</ele>
        <time>2018-01-23T10:15:14Z</time>
      </trkpt>
      <trkpt lat="46.01629" lon="4.70721">
        <ele>190</ele>
        <time>2018-01-23T10:15:15Z</time>
      </trkpt>
      <trkpt lat="46.01636" lon="4.7072">
        <ele>190</ele>
        <time>2018-01-23T10:15:16Z</time>
      </trkpt>
      <trkpt lat="46.01642" lon="4.7072">
        <ele>190</ele>
        <time>2018-01-23T10:15:17Z</time>
      </trkpt>
      <trkpt lat="46.01649" lon="4.7072">
        <ele>190</ele>
        <time>2018-01-23T10:15:18Z</time>
      </trkpt>
      <trkpt lat="46.01655" lon="4.70719">
        <ele>190</ele>
        <time>2018-01-23T10:15:19Z</time>
      </trkpt>
      <trkpt lat="46.01661" lon="4.70719">
        <ele>190</ele>
        <time>2018-01-23T10:15:20Z</time>
      </trkpt>
      <trkpt lat="46.01668" lon="4.70718">
        <ele>189</ele>
        <time>2018-01-23T10:15:21Z</time>
      </trkpt>
      <trkpt lat="46.01674" lon="4.70717">
        <ele>189</ele>
        <time>2018-01-23T10:15:22Z</time>
      </trkpt>
      <trkpt lat="46.01681" lon="4.70716">
        <ele>189</ele>
        <time>2018-01-23T10:15:23Z</time>
      </trkpt>
      <trkpt lat="46.01688" lon="4.70716">
        <ele>189</ele>
        <time>2018-01-23T10:15:24Z</time>
      </trkpt>
      <trkpt lat="46.01696" lon="4.70716">
        <ele>189</ele>
        <time>2018-01-23T10:15:25Z</time>
      </trkpt>
      <trkpt lat="46.01703" lon="4.70715">
        <ele>189</ele>
        <time>2018-01-23T10:15:26Z</time>
      </trkpt>
      <trkpt lat="46.0171" lon="4.70714">
        <ele>188</ele>
        <time>2018-01-23T10:15:27Z</time>
      </trkpt>
      <trkpt lat="46.01717" lon="4.70714">
        <ele>188</ele>
        <time>2018-01-23T10:15:28Z</time>
      </trkpt>
      <trkpt lat="46.01724" lon="4.70712">
        <ele>188</ele>
        <time>2018-01-23T10:15:29Z</time>
      </trkpt>
      <trkpt lat="46.01731" lon="4.70712">
        <ele>188</ele>
        <time>2018-01-23T10:15:30Z</time>
      </trkpt>
      <trkpt lat="46.01737" lon="4.70711">
        <ele>188</ele>
        <time>2018-01-23T10:15:31Z</time>
      </trkpt>
      <trkpt lat="46.01744" lon="4.7071">
        <ele>188</ele>
        <time>2018-01-23T10:15:32Z</time>
      </trkpt>
      <trkpt lat="46.01751" lon="4.7071">
        <ele>187</ele>
        <time>2018-01-23T10:15:33Z</time>
      </trkpt>
      <trkpt lat="46.01758" lon="4.70708">
        <ele>187</ele>
        <time>2018-01-23T10:15:34Z</time>
      </trkpt>
      <trkpt lat="46.01764" lon="4.70708">
        <ele>187</ele>
        <time>2018-01-23T10:15:35Z</time>
      </trkpt>
      <trkpt lat="46.01771" lon="4.70707">
        <ele>187</ele>
        <time>2018-01-23T10:15:36Z</time>
      </trkpt>
      <trkpt lat="46.01777" lon="4.70707">
        <ele>187</ele>
        <time>2018-01-23T10:15:37Z</time>
      </trkpt>
      <trkpt lat="46.01783" lon="4.70707">
        <ele>187</ele>
        <time>2018-01-23T10:15:38Z</time>
      </trkpt>
      <trkpt lat="46.0179" lon="4.70707">
        <ele>187</ele>
        <time>2018-01-23T10:15:39Z</time>
      </trkpt>
      <trkpt lat="46.01796" lon="4.70706">
        <ele>187</ele>
        <time>2018-01-23T10:15:40Z</time>
      </trkpt>
      <trkpt lat="46.01802" lon="4.70706">
        <ele>187</ele>
        <time>2018-01-23T10:15:41Z</time>
      </trkpt>
      <trkpt lat="46.01808" lon="4.70706">
        <ele>187</ele>
        <time>2018-01-23T10:15:42Z</time>
      </trkpt>
      <trkpt lat="46.01813" lon="4.70705">
        <ele>187</ele>
        <time>2018-01-23T10:15:43Z</time>
      </trkpt>
      <trkpt lat="46.01819" lon="4.70704">
        <ele>187</ele>
        <time>2018-01-23T10:15:44Z</time>
      </trkpt>
      <trkpt lat="46.01825" lon="4.70704">
        <ele>187</ele>
        <time>2018-01-23T10:15:45Z</time>
      </trkpt>
      <trkpt lat="46.01831" lon="4.70703">
        <ele>187</ele>
        <time>2018-01-23T10:15:46Z</time>
      </trkpt>
      <trkpt lat="46.01837" lon="4.70702">
        <ele>185</ele>
        <time>2018-01-23T10:15:47Z</time>
      </trkpt>
      <trkpt lat="46.01843" lon="4.70701">
        <ele>185</ele>
        <time>2018-01-23T10:15:48Z</time>
      </trkpt>
      <trkpt lat="46.0185" lon="4.70701">
        <ele>185</ele>
        <time>2018-01-23T10:15:49Z</time>
      </trkpt>
      <trkpt lat="46.01856" lon="4.70698">
        <ele>185</ele>
        <time>2018-01-23T10:15:50Z</time>
      </trkpt>
      <trkpt lat="46.01862" lon="4.70698">
        <ele>185</ele>
        <time>2018-01-23T10:15:51Z</time>
      </trkpt>
      <trkpt lat="46.01869" lon="4.70697">
        <ele>185</ele>
        <time>2018-01-23T10:15:52Z</time>
      </trkpt>
      <trkpt lat="46.01877" lon="4.70697">
        <ele>185</ele>
        <time>2018-01-23T10:15:53Z</time>
      </trkpt>
      <trkpt lat="46.01885" lon="4.70698">
        <ele>184</ele>
        <time>2018-01-23T10:15:54Z</time>
      </trkpt>
      <trkpt lat="46.01893" lon="4.70698">
        <ele>184</ele>
        <time>2018-01-23T10:15:55Z</time>
      </trkpt>
      <trkpt lat="46.019" lon="4.70698">
        <ele>184</ele>
        <time>2018-01-23T10:15:56Z</time>
      </trkpt>
      <trkpt lat="46.01908" lon="4.70699">
        <ele>184</ele>
        <time>2018-01-23T10:15:57Z</time>
      </trkpt>
      <trkpt lat="46.01915" lon="4.70701">
        <ele>184</ele>
        <time>2018-01-23T10:15:58Z</time>
      </trkpt>
      <trkpt lat="46.01923" lon="4.70702">
        <ele>182</ele>
        <time>2018-01-23T10:15:59Z</time>
      </trkpt>
      <trkpt lat="46.0193" lon="4.70703">
        <ele>182</ele>
        <time>2018-01-23T10:16:00Z</time>
      </trkpt>
      <trkpt lat="46.01938" lon="4.70704">
        <ele>182</ele>
        <time>2018-01-23T10:16:01Z</time>
      </trkpt>
      <trkpt lat="46.01944" lon="4.70706">
        <ele>182</ele>
        <time>2018-01-23T10:16:02Z</time>
      </trkpt>
      <trkpt lat="46.01952" lon="4.70708">
        <ele>181</ele>
        <time>2018-01-23T10:16:03Z</time>
      </trkpt>
      <trkpt lat="46.01959" lon="4.70709">
        <ele>181</ele>
        <time>2018-01-23T10:16:04Z</time>
      </trkpt>
      <trkpt lat="46.01966" lon="4.7071">
        <ele>181</ele>
        <time>2018-01-23T10:16:05Z</time>
      </trkpt>
      <trkpt lat="46.01973" lon="4.70711">
        <ele>181</ele>
        <time>2018-01-23T10:16:06Z</time>
      </trkpt>
      <trkpt lat="46.0198" lon="4.70712">
        <ele>181</ele>
        <time>2018-01-23T10:16:07Z</time>
      </trkpt>
      <trkpt lat="46.01987" lon="4.70714">
        <ele>181</ele>
        <time>2018-01-23T10:16:08Z</time>
      </trkpt>
      <trkpt lat="46.01994" lon="4.70715">
        <ele>181</ele>
        <time>2018-01-23T10:16:09Z</time>
      </trkpt>
      <trkpt lat="46.02001" lon="4.70716">
        <ele>179</ele>
        <time>2018-01-23T10:16:10Z</time>
      </trkpt>
      <trkpt lat="46.02008" lon="4.70717">
        <ele>179</ele>
        <time>2018-01-23T10:16:11Z</time>
      </trkpt>
      <trkpt lat="46.02014" lon="4.70719">
        <ele>179</ele>
        <time>2018-01-23T10:16:12Z</time>
      </trkpt>
      <trkpt lat="46.0202" lon="4.7072">
        <ele>179</ele>
        <time>2018-01-23T10:16:13Z</time>
      </trkpt>
      <trkpt lat="46.02026" lon="4.70721">
        <ele>179</ele>
        <time>2018-01-23T10:16:14Z</time>
      </trkpt>
      <trkpt lat="46.02032" lon="4.70722">
        <ele>179</ele>
        <time>2018-01-23T10:16:15Z</time>
      </trkpt>
      <trkpt lat="46.02039" lon="4.70724">
        <ele>179</ele>
        <time>2018-01-23T10:16:16Z</time>
      </trkpt>
      <trkpt lat="46.02046" lon="4.70725">
        <ele>179</ele>
        <time>2018-01-23T10:16:17Z</time>
      </trkpt>
      <trkpt lat="46.02052" lon="4.70727">
        <ele>179</ele>
        <time>2018-01-23T10:16:18Z</time>
      </trkpt>
      <trkpt lat="46.02059" lon="4.70727">
        <ele>179</ele>
        <time>2018-01-23T10:16:19Z</time>
      </trkpt>
      <trkpt lat="46.02065" lon="4.70728">
        <ele>178</ele>
        <time>2018-01-23T10:16:20Z</time>
      </trkpt>
      <trkpt lat="46.02072" lon="4.70729">
        <ele>178</ele>
        <time>2018-01-23T10:16:21Z</time>
      </trkpt>
      <trkpt lat="46.0208" lon="4.7073">
        <ele>178</ele>
        <time>2018-01-23T10:16:22Z</time>
      </trkpt>
      <trkpt lat="46.02086" lon="4.70731">
        <ele>178</ele>
        <time>2018-01-23T10:16:23Z</time>
      </trkpt>
      <trkpt lat="46.02094" lon="4.70731">
        <ele>178</ele>
        <time>2018-01-23T10:16:24Z</time>
      </trkpt>
      <trkpt lat="46.02101" lon="4.70734">
        <ele>178</ele>
        <time>2018-01-23T10:16:25Z</time>
      </trkpt>
      <trkpt lat="46.02108" lon="4.70735">
        <ele>178</ele>
        <time>2018-01-23T10:16:26Z</time>
      </trkpt>
      <trkpt lat="46.02116" lon="4.70736">
        <ele>179</ele>
        <time>2018-01-23T10:16:27Z</time>
      </trkpt>
      <trkpt lat="46.02123" lon="4.70737">
        <ele>179</ele>
        <time>2018-01-23T10:16:28Z</time>
      </trkpt>
      <trkpt lat="46.02131" lon="4.70738">
        <ele>179</ele>
        <time>2018-01-23T10:16:29Z</time>
      </trkpt>
      <trkpt lat="46.02138" lon="4.7074">
        <ele>179</ele>
        <time>2018-01-23T10:16:30Z</time>
      </trkpt>
      <trkpt lat="46.02145" lon="4.70741">
        <ele>179</ele>
        <time>2018-01-23T10:16:31Z</time>
      </trkpt>
      <trkpt lat="46.02152" lon="4.70742">
        <ele>179</ele>
        <time>2018-01-23T10:16:32Z</time>
      </trkpt>
      <trkpt lat="46.02158" lon="4.70743">
        <ele>179</ele>
        <time>2018-01-23T10:16:33Z</time>
      </trkpt>
      <trkpt lat="46.02165" lon="4.70745">
        <ele>179</ele>
        <time>2018-01-23T10:16:34Z</time>
      </trkpt>
      <trkpt lat="46.02171" lon="4.70746">
        <ele>179</ele>
        <time>2018-01-23T10:16:35Z</time>
      </trkpt>
      <trkpt lat="46.02177" lon="4.70748">
        <ele>180</ele>
        <time>2018-01-23T10:16:36Z</time>
      </trkpt>
      <trkpt lat="46.02184" lon="4.7075">
        <ele>180</ele>
        <time>2018-01-23T10:16:37Z</time>
      </trkpt>
      <trkpt lat="46.02189" lon="4.70751">
        <ele>179</ele>
        <time>2018-01-23T10:16:38Z</time>
      </trkpt>
      <trkpt lat="46.02196" lon="4.70752">
        <ele>179</ele>
        <time>2018-01-23T10:16:39Z</time>
      </trkpt>
      <trkpt lat="46.02201" lon="4.70754">
        <ele>179</ele>
        <time>2018-01-23T10:16:40Z</time>
      </trkpt>
      <trkpt lat="46.02207" lon="4.70755">
        <ele>179</ele>
        <time>2018-01-23T10:16:41Z</time>
      </trkpt>
      <trkpt lat="46.02214" lon="4.70756">
        <ele>180</ele>
        <time>2018-01-23T10:16:42Z</time>
      </trkpt>
      <trkpt lat="46.0222" lon="4.70757">
        <ele>180</ele>
        <time>2018-01-23T10:16:43Z</time>
      </trkpt>
      <trkpt lat="46.02227" lon="4.70759">
        <ele>180</ele>
        <time>2018-01-23T10:16:44Z</time>
      </trkpt>
      <trkpt lat="46.02233" lon="4.70759">
        <ele>180</ele>
        <time>2018-01-23T10:16:45Z</time>
      </trkpt>
      <trkpt lat="46.02238" lon="4.7076">
        <ele>180</ele>
        <time>2018-01-23T10:16:46Z</time>
      </trkpt>
      <trkpt lat="46.02245" lon="4.70761">
        <ele>180</ele>
        <time>2018-01-23T10:16:47Z</time>
      </trkpt>
      <trkpt lat="46.02251" lon="4.70761">
        <ele>181</ele>
        <time>2018-01-23T10:16:48Z</time>
      </trkpt>
      <trkpt lat="46.02257" lon="4.70762">
        <ele>181</ele>
        <time>2018-01-23T10:16:49Z</time>
      </trkpt>
      <trkpt lat="46.02263" lon="4.70763">
        <ele>181</ele>
        <time>2018-01-23T10:16:50Z</time>
      </trkpt>
      <trkpt lat="46.02268" lon="4.70764">
        <ele>181</ele>
        <time>2018-01-23T10:16:51Z</time>
      </trkpt>
      <trkpt lat="46.02274" lon="4.70766">
        <ele>181</ele>
        <time>2018-01-23T10:16:52Z</time>
      </trkpt>
      <trkpt lat="46.02279" lon="4.70767">
        <ele>181</ele>
        <time>2018-01-23T10:16:53Z</time>
      </trkpt>
      <trkpt lat="46.02285" lon="4.70766">
        <ele>181</ele>
        <time>2018-01-23T10:16:54Z</time>
      </trkpt>
      <trkpt lat="46.02291" lon="4.70767">
        <ele>181</ele>
        <time>2018-01-23T10:16:55Z</time>
      </trkpt>
      <trkpt lat="46.02297" lon="4.70768">
        <ele>180</ele>
        <time>2018-01-23T10:16:56Z</time>
      </trkpt>
      <trkpt lat="46.02302" lon="4.70769">
        <ele>180</ele>
        <time>2018-01-23T10:16:57Z</time>
      </trkpt>
      <trkpt lat="46.02308" lon="4.70771">
        <ele>180</ele>
        <time>2018-01-23T10:16:58Z</time>
      </trkpt>
      <trkpt lat="46.02314" lon="4.70771">
        <ele>180</ele>
        <time>2018-01-23T10:16:59Z</time>
      </trkpt>
      <trkpt lat="46.02319" lon="4.70772">
        <ele>180</ele>
        <time>2018-01-23T10:17:00Z</time>
      </trkpt>
      <trkpt lat="46.02324" lon="4.70773">
        <ele>180</ele>
        <time>2018-01-23T10:17:01Z</time>
      </trkpt>
      <trkpt lat="46.02328" lon="4.70776">
        <ele>180</ele>
        <time>2018-01-23T10:17:02Z</time>
      </trkpt>
      <trkpt lat="46.02333" lon="4.70777">
        <ele>180</ele>
        <time>2018-01-23T10:17:03Z</time>
      </trkpt>
      <trkpt lat="46.02337" lon="4.70778">
        <ele>182</ele>
        <time>2018-01-23T10:17:04Z</time>
      </trkpt>
      <trkpt lat="46.02342" lon="4.70779">
        <ele>182</ele>
        <time>2018-01-23T10:17:05Z</time>
      </trkpt>
      <trkpt lat="46.02346" lon="4.70781">
        <ele>183</ele>
        <time>2018-01-23T10:17:06Z</time>
      </trkpt>
      <trkpt lat="46.02351" lon="4.70782">
        <ele>183</ele>
        <time>2018-01-23T10:17:07Z</time>
      </trkpt>
      <trkpt lat="46.0236" lon="4.70783">
        <ele>183</ele>
        <time>2018-01-23T10:17:09Z</time>
      </trkpt>
      <trkpt lat="46.02364" lon="4.70783">
        <ele>183</ele>
        <time>2018-01-23T10:17:10Z</time>
      </trkpt>
      <trkpt lat="46.02372" lon="4.70785">
        <ele>184</ele>
        <time>2018-01-23T10:17:12Z</time>
      </trkpt>
      <trkpt lat="46.02377" lon="4.70786">
        <ele>184</ele>
        <time>2018-01-23T10:17:13Z</time>
      </trkpt>
      <trkpt lat="46.02384" lon="4.70787">
        <ele>184</ele>
        <time>2018-01-23T10:17:15Z</time>
      </trkpt>
      <trkpt lat="46.02388" lon="4.70787">
        <ele>184</ele>
        <time>2018-01-23T10:17:16Z</time>
      </trkpt>
      <trkpt lat="46.02396" lon="4.70788">
        <ele>185</ele>
        <time>2018-01-23T10:17:18Z</time>
      </trkpt>
      <trkpt lat="46.024" lon="4.70787">
        <ele>185</ele>
        <time>2018-01-23T10:17:19Z</time>
      </trkpt>
      <trkpt lat="46.02409" lon="4.70786">
        <ele>185</ele>
        <time>2018-01-23T10:17:21Z</time>
      </trkpt>
      <trkpt lat="46.02413" lon="4.70784">
        <ele>185</ele>
        <time>2018-01-23T10:17:22Z</time>
      </trkpt>
      <trkpt lat="46.02421" lon="4.70782">
        <ele>189</ele>
        <time>2018-01-23T10:17:24Z</time>
      </trkpt>
      <trkpt lat="46.02425" lon="4.70781">
        <ele>189</ele>
        <time>2018-01-23T10:17:25Z</time>
      </trkpt>
      <trkpt lat="46.02433" lon="4.70778">
        <ele>189</ele>
        <time>2018-01-23T10:17:27Z</time>
      </trkpt>
      <trkpt lat="46.02436" lon="4.70775">
        <ele>189</ele>
        <time>2018-01-23T10:17:28Z</time>
      </trkpt>
      <trkpt lat="46.02441" lon="4.70767">
        <ele>189</ele>
        <time>2018-01-23T10:17:30Z</time>
      </trkpt>
      <trkpt lat="46.02443" lon="4.70762">
        <ele>190</ele>
        <time>2018-01-23T10:17:31Z</time>
      </trkpt>
      <trkpt lat="46.02445" lon="4.70756">
        <ele>190</ele>
        <time>2018-01-23T10:17:32Z</time>
      </trkpt>
      <trkpt lat="46.02448" lon="4.7075">
        <ele>190</ele>
        <time>2018-01-23T10:17:33Z</time>
      </trkpt>
      <trkpt lat="46.02452" lon="4.70739">
        <ele>190</ele>
        <time>2018-01-23T10:17:35Z</time>
      </trkpt>
      <trkpt lat="46.02454" lon="4.70734">
        <ele>190</ele>
        <time>2018-01-23T10:17:36Z</time>
      </trkpt>
      <trkpt lat="46.02456" lon="4.70727">
        <ele>190</ele>
        <time>2018-01-23T10:17:37Z</time>
      </trkpt>
      <trkpt lat="46.02457" lon="4.7072">
        <ele>190</ele>
        <time>2018-01-23T10:17:38Z</time>
      </trkpt>
      <trkpt lat="46.0246" lon="4.70709">
        <ele>190</ele>
        <time>2018-01-23T10:17:40Z</time>
      </trkpt>
      <trkpt lat="46.02461" lon="4.70703">
        <ele>190</ele>
        <time>2018-01-23T10:17:41Z</time>
      </trkpt>
      <trkpt lat="46.02463" lon="4.70695">
        <ele>190</ele>
        <time>2018-01-23T10:17:42Z</time>
      </trkpt>
      <trkpt lat="46.02464" lon="4.70688">
        <ele>190</ele>
        <time>2018-01-23T10:17:43Z</time>
      </trkpt>
      <trkpt lat="46.02467" lon="4.70682">
        <ele>190</ele>
        <time>2018-01-23T10:17:44Z</time>
      </trkpt>
      <trkpt lat="46.02468" lon="4.70676">
        <ele>190</ele>
        <time>2018-01-23T10:17:45Z</time>
      </trkpt>
      <trkpt lat="46.0247" lon="4.7067">
        <ele>190</ele>
        <time>2018-01-23T10:17:46Z</time>
      </trkpt>
      <trkpt lat="46.02471" lon="4.70663">
        <ele>189</ele>
        <time>2018-01-23T10:17:47Z</time>
      </trkpt>
      <trkpt lat="46.02473" lon="4.70655">
        <ele>189</ele>
        <time>2018-01-23T10:17:48Z</time>
      </trkpt>
      <trkpt lat="46.02475" lon="4.70646">
        <ele>189</ele>
        <time>2018-01-23T10:17:49Z</time>
      </trkpt>
      <trkpt lat="46.02476" lon="4.7064">
        <ele>188</ele>
        <time>2018-01-23T10:17:50Z</time>
      </trkpt>
      <trkpt lat="46.02477" lon="4.70633">
        <ele>188</ele>
        <time>2018-01-23T10:17:51Z</time>
      </trkpt>
      <trkpt lat="46.02481" lon="4.70623">
        <ele>188</ele>
        <time>2018-01-23T10:17:53Z</time>
      </trkpt>
      <trkpt lat="46.02483" lon="4.70621">
        <ele>188</ele>
        <time>2018-01-23T10:17:54Z</time>
      </trkpt>
      <trkpt lat="46.02492" lon="4.70622">
        <ele>188</ele>
        <time>2018-01-23T10:17:56Z</time>
      </trkpt>
      <trkpt lat="46.02495" lon="4.70624">
        <ele>188</ele>
        <time>2018-01-23T10:17:57Z</time>
      </trkpt>
      <trkpt lat="46.025" lon="4.70626">
        <ele>188</ele>
        <time>2018-01-23T10:17:58Z</time>
      </trkpt>
      <trkpt lat="46.02504" lon="4.70626">
        <ele>189</ele>
        <time>2018-01-23T10:17:59Z</time>
      </trkpt>
      <trkpt lat="46.02512" lon="4.7063">
        <ele>189</ele>
        <time>2018-01-23T10:18:01Z</time>
      </trkpt>
      <trkpt lat="46.02516" lon="4.70632">
        <ele>189</ele>
        <time>2018-01-23T10:18:02Z</time>
      </trkpt>
      <trkpt lat="46.02521" lon="4.70634">
        <ele>189</ele>
        <time>2018-01-23T10:18:03Z</time>
      </trkpt>
      <trkpt lat="46.02526" lon="4.70633">
        <ele>189</ele>
        <time>2018-01-23T10:18:04Z</time>
      </trkpt>
      <trkpt lat="46.0253" lon="4.70635">
        <ele>189</ele>
        <time>2018-01-23T10:18:05Z</time>
      </trkpt>
      <trkpt lat="46.02535" lon="4.70636">
        <ele>189</ele>
        <time>2018-01-23T10:18:06Z</time>
      </trkpt>
      <trkpt lat="46.02544" lon="4.70639">
        <ele>189</ele>
        <time>2018-01-23T10:18:08Z</time>
      </trkpt>
      <trkpt lat="46.02549" lon="4.70639">
        <ele>189</ele>
        <time>2018-01-23T10:18:09Z</time>
      </trkpt>
      <trkpt lat="46.02555" lon="4.70641">
        <ele>189</ele>
        <time>2018-01-23T10:18:10Z</time>
      </trkpt>
      <trkpt lat="46.02559" lon="4.70642">
        <ele>189</ele>
        <time>2018-01-23T10:18:11Z</time>
      </trkpt>
      <trkpt lat="46.02565" lon="4.70642">
        <ele>189</ele>
        <time>2018-01-23T10:18:12Z</time>
      </trkpt>
      <trkpt lat="46.0257" lon="4.70644">
        <ele>190</ele>
        <time>2018-01-23T10:18:13Z</time>
      </trkpt>
      <trkpt lat="46.02574" lon="4.70646">
        <ele>190</ele>
        <time>2018-01-23T10:18:14Z</time>
      </trkpt>
      <trkpt lat="46.02579" lon="4.70647">
        <ele>190</ele>
        <time>2018-01-23T10:18:15Z</time>
      </trkpt>
      <trkpt lat="46.02585" lon="4.70651">
        <ele>190</ele>
        <time>2018-01-23T10:18:16Z</time>
      </trkpt>
      <trkpt lat="46.02589" lon="4.70651">
        <ele>190</ele>
        <time>2018-01-23T10:18:17Z</time>
      </trkpt>
      <trkpt lat="46.02593" lon="4.70651">
        <ele>190</ele>
        <time>2018-01-23T10:18:18Z</time>
      </trkpt>
      <trkpt lat="46.02598" lon="4.70652">
        <ele>190</ele>
        <time>2018-01-23T10:18:19Z</time>
      </trkpt>
      <trkpt lat="46.02603" lon="4.70653">
        <ele>190</ele>
        <time>2018-01-23T10:18:20Z</time>
      </trkpt>
      <trkpt lat="46.02607" lon="4.70654">
        <ele>190</ele>
        <time>2018-01-23T10:18:21Z</time>
      </trkpt>
      <trkpt lat="46.02612" lon="4.70656">
        <ele>190</ele>
        <time>2018-01-23T10:18:22Z</time>
      </trkpt>
      <trkpt lat="46.02616" lon="4.70657">
        <ele>190</ele>
        <time>2018-01-23T10:18:23Z</time>
      </trkpt>
      <trkpt lat="46.02621" lon="4.70657">
        <ele>190</ele>
        <time>2018-01-23T10:18:24Z</time>
      </trkpt>
      <trkpt lat="46.02627" lon="4.70658">
        <ele>190</ele>
        <time>2018-01-23T10:18:25Z</time>
      </trkpt>
      <trkpt lat="46.02632" lon="4.70658">
        <ele>190</ele>
        <time>2018-01-23T10:18:26Z</time>
      </trkpt>
      <trkpt lat="46.02638" lon="4.70659">
        <ele>190</ele>
        <time>2018-01-23T10:18:27Z</time>
      </trkpt>
      <trkpt lat="46.02643" lon="4.70658">
        <ele>190</ele>
        <time>2018-01-23T10:18:28Z</time>
      </trkpt>
      <trkpt lat="46.02649" lon="4.70658">
        <ele>190</ele>
        <time>2018-01-23T10:18:29Z</time>
      </trkpt>
      <trkpt lat="46.02653" lon="4.7066">
        <ele>190</ele>
        <time>2018-01-23T10:18:30Z</time>
      </trkpt>
      <trkpt lat="46.02658" lon="4.70661">
        <ele>190</ele>
        <time>2018-01-23T10:18:31Z</time>
      </trkpt>
      <trkpt lat="46.02662" lon="4.70662">
        <ele>190</ele>
        <time>2018-01-23T10:18:32Z</time>
      </trkpt>
      <trkpt lat="46.02667" lon="4.70662">
        <ele>190</ele>
        <time>2018-01-23T10:18:33Z</time>
      </trkpt>
      <trkpt lat="46.02672" lon="4.70662">
        <ele>190</ele>
        <time>2018-01-23T10:18:34Z</time>
      </trkpt>
      <trkpt lat="46.02676" lon="4.70663">
        <ele>190</ele>
        <time>2018-01-23T10:18:35Z</time>
      </trkpt>
      <trkpt lat="46.02682" lon="4.70663">
        <ele>190</ele>
        <time>2018-01-23T10:18:36Z</time>
      </trkpt>
      <trkpt lat="46.02687" lon="4.70664">
        <ele>190</ele>
        <time>2018-01-23T10:18:37Z</time>
      </trkpt>
      <trkpt lat="46.02691" lon="4.70665">
        <ele>190</ele>
        <time>2018-01-23T10:18:38Z</time>
      </trkpt>
      <trkpt lat="46.02696" lon="4.70666">
        <ele>189</ele>
        <time>2018-01-23T10:18:39Z</time>
      </trkpt>
      <trkpt lat="46.02701" lon="4.70667">
        <ele>190</ele>
        <time>2018-01-23T10:18:40Z</time>
      </trkpt>
      <trkpt lat="46.02706" lon="4.70667">
        <ele>190</ele>
        <time>2018-01-23T10:18:41Z</time>
      </trkpt>
      <trkpt lat="46.02711" lon="4.70669">
        <ele>189</ele>
        <time>2018-01-23T10:18:42Z</time>
      </trkpt>
      <trkpt lat="46.02715" lon="4.7067">
        <ele>189</ele>
        <time>2018-01-23T10:18:43Z</time>
      </trkpt>
      <trkpt lat="46.0272" lon="4.70671">
        <ele>189</ele>
        <time>2018-01-23T10:18:44Z</time>
      </trkpt>
      <trkpt lat="46.02725" lon="4.70672">
        <ele>189</ele>
        <time>2018-01-23T10:18:45Z</time>
      </trkpt>
      <trkpt lat="46.02729" lon="4.70673">
        <ele>189</ele>
        <time>2018-01-23T10:18:46Z</time>
      </trkpt>
      <trkpt lat="46.02734" lon="4.70674">
        <ele>189</ele>
        <time>2018-01-23T10:18:47Z</time>
      </trkpt>
      <trkpt lat="46.02739" lon="4.70674">
        <ele>189</ele>
        <time>2018-01-23T10:18:48Z</time>
      </trkpt>
      <trkpt lat="46.02744" lon="4.70674">
        <ele>189</ele>
        <time>2018-01-23T10:18:49Z</time>
      </trkpt>
      <trkpt lat="46.02749" lon="4.70675">
        <ele>189</ele>
        <time>2018-01-23T10:18:50Z</time>
      </trkpt>
      <trkpt lat="46.02755" lon="4.70675">
        <ele>189</ele>
        <time>2018-01-23T10:18:51Z</time>
      </trkpt>
      <trkpt lat="46.0276" lon="4.70677">
        <ele>189</ele>
        <time>2018-01-23T10:18:52Z</time>
      </trkpt>
      <trkpt lat="46.02764" lon="4.70678">
        <ele>189</ele>
        <time>2018-01-23T10:18:53Z</time>
      </trkpt>
      <trkpt lat="46.02769" lon="4.70679">
        <ele>189</ele>
        <time>2018-01-23T10:18:54Z</time>
      </trkpt>
      <trkpt lat="46.02773" lon="4.70679">
        <ele>189</ele>
        <time>2018-01-23T10:18:55Z</time>
      </trkpt>
      <trkpt lat="46.02782" lon="4.7068">
        <ele>189</ele>
        <time>2018-01-23T10:18:57Z</time>
      </trkpt>
      <trkpt lat="46.02787" lon="4.7068">
        <ele>189</ele>
        <time>2018-01-23T10:18:58Z</time>
      </trkpt>
      <trkpt lat="46.02791" lon="4.70679">
        <ele>189</ele>
        <time>2018-01-23T10:18:59Z</time>
      </trkpt>
      <trkpt lat="46.02796" lon="4.70678">
        <ele>189</ele>
        <time>2018-01-23T10:19:00Z</time>
      </trkpt>
      <trkpt lat="46.028" lon="4.70677">
        <ele>189</ele>
        <time>2018-01-23T10:19:01Z</time>
      </trkpt>
      <trkpt lat="46.02805" lon="4.70677">
        <ele>189</ele>
        <time>2018-01-23T10:19:02Z</time>
      </trkpt>
      <trkpt lat="46.0281" lon="4.70677">
        <ele>189</ele>
        <time>2018-01-23T10:19:03Z</time>
      </trkpt>
      <trkpt lat="46.02816" lon="4.70676">
        <ele>189</ele>
        <time>2018-01-23T10:19:04Z</time>
      </trkpt>
      <trkpt lat="46.02821" lon="4.70676">
        <ele>189</ele>
        <time>2018-01-23T10:19:05Z</time>
      </trkpt>
      <trkpt lat="46.02828" lon="4.70674">
        <ele>189</ele>
        <time>2018-01-23T10:19:06Z</time>
      </trkpt>
      <trkpt lat="46.02832" lon="4.70673">
        <ele>189</ele>
        <time>2018-01-23T10:19:07Z</time>
      </trkpt>
      <trkpt lat="46.02839" lon="4.70671">
        <ele>189</ele>
        <time>2018-01-23T10:19:08Z</time>
      </trkpt>
      <trkpt lat="46.02843" lon="4.7067">
        <ele>189</ele>
        <time>2018-01-23T10:19:09Z</time>
      </trkpt>
      <trkpt lat="46.02848" lon="4.70669">
        <ele>189</ele>
        <time>2018-01-23T10:19:10Z</time>
      </trkpt>
      <trkpt lat="46.02853" lon="4.70668">
        <ele>189</ele>
        <time>2018-01-23T10:19:11Z</time>
      </trkpt>
      <trkpt lat="46.02858" lon="4.70668">
        <ele>190</ele>
        <time>2018-01-23T10:19:12Z</time>
      </trkpt>
      <trkpt lat="46.02863" lon="4.70666">
        <ele>190</ele>
        <time>2018-01-23T10:19:13Z</time>
      </trkpt>
      <trkpt lat="46.02867" lon="4.70666">
        <ele>190</ele>
        <time>2018-01-23T10:19:14Z</time>
      </trkpt>
      <trkpt lat="46.02874" lon="4.70666">
        <ele>190</ele>
        <time>2018-01-23T10:19:15Z</time>
      </trkpt>
      <trkpt lat="46.02879" lon="4.70664">
        <ele>190</ele>
        <time>2018-01-23T10:19:16Z</time>
      </trkpt>
      <trkpt lat="46.02884" lon="4.70665">
        <ele>190</ele>
        <time>2018-01-23T10:19:17Z</time>
      </trkpt>
      <trkpt lat="46.0289" lon="4.70665">
        <ele>190</ele>
        <time>2018-01-23T10:19:18Z</time>
      </trkpt>
      <trkpt lat="46.02895" lon="4.70664">
        <ele>190</ele>
        <time>2018-01-23T10:19:19Z</time>
      </trkpt>
      <trkpt lat="46.02899" lon="4.70664">
        <ele>191</ele>
        <time>2018-01-23T10:19:20Z</time>
      </trkpt>
      <trkpt lat="46.02905" lon="4.70665">
        <ele>191</ele>
        <time>2018-01-23T10:19:21Z</time>
      </trkpt>
      <trkpt lat="46.0291" lon="4.70665">
        <ele>191</ele>
        <time>2018-01-23T10:19:22Z</time>
      </trkpt>
      <trkpt lat="46.02914" lon="4.70665">
        <ele>191</ele>
        <time>2018-01-23T10:19:23Z</time>
      </trkpt>
      <trkpt lat="46.02919" lon="4.70663">
        <ele>191</ele>
        <time>2018-01-23T10:19:24Z</time>
      </trkpt>
      <trkpt lat="46.02924" lon="4.70658">
        <ele>191</ele>
        <time>2018-01-23T10:19:25Z</time>
      </trkpt>
      <trkpt lat="46.02928" lon="4.70651">
        <ele>192</ele>
        <time>2018-01-23T10:19:26Z</time>
      </trkpt>
      <trkpt lat="46.02931" lon="4.70645">
        <ele>192</ele>
        <time>2018-01-23T10:19:27Z</time>
      </trkpt>
      <trkpt lat="46.02933" lon="4.70638">
        <ele>192</ele>
        <time>2018-01-23T10:19:28Z</time>
      </trkpt>
      <trkpt lat="46.02934" lon="4.70632">
        <ele>192</ele>
        <time>2018-01-23T10:19:29Z</time>
      </trkpt>
      <trkpt lat="46.02936" lon="4.70625">
        <ele>192</ele>
        <time>2018-01-23T10:19:30Z</time>
      </trkpt>
      <trkpt lat="46.02938" lon="4.70612">
        <ele>192</ele>
        <time>2018-01-23T10:19:32Z</time>
      </trkpt>
      <trkpt lat="46.02939" lon="4.70605">
        <ele>192</ele>
        <time>2018-01-23T10:19:33Z</time>
      </trkpt>
      <trkpt lat="46.02941" lon="4.70599">
        <ele>192</ele>
        <time>2018-01-23T10:19:34Z</time>
      </trkpt>
      <trkpt lat="46.02944" lon="4.70591">
        <ele>192</ele>
        <time>2018-01-23T10:19:35Z</time>
      </trkpt>
      <trkpt lat="46.02947" lon="4.70583">
        <ele>191</ele>
        <time>2018-01-23T10:19:36Z</time>
      </trkpt>
      <trkpt lat="46.0295" lon="4.70577">
        <ele>191</ele>
        <time>2018-01-23T10:19:37Z</time>
      </trkpt>
      <trkpt lat="46.02953" lon="4.7057">
        <ele>191</ele>
        <time>2018-01-23T10:19:38Z</time>
      </trkpt>
      <trkpt lat="46.02957" lon="4.70562">
        <ele>191</ele>
        <time>2018-01-23T10:19:39Z</time>
      </trkpt>
      <trkpt lat="46.02961" lon="4.70556">
        <ele>191</ele>
        <time>2018-01-23T10:19:40Z</time>
      </trkpt>
      <trkpt lat="46.02965" lon="4.7055">
        <ele>191</ele>
        <time>2018-01-23T10:19:41Z</time>
      </trkpt>
      <trkpt lat="46.02969" lon="4.70545">
        <ele>191</ele>
        <time>2018-01-23T10:19:42Z</time>
      </trkpt>
      <trkpt lat="46.02973" lon="4.70543">
        <ele>191</ele>
        <time>2018-01-23T10:19:43Z</time>
      </trkpt>
      <trkpt lat="46.02978" lon="4.70539">
        <ele>191</ele>
        <time>2018-01-23T10:19:44Z</time>
      </trkpt>
      <trkpt lat="46.02981" lon="4.70536">
        <ele>191</ele>
        <time>2018-01-23T10:19:45Z</time>
      </trkpt>
      <trkpt lat="46.02985" lon="4.70532">
        <ele>191</ele>
        <time>2018-01-23T10:19:46Z</time>
      </trkpt>
      <trkpt lat="46.02989" lon="4.70529">
        <ele>191</ele>
        <time>2018-01-23T10:19:47Z</time>
      </trkpt>
      <trkpt lat="46.02996" lon="4.70522">
        <ele>191</ele>
        <time>2018-01-23T10:19:49Z</time>
      </trkpt>
      <trkpt lat="46.03" lon="4.70518">
        <ele>191</ele>
        <time>2018-01-23T10:19:50Z</time>
      </trkpt>
      <trkpt lat="46.03004" lon="4.70514">
        <ele>191</ele>
        <time>2018-01-23T10:19:51Z</time>
      </trkpt>
      <trkpt lat="46.03008" lon="4.7051">
        <ele>191</ele>
        <time>2018-01-23T10:19:52Z</time>
      </trkpt>
      <trkpt lat="46.03012" lon="4.70507">
        <ele>191</ele>
        <time>2018-01-23T10:19:53Z</time>
      </trkpt>
      <trkpt lat="46.03016" lon="4.70503">
        <ele>191</ele>
        <time>2018-01-23T10:19:54Z</time>
      </trkpt>
      <trkpt lat="46.0302" lon="4.70498">
        <ele>191</ele>
        <time>2018-01-23T10:19:55Z</time>
      </trkpt>
      <trkpt lat="46.03024" lon="4.70494">
        <ele>191</ele>
        <time>2018-01-23T10:19:56Z</time>
      </trkpt>
      <trkpt lat="46.03031" lon="4.7049">
        <ele>191</ele>
        <time>2018-01-23T10:19:58Z</time>
      </trkpt>
      <trkpt lat="46.03035" lon="4.70487">
        <ele>191</ele>
        <time>2018-01-23T10:19:59Z</time>
      </trkpt>
      <trkpt lat="46.03042" lon="4.7048">
        <ele>191</ele>
        <time>2018-01-23T10:20:01Z</time>
      </trkpt>
      <trkpt lat="46.03045" lon="4.70477">
        <ele>191</ele>
        <time>2018-01-23T10:20:02Z</time>
      </trkpt>
      <trkpt lat="46.03052" lon="4.7047">
        <ele>191</ele>
        <time>2018-01-23T10:20:04Z</time>
      </trkpt>
      <trkpt lat="46.03056" lon="4.70467">
        <ele>191</ele>
        <time>2018-01-23T10:20:05Z</time>
      </trkpt>
      <trkpt lat="46.0306" lon="4.70463">
        <ele>191</ele>
        <time>2018-01-23T10:20:06Z</time>
      </trkpt>
      <trkpt lat="46.03064" lon="4.70458">
        <ele>191</ele>
        <time>2018-01-23T10:20:07Z</time>
      </trkpt>
      <trkpt lat="46.03068" lon="4.70456">
        <ele>191</ele>
        <time>2018-01-23T10:20:08Z</time>
      </trkpt>
      <trkpt lat="46.03073" lon="4.70453">
        <ele>191</ele>
        <time>2018-01-23T10:20:09Z</time>
      </trkpt>
      <trkpt lat="46.03078" lon="4.70451">
        <ele>191</ele>
        <time>2018-01-23T10:20:10Z</time>
      </trkpt>
      <trkpt lat="46.03082" lon="4.70448">
        <ele>191</ele>
        <time>2018-01-23T10:20:11Z</time>
      </trkpt>
      <trkpt lat="46.03087" lon="4.70445">
        <ele>192</ele>
        <time>2018-01-23T10:20:12Z</time>
      </trkpt>
      <trkpt lat="46.03092" lon="4.70443">
        <ele>192</ele>
        <time>2018-01-23T10:20:13Z</time>
      </trkpt>
      <trkpt lat="46.03097" lon="4.70441">
        <ele>192</ele>
        <time>2018-01-23T10:20:14Z</time>
      </trkpt>
      <trkpt lat="46.03101" lon="4.70439">
        <ele>192</ele>
        <time>2018-01-23T10:20:15Z</time>
      </trkpt>
      <trkpt lat="46.03105" lon="4.70438">
        <ele>192</ele>
        <time>2018-01-23T10:20:16Z</time>
      </trkpt>
      <trkpt lat="46.0311" lon="4.70437">
        <ele>192</ele>
        <time>2018-01-23T10:20:17Z</time>
      </trkpt>
      <trkpt lat="46.03114" lon="4.70435">
        <ele>192</ele>
        <time>2018-01-23T10:20:18Z</time>
      </trkpt>
      <trkpt lat="46.03119" lon="4.70433">
        <ele>192</ele>
        <time>2018-01-23T10:20:19Z</time>
      </trkpt>
      <trkpt lat="46.03127" lon="4.70428">
        <ele>192</ele>
        <time>2018-01-23T10:20:21Z</time>
      </trkpt>
      <trkpt lat="46.03132" lon="4.70426">
        <ele>192</ele>
        <time>2018-01-23T10:20:22Z</time>
      </trkpt>
      <trkpt lat="46.03138" lon="4.70424">
        <ele>192</ele>
        <time>2018-01-23T10:20:23Z</time>
      </trkpt>
      <trkpt lat="46.03142" lon="4.70421">
        <ele>192</ele>
        <time>2018-01-23T10:20:24Z</time>
      </trkpt>
      <trkpt lat="46.03148" lon="4.70417">
        <ele>192</ele>
        <time>2018-01-23T10:20:25Z</time>
      </trkpt>
      <trkpt lat="46.03154" lon="4.70415">
        <ele>192</ele>
        <time>2018-01-23T10:20:26Z</time>
      </trkpt>
      <trkpt lat="46.03159" lon="4.70412">
        <ele>192</ele>
        <time>2018-01-23T10:20:27Z</time>
      </trkpt>
      <trkpt lat="46.03165" lon="4.70409">
        <ele>192</ele>
        <time>2018-01-23T10:20:28Z</time>
      </trkpt>
      <trkpt lat="46.03171" lon="4.70406">
        <ele>192</ele>
        <time>2018-01-23T10:20:29Z</time>
      </trkpt>
      <trkpt lat="46.03176" lon="4.70404">
        <ele>192</ele>
        <time>2018-01-23T10:20:30Z</time>
      </trkpt>
      <trkpt lat="46.03182" lon="4.704">
        <ele>192</ele>
        <time>2018-01-23T10:20:31Z</time>
      </trkpt>
      <trkpt lat="46.03187" lon="4.70397">
        <ele>192</ele>
        <time>2018-01-23T10:20:32Z</time>
      </trkpt>
      <trkpt lat="46.03193" lon="4.70395">
        <ele>192</ele>
        <time>2018-01-23T10:20:33Z</time>
      </trkpt>
      <trkpt lat="46.03198" lon="4.70392">
        <ele>192</ele>
        <time>2018-01-23T10:20:34Z</time>
      </trkpt>
      <trkpt lat="46.03203" lon="4.70388">
        <ele>192</ele>
        <time>2018-01-23T10:20:35Z</time>
      </trkpt>
      <trkpt lat="46.03208" lon="4.70386">
        <ele>192</ele>
        <time>2018-01-23T10:20:36Z</time>
      </trkpt>
      <trkpt lat="46.03213" lon="4.70383">
        <ele>192</ele>
        <time>2018-01-23T10:20:37Z</time>
      </trkpt>
      <trkpt lat="46.03217" lon="4.7038">
        <ele>192</ele>
        <time>2018-01-23T10:20:38Z</time>
      </trkpt>
      <trkpt lat="46.03222" lon="4.70378">
        <ele>192</ele>
        <time>2018-01-23T10:20:39Z</time>
      </trkpt>
      <trkpt lat="46.03227" lon="4.70375">
        <ele>192</ele>
        <time>2018-01-23T10:20:40Z</time>
      </trkpt>
      <trkpt lat="46.03233" lon="4.70372">
        <ele>192</ele>
        <time>2018-01-23T10:20:41Z</time>
      </trkpt>
      <trkpt lat="46.03238" lon="4.7037">
        <ele>192</ele>
        <time>2018-01-23T10:20:42Z</time>
      </trkpt>
      <trkpt lat="46.03242" lon="4.70368">
        <ele>192</ele>
        <time>2018-01-23T10:20:43Z</time>
      </trkpt>
      <trkpt lat="46.03247" lon="4.70367">
        <ele>192</ele>
        <time>2018-01-23T10:20:44Z</time>
      </trkpt>
      <trkpt lat="46.03252" lon="4.70366">
        <ele>191</ele>
        <time>2018-01-23T10:20:45Z</time>
      </trkpt>
      <trkpt lat="46.03258" lon="4.70362">
        <ele>191</ele>
        <time>2018-01-23T10:20:46Z</time>
      </trkpt>
      <trkpt lat="46.03263" lon="4.7036">
        <ele>191</ele>
        <time>2018-01-23T10:20:47Z</time>
      </trkpt>
      <trkpt lat="46.03269" lon="4.70358">
        <ele>191</ele>
        <time>2018-01-23T10:20:48Z</time>
      </trkpt>
      <trkpt lat="46.03275" lon="4.70356">
        <ele>191</ele>
        <time>2018-01-23T10:20:49Z</time>
      </trkpt>
      <trkpt lat="46.0328" lon="4.70354">
        <ele>191</ele>
        <time>2018-01-23T10:20:50Z</time>
      </trkpt>
      <trkpt lat="46.03286" lon="4.70351">
        <ele>191</ele>
        <time>2018-01-23T10:20:51Z</time>
      </trkpt>
      <trkpt lat="46.03292" lon="4.70348">
        <ele>191</ele>
        <time>2018-01-23T10:20:52Z</time>
      </trkpt>
      <trkpt lat="46.03299" lon="4.70346">
        <ele>191</ele>
        <time>2018-01-23T10:20:53Z</time>
      </trkpt>
      <trkpt lat="46.03306" lon="4.70345">
        <ele>191</ele>
        <time>2018-01-23T10:20:54Z</time>
      </trkpt>
      <trkpt lat="46.03311" lon="4.70343">
        <ele>191</ele>
        <time>2018-01-23T10:20:55Z</time>
      </trkpt>
      <trkpt lat="46.03318" lon="4.7034">
        <ele>191</ele>
        <time>2018-01-23T10:20:56Z</time>
      </trkpt>
      <trkpt lat="46.03326" lon="4.70338">
        <ele>191</ele>
        <time>2018-01-23T10:20:57Z</time>
      </trkpt>
      <trkpt lat="46.03333" lon="4.70335">
        <ele>191</ele>
        <time>2018-01-23T10:20:58Z</time>
      </trkpt>
      <trkpt lat="46.03339" lon="4.70332">
        <ele>191</ele>
        <time>2018-01-23T10:20:59Z</time>
      </trkpt>
      <trkpt lat="46.03346" lon="4.7033">
        <ele>191</ele>
        <time>2018-01-23T10:21:00Z</time>
      </trkpt>
      <trkpt lat="46.03353" lon="4.70326">
        <ele>191</ele>
        <time>2018-01-23T10:21:01Z</time>
      </trkpt>
      <trkpt lat="46.03361" lon="4.70324">
        <ele>191</ele>
        <time>2018-01-23T10:21:02Z</time>
      </trkpt>
      <trkpt lat="46.03367" lon="4.70321">
        <ele>191</ele>
        <time>2018-01-23T10:21:03Z</time>
      </trkpt>
      <trkpt lat="46.03374" lon="4.70319">
        <ele>191</ele>
        <time>2018-01-23T10:21:04Z</time>
      </trkpt>
      <trkpt lat="46.03382" lon="4.70316">
        <ele>191</ele>
        <time>2018-01-23T10:21:05Z</time>
      </trkpt>
      <trkpt lat="46.0339" lon="4.70314">
        <ele>190</ele>
        <time>2018-01-23T10:21:06Z</time>
      </trkpt>
      <trkpt lat="46.03397" lon="4.70311">
        <ele>190</ele>
        <time>2018-01-23T10:21:07Z</time>
      </trkpt>
      <trkpt lat="46.03404" lon="4.70308">
        <ele>190</ele>
        <time>2018-01-23T10:21:08Z</time>
      </trkpt>
      <trkpt lat="46.03411" lon="4.70306">
        <ele>190</ele>
        <time>2018-01-23T10:21:09Z</time>
      </trkpt>
      <trkpt lat="46.03419" lon="4.70303">
        <ele>188</ele>
        <time>2018-01-23T10:21:10Z</time>
      </trkpt>
      <trkpt lat="46.03426" lon="4.70301">
        <ele>188</ele>
        <time>2018-01-23T10:21:11Z</time>
      </trkpt>
      <trkpt lat="46.03433" lon="4.70299">
        <ele>188</ele>
        <time>2018-01-23T10:21:12Z</time>
      </trkpt>
      <trkpt lat="46.0344" lon="4.70296">
        <ele>188</ele>
        <time>2018-01-23T10:21:13Z</time>
      </trkpt>
      <trkpt lat="46.03447" lon="4.70292">
        <ele>188</ele>
        <time>2018-01-23T10:21:14Z</time>
      </trkpt>
      <trkpt lat="46.03453" lon="4.7029">
        <ele>188</ele>
        <time>2018-01-23T10:21:15Z</time>
      </trkpt>
      <trkpt lat="46.0346" lon="4.70287">
        <ele>188</ele>
        <time>2018-01-23T10:21:16Z</time>
      </trkpt>
      <trkpt lat="46.03467" lon="4.70284">
        <ele>188</ele>
        <time>2018-01-23T10:21:17Z</time>
      </trkpt>
      <trkpt lat="46.03473" lon="4.70282">
        <ele>188</ele>
        <time>2018-01-23T10:21:18Z</time>
      </trkpt>
      <trkpt lat="46.0348" lon="4.70279">
        <ele>188</ele>
        <time>2018-01-23T10:21:19Z</time>
      </trkpt>
      <trkpt lat="46.03487" lon="4.70277">
        <ele>188</ele>
        <time>2018-01-23T10:21:20Z</time>
      </trkpt>
      <trkpt lat="46.03493" lon="4.70274">
        <ele>188</ele>
        <time>2018-01-23T10:21:21Z</time>
      </trkpt>
      <trkpt lat="46.03499" lon="4.70272">
        <ele>187</ele>
        <time>2018-01-23T10:21:22Z</time>
      </trkpt>
      <trkpt lat="46.03504" lon="4.7027">
        <ele>187</ele>
        <time>2018-01-23T10:21:23Z</time>
      </trkpt>
      <trkpt lat="46.0351" lon="4.70266">
        <ele>187</ele>
        <time>2018-01-23T10:21:24Z</time>
      </trkpt>
      <trkpt lat="46.03516" lon="4.70264">
        <ele>187</ele>
        <time>2018-01-23T10:21:25Z</time>
      </trkpt>
      <trkpt lat="46.03521" lon="4.70263">
        <ele>187</ele>
        <time>2018-01-23T10:21:26Z</time>
      </trkpt>
      <trkpt lat="46.03526" lon="4.70263">
        <ele>187</ele>
        <time>2018-01-23T10:21:27Z</time>
      </trkpt>
      <trkpt lat="46.03531" lon="4.7026">
        <ele>187</ele>
        <time>2018-01-23T10:21:28Z</time>
      </trkpt>
      <trkpt lat="46.03536" lon="4.7026">
        <ele>188</ele>
        <time>2018-01-23T10:21:29Z</time>
      </trkpt>
      <trkpt lat="46.03541" lon="4.70257">
        <ele>188</ele>
        <time>2018-01-23T10:21:30Z</time>
      </trkpt>
      <trkpt lat="46.03546" lon="4.70255">
        <ele>188</ele>
        <time>2018-01-23T10:21:31Z</time>
      </trkpt>
      <trkpt lat="46.0355" lon="4.70252">
        <ele>188</ele>
        <time>2018-01-23T10:21:32Z</time>
      </trkpt>
      <trkpt lat="46.03555" lon="4.70251">
        <ele>188</ele>
        <time>2018-01-23T10:21:33Z</time>
      </trkpt>
      <trkpt lat="46.0356" lon="4.70249">
        <ele>190</ele>
        <time>2018-01-23T10:21:34Z</time>
      </trkpt>
      <trkpt lat="46.03564" lon="4.70248">
        <ele>190</ele>
        <time>2018-01-23T10:21:35Z</time>
      </trkpt>
      <trkpt lat="46.0357" lon="4.70247">
        <ele>190</ele>
        <time>2018-01-23T10:21:36Z</time>
      </trkpt>
      <trkpt lat="46.03574" lon="4.70245">
        <ele>190</ele>
        <time>2018-01-23T10:21:37Z</time>
      </trkpt>
      <trkpt lat="46.03579" lon="4.70242">
        <ele>190</ele>
        <time>2018-01-23T10:21:38Z</time>
      </trkpt>
      <trkpt lat="46.03585" lon="4.70241">
        <ele>190</ele>
        <time>2018-01-23T10:21:39Z</time>
      </trkpt>
      <trkpt lat="46.0359" lon="4.7024">
        <ele>190</ele>
        <time>2018-01-23T10:21:40Z</time>
      </trkpt>
      <trkpt lat="46.03595" lon="4.70238">
        <ele>190</ele>
        <time>2018-01-23T10:21:41Z</time>
      </trkpt>
      <trkpt lat="46.036" lon="4.70235">
        <ele>190</ele>
        <time>2018-01-23T10:21:42Z</time>
      </trkpt>
      <trkpt lat="46.03605" lon="4.70233">
        <ele>190</ele>
        <time>2018-01-23T10:21:43Z</time>
      </trkpt>
      <trkpt lat="46.0361" lon="4.70232">
        <ele>190</ele>
        <time>2018-01-23T10:21:44Z</time>
      </trkpt>
      <trkpt lat="46.03615" lon="4.70228">
        <ele>190</ele>
        <time>2018-01-23T10:21:45Z</time>
      </trkpt>
      <trkpt lat="46.03621" lon="4.70226">
        <ele>190</ele>
        <time>2018-01-23T10:21:46Z</time>
      </trkpt>
      <trkpt lat="46.03625" lon="4.70223">
        <ele>190</ele>
        <time>2018-01-23T10:21:47Z</time>
      </trkpt>
      <trkpt lat="46.03629" lon="4.7022">
        <ele>190</ele>
        <time>2018-01-23T10:21:48Z</time>
      </trkpt>
      <trkpt lat="46.03632" lon="4.70225">
        <ele>190</ele>
        <time>2018-01-23T10:21:49Z</time>
      </trkpt>
      <trkpt lat="46.03639" lon="4.7022">
        <ele>190</ele>
        <time>2018-01-23T10:21:50Z</time>
      </trkpt>
      <trkpt lat="46.03646" lon="4.70217">
        <ele>190</ele>
        <time>2018-01-23T10:21:51Z</time>
      </trkpt>
      <trkpt lat="46.03652" lon="4.70217">
        <ele>190</ele>
        <time>2018-01-23T10:21:52Z</time>
      </trkpt>
      <trkpt lat="46.03659" lon="4.70214">
        <ele>190</ele>
        <time>2018-01-23T10:21:53Z</time>
      </trkpt>
      <trkpt lat="46.03665" lon="4.70211">
        <ele>190</ele>
        <time>2018-01-23T10:21:54Z</time>
      </trkpt>
      <trkpt lat="46.03671" lon="4.7021">
        <ele>188</ele>
        <time>2018-01-23T10:21:55Z</time>
      </trkpt>
      <trkpt lat="46.03677" lon="4.70208">
        <ele>189</ele>
        <time>2018-01-23T10:21:56Z</time>
      </trkpt>
      <trkpt lat="46.03683" lon="4.70206">
        <ele>189</ele>
        <time>2018-01-23T10:21:57Z</time>
      </trkpt>
      <trkpt lat="46.03689" lon="4.70204">
        <ele>189</ele>
        <time>2018-01-23T10:21:58Z</time>
      </trkpt>
      <trkpt lat="46.03695" lon="4.70202">
        <ele>188</ele>
        <time>2018-01-23T10:21:59Z</time>
      </trkpt>
      <trkpt lat="46.03701" lon="4.702">
        <ele>188</ele>
        <time>2018-01-23T10:22:00Z</time>
      </trkpt>
      <trkpt lat="46.03707" lon="4.70198">
        <ele>188</ele>
        <time>2018-01-23T10:22:01Z</time>
      </trkpt>
      <trkpt lat="46.03714" lon="4.70194">
        <ele>188</ele>
        <time>2018-01-23T10:22:02Z</time>
      </trkpt>
      <trkpt lat="46.0372" lon="4.70192">
        <ele>188</ele>
        <time>2018-01-23T10:22:03Z</time>
      </trkpt>
      <trkpt lat="46.03726" lon="4.7019">
        <ele>188</ele>
        <time>2018-01-23T10:22:04Z</time>
      </trkpt>
      <trkpt lat="46.03732" lon="4.70187">
        <ele>188</ele>
        <time>2018-01-23T10:22:05Z</time>
      </trkpt>
      <trkpt lat="46.03738" lon="4.70184">
        <ele>188</ele>
        <time>2018-01-23T10:22:06Z</time>
      </trkpt>
      <trkpt lat="46.03743" lon="4.70181">
        <ele>188</ele>
        <time>2018-01-23T10:22:07Z</time>
      </trkpt>
      <trkpt lat="46.03748" lon="4.70179">
        <ele>187</ele>
        <time>2018-01-23T10:22:08Z</time>
      </trkpt>
      <trkpt lat="46.03753" lon="4.70177">
        <ele>188</ele>
        <time>2018-01-23T10:22:09Z</time>
      </trkpt>
      <trkpt lat="46.03757" lon="4.70173">
        <ele>188</ele>
        <time>2018-01-23T10:22:10Z</time>
      </trkpt>
      <trkpt lat="46.0376" lon="4.70171">
        <ele>188</ele>
        <time>2018-01-23T10:22:11Z</time>
      </trkpt>
      <trkpt lat="46.03765" lon="4.70169">
        <ele>188</ele>
        <time>2018-01-23T10:22:12Z</time>
      </trkpt>
      <trkpt lat="46.0377" lon="4.70167">
        <ele>188</ele>
        <time>2018-01-23T10:22:13Z</time>
      </trkpt>
      <trkpt lat="46.03775" lon="4.70164">
        <ele>189</ele>
        <time>2018-01-23T10:22:14Z</time>
      </trkpt>
      <trkpt lat="46.03781" lon="4.70162">
        <ele>189</ele>
        <time>2018-01-23T10:22:15Z</time>
      </trkpt>
      <trkpt lat="46.03785" lon="4.7016">
        <ele>189</ele>
        <time>2018-01-23T10:22:16Z</time>
      </trkpt>
      <trkpt lat="46.0379" lon="4.70156">
        <ele>189</ele>
        <time>2018-01-23T10:22:17Z</time>
      </trkpt>
      <trkpt lat="46.03796" lon="4.70155">
        <ele>189</ele>
        <time>2018-01-23T10:22:18Z</time>
      </trkpt>
      <trkpt lat="46.03802" lon="4.70154">
        <ele>190</ele>
        <time>2018-01-23T10:22:19Z</time>
      </trkpt>
      <trkpt lat="46.03809" lon="4.70152">
        <ele>190</ele>
        <time>2018-01-23T10:22:20Z</time>
      </trkpt>
      <trkpt lat="46.03815" lon="4.70148">
        <ele>190</ele>
        <time>2018-01-23T10:22:21Z</time>
      </trkpt>
      <trkpt lat="46.0382" lon="4.70144">
        <ele>190</ele>
        <time>2018-01-23T10:22:22Z</time>
      </trkpt>
      <trkpt lat="46.03823" lon="4.70142">
        <ele>190</ele>
        <time>2018-01-23T10:22:23Z</time>
      </trkpt>
      <trkpt lat="46.0383" lon="4.7014">
        <ele>190</ele>
        <time>2018-01-23T10:22:24Z</time>
      </trkpt>
      <trkpt lat="46.03838" lon="4.70137">
        <ele>192</ele>
        <time>2018-01-23T10:22:25Z</time>
      </trkpt>
      <trkpt lat="46.03843" lon="4.70134">
        <ele>192</ele>
        <time>2018-01-23T10:22:26Z</time>
      </trkpt>
      <trkpt lat="46.03849" lon="4.70132">
        <ele>192</ele>
        <time>2018-01-23T10:22:27Z</time>
      </trkpt>
      <trkpt lat="46.03855" lon="4.7013">
        <ele>193</ele>
        <time>2018-01-23T10:22:28Z</time>
      </trkpt>
      <trkpt lat="46.03861" lon="4.70128">
        <ele>193</ele>
        <time>2018-01-23T10:22:29Z</time>
      </trkpt>
      <trkpt lat="46.03865" lon="4.70129">
        <ele>193</ele>
        <time>2018-01-23T10:22:30Z</time>
      </trkpt>
      <trkpt lat="46.03873" lon="4.70129">
        <ele>193</ele>
        <time>2018-01-23T10:22:32Z</time>
      </trkpt>
      <trkpt lat="46.03878" lon="4.70127">
        <ele>193</ele>
        <time>2018-01-23T10:22:33Z</time>
      </trkpt>
      <trkpt lat="46.03886" lon="4.70128">
        <ele>193</ele>
        <time>2018-01-23T10:22:35Z</time>
      </trkpt>
      <trkpt lat="46.0389" lon="4.70125">
        <ele>193</ele>
        <time>2018-01-23T10:22:36Z</time>
      </trkpt>
      <trkpt lat="46.03898" lon="4.70123">
        <ele>194</ele>
        <time>2018-01-23T10:22:38Z</time>
      </trkpt>
      <trkpt lat="46.03901" lon="4.7012">
        <ele>194</ele>
        <time>2018-01-23T10:22:39Z</time>
      </trkpt>
      <trkpt lat="46.03905" lon="4.70117">
        <ele>194</ele>
        <time>2018-01-23T10:22:40Z</time>
      </trkpt>
      <trkpt lat="46.03911" lon="4.70119">
        <ele>194</ele>
        <time>2018-01-23T10:22:41Z</time>
      </trkpt>
      <trkpt lat="46.03916" lon="4.70117">
        <ele>194</ele>
        <time>2018-01-23T10:22:42Z</time>
      </trkpt>
      <trkpt lat="46.03921" lon="4.70116">
        <ele>196</ele>
        <time>2018-01-23T10:22:43Z</time>
      </trkpt>
      <trkpt lat="46.03927" lon="4.70113">
        <ele>196</ele>
        <time>2018-01-23T10:22:44Z</time>
      </trkpt>
      <trkpt lat="46.03931" lon="4.70111">
        <ele>196</ele>
        <time>2018-01-23T10:22:45Z</time>
      </trkpt>
      <trkpt lat="46.03936" lon="4.70106">
        <ele>196</ele>
        <time>2018-01-23T10:22:47Z</time>
      </trkpt>
      <trkpt lat="46.03943" lon="4.70108">
        <ele>196</ele>
        <time>2018-01-23T10:22:48Z</time>
      </trkpt>
      <trkpt lat="46.03947" lon="4.70107">
        <ele>196</ele>
        <time>2018-01-23T10:22:49Z</time>
      </trkpt>
      <trkpt lat="46.03953" lon="4.70105">
        <ele>196</ele>
        <time>2018-01-23T10:22:50Z</time>
      </trkpt>
      <trkpt lat="46.03961" lon="4.70102">
        <ele>196</ele>
        <time>2018-01-23T10:22:52Z</time>
      </trkpt>
      <trkpt lat="46.03966" lon="4.70101">
        <ele>196</ele>
        <time>2018-01-23T10:22:53Z</time>
      </trkpt>
      <trkpt lat="46.03971" lon="4.70101">
        <ele>196</ele>
        <time>2018-01-23T10:22:55Z</time>
      </trkpt>
      <trkpt lat="46.03976" lon="4.701">
        <ele>196</ele>
        <time>2018-01-23T10:22:56Z</time>
      </trkpt>
      <trkpt lat="46.03984" lon="4.701">
        <ele>196</ele>
        <time>2018-01-23T10:22:58Z</time>
      </trkpt>
      <trkpt lat="46.03988" lon="4.701">
        <ele>196</ele>
        <time>2018-01-23T10:22:59Z</time>
      </trkpt>
      <trkpt lat="46.03994" lon="4.70095">
        <ele>196</ele>
        <time>2018-01-23T10:23:01Z</time>
      </trkpt>
      <trkpt lat="46.03998" lon="4.70092">
        <ele>196</ele>
        <time>2018-01-23T10:23:02Z</time>
      </trkpt>
      <trkpt lat="46.04002" lon="4.70089">
        <ele>196</ele>
        <time>2018-01-23T10:23:03Z</time>
      </trkpt>
      <trkpt lat="46.04011" lon="4.70087">
        <ele>196</ele>
        <time>2018-01-23T10:23:04Z</time>
      </trkpt>
      <trkpt lat="46.04017" lon="4.70088">
        <ele>195</ele>
        <time>2018-01-23T10:23:05Z</time>
      </trkpt>
      <trkpt lat="46.04023" lon="4.70087">
        <ele>195</ele>
        <time>2018-01-23T10:23:06Z</time>
      </trkpt>
      <trkpt lat="46.04029" lon="4.70084">
        <ele>195</ele>
        <time>2018-01-23T10:23:07Z</time>
      </trkpt>
      <trkpt lat="46.04037" lon="4.70083">
        <ele>195</ele>
        <time>2018-01-23T10:23:08Z</time>
      </trkpt>
      <trkpt lat="46.04043" lon="4.70082">
        <ele>195</ele>
        <time>2018-01-23T10:23:09Z</time>
      </trkpt>
      <trkpt lat="46.0405" lon="4.7008">
        <ele>194</ele>
        <time>2018-01-23T10:23:10Z</time>
      </trkpt>
      <trkpt lat="46.04055" lon="4.7008">
        <ele>194</ele>
        <time>2018-01-23T10:23:11Z</time>
      </trkpt>
      <trkpt lat="46.0406" lon="4.70079">
        <ele>194</ele>
        <time>2018-01-23T10:23:12Z</time>
      </trkpt>
      <trkpt lat="46.04066" lon="4.70078">
        <ele>194</ele>
        <time>2018-01-23T10:23:13Z</time>
      </trkpt>
      <trkpt lat="46.04072" lon="4.70076">
        <ele>194</ele>
        <time>2018-01-23T10:23:14Z</time>
      </trkpt>
      <trkpt lat="46.0408" lon="4.70073">
        <ele>194</ele>
        <time>2018-01-23T10:23:16Z</time>
      </trkpt>
      <trkpt lat="46.04085" lon="4.70072">
        <ele>193</ele>
        <time>2018-01-23T10:23:17Z</time>
      </trkpt>
      <trkpt lat="46.04091" lon="4.70069">
        <ele>193</ele>
        <time>2018-01-23T10:23:19Z</time>
      </trkpt>
      <trkpt lat="46.04097" lon="4.70065">
        <ele>193</ele>
        <time>2018-01-23T10:23:20Z</time>
      </trkpt>
      <trkpt lat="46.04105" lon="4.70063">
        <ele>193</ele>
        <time>2018-01-23T10:23:22Z</time>
      </trkpt>
      <trkpt lat="46.04109" lon="4.7006">
        <ele>192</ele>
        <time>2018-01-23T10:23:23Z</time>
      </trkpt>
      <trkpt lat="46.04115" lon="4.70059">
        <ele>192</ele>
        <time>2018-01-23T10:23:24Z</time>
      </trkpt>
      <trkpt lat="46.0412" lon="4.70057">
        <ele>192</ele>
        <time>2018-01-23T10:23:25Z</time>
      </trkpt>
      <trkpt lat="46.04126" lon="4.70056">
        <ele>192</ele>
        <time>2018-01-23T10:23:26Z</time>
      </trkpt>
      <trkpt lat="46.04132" lon="4.70055">
        <ele>192</ele>
        <time>2018-01-23T10:23:27Z</time>
      </trkpt>
      <trkpt lat="46.04135" lon="4.70052">
        <ele>192</ele>
        <time>2018-01-23T10:23:28Z</time>
      </trkpt>
      <trkpt lat="46.04142" lon="4.70049">
        <ele>192</ele>
        <time>2018-01-23T10:23:29Z</time>
      </trkpt>
      <trkpt lat="46.04148" lon="4.70046">
        <ele>191</ele>
        <time>2018-01-23T10:23:30Z</time>
      </trkpt>
      <trkpt lat="46.04151" lon="4.70046">
        <ele>191</ele>
        <time>2018-01-23T10:23:31Z</time>
      </trkpt>
      <trkpt lat="46.04157" lon="4.70046">
        <ele>191</ele>
        <time>2018-01-23T10:23:33Z</time>
      </trkpt>
      <trkpt lat="46.04162" lon="4.70043">
        <ele>191</ele>
        <time>2018-01-23T10:23:34Z</time>
      </trkpt>
      <trkpt lat="46.0417" lon="4.70044">
        <ele>189</ele>
        <time>2018-01-23T10:23:36Z</time>
      </trkpt>
      <trkpt lat="46.04175" lon="4.70039">
        <ele>189</ele>
        <time>2018-01-23T10:23:37Z</time>
      </trkpt>
      <trkpt lat="46.0418" lon="4.70034">
        <ele>189</ele>
        <time>2018-01-23T10:23:38Z</time>
      </trkpt>
      <trkpt lat="46.04184" lon="4.7003">
        <ele>189</ele>
        <time>2018-01-23T10:23:39Z</time>
      </trkpt>
      <trkpt lat="46.04191" lon="4.70024">
        <ele>188</ele>
        <time>2018-01-23T10:23:40Z</time>
      </trkpt>
      <trkpt lat="46.04196" lon="4.70019">
        <ele>188</ele>
        <time>2018-01-23T10:23:41Z</time>
      </trkpt>
      <trkpt lat="46.04204" lon="4.70013">
        <ele>188</ele>
        <time>2018-01-23T10:23:43Z</time>
      </trkpt>
      <trkpt lat="46.04208" lon="4.70006">
        <ele>188</ele>
        <time>2018-01-23T10:23:44Z</time>
      </trkpt>
      <trkpt lat="46.04214" lon="4.69998">
        <ele>188</ele>
        <time>2018-01-23T10:23:46Z</time>
      </trkpt>
      <trkpt lat="46.04219" lon="4.69992">
        <ele>188</ele>
        <time>2018-01-23T10:23:47Z</time>
      </trkpt>
      <trkpt lat="46.04222" lon="4.69988">
        <ele>188</ele>
        <time>2018-01-23T10:23:48Z</time>
      </trkpt>
      <trkpt lat="46.04227" lon="4.69983">
        <ele>188</ele>
        <time>2018-01-23T10:23:49Z</time>
      </trkpt>
      <trkpt lat="46.04232" lon="4.69978">
        <ele>188</ele>
        <time>2018-01-23T10:23:50Z</time>
      </trkpt>
      <trkpt lat="46.04236" lon="4.69974">
        <ele>188</ele>
        <time>2018-01-23T10:23:51Z</time>
      </trkpt>
      <trkpt lat="46.0424" lon="4.69971">
        <ele>188</ele>
        <time>2018-01-23T10:23:52Z</time>
      </trkpt>
      <trkpt lat="46.04244" lon="4.69967">
        <ele>188</ele>
        <time>2018-01-23T10:23:53Z</time>
      </trkpt>
      <trkpt lat="46.04248" lon="4.69963">
        <ele>188</ele>
        <time>2018-01-23T10:23:54Z</time>
      </trkpt>
      <trkpt lat="46.04252" lon="4.6996">
        <ele>188</ele>
        <time>2018-01-23T10:23:55Z</time>
      </trkpt>
      <trkpt lat="46.04256" lon="4.69957">
        <ele>188</ele>
        <time>2018-01-23T10:23:56Z</time>
      </trkpt>
      <trkpt lat="46.0426" lon="4.69953">
        <ele>188</ele>
        <time>2018-01-23T10:23:57Z</time>
      </trkpt>
      <trkpt lat="46.04266" lon="4.69947">
        <ele>188</ele>
        <time>2018-01-23T10:23:58Z</time>
      </trkpt>
      <trkpt lat="46.0427" lon="4.69943">
        <ele>189</ele>
        <time>2018-01-23T10:23:59Z</time>
      </trkpt>
      <trkpt lat="46.04274" lon="4.6994">
        <ele>189</ele>
        <time>2018-01-23T10:24:00Z</time>
      </trkpt>
      <trkpt lat="46.04278" lon="4.69935">
        <ele>189</ele>
        <time>2018-01-23T10:24:01Z</time>
      </trkpt>
      <trkpt lat="46.04283" lon="4.69931">
        <ele>189</ele>
        <time>2018-01-23T10:24:02Z</time>
      </trkpt>
      <trkpt lat="46.04287" lon="4.69927">
        <ele>189</ele>
        <time>2018-01-23T10:24:03Z</time>
      </trkpt>
      <trkpt lat="46.0429" lon="4.69923">
        <ele>189</ele>
        <time>2018-01-23T10:24:04Z</time>
      </trkpt>
      <trkpt lat="46.04296" lon="4.6992">
        <ele>189</ele>
        <time>2018-01-23T10:24:05Z</time>
      </trkpt>
      <trkpt lat="46.04303" lon="4.69912">
        <ele>190</ele>
        <time>2018-01-23T10:24:07Z</time>
      </trkpt>
      <trkpt lat="46.04306" lon="4.69909">
        <ele>190</ele>
        <time>2018-01-23T10:24:08Z</time>
      </trkpt>
      <trkpt lat="46.0431" lon="4.69904">
        <ele>190</ele>
        <time>2018-01-23T10:24:09Z</time>
      </trkpt>
      <trkpt lat="46.04314" lon="4.69898">
        <ele>190</ele>
        <time>2018-01-23T10:24:10Z</time>
      </trkpt>
      <trkpt lat="46.04317" lon="4.69893">
        <ele>190</ele>
        <time>2018-01-23T10:24:11Z</time>
      </trkpt>
      <trkpt lat="46.04319" lon="4.69887">
        <ele>190</ele>
        <time>2018-01-23T10:24:12Z</time>
      </trkpt>
      <trkpt lat="46.04322" lon="4.69882">
        <ele>190</ele>
        <time>2018-01-23T10:24:13Z</time>
      </trkpt>
      <trkpt lat="46.04325" lon="4.69876">
        <ele>190</ele>
        <time>2018-01-23T10:24:14Z</time>
      </trkpt>
      <trkpt lat="46.04328" lon="4.6987">
        <ele>191</ele>
        <time>2018-01-23T10:24:15Z</time>
      </trkpt>
      <trkpt lat="46.0433" lon="4.69865">
        <ele>191</ele>
        <time>2018-01-23T10:24:16Z</time>
      </trkpt>
      <trkpt lat="46.04337" lon="4.69857">
        <ele>192</ele>
        <time>2018-01-23T10:24:18Z</time>
      </trkpt>
      <trkpt lat="46.0434" lon="4.69854">
        <ele>193</ele>
        <time>2018-01-23T10:24:19Z</time>
      </trkpt>
      <trkpt lat="46.04345" lon="4.69851">
        <ele>193</ele>
        <time>2018-01-23T10:24:20Z</time>
      </trkpt>
      <trkpt lat="46.04349" lon="4.69848">
        <ele>193</ele>
        <time>2018-01-23T10:24:21Z</time>
      </trkpt>
      <trkpt lat="46.04355" lon="4.69843">
        <ele>193</ele>
        <time>2018-01-23T10:24:23Z</time>
      </trkpt>
      <trkpt lat="46.04358" lon="4.69841">
        <ele>193</ele>
        <time>2018-01-23T10:24:24Z</time>
      </trkpt>
      <trkpt lat="46.04366" lon="4.69836">
        <ele>193</ele>
        <time>2018-01-23T10:24:26Z</time>
      </trkpt>
      <trkpt lat="46.0437" lon="4.69834">
        <ele>193</ele>
        <time>2018-01-23T10:24:27Z</time>
      </trkpt>
      <trkpt lat="46.04377" lon="4.69829">
        <ele>194</ele>
        <time>2018-01-23T10:24:29Z</time>
      </trkpt>
      <trkpt lat="46.0438" lon="4.69826">
        <ele>194</ele>
        <time>2018-01-23T10:24:30Z</time>
      </trkpt>
      <trkpt lat="46.04388" lon="4.69822">
        <ele>194</ele>
        <time>2018-01-23T10:24:32Z</time>
      </trkpt>
      <trkpt lat="46.04391" lon="4.69821">
        <ele>194</ele>
        <time>2018-01-23T10:24:33Z</time>
      </trkpt>
      <trkpt lat="46.04399" lon="4.69818">
        <ele>194</ele>
        <time>2018-01-23T10:24:35Z</time>
      </trkpt>
      <trkpt lat="46.04402" lon="4.69818">
        <ele>194</ele>
        <time>2018-01-23T10:24:36Z</time>
      </trkpt>
      <trkpt lat="46.04409" lon="4.69815">
        <ele>194</ele>
        <time>2018-01-23T10:24:38Z</time>
      </trkpt>
      <trkpt lat="46.04412" lon="4.69813">
        <ele>194</ele>
        <time>2018-01-23T10:24:39Z</time>
      </trkpt>
      <trkpt lat="46.04418" lon="4.6981">
        <ele>196</ele>
        <time>2018-01-23T10:24:41Z</time>
      </trkpt>
      <trkpt lat="46.04421" lon="4.6981">
        <ele>196</ele>
        <time>2018-01-23T10:24:42Z</time>
      </trkpt>
      <trkpt lat="46.04428" lon="4.69811">
        <ele>196</ele>
        <time>2018-01-23T10:24:44Z</time>
      </trkpt>
      <trkpt lat="46.04431" lon="4.69811">
        <ele>196</ele>
        <time>2018-01-23T10:24:45Z</time>
      </trkpt>
      <trkpt lat="46.04438" lon="4.69809">
        <ele>196</ele>
        <time>2018-01-23T10:24:47Z</time>
      </trkpt>
      <trkpt lat="46.04442" lon="4.69808">
        <ele>196</ele>
        <time>2018-01-23T10:24:48Z</time>
      </trkpt>
      <trkpt lat="46.04449" lon="4.69805">
        <ele>196</ele>
        <time>2018-01-23T10:24:50Z</time>
      </trkpt>
      <trkpt lat="46.04453" lon="4.69804">
        <ele>196</ele>
        <time>2018-01-23T10:24:51Z</time>
      </trkpt>
      <trkpt lat="46.0446" lon="4.69801">
        <ele>197</ele>
        <time>2018-01-23T10:24:53Z</time>
      </trkpt>
      <trkpt lat="46.04463" lon="4.698">
        <ele>197</ele>
        <time>2018-01-23T10:24:54Z</time>
      </trkpt>
      <trkpt lat="46.0447" lon="4.69798">
        <ele>197</ele>
        <time>2018-01-23T10:24:56Z</time>
      </trkpt>
      <trkpt lat="46.04474" lon="4.69798">
        <ele>197</ele>
        <time>2018-01-23T10:24:57Z</time>
      </trkpt>
      <trkpt lat="46.04481" lon="4.69796">
        <ele>197</ele>
        <time>2018-01-23T10:24:59Z</time>
      </trkpt>
      <trkpt lat="46.04484" lon="4.69795">
        <ele>197</ele>
        <time>2018-01-23T10:25:00Z</time>
      </trkpt>
      <trkpt lat="46.04491" lon="4.69793">
        <ele>197</ele>
        <time>2018-01-23T10:25:02Z</time>
      </trkpt>
      <trkpt lat="46.04494" lon="4.69793">
        <ele>197</ele>
        <time>2018-01-23T10:25:03Z</time>
      </trkpt>
      <trkpt lat="46.04501" lon="4.69791">
        <ele>199</ele>
        <time>2018-01-23T10:25:05Z</time>
      </trkpt>
      <trkpt lat="46.04505" lon="4.69791">
        <ele>199</ele>
        <time>2018-01-23T10:25:06Z</time>
      </trkpt>
      <trkpt lat="46.04511" lon="4.6979">
        <ele>199</ele>
        <time>2018-01-23T10:25:08Z</time>
      </trkpt>
      <trkpt lat="46.04514" lon="4.6979">
        <ele>199</ele>
        <time>2018-01-23T10:25:09Z</time>
      </trkpt>
      <trkpt lat="46.0452" lon="4.69791">
        <ele>199</ele>
        <time>2018-01-23T10:25:11Z</time>
      </trkpt>
      <trkpt lat="46.04523" lon="4.69792">
        <ele>199</ele>
        <time>2018-01-23T10:25:12Z</time>
      </trkpt>
      <trkpt lat="46.04529" lon="4.69793">
        <ele>199</ele>
        <time>2018-01-23T10:25:14Z</time>
      </trkpt>
      <trkpt lat="46.04532" lon="4.69793">
        <ele>199</ele>
        <time>2018-01-23T10:25:15Z</time>
      </trkpt>
      <trkpt lat="46.04538" lon="4.69793">
        <ele>199</ele>
        <time>2018-01-23T10:25:17Z</time>
      </trkpt>
      <trkpt lat="46.04542" lon="4.69794">
        <ele>199</ele>
        <time>2018-01-23T10:25:18Z</time>
      </trkpt>
      <trkpt lat="46.04548" lon="4.69795">
        <ele>199</ele>
        <time>2018-01-23T10:25:20Z</time>
      </trkpt>
      <trkpt lat="46.04551" lon="4.69796">
        <ele>199</ele>
        <time>2018-01-23T10:25:21Z</time>
      </trkpt>
      <trkpt lat="46.04558" lon="4.69797">
        <ele>199</ele>
        <time>2018-01-23T10:25:23Z</time>
      </trkpt>
      <trkpt lat="46.04562" lon="4.69798">
        <ele>200</ele>
        <time>2018-01-23T10:25:24Z</time>
      </trkpt>
      <trkpt lat="46.04569" lon="4.698">
        <ele>200</ele>
        <time>2018-01-23T10:25:26Z</time>
      </trkpt>
      <trkpt lat="46.04573" lon="4.69802">
        <ele>200</ele>
        <time>2018-01-23T10:25:27Z</time>
      </trkpt>
      <trkpt lat="46.04582" lon="4.69805">
        <ele>200</ele>
        <time>2018-01-23T10:25:29Z</time>
      </trkpt>
      <trkpt lat="46.04586" lon="4.69807">
        <ele>201</ele>
        <time>2018-01-23T10:25:30Z</time>
      </trkpt>
      <trkpt lat="46.04594" lon="4.69809">
        <ele>201</ele>
        <time>2018-01-23T10:25:32Z</time>
      </trkpt>
      <trkpt lat="46.04598" lon="4.6981">
        <ele>201</ele>
        <time>2018-01-23T10:25:33Z</time>
      </trkpt>
      <trkpt lat="46.04607" lon="4.69812">
        <ele>201</ele>
        <time>2018-01-23T10:25:35Z</time>
      </trkpt>
      <trkpt lat="46.04611" lon="4.69814">
        <ele>201</ele>
        <time>2018-01-23T10:25:36Z</time>
      </trkpt>
      <trkpt lat="46.0462" lon="4.69818">
        <ele>202</ele>
        <time>2018-01-23T10:25:38Z</time>
      </trkpt>
      <trkpt lat="46.04624" lon="4.6982">
        <ele>202</ele>
        <time>2018-01-23T10:25:39Z</time>
      </trkpt>
      <trkpt lat="46.04632" lon="4.69823">
        <ele>202</ele>
        <time>2018-01-23T10:25:41Z</time>
      </trkpt>
      <trkpt lat="46.04637" lon="4.69824">
        <ele>202</ele>
        <time>2018-01-23T10:25:42Z</time>
      </trkpt>
      <trkpt lat="46.04641" lon="4.69826">
        <ele>202</ele>
        <time>2018-01-23T10:25:43Z</time>
      </trkpt>
      <trkpt lat="46.04646" lon="4.69827">
        <ele>202</ele>
        <time>2018-01-23T10:25:44Z</time>
      </trkpt>
      <trkpt lat="46.0465" lon="4.69829">
        <ele>202</ele>
        <time>2018-01-23T10:25:45Z</time>
      </trkpt>
      <trkpt lat="46.04655" lon="4.69832">
        <ele>202</ele>
        <time>2018-01-23T10:25:46Z</time>
      </trkpt>
      <trkpt lat="46.04659" lon="4.69835">
        <ele>202</ele>
        <time>2018-01-23T10:25:47Z</time>
      </trkpt>
      <trkpt lat="46.04663" lon="4.69837">
        <ele>202</ele>
        <time>2018-01-23T10:25:48Z</time>
      </trkpt>
      <trkpt lat="46.04672" lon="4.6984">
        <ele>203</ele>
        <time>2018-01-23T10:25:50Z</time>
      </trkpt>
      <trkpt lat="46.04676" lon="4.69841">
        <ele>203</ele>
        <time>2018-01-23T10:25:51Z</time>
      </trkpt>
      <trkpt lat="46.04684" lon="4.69843">
        <ele>202</ele>
        <time>2018-01-23T10:25:53Z</time>
      </trkpt>
      <trkpt lat="46.04688" lon="4.69843">
        <ele>202</ele>
        <time>2018-01-23T10:25:54Z</time>
      </trkpt>
      <trkpt lat="46.04696" lon="4.69844">
        <ele>202</ele>
        <time>2018-01-23T10:25:56Z</time>
      </trkpt>
      <trkpt lat="46.047" lon="4.69844">
        <ele>202</ele>
        <time>2018-01-23T10:25:57Z</time>
      </trkpt>
      <trkpt lat="46.04708" lon="4.69845">
        <ele>202</ele>
        <time>2018-01-23T10:25:59Z</time>
      </trkpt>
      <trkpt lat="46.04712" lon="4.69845">
        <ele>203</ele>
        <time>2018-01-23T10:26:00Z</time>
      </trkpt>
      <trkpt lat="46.0472" lon="4.69845">
        <ele>203</ele>
        <time>2018-01-23T10:26:02Z</time>
      </trkpt>
      <trkpt lat="46.04724" lon="4.69845">
        <ele>203</ele>
        <time>2018-01-23T10:26:03Z</time>
      </trkpt>
      <trkpt lat="46.04733" lon="4.69844">
        <ele>203</ele>
        <time>2018-01-23T10:26:05Z</time>
      </trkpt>
      <trkpt lat="46.04737" lon="4.69844">
        <ele>203</ele>
        <time>2018-01-23T10:26:06Z</time>
      </trkpt>
      <trkpt lat="46.04745" lon="4.69844">
        <ele>204</ele>
        <time>2018-01-23T10:26:08Z</time>
      </trkpt>
      <trkpt lat="46.04749" lon="4.69844">
        <ele>204</ele>
        <time>2018-01-23T10:26:09Z</time>
      </trkpt>
      <trkpt lat="46.04757" lon="4.69844">
        <ele>205</ele>
        <time>2018-01-23T10:26:11Z</time>
      </trkpt>
      <trkpt lat="46.04761" lon="4.69845">
        <ele>205</ele>
        <time>2018-01-23T10:26:12Z</time>
      </trkpt>
      <trkpt lat="46.0477" lon="4.69845">
        <ele>204</ele>
        <time>2018-01-23T10:26:14Z</time>
      </trkpt>
      <trkpt lat="46.04774" lon="4.69846">
        <ele>204</ele>
        <time>2018-01-23T10:26:15Z</time>
      </trkpt>
      <trkpt lat="46.04782" lon="4.69846">
        <ele>204</ele>
        <time>2018-01-23T10:26:17Z</time>
      </trkpt>
      <trkpt lat="46.04786" lon="4.69846">
        <ele>205</ele>
        <time>2018-01-23T10:26:18Z</time>
      </trkpt>
      <trkpt lat="46.04794" lon="4.69843">
        <ele>205</ele>
        <time>2018-01-23T10:26:20Z</time>
      </trkpt>
      <trkpt lat="46.04797" lon="4.6984">
        <ele>205</ele>
        <time>2018-01-23T10:26:21Z</time>
      </trkpt>
      <trkpt lat="46.048" lon="4.69828">
        <ele>206</ele>
        <time>2018-01-23T10:26:23Z</time>
      </trkpt>
      <trkpt lat="46.048" lon="4.69822">
        <ele>206</ele>
        <time>2018-01-23T10:26:24Z</time>
      </trkpt>
      <trkpt lat="46.04803" lon="4.69813">
        <ele>206</ele>
        <time>2018-01-23T10:26:26Z</time>
      </trkpt>
      <trkpt lat="46.04805" lon="4.69811">
        <ele>206</ele>
        <time>2018-01-23T10:26:27Z</time>
      </trkpt>
      <trkpt lat="46.04812" lon="4.69812">
        <ele>206</ele>
        <time>2018-01-23T10:26:29Z</time>
      </trkpt>
      <trkpt lat="46.04815" lon="4.69814">
        <ele>207</ele>
        <time>2018-01-23T10:26:30Z</time>
      </trkpt>
      <trkpt lat="46.04823" lon="4.69819">
        <ele>207</ele>
        <time>2018-01-23T10:26:32Z</time>
      </trkpt>
      <trkpt lat="46.04826" lon="4.69821">
        <ele>207</ele>
        <time>2018-01-23T10:26:33Z</time>
      </trkpt>
      <trkpt lat="46.04834" lon="4.69825">
        <ele>207</ele>
        <time>2018-01-23T10:26:35Z</time>
      </trkpt>
      <trkpt lat="46.04838" lon="4.69826">
        <ele>207</ele>
        <time>2018-01-23T10:26:36Z</time>
      </trkpt>
      <trkpt lat="46.04846" lon="4.69828">
        <ele>207</ele>
        <time>2018-01-23T10:26:38Z</time>
      </trkpt>
      <trkpt lat="46.04852" lon="4.69831">
        <ele>207</ele>
        <time>2018-01-23T10:26:39Z</time>
      </trkpt>
      <trkpt lat="46.04856" lon="4.69833">
        <ele>207</ele>
        <time>2018-01-23T10:26:40Z</time>
      </trkpt>
      <trkpt lat="46.04861" lon="4.69834">
        <ele>206</ele>
        <time>2018-01-23T10:26:41Z</time>
      </trkpt>
      <trkpt lat="46.04869" lon="4.69839">
        <ele>206</ele>
        <time>2018-01-23T10:26:43Z</time>
      </trkpt>
      <trkpt lat="46.04874" lon="4.69841">
        <ele>206</ele>
        <time>2018-01-23T10:26:44Z</time>
      </trkpt>
      <trkpt lat="46.04878" lon="4.69844">
        <ele>206</ele>
        <time>2018-01-23T10:26:45Z</time>
      </trkpt>
      <trkpt lat="46.04883" lon="4.69846">
        <ele>206</ele>
        <time>2018-01-23T10:26:46Z</time>
      </trkpt>
      <trkpt lat="46.04887" lon="4.69849">
        <ele>206</ele>
        <time>2018-01-23T10:26:47Z</time>
      </trkpt>
      <trkpt lat="46.04892" lon="4.69853">
        <ele>206</ele>
        <time>2018-01-23T10:26:48Z</time>
      </trkpt>
      <trkpt lat="46.04897" lon="4.69856">
        <ele>206</ele>
        <time>2018-01-23T10:26:49Z</time>
      </trkpt>
      <trkpt lat="46.04901" lon="4.69859">
        <ele>206</ele>
        <time>2018-01-23T10:26:50Z</time>
      </trkpt>
      <trkpt lat="46.04906" lon="4.69862">
        <ele>206</ele>
        <time>2018-01-23T10:26:51Z</time>
      </trkpt>
      <trkpt lat="46.0491" lon="4.69863">
        <ele>206</ele>
        <time>2018-01-23T10:26:52Z</time>
      </trkpt>
      <trkpt lat="46.04914" lon="4.69867">
        <ele>206</ele>
        <time>2018-01-23T10:26:53Z</time>
      </trkpt>
      <trkpt lat="46.04918" lon="4.6987">
        <ele>207</ele>
        <time>2018-01-23T10:26:54Z</time>
      </trkpt>
      <trkpt lat="46.04922" lon="4.69873">
        <ele>207</ele>
        <time>2018-01-23T10:26:55Z</time>
      </trkpt>
      <trkpt lat="46.04927" lon="4.69875">
        <ele>207</ele>
        <time>2018-01-23T10:26:56Z</time>
      </trkpt>
      <trkpt lat="46.04931" lon="4.69877">
        <ele>207</ele>
        <time>2018-01-23T10:26:57Z</time>
      </trkpt>
      <trkpt lat="46.04935" lon="4.69881">
        <ele>207</ele>
        <time>2018-01-23T10:26:58Z</time>
      </trkpt>
      <trkpt lat="46.04939" lon="4.69885">
        <ele>207</ele>
        <time>2018-01-23T10:26:59Z</time>
      </trkpt>
      <trkpt lat="46.04942" lon="4.69889">
        <ele>207</ele>
        <time>2018-01-23T10:27:00Z</time>
      </trkpt>
      <trkpt lat="46.04946" lon="4.69893">
        <ele>207</ele>
        <time>2018-01-23T10:27:01Z</time>
      </trkpt>
      <trkpt lat="46.04949" lon="4.69898">
        <ele>207</ele>
        <time>2018-01-23T10:27:02Z</time>
      </trkpt>
      <trkpt lat="46.04956" lon="4.69904">
        <ele>207</ele>
        <time>2018-01-23T10:27:04Z</time>
      </trkpt>
      <trkpt lat="46.04959" lon="4.69908">
        <ele>206</ele>
        <time>2018-01-23T10:27:05Z</time>
      </trkpt>
      <trkpt lat="46.04964" lon="4.69915">
        <ele>206</ele>
        <time>2018-01-23T10:27:07Z</time>
      </trkpt>
      <trkpt lat="46.04966" lon="4.6992">
        <ele>206</ele>
        <time>2018-01-23T10:27:08Z</time>
      </trkpt>
      <trkpt lat="46.04971" lon="4.69928">
        <ele>206</ele>
        <time>2018-01-23T10:27:10Z</time>
      </trkpt>
      <trkpt lat="46.04974" lon="4.69933">
        <ele>206</ele>
        <time>2018-01-23T10:27:11Z</time>
      </trkpt>
      <trkpt lat="46.04977" lon="4.69938">
        <ele>206</ele>
        <time>2018-01-23T10:27:12Z</time>
      </trkpt>
      <trkpt lat="46.0498" lon="4.69944">
        <ele>206</ele>
        <time>2018-01-23T10:27:13Z</time>
      </trkpt>
      <trkpt lat="46.04983" lon="4.69948">
        <ele>206</ele>
        <time>2018-01-23T10:27:14Z</time>
      </trkpt>
      <trkpt lat="46.04987" lon="4.69954">
        <ele>206</ele>
        <time>2018-01-23T10:27:15Z</time>
      </trkpt>
      <trkpt lat="46.0499" lon="4.69959">
        <ele>205</ele>
        <time>2018-01-23T10:27:16Z</time>
      </trkpt>
      <trkpt lat="46.04993" lon="4.69965">
        <ele>205</ele>
        <time>2018-01-23T10:27:17Z</time>
      </trkpt>
      <trkpt lat="46.04997" lon="4.6997">
        <ele>205</ele>
        <time>2018-01-23T10:27:18Z</time>
      </trkpt>
      <trkpt lat="46.05001" lon="4.69977">
        <ele>205</ele>
        <time>2018-01-23T10:27:19Z</time>
      </trkpt>
      <trkpt lat="46.05004" lon="4.69983">
        <ele>205</ele>
        <time>2018-01-23T10:27:20Z</time>
      </trkpt>
      <trkpt lat="46.05009" lon="4.69987">
        <ele>205</ele>
        <time>2018-01-23T10:27:21Z</time>
      </trkpt>
      <trkpt lat="46.05013" lon="4.69994">
        <ele>205</ele>
        <time>2018-01-23T10:27:22Z</time>
      </trkpt>
      <trkpt lat="46.05017" lon="4.69999">
        <ele>205</ele>
        <time>2018-01-23T10:27:23Z</time>
      </trkpt>
      <trkpt lat="46.05022" lon="4.70006">
        <ele>204</ele>
        <time>2018-01-23T10:27:24Z</time>
      </trkpt>
      <trkpt lat="46.05027" lon="4.70011">
        <ele>204</ele>
        <time>2018-01-23T10:27:25Z</time>
      </trkpt>
      <trkpt lat="46.05032" lon="4.70015">
        <ele>204</ele>
        <time>2018-01-23T10:27:26Z</time>
      </trkpt>
      <trkpt lat="46.05038" lon="4.7002">
        <ele>204</ele>
        <time>2018-01-23T10:27:27Z</time>
      </trkpt>
      <trkpt lat="46.05043" lon="4.70023">
        <ele>204</ele>
        <time>2018-01-23T10:27:28Z</time>
      </trkpt>
      <trkpt lat="46.05049" lon="4.70026">
        <ele>204</ele>
        <time>2018-01-23T10:27:29Z</time>
      </trkpt>
      <trkpt lat="46.05055" lon="4.70029">
        <ele>204</ele>
        <time>2018-01-23T10:27:30Z</time>
      </trkpt>
      <trkpt lat="46.0506" lon="4.70033">
        <ele>204</ele>
        <time>2018-01-23T10:27:31Z</time>
      </trkpt>
      <trkpt lat="46.05065" lon="4.70037">
        <ele>204</ele>
        <time>2018-01-23T10:27:32Z</time>
      </trkpt>
      <trkpt lat="46.0507" lon="4.70039">
        <ele>204</ele>
        <time>2018-01-23T10:27:33Z</time>
      </trkpt>
      <trkpt lat="46.05075" lon="4.7004">
        <ele>204</ele>
        <time>2018-01-23T10:27:34Z</time>
      </trkpt>
      <trkpt lat="46.0508" lon="4.70038">
        <ele>204</ele>
        <time>2018-01-23T10:27:35Z</time>
      </trkpt>
      <trkpt lat="46.05087" lon="4.70031">
        <ele>203</ele>
        <time>2018-01-23T10:27:37Z</time>
      </trkpt>
      <trkpt lat="46.05091" lon="4.70025">
        <ele>203</ele>
        <time>2018-01-23T10:27:38Z</time>
      </trkpt>
      <trkpt lat="46.05093" lon="4.70018">
        <ele>203</ele>
        <time>2018-01-23T10:27:39Z</time>
      </trkpt>
      <trkpt lat="46.05095" lon="4.70011">
        <ele>204</ele>
        <time>2018-01-23T10:27:40Z</time>
      </trkpt>
      <trkpt lat="46.05097" lon="4.70004">
        <ele>204</ele>
        <time>2018-01-23T10:27:41Z</time>
      </trkpt>
      <trkpt lat="46.05098" lon="4.69997">
        <ele>204</ele>
        <time>2018-01-23T10:27:42Z</time>
      </trkpt>
      <trkpt lat="46.051" lon="4.69991">
        <ele>204</ele>
        <time>2018-01-23T10:27:43Z</time>
      </trkpt>
      <trkpt lat="46.05101" lon="4.69983">
        <ele>204</ele>
        <time>2018-01-23T10:27:44Z</time>
      </trkpt>
      <trkpt lat="46.05102" lon="4.69976">
        <ele>203</ele>
        <time>2018-01-23T10:27:45Z</time>
      </trkpt>
      <trkpt lat="46.05103" lon="4.69969">
        <ele>203</ele>
        <time>2018-01-23T10:27:46Z</time>
      </trkpt>
      <trkpt lat="46.05105" lon="4.69962">
        <ele>203</ele>
        <time>2018-01-23T10:27:47Z</time>
      </trkpt>
      <trkpt lat="46.05107" lon="4.69954">
        <ele>203</ele>
        <time>2018-01-23T10:27:48Z</time>
      </trkpt>
      <trkpt lat="46.05108" lon="4.69947">
        <ele>203</ele>
        <time>2018-01-23T10:27:49Z</time>
      </trkpt>
      <trkpt lat="46.05109" lon="4.69939">
        <ele>203</ele>
        <time>2018-01-23T10:27:50Z</time>
      </trkpt>
      <trkpt lat="46.0511" lon="4.69932">
        <ele>203</ele>
        <time>2018-01-23T10:27:51Z</time>
      </trkpt>
      <trkpt lat="46.05111" lon="4.69925">
        <ele>203</ele>
        <time>2018-01-23T10:27:52Z</time>
      </trkpt>
      <trkpt lat="46.05113" lon="4.69917">
        <ele>203</ele>
        <time>2018-01-23T10:27:53Z</time>
      </trkpt>
      <trkpt lat="46.05114" lon="4.69909">
        <ele>204</ele>
        <time>2018-01-23T10:27:54Z</time>
      </trkpt>
      <trkpt lat="46.05115" lon="4.69902">
        <ele>204</ele>
        <time>2018-01-23T10:27:55Z</time>
      </trkpt>
      <trkpt lat="46.05117" lon="4.69894">
        <ele>204</ele>
        <time>2018-01-23T10:27:56Z</time>
      </trkpt>
      <trkpt lat="46.05118" lon="4.69886">
        <ele>204</ele>
        <time>2018-01-23T10:27:57Z</time>
      </trkpt>
      <trkpt lat="46.0512" lon="4.69878">
        <ele>204</ele>
        <time>2018-01-23T10:27:58Z</time>
      </trkpt>
      <trkpt lat="46.05121" lon="4.6987">
        <ele>204</ele>
        <time>2018-01-23T10:27:59Z</time>
      </trkpt>
      <trkpt lat="46.05122" lon="4.69863">
        <ele>204</ele>
        <time>2018-01-23T10:28:00Z</time>
      </trkpt>
      <trkpt lat="46.05123" lon="4.69855">
        <ele>204</ele>
        <time>2018-01-23T10:28:01Z</time>
      </trkpt>
      <trkpt lat="46.05124" lon="4.69847">
        <ele>204</ele>
        <time>2018-01-23T10:28:02Z</time>
      </trkpt>
      <trkpt lat="46.05126" lon="4.69841">
        <ele>204</ele>
        <time>2018-01-23T10:28:03Z</time>
      </trkpt>
      <trkpt lat="46.05129" lon="4.69836">
        <ele>204</ele>
        <time>2018-01-23T10:28:04Z</time>
      </trkpt>
      <trkpt lat="46.05133" lon="4.69832">
        <ele>204</ele>
        <time>2018-01-23T10:28:05Z</time>
      </trkpt>
      <trkpt lat="46.05139" lon="4.69828">
        <ele>204</ele>
        <time>2018-01-23T10:28:06Z</time>
      </trkpt>
      <trkpt lat="46.05144" lon="4.69827">
        <ele>204</ele>
        <time>2018-01-23T10:28:07Z</time>
      </trkpt>
      <trkpt lat="46.05149" lon="4.69828">
        <ele>204</ele>
        <time>2018-01-23T10:28:08Z</time>
      </trkpt>
      <trkpt lat="46.05155" lon="4.6983">
        <ele>203</ele>
        <time>2018-01-23T10:28:09Z</time>
      </trkpt>
      <trkpt lat="46.0516" lon="4.69832">
        <ele>203</ele>
        <time>2018-01-23T10:28:10Z</time>
      </trkpt>
      <trkpt lat="46.05165" lon="4.69835">
        <ele>203</ele>
        <time>2018-01-23T10:28:11Z</time>
      </trkpt>
      <trkpt lat="46.05171" lon="4.69836">
        <ele>203</ele>
        <time>2018-01-23T10:28:12Z</time>
      </trkpt>
      <trkpt lat="46.05177" lon="4.69838">
        <ele>202</ele>
        <time>2018-01-23T10:28:13Z</time>
      </trkpt>
      <trkpt lat="46.05183" lon="4.6984">
        <ele>202</ele>
        <time>2018-01-23T10:28:14Z</time>
      </trkpt>
      <trkpt lat="46.05188" lon="4.69843">
        <ele>202</ele>
        <time>2018-01-23T10:28:15Z</time>
      </trkpt>
      <trkpt lat="46.05194" lon="4.69846">
        <ele>202</ele>
        <time>2018-01-23T10:28:16Z</time>
      </trkpt>
      <trkpt lat="46.052" lon="4.69848">
        <ele>201</ele>
        <time>2018-01-23T10:28:17Z</time>
      </trkpt>
      <trkpt lat="46.05206" lon="4.69849">
        <ele>201</ele>
        <time>2018-01-23T10:28:18Z</time>
      </trkpt>
      <trkpt lat="46.05213" lon="4.69849">
        <ele>201</ele>
        <time>2018-01-23T10:28:19Z</time>
      </trkpt>
      <trkpt lat="46.05219" lon="4.69852">
        <ele>201</ele>
        <time>2018-01-23T10:28:20Z</time>
      </trkpt>
      <trkpt lat="46.05225" lon="4.69854">
        <ele>201</ele>
        <time>2018-01-23T10:28:21Z</time>
      </trkpt>
      <trkpt lat="46.05231" lon="4.69856">
        <ele>201</ele>
        <time>2018-01-23T10:28:22Z</time>
      </trkpt>
      <trkpt lat="46.05238" lon="4.69858">
        <ele>201</ele>
        <time>2018-01-23T10:28:23Z</time>
      </trkpt>
      <trkpt lat="46.05244" lon="4.6986">
        <ele>201</ele>
        <time>2018-01-23T10:28:24Z</time>
      </trkpt>
      <trkpt lat="46.05251" lon="4.6986">
        <ele>199</ele>
        <time>2018-01-23T10:28:25Z</time>
      </trkpt>
      <trkpt lat="46.05257" lon="4.69862">
        <ele>199</ele>
        <time>2018-01-23T10:28:26Z</time>
      </trkpt>
      <trkpt lat="46.05263" lon="4.69865">
        <ele>199</ele>
        <time>2018-01-23T10:28:27Z</time>
      </trkpt>
      <trkpt lat="46.0527" lon="4.69865">
        <ele>199</ele>
        <time>2018-01-23T10:28:28Z</time>
      </trkpt>
      <trkpt lat="46.05275" lon="4.69868">
        <ele>199</ele>
        <time>2018-01-23T10:28:29Z</time>
      </trkpt>
      <trkpt lat="46.05281" lon="4.69869">
        <ele>199</ele>
        <time>2018-01-23T10:28:30Z</time>
      </trkpt>
      <trkpt lat="46.05287" lon="4.69871">
        <ele>199</ele>
        <time>2018-01-23T10:28:31Z</time>
      </trkpt>
      <trkpt lat="46.05293" lon="4.69872">
        <ele>199</ele>
        <time>2018-01-23T10:28:32Z</time>
      </trkpt>
      <trkpt lat="46.05299" lon="4.69874">
        <ele>199</ele>
        <time>2018-01-23T10:28:33Z</time>
      </trkpt>
      <trkpt lat="46.05304" lon="4.69877">
        <ele>199</ele>
        <time>2018-01-23T10:28:34Z</time>
      </trkpt>
      <trkpt lat="46.05309" lon="4.69877">
        <ele>199</ele>
        <time>2018-01-23T10:28:35Z</time>
      </trkpt>
      <trkpt lat="46.05315" lon="4.69877">
        <ele>199</ele>
        <time>2018-01-23T10:28:36Z</time>
      </trkpt>
      <trkpt lat="46.05321" lon="4.69878">
        <ele>199</ele>
        <time>2018-01-23T10:28:37Z</time>
      </trkpt>
      <trkpt lat="46.05326" lon="4.69879">
        <ele>199</ele>
        <time>2018-01-23T10:28:38Z</time>
      </trkpt>
      <trkpt lat="46.05332" lon="4.6988">
        <ele>199</ele>
        <time>2018-01-23T10:28:39Z</time>
      </trkpt>
      <trkpt lat="46.05337" lon="4.69881">
        <ele>199</ele>
        <time>2018-01-23T10:28:40Z</time>
      </trkpt>
      <trkpt lat="46.05343" lon="4.69882">
        <ele>199</ele>
        <time>2018-01-23T10:28:41Z</time>
      </trkpt>
      <trkpt lat="46.05349" lon="4.69884">
        <ele>199</ele>
        <time>2018-01-23T10:28:42Z</time>
      </trkpt>
      <trkpt lat="46.05356" lon="4.69887">
        <ele>199</ele>
        <time>2018-01-23T10:28:43Z</time>
      </trkpt>
      <trkpt lat="46.05362" lon="4.6989">
        <ele>199</ele>
        <time>2018-01-23T10:28:44Z</time>
      </trkpt>
      <trkpt lat="46.05368" lon="4.69893">
        <ele>199</ele>
        <time>2018-01-23T10:28:45Z</time>
      </trkpt>
      <trkpt lat="46.05375" lon="4.69896">
        <ele>199</ele>
        <time>2018-01-23T10:28:46Z</time>
      </trkpt>
      <trkpt lat="46.05381" lon="4.69898">
        <ele>199</ele>
        <time>2018-01-23T10:28:47Z</time>
      </trkpt>
      <trkpt lat="46.05387" lon="4.69899">
        <ele>199</ele>
        <time>2018-01-23T10:28:48Z</time>
      </trkpt>
      <trkpt lat="46.05393" lon="4.699">
        <ele>199</ele>
        <time>2018-01-23T10:28:49Z</time>
      </trkpt>
      <trkpt lat="46.05399" lon="4.69902">
        <ele>199</ele>
        <time>2018-01-23T10:28:50Z</time>
      </trkpt>
      <trkpt lat="46.05404" lon="4.69902">
        <ele>199</ele>
        <time>2018-01-23T10:28:51Z</time>
      </trkpt>
      <trkpt lat="46.0541" lon="4.69903">
        <ele>199</ele>
        <time>2018-01-23T10:28:52Z</time>
      </trkpt>
      <trkpt lat="46.05416" lon="4.69902">
        <ele>199</ele>
        <time>2018-01-23T10:28:53Z</time>
      </trkpt>
      <trkpt lat="46.05421" lon="4.69901">
        <ele>199</ele>
        <time>2018-01-23T10:28:54Z</time>
      </trkpt>
      <trkpt lat="46.05426" lon="4.69901">
        <ele>199</ele>
        <time>2018-01-23T10:28:55Z</time>
      </trkpt>
      <trkpt lat="46.05431" lon="4.699">
        <ele>199</ele>
        <time>2018-01-23T10:28:56Z</time>
      </trkpt>
      <trkpt lat="46.05437" lon="4.69898">
        <ele>199</ele>
        <time>2018-01-23T10:28:57Z</time>
      </trkpt>
      <trkpt lat="46.05442" lon="4.69897">
        <ele>199</ele>
        <time>2018-01-23T10:28:58Z</time>
      </trkpt>
      <trkpt lat="46.05448" lon="4.69894">
        <ele>199</ele>
        <time>2018-01-23T10:28:59Z</time>
      </trkpt>
      <trkpt lat="46.05453" lon="4.69893">
        <ele>199</ele>
        <time>2018-01-23T10:29:00Z</time>
      </trkpt>
      <trkpt lat="46.05458" lon="4.69892">
        <ele>199</ele>
        <time>2018-01-23T10:29:01Z</time>
      </trkpt>
      <trkpt lat="46.05462" lon="4.6989">
        <ele>199</ele>
        <time>2018-01-23T10:29:02Z</time>
      </trkpt>
      <trkpt lat="46.05467" lon="4.69887">
        <ele>199</ele>
        <time>2018-01-23T10:29:03Z</time>
      </trkpt>
      <trkpt lat="46.05471" lon="4.69886">
        <ele>199</ele>
        <time>2018-01-23T10:29:04Z</time>
      </trkpt>
      <trkpt lat="46.05476" lon="4.69884">
        <ele>199</ele>
        <time>2018-01-23T10:29:05Z</time>
      </trkpt>
      <trkpt lat="46.05482" lon="4.69881">
        <ele>199</ele>
        <time>2018-01-23T10:29:06Z</time>
      </trkpt>
      <trkpt lat="46.05487" lon="4.69878">
        <ele>199</ele>
        <time>2018-01-23T10:29:07Z</time>
      </trkpt>
      <trkpt lat="46.05492" lon="4.69878">
        <ele>199</ele>
        <time>2018-01-23T10:29:08Z</time>
      </trkpt>
      <trkpt lat="46.05496" lon="4.69878">
        <ele>199</ele>
        <time>2018-01-23T10:29:09Z</time>
      </trkpt>
      <trkpt lat="46.05501" lon="4.69878">
        <ele>199</ele>
        <time>2018-01-23T10:29:10Z</time>
      </trkpt>
      <trkpt lat="46.05506" lon="4.69876">
        <ele>199</ele>
        <time>2018-01-23T10:29:11Z</time>
      </trkpt>
      <trkpt lat="46.05511" lon="4.69874">
        <ele>199</ele>
        <time>2018-01-23T10:29:12Z</time>
      </trkpt>
      <trkpt lat="46.05517" lon="4.69873">
        <ele>199</ele>
        <time>2018-01-23T10:29:13Z</time>
      </trkpt>
      <trkpt lat="46.05523" lon="4.69871">
        <ele>200</ele>
        <time>2018-01-23T10:29:14Z</time>
      </trkpt>
      <trkpt lat="46.05528" lon="4.6987">
        <ele>200</ele>
        <time>2018-01-23T10:29:15Z</time>
      </trkpt>
      <trkpt lat="46.05534" lon="4.69867">
        <ele>200</ele>
        <time>2018-01-23T10:29:16Z</time>
      </trkpt>
      <trkpt lat="46.05539" lon="4.69865">
        <ele>200</ele>
        <time>2018-01-23T10:29:17Z</time>
      </trkpt>
      <trkpt lat="46.05545" lon="4.69862">
        <ele>200</ele>
        <time>2018-01-23T10:29:18Z</time>
      </trkpt>
      <trkpt lat="46.0555" lon="4.6986">
        <ele>200</ele>
        <time>2018-01-23T10:29:19Z</time>
      </trkpt>
      <trkpt lat="46.05555" lon="4.69857">
        <ele>200</ele>
        <time>2018-01-23T10:29:20Z</time>
      </trkpt>
      <trkpt lat="46.05563" lon="4.69855">
        <ele>200</ele>
        <time>2018-01-23T10:29:22Z</time>
      </trkpt>
      <trkpt lat="46.05567" lon="4.69856">
        <ele>200</ele>
        <time>2018-01-23T10:29:23Z</time>
      </trkpt>
      <trkpt lat="46.05575" lon="4.69861">
        <ele>200</ele>
        <time>2018-01-23T10:29:25Z</time>
      </trkpt>
      <trkpt lat="46.05577" lon="4.69866">
        <ele>200</ele>
        <time>2018-01-23T10:29:26Z</time>
      </trkpt>
      <trkpt lat="46.05581" lon="4.69872">
        <ele>200</ele>
        <time>2018-01-23T10:29:27Z</time>
      </trkpt>
      <trkpt lat="46.05583" lon="4.69877">
        <ele>200</ele>
        <time>2018-01-23T10:29:28Z</time>
      </trkpt>
      <trkpt lat="46.05587" lon="4.69883">
        <ele>201</ele>
        <time>2018-01-23T10:29:29Z</time>
      </trkpt>
      <trkpt lat="46.0559" lon="4.6989">
        <ele>201</ele>
        <time>2018-01-23T10:29:30Z</time>
      </trkpt>
      <trkpt lat="46.05594" lon="4.69896">
        <ele>201</ele>
        <time>2018-01-23T10:29:31Z</time>
      </trkpt>
      <trkpt lat="46.05598" lon="4.69901">
        <ele>201</ele>
        <time>2018-01-23T10:29:32Z</time>
      </trkpt>
      <trkpt lat="46.05601" lon="4.69908">
        <ele>201</ele>
        <time>2018-01-23T10:29:33Z</time>
      </trkpt>
      <trkpt lat="46.05604" lon="4.69914">
        <ele>201</ele>
        <time>2018-01-23T10:29:34Z</time>
      </trkpt>
      <trkpt lat="46.05607" lon="4.6992">
        <ele>201</ele>
        <time>2018-01-23T10:29:35Z</time>
      </trkpt>
      <trkpt lat="46.05611" lon="4.69927">
        <ele>201</ele>
        <time>2018-01-23T10:29:36Z</time>
      </trkpt>
      <trkpt lat="46.05614" lon="4.69932">
        <ele>201</ele>
        <time>2018-01-23T10:29:37Z</time>
      </trkpt>
      <trkpt lat="46.05617" lon="4.69939">
        <ele>200</ele>
        <time>2018-01-23T10:29:38Z</time>
      </trkpt>
      <trkpt lat="46.05621" lon="4.69947">
        <ele>200</ele>
        <time>2018-01-23T10:29:39Z</time>
      </trkpt>
      <trkpt lat="46.05624" lon="4.69953">
        <ele>200</ele>
        <time>2018-01-23T10:29:40Z</time>
      </trkpt>
      <trkpt lat="46.05627" lon="4.6996">
        <ele>200</ele>
        <time>2018-01-23T10:29:41Z</time>
      </trkpt>
      <trkpt lat="46.0563" lon="4.69966">
        <ele>200</ele>
        <time>2018-01-23T10:29:42Z</time>
      </trkpt>
      <trkpt lat="46.05633" lon="4.69972">
        <ele>200</ele>
        <time>2018-01-23T10:29:43Z</time>
      </trkpt>
      <trkpt lat="46.05637" lon="4.69979">
        <ele>200</ele>
        <time>2018-01-23T10:29:44Z</time>
      </trkpt>
      <trkpt lat="46.05641" lon="4.69985">
        <ele>200</ele>
        <time>2018-01-23T10:29:45Z</time>
      </trkpt>
      <trkpt lat="46.05644" lon="4.69992">
        <ele>200</ele>
        <time>2018-01-23T10:29:46Z</time>
      </trkpt>
      <trkpt lat="46.05647" lon="4.69998">
        <ele>200</ele>
        <time>2018-01-23T10:29:47Z</time>
      </trkpt>
      <trkpt lat="46.05651" lon="4.70005">
        <ele>200</ele>
        <time>2018-01-23T10:29:48Z</time>
      </trkpt>
      <trkpt lat="46.05655" lon="4.70012">
        <ele>200</ele>
        <time>2018-01-23T10:29:49Z</time>
      </trkpt>
      <trkpt lat="46.05659" lon="4.7002">
        <ele>200</ele>
        <time>2018-01-23T10:29:50Z</time>
      </trkpt>
      <trkpt lat="46.05662" lon="4.70026">
        <ele>200</ele>
        <time>2018-01-23T10:29:51Z</time>
      </trkpt>
      <trkpt lat="46.05666" lon="4.70033">
        <ele>200</ele>
        <time>2018-01-23T10:29:52Z</time>
      </trkpt>
      <trkpt lat="46.0567" lon="4.70039">
        <ele>199</ele>
        <time>2018-01-23T10:29:53Z</time>
      </trkpt>
      <trkpt lat="46.05674" lon="4.70044">
        <ele>199</ele>
        <time>2018-01-23T10:29:54Z</time>
      </trkpt>
      <trkpt lat="46.05677" lon="4.7005">
        <ele>199</ele>
        <time>2018-01-23T10:29:55Z</time>
      </trkpt>
      <trkpt lat="46.0568" lon="4.7006">
        <ele>199</ele>
        <time>2018-01-23T10:29:56Z</time>
      </trkpt>
      <trkpt lat="46.05683" lon="4.70067">
        <ele>199</ele>
        <time>2018-01-23T10:29:57Z</time>
      </trkpt>
      <trkpt lat="46.05687" lon="4.70073">
        <ele>199</ele>
        <time>2018-01-23T10:29:58Z</time>
      </trkpt>
      <trkpt lat="46.05689" lon="4.70079">
        <ele>199</ele>
        <time>2018-01-23T10:29:59Z</time>
      </trkpt>
      <trkpt lat="46.05692" lon="4.70085">
        <ele>198</ele>
        <time>2018-01-23T10:30:00Z</time>
      </trkpt>
      <trkpt lat="46.05695" lon="4.7009">
        <ele>198</ele>
        <time>2018-01-23T10:30:01Z</time>
      </trkpt>
      <trkpt lat="46.05697" lon="4.70096">
        <ele>198</ele>
        <time>2018-01-23T10:30:02Z</time>
      </trkpt>
      <trkpt lat="46.05699" lon="4.70101">
        <ele>198</ele>
        <time>2018-01-23T10:30:03Z</time>
      </trkpt>
      <trkpt lat="46.05703" lon="4.70108">
        <ele>198</ele>
        <time>2018-01-23T10:30:04Z</time>
      </trkpt>
      <trkpt lat="46.05707" lon="4.70114">
        <ele>198</ele>
        <time>2018-01-23T10:30:05Z</time>
      </trkpt>
      <trkpt lat="46.05711" lon="4.70121">
        <ele>198</ele>
        <time>2018-01-23T10:30:06Z</time>
      </trkpt>
      <trkpt lat="46.05715" lon="4.70127">
        <ele>198</ele>
        <time>2018-01-23T10:30:07Z</time>
      </trkpt>
      <trkpt lat="46.05719" lon="4.70134">
        <ele>198</ele>
        <time>2018-01-23T10:30:08Z</time>
      </trkpt>
      <trkpt lat="46.05723" lon="4.7014">
        <ele>198</ele>
        <time>2018-01-23T10:30:09Z</time>
      </trkpt>
      <trkpt lat="46.05726" lon="4.70146">
        <ele>198</ele>
        <time>2018-01-23T10:30:10Z</time>
      </trkpt>
      <trkpt lat="46.05729" lon="4.70155">
        <ele>198</ele>
        <time>2018-01-23T10:30:11Z</time>
      </trkpt>
      <trkpt lat="46.05733" lon="4.70162">
        <ele>199</ele>
        <time>2018-01-23T10:30:12Z</time>
      </trkpt>
      <trkpt lat="46.05737" lon="4.70169">
        <ele>198</ele>
        <time>2018-01-23T10:30:13Z</time>
      </trkpt>
      <trkpt lat="46.05742" lon="4.70175">
        <ele>198</ele>
        <time>2018-01-23T10:30:14Z</time>
      </trkpt>
      <trkpt lat="46.05745" lon="4.70182">
        <ele>198</ele>
        <time>2018-01-23T10:30:15Z</time>
      </trkpt>
      <trkpt lat="46.05748" lon="4.70188">
        <ele>198</ele>
        <time>2018-01-23T10:30:16Z</time>
      </trkpt>
      <trkpt lat="46.05752" lon="4.70195">
        <ele>198</ele>
        <time>2018-01-23T10:30:17Z</time>
      </trkpt>
      <trkpt lat="46.05755" lon="4.70201">
        <ele>198</ele>
        <time>2018-01-23T10:30:18Z</time>
      </trkpt>
      <trkpt lat="46.05758" lon="4.70207">
        <ele>198</ele>
        <time>2018-01-23T10:30:19Z</time>
      </trkpt>
      <trkpt lat="46.05762" lon="4.70213">
        <ele>198</ele>
        <time>2018-01-23T10:30:20Z</time>
      </trkpt>
      <trkpt lat="46.05765" lon="4.70219">
        <ele>198</ele>
        <time>2018-01-23T10:30:21Z</time>
      </trkpt>
      <trkpt lat="46.05769" lon="4.70225">
        <ele>198</ele>
        <time>2018-01-23T10:30:22Z</time>
      </trkpt>
      <trkpt lat="46.05774" lon="4.70231">
        <ele>198</ele>
        <time>2018-01-23T10:30:23Z</time>
      </trkpt>
      <trkpt lat="46.05778" lon="4.70238">
        <ele>198</ele>
        <time>2018-01-23T10:30:24Z</time>
      </trkpt>
      <trkpt lat="46.05781" lon="4.70244">
        <ele>198</ele>
        <time>2018-01-23T10:30:25Z</time>
      </trkpt>
      <trkpt lat="46.05784" lon="4.70251">
        <ele>198</ele>
        <time>2018-01-23T10:30:26Z</time>
      </trkpt>
      <trkpt lat="46.05788" lon="4.70257">
        <ele>198</ele>
        <time>2018-01-23T10:30:27Z</time>
      </trkpt>
      <trkpt lat="46.05792" lon="4.70262">
        <ele>197</ele>
        <time>2018-01-23T10:30:28Z</time>
      </trkpt>
      <trkpt lat="46.05795" lon="4.70269">
        <ele>197</ele>
        <time>2018-01-23T10:30:29Z</time>
      </trkpt>
      <trkpt lat="46.05799" lon="4.70275">
        <ele>197</ele>
        <time>2018-01-23T10:30:30Z</time>
      </trkpt>
      <trkpt lat="46.05802" lon="4.70281">
        <ele>197</ele>
        <time>2018-01-23T10:30:31Z</time>
      </trkpt>
      <trkpt lat="46.05806" lon="4.7029">
        <ele>197</ele>
        <time>2018-01-23T10:30:32Z</time>
      </trkpt>
      <trkpt lat="46.05811" lon="4.70297">
        <ele>197</ele>
        <time>2018-01-23T10:30:33Z</time>
      </trkpt>
      <trkpt lat="46.05815" lon="4.70303">
        <ele>197</ele>
        <time>2018-01-23T10:30:34Z</time>
      </trkpt>
      <trkpt lat="46.0582" lon="4.70311">
        <ele>197</ele>
        <time>2018-01-23T10:30:35Z</time>
      </trkpt>
      <trkpt lat="46.05824" lon="4.70317">
        <ele>197</ele>
        <time>2018-01-23T10:30:36Z</time>
      </trkpt>
      <trkpt lat="46.05829" lon="4.70323">
        <ele>197</ele>
        <time>2018-01-23T10:30:37Z</time>
      </trkpt>
      <trkpt lat="46.05833" lon="4.70328">
        <ele>197</ele>
        <time>2018-01-23T10:30:38Z</time>
      </trkpt>
      <trkpt lat="46.05838" lon="4.70335">
        <ele>197</ele>
        <time>2018-01-23T10:30:39Z</time>
      </trkpt>
      <trkpt lat="46.05843" lon="4.70341">
        <ele>197</ele>
        <time>2018-01-23T10:30:40Z</time>
      </trkpt>
      <trkpt lat="46.05847" lon="4.70346">
        <ele>196</ele>
        <time>2018-01-23T10:30:41Z</time>
      </trkpt>
      <trkpt lat="46.05851" lon="4.70352">
        <ele>196</ele>
        <time>2018-01-23T10:30:42Z</time>
      </trkpt>
      <trkpt lat="46.05856" lon="4.70358">
        <ele>196</ele>
        <time>2018-01-23T10:30:43Z</time>
      </trkpt>
      <trkpt lat="46.05859" lon="4.70364">
        <ele>196</ele>
        <time>2018-01-23T10:30:44Z</time>
      </trkpt>
      <trkpt lat="46.05863" lon="4.70371">
        <ele>196</ele>
        <time>2018-01-23T10:30:45Z</time>
      </trkpt>
      <trkpt lat="46.05867" lon="4.70377">
        <ele>196</ele>
        <time>2018-01-23T10:30:46Z</time>
      </trkpt>
      <trkpt lat="46.05871" lon="4.70382">
        <ele>196</ele>
        <time>2018-01-23T10:30:47Z</time>
      </trkpt>
      <trkpt lat="46.05875" lon="4.70388">
        <ele>196</ele>
        <time>2018-01-23T10:30:48Z</time>
      </trkpt>
      <trkpt lat="46.0588" lon="4.70394">
        <ele>196</ele>
        <time>2018-01-23T10:30:49Z</time>
      </trkpt>
      <trkpt lat="46.05884" lon="4.704">
        <ele>196</ele>
        <time>2018-01-23T10:30:50Z</time>
      </trkpt>
      <trkpt lat="46.05889" lon="4.70406">
        <ele>196</ele>
        <time>2018-01-23T10:30:51Z</time>
      </trkpt>
      <trkpt lat="46.05893" lon="4.70413">
        <ele>196</ele>
        <time>2018-01-23T10:30:52Z</time>
      </trkpt>
      <trkpt lat="46.05897" lon="4.70422">
        <ele>195</ele>
        <time>2018-01-23T10:30:53Z</time>
      </trkpt>
      <trkpt lat="46.05902" lon="4.70429">
        <ele>195</ele>
        <time>2018-01-23T10:30:54Z</time>
      </trkpt>
      <trkpt lat="46.05906" lon="4.70436">
        <ele>195</ele>
        <time>2018-01-23T10:30:55Z</time>
      </trkpt>
      <trkpt lat="46.05911" lon="4.70443">
        <ele>195</ele>
        <time>2018-01-23T10:30:56Z</time>
      </trkpt>
      <trkpt lat="46.05914" lon="4.70451">
        <ele>195</ele>
        <time>2018-01-23T10:30:57Z</time>
      </trkpt>
      <trkpt lat="46.05918" lon="4.70459">
        <ele>195</ele>
        <time>2018-01-23T10:30:58Z</time>
      </trkpt>
      <trkpt lat="46.05922" lon="4.70468">
        <ele>195</ele>
        <time>2018-01-23T10:30:59Z</time>
      </trkpt>
      <trkpt lat="46.05925" lon="4.70476">
        <ele>195</ele>
        <time>2018-01-23T10:31:00Z</time>
      </trkpt>
      <trkpt lat="46.05928" lon="4.70484">
        <ele>195</ele>
        <time>2018-01-23T10:31:01Z</time>
      </trkpt>
      <trkpt lat="46.0593" lon="4.70494">
        <ele>196</ele>
        <time>2018-01-23T10:31:02Z</time>
      </trkpt>
      <trkpt lat="46.05931" lon="4.70502">
        <ele>195</ele>
        <time>2018-01-23T10:31:03Z</time>
      </trkpt>
      <trkpt lat="46.05932" lon="4.70511">
        <ele>195</ele>
        <time>2018-01-23T10:31:04Z</time>
      </trkpt>
      <trkpt lat="46.0593" lon="4.70519">
        <ele>195</ele>
        <time>2018-01-23T10:31:05Z</time>
      </trkpt>
      <trkpt lat="46.05929" lon="4.70527">
        <ele>195</ele>
        <time>2018-01-23T10:31:06Z</time>
      </trkpt>
      <trkpt lat="46.05927" lon="4.70534">
        <ele>195</ele>
        <time>2018-01-23T10:31:07Z</time>
      </trkpt>
      <trkpt lat="46.05924" lon="4.70542">
        <ele>195</ele>
        <time>2018-01-23T10:31:08Z</time>
      </trkpt>
      <trkpt lat="46.05922" lon="4.7055">
        <ele>195</ele>
        <time>2018-01-23T10:31:09Z</time>
      </trkpt>
      <trkpt lat="46.05919" lon="4.70559">
        <ele>195</ele>
        <time>2018-01-23T10:31:10Z</time>
      </trkpt>
      <trkpt lat="46.05916" lon="4.70567">
        <ele>195</ele>
        <time>2018-01-23T10:31:11Z</time>
      </trkpt>
      <trkpt lat="46.05914" lon="4.70575">
        <ele>195</ele>
        <time>2018-01-23T10:31:12Z</time>
      </trkpt>
      <trkpt lat="46.05912" lon="4.70583">
        <ele>195</ele>
        <time>2018-01-23T10:31:13Z</time>
      </trkpt>
      <trkpt lat="46.05911" lon="4.70592">
        <ele>195</ele>
        <time>2018-01-23T10:31:14Z</time>
      </trkpt>
      <trkpt lat="46.0591" lon="4.706">
        <ele>194</ele>
        <time>2018-01-23T10:31:15Z</time>
      </trkpt>
      <trkpt lat="46.05909" lon="4.70609">
        <ele>194</ele>
        <time>2018-01-23T10:31:16Z</time>
      </trkpt>
      <trkpt lat="46.05907" lon="4.70617">
        <ele>194</ele>
        <time>2018-01-23T10:31:17Z</time>
      </trkpt>
      <trkpt lat="46.05906" lon="4.70626">
        <ele>194</ele>
        <time>2018-01-23T10:31:18Z</time>
      </trkpt>
      <trkpt lat="46.05906" lon="4.70634">
        <ele>194</ele>
        <time>2018-01-23T10:31:19Z</time>
      </trkpt>
      <trkpt lat="46.05905" lon="4.70641">
        <ele>194</ele>
        <time>2018-01-23T10:31:20Z</time>
      </trkpt>
      <trkpt lat="46.05906" lon="4.70648">
        <ele>194</ele>
        <time>2018-01-23T10:31:21Z</time>
      </trkpt>
      <trkpt lat="46.05906" lon="4.70656">
        <ele>194</ele>
        <time>2018-01-23T10:31:22Z</time>
      </trkpt>
      <trkpt lat="46.05906" lon="4.70662">
        <ele>194</ele>
        <time>2018-01-23T10:31:23Z</time>
      </trkpt>
      <trkpt lat="46.05906" lon="4.70669">
        <ele>194</ele>
        <time>2018-01-23T10:31:24Z</time>
      </trkpt>
      <trkpt lat="46.05907" lon="4.70676">
        <ele>194</ele>
        <time>2018-01-23T10:31:25Z</time>
      </trkpt>
      <trkpt lat="46.05908" lon="4.70684">
        <ele>194</ele>
        <time>2018-01-23T10:31:26Z</time>
      </trkpt>
      <trkpt lat="46.05908" lon="4.70692">
        <ele>194</ele>
        <time>2018-01-23T10:31:27Z</time>
      </trkpt>
      <trkpt lat="46.0591" lon="4.707">
        <ele>194</ele>
        <time>2018-01-23T10:31:28Z</time>
      </trkpt>
      <trkpt lat="46.05911" lon="4.70707">
        <ele>194</ele>
        <time>2018-01-23T10:31:29Z</time>
      </trkpt>
      <trkpt lat="46.05912" lon="4.70715">
        <ele>194</ele>
        <time>2018-01-23T10:31:30Z</time>
      </trkpt>
      <trkpt lat="46.05914" lon="4.70724">
        <ele>194</ele>
        <time>2018-01-23T10:31:31Z</time>
      </trkpt>
      <trkpt lat="46.05915" lon="4.70732">
        <ele>194</ele>
        <time>2018-01-23T10:31:32Z</time>
      </trkpt>
      <trkpt lat="46.05916" lon="4.70742">
        <ele>194</ele>
        <time>2018-01-23T10:31:33Z</time>
      </trkpt>
      <trkpt lat="46.05917" lon="4.7075">
        <ele>194</ele>
        <time>2018-01-23T10:31:34Z</time>
      </trkpt>
      <trkpt lat="46.05919" lon="4.70758">
        <ele>194</ele>
        <time>2018-01-23T10:31:35Z</time>
      </trkpt>
      <trkpt lat="46.05921" lon="4.70767">
        <ele>194</ele>
        <time>2018-01-23T10:31:36Z</time>
      </trkpt>
      <trkpt lat="46.05923" lon="4.70775">
        <ele>194</ele>
        <time>2018-01-23T10:31:37Z</time>
      </trkpt>
      <trkpt lat="46.05924" lon="4.70786">
        <ele>194</ele>
        <time>2018-01-23T10:31:38Z</time>
      </trkpt>
      <trkpt lat="46.05926" lon="4.70795">
        <ele>194</ele>
        <time>2018-01-23T10:31:39Z</time>
      </trkpt>
      <trkpt lat="46.05927" lon="4.70805">
        <ele>194</ele>
        <time>2018-01-23T10:31:40Z</time>
      </trkpt>
      <trkpt lat="46.05928" lon="4.70815">
        <ele>194</ele>
        <time>2018-01-23T10:31:41Z</time>
      </trkpt>
      <trkpt lat="46.05929" lon="4.70824">
        <ele>194</ele>
        <time>2018-01-23T10:31:42Z</time>
      </trkpt>
      <trkpt lat="46.0593" lon="4.70833">
        <ele>195</ele>
        <time>2018-01-23T10:31:43Z</time>
      </trkpt>
      <trkpt lat="46.05931" lon="4.70841">
        <ele>194</ele>
        <time>2018-01-23T10:31:44Z</time>
      </trkpt>
      <trkpt lat="46.05932" lon="4.7085">
        <ele>194</ele>
        <time>2018-01-23T10:31:45Z</time>
      </trkpt>
      <trkpt lat="46.05933" lon="4.70859">
        <ele>194</ele>
        <time>2018-01-23T10:31:46Z</time>
      </trkpt>
      <trkpt lat="46.05934" lon="4.70867">
        <ele>194</ele>
        <time>2018-01-23T10:31:47Z</time>
      </trkpt>
      <trkpt lat="46.05934" lon="4.70876">
        <ele>194</ele>
        <time>2018-01-23T10:31:48Z</time>
      </trkpt>
      <trkpt lat="46.05935" lon="4.70884">
        <ele>194</ele>
        <time>2018-01-23T10:31:49Z</time>
      </trkpt>
      <trkpt lat="46.05936" lon="4.70891">
        <ele>194</ele>
        <time>2018-01-23T10:31:50Z</time>
      </trkpt>
      <trkpt lat="46.05936" lon="4.709">
        <ele>194</ele>
        <time>2018-01-23T10:31:51Z</time>
      </trkpt>
      <trkpt lat="46.05937" lon="4.70908">
        <ele>194</ele>
        <time>2018-01-23T10:31:52Z</time>
      </trkpt>
      <trkpt lat="46.05938" lon="4.70916">
        <ele>194</ele>
        <time>2018-01-23T10:31:53Z</time>
      </trkpt>
      <trkpt lat="46.05939" lon="4.70925">
        <ele>194</ele>
        <time>2018-01-23T10:31:54Z</time>
      </trkpt>
      <trkpt lat="46.0594" lon="4.70934">
        <ele>194</ele>
        <time>2018-01-23T10:31:55Z</time>
      </trkpt>
      <trkpt lat="46.05942" lon="4.70943">
        <ele>193</ele>
        <time>2018-01-23T10:31:56Z</time>
      </trkpt>
      <trkpt lat="46.05945" lon="4.70951">
        <ele>193</ele>
        <time>2018-01-23T10:31:57Z</time>
      </trkpt>
      <trkpt lat="46.05947" lon="4.70959">
        <ele>193</ele>
        <time>2018-01-23T10:31:58Z</time>
      </trkpt>
      <trkpt lat="46.0595" lon="4.70967">
        <ele>193</ele>
        <time>2018-01-23T10:31:59Z</time>
      </trkpt>
      <trkpt lat="46.05952" lon="4.70975">
        <ele>193</ele>
        <time>2018-01-23T10:32:00Z</time>
      </trkpt>
      <trkpt lat="46.05954" lon="4.70983">
        <ele>193</ele>
        <time>2018-01-23T10:32:01Z</time>
      </trkpt>
      <trkpt lat="46.05957" lon="4.70991">
        <ele>193</ele>
        <time>2018-01-23T10:32:02Z</time>
      </trkpt>
      <trkpt lat="46.0596" lon="4.70998">
        <ele>193</ele>
        <time>2018-01-23T10:32:03Z</time>
      </trkpt>
      <trkpt lat="46.05962" lon="4.71008">
        <ele>193</ele>
        <time>2018-01-23T10:32:04Z</time>
      </trkpt>
      <trkpt lat="46.05964" lon="4.71015">
        <ele>193</ele>
        <time>2018-01-23T10:32:05Z</time>
      </trkpt>
      <trkpt lat="46.05967" lon="4.71021">
        <ele>193</ele>
        <time>2018-01-23T10:32:06Z</time>
      </trkpt>
      <trkpt lat="46.0597" lon="4.71029">
        <ele>193</ele>
        <time>2018-01-23T10:32:07Z</time>
      </trkpt>
      <trkpt lat="46.05973" lon="4.71037">
        <ele>193</ele>
        <time>2018-01-23T10:32:08Z</time>
      </trkpt>
      <trkpt lat="46.05976" lon="4.71043">
        <ele>193</ele>
        <time>2018-01-23T10:32:09Z</time>
      </trkpt>
      <trkpt lat="46.05979" lon="4.71051">
        <ele>193</ele>
        <time>2018-01-23T10:32:10Z</time>
      </trkpt>
      <trkpt lat="46.05982" lon="4.71058">
        <ele>193</ele>
        <time>2018-01-23T10:32:11Z</time>
      </trkpt>
      <trkpt lat="46.05985" lon="4.71065">
        <ele>193</ele>
        <time>2018-01-23T10:32:12Z</time>
      </trkpt>
      <trkpt lat="46.05988" lon="4.71072">
        <ele>193</ele>
        <time>2018-01-23T10:32:13Z</time>
      </trkpt>
      <trkpt lat="46.0599" lon="4.71079">
        <ele>193</ele>
        <time>2018-01-23T10:32:14Z</time>
      </trkpt>
      <trkpt lat="46.05993" lon="4.71086">
        <ele>193</ele>
        <time>2018-01-23T10:32:15Z</time>
      </trkpt>
      <trkpt lat="46.05996" lon="4.71091">
        <ele>193</ele>
        <time>2018-01-23T10:32:16Z</time>
      </trkpt>
      <trkpt lat="46.05999" lon="4.71098">
        <ele>193</ele>
        <time>2018-01-23T10:32:17Z</time>
      </trkpt>
      <trkpt lat="46.06" lon="4.71104">
        <ele>193</ele>
        <time>2018-01-23T10:32:18Z</time>
      </trkpt>
      <trkpt lat="46.06003" lon="4.71111">
        <ele>193</ele>
        <time>2018-01-23T10:32:19Z</time>
      </trkpt>
      <trkpt lat="46.06005" lon="4.71118">
        <ele>193</ele>
        <time>2018-01-23T10:32:20Z</time>
      </trkpt>
      <trkpt lat="46.06008" lon="4.71125">
        <ele>193</ele>
        <time>2018-01-23T10:32:21Z</time>
      </trkpt>
      <trkpt lat="46.06011" lon="4.71133">
        <ele>193</ele>
        <time>2018-01-23T10:32:22Z</time>
      </trkpt>
      <trkpt lat="46.06013" lon="4.7114">
        <ele>193</ele>
        <time>2018-01-23T10:32:23Z</time>
      </trkpt>
      <trkpt lat="46.06015" lon="4.71147">
        <ele>193</ele>
        <time>2018-01-23T10:32:24Z</time>
      </trkpt>
      <trkpt lat="46.06018" lon="4.71155">
        <ele>194</ele>
        <time>2018-01-23T10:32:25Z</time>
      </trkpt>
      <trkpt lat="46.06021" lon="4.71161">
        <ele>194</ele>
        <time>2018-01-23T10:32:26Z</time>
      </trkpt>
      <trkpt lat="46.06024" lon="4.71169">
        <ele>194</ele>
        <time>2018-01-23T10:32:27Z</time>
      </trkpt>
      <trkpt lat="46.06025" lon="4.71178">
        <ele>193</ele>
        <time>2018-01-23T10:32:28Z</time>
      </trkpt>
      <trkpt lat="46.06028" lon="4.71185">
        <ele>193</ele>
        <time>2018-01-23T10:32:29Z</time>
      </trkpt>
      <trkpt lat="46.06031" lon="4.71192">
        <ele>193</ele>
        <time>2018-01-23T10:32:30Z</time>
      </trkpt>
      <trkpt lat="46.06034" lon="4.71198">
        <ele>193</ele>
        <time>2018-01-23T10:32:31Z</time>
      </trkpt>
      <trkpt lat="46.06036" lon="4.71205">
        <ele>193</ele>
        <time>2018-01-23T10:32:32Z</time>
      </trkpt>
      <trkpt lat="46.06039" lon="4.71213">
        <ele>193</ele>
        <time>2018-01-23T10:32:33Z</time>
      </trkpt>
      <trkpt lat="46.06041" lon="4.7122">
        <ele>193</ele>
        <time>2018-01-23T10:32:34Z</time>
      </trkpt>
      <trkpt lat="46.06043" lon="4.71227">
        <ele>193</ele>
        <time>2018-01-23T10:32:35Z</time>
      </trkpt>
      <trkpt lat="46.06046" lon="4.71235">
        <ele>193</ele>
        <time>2018-01-23T10:32:36Z</time>
      </trkpt>
      <trkpt lat="46.06048" lon="4.71242">
        <ele>193</ele>
        <time>2018-01-23T10:32:37Z</time>
      </trkpt>
      <trkpt lat="46.0605" lon="4.7125">
        <ele>193</ele>
        <time>2018-01-23T10:32:38Z</time>
      </trkpt>
      <trkpt lat="46.06053" lon="4.71257">
        <ele>193</ele>
        <time>2018-01-23T10:32:39Z</time>
      </trkpt>
      <trkpt lat="46.06055" lon="4.71264">
        <ele>193</ele>
        <time>2018-01-23T10:32:40Z</time>
      </trkpt>
      <trkpt lat="46.0606" lon="4.7127">
        <ele>193</ele>
        <time>2018-01-23T10:32:41Z</time>
      </trkpt>
      <trkpt lat="46.06062" lon="4.71277">
        <ele>193</ele>
        <time>2018-01-23T10:32:42Z</time>
      </trkpt>
      <trkpt lat="46.06065" lon="4.71284">
        <ele>193</ele>
        <time>2018-01-23T10:32:43Z</time>
      </trkpt>
      <trkpt lat="46.06068" lon="4.71291">
        <ele>193</ele>
        <time>2018-01-23T10:32:44Z</time>
      </trkpt>
      <trkpt lat="46.0607" lon="4.71298">
        <ele>193</ele>
        <time>2018-01-23T10:32:45Z</time>
      </trkpt>
      <trkpt lat="46.06073" lon="4.71304">
        <ele>193</ele>
        <time>2018-01-23T10:32:46Z</time>
      </trkpt>
      <trkpt lat="46.06075" lon="4.71311">
        <ele>193</ele>
        <time>2018-01-23T10:32:47Z</time>
      </trkpt>
      <trkpt lat="46.06077" lon="4.71318">
        <ele>193</ele>
        <time>2018-01-23T10:32:48Z</time>
      </trkpt>
      <trkpt lat="46.06079" lon="4.71324">
        <ele>193</ele>
        <time>2018-01-23T10:32:49Z</time>
      </trkpt>
      <trkpt lat="46.06081" lon="4.71331">
        <ele>193</ele>
        <time>2018-01-23T10:32:50Z</time>
      </trkpt>
      <trkpt lat="46.06084" lon="4.71336">
        <ele>193</ele>
        <time>2018-01-23T10:32:51Z</time>
      </trkpt>
      <trkpt lat="46.06086" lon="4.71342">
        <ele>193</ele>
        <time>2018-01-23T10:32:52Z</time>
      </trkpt>
      <trkpt lat="46.06089" lon="4.71348">
        <ele>193</ele>
        <time>2018-01-23T10:32:53Z</time>
      </trkpt>
      <trkpt lat="46.0609" lon="4.71354">
        <ele>193</ele>
        <time>2018-01-23T10:32:54Z</time>
      </trkpt>
      <trkpt lat="46.06092" lon="4.71361">
        <ele>193</ele>
        <time>2018-01-23T10:32:55Z</time>
      </trkpt>
      <trkpt lat="46.06093" lon="4.71367">
        <ele>193</ele>
        <time>2018-01-23T10:32:56Z</time>
      </trkpt>
      <trkpt lat="46.06095" lon="4.71374">
        <ele>193</ele>
        <time>2018-01-23T10:32:57Z</time>
      </trkpt>
      <trkpt lat="46.06098" lon="4.7138">
        <ele>193</ele>
        <time>2018-01-23T10:32:58Z</time>
      </trkpt>
      <trkpt lat="46.061" lon="4.71389">
        <ele>193</ele>
        <time>2018-01-23T10:32:59Z</time>
      </trkpt>
      <trkpt lat="46.06102" lon="4.71395">
        <ele>193</ele>
        <time>2018-01-23T10:33:00Z</time>
      </trkpt>
      <trkpt lat="46.06104" lon="4.71402">
        <ele>193</ele>
        <time>2018-01-23T10:33:01Z</time>
      </trkpt>
      <trkpt lat="46.06106" lon="4.71409">
        <ele>193</ele>
        <time>2018-01-23T10:33:02Z</time>
      </trkpt>
      <trkpt lat="46.06109" lon="4.71416">
        <ele>193</ele>
        <time>2018-01-23T10:33:03Z</time>
      </trkpt>
      <trkpt lat="46.06111" lon="4.71424">
        <ele>193</ele>
        <time>2018-01-23T10:33:04Z</time>
      </trkpt>
      <trkpt lat="46.06113" lon="4.71431">
        <ele>193</ele>
        <time>2018-01-23T10:33:05Z</time>
      </trkpt>
      <trkpt lat="46.06116" lon="4.71439">
        <ele>193</ele>
        <time>2018-01-23T10:33:06Z</time>
      </trkpt>
      <trkpt lat="46.06117" lon="4.71448">
        <ele>193</ele>
        <time>2018-01-23T10:33:07Z</time>
      </trkpt>
      <trkpt lat="46.06119" lon="4.71455">
        <ele>193</ele>
        <time>2018-01-23T10:33:08Z</time>
      </trkpt>
      <trkpt lat="46.06121" lon="4.71462">
        <ele>193</ele>
        <time>2018-01-23T10:33:09Z</time>
      </trkpt>
      <trkpt lat="46.06124" lon="4.71469">
        <ele>193</ele>
        <time>2018-01-23T10:33:10Z</time>
      </trkpt>
      <trkpt lat="46.06126" lon="4.71476">
        <ele>192</ele>
        <time>2018-01-23T10:33:11Z</time>
      </trkpt>
      <trkpt lat="46.06129" lon="4.71486">
        <ele>192</ele>
        <time>2018-01-23T10:33:12Z</time>
      </trkpt>
      <trkpt lat="46.06131" lon="4.71494">
        <ele>192</ele>
        <time>2018-01-23T10:33:13Z</time>
      </trkpt>
      <trkpt lat="46.06134" lon="4.71501">
        <ele>192</ele>
        <time>2018-01-23T10:33:14Z</time>
      </trkpt>
      <trkpt lat="46.06138" lon="4.71509">
        <ele>192</ele>
        <time>2018-01-23T10:33:15Z</time>
      </trkpt>
      <trkpt lat="46.06141" lon="4.71516">
        <ele>192</ele>
        <time>2018-01-23T10:33:16Z</time>
      </trkpt>
      <trkpt lat="46.06144" lon="4.71523">
        <ele>192</ele>
        <time>2018-01-23T10:33:17Z</time>
      </trkpt>
      <trkpt lat="46.06148" lon="4.71529">
        <ele>192</ele>
        <time>2018-01-23T10:33:18Z</time>
      </trkpt>
      <trkpt lat="46.06151" lon="4.71536">
        <ele>192</ele>
        <time>2018-01-23T10:33:19Z</time>
      </trkpt>
      <trkpt lat="46.06155" lon="4.71543">
        <ele>192</ele>
        <time>2018-01-23T10:33:20Z</time>
      </trkpt>
      <trkpt lat="46.0616" lon="4.71548">
        <ele>192</ele>
        <time>2018-01-23T10:33:21Z</time>
      </trkpt>
      <trkpt lat="46.06164" lon="4.71554">
        <ele>192</ele>
        <time>2018-01-23T10:33:22Z</time>
      </trkpt>
      <trkpt lat="46.06169" lon="4.71559">
        <ele>191</ele>
        <time>2018-01-23T10:33:23Z</time>
      </trkpt>
      <trkpt lat="46.06173" lon="4.71564">
        <ele>191</ele>
        <time>2018-01-23T10:33:24Z</time>
      </trkpt>
      <trkpt lat="46.06177" lon="4.7157">
        <ele>191</ele>
        <time>2018-01-23T10:33:25Z</time>
      </trkpt>
      <trkpt lat="46.06181" lon="4.71576">
        <ele>191</ele>
        <time>2018-01-23T10:33:26Z</time>
      </trkpt>
      <trkpt lat="46.06185" lon="4.71581">
        <ele>191</ele>
        <time>2018-01-23T10:33:27Z</time>
      </trkpt>
      <trkpt lat="46.06189" lon="4.71586">
        <ele>191</ele>
        <time>2018-01-23T10:33:28Z</time>
      </trkpt>
      <trkpt lat="46.06193" lon="4.71591">
        <ele>191</ele>
        <time>2018-01-23T10:33:29Z</time>
      </trkpt>
      <trkpt lat="46.06197" lon="4.71598">
        <ele>191</ele>
        <time>2018-01-23T10:33:30Z</time>
      </trkpt>
      <trkpt lat="46.062" lon="4.71604">
        <ele>191</ele>
        <time>2018-01-23T10:33:31Z</time>
      </trkpt>
      <trkpt lat="46.06204" lon="4.7161">
        <ele>191</ele>
        <time>2018-01-23T10:33:32Z</time>
      </trkpt>
      <trkpt lat="46.06207" lon="4.71615">
        <ele>191</ele>
        <time>2018-01-23T10:33:33Z</time>
      </trkpt>
      <trkpt lat="46.0621" lon="4.71621">
        <ele>191</ele>
        <time>2018-01-23T10:33:34Z</time>
      </trkpt>
      <trkpt lat="46.06214" lon="4.71626">
        <ele>191</ele>
        <time>2018-01-23T10:33:35Z</time>
      </trkpt>
      <trkpt lat="46.06218" lon="4.7163">
        <ele>191</ele>
        <time>2018-01-23T10:33:36Z</time>
      </trkpt>
      <trkpt lat="46.06222" lon="4.71636">
        <ele>191</ele>
        <time>2018-01-23T10:33:37Z</time>
      </trkpt>
      <trkpt lat="46.06226" lon="4.71642">
        <ele>191</ele>
        <time>2018-01-23T10:33:38Z</time>
      </trkpt>
      <trkpt lat="46.0623" lon="4.71648">
        <ele>191</ele>
        <time>2018-01-23T10:33:39Z</time>
      </trkpt>
      <trkpt lat="46.06233" lon="4.71655">
        <ele>191</ele>
        <time>2018-01-23T10:33:40Z</time>
      </trkpt>
      <trkpt lat="46.06236" lon="4.71661">
        <ele>191</ele>
        <time>2018-01-23T10:33:41Z</time>
      </trkpt>
      <trkpt lat="46.06239" lon="4.71669">
        <ele>191</ele>
        <time>2018-01-23T10:33:42Z</time>
      </trkpt>
      <trkpt lat="46.06242" lon="4.71677">
        <ele>191</ele>
        <time>2018-01-23T10:33:43Z</time>
      </trkpt>
      <trkpt lat="46.06243" lon="4.71684">
        <ele>191</ele>
        <time>2018-01-23T10:33:44Z</time>
      </trkpt>
      <trkpt lat="46.06246" lon="4.71691">
        <ele>191</ele>
        <time>2018-01-23T10:33:45Z</time>
      </trkpt>
      <trkpt lat="46.06248" lon="4.71698">
        <ele>191</ele>
        <time>2018-01-23T10:33:46Z</time>
      </trkpt>
      <trkpt lat="46.06251" lon="4.71705">
        <ele>190</ele>
        <time>2018-01-23T10:33:47Z</time>
      </trkpt>
      <trkpt lat="46.06254" lon="4.71713">
        <ele>190</ele>
        <time>2018-01-23T10:33:48Z</time>
      </trkpt>
      <trkpt lat="46.06256" lon="4.7172">
        <ele>190</ele>
        <time>2018-01-23T10:33:49Z</time>
      </trkpt>
      <trkpt lat="46.06259" lon="4.71728">
        <ele>190</ele>
        <time>2018-01-23T10:33:50Z</time>
      </trkpt>
      <trkpt lat="46.06262" lon="4.71735">
        <ele>190</ele>
        <time>2018-01-23T10:33:51Z</time>
      </trkpt>
      <trkpt lat="46.06265" lon="4.71743">
        <ele>190</ele>
        <time>2018-01-23T10:33:52Z</time>
      </trkpt>
      <trkpt lat="46.06267" lon="4.7175">
        <ele>190</ele>
        <time>2018-01-23T10:33:53Z</time>
      </trkpt>
      <trkpt lat="46.06269" lon="4.71758">
        <ele>190</ele>
        <time>2018-01-23T10:33:54Z</time>
      </trkpt>
      <trkpt lat="46.06271" lon="4.71767">
        <ele>190</ele>
        <time>2018-01-23T10:33:55Z</time>
      </trkpt>
      <trkpt lat="46.06274" lon="4.71775">
        <ele>190</ele>
        <time>2018-01-23T10:33:56Z</time>
      </trkpt>
      <trkpt lat="46.06275" lon="4.71783">
        <ele>190</ele>
        <time>2018-01-23T10:33:57Z</time>
      </trkpt>
      <trkpt lat="46.06278" lon="4.7179">
        <ele>190</ele>
        <time>2018-01-23T10:33:58Z</time>
      </trkpt>
      <trkpt lat="46.0628" lon="4.71798">
        <ele>190</ele>
        <time>2018-01-23T10:33:59Z</time>
      </trkpt>
      <trkpt lat="46.06283" lon="4.71806">
        <ele>190</ele>
        <time>2018-01-23T10:34:00Z</time>
      </trkpt>
      <trkpt lat="46.06284" lon="4.71814">
        <ele>189</ele>
        <time>2018-01-23T10:34:01Z</time>
      </trkpt>
      <trkpt lat="46.06286" lon="4.71822">
        <ele>189</ele>
        <time>2018-01-23T10:34:02Z</time>
      </trkpt>
      <trkpt lat="46.06288" lon="4.71831">
        <ele>189</ele>
        <time>2018-01-23T10:34:03Z</time>
      </trkpt>
      <trkpt lat="46.06291" lon="4.7184">
        <ele>189</ele>
        <time>2018-01-23T10:34:04Z</time>
      </trkpt>
      <trkpt lat="46.06293" lon="4.7185">
        <ele>189</ele>
        <time>2018-01-23T10:34:05Z</time>
      </trkpt>
      <trkpt lat="46.06295" lon="4.71859">
        <ele>189</ele>
        <time>2018-01-23T10:34:06Z</time>
      </trkpt>
      <trkpt lat="46.06297" lon="4.71868">
        <ele>189</ele>
        <time>2018-01-23T10:34:07Z</time>
      </trkpt>
      <trkpt lat="46.06299" lon="4.71878">
        <ele>189</ele>
        <time>2018-01-23T10:34:08Z</time>
      </trkpt>
      <trkpt lat="46.06301" lon="4.71887">
        <ele>189</ele>
        <time>2018-01-23T10:34:09Z</time>
      </trkpt>
      <trkpt lat="46.06303" lon="4.719">
        <ele>189</ele>
        <time>2018-01-23T10:34:10Z</time>
      </trkpt>
      <trkpt lat="46.06306" lon="4.71908">
        <ele>189</ele>
        <time>2018-01-23T10:34:11Z</time>
      </trkpt>
      <trkpt lat="46.06309" lon="4.71917">
        <ele>189</ele>
        <time>2018-01-23T10:34:12Z</time>
      </trkpt>
      <trkpt lat="46.06311" lon="4.71925">
        <ele>190</ele>
        <time>2018-01-23T10:34:13Z</time>
      </trkpt>
      <trkpt lat="46.06312" lon="4.71932">
        <ele>190</ele>
        <time>2018-01-23T10:34:14Z</time>
      </trkpt>
      <trkpt lat="46.06313" lon="4.71939">
        <ele>190</ele>
        <time>2018-01-23T10:34:15Z</time>
      </trkpt>
      <trkpt lat="46.06314" lon="4.71946">
        <ele>190</ele>
        <time>2018-01-23T10:34:16Z</time>
      </trkpt>
      <trkpt lat="46.06317" lon="4.71957">
        <ele>190</ele>
        <time>2018-01-23T10:34:18Z</time>
      </trkpt>
      <trkpt lat="46.06318" lon="4.71964">
        <ele>190</ele>
        <time>2018-01-23T10:34:19Z</time>
      </trkpt>
      <trkpt lat="46.06323" lon="4.71974">
        <ele>190</ele>
        <time>2018-01-23T10:34:21Z</time>
      </trkpt>
      <trkpt lat="46.06325" lon="4.7198">
        <ele>190</ele>
        <time>2018-01-23T10:34:22Z</time>
      </trkpt>
      <trkpt lat="46.06327" lon="4.71991">
        <ele>189</ele>
        <time>2018-01-23T10:34:24Z</time>
      </trkpt>
      <trkpt lat="46.0633" lon="4.71997">
        <ele>189</ele>
        <time>2018-01-23T10:34:25Z</time>
      </trkpt>
      <trkpt lat="46.06332" lon="4.72003">
        <ele>189</ele>
        <time>2018-01-23T10:34:26Z</time>
      </trkpt>
      <trkpt lat="46.06334" lon="4.7201">
        <ele>189</ele>
        <time>2018-01-23T10:34:27Z</time>
      </trkpt>
      <trkpt lat="46.06336" lon="4.72016">
        <ele>189</ele>
        <time>2018-01-23T10:34:28Z</time>
      </trkpt>
      <trkpt lat="46.06339" lon="4.72022">
        <ele>189</ele>
        <time>2018-01-23T10:34:29Z</time>
      </trkpt>
      <trkpt lat="46.06341" lon="4.72028">
        <ele>189</ele>
        <time>2018-01-23T10:34:30Z</time>
      </trkpt>
      <trkpt lat="46.06342" lon="4.72034">
        <ele>189</ele>
        <time>2018-01-23T10:34:31Z</time>
      </trkpt>
      <trkpt lat="46.06344" lon="4.7204">
        <ele>189</ele>
        <time>2018-01-23T10:34:32Z</time>
      </trkpt>
      <trkpt lat="46.06348" lon="4.72045">
        <ele>189</ele>
        <time>2018-01-23T10:34:33Z</time>
      </trkpt>
      <trkpt lat="46.0635" lon="4.72051">
        <ele>189</ele>
        <time>2018-01-23T10:34:34Z</time>
      </trkpt>
      <trkpt lat="46.06352" lon="4.72057">
        <ele>189</ele>
        <time>2018-01-23T10:34:35Z</time>
      </trkpt>
      <trkpt lat="46.06354" lon="4.72063">
        <ele>189</ele>
        <time>2018-01-23T10:34:36Z</time>
      </trkpt>
      <trkpt lat="46.06356" lon="4.72069">
        <ele>189</ele>
        <time>2018-01-23T10:34:37Z</time>
      </trkpt>
      <trkpt lat="46.06358" lon="4.72075">
        <ele>189</ele>
        <time>2018-01-23T10:34:38Z</time>
      </trkpt>
      <trkpt lat="46.0636" lon="4.72081">
        <ele>189</ele>
        <time>2018-01-23T10:34:39Z</time>
      </trkpt>
      <trkpt lat="46.06363" lon="4.72087">
        <ele>189</ele>
        <time>2018-01-23T10:34:40Z</time>
      </trkpt>
      <trkpt lat="46.06365" lon="4.72094">
        <ele>189</ele>
        <time>2018-01-23T10:34:41Z</time>
      </trkpt>
      <trkpt lat="46.06367" lon="4.72101">
        <ele>189</ele>
        <time>2018-01-23T10:34:42Z</time>
      </trkpt>
      <trkpt lat="46.06369" lon="4.72108">
        <ele>189</ele>
        <time>2018-01-23T10:34:43Z</time>
      </trkpt>
      <trkpt lat="46.06372" lon="4.72115">
        <ele>189</ele>
        <time>2018-01-23T10:34:44Z</time>
      </trkpt>
      <trkpt lat="46.06374" lon="4.72121">
        <ele>189</ele>
        <time>2018-01-23T10:34:45Z</time>
      </trkpt>
      <trkpt lat="46.06377" lon="4.72127">
        <ele>189</ele>
        <time>2018-01-23T10:34:46Z</time>
      </trkpt>
      <trkpt lat="46.06378" lon="4.72133">
        <ele>189</ele>
        <time>2018-01-23T10:34:47Z</time>
      </trkpt>
      <trkpt lat="46.0638" lon="4.72139">
        <ele>189</ele>
        <time>2018-01-23T10:34:48Z</time>
      </trkpt>
      <trkpt lat="46.06383" lon="4.72144">
        <ele>189</ele>
        <time>2018-01-23T10:34:49Z</time>
      </trkpt>
      <trkpt lat="46.06384" lon="4.72151">
        <ele>189</ele>
        <time>2018-01-23T10:34:50Z</time>
      </trkpt>
      <trkpt lat="46.06386" lon="4.72157">
        <ele>188</ele>
        <time>2018-01-23T10:34:51Z</time>
      </trkpt>
      <trkpt lat="46.06389" lon="4.72168">
        <ele>189</ele>
        <time>2018-01-23T10:34:53Z</time>
      </trkpt>
      <trkpt lat="46.06391" lon="4.72174">
        <ele>189</ele>
        <time>2018-01-23T10:34:54Z</time>
      </trkpt>
      <trkpt lat="46.06392" lon="4.72181">
        <ele>189</ele>
        <time>2018-01-23T10:34:55Z</time>
      </trkpt>
      <trkpt lat="46.06394" lon="4.72188">
        <ele>189</ele>
        <time>2018-01-23T10:34:56Z</time>
      </trkpt>
      <trkpt lat="46.06395" lon="4.72195">
        <ele>189</ele>
        <time>2018-01-23T10:34:57Z</time>
      </trkpt>
      <trkpt lat="46.06396" lon="4.722">
        <ele>190</ele>
        <time>2018-01-23T10:34:58Z</time>
      </trkpt>
      <trkpt lat="46.06401" lon="4.7221">
        <ele>190</ele>
        <time>2018-01-23T10:35:00Z</time>
      </trkpt>
      <trkpt lat="46.06402" lon="4.72215">
        <ele>190</ele>
        <time>2018-01-23T10:35:01Z</time>
      </trkpt>
      <trkpt lat="46.06405" lon="4.72227">
        <ele>190</ele>
        <time>2018-01-23T10:35:03Z</time>
      </trkpt>
      <trkpt lat="46.06407" lon="4.7223">
        <ele>190</ele>
        <time>2018-01-23T10:35:04Z</time>
      </trkpt>
      <trkpt lat="46.0641" lon="4.72239">
        <ele>189</ele>
        <time>2018-01-23T10:35:06Z</time>
      </trkpt>
      <trkpt lat="46.06412" lon="4.72244">
        <ele>189</ele>
        <time>2018-01-23T10:35:07Z</time>
      </trkpt>
      <trkpt lat="46.06413" lon="4.72256">
        <ele>190</ele>
        <time>2018-01-23T10:35:11Z</time>
      </trkpt>
      <trkpt lat="46.06413" lon="4.72259">
        <ele>190</ele>
        <time>2018-01-23T10:35:12Z</time>
      </trkpt>
      <trkpt lat="46.06412" lon="4.7227">
        <ele>191</ele>
        <time>2018-01-23T10:35:15Z</time>
      </trkpt>
      <trkpt lat="46.06412" lon="4.72275">
        <ele>192</ele>
        <time>2018-01-23T10:35:16Z</time>
      </trkpt>
      <trkpt lat="46.06416" lon="4.72283">
        <ele>192</ele>
        <time>2018-01-23T10:35:18Z</time>
      </trkpt>
      <trkpt lat="46.06422" lon="4.72283">
        <ele>190</ele>
        <time>2018-01-23T10:35:19Z</time>
      </trkpt>
      <trkpt lat="46.06427" lon="4.72284">
        <ele>190</ele>
        <time>2018-01-23T10:35:20Z</time>
      </trkpt>
      <trkpt lat="46.06431" lon="4.72285">
        <ele>190</ele>
        <time>2018-01-23T10:35:21Z</time>
      </trkpt>
      <trkpt lat="46.06436" lon="4.72287">
        <ele>190</ele>
        <time>2018-01-23T10:35:22Z</time>
      </trkpt>
      <trkpt lat="46.06441" lon="4.72288">
        <ele>190</ele>
        <time>2018-01-23T10:35:23Z</time>
      </trkpt>
      <trkpt lat="46.06446" lon="4.72292">
        <ele>190</ele>
        <time>2018-01-23T10:35:24Z</time>
      </trkpt>
      <trkpt lat="46.06449" lon="4.72298">
        <ele>190</ele>
        <time>2018-01-23T10:35:25Z</time>
      </trkpt>
      <trkpt lat="46.06451" lon="4.72305">
        <ele>191</ele>
        <time>2018-01-23T10:35:26Z</time>
      </trkpt>
      <trkpt lat="46.06451" lon="4.72312">
        <ele>191</ele>
        <time>2018-01-23T10:35:27Z</time>
      </trkpt>
      <trkpt lat="46.06448" lon="4.72323">
        <ele>191</ele>
        <time>2018-01-23T10:35:29Z</time>
      </trkpt>
      <trkpt lat="46.06446" lon="4.72327">
        <ele>191</ele>
        <time>2018-01-23T10:35:30Z</time>
      </trkpt>
      <trkpt lat="46.06444" lon="4.72337">
        <ele>194</ele>
        <time>2018-01-23T10:35:32Z</time>
      </trkpt>
      <trkpt lat="46.06443" lon="4.72343">
        <ele>194</ele>
        <time>2018-01-23T10:35:33Z</time>
      </trkpt>
      <trkpt lat="46.06439" lon="4.72353">
        <ele>194</ele>
        <time>2018-01-23T10:35:35Z</time>
      </trkpt>
      <trkpt lat="46.06439" lon="4.72358">
        <ele>194</ele>
        <time>2018-01-23T10:35:36Z</time>
      </trkpt>
      <trkpt lat="46.06435" lon="4.72367">
        <ele>194</ele>
        <time>2018-01-23T10:35:38Z</time>
      </trkpt>
      <trkpt lat="46.06435" lon="4.72372">
        <ele>194</ele>
        <time>2018-01-23T10:35:39Z</time>
      </trkpt>
      <trkpt lat="46.06432" lon="4.72381">
        <ele>195</ele>
        <time>2018-01-23T10:35:41Z</time>
      </trkpt>
      <trkpt lat="46.0643" lon="4.72386">
        <ele>195</ele>
        <time>2018-01-23T10:35:42Z</time>
      </trkpt>
      <trkpt lat="46.06427" lon="4.72394">
        <ele>195</ele>
        <time>2018-01-23T10:35:44Z</time>
      </trkpt>
      <trkpt lat="46.06425" lon="4.72398">
        <ele>195</ele>
        <time>2018-01-23T10:35:45Z</time>
      </trkpt>
      <trkpt lat="46.06423" lon="4.72408">
        <ele>195</ele>
        <time>2018-01-23T10:35:47Z</time>
      </trkpt>
      <trkpt lat="46.06422" lon="4.72413">
        <ele>196</ele>
        <time>2018-01-23T10:35:48Z</time>
      </trkpt>
      <trkpt lat="46.0642" lon="4.72423">
        <ele>196</ele>
        <time>2018-01-23T10:35:50Z</time>
      </trkpt>
      <trkpt lat="46.06418" lon="4.72428">
        <ele>196</ele>
        <time>2018-01-23T10:35:51Z</time>
      </trkpt>
      <trkpt lat="46.06415" lon="4.72438">
        <ele>197</ele>
        <time>2018-01-23T10:35:53Z</time>
      </trkpt>
      <trkpt lat="46.06413" lon="4.72441">
        <ele>197</ele>
        <time>2018-01-23T10:35:54Z</time>
      </trkpt>
      <trkpt lat="46.06407" lon="4.72447">
        <ele>197</ele>
        <time>2018-01-23T10:35:56Z</time>
      </trkpt>
      <trkpt lat="46.06405" lon="4.72449">
        <ele>197</ele>
        <time>2018-01-23T10:35:57Z</time>
      </trkpt>
      <trkpt lat="46.064" lon="4.72456">
        <ele>197</ele>
        <time>2018-01-23T10:35:59Z</time>
      </trkpt>
      <trkpt lat="46.06398" lon="4.72459">
        <ele>197</ele>
        <time>2018-01-23T10:36:00Z</time>
      </trkpt>
      <trkpt lat="46.06395" lon="4.72469">
        <ele>197</ele>
        <time>2018-01-23T10:36:02Z</time>
      </trkpt>
      <trkpt lat="46.06395" lon="4.72474">
        <ele>198</ele>
        <time>2018-01-23T10:36:03Z</time>
      </trkpt>
      <trkpt lat="46.06401" lon="4.7248">
        <ele>198</ele>
        <time>2018-01-23T10:36:04Z</time>
      </trkpt>
      <trkpt lat="46.06405" lon="4.72485">
        <ele>198</ele>
        <time>2018-01-23T10:36:05Z</time>
      </trkpt>
      <trkpt lat="46.06408" lon="4.7249">
        <ele>199</ele>
        <time>2018-01-23T10:36:06Z</time>
      </trkpt>
      <trkpt lat="46.0641" lon="4.72498">
        <ele>199</ele>
        <time>2018-01-23T10:36:07Z</time>
      </trkpt>
      <trkpt lat="46.06411" lon="4.72505">
        <ele>199</ele>
        <time>2018-01-23T10:36:08Z</time>
      </trkpt>
      <trkpt lat="46.06413" lon="4.72513">
        <ele>198</ele>
        <time>2018-01-23T10:36:09Z</time>
      </trkpt>
      <trkpt lat="46.06414" lon="4.72522">
        <ele>198</ele>
        <time>2018-01-23T10:36:10Z</time>
      </trkpt>
      <trkpt lat="46.06416" lon="4.72529">
        <ele>197</ele>
        <time>2018-01-23T10:36:11Z</time>
      </trkpt>
      <trkpt lat="46.06418" lon="4.72538">
        <ele>196</ele>
        <time>2018-01-23T10:36:12Z</time>
      </trkpt>
      <trkpt lat="46.06419" lon="4.72547">
        <ele>196</ele>
        <time>2018-01-23T10:36:13Z</time>
      </trkpt>
      <trkpt lat="46.06421" lon="4.72556">
        <ele>196</ele>
        <time>2018-01-23T10:36:14Z</time>
      </trkpt>
      <trkpt lat="46.06423" lon="4.72564">
        <ele>195</ele>
        <time>2018-01-23T10:36:15Z</time>
      </trkpt>
      <trkpt lat="46.06424" lon="4.72573">
        <ele>195</ele>
        <time>2018-01-23T10:36:16Z</time>
      </trkpt>
      <trkpt lat="46.06425" lon="4.72583">
        <ele>195</ele>
        <time>2018-01-23T10:36:17Z</time>
      </trkpt>
      <trkpt lat="46.06428" lon="4.72592">
        <ele>194</ele>
        <time>2018-01-23T10:36:18Z</time>
      </trkpt>
      <trkpt lat="46.06429" lon="4.72601">
        <ele>193</ele>
        <time>2018-01-23T10:36:19Z</time>
      </trkpt>
      <trkpt lat="46.06431" lon="4.72611">
        <ele>193</ele>
        <time>2018-01-23T10:36:20Z</time>
      </trkpt>
      <trkpt lat="46.06432" lon="4.72622">
        <ele>193</ele>
        <time>2018-01-23T10:36:21Z</time>
      </trkpt>
      <trkpt lat="46.06434" lon="4.72631">
        <ele>192</ele>
        <time>2018-01-23T10:36:22Z</time>
      </trkpt>
      <trkpt lat="46.06435" lon="4.72641">
        <ele>192</ele>
        <time>2018-01-23T10:36:23Z</time>
      </trkpt>
      <trkpt lat="46.06436" lon="4.72651">
        <ele>192</ele>
        <time>2018-01-23T10:36:24Z</time>
      </trkpt>
      <trkpt lat="46.06438" lon="4.7266">
        <ele>192</ele>
        <time>2018-01-23T10:36:25Z</time>
      </trkpt>
      <trkpt lat="46.0644" lon="4.7267">
        <ele>191</ele>
        <time>2018-01-23T10:36:26Z</time>
      </trkpt>
      <trkpt lat="46.06441" lon="4.7268">
        <ele>191</ele>
        <time>2018-01-23T10:36:27Z</time>
      </trkpt>
      <trkpt lat="46.06442" lon="4.7269">
        <ele>190</ele>
        <time>2018-01-23T10:36:28Z</time>
      </trkpt>
      <trkpt lat="46.06444" lon="4.727">
        <ele>190</ele>
        <time>2018-01-23T10:36:29Z</time>
      </trkpt>
      <trkpt lat="46.06446" lon="4.72709">
        <ele>190</ele>
        <time>2018-01-23T10:36:30Z</time>
      </trkpt>
      <trkpt lat="46.06447" lon="4.72719">
        <ele>190</ele>
        <time>2018-01-23T10:36:31Z</time>
      </trkpt>
      <trkpt lat="46.06449" lon="4.72729">
        <ele>189</ele>
        <time>2018-01-23T10:36:32Z</time>
      </trkpt>
      <trkpt lat="46.06451" lon="4.72738">
        <ele>189</ele>
        <time>2018-01-23T10:36:33Z</time>
      </trkpt>
      <trkpt lat="46.06452" lon="4.72747">
        <ele>189</ele>
        <time>2018-01-23T10:36:34Z</time>
      </trkpt>
      <trkpt lat="46.06453" lon="4.72757">
        <ele>188</ele>
        <time>2018-01-23T10:36:35Z</time>
      </trkpt>
      <trkpt lat="46.06455" lon="4.72766">
        <ele>188</ele>
        <time>2018-01-23T10:36:36Z</time>
      </trkpt>
      <trkpt lat="46.06457" lon="4.72776">
        <ele>188</ele>
        <time>2018-01-23T10:36:37Z</time>
      </trkpt>
      <trkpt lat="46.06458" lon="4.72785">
        <ele>188</ele>
        <time>2018-01-23T10:36:38Z</time>
      </trkpt>
      <trkpt lat="46.06459" lon="4.72793">
        <ele>188</ele>
        <time>2018-01-23T10:36:39Z</time>
      </trkpt>
      <trkpt lat="46.0646" lon="4.72802">
        <ele>188</ele>
        <time>2018-01-23T10:36:40Z</time>
      </trkpt>
      <trkpt lat="46.06462" lon="4.7281">
        <ele>188</ele>
        <time>2018-01-23T10:36:41Z</time>
      </trkpt>
      <trkpt lat="46.06463" lon="4.72818">
        <ele>188</ele>
        <time>2018-01-23T10:36:42Z</time>
      </trkpt>
      <trkpt lat="46.06464" lon="4.72827">
        <ele>188</ele>
        <time>2018-01-23T10:36:43Z</time>
      </trkpt>
      <trkpt lat="46.06465" lon="4.72834">
        <ele>188</ele>
        <time>2018-01-23T10:36:44Z</time>
      </trkpt>
      <trkpt lat="46.06466" lon="4.72843">
        <ele>188</ele>
        <time>2018-01-23T10:36:45Z</time>
      </trkpt>
      <trkpt lat="46.06469" lon="4.72851">
        <ele>188</ele>
        <time>2018-01-23T10:36:46Z</time>
      </trkpt>
      <trkpt lat="46.0647" lon="4.72859">
        <ele>188</ele>
        <time>2018-01-23T10:36:47Z</time>
      </trkpt>
      <trkpt lat="46.0647" lon="4.72867">
        <ele>188</ele>
        <time>2018-01-23T10:36:48Z</time>
      </trkpt>
      <trkpt lat="46.06472" lon="4.72876">
        <ele>188</ele>
        <time>2018-01-23T10:36:49Z</time>
      </trkpt>
      <trkpt lat="46.06473" lon="4.72885">
        <ele>188</ele>
        <time>2018-01-23T10:36:50Z</time>
      </trkpt>
      <trkpt lat="46.06474" lon="4.72893">
        <ele>188</ele>
        <time>2018-01-23T10:36:51Z</time>
      </trkpt>
      <trkpt lat="46.06476" lon="4.72903">
        <ele>188</ele>
        <time>2018-01-23T10:36:52Z</time>
      </trkpt>
      <trkpt lat="46.06478" lon="4.7291">
        <ele>188</ele>
        <time>2018-01-23T10:36:53Z</time>
      </trkpt>
      <trkpt lat="46.0648" lon="4.72918">
        <ele>189</ele>
        <time>2018-01-23T10:36:54Z</time>
      </trkpt>
      <trkpt lat="46.06481" lon="4.72926">
        <ele>189</ele>
        <time>2018-01-23T10:36:55Z</time>
      </trkpt>
      <trkpt lat="46.06482" lon="4.72934">
        <ele>188</ele>
        <time>2018-01-23T10:36:56Z</time>
      </trkpt>
      <trkpt lat="46.06483" lon="4.72943">
        <ele>188</ele>
        <time>2018-01-23T10:36:57Z</time>
      </trkpt>
      <trkpt lat="46.06483" lon="4.72951">
        <ele>188</ele>
        <time>2018-01-23T10:36:58Z</time>
      </trkpt>
      <trkpt lat="46.06483" lon="4.7296">
        <ele>188</ele>
        <time>2018-01-23T10:36:59Z</time>
      </trkpt>
      <trkpt lat="46.06482" lon="4.72968">
        <ele>188</ele>
        <time>2018-01-23T10:37:00Z</time>
      </trkpt>
      <trkpt lat="46.06481" lon="4.72975">
        <ele>188</ele>
        <time>2018-01-23T10:37:01Z</time>
      </trkpt>
      <trkpt lat="46.06482" lon="4.72982">
        <ele>189</ele>
        <time>2018-01-23T10:37:02Z</time>
      </trkpt>
      <trkpt lat="46.06485" lon="4.72989">
        <ele>189</ele>
        <time>2018-01-23T10:37:03Z</time>
      </trkpt>
      <trkpt lat="46.06488" lon="4.72995">
        <ele>189</ele>
        <time>2018-01-23T10:37:04Z</time>
      </trkpt>
      <trkpt lat="46.06492" lon="4.73">
        <ele>189</ele>
        <time>2018-01-23T10:37:05Z</time>
      </trkpt>
      <trkpt lat="46.06495" lon="4.73006">
        <ele>189</ele>
        <time>2018-01-23T10:37:06Z</time>
      </trkpt>
      <trkpt lat="46.06499" lon="4.73013">
        <ele>189</ele>
        <time>2018-01-23T10:37:07Z</time>
      </trkpt>
      <trkpt lat="46.06502" lon="4.73021">
        <ele>189</ele>
        <time>2018-01-23T10:37:08Z</time>
      </trkpt>
      <trkpt lat="46.06505" lon="4.73029">
        <ele>189</ele>
        <time>2018-01-23T10:37:09Z</time>
      </trkpt>
      <trkpt lat="46.06508" lon="4.73038">
        <ele>189</ele>
        <time>2018-01-23T10:37:10Z</time>
      </trkpt>
      <trkpt lat="46.06512" lon="4.73047">
        <ele>188</ele>
        <time>2018-01-23T10:37:11Z</time>
      </trkpt>
      <trkpt lat="46.06515" lon="4.73055">
        <ele>188</ele>
        <time>2018-01-23T10:37:12Z</time>
      </trkpt>
      <trkpt lat="46.06519" lon="4.73065">
        <ele>188</ele>
        <time>2018-01-23T10:37:13Z</time>
      </trkpt>
      <trkpt lat="46.06522" lon="4.73074">
        <ele>188</ele>
        <time>2018-01-23T10:37:14Z</time>
      </trkpt>
      <trkpt lat="46.06526" lon="4.73082">
        <ele>188</ele>
        <time>2018-01-23T10:37:15Z</time>
      </trkpt>
      <trkpt lat="46.06529" lon="4.73091">
        <ele>188</ele>
        <time>2018-01-23T10:37:16Z</time>
      </trkpt>
      <trkpt lat="46.06532" lon="4.73101">
        <ele>188</ele>
        <time>2018-01-23T10:37:17Z</time>
      </trkpt>
      <trkpt lat="46.06536" lon="4.7311">
        <ele>188</ele>
        <time>2018-01-23T10:37:18Z</time>
      </trkpt>
      <trkpt lat="46.06539" lon="4.73119">
        <ele>188</ele>
        <time>2018-01-23T10:37:19Z</time>
      </trkpt>
      <trkpt lat="46.06541" lon="4.73127">
        <ele>188</ele>
        <time>2018-01-23T10:37:20Z</time>
      </trkpt>
      <trkpt lat="46.06544" lon="4.73137">
        <ele>187</ele>
        <time>2018-01-23T10:37:21Z</time>
      </trkpt>
      <trkpt lat="46.06544" lon="4.73147">
        <ele>187</ele>
        <time>2018-01-23T10:37:22Z</time>
      </trkpt>
      <trkpt lat="46.06545" lon="4.73156">
        <ele>187</ele>
        <time>2018-01-23T10:37:23Z</time>
      </trkpt>
      <trkpt lat="46.06546" lon="4.73165">
        <ele>187</ele>
        <time>2018-01-23T10:37:24Z</time>
      </trkpt>
      <trkpt lat="46.06546" lon="4.73174">
        <ele>187</ele>
        <time>2018-01-23T10:37:25Z</time>
      </trkpt>
      <trkpt lat="46.06548" lon="4.73183">
        <ele>187</ele>
        <time>2018-01-23T10:37:26Z</time>
      </trkpt>
      <trkpt lat="46.06549" lon="4.73192">
        <ele>187</ele>
        <time>2018-01-23T10:37:27Z</time>
      </trkpt>
      <trkpt lat="46.0655" lon="4.732">
        <ele>186</ele>
        <time>2018-01-23T10:37:28Z</time>
      </trkpt>
      <trkpt lat="46.06551" lon="4.73209">
        <ele>186</ele>
        <time>2018-01-23T10:37:29Z</time>
      </trkpt>
      <trkpt lat="46.06554" lon="4.73217">
        <ele>186</ele>
        <time>2018-01-23T10:37:30Z</time>
      </trkpt>
      <trkpt lat="46.06556" lon="4.7323">
        <ele>186</ele>
        <time>2018-01-23T10:37:31Z</time>
      </trkpt>
      <trkpt lat="46.06559" lon="4.73238">
        <ele>186</ele>
        <time>2018-01-23T10:37:32Z</time>
      </trkpt>
      <trkpt lat="46.06562" lon="4.73246">
        <ele>186</ele>
        <time>2018-01-23T10:37:33Z</time>
      </trkpt>
      <trkpt lat="46.06566" lon="4.73254">
        <ele>184</ele>
        <time>2018-01-23T10:37:34Z</time>
      </trkpt>
      <trkpt lat="46.06569" lon="4.73261">
        <ele>184</ele>
        <time>2018-01-23T10:37:35Z</time>
      </trkpt>
      <trkpt lat="46.06572" lon="4.73269">
        <ele>184</ele>
        <time>2018-01-23T10:37:36Z</time>
      </trkpt>
      <trkpt lat="46.06575" lon="4.73277">
        <ele>184</ele>
        <time>2018-01-23T10:37:37Z</time>
      </trkpt>
      <trkpt lat="46.06578" lon="4.73285">
        <ele>184</ele>
        <time>2018-01-23T10:37:38Z</time>
      </trkpt>
      <trkpt lat="46.06581" lon="4.73293">
        <ele>184</ele>
        <time>2018-01-23T10:37:39Z</time>
      </trkpt>
      <trkpt lat="46.06584" lon="4.73302">
        <ele>183</ele>
        <time>2018-01-23T10:37:40Z</time>
      </trkpt>
      <trkpt lat="46.06586" lon="4.73312">
        <ele>182</ele>
        <time>2018-01-23T10:37:41Z</time>
      </trkpt>
      <trkpt lat="46.06587" lon="4.73321">
        <ele>182</ele>
        <time>2018-01-23T10:37:42Z</time>
      </trkpt>
      <trkpt lat="46.06589" lon="4.73329">
        <ele>182</ele>
        <time>2018-01-23T10:37:43Z</time>
      </trkpt>
      <trkpt lat="46.06594" lon="4.73336">
        <ele>182</ele>
        <time>2018-01-23T10:37:44Z</time>
      </trkpt>
      <trkpt lat="46.066" lon="4.73341">
        <ele>182</ele>
        <time>2018-01-23T10:37:45Z</time>
      </trkpt>
      <trkpt lat="46.06606" lon="4.73345">
        <ele>182</ele>
        <time>2018-01-23T10:37:46Z</time>
      </trkpt>
      <trkpt lat="46.06612" lon="4.73347">
        <ele>182</ele>
        <time>2018-01-23T10:37:47Z</time>
      </trkpt>
      <trkpt lat="46.06619" lon="4.73351">
        <ele>182</ele>
        <time>2018-01-23T10:37:48Z</time>
      </trkpt>
      <trkpt lat="46.06625" lon="4.73354">
        <ele>182</ele>
        <time>2018-01-23T10:37:49Z</time>
      </trkpt>
      <trkpt lat="46.06632" lon="4.73358">
        <ele>182</ele>
        <time>2018-01-23T10:37:50Z</time>
      </trkpt>
      <trkpt lat="46.06638" lon="4.73362">
        <ele>182</ele>
        <time>2018-01-23T10:37:51Z</time>
      </trkpt>
      <trkpt lat="46.06644" lon="4.73367">
        <ele>182</ele>
        <time>2018-01-23T10:37:52Z</time>
      </trkpt>
      <trkpt lat="46.06649" lon="4.73373">
        <ele>182</ele>
        <time>2018-01-23T10:37:53Z</time>
      </trkpt>
      <trkpt lat="46.06655" lon="4.7338">
        <ele>182</ele>
        <time>2018-01-23T10:37:54Z</time>
      </trkpt>
      <trkpt lat="46.0666" lon="4.73387">
        <ele>182</ele>
        <time>2018-01-23T10:37:55Z</time>
      </trkpt>
      <trkpt lat="46.06664" lon="4.73394">
        <ele>182</ele>
        <time>2018-01-23T10:37:56Z</time>
      </trkpt>
      <trkpt lat="46.06669" lon="4.73401">
        <ele>181</ele>
        <time>2018-01-23T10:37:57Z</time>
      </trkpt>
      <trkpt lat="46.06673" lon="4.73408">
        <ele>181</ele>
        <time>2018-01-23T10:37:58Z</time>
      </trkpt>
      <trkpt lat="46.06677" lon="4.73415">
        <ele>181</ele>
        <time>2018-01-23T10:37:59Z</time>
      </trkpt>
      <trkpt lat="46.06681" lon="4.73422">
        <ele>181</ele>
        <time>2018-01-23T10:38:00Z</time>
      </trkpt>
      <trkpt lat="46.06686" lon="4.73428">
        <ele>181</ele>
        <time>2018-01-23T10:38:01Z</time>
      </trkpt>
      <trkpt lat="46.06691" lon="4.73434">
        <ele>181</ele>
        <time>2018-01-23T10:38:02Z</time>
      </trkpt>
      <trkpt lat="46.06695" lon="4.73441">
        <ele>181</ele>
        <time>2018-01-23T10:38:03Z</time>
      </trkpt>
      <trkpt lat="46.06699" lon="4.7345">
        <ele>180</ele>
        <time>2018-01-23T10:38:04Z</time>
      </trkpt>
      <trkpt lat="46.06704" lon="4.73456">
        <ele>180</ele>
        <time>2018-01-23T10:38:05Z</time>
      </trkpt>
      <trkpt lat="46.0671" lon="4.73464">
        <ele>180</ele>
        <time>2018-01-23T10:38:06Z</time>
      </trkpt>
      <trkpt lat="46.06714" lon="4.73472">
        <ele>180</ele>
        <time>2018-01-23T10:38:07Z</time>
      </trkpt>
      <trkpt lat="46.06719" lon="4.73478">
        <ele>180</ele>
        <time>2018-01-23T10:38:08Z</time>
      </trkpt>
      <trkpt lat="46.06724" lon="4.73485">
        <ele>180</ele>
        <time>2018-01-23T10:38:09Z</time>
      </trkpt>
      <trkpt lat="46.0673" lon="4.73492">
        <ele>180</ele>
        <time>2018-01-23T10:38:10Z</time>
      </trkpt>
      <trkpt lat="46.06734" lon="4.735">
        <ele>180</ele>
        <time>2018-01-23T10:38:11Z</time>
      </trkpt>
      <trkpt lat="46.0674" lon="4.73508">
        <ele>180</ele>
        <time>2018-01-23T10:38:12Z</time>
      </trkpt>
      <trkpt lat="46.06744" lon="4.73515">
        <ele>180</ele>
        <time>2018-01-23T10:38:13Z</time>
      </trkpt>
      <trkpt lat="46.06749" lon="4.73523">
        <ele>180</ele>
        <time>2018-01-23T10:38:14Z</time>
      </trkpt>
      <trkpt lat="46.06753" lon="4.7353">
        <ele>179</ele>
        <time>2018-01-23T10:38:15Z</time>
      </trkpt>
      <trkpt lat="46.06758" lon="4.73536">
        <ele>179</ele>
        <time>2018-01-23T10:38:16Z</time>
      </trkpt>
      <trkpt lat="46.06762" lon="4.73542">
        <ele>179</ele>
        <time>2018-01-23T10:38:17Z</time>
      </trkpt>
      <trkpt lat="46.06767" lon="4.73549">
        <ele>179</ele>
        <time>2018-01-23T10:38:18Z</time>
      </trkpt>
      <trkpt lat="46.0677" lon="4.73557">
        <ele>179</ele>
        <time>2018-01-23T10:38:19Z</time>
      </trkpt>
      <trkpt lat="46.06774" lon="4.73563">
        <ele>180</ele>
        <time>2018-01-23T10:38:20Z</time>
      </trkpt>
      <trkpt lat="46.06777" lon="4.7357">
        <ele>180</ele>
        <time>2018-01-23T10:38:21Z</time>
      </trkpt>
      <trkpt lat="46.06781" lon="4.73577">
        <ele>179</ele>
        <time>2018-01-23T10:38:22Z</time>
      </trkpt>
      <trkpt lat="46.06786" lon="4.73583">
        <ele>179</ele>
        <time>2018-01-23T10:38:23Z</time>
      </trkpt>
      <trkpt lat="46.0679" lon="4.7359">
        <ele>179</ele>
        <time>2018-01-23T10:38:24Z</time>
      </trkpt>
      <trkpt lat="46.06794" lon="4.73596">
        <ele>179</ele>
        <time>2018-01-23T10:38:25Z</time>
      </trkpt>
      <trkpt lat="46.06798" lon="4.73601">
        <ele>178</ele>
        <time>2018-01-23T10:38:26Z</time>
      </trkpt>
      <trkpt lat="46.06801" lon="4.73607">
        <ele>178</ele>
        <time>2018-01-23T10:38:27Z</time>
      </trkpt>
      <trkpt lat="46.06805" lon="4.73614">
        <ele>178</ele>
        <time>2018-01-23T10:38:28Z</time>
      </trkpt>
      <trkpt lat="46.06811" lon="4.73621">
        <ele>178</ele>
        <time>2018-01-23T10:38:29Z</time>
      </trkpt>
      <trkpt lat="46.06816" lon="4.73627">
        <ele>178</ele>
        <time>2018-01-23T10:38:30Z</time>
      </trkpt>
      <trkpt lat="46.06821" lon="4.73633">
        <ele>178</ele>
        <time>2018-01-23T10:38:31Z</time>
      </trkpt>
      <trkpt lat="46.06827" lon="4.73639">
        <ele>178</ele>
        <time>2018-01-23T10:38:32Z</time>
      </trkpt>
      <trkpt lat="46.06832" lon="4.73645">
        <ele>177</ele>
        <time>2018-01-23T10:38:33Z</time>
      </trkpt>
      <trkpt lat="46.06837" lon="4.7365">
        <ele>176</ele>
        <time>2018-01-23T10:38:34Z</time>
      </trkpt>
      <trkpt lat="46.06844" lon="4.73657">
        <ele>176</ele>
        <time>2018-01-23T10:38:35Z</time>
      </trkpt>
      <trkpt lat="46.06849" lon="4.73663">
        <ele>176</ele>
        <time>2018-01-23T10:38:36Z</time>
      </trkpt>
      <trkpt lat="46.06854" lon="4.73668">
        <ele>176</ele>
        <time>2018-01-23T10:38:37Z</time>
      </trkpt>
      <trkpt lat="46.0686" lon="4.73674">
        <ele>176</ele>
        <time>2018-01-23T10:38:38Z</time>
      </trkpt>
      <trkpt lat="46.06865" lon="4.73679">
        <ele>176</ele>
        <time>2018-01-23T10:38:39Z</time>
      </trkpt>
      <trkpt lat="46.0687" lon="4.73685">
        <ele>176</ele>
        <time>2018-01-23T10:38:40Z</time>
      </trkpt>
      <trkpt lat="46.06874" lon="4.7369">
        <ele>176</ele>
        <time>2018-01-23T10:38:41Z</time>
      </trkpt>
      <trkpt lat="46.0688" lon="4.73698">
        <ele>176</ele>
        <time>2018-01-23T10:38:42Z</time>
      </trkpt>
      <trkpt lat="46.06884" lon="4.73703">
        <ele>176</ele>
        <time>2018-01-23T10:38:43Z</time>
      </trkpt>
      <trkpt lat="46.06888" lon="4.73707">
        <ele>176</ele>
        <time>2018-01-23T10:38:44Z</time>
      </trkpt>
      <trkpt lat="46.06893" lon="4.73712">
        <ele>176</ele>
        <time>2018-01-23T10:38:45Z</time>
      </trkpt>
      <trkpt lat="46.06897" lon="4.73718">
        <ele>176</ele>
        <time>2018-01-23T10:38:46Z</time>
      </trkpt>
      <trkpt lat="46.06902" lon="4.73722">
        <ele>176</ele>
        <time>2018-01-23T10:38:47Z</time>
      </trkpt>
      <trkpt lat="46.06906" lon="4.73728">
        <ele>177</ele>
        <time>2018-01-23T10:38:48Z</time>
      </trkpt>
      <trkpt lat="46.06909" lon="4.73734">
        <ele>177</ele>
        <time>2018-01-23T10:38:49Z</time>
      </trkpt>
      <trkpt lat="46.06913" lon="4.7374">
        <ele>177</ele>
        <time>2018-01-23T10:38:50Z</time>
      </trkpt>
      <trkpt lat="46.06917" lon="4.73746">
        <ele>177</ele>
        <time>2018-01-23T10:38:51Z</time>
      </trkpt>
      <trkpt lat="46.06921" lon="4.73752">
        <ele>177</ele>
        <time>2018-01-23T10:38:52Z</time>
      </trkpt>
      <trkpt lat="46.06925" lon="4.73757">
        <ele>177</ele>
        <time>2018-01-23T10:38:53Z</time>
      </trkpt>
      <trkpt lat="46.0693" lon="4.73761">
        <ele>177</ele>
        <time>2018-01-23T10:38:54Z</time>
      </trkpt>
      <trkpt lat="46.06936" lon="4.73766">
        <ele>176</ele>
        <time>2018-01-23T10:38:55Z</time>
      </trkpt>
      <trkpt lat="46.06942" lon="4.7377">
        <ele>176</ele>
        <time>2018-01-23T10:38:56Z</time>
      </trkpt>
      <trkpt lat="46.06947" lon="4.73775">
        <ele>176</ele>
        <time>2018-01-23T10:38:57Z</time>
      </trkpt>
      <trkpt lat="46.06953" lon="4.73779">
        <ele>176</ele>
        <time>2018-01-23T10:38:58Z</time>
      </trkpt>
      <trkpt lat="46.06959" lon="4.73782">
        <ele>176</ele>
        <time>2018-01-23T10:38:59Z</time>
      </trkpt>
      <trkpt lat="46.06964" lon="4.73784">
        <ele>176</ele>
        <time>2018-01-23T10:39:00Z</time>
      </trkpt>
      <trkpt lat="46.0697" lon="4.73786">
        <ele>176</ele>
        <time>2018-01-23T10:39:01Z</time>
      </trkpt>
      <trkpt lat="46.06975" lon="4.73787">
        <ele>176</ele>
        <time>2018-01-23T10:39:02Z</time>
      </trkpt>
      <trkpt lat="46.0698" lon="4.73788">
        <ele>176</ele>
        <time>2018-01-23T10:39:03Z</time>
      </trkpt>
      <trkpt lat="46.06984" lon="4.73791">
        <ele>176</ele>
        <time>2018-01-23T10:39:04Z</time>
      </trkpt>
      <trkpt lat="46.0699" lon="4.73792">
        <ele>176</ele>
        <time>2018-01-23T10:39:05Z</time>
      </trkpt>
      <trkpt lat="46.06995" lon="4.73792">
        <ele>176</ele>
        <time>2018-01-23T10:39:06Z</time>
      </trkpt>
      <trkpt lat="46.07" lon="4.73793">
        <ele>176</ele>
        <time>2018-01-23T10:39:07Z</time>
      </trkpt>
      <trkpt lat="46.07005" lon="4.73793">
        <ele>177</ele>
        <time>2018-01-23T10:39:08Z</time>
      </trkpt>
      <trkpt lat="46.07011" lon="4.73794">
        <ele>177</ele>
        <time>2018-01-23T10:39:09Z</time>
      </trkpt>
      <trkpt lat="46.07015" lon="4.73796">
        <ele>177</ele>
        <time>2018-01-23T10:39:10Z</time>
      </trkpt>
      <trkpt lat="46.07021" lon="4.73796">
        <ele>177</ele>
        <time>2018-01-23T10:39:11Z</time>
      </trkpt>
      <trkpt lat="46.07027" lon="4.73796">
        <ele>177</ele>
        <time>2018-01-23T10:39:12Z</time>
      </trkpt>
      <trkpt lat="46.07033" lon="4.73796">
        <ele>177</ele>
        <time>2018-01-23T10:39:13Z</time>
      </trkpt>
      <trkpt lat="46.07038" lon="4.73797">
        <ele>177</ele>
        <time>2018-01-23T10:39:14Z</time>
      </trkpt>
      <trkpt lat="46.07045" lon="4.73798">
        <ele>177</ele>
        <time>2018-01-23T10:39:15Z</time>
      </trkpt>
      <trkpt lat="46.07051" lon="4.73799">
        <ele>177</ele>
        <time>2018-01-23T10:39:16Z</time>
      </trkpt>
      <trkpt lat="46.07057" lon="4.73801">
        <ele>177</ele>
        <time>2018-01-23T10:39:17Z</time>
      </trkpt>
      <trkpt lat="46.07062" lon="4.73804">
        <ele>177</ele>
        <time>2018-01-23T10:39:18Z</time>
      </trkpt>
      <trkpt lat="46.07067" lon="4.73807">
        <ele>178</ele>
        <time>2018-01-23T10:39:19Z</time>
      </trkpt>
      <trkpt lat="46.07073" lon="4.73809">
        <ele>178</ele>
        <time>2018-01-23T10:39:20Z</time>
      </trkpt>
      <trkpt lat="46.07078" lon="4.73811">
        <ele>178</ele>
        <time>2018-01-23T10:39:21Z</time>
      </trkpt>
      <trkpt lat="46.07083" lon="4.73814">
        <ele>178</ele>
        <time>2018-01-23T10:39:22Z</time>
      </trkpt>
      <trkpt lat="46.07089" lon="4.73816">
        <ele>178</ele>
        <time>2018-01-23T10:39:23Z</time>
      </trkpt>
      <trkpt lat="46.07093" lon="4.73821">
        <ele>178</ele>
        <time>2018-01-23T10:39:24Z</time>
      </trkpt>
      <trkpt lat="46.07098" lon="4.73825">
        <ele>178</ele>
        <time>2018-01-23T10:39:25Z</time>
      </trkpt>
      <trkpt lat="46.07104" lon="4.7383">
        <ele>178</ele>
        <time>2018-01-23T10:39:26Z</time>
      </trkpt>
      <trkpt lat="46.07108" lon="4.73834">
        <ele>177</ele>
        <time>2018-01-23T10:39:27Z</time>
      </trkpt>
      <trkpt lat="46.07112" lon="4.7384">
        <ele>177</ele>
        <time>2018-01-23T10:39:28Z</time>
      </trkpt>
      <trkpt lat="46.07117" lon="4.73845">
        <ele>177</ele>
        <time>2018-01-23T10:39:29Z</time>
      </trkpt>
      <trkpt lat="46.07122" lon="4.7385">
        <ele>177</ele>
        <time>2018-01-23T10:39:30Z</time>
      </trkpt>
      <trkpt lat="46.07127" lon="4.73856">
        <ele>176</ele>
        <time>2018-01-23T10:39:31Z</time>
      </trkpt>
      <trkpt lat="46.07131" lon="4.73862">
        <ele>176</ele>
        <time>2018-01-23T10:39:32Z</time>
      </trkpt>
      <trkpt lat="46.07135" lon="4.73869">
        <ele>176</ele>
        <time>2018-01-23T10:39:33Z</time>
      </trkpt>
      <trkpt lat="46.0714" lon="4.73876">
        <ele>176</ele>
        <time>2018-01-23T10:39:34Z</time>
      </trkpt>
      <trkpt lat="46.07143" lon="4.73884">
        <ele>176</ele>
        <time>2018-01-23T10:39:35Z</time>
      </trkpt>
      <trkpt lat="46.07147" lon="4.73891">
        <ele>177</ele>
        <time>2018-01-23T10:39:36Z</time>
      </trkpt>
      <trkpt lat="46.0715" lon="4.73899">
        <ele>177</ele>
        <time>2018-01-23T10:39:37Z</time>
      </trkpt>
      <trkpt lat="46.07153" lon="4.73906">
        <ele>177</ele>
        <time>2018-01-23T10:39:38Z</time>
      </trkpt>
      <trkpt lat="46.07156" lon="4.73913">
        <ele>177</ele>
        <time>2018-01-23T10:39:39Z</time>
      </trkpt>
      <trkpt lat="46.07159" lon="4.73921">
        <ele>177</ele>
        <time>2018-01-23T10:39:40Z</time>
      </trkpt>
      <trkpt lat="46.07162" lon="4.7393">
        <ele>177</ele>
        <time>2018-01-23T10:39:41Z</time>
      </trkpt>
      <trkpt lat="46.07166" lon="4.73938">
        <ele>177</ele>
        <time>2018-01-23T10:39:42Z</time>
      </trkpt>
      <trkpt lat="46.07167" lon="4.73946">
        <ele>177</ele>
        <time>2018-01-23T10:39:43Z</time>
      </trkpt>
      <trkpt lat="46.0717" lon="4.73955">
        <ele>177</ele>
        <time>2018-01-23T10:39:44Z</time>
      </trkpt>
      <trkpt lat="46.07173" lon="4.73962">
        <ele>178</ele>
        <time>2018-01-23T10:39:45Z</time>
      </trkpt>
      <trkpt lat="46.07176" lon="4.7397">
        <ele>178</ele>
        <time>2018-01-23T10:39:46Z</time>
      </trkpt>
      <trkpt lat="46.07179" lon="4.73979">
        <ele>178</ele>
        <time>2018-01-23T10:39:47Z</time>
      </trkpt>
      <trkpt lat="46.07181" lon="4.73986">
        <ele>178</ele>
        <time>2018-01-23T10:39:48Z</time>
      </trkpt>
      <trkpt lat="46.07184" lon="4.73992">
        <ele>178</ele>
        <time>2018-01-23T10:39:49Z</time>
      </trkpt>
      <trkpt lat="46.07187" lon="4.73999">
        <ele>178</ele>
        <time>2018-01-23T10:39:50Z</time>
      </trkpt>
      <trkpt lat="46.07189" lon="4.74005">
        <ele>178</ele>
        <time>2018-01-23T10:39:51Z</time>
      </trkpt>
      <trkpt lat="46.07191" lon="4.74011">
        <ele>178</ele>
        <time>2018-01-23T10:39:52Z</time>
      </trkpt>
      <trkpt lat="46.07193" lon="4.74017">
        <ele>178</ele>
        <time>2018-01-23T10:39:53Z</time>
      </trkpt>
      <trkpt lat="46.07195" lon="4.74023">
        <ele>178</ele>
        <time>2018-01-23T10:39:54Z</time>
      </trkpt>
      <trkpt lat="46.07197" lon="4.7403">
        <ele>178</ele>
        <time>2018-01-23T10:39:55Z</time>
      </trkpt>
      <trkpt lat="46.072" lon="4.74036">
        <ele>178</ele>
        <time>2018-01-23T10:39:56Z</time>
      </trkpt>
      <trkpt lat="46.07202" lon="4.74041">
        <ele>178</ele>
        <time>2018-01-23T10:39:57Z</time>
      </trkpt>
      <trkpt lat="46.07206" lon="4.74051">
        <ele>178</ele>
        <time>2018-01-23T10:39:59Z</time>
      </trkpt>
      <trkpt lat="46.07208" lon="4.74057">
        <ele>178</ele>
        <time>2018-01-23T10:40:00Z</time>
      </trkpt>
      <trkpt lat="46.07212" lon="4.74066">
        <ele>177</ele>
        <time>2018-01-23T10:40:02Z</time>
      </trkpt>
      <trkpt lat="46.07214" lon="4.74071">
        <ele>177</ele>
        <time>2018-01-23T10:40:03Z</time>
      </trkpt>
      <trkpt lat="46.07217" lon="4.7408">
        <ele>177</ele>
        <time>2018-01-23T10:40:05Z</time>
      </trkpt>
      <trkpt lat="46.07219" lon="4.74087">
        <ele>177</ele>
        <time>2018-01-23T10:40:06Z</time>
      </trkpt>
      <trkpt lat="46.07222" lon="4.74099">
        <ele>177</ele>
        <time>2018-01-23T10:40:08Z</time>
      </trkpt>
      <trkpt lat="46.07224" lon="4.74105">
        <ele>177</ele>
        <time>2018-01-23T10:40:09Z</time>
      </trkpt>
      <trkpt lat="46.07227" lon="4.74111">
        <ele>177</ele>
        <time>2018-01-23T10:40:10Z</time>
      </trkpt>
      <trkpt lat="46.07229" lon="4.74117">
        <ele>177</ele>
        <time>2018-01-23T10:40:11Z</time>
      </trkpt>
      <trkpt lat="46.07231" lon="4.74123">
        <ele>177</ele>
        <time>2018-01-23T10:40:12Z</time>
      </trkpt>
      <trkpt lat="46.07233" lon="4.74131">
        <ele>177</ele>
        <time>2018-01-23T10:40:13Z</time>
      </trkpt>
      <trkpt lat="46.07235" lon="4.74137">
        <ele>177</ele>
        <time>2018-01-23T10:40:14Z</time>
      </trkpt>
      <trkpt lat="46.07237" lon="4.74144">
        <ele>177</ele>
        <time>2018-01-23T10:40:15Z</time>
      </trkpt>
      <trkpt lat="46.0724" lon="4.7415">
        <ele>177</ele>
        <time>2018-01-23T10:40:16Z</time>
      </trkpt>
      <trkpt lat="46.07242" lon="4.74157">
        <ele>177</ele>
        <time>2018-01-23T10:40:17Z</time>
      </trkpt>
      <trkpt lat="46.07245" lon="4.74164">
        <ele>177</ele>
        <time>2018-01-23T10:40:18Z</time>
      </trkpt>
      <trkpt lat="46.07247" lon="4.74171">
        <ele>177</ele>
        <time>2018-01-23T10:40:19Z</time>
      </trkpt>
      <trkpt lat="46.0725" lon="4.74179">
        <ele>176</ele>
        <time>2018-01-23T10:40:20Z</time>
      </trkpt>
      <trkpt lat="46.07253" lon="4.74187">
        <ele>176</ele>
        <time>2018-01-23T10:40:21Z</time>
      </trkpt>
      <trkpt lat="46.07255" lon="4.74195">
        <ele>176</ele>
        <time>2018-01-23T10:40:22Z</time>
      </trkpt>
      <trkpt lat="46.07258" lon="4.74204">
        <ele>176</ele>
        <time>2018-01-23T10:40:23Z</time>
      </trkpt>
      <trkpt lat="46.07261" lon="4.74212">
        <ele>176</ele>
        <time>2018-01-23T10:40:24Z</time>
      </trkpt>
      <trkpt lat="46.07264" lon="4.74221">
        <ele>176</ele>
        <time>2018-01-23T10:40:25Z</time>
      </trkpt>
      <trkpt lat="46.07267" lon="4.74231">
        <ele>176</ele>
        <time>2018-01-23T10:40:26Z</time>
      </trkpt>
      <trkpt lat="46.0727" lon="4.74241">
        <ele>175</ele>
        <time>2018-01-23T10:40:27Z</time>
      </trkpt>
      <trkpt lat="46.07273" lon="4.74251">
        <ele>175</ele>
        <time>2018-01-23T10:40:28Z</time>
      </trkpt>
      <trkpt lat="46.07277" lon="4.74261">
        <ele>175</ele>
        <time>2018-01-23T10:40:29Z</time>
      </trkpt>
      <trkpt lat="46.0728" lon="4.74272">
        <ele>175</ele>
        <time>2018-01-23T10:40:30Z</time>
      </trkpt>
      <trkpt lat="46.07283" lon="4.74283">
        <ele>175</ele>
        <time>2018-01-23T10:40:31Z</time>
      </trkpt>
      <trkpt lat="46.07286" lon="4.74294">
        <ele>174</ele>
        <time>2018-01-23T10:40:32Z</time>
      </trkpt>
      <trkpt lat="46.07289" lon="4.74306">
        <ele>174</ele>
        <time>2018-01-23T10:40:33Z</time>
      </trkpt>
      <trkpt lat="46.0729" lon="4.74318">
        <ele>174</ele>
        <time>2018-01-23T10:40:34Z</time>
      </trkpt>
      <trkpt lat="46.07292" lon="4.74331">
        <ele>174</ele>
        <time>2018-01-23T10:40:35Z</time>
      </trkpt>
      <trkpt lat="46.07294" lon="4.74342">
        <ele>174</ele>
        <time>2018-01-23T10:40:36Z</time>
      </trkpt>
      <trkpt lat="46.07296" lon="4.74353">
        <ele>174</ele>
        <time>2018-01-23T10:40:37Z</time>
      </trkpt>
      <trkpt lat="46.07297" lon="4.74363">
        <ele>174</ele>
        <time>2018-01-23T10:40:38Z</time>
      </trkpt>
      <trkpt lat="46.07298" lon="4.74373">
        <ele>174</ele>
        <time>2018-01-23T10:40:39Z</time>
      </trkpt>
      <trkpt lat="46.07299" lon="4.74384">
        <ele>174</ele>
        <time>2018-01-23T10:40:40Z</time>
      </trkpt>
      <trkpt lat="46.073" lon="4.74394">
        <ele>174</ele>
        <time>2018-01-23T10:40:41Z</time>
      </trkpt>
      <trkpt lat="46.073" lon="4.74404">
        <ele>174</ele>
        <time>2018-01-23T10:40:42Z</time>
      </trkpt>
      <trkpt lat="46.07302" lon="4.74413">
        <ele>174</ele>
        <time>2018-01-23T10:40:43Z</time>
      </trkpt>
      <trkpt lat="46.07303" lon="4.74421">
        <ele>175</ele>
        <time>2018-01-23T10:40:44Z</time>
      </trkpt>
      <trkpt lat="46.07305" lon="4.7443">
        <ele>175</ele>
        <time>2018-01-23T10:40:45Z</time>
      </trkpt>
      <trkpt lat="46.07308" lon="4.74439">
        <ele>175</ele>
        <time>2018-01-23T10:40:46Z</time>
      </trkpt>
      <trkpt lat="46.0731" lon="4.74448">
        <ele>175</ele>
        <time>2018-01-23T10:40:47Z</time>
      </trkpt>
      <trkpt lat="46.07313" lon="4.74457">
        <ele>175</ele>
        <time>2018-01-23T10:40:48Z</time>
      </trkpt>
      <trkpt lat="46.07316" lon="4.7447">
        <ele>175</ele>
        <time>2018-01-23T10:40:49Z</time>
      </trkpt>
      <trkpt lat="46.07318" lon="4.74478">
        <ele>175</ele>
        <time>2018-01-23T10:40:50Z</time>
      </trkpt>
      <trkpt lat="46.07321" lon="4.74487">
        <ele>175</ele>
        <time>2018-01-23T10:40:51Z</time>
      </trkpt>
      <trkpt lat="46.07325" lon="4.74497">
        <ele>176</ele>
        <time>2018-01-23T10:40:52Z</time>
      </trkpt>
      <trkpt lat="46.07329" lon="4.74505">
        <ele>176</ele>
        <time>2018-01-23T10:40:53Z</time>
      </trkpt>
      <trkpt lat="46.07333" lon="4.74515">
        <ele>176</ele>
        <time>2018-01-23T10:40:54Z</time>
      </trkpt>
      <trkpt lat="46.07338" lon="4.74523">
        <ele>175</ele>
        <time>2018-01-23T10:40:55Z</time>
      </trkpt>
      <trkpt lat="46.07343" lon="4.74531">
        <ele>175</ele>
        <time>2018-01-23T10:40:56Z</time>
      </trkpt>
      <trkpt lat="46.07347" lon="4.74538">
        <ele>175</ele>
        <time>2018-01-23T10:40:57Z</time>
      </trkpt>
      <trkpt lat="46.07353" lon="4.74545">
        <ele>175</ele>
        <time>2018-01-23T10:40:58Z</time>
      </trkpt>
      <trkpt lat="46.07358" lon="4.74553">
        <ele>175</ele>
        <time>2018-01-23T10:40:59Z</time>
      </trkpt>
      <trkpt lat="46.07363" lon="4.74561">
        <ele>175</ele>
        <time>2018-01-23T10:41:00Z</time>
      </trkpt>
      <trkpt lat="46.07367" lon="4.74568">
        <ele>175</ele>
        <time>2018-01-23T10:41:01Z</time>
      </trkpt>
      <trkpt lat="46.07371" lon="4.74576">
        <ele>175</ele>
        <time>2018-01-23T10:41:02Z</time>
      </trkpt>
      <trkpt lat="46.07374" lon="4.74584">
        <ele>175</ele>
        <time>2018-01-23T10:41:03Z</time>
      </trkpt>
      <trkpt lat="46.07378" lon="4.74591">
        <ele>174</ele>
        <time>2018-01-23T10:41:04Z</time>
      </trkpt>
      <trkpt lat="46.07382" lon="4.74599">
        <ele>174</ele>
        <time>2018-01-23T10:41:05Z</time>
      </trkpt>
      <trkpt lat="46.07385" lon="4.74607">
        <ele>174</ele>
        <time>2018-01-23T10:41:06Z</time>
      </trkpt>
      <trkpt lat="46.07389" lon="4.74613">
        <ele>174</ele>
        <time>2018-01-23T10:41:07Z</time>
      </trkpt>
      <trkpt lat="46.07392" lon="4.74621">
        <ele>174</ele>
        <time>2018-01-23T10:41:08Z</time>
      </trkpt>
      <trkpt lat="46.07395" lon="4.74628">
        <ele>174</ele>
        <time>2018-01-23T10:41:09Z</time>
      </trkpt>
      <trkpt lat="46.07399" lon="4.74635">
        <ele>174</ele>
        <time>2018-01-23T10:41:10Z</time>
      </trkpt>
      <trkpt lat="46.07402" lon="4.74641">
        <ele>174</ele>
        <time>2018-01-23T10:41:11Z</time>
      </trkpt>
      <trkpt lat="46.07407" lon="4.74648">
        <ele>173</ele>
        <time>2018-01-23T10:41:12Z</time>
      </trkpt>
      <trkpt lat="46.07411" lon="4.74655">
        <ele>173</ele>
        <time>2018-01-23T10:41:13Z</time>
      </trkpt>
      <trkpt lat="46.07416" lon="4.74661">
        <ele>172</ele>
        <time>2018-01-23T10:41:14Z</time>
      </trkpt>
      <trkpt lat="46.07419" lon="4.74668">
        <ele>172</ele>
        <time>2018-01-23T10:41:15Z</time>
      </trkpt>
      <trkpt lat="46.07423" lon="4.74676">
        <ele>172</ele>
        <time>2018-01-23T10:41:16Z</time>
      </trkpt>
      <trkpt lat="46.07426" lon="4.74683">
        <ele>172</ele>
        <time>2018-01-23T10:41:17Z</time>
      </trkpt>
      <trkpt lat="46.0743" lon="4.74693">
        <ele>173</ele>
        <time>2018-01-23T10:41:18Z</time>
      </trkpt>
      <trkpt lat="46.07433" lon="4.74701">
        <ele>173</ele>
        <time>2018-01-23T10:41:19Z</time>
      </trkpt>
      <trkpt lat="46.07437" lon="4.74708">
        <ele>173</ele>
        <time>2018-01-23T10:41:20Z</time>
      </trkpt>
      <trkpt lat="46.07442" lon="4.74715">
        <ele>173</ele>
        <time>2018-01-23T10:41:21Z</time>
      </trkpt>
      <trkpt lat="46.07446" lon="4.74724">
        <ele>173</ele>
        <time>2018-01-23T10:41:22Z</time>
      </trkpt>
      <trkpt lat="46.0745" lon="4.74731">
        <ele>173</ele>
        <time>2018-01-23T10:41:23Z</time>
      </trkpt>
      <trkpt lat="46.07453" lon="4.74739">
        <ele>173</ele>
        <time>2018-01-23T10:41:24Z</time>
      </trkpt>
      <trkpt lat="46.07458" lon="4.74746">
        <ele>173</ele>
        <time>2018-01-23T10:41:25Z</time>
      </trkpt>
      <trkpt lat="46.07462" lon="4.74752">
        <ele>173</ele>
        <time>2018-01-23T10:41:26Z</time>
      </trkpt>
      <trkpt lat="46.07466" lon="4.74758">
        <ele>173</ele>
        <time>2018-01-23T10:41:27Z</time>
      </trkpt>
      <trkpt lat="46.07472" lon="4.74764">
        <ele>173</ele>
        <time>2018-01-23T10:41:28Z</time>
      </trkpt>
      <trkpt lat="46.07477" lon="4.7477">
        <ele>173</ele>
        <time>2018-01-23T10:41:29Z</time>
      </trkpt>
      <trkpt lat="46.07483" lon="4.74775">
        <ele>173</ele>
        <time>2018-01-23T10:41:30Z</time>
      </trkpt>
      <trkpt lat="46.07488" lon="4.74779">
        <ele>173</ele>
        <time>2018-01-23T10:41:31Z</time>
      </trkpt>
      <trkpt lat="46.07494" lon="4.74783">
        <ele>173</ele>
        <time>2018-01-23T10:41:32Z</time>
      </trkpt>
      <trkpt lat="46.07499" lon="4.74787">
        <ele>173</ele>
        <time>2018-01-23T10:41:33Z</time>
      </trkpt>
      <trkpt lat="46.07506" lon="4.74792">
        <ele>172</ele>
        <time>2018-01-23T10:41:34Z</time>
      </trkpt>
      <trkpt lat="46.07511" lon="4.74796">
        <ele>172</ele>
        <time>2018-01-23T10:41:35Z</time>
      </trkpt>
      <trkpt lat="46.07517" lon="4.74801">
        <ele>172</ele>
        <time>2018-01-23T10:41:36Z</time>
      </trkpt>
      <trkpt lat="46.07522" lon="4.74805">
        <ele>172</ele>
        <time>2018-01-23T10:41:37Z</time>
      </trkpt>
      <trkpt lat="46.07528" lon="4.7481">
        <ele>172</ele>
        <time>2018-01-23T10:41:38Z</time>
      </trkpt>
      <trkpt lat="46.07534" lon="4.74814">
        <ele>172</ele>
        <time>2018-01-23T10:41:39Z</time>
      </trkpt>
      <trkpt lat="46.07539" lon="4.74818">
        <ele>172</ele>
        <time>2018-01-23T10:41:40Z</time>
      </trkpt>
      <trkpt lat="46.07545" lon="4.74824">
        <ele>172</ele>
        <time>2018-01-23T10:41:41Z</time>
      </trkpt>
      <trkpt lat="46.07551" lon="4.74828">
        <ele>172</ele>
        <time>2018-01-23T10:41:42Z</time>
      </trkpt>
      <trkpt lat="46.07557" lon="4.74833">
        <ele>172</ele>
        <time>2018-01-23T10:41:43Z</time>
      </trkpt>
      <trkpt lat="46.07563" lon="4.74838">
        <ele>171</ele>
        <time>2018-01-23T10:41:44Z</time>
      </trkpt>
      <trkpt lat="46.0757" lon="4.74842">
        <ele>171</ele>
        <time>2018-01-23T10:41:45Z</time>
      </trkpt>
      <trkpt lat="46.07575" lon="4.74847">
        <ele>171</ele>
        <time>2018-01-23T10:41:46Z</time>
      </trkpt>
      <trkpt lat="46.07582" lon="4.74853">
        <ele>171</ele>
        <time>2018-01-23T10:41:47Z</time>
      </trkpt>
      <trkpt lat="46.07587" lon="4.74858">
        <ele>171</ele>
        <time>2018-01-23T10:41:48Z</time>
      </trkpt>
      <trkpt lat="46.07593" lon="4.74862">
        <ele>171</ele>
        <time>2018-01-23T10:41:49Z</time>
      </trkpt>
      <trkpt lat="46.07599" lon="4.74867">
        <ele>171</ele>
        <time>2018-01-23T10:41:50Z</time>
      </trkpt>
      <trkpt lat="46.07605" lon="4.74872">
        <ele>171</ele>
        <time>2018-01-23T10:41:51Z</time>
      </trkpt>
      <trkpt lat="46.07611" lon="4.74877">
        <ele>171</ele>
        <time>2018-01-23T10:41:52Z</time>
      </trkpt>
      <trkpt lat="46.07617" lon="4.74882">
        <ele>171</ele>
        <time>2018-01-23T10:41:53Z</time>
      </trkpt>
      <trkpt lat="46.07622" lon="4.74887">
        <ele>171</ele>
        <time>2018-01-23T10:41:54Z</time>
      </trkpt>
      <trkpt lat="46.07628" lon="4.74891">
        <ele>171</ele>
        <time>2018-01-23T10:41:55Z</time>
      </trkpt>
      <trkpt lat="46.07633" lon="4.74895">
        <ele>171</ele>
        <time>2018-01-23T10:41:56Z</time>
      </trkpt>
      <trkpt lat="46.07639" lon="4.74899">
        <ele>171</ele>
        <time>2018-01-23T10:41:57Z</time>
      </trkpt>
      <trkpt lat="46.07644" lon="4.74903">
        <ele>171</ele>
        <time>2018-01-23T10:41:58Z</time>
      </trkpt>
      <trkpt lat="46.0765" lon="4.74907">
        <ele>171</ele>
        <time>2018-01-23T10:41:59Z</time>
      </trkpt>
      <trkpt lat="46.07656" lon="4.74912">
        <ele>172</ele>
        <time>2018-01-23T10:42:00Z</time>
      </trkpt>
      <trkpt lat="46.07661" lon="4.74917">
        <ele>172</ele>
        <time>2018-01-23T10:42:01Z</time>
      </trkpt>
      <trkpt lat="46.07667" lon="4.74921">
        <ele>172</ele>
        <time>2018-01-23T10:42:02Z</time>
      </trkpt>
      <trkpt lat="46.07672" lon="4.74926">
        <ele>172</ele>
        <time>2018-01-23T10:42:03Z</time>
      </trkpt>
      <trkpt lat="46.07677" lon="4.7493">
        <ele>172</ele>
        <time>2018-01-23T10:42:04Z</time>
      </trkpt>
      <trkpt lat="46.07683" lon="4.74937">
        <ele>172</ele>
        <time>2018-01-23T10:42:05Z</time>
      </trkpt>
      <trkpt lat="46.07688" lon="4.74942">
        <ele>172</ele>
        <time>2018-01-23T10:42:06Z</time>
      </trkpt>
      <trkpt lat="46.07693" lon="4.74947">
        <ele>172</ele>
        <time>2018-01-23T10:42:07Z</time>
      </trkpt>
      <trkpt lat="46.07699" lon="4.74952">
        <ele>172</ele>
        <time>2018-01-23T10:42:08Z</time>
      </trkpt>
      <trkpt lat="46.07704" lon="4.74955">
        <ele>172</ele>
        <time>2018-01-23T10:42:09Z</time>
      </trkpt>
      <trkpt lat="46.0771" lon="4.74959">
        <ele>172</ele>
        <time>2018-01-23T10:42:10Z</time>
      </trkpt>
      <trkpt lat="46.07716" lon="4.74963">
        <ele>172</ele>
        <time>2018-01-23T10:42:11Z</time>
      </trkpt>
      <trkpt lat="46.07721" lon="4.74965">
        <ele>172</ele>
        <time>2018-01-23T10:42:12Z</time>
      </trkpt>
      <trkpt lat="46.07726" lon="4.74969">
        <ele>172</ele>
        <time>2018-01-23T10:42:13Z</time>
      </trkpt>
      <trkpt lat="46.07731" lon="4.74974">
        <ele>172</ele>
        <time>2018-01-23T10:42:14Z</time>
      </trkpt>
      <trkpt lat="46.07736" lon="4.7498">
        <ele>172</ele>
        <time>2018-01-23T10:42:15Z</time>
      </trkpt>
      <trkpt lat="46.07741" lon="4.74984">
        <ele>173</ele>
        <time>2018-01-23T10:42:16Z</time>
      </trkpt>
      <trkpt lat="46.07746" lon="4.74988">
        <ele>173</ele>
        <time>2018-01-23T10:42:17Z</time>
      </trkpt>
      <trkpt lat="46.07751" lon="4.74993">
        <ele>173</ele>
        <time>2018-01-23T10:42:18Z</time>
      </trkpt>
      <trkpt lat="46.07756" lon="4.74996">
        <ele>173</ele>
        <time>2018-01-23T10:42:19Z</time>
      </trkpt>
      <trkpt lat="46.07761" lon="4.75">
        <ele>172</ele>
        <time>2018-01-23T10:42:20Z</time>
      </trkpt>
      <trkpt lat="46.07765" lon="4.75004">
        <ele>172</ele>
        <time>2018-01-23T10:42:21Z</time>
      </trkpt>
      <trkpt lat="46.0777" lon="4.75008">
        <ele>172</ele>
        <time>2018-01-23T10:42:22Z</time>
      </trkpt>
      <trkpt lat="46.07775" lon="4.75012">
        <ele>172</ele>
        <time>2018-01-23T10:42:23Z</time>
      </trkpt>
      <trkpt lat="46.0778" lon="4.75017">
        <ele>172</ele>
        <time>2018-01-23T10:42:24Z</time>
      </trkpt>
      <trkpt lat="46.07785" lon="4.75021">
        <ele>172</ele>
        <time>2018-01-23T10:42:25Z</time>
      </trkpt>
      <trkpt lat="46.07789" lon="4.75025">
        <ele>172</ele>
        <time>2018-01-23T10:42:26Z</time>
      </trkpt>
      <trkpt lat="46.07794" lon="4.75028">
        <ele>171</ele>
        <time>2018-01-23T10:42:27Z</time>
      </trkpt>
      <trkpt lat="46.07798" lon="4.75032">
        <ele>171</ele>
        <time>2018-01-23T10:42:28Z</time>
      </trkpt>
      <trkpt lat="46.07803" lon="4.75035">
        <ele>171</ele>
        <time>2018-01-23T10:42:29Z</time>
      </trkpt>
      <trkpt lat="46.07808" lon="4.7504">
        <ele>171</ele>
        <time>2018-01-23T10:42:30Z</time>
      </trkpt>
      <trkpt lat="46.07813" lon="4.75044">
        <ele>171</ele>
        <time>2018-01-23T10:42:31Z</time>
      </trkpt>
      <trkpt lat="46.07818" lon="4.75048">
        <ele>171</ele>
        <time>2018-01-23T10:42:32Z</time>
      </trkpt>
      <trkpt lat="46.07823" lon="4.75052">
        <ele>171</ele>
        <time>2018-01-23T10:42:33Z</time>
      </trkpt>
      <trkpt lat="46.07828" lon="4.75057">
        <ele>171</ele>
        <time>2018-01-23T10:42:34Z</time>
      </trkpt>
      <trkpt lat="46.07832" lon="4.75064">
        <ele>171</ele>
        <time>2018-01-23T10:42:35Z</time>
      </trkpt>
      <trkpt lat="46.07837" lon="4.75069">
        <ele>171</ele>
        <time>2018-01-23T10:42:36Z</time>
      </trkpt>
      <trkpt lat="46.07841" lon="4.75075">
        <ele>171</ele>
        <time>2018-01-23T10:42:37Z</time>
      </trkpt>
      <trkpt lat="46.07846" lon="4.75081">
        <ele>171</ele>
        <time>2018-01-23T10:42:38Z</time>
      </trkpt>
      <trkpt lat="46.0785" lon="4.75087">
        <ele>171</ele>
        <time>2018-01-23T10:42:39Z</time>
      </trkpt>
      <trkpt lat="46.07854" lon="4.75093">
        <ele>171</ele>
        <time>2018-01-23T10:42:40Z</time>
      </trkpt>
      <trkpt lat="46.07857" lon="4.751">
        <ele>171</ele>
        <time>2018-01-23T10:42:41Z</time>
      </trkpt>
      <trkpt lat="46.07861" lon="4.75106">
        <ele>171</ele>
        <time>2018-01-23T10:42:42Z</time>
      </trkpt>
      <trkpt lat="46.07864" lon="4.75112">
        <ele>171</ele>
        <time>2018-01-23T10:42:43Z</time>
      </trkpt>
      <trkpt lat="46.07868" lon="4.75118">
        <ele>171</ele>
        <time>2018-01-23T10:42:44Z</time>
      </trkpt>
      <trkpt lat="46.07872" lon="4.75123">
        <ele>171</ele>
        <time>2018-01-23T10:42:45Z</time>
      </trkpt>
      <trkpt lat="46.07876" lon="4.75129">
        <ele>171</ele>
        <time>2018-01-23T10:42:46Z</time>
      </trkpt>
      <trkpt lat="46.07879" lon="4.75135">
        <ele>171</ele>
        <time>2018-01-23T10:42:47Z</time>
      </trkpt>
      <trkpt lat="46.07883" lon="4.7514">
        <ele>171</ele>
        <time>2018-01-23T10:42:48Z</time>
      </trkpt>
      <trkpt lat="46.07886" lon="4.75146">
        <ele>171</ele>
        <time>2018-01-23T10:42:49Z</time>
      </trkpt>
      <trkpt lat="46.0789" lon="4.75152">
        <ele>171</ele>
        <time>2018-01-23T10:42:50Z</time>
      </trkpt>
      <trkpt lat="46.07894" lon="4.75159">
        <ele>171</ele>
        <time>2018-01-23T10:42:51Z</time>
      </trkpt>
      <trkpt lat="46.07897" lon="4.75166">
        <ele>171</ele>
        <time>2018-01-23T10:42:52Z</time>
      </trkpt>
      <trkpt lat="46.07902" lon="4.75172">
        <ele>172</ele>
        <time>2018-01-23T10:42:53Z</time>
      </trkpt>
      <trkpt lat="46.07906" lon="4.75179">
        <ele>171</ele>
        <time>2018-01-23T10:42:54Z</time>
      </trkpt>
      <trkpt lat="46.07909" lon="4.75185">
        <ele>171</ele>
        <time>2018-01-23T10:42:55Z</time>
      </trkpt>
      <trkpt lat="46.07913" lon="4.75192">
        <ele>171</ele>
        <time>2018-01-23T10:42:56Z</time>
      </trkpt>
      <trkpt lat="46.07916" lon="4.75198">
        <ele>171</ele>
        <time>2018-01-23T10:42:57Z</time>
      </trkpt>
      <trkpt lat="46.0792" lon="4.75204">
        <ele>171</ele>
        <time>2018-01-23T10:42:58Z</time>
      </trkpt>
      <trkpt lat="46.07922" lon="4.7521">
        <ele>171</ele>
        <time>2018-01-23T10:42:59Z</time>
      </trkpt>
      <trkpt lat="46.07926" lon="4.75217">
        <ele>171</ele>
        <time>2018-01-23T10:43:00Z</time>
      </trkpt>
      <trkpt lat="46.07929" lon="4.75224">
        <ele>171</ele>
        <time>2018-01-23T10:43:01Z</time>
      </trkpt>
      <trkpt lat="46.07932" lon="4.75231">
        <ele>171</ele>
        <time>2018-01-23T10:43:02Z</time>
      </trkpt>
      <trkpt lat="46.07935" lon="4.75238">
        <ele>170</ele>
        <time>2018-01-23T10:43:03Z</time>
      </trkpt>
      <trkpt lat="46.07938" lon="4.75245">
        <ele>170</ele>
        <time>2018-01-23T10:43:04Z</time>
      </trkpt>
      <trkpt lat="46.07941" lon="4.75252">
        <ele>170</ele>
        <time>2018-01-23T10:43:05Z</time>
      </trkpt>
      <trkpt lat="46.07943" lon="4.7526">
        <ele>170</ele>
        <time>2018-01-23T10:43:06Z</time>
      </trkpt>
      <trkpt lat="46.07947" lon="4.75267">
        <ele>169</ele>
        <time>2018-01-23T10:43:07Z</time>
      </trkpt>
      <trkpt lat="46.07951" lon="4.75275">
        <ele>169</ele>
        <time>2018-01-23T10:43:08Z</time>
      </trkpt>
      <trkpt lat="46.07954" lon="4.75281">
        <ele>169</ele>
        <time>2018-01-23T10:43:09Z</time>
      </trkpt>
      <trkpt lat="46.07957" lon="4.75289">
        <ele>169</ele>
        <time>2018-01-23T10:43:10Z</time>
      </trkpt>
      <trkpt lat="46.0796" lon="4.75297">
        <ele>169</ele>
        <time>2018-01-23T10:43:11Z</time>
      </trkpt>
      <trkpt lat="46.07963" lon="4.75305">
        <ele>169</ele>
        <time>2018-01-23T10:43:12Z</time>
      </trkpt>
      <trkpt lat="46.07967" lon="4.75312">
        <ele>169</ele>
        <time>2018-01-23T10:43:13Z</time>
      </trkpt>
      <trkpt lat="46.0797" lon="4.7532">
        <ele>169</ele>
        <time>2018-01-23T10:43:14Z</time>
      </trkpt>
      <trkpt lat="46.07973" lon="4.75327">
        <ele>169</ele>
        <time>2018-01-23T10:43:15Z</time>
      </trkpt>
      <trkpt lat="46.07976" lon="4.75334">
        <ele>168</ele>
        <time>2018-01-23T10:43:16Z</time>
      </trkpt>
      <trkpt lat="46.0798" lon="4.75341">
        <ele>168</ele>
        <time>2018-01-23T10:43:17Z</time>
      </trkpt>
      <trkpt lat="46.07983" lon="4.75347">
        <ele>168</ele>
        <time>2018-01-23T10:43:18Z</time>
      </trkpt>
      <trkpt lat="46.07986" lon="4.75354">
        <ele>168</ele>
        <time>2018-01-23T10:43:19Z</time>
      </trkpt>
      <trkpt lat="46.0799" lon="4.7536">
        <ele>168</ele>
        <time>2018-01-23T10:43:20Z</time>
      </trkpt>
      <trkpt lat="46.07993" lon="4.75367">
        <ele>168</ele>
        <time>2018-01-23T10:43:21Z</time>
      </trkpt>
      <trkpt lat="46.07996" lon="4.75373">
        <ele>168</ele>
        <time>2018-01-23T10:43:22Z</time>
      </trkpt>
      <trkpt lat="46.07998" lon="4.75379">
        <ele>168</ele>
        <time>2018-01-23T10:43:23Z</time>
      </trkpt>
      <trkpt lat="46.08001" lon="4.75384">
        <ele>167</ele>
        <time>2018-01-23T10:43:24Z</time>
      </trkpt>
      <trkpt lat="46.08003" lon="4.75391">
        <ele>167</ele>
        <time>2018-01-23T10:43:25Z</time>
      </trkpt>
      <trkpt lat="46.08005" lon="4.75396">
        <ele>167</ele>
        <time>2018-01-23T10:43:26Z</time>
      </trkpt>
      <trkpt lat="46.08008" lon="4.75402">
        <ele>166</ele>
        <time>2018-01-23T10:43:27Z</time>
      </trkpt>
      <trkpt lat="46.08012" lon="4.75412">
        <ele>166</ele>
        <time>2018-01-23T10:43:29Z</time>
      </trkpt>
      <trkpt lat="46.08015" lon="4.75416">
        <ele>166</ele>
        <time>2018-01-23T10:43:30Z</time>
      </trkpt>
      <trkpt lat="46.08019" lon="4.75424">
        <ele>166</ele>
        <time>2018-01-23T10:43:32Z</time>
      </trkpt>
      <trkpt lat="46.08021" lon="4.75431">
        <ele>166</ele>
        <time>2018-01-23T10:43:33Z</time>
      </trkpt>
      <trkpt lat="46.08023" lon="4.75441">
        <ele>166</ele>
        <time>2018-01-23T10:43:35Z</time>
      </trkpt>
      <trkpt lat="46.08025" lon="4.75445">
        <ele>166</ele>
        <time>2018-01-23T10:43:36Z</time>
      </trkpt>
      <trkpt lat="46.0803" lon="4.75455">
        <ele>166</ele>
        <time>2018-01-23T10:43:38Z</time>
      </trkpt>
      <trkpt lat="46.08032" lon="4.7546">
        <ele>166</ele>
        <time>2018-01-23T10:43:39Z</time>
      </trkpt>
      <trkpt lat="46.08037" lon="4.7547">
        <ele>166</ele>
        <time>2018-01-23T10:43:41Z</time>
      </trkpt>
      <trkpt lat="46.08039" lon="4.75475">
        <ele>166</ele>
        <time>2018-01-23T10:43:42Z</time>
      </trkpt>
      <trkpt lat="46.08043" lon="4.75485">
        <ele>166</ele>
        <time>2018-01-23T10:43:44Z</time>
      </trkpt>
      <trkpt lat="46.08043" lon="4.75488">
        <ele>166</ele>
        <time>2018-01-23T10:43:45Z</time>
      </trkpt>
      <trkpt lat="46.08047" lon="4.75497">
        <ele>166</ele>
        <time>2018-01-23T10:43:47Z</time>
      </trkpt>
      <trkpt lat="46.0805" lon="4.75503">
        <ele>167</ele>
        <time>2018-01-23T10:43:48Z</time>
      </trkpt>
      <trkpt lat="46.08053" lon="4.75509">
        <ele>167</ele>
        <time>2018-01-23T10:43:49Z</time>
      </trkpt>
      <trkpt lat="46.08056" lon="4.75516">
        <ele>167</ele>
        <time>2018-01-23T10:43:50Z</time>
      </trkpt>
      <trkpt lat="46.0806" lon="4.75521">
        <ele>168</ele>
        <time>2018-01-23T10:43:51Z</time>
      </trkpt>
      <trkpt lat="46.08064" lon="4.75527">
        <ele>168</ele>
        <time>2018-01-23T10:43:52Z</time>
      </trkpt>
      <trkpt lat="46.08066" lon="4.75534">
        <ele>168</ele>
        <time>2018-01-23T10:43:53Z</time>
      </trkpt>
      <trkpt lat="46.08069" lon="4.75542">
        <ele>169</ele>
        <time>2018-01-23T10:43:54Z</time>
      </trkpt>
      <trkpt lat="46.08073" lon="4.7555">
        <ele>169</ele>
        <time>2018-01-23T10:43:55Z</time>
      </trkpt>
      <trkpt lat="46.08076" lon="4.75555">
        <ele>170</ele>
        <time>2018-01-23T10:43:56Z</time>
      </trkpt>
      <trkpt lat="46.08078" lon="4.75561">
        <ele>170</ele>
        <time>2018-01-23T10:43:57Z</time>
      </trkpt>
      <trkpt lat="46.08082" lon="4.75566">
        <ele>171</ele>
        <time>2018-01-23T10:43:58Z</time>
      </trkpt>
      <trkpt lat="46.08087" lon="4.75576">
        <ele>173</ele>
        <time>2018-01-23T10:44:00Z</time>
      </trkpt>
      <trkpt lat="46.0809" lon="4.75579">
        <ele>173</ele>
        <time>2018-01-23T10:44:01Z</time>
      </trkpt>
      <trkpt lat="46.08089" lon="4.7559">
        <ele>174</ele>
        <time>2018-01-23T10:44:05Z</time>
      </trkpt>
      <trkpt lat="46.08086" lon="4.75592">
        <ele>174</ele>
        <time>2018-01-23T10:44:06Z</time>
      </trkpt>
      <trkpt lat="46.0808" lon="4.75598">
        <ele>174</ele>
        <time>2018-01-23T10:44:08Z</time>
      </trkpt>
      <trkpt lat="46.08077" lon="4.75601">
        <ele>173</ele>
        <time>2018-01-23T10:44:09Z</time>
      </trkpt>
      <trkpt lat="46.08072" lon="4.75607">
        <ele>173</ele>
        <time>2018-01-23T10:44:11Z</time>
      </trkpt>
      <trkpt lat="46.0807" lon="4.7561">
        <ele>173</ele>
        <time>2018-01-23T10:44:12Z</time>
      </trkpt>
      <trkpt lat="46.08064" lon="4.75616">
        <ele>173</ele>
        <time>2018-01-23T10:44:15Z</time>
      </trkpt>
      <trkpt lat="46.08062" lon="4.75617">
        <ele>173</ele>
        <time>2018-01-23T10:44:16Z</time>
      </trkpt>
      <trkpt lat="46.08054" lon="4.7562">
        <ele>173</ele>
        <time>2018-01-23T10:44:37Z</time>
      </trkpt>
      <trkpt lat="46.08053" lon="4.75621">
        <ele>173</ele>
        <time>2018-01-23T10:44:38Z</time>
      </trkpt>
      <trkpt lat="46.08054" lon="4.75622">
        <ele>173</ele>
        <time>2018-01-23T10:45:23Z</time>
      </trkpt>
      <trkpt lat="46.08054" lon="4.75622">
        <ele>173</ele>
        <time>2018-01-23T10:45:24Z</time>
      </trkpt>
      <trkpt lat="46.08054" lon="4.75622">
        <ele>173</ele>
        <time>2018-01-23T10:45:25Z</time>
      </trkpt>
      <trkpt lat="46.08051" lon="4.75613">
        <ele>173</ele>
        <time>2018-01-23T10:49:26Z</time>
      </trkpt>
      <trkpt lat="46.08051" lon="4.75613">
        <ele>173</ele>
        <time>2018-01-23T10:49:27Z</time>
      </trkpt>
      <trkpt lat="46.08051" lon="4.75612">
        <ele>173</ele>
        <time>2018-01-23T10:49:34Z</time>
      </trkpt>
      <trkpt lat="46.08051" lon="4.75611">
        <ele>173</ele>
        <time>2018-01-23T10:49:35Z</time>
      </trkpt>
      <trkpt lat="46.08052" lon="4.75611">
        <ele>173</ele>
        <time>2018-01-23T10:49:36Z</time>
      </trkpt>
      <trkpt lat="46.08054" lon="4.75612">
        <ele>173</ele>
        <time>2018-01-23T10:50:12Z</time>
      </trkpt>
      <trkpt lat="46.08054" lon="4.75611">
        <ele>173</ele>
        <time>2018-01-23T10:50:13Z</time>
      </trkpt>
      <trkpt lat="46.08051" lon="4.75613">
        <ele>173</ele>
        <time>2018-01-23T10:51:33Z</time>
      </trkpt>
      <trkpt lat="46.08051" lon="4.75612">
        <ele>173</ele>
        <time>2018-01-23T10:51:34Z</time>
      </trkpt>
      <trkpt lat="46.08052" lon="4.75612">
        <ele>173</ele>
        <time>2018-01-23T10:57:51Z</time>
      </trkpt>
      <trkpt lat="46.08052" lon="4.75614">
        <ele>173</ele>
        <time>2018-01-23T10:57:52Z</time>
      </trkpt>
      <trkpt lat="46.08052" lon="4.75616">
        <ele>173</ele>
        <time>2018-01-23T10:57:53Z</time>
      </trkpt>
      <trkpt lat="46.08052" lon="4.75616">
        <ele>173</ele>
        <time>2018-01-23T10:57:54Z</time>
      </trkpt>
      <trkpt lat="46.08051" lon="4.75617">
        <ele>173</ele>
        <time>2018-01-23T10:57:55Z</time>
      </trkpt>
      <trkpt lat="46.08047" lon="4.75625">
        <ele>173</ele>
        <time>2018-01-23T10:58:36Z</time>
      </trkpt>
      <trkpt lat="46.08045" lon="4.75626">
        <ele>173</ele>
        <time>2018-01-23T10:58:37Z</time>
      </trkpt>
      <trkpt lat="46.08038" lon="4.75632">
        <ele>173</ele>
        <time>2018-01-23T10:58:40Z</time>
      </trkpt>
      <trkpt lat="46.08036" lon="4.75635">
        <ele>173</ele>
        <time>2018-01-23T10:58:41Z</time>
      </trkpt>
      <trkpt lat="46.08031" lon="4.75645">
        <ele>174</ele>
        <time>2018-01-23T10:58:45Z</time>
      </trkpt>
      <trkpt lat="46.08029" lon="4.75647">
        <ele>174</ele>
        <time>2018-01-23T10:58:46Z</time>
      </trkpt>
      <trkpt lat="46.08021" lon="4.75649">
        <ele>174</ele>
        <time>2018-01-23T10:58:49Z</time>
      </trkpt>
      <trkpt lat="46.08018" lon="4.7565">
        <ele>174</ele>
        <time>2018-01-23T10:58:50Z</time>
      </trkpt>
      <trkpt lat="46.08011" lon="4.75657">
        <ele>175</ele>
        <time>2018-01-23T10:58:54Z</time>
      </trkpt>
      <trkpt lat="46.0801" lon="4.75659">
        <ele>175</ele>
        <time>2018-01-23T10:58:55Z</time>
      </trkpt>
      <trkpt lat="46.08005" lon="4.75665">
        <ele>175</ele>
        <time>2018-01-23T10:58:58Z</time>
      </trkpt>
      <trkpt lat="46.08002" lon="4.75667">
        <ele>176</ele>
        <time>2018-01-23T10:58:59Z</time>
      </trkpt>
      <trkpt lat="46.07996" lon="4.75671">
        <ele>175</ele>
        <time>2018-01-23T10:59:01Z</time>
      </trkpt>
      <trkpt lat="46.07992" lon="4.75675">
        <ele>175</ele>
        <time>2018-01-23T10:59:02Z</time>
      </trkpt>
      <trkpt lat="46.07989" lon="4.75678">
        <ele>174</ele>
        <time>2018-01-23T10:59:03Z</time>
      </trkpt>
      <trkpt lat="46.07985" lon="4.75682">
        <ele>174</ele>
        <time>2018-01-23T10:59:04Z</time>
      </trkpt>
      <trkpt lat="46.07981" lon="4.75686">
        <ele>174</ele>
        <time>2018-01-23T10:59:05Z</time>
      </trkpt>
      <trkpt lat="46.07977" lon="4.75692">
        <ele>174</ele>
        <time>2018-01-23T10:59:06Z</time>
      </trkpt>
      <trkpt lat="46.0797" lon="4.75698">
        <ele>173</ele>
        <time>2018-01-23T10:59:08Z</time>
      </trkpt>
      <trkpt lat="46.07967" lon="4.75702">
        <ele>173</ele>
        <time>2018-01-23T10:59:09Z</time>
      </trkpt>
      <trkpt lat="46.07963" lon="4.75705">
        <ele>173</ele>
        <time>2018-01-23T10:59:10Z</time>
      </trkpt>
      <trkpt lat="46.07959" lon="4.75709">
        <ele>173</ele>
        <time>2018-01-23T10:59:11Z</time>
      </trkpt>
      <trkpt lat="46.07951" lon="4.75713">
        <ele>173</ele>
        <time>2018-01-23T10:59:13Z</time>
      </trkpt>
      <trkpt lat="46.07947" lon="4.75717">
        <ele>173</ele>
        <time>2018-01-23T10:59:14Z</time>
      </trkpt>
      <trkpt lat="46.07943" lon="4.75721">
        <ele>173</ele>
        <time>2018-01-23T10:59:15Z</time>
      </trkpt>
      <trkpt lat="46.07938" lon="4.75724">
        <ele>173</ele>
        <time>2018-01-23T10:59:16Z</time>
      </trkpt>
      <trkpt lat="46.07933" lon="4.75728">
        <ele>173</ele>
        <time>2018-01-23T10:59:17Z</time>
      </trkpt>
      <trkpt lat="46.07928" lon="4.75733">
        <ele>173</ele>
        <time>2018-01-23T10:59:18Z</time>
      </trkpt>
      <trkpt lat="46.07922" lon="4.75736">
        <ele>173</ele>
        <time>2018-01-23T10:59:19Z</time>
      </trkpt>
      <trkpt lat="46.07918" lon="4.75741">
        <ele>173</ele>
        <time>2018-01-23T10:59:20Z</time>
      </trkpt>
      <trkpt lat="46.07914" lon="4.75745">
        <ele>172</ele>
        <time>2018-01-23T10:59:21Z</time>
      </trkpt>
      <trkpt lat="46.07909" lon="4.75747">
        <ele>171</ele>
        <time>2018-01-23T10:59:22Z</time>
      </trkpt>
      <trkpt lat="46.07904" lon="4.75751">
        <ele>172</ele>
        <time>2018-01-23T10:59:23Z</time>
      </trkpt>
      <trkpt lat="46.079" lon="4.75756">
        <ele>172</ele>
        <time>2018-01-23T10:59:24Z</time>
      </trkpt>
      <trkpt lat="46.07895" lon="4.7576">
        <ele>172</ele>
        <time>2018-01-23T10:59:25Z</time>
      </trkpt>
      <trkpt lat="46.07891" lon="4.75764">
        <ele>172</ele>
        <time>2018-01-23T10:59:26Z</time>
      </trkpt>
      <trkpt lat="46.07885" lon="4.75773">
        <ele>171</ele>
        <time>2018-01-23T10:59:28Z</time>
      </trkpt>
      <trkpt lat="46.07881" lon="4.75778">
        <ele>171</ele>
        <time>2018-01-23T10:59:29Z</time>
      </trkpt>
      <trkpt lat="46.07878" lon="4.75783">
        <ele>171</ele>
        <time>2018-01-23T10:59:30Z</time>
      </trkpt>
      <trkpt lat="46.07874" lon="4.75786">
        <ele>171</ele>
        <time>2018-01-23T10:59:31Z</time>
      </trkpt>
      <trkpt lat="46.07867" lon="4.75793">
        <ele>171</ele>
        <time>2018-01-23T10:59:33Z</time>
      </trkpt>
      <trkpt lat="46.07863" lon="4.75798">
        <ele>171</ele>
        <time>2018-01-23T10:59:34Z</time>
      </trkpt>
      <trkpt lat="46.07859" lon="4.75802">
        <ele>172</ele>
        <time>2018-01-23T10:59:35Z</time>
      </trkpt>
      <trkpt lat="46.07855" lon="4.75807">
        <ele>172</ele>
        <time>2018-01-23T10:59:36Z</time>
      </trkpt>
      <trkpt lat="46.07847" lon="4.75813">
        <ele>172</ele>
        <time>2018-01-23T10:59:38Z</time>
      </trkpt>
      <trkpt lat="46.07843" lon="4.75816">
        <ele>172</ele>
        <time>2018-01-23T10:59:39Z</time>
      </trkpt>
      <trkpt lat="46.07836" lon="4.75823">
        <ele>172</ele>
        <time>2018-01-23T10:59:41Z</time>
      </trkpt>
      <trkpt lat="46.07833" lon="4.75827">
        <ele>172</ele>
        <time>2018-01-23T10:59:42Z</time>
      </trkpt>
      <trkpt lat="46.07828" lon="4.75834">
        <ele>173</ele>
        <time>2018-01-23T10:59:44Z</time>
      </trkpt>
      <trkpt lat="46.07826" lon="4.75838">
        <ele>173</ele>
        <time>2018-01-23T10:59:45Z</time>
      </trkpt>
      <trkpt lat="46.0782" lon="4.75845">
        <ele>173</ele>
        <time>2018-01-23T10:59:47Z</time>
      </trkpt>
      <trkpt lat="46.07817" lon="4.75849">
        <ele>172</ele>
        <time>2018-01-23T10:59:48Z</time>
      </trkpt>
      <trkpt lat="46.07813" lon="4.75852">
        <ele>172</ele>
        <time>2018-01-23T10:59:49Z</time>
      </trkpt>
      <trkpt lat="46.07808" lon="4.75856">
        <ele>172</ele>
        <time>2018-01-23T10:59:50Z</time>
      </trkpt>
      <trkpt lat="46.07804" lon="4.7586">
        <ele>172</ele>
        <time>2018-01-23T10:59:51Z</time>
      </trkpt>
      <trkpt lat="46.07799" lon="4.75864">
        <ele>172</ele>
        <time>2018-01-23T10:59:52Z</time>
      </trkpt>
      <trkpt lat="46.07795" lon="4.75869">
        <ele>172</ele>
        <time>2018-01-23T10:59:53Z</time>
      </trkpt>
      <trkpt lat="46.0779" lon="4.75874">
        <ele>172</ele>
        <time>2018-01-23T10:59:54Z</time>
      </trkpt>
      <trkpt lat="46.07785" lon="4.75877">
        <ele>172</ele>
        <time>2018-01-23T10:59:55Z</time>
      </trkpt>
      <trkpt lat="46.07781" lon="4.7588">
        <ele>172</ele>
        <time>2018-01-23T10:59:56Z</time>
      </trkpt>
      <trkpt lat="46.07776" lon="4.75885">
        <ele>172</ele>
        <time>2018-01-23T10:59:57Z</time>
      </trkpt>
      <trkpt lat="46.0777" lon="4.75889">
        <ele>172</ele>
        <time>2018-01-23T10:59:58Z</time>
      </trkpt>
      <trkpt lat="46.07766" lon="4.75893">
        <ele>173</ele>
        <time>2018-01-23T10:59:59Z</time>
      </trkpt>
      <trkpt lat="46.07762" lon="4.75899">
        <ele>173</ele>
        <time>2018-01-23T11:00:00Z</time>
      </trkpt>
      <trkpt lat="46.07757" lon="4.75904">
        <ele>173</ele>
        <time>2018-01-23T11:00:01Z</time>
      </trkpt>
      <trkpt lat="46.07752" lon="4.75908">
        <ele>173</ele>
        <time>2018-01-23T11:00:02Z</time>
      </trkpt>
      <trkpt lat="46.07747" lon="4.75911">
        <ele>173</ele>
        <time>2018-01-23T11:00:03Z</time>
      </trkpt>
      <trkpt lat="46.07742" lon="4.75915">
        <ele>172</ele>
        <time>2018-01-23T11:00:04Z</time>
      </trkpt>
      <trkpt lat="46.07737" lon="4.7592">
        <ele>173</ele>
        <time>2018-01-23T11:00:05Z</time>
      </trkpt>
      <trkpt lat="46.07733" lon="4.75922">
        <ele>173</ele>
        <time>2018-01-23T11:00:06Z</time>
      </trkpt>
      <trkpt lat="46.07727" lon="4.75927">
        <ele>173</ele>
        <time>2018-01-23T11:00:07Z</time>
      </trkpt>
      <trkpt lat="46.07723" lon="4.7593">
        <ele>173</ele>
        <time>2018-01-23T11:00:08Z</time>
      </trkpt>
      <trkpt lat="46.07718" lon="4.75933">
        <ele>172</ele>
        <time>2018-01-23T11:00:09Z</time>
      </trkpt>
      <trkpt lat="46.07713" lon="4.75936">
        <ele>172</ele>
        <time>2018-01-23T11:00:10Z</time>
      </trkpt>
      <trkpt lat="46.07709" lon="4.75941">
        <ele>172</ele>
        <time>2018-01-23T11:00:11Z</time>
      </trkpt>
      <trkpt lat="46.07704" lon="4.75945">
        <ele>172</ele>
        <time>2018-01-23T11:00:12Z</time>
      </trkpt>
      <trkpt lat="46.077" lon="4.75949">
        <ele>172</ele>
        <time>2018-01-23T11:00:13Z</time>
      </trkpt>
      <trkpt lat="46.07696" lon="4.75952">
        <ele>172</ele>
        <time>2018-01-23T11:00:14Z</time>
      </trkpt>
      <trkpt lat="46.07691" lon="4.75956">
        <ele>172</ele>
        <time>2018-01-23T11:00:15Z</time>
      </trkpt>
      <trkpt lat="46.07687" lon="4.75961">
        <ele>172</ele>
        <time>2018-01-23T11:00:16Z</time>
      </trkpt>
      <trkpt lat="46.07682" lon="4.75963">
        <ele>172</ele>
        <time>2018-01-23T11:00:17Z</time>
      </trkpt>
      <trkpt lat="46.07677" lon="4.75966">
        <ele>172</ele>
        <time>2018-01-23T11:00:18Z</time>
      </trkpt>
      <trkpt lat="46.07672" lon="4.7597">
        <ele>172</ele>
        <time>2018-01-23T11:00:19Z</time>
      </trkpt>
      <trkpt lat="46.07666" lon="4.75971">
        <ele>170</ele>
        <time>2018-01-23T11:00:20Z</time>
      </trkpt>
      <trkpt lat="46.07661" lon="4.75973">
        <ele>170</ele>
        <time>2018-01-23T11:00:21Z</time>
      </trkpt>
      <trkpt lat="46.07656" lon="4.75976">
        <ele>170</ele>
        <time>2018-01-23T11:00:22Z</time>
      </trkpt>
      <trkpt lat="46.07652" lon="4.7598">
        <ele>170</ele>
        <time>2018-01-23T11:00:23Z</time>
      </trkpt>
      <trkpt lat="46.07648" lon="4.75983">
        <ele>170</ele>
        <time>2018-01-23T11:00:24Z</time>
      </trkpt>
      <trkpt lat="46.07643" lon="4.75993">
        <ele>170</ele>
        <time>2018-01-23T11:00:26Z</time>
      </trkpt>
      <trkpt lat="46.07643" lon="4.76">
        <ele>172</ele>
        <time>2018-01-23T11:00:27Z</time>
      </trkpt>
      <trkpt lat="46.07647" lon="4.76012">
        <ele>172</ele>
        <time>2018-01-23T11:00:29Z</time>
      </trkpt>
      <trkpt lat="46.07648" lon="4.76016">
        <ele>172</ele>
        <time>2018-01-23T11:00:30Z</time>
      </trkpt>
      <trkpt lat="46.07653" lon="4.76022">
        <ele>172</ele>
        <time>2018-01-23T11:00:32Z</time>
      </trkpt>
      <trkpt lat="46.07654" lon="4.76027">
        <ele>172</ele>
        <time>2018-01-23T11:00:33Z</time>
      </trkpt>
      <trkpt lat="46.07657" lon="4.76032">
        <ele>172</ele>
        <time>2018-01-23T11:00:34Z</time>
      </trkpt>
      <trkpt lat="46.07659" lon="4.76038">
        <ele>172</ele>
        <time>2018-01-23T11:00:35Z</time>
      </trkpt>
      <trkpt lat="46.07662" lon="4.76043">
        <ele>172</ele>
        <time>2018-01-23T11:00:36Z</time>
      </trkpt>
      <trkpt lat="46.07666" lon="4.76051">
        <ele>172</ele>
        <time>2018-01-23T11:00:37Z</time>
      </trkpt>
      <trkpt lat="46.0767" lon="4.76061">
        <ele>174</ele>
        <time>2018-01-23T11:00:39Z</time>
      </trkpt>
      <trkpt lat="46.07672" lon="4.76066">
        <ele>174</ele>
        <time>2018-01-23T11:00:40Z</time>
      </trkpt>
      <trkpt lat="46.07676" lon="4.76074">
        <ele>174</ele>
        <time>2018-01-23T11:00:42Z</time>
      </trkpt>
      <trkpt lat="46.07678" lon="4.7608">
        <ele>174</ele>
        <time>2018-01-23T11:00:43Z</time>
      </trkpt>
      <trkpt lat="46.0768" lon="4.76089">
        <ele>173</ele>
        <time>2018-01-23T11:00:45Z</time>
      </trkpt>
      <trkpt lat="46.07679" lon="4.76095">
        <ele>173</ele>
        <time>2018-01-23T11:00:46Z</time>
      </trkpt>
      <trkpt lat="46.07676" lon="4.76105">
        <ele>173</ele>
        <time>2018-01-23T11:00:48Z</time>
      </trkpt>
      <trkpt lat="46.07672" lon="4.76109">
        <ele>173</ele>
        <time>2018-01-23T11:00:49Z</time>
      </trkpt>
      <trkpt lat="46.07669" lon="4.76112">
        <ele>173</ele>
        <time>2018-01-23T11:00:50Z</time>
      </trkpt>
      <trkpt lat="46.07665" lon="4.76117">
        <ele>172</ele>
        <time>2018-01-23T11:00:51Z</time>
      </trkpt>
      <trkpt lat="46.07661" lon="4.76122">
        <ele>172</ele>
        <time>2018-01-23T11:00:52Z</time>
      </trkpt>
      <trkpt lat="46.07659" lon="4.76127">
        <ele>172</ele>
        <time>2018-01-23T11:00:53Z</time>
      </trkpt>
      <trkpt lat="46.07654" lon="4.7613">
        <ele>172</ele>
        <time>2018-01-23T11:00:54Z</time>
      </trkpt>
      <trkpt lat="46.0765" lon="4.76134">
        <ele>172</ele>
        <time>2018-01-23T11:00:55Z</time>
      </trkpt>
      <trkpt lat="46.07645" lon="4.76138">
        <ele>172</ele>
        <time>2018-01-23T11:00:56Z</time>
      </trkpt>
      <trkpt lat="46.07641" lon="4.76143">
        <ele>172</ele>
        <time>2018-01-23T11:00:57Z</time>
      </trkpt>
      <trkpt lat="46.07637" lon="4.76149">
        <ele>172</ele>
        <time>2018-01-23T11:00:58Z</time>
      </trkpt>
      <trkpt lat="46.07632" lon="4.76154">
        <ele>172</ele>
        <time>2018-01-23T11:00:59Z</time>
      </trkpt>
      <trkpt lat="46.07627" lon="4.76159">
        <ele>172</ele>
        <time>2018-01-23T11:01:00Z</time>
      </trkpt>
      <trkpt lat="46.07623" lon="4.76164">
        <ele>172</ele>
        <time>2018-01-23T11:01:01Z</time>
      </trkpt>
      <trkpt lat="46.07619" lon="4.76169">
        <ele>173</ele>
        <time>2018-01-23T11:01:02Z</time>
      </trkpt>
      <trkpt lat="46.07613" lon="4.76174">
        <ele>173</ele>
        <time>2018-01-23T11:01:03Z</time>
      </trkpt>
      <trkpt lat="46.07609" lon="4.76178">
        <ele>173</ele>
        <time>2018-01-23T11:01:04Z</time>
      </trkpt>
      <trkpt lat="46.07604" lon="4.76183">
        <ele>173</ele>
        <time>2018-01-23T11:01:05Z</time>
      </trkpt>
      <trkpt lat="46.076" lon="4.76189">
        <ele>173</ele>
        <time>2018-01-23T11:01:06Z</time>
      </trkpt>
      <trkpt lat="46.07595" lon="4.76195">
        <ele>173</ele>
        <time>2018-01-23T11:01:07Z</time>
      </trkpt>
      <trkpt lat="46.0759" lon="4.76202">
        <ele>173</ele>
        <time>2018-01-23T11:01:08Z</time>
      </trkpt>
      <trkpt lat="46.07585" lon="4.76207">
        <ele>173</ele>
        <time>2018-01-23T11:01:09Z</time>
      </trkpt>
      <trkpt lat="46.0758" lon="4.76212">
        <ele>173</ele>
        <time>2018-01-23T11:01:10Z</time>
      </trkpt>
      <trkpt lat="46.07576" lon="4.76217">
        <ele>173</ele>
        <time>2018-01-23T11:01:11Z</time>
      </trkpt>
      <trkpt lat="46.07572" lon="4.76221">
        <ele>173</ele>
        <time>2018-01-23T11:01:12Z</time>
      </trkpt>
      <trkpt lat="46.07568" lon="4.76225">
        <ele>173</ele>
        <time>2018-01-23T11:01:13Z</time>
      </trkpt>
      <trkpt lat="46.07564" lon="4.76229">
        <ele>173</ele>
        <time>2018-01-23T11:01:14Z</time>
      </trkpt>
      <trkpt lat="46.0756" lon="4.76234">
        <ele>173</ele>
        <time>2018-01-23T11:01:15Z</time>
      </trkpt>
      <trkpt lat="46.07555" lon="4.76238">
        <ele>173</ele>
        <time>2018-01-23T11:01:16Z</time>
      </trkpt>
      <trkpt lat="46.07551" lon="4.76243">
        <ele>173</ele>
        <time>2018-01-23T11:01:17Z</time>
      </trkpt>
      <trkpt lat="46.07548" lon="4.76249">
        <ele>173</ele>
        <time>2018-01-23T11:01:18Z</time>
      </trkpt>
      <trkpt lat="46.07544" lon="4.76255">
        <ele>174</ele>
        <time>2018-01-23T11:01:19Z</time>
      </trkpt>
      <trkpt lat="46.07538" lon="4.7626">
        <ele>174</ele>
        <time>2018-01-23T11:01:20Z</time>
      </trkpt>
      <trkpt lat="46.07533" lon="4.76265">
        <ele>174</ele>
        <time>2018-01-23T11:01:21Z</time>
      </trkpt>
      <trkpt lat="46.07528" lon="4.7627">
        <ele>174</ele>
        <time>2018-01-23T11:01:22Z</time>
      </trkpt>
      <trkpt lat="46.07524" lon="4.76275">
        <ele>174</ele>
        <time>2018-01-23T11:01:23Z</time>
      </trkpt>
      <trkpt lat="46.07519" lon="4.76279">
        <ele>174</ele>
        <time>2018-01-23T11:01:24Z</time>
      </trkpt>
      <trkpt lat="46.07514" lon="4.76285">
        <ele>174</ele>
        <time>2018-01-23T11:01:25Z</time>
      </trkpt>
      <trkpt lat="46.07509" lon="4.7629">
        <ele>174</ele>
        <time>2018-01-23T11:01:26Z</time>
      </trkpt>
      <trkpt lat="46.07504" lon="4.76295">
        <ele>174</ele>
        <time>2018-01-23T11:01:27Z</time>
      </trkpt>
      <trkpt lat="46.07498" lon="4.76298">
        <ele>173</ele>
        <time>2018-01-23T11:01:28Z</time>
      </trkpt>
      <trkpt lat="46.07494" lon="4.76305">
        <ele>173</ele>
        <time>2018-01-23T11:01:29Z</time>
      </trkpt>
      <trkpt lat="46.07489" lon="4.76307">
        <ele>173</ele>
        <time>2018-01-23T11:01:30Z</time>
      </trkpt>
      <trkpt lat="46.07482" lon="4.7631">
        <ele>173</ele>
        <time>2018-01-23T11:01:31Z</time>
      </trkpt>
      <trkpt lat="46.07476" lon="4.76312">
        <ele>172</ele>
        <time>2018-01-23T11:01:32Z</time>
      </trkpt>
      <trkpt lat="46.07471" lon="4.76316">
        <ele>172</ele>
        <time>2018-01-23T11:01:33Z</time>
      </trkpt>
      <trkpt lat="46.07467" lon="4.76322">
        <ele>172</ele>
        <time>2018-01-23T11:01:34Z</time>
      </trkpt>
      <trkpt lat="46.07465" lon="4.76328">
        <ele>172</ele>
        <time>2018-01-23T11:01:35Z</time>
      </trkpt>
      <trkpt lat="46.07462" lon="4.76335">
        <ele>172</ele>
        <time>2018-01-23T11:01:36Z</time>
      </trkpt>
      <trkpt lat="46.07458" lon="4.76342">
        <ele>172</ele>
        <time>2018-01-23T11:01:37Z</time>
      </trkpt>
      <trkpt lat="46.07453" lon="4.76346">
        <ele>172</ele>
        <time>2018-01-23T11:01:38Z</time>
      </trkpt>
      <trkpt lat="46.07448" lon="4.7635">
        <ele>172</ele>
        <time>2018-01-23T11:01:39Z</time>
      </trkpt>
      <trkpt lat="46.07444" lon="4.76355">
        <ele>171</ele>
        <time>2018-01-23T11:01:40Z</time>
      </trkpt>
      <trkpt lat="46.07439" lon="4.7636">
        <ele>171</ele>
        <time>2018-01-23T11:01:41Z</time>
      </trkpt>
      <trkpt lat="46.07435" lon="4.76366">
        <ele>171</ele>
        <time>2018-01-23T11:01:42Z</time>
      </trkpt>
      <trkpt lat="46.0743" lon="4.76372">
        <ele>171</ele>
        <time>2018-01-23T11:01:43Z</time>
      </trkpt>
      <trkpt lat="46.07425" lon="4.76376">
        <ele>171</ele>
        <time>2018-01-23T11:01:44Z</time>
      </trkpt>
      <trkpt lat="46.07419" lon="4.76381">
        <ele>171</ele>
        <time>2018-01-23T11:01:45Z</time>
      </trkpt>
      <trkpt lat="46.07415" lon="4.76385">
        <ele>170</ele>
        <time>2018-01-23T11:01:46Z</time>
      </trkpt>
      <trkpt lat="46.07411" lon="4.7639">
        <ele>170</ele>
        <time>2018-01-23T11:01:47Z</time>
      </trkpt>
      <trkpt lat="46.07407" lon="4.76395">
        <ele>170</ele>
        <time>2018-01-23T11:01:48Z</time>
      </trkpt>
      <trkpt lat="46.07403" lon="4.76401">
        <ele>170</ele>
        <time>2018-01-23T11:01:49Z</time>
      </trkpt>
      <trkpt lat="46.07399" lon="4.76406">
        <ele>170</ele>
        <time>2018-01-23T11:01:50Z</time>
      </trkpt>
      <trkpt lat="46.07394" lon="4.76412">
        <ele>170</ele>
        <time>2018-01-23T11:01:51Z</time>
      </trkpt>
      <trkpt lat="46.0739" lon="4.76417">
        <ele>170</ele>
        <time>2018-01-23T11:01:52Z</time>
      </trkpt>
      <trkpt lat="46.07385" lon="4.76422">
        <ele>171</ele>
        <time>2018-01-23T11:01:53Z</time>
      </trkpt>
      <trkpt lat="46.07381" lon="4.76426">
        <ele>171</ele>
        <time>2018-01-23T11:01:54Z</time>
      </trkpt>
      <trkpt lat="46.07376" lon="4.7643">
        <ele>171</ele>
        <time>2018-01-23T11:01:55Z</time>
      </trkpt>
      <trkpt lat="46.07372" lon="4.76435">
        <ele>171</ele>
        <time>2018-01-23T11:01:56Z</time>
      </trkpt>
      <trkpt lat="46.07367" lon="4.7644">
        <ele>171</ele>
        <time>2018-01-23T11:01:57Z</time>
      </trkpt>
      <trkpt lat="46.07362" lon="4.76446">
        <ele>171</ele>
        <time>2018-01-23T11:01:58Z</time>
      </trkpt>
      <trkpt lat="46.07357" lon="4.76451">
        <ele>171</ele>
        <time>2018-01-23T11:01:59Z</time>
      </trkpt>
      <trkpt lat="46.07353" lon="4.76456">
        <ele>171</ele>
        <time>2018-01-23T11:02:00Z</time>
      </trkpt>
      <trkpt lat="46.07348" lon="4.76461">
        <ele>171</ele>
        <time>2018-01-23T11:02:01Z</time>
      </trkpt>
      <trkpt lat="46.07343" lon="4.76466">
        <ele>171</ele>
        <time>2018-01-23T11:02:02Z</time>
      </trkpt>
      <trkpt lat="46.07339" lon="4.76471">
        <ele>171</ele>
        <time>2018-01-23T11:02:03Z</time>
      </trkpt>
      <trkpt lat="46.07334" lon="4.76476">
        <ele>171</ele>
        <time>2018-01-23T11:02:04Z</time>
      </trkpt>
      <trkpt lat="46.07329" lon="4.76481">
        <ele>170</ele>
        <time>2018-01-23T11:02:05Z</time>
      </trkpt>
      <trkpt lat="46.07324" lon="4.76486">
        <ele>170</ele>
        <time>2018-01-23T11:02:06Z</time>
      </trkpt>
      <trkpt lat="46.0732" lon="4.7649">
        <ele>170</ele>
        <time>2018-01-23T11:02:07Z</time>
      </trkpt>
      <trkpt lat="46.07316" lon="4.76495">
        <ele>170</ele>
        <time>2018-01-23T11:02:08Z</time>
      </trkpt>
      <trkpt lat="46.0731" lon="4.765">
        <ele>170</ele>
        <time>2018-01-23T11:02:09Z</time>
      </trkpt>
      <trkpt lat="46.07306" lon="4.76506">
        <ele>170</ele>
        <time>2018-01-23T11:02:10Z</time>
      </trkpt>
      <trkpt lat="46.07301" lon="4.7651">
        <ele>170</ele>
        <time>2018-01-23T11:02:11Z</time>
      </trkpt>
      <trkpt lat="46.07297" lon="4.76515">
        <ele>170</ele>
        <time>2018-01-23T11:02:12Z</time>
      </trkpt>
      <trkpt lat="46.07292" lon="4.76518">
        <ele>170</ele>
        <time>2018-01-23T11:02:13Z</time>
      </trkpt>
      <trkpt lat="46.07288" lon="4.76523">
        <ele>170</ele>
        <time>2018-01-23T11:02:14Z</time>
      </trkpt>
      <trkpt lat="46.07284" lon="4.76527">
        <ele>170</ele>
        <time>2018-01-23T11:02:15Z</time>
      </trkpt>
      <trkpt lat="46.0728" lon="4.76532">
        <ele>170</ele>
        <time>2018-01-23T11:02:16Z</time>
      </trkpt>
      <trkpt lat="46.07277" lon="4.76537">
        <ele>170</ele>
        <time>2018-01-23T11:02:17Z</time>
      </trkpt>
      <trkpt lat="46.07272" lon="4.76542">
        <ele>170</ele>
        <time>2018-01-23T11:02:18Z</time>
      </trkpt>
      <trkpt lat="46.07268" lon="4.76546">
        <ele>170</ele>
        <time>2018-01-23T11:02:19Z</time>
      </trkpt>
      <trkpt lat="46.07263" lon="4.7655">
        <ele>170</ele>
        <time>2018-01-23T11:02:20Z</time>
      </trkpt>
      <trkpt lat="46.07259" lon="4.76554">
        <ele>170</ele>
        <time>2018-01-23T11:02:21Z</time>
      </trkpt>
      <trkpt lat="46.07254" lon="4.76559">
        <ele>170</ele>
        <time>2018-01-23T11:02:22Z</time>
      </trkpt>
      <trkpt lat="46.0725" lon="4.76564">
        <ele>170</ele>
        <time>2018-01-23T11:02:23Z</time>
      </trkpt>
      <trkpt lat="46.07247" lon="4.76568">
        <ele>170</ele>
        <time>2018-01-23T11:02:24Z</time>
      </trkpt>
      <trkpt lat="46.07243" lon="4.76574">
        <ele>170</ele>
        <time>2018-01-23T11:02:25Z</time>
      </trkpt>
      <trkpt lat="46.07239" lon="4.76578">
        <ele>170</ele>
        <time>2018-01-23T11:02:26Z</time>
      </trkpt>
      <trkpt lat="46.07236" lon="4.76582">
        <ele>170</ele>
        <time>2018-01-23T11:02:27Z</time>
      </trkpt>
      <trkpt lat="46.07231" lon="4.76587">
        <ele>170</ele>
        <time>2018-01-23T11:02:28Z</time>
      </trkpt>
      <trkpt lat="46.07226" lon="4.76593">
        <ele>170</ele>
        <time>2018-01-23T11:02:29Z</time>
      </trkpt>
      <trkpt lat="46.07223" lon="4.76599">
        <ele>170</ele>
        <time>2018-01-23T11:02:30Z</time>
      </trkpt>
      <trkpt lat="46.07218" lon="4.76604">
        <ele>170</ele>
        <time>2018-01-23T11:02:31Z</time>
      </trkpt>
      <trkpt lat="46.07214" lon="4.7661">
        <ele>170</ele>
        <time>2018-01-23T11:02:32Z</time>
      </trkpt>
      <trkpt lat="46.0721" lon="4.76616">
        <ele>170</ele>
        <time>2018-01-23T11:02:33Z</time>
      </trkpt>
      <trkpt lat="46.07206" lon="4.76622">
        <ele>171</ele>
        <time>2018-01-23T11:02:34Z</time>
      </trkpt>
      <trkpt lat="46.07202" lon="4.76628">
        <ele>170</ele>
        <time>2018-01-23T11:02:35Z</time>
      </trkpt>
      <trkpt lat="46.07198" lon="4.76635">
        <ele>170</ele>
        <time>2018-01-23T11:02:36Z</time>
      </trkpt>
      <trkpt lat="46.07195" lon="4.76641">
        <ele>170</ele>
        <time>2018-01-23T11:02:37Z</time>
      </trkpt>
      <trkpt lat="46.07191" lon="4.76647">
        <ele>170</ele>
        <time>2018-01-23T11:02:38Z</time>
      </trkpt>
      <trkpt lat="46.07187" lon="4.76655">
        <ele>170</ele>
        <time>2018-01-23T11:02:39Z</time>
      </trkpt>
      <trkpt lat="46.07183" lon="4.76662">
        <ele>170</ele>
        <time>2018-01-23T11:02:40Z</time>
      </trkpt>
      <trkpt lat="46.07178" lon="4.76667">
        <ele>170</ele>
        <time>2018-01-23T11:02:41Z</time>
      </trkpt>
      <trkpt lat="46.07173" lon="4.76672">
        <ele>170</ele>
        <time>2018-01-23T11:02:42Z</time>
      </trkpt>
      <trkpt lat="46.0717" lon="4.76679">
        <ele>170</ele>
        <time>2018-01-23T11:02:43Z</time>
      </trkpt>
      <trkpt lat="46.07167" lon="4.76685">
        <ele>170</ele>
        <time>2018-01-23T11:02:44Z</time>
      </trkpt>
      <trkpt lat="46.07164" lon="4.76692">
        <ele>170</ele>
        <time>2018-01-23T11:02:45Z</time>
      </trkpt>
      <trkpt lat="46.0716" lon="4.76699">
        <ele>170</ele>
        <time>2018-01-23T11:02:46Z</time>
      </trkpt>
      <trkpt lat="46.07157" lon="4.76705">
        <ele>170</ele>
        <time>2018-01-23T11:02:47Z</time>
      </trkpt>
      <trkpt lat="46.07154" lon="4.76711">
        <ele>170</ele>
        <time>2018-01-23T11:02:48Z</time>
      </trkpt>
      <trkpt lat="46.07151" lon="4.76719">
        <ele>170</ele>
        <time>2018-01-23T11:02:49Z</time>
      </trkpt>
      <trkpt lat="46.07149" lon="4.76725">
        <ele>170</ele>
        <time>2018-01-23T11:02:50Z</time>
      </trkpt>
      <trkpt lat="46.07144" lon="4.76732">
        <ele>171</ele>
        <time>2018-01-23T11:02:51Z</time>
      </trkpt>
      <trkpt lat="46.07141" lon="4.76739">
        <ele>171</ele>
        <time>2018-01-23T11:02:52Z</time>
      </trkpt>
      <trkpt lat="46.07138" lon="4.76746">
        <ele>171</ele>
        <time>2018-01-23T11:02:53Z</time>
      </trkpt>
      <trkpt lat="46.07135" lon="4.76752">
        <ele>171</ele>
        <time>2018-01-23T11:02:54Z</time>
      </trkpt>
      <trkpt lat="46.07131" lon="4.76759">
        <ele>171</ele>
        <time>2018-01-23T11:02:55Z</time>
      </trkpt>
      <trkpt lat="46.07127" lon="4.76766">
        <ele>171</ele>
        <time>2018-01-23T11:02:56Z</time>
      </trkpt>
      <trkpt lat="46.07124" lon="4.76773">
        <ele>171</ele>
        <time>2018-01-23T11:02:57Z</time>
      </trkpt>
      <trkpt lat="46.0712" lon="4.76779">
        <ele>171</ele>
        <time>2018-01-23T11:02:58Z</time>
      </trkpt>
      <trkpt lat="46.07117" lon="4.76786">
        <ele>171</ele>
        <time>2018-01-23T11:02:59Z</time>
      </trkpt>
      <trkpt lat="46.07113" lon="4.76792">
        <ele>172</ele>
        <time>2018-01-23T11:03:00Z</time>
      </trkpt>
      <trkpt lat="46.0711" lon="4.76798">
        <ele>172</ele>
        <time>2018-01-23T11:03:01Z</time>
      </trkpt>
      <trkpt lat="46.07107" lon="4.76804">
        <ele>172</ele>
        <time>2018-01-23T11:03:02Z</time>
      </trkpt>
      <trkpt lat="46.07103" lon="4.7681">
        <ele>172</ele>
        <time>2018-01-23T11:03:03Z</time>
      </trkpt>
      <trkpt lat="46.07099" lon="4.76818">
        <ele>172</ele>
        <time>2018-01-23T11:03:04Z</time>
      </trkpt>
      <trkpt lat="46.07096" lon="4.76824">
        <ele>172</ele>
        <time>2018-01-23T11:03:05Z</time>
      </trkpt>
      <trkpt lat="46.07093" lon="4.7683">
        <ele>172</ele>
        <time>2018-01-23T11:03:06Z</time>
      </trkpt>
      <trkpt lat="46.0709" lon="4.76836">
        <ele>172</ele>
        <time>2018-01-23T11:03:07Z</time>
      </trkpt>
      <trkpt lat="46.07087" lon="4.76843">
        <ele>172</ele>
        <time>2018-01-23T11:03:08Z</time>
      </trkpt>
      <trkpt lat="46.07083" lon="4.7685">
        <ele>172</ele>
        <time>2018-01-23T11:03:09Z</time>
      </trkpt>
      <trkpt lat="46.0708" lon="4.76856">
        <ele>172</ele>
        <time>2018-01-23T11:03:10Z</time>
      </trkpt>
      <trkpt lat="46.07077" lon="4.76863">
        <ele>172</ele>
        <time>2018-01-23T11:03:11Z</time>
      </trkpt>
      <trkpt lat="46.07073" lon="4.76868">
        <ele>172</ele>
        <time>2018-01-23T11:03:12Z</time>
      </trkpt>
      <trkpt lat="46.0707" lon="4.76875">
        <ele>172</ele>
        <time>2018-01-23T11:03:13Z</time>
      </trkpt>
      <trkpt lat="46.07066" lon="4.76881">
        <ele>172</ele>
        <time>2018-01-23T11:03:14Z</time>
      </trkpt>
      <trkpt lat="46.07063" lon="4.76888">
        <ele>172</ele>
        <time>2018-01-23T11:03:15Z</time>
      </trkpt>
      <trkpt lat="46.0706" lon="4.76895">
        <ele>172</ele>
        <time>2018-01-23T11:03:16Z</time>
      </trkpt>
      <trkpt lat="46.07056" lon="4.76902">
        <ele>172</ele>
        <time>2018-01-23T11:03:17Z</time>
      </trkpt>
      <trkpt lat="46.07053" lon="4.76909">
        <ele>172</ele>
        <time>2018-01-23T11:03:18Z</time>
      </trkpt>
      <trkpt lat="46.07049" lon="4.76915">
        <ele>172</ele>
        <time>2018-01-23T11:03:19Z</time>
      </trkpt>
      <trkpt lat="46.07047" lon="4.76921">
        <ele>173</ele>
        <time>2018-01-23T11:03:20Z</time>
      </trkpt>
      <trkpt lat="46.07044" lon="4.76927">
        <ele>173</ele>
        <time>2018-01-23T11:03:21Z</time>
      </trkpt>
      <trkpt lat="46.07041" lon="4.76933">
        <ele>173</ele>
        <time>2018-01-23T11:03:22Z</time>
      </trkpt>
      <trkpt lat="46.07038" lon="4.7694">
        <ele>173</ele>
        <time>2018-01-23T11:03:23Z</time>
      </trkpt>
      <trkpt lat="46.07033" lon="4.76944">
        <ele>173</ele>
        <time>2018-01-23T11:03:24Z</time>
      </trkpt>
      <trkpt lat="46.07031" lon="4.7695">
        <ele>173</ele>
        <time>2018-01-23T11:03:25Z</time>
      </trkpt>
      <trkpt lat="46.07029" lon="4.76956">
        <ele>173</ele>
        <time>2018-01-23T11:03:26Z</time>
      </trkpt>
      <trkpt lat="46.07026" lon="4.76962">
        <ele>173</ele>
        <time>2018-01-23T11:03:27Z</time>
      </trkpt>
      <trkpt lat="46.07023" lon="4.76968">
        <ele>173</ele>
        <time>2018-01-23T11:03:28Z</time>
      </trkpt>
      <trkpt lat="46.07019" lon="4.76973">
        <ele>173</ele>
        <time>2018-01-23T11:03:29Z</time>
      </trkpt>
      <trkpt lat="46.07017" lon="4.76979">
        <ele>173</ele>
        <time>2018-01-23T11:03:30Z</time>
      </trkpt>
      <trkpt lat="46.07014" lon="4.76985">
        <ele>173</ele>
        <time>2018-01-23T11:03:31Z</time>
      </trkpt>
      <trkpt lat="46.07012" lon="4.76991">
        <ele>173</ele>
        <time>2018-01-23T11:03:32Z</time>
      </trkpt>
      <trkpt lat="46.07008" lon="4.76997">
        <ele>173</ele>
        <time>2018-01-23T11:03:33Z</time>
      </trkpt>
      <trkpt lat="46.07005" lon="4.77003">
        <ele>173</ele>
        <time>2018-01-23T11:03:34Z</time>
      </trkpt>
      <trkpt lat="46.07002" lon="4.77008">
        <ele>173</ele>
        <time>2018-01-23T11:03:35Z</time>
      </trkpt>
      <trkpt lat="46.06998" lon="4.77014">
        <ele>173</ele>
        <time>2018-01-23T11:03:36Z</time>
      </trkpt>
      <trkpt lat="46.06994" lon="4.77019">
        <ele>173</ele>
        <time>2018-01-23T11:03:37Z</time>
      </trkpt>
      <trkpt lat="46.06992" lon="4.77025">
        <ele>173</ele>
        <time>2018-01-23T11:03:38Z</time>
      </trkpt>
      <trkpt lat="46.06989" lon="4.77031">
        <ele>173</ele>
        <time>2018-01-23T11:03:39Z</time>
      </trkpt>
      <trkpt lat="46.06986" lon="4.77036">
        <ele>173</ele>
        <time>2018-01-23T11:03:40Z</time>
      </trkpt>
      <trkpt lat="46.06983" lon="4.77042">
        <ele>173</ele>
        <time>2018-01-23T11:03:41Z</time>
      </trkpt>
      <trkpt lat="46.06978" lon="4.77053">
        <ele>173</ele>
        <time>2018-01-23T11:03:43Z</time>
      </trkpt>
      <trkpt lat="46.06974" lon="4.77057">
        <ele>173</ele>
        <time>2018-01-23T11:03:44Z</time>
      </trkpt>
      <trkpt lat="46.06967" lon="4.77063">
        <ele>173</ele>
        <time>2018-01-23T11:03:46Z</time>
      </trkpt>
      <trkpt lat="46.06962" lon="4.77064">
        <ele>173</ele>
        <time>2018-01-23T11:03:47Z</time>
      </trkpt>
      <trkpt lat="46.06957" lon="4.77067">
        <ele>173</ele>
        <time>2018-01-23T11:03:48Z</time>
      </trkpt>
      <trkpt lat="46.06951" lon="4.77067">
        <ele>173</ele>
        <time>2018-01-23T11:03:49Z</time>
      </trkpt>
      <trkpt lat="46.06946" lon="4.77068">
        <ele>173</ele>
        <time>2018-01-23T11:03:50Z</time>
      </trkpt>
      <trkpt lat="46.0694" lon="4.77068">
        <ele>173</ele>
        <time>2018-01-23T11:03:51Z</time>
      </trkpt>
      <trkpt lat="46.06933" lon="4.77069">
        <ele>173</ele>
        <time>2018-01-23T11:03:52Z</time>
      </trkpt>
      <trkpt lat="46.06926" lon="4.77071">
        <ele>173</ele>
        <time>2018-01-23T11:03:53Z</time>
      </trkpt>
      <trkpt lat="46.06919" lon="4.77072">
        <ele>173</ele>
        <time>2018-01-23T11:03:54Z</time>
      </trkpt>
      <trkpt lat="46.06913" lon="4.77073">
        <ele>173</ele>
        <time>2018-01-23T11:03:55Z</time>
      </trkpt>
      <trkpt lat="46.06907" lon="4.77071">
        <ele>173</ele>
        <time>2018-01-23T11:03:56Z</time>
      </trkpt>
      <trkpt lat="46.06901" lon="4.7707">
        <ele>173</ele>
        <time>2018-01-23T11:03:57Z</time>
      </trkpt>
      <trkpt lat="46.06896" lon="4.77069">
        <ele>173</ele>
        <time>2018-01-23T11:03:58Z</time>
      </trkpt>
      <trkpt lat="46.06891" lon="4.7707">
        <ele>173</ele>
        <time>2018-01-23T11:03:59Z</time>
      </trkpt>
      <trkpt lat="46.06885" lon="4.77071">
        <ele>173</ele>
        <time>2018-01-23T11:04:00Z</time>
      </trkpt>
      <trkpt lat="46.0688" lon="4.77072">
        <ele>173</ele>
        <time>2018-01-23T11:04:01Z</time>
      </trkpt>
      <trkpt lat="46.06874" lon="4.77073">
        <ele>173</ele>
        <time>2018-01-23T11:04:02Z</time>
      </trkpt>
      <trkpt lat="46.06868" lon="4.77074">
        <ele>173</ele>
        <time>2018-01-23T11:04:03Z</time>
      </trkpt>
      <trkpt lat="46.06862" lon="4.77075">
        <ele>173</ele>
        <time>2018-01-23T11:04:04Z</time>
      </trkpt>
      <trkpt lat="46.06857" lon="4.77076">
        <ele>173</ele>
        <time>2018-01-23T11:04:05Z</time>
      </trkpt>
      <trkpt lat="46.06852" lon="4.77077">
        <ele>173</ele>
        <time>2018-01-23T11:04:06Z</time>
      </trkpt>
      <trkpt lat="46.06847" lon="4.77079">
        <ele>173</ele>
        <time>2018-01-23T11:04:07Z</time>
      </trkpt>
      <trkpt lat="46.06842" lon="4.77082">
        <ele>173</ele>
        <time>2018-01-23T11:04:08Z</time>
      </trkpt>
      <trkpt lat="46.06837" lon="4.77084">
        <ele>173</ele>
        <time>2018-01-23T11:04:09Z</time>
      </trkpt>
      <trkpt lat="46.06831" lon="4.77088">
        <ele>173</ele>
        <time>2018-01-23T11:04:10Z</time>
      </trkpt>
      <trkpt lat="46.06825" lon="4.77092">
        <ele>173</ele>
        <time>2018-01-23T11:04:11Z</time>
      </trkpt>
      <trkpt lat="46.06821" lon="4.77095">
        <ele>173</ele>
        <time>2018-01-23T11:04:12Z</time>
      </trkpt>
      <trkpt lat="46.06815" lon="4.77098">
        <ele>173</ele>
        <time>2018-01-23T11:04:13Z</time>
      </trkpt>
      <trkpt lat="46.0681" lon="4.77103">
        <ele>172</ele>
        <time>2018-01-23T11:04:14Z</time>
      </trkpt>
      <trkpt lat="46.06805" lon="4.77107">
        <ele>172</ele>
        <time>2018-01-23T11:04:15Z</time>
      </trkpt>
      <trkpt lat="46.06798" lon="4.77114">
        <ele>172</ele>
        <time>2018-01-23T11:04:17Z</time>
      </trkpt>
      <trkpt lat="46.06793" lon="4.77119">
        <ele>172</ele>
        <time>2018-01-23T11:04:18Z</time>
      </trkpt>
      <trkpt lat="46.06789" lon="4.77123">
        <ele>172</ele>
        <time>2018-01-23T11:04:19Z</time>
      </trkpt>
      <trkpt lat="46.06786" lon="4.77127">
        <ele>172</ele>
        <time>2018-01-23T11:04:20Z</time>
      </trkpt>
      <trkpt lat="46.06781" lon="4.77131">
        <ele>172</ele>
        <time>2018-01-23T11:04:21Z</time>
      </trkpt>
      <trkpt lat="46.06777" lon="4.77137">
        <ele>172</ele>
        <time>2018-01-23T11:04:22Z</time>
      </trkpt>
      <trkpt lat="46.06772" lon="4.7714">
        <ele>172</ele>
        <time>2018-01-23T11:04:23Z</time>
      </trkpt>
      <trkpt lat="46.06768" lon="4.77145">
        <ele>172</ele>
        <time>2018-01-23T11:04:24Z</time>
      </trkpt>
      <trkpt lat="46.06763" lon="4.7715">
        <ele>172</ele>
        <time>2018-01-23T11:04:25Z</time>
      </trkpt>
      <trkpt lat="46.06758" lon="4.77155">
        <ele>172</ele>
        <time>2018-01-23T11:04:26Z</time>
      </trkpt>
      <trkpt lat="46.06753" lon="4.77159">
        <ele>172</ele>
        <time>2018-01-23T11:04:27Z</time>
      </trkpt>
      <trkpt lat="46.06747" lon="4.77164">
        <ele>172</ele>
        <time>2018-01-23T11:04:28Z</time>
      </trkpt>
      <trkpt lat="46.06742" lon="4.77168">
        <ele>172</ele>
        <time>2018-01-23T11:04:29Z</time>
      </trkpt>
      <trkpt lat="46.06736" lon="4.77172">
        <ele>172</ele>
        <time>2018-01-23T11:04:30Z</time>
      </trkpt>
      <trkpt lat="46.06731" lon="4.77175">
        <ele>172</ele>
        <time>2018-01-23T11:04:31Z</time>
      </trkpt>
      <trkpt lat="46.06726" lon="4.7718">
        <ele>172</ele>
        <time>2018-01-23T11:04:32Z</time>
      </trkpt>
      <trkpt lat="46.0672" lon="4.77181">
        <ele>172</ele>
        <time>2018-01-23T11:04:33Z</time>
      </trkpt>
      <trkpt lat="46.06716" lon="4.77184">
        <ele>172</ele>
        <time>2018-01-23T11:04:34Z</time>
      </trkpt>
      <trkpt lat="46.06711" lon="4.77187">
        <ele>172</ele>
        <time>2018-01-23T11:04:35Z</time>
      </trkpt>
      <trkpt lat="46.06707" lon="4.77188">
        <ele>172</ele>
        <time>2018-01-23T11:04:36Z</time>
      </trkpt>
      <trkpt lat="46.06703" lon="4.7719">
        <ele>172</ele>
        <time>2018-01-23T11:04:37Z</time>
      </trkpt>
      <trkpt lat="46.06697" lon="4.77191">
        <ele>172</ele>
        <time>2018-01-23T11:04:38Z</time>
      </trkpt>
      <trkpt lat="46.06692" lon="4.77193">
        <ele>172</ele>
        <time>2018-01-23T11:04:39Z</time>
      </trkpt>
      <trkpt lat="46.06687" lon="4.77195">
        <ele>172</ele>
        <time>2018-01-23T11:04:40Z</time>
      </trkpt>
      <trkpt lat="46.06681" lon="4.77203">
        <ele>172</ele>
        <time>2018-01-23T11:04:42Z</time>
      </trkpt>
      <trkpt lat="46.06678" lon="4.7721">
        <ele>172</ele>
        <time>2018-01-23T11:04:43Z</time>
      </trkpt>
      <trkpt lat="46.06677" lon="4.77216">
        <ele>172</ele>
        <time>2018-01-23T11:04:44Z</time>
      </trkpt>
      <trkpt lat="46.06677" lon="4.77223">
        <ele>172</ele>
        <time>2018-01-23T11:04:45Z</time>
      </trkpt>
      <trkpt lat="46.06676" lon="4.77231">
        <ele>172</ele>
        <time>2018-01-23T11:04:46Z</time>
      </trkpt>
      <trkpt lat="46.06675" lon="4.77239">
        <ele>173</ele>
        <time>2018-01-23T11:04:47Z</time>
      </trkpt>
      <trkpt lat="46.06673" lon="4.77246">
        <ele>173</ele>
        <time>2018-01-23T11:04:48Z</time>
      </trkpt>
      <trkpt lat="46.0667" lon="4.77253">
        <ele>173</ele>
        <time>2018-01-23T11:04:49Z</time>
      </trkpt>
      <trkpt lat="46.06668" lon="4.77259">
        <ele>173</ele>
        <time>2018-01-23T11:04:50Z</time>
      </trkpt>
      <trkpt lat="46.06665" lon="4.77266">
        <ele>173</ele>
        <time>2018-01-23T11:04:51Z</time>
      </trkpt>
      <trkpt lat="46.06661" lon="4.77277">
        <ele>174</ele>
        <time>2018-01-23T11:04:53Z</time>
      </trkpt>
      <trkpt lat="46.06659" lon="4.77283">
        <ele>174</ele>
        <time>2018-01-23T11:04:54Z</time>
      </trkpt>
      <trkpt lat="46.06656" lon="4.77289">
        <ele>174</ele>
        <time>2018-01-23T11:04:55Z</time>
      </trkpt>
      <trkpt lat="46.06654" lon="4.77295">
        <ele>174</ele>
        <time>2018-01-23T11:04:56Z</time>
      </trkpt>
      <trkpt lat="46.06651" lon="4.77301">
        <ele>174</ele>
        <time>2018-01-23T11:04:57Z</time>
      </trkpt>
      <trkpt lat="46.06648" lon="4.77307">
        <ele>174</ele>
        <time>2018-01-23T11:04:58Z</time>
      </trkpt>
      <trkpt lat="46.06643" lon="4.77317">
        <ele>174</ele>
        <time>2018-01-23T11:05:00Z</time>
      </trkpt>
      <trkpt lat="46.06642" lon="4.77324">
        <ele>174</ele>
        <time>2018-01-23T11:05:01Z</time>
      </trkpt>
      <trkpt lat="46.06638" lon="4.77334">
        <ele>175</ele>
        <time>2018-01-23T11:05:03Z</time>
      </trkpt>
      <trkpt lat="46.06635" lon="4.77338">
        <ele>176</ele>
        <time>2018-01-23T11:05:04Z</time>
      </trkpt>
      <trkpt lat="46.06633" lon="4.77344">
        <ele>176</ele>
        <time>2018-01-23T11:05:05Z</time>
      </trkpt>
      <trkpt lat="46.06632" lon="4.77351">
        <ele>176</ele>
        <time>2018-01-23T11:05:06Z</time>
      </trkpt>
      <trkpt lat="46.0663" lon="4.77357">
        <ele>176</ele>
        <time>2018-01-23T11:05:07Z</time>
      </trkpt>
      <trkpt lat="46.06627" lon="4.77363">
        <ele>176</ele>
        <time>2018-01-23T11:05:08Z</time>
      </trkpt>
      <trkpt lat="46.06626" lon="4.77369">
        <ele>176</ele>
        <time>2018-01-23T11:05:09Z</time>
      </trkpt>
      <trkpt lat="46.06625" lon="4.77376">
        <ele>176</ele>
        <time>2018-01-23T11:05:10Z</time>
      </trkpt>
      <trkpt lat="46.06623" lon="4.77386">
        <ele>176</ele>
        <time>2018-01-23T11:05:12Z</time>
      </trkpt>
      <trkpt lat="46.0662" lon="4.7739">
        <ele>177</ele>
        <time>2018-01-23T11:05:13Z</time>
      </trkpt>
      <trkpt lat="46.06616" lon="4.77401">
        <ele>177</ele>
        <time>2018-01-23T11:05:15Z</time>
      </trkpt>
      <trkpt lat="46.06614" lon="4.77407">
        <ele>177</ele>
        <time>2018-01-23T11:05:16Z</time>
      </trkpt>
      <trkpt lat="46.06609" lon="4.77416">
        <ele>177</ele>
        <time>2018-01-23T11:05:18Z</time>
      </trkpt>
      <trkpt lat="46.06607" lon="4.77421">
        <ele>179</ele>
        <time>2018-01-23T11:05:19Z</time>
      </trkpt>
      <trkpt lat="46.06604" lon="4.77431">
        <ele>179</ele>
        <time>2018-01-23T11:05:21Z</time>
      </trkpt>
      <trkpt lat="46.06602" lon="4.77435">
        <ele>179</ele>
        <time>2018-01-23T11:05:22Z</time>
      </trkpt>
      <trkpt lat="46.066" lon="4.77447">
        <ele>180</ele>
        <time>2018-01-23T11:05:24Z</time>
      </trkpt>
      <trkpt lat="46.06599" lon="4.77452">
        <ele>180</ele>
        <time>2018-01-23T11:05:25Z</time>
      </trkpt>
      <trkpt lat="46.066" lon="4.77462">
        <ele>180</ele>
        <time>2018-01-23T11:05:27Z</time>
      </trkpt>
      <trkpt lat="46.06601" lon="4.77466">
        <ele>180</ele>
        <time>2018-01-23T11:05:28Z</time>
      </trkpt>
      <trkpt lat="46.06604" lon="4.77476">
        <ele>181</ele>
        <time>2018-01-23T11:05:30Z</time>
      </trkpt>
      <trkpt lat="46.06606" lon="4.7748">
        <ele>181</ele>
        <time>2018-01-23T11:05:31Z</time>
      </trkpt>
      <trkpt lat="46.06611" lon="4.77489">
        <ele>181</ele>
        <time>2018-01-23T11:05:33Z</time>
      </trkpt>
      <trkpt lat="46.06613" lon="4.77493">
        <ele>181</ele>
        <time>2018-01-23T11:05:34Z</time>
      </trkpt>
      <trkpt lat="46.06618" lon="4.77502">
        <ele>183</ele>
        <time>2018-01-23T11:05:36Z</time>
      </trkpt>
      <trkpt lat="46.0662" lon="4.77507">
        <ele>183</ele>
        <time>2018-01-23T11:05:37Z</time>
      </trkpt>
      <trkpt lat="46.06625" lon="4.77516">
        <ele>182</ele>
        <time>2018-01-23T11:05:39Z</time>
      </trkpt>
      <trkpt lat="46.06626" lon="4.7752">
        <ele>182</ele>
        <time>2018-01-23T11:05:40Z</time>
      </trkpt>
      <trkpt lat="46.06629" lon="4.77528">
        <ele>182</ele>
        <time>2018-01-23T11:05:42Z</time>
      </trkpt>
      <trkpt lat="46.0663" lon="4.77532">
        <ele>182</ele>
        <time>2018-01-23T11:05:43Z</time>
      </trkpt>
      <trkpt lat="46.06634" lon="4.77544">
        <ele>183</ele>
        <time>2018-01-23T11:05:46Z</time>
      </trkpt>
      <trkpt lat="46.06635" lon="4.77548">
        <ele>183</ele>
        <time>2018-01-23T11:05:47Z</time>
      </trkpt>
      <trkpt lat="46.06635" lon="4.77558">
        <ele>183</ele>
        <time>2018-01-23T11:05:49Z</time>
      </trkpt>
      <trkpt lat="46.06636" lon="4.77562">
        <ele>183</ele>
        <time>2018-01-23T11:05:50Z</time>
      </trkpt>
      <trkpt lat="46.06637" lon="4.77572">
        <ele>183</ele>
        <time>2018-01-23T11:05:52Z</time>
      </trkpt>
      <trkpt lat="46.06637" lon="4.77576">
        <ele>183</ele>
        <time>2018-01-23T11:05:53Z</time>
      </trkpt>
      <trkpt lat="46.06637" lon="4.77588">
        <ele>184</ele>
        <time>2018-01-23T11:05:56Z</time>
      </trkpt>
      <trkpt lat="46.06637" lon="4.77593">
        <ele>184</ele>
        <time>2018-01-23T11:05:57Z</time>
      </trkpt>
      <trkpt lat="46.06635" lon="4.77605">
        <ele>185</ele>
        <time>2018-01-23T11:06:00Z</time>
      </trkpt>
      <trkpt lat="46.06635" lon="4.77609">
        <ele>185</ele>
        <time>2018-01-23T11:06:01Z</time>
      </trkpt>
      <trkpt lat="46.06633" lon="4.77621">
        <ele>185</ele>
        <time>2018-01-23T11:06:04Z</time>
      </trkpt>
      <trkpt lat="46.06632" lon="4.77625">
        <ele>185</ele>
        <time>2018-01-23T11:06:05Z</time>
      </trkpt>
      <trkpt lat="46.06629" lon="4.77633">
        <ele>185</ele>
        <time>2018-01-23T11:06:07Z</time>
      </trkpt>
      <trkpt lat="46.06628" lon="4.77637">
        <ele>185</ele>
        <time>2018-01-23T11:06:08Z</time>
      </trkpt>
      <trkpt lat="46.06625" lon="4.77646">
        <ele>185</ele>
        <time>2018-01-23T11:06:10Z</time>
      </trkpt>
      <trkpt lat="46.06624" lon="4.77651">
        <ele>185</ele>
        <time>2018-01-23T11:06:11Z</time>
      </trkpt>
      <trkpt lat="46.06621" lon="4.77659">
        <ele>185</ele>
        <time>2018-01-23T11:06:13Z</time>
      </trkpt>
      <trkpt lat="46.06619" lon="4.77663">
        <ele>185</ele>
        <time>2018-01-23T11:06:14Z</time>
      </trkpt>
      <trkpt lat="46.06614" lon="4.7767">
        <ele>187</ele>
        <time>2018-01-23T11:06:16Z</time>
      </trkpt>
      <trkpt lat="46.06611" lon="4.77673">
        <ele>187</ele>
        <time>2018-01-23T11:06:17Z</time>
      </trkpt>
      <trkpt lat="46.06605" lon="4.77677">
        <ele>187</ele>
        <time>2018-01-23T11:06:19Z</time>
      </trkpt>
      <trkpt lat="46.06602" lon="4.77679">
        <ele>187</ele>
        <time>2018-01-23T11:06:20Z</time>
      </trkpt>
      <trkpt lat="46.06594" lon="4.77683">
        <ele>187</ele>
        <time>2018-01-23T11:06:22Z</time>
      </trkpt>
      <trkpt lat="46.06591" lon="4.77685">
        <ele>187</ele>
        <time>2018-01-23T11:06:23Z</time>
      </trkpt>
      <trkpt lat="46.06584" lon="4.77688">
        <ele>187</ele>
        <time>2018-01-23T11:06:25Z</time>
      </trkpt>
      <trkpt lat="46.0658" lon="4.7769">
        <ele>188</ele>
        <time>2018-01-23T11:06:26Z</time>
      </trkpt>
      <trkpt lat="46.06574" lon="4.77694">
        <ele>188</ele>
        <time>2018-01-23T11:06:28Z</time>
      </trkpt>
      <trkpt lat="46.06571" lon="4.77695">
        <ele>188</ele>
        <time>2018-01-23T11:06:29Z</time>
      </trkpt>
      <trkpt lat="46.06566" lon="4.77699">
        <ele>189</ele>
        <time>2018-01-23T11:06:31Z</time>
      </trkpt>
      <trkpt lat="46.06563" lon="4.777">
        <ele>189</ele>
        <time>2018-01-23T11:06:32Z</time>
      </trkpt>
      <trkpt lat="46.06557" lon="4.77705">
        <ele>189</ele>
        <time>2018-01-23T11:06:34Z</time>
      </trkpt>
      <trkpt lat="46.06554" lon="4.77708">
        <ele>189</ele>
        <time>2018-01-23T11:06:35Z</time>
      </trkpt>
      <trkpt lat="46.06549" lon="4.77717">
        <ele>189</ele>
        <time>2018-01-23T11:06:37Z</time>
      </trkpt>
      <trkpt lat="46.06547" lon="4.77721">
        <ele>189</ele>
        <time>2018-01-23T11:06:38Z</time>
      </trkpt>
      <trkpt lat="46.06543" lon="4.77731">
        <ele>190</ele>
        <time>2018-01-23T11:06:40Z</time>
      </trkpt>
      <trkpt lat="46.06541" lon="4.77735">
        <ele>190</ele>
        <time>2018-01-23T11:06:41Z</time>
      </trkpt>
      <trkpt lat="46.06538" lon="4.77745">
        <ele>190</ele>
        <time>2018-01-23T11:06:43Z</time>
      </trkpt>
      <trkpt lat="46.06536" lon="4.7775">
        <ele>190</ele>
        <time>2018-01-23T11:06:44Z</time>
      </trkpt>
      <trkpt lat="46.06532" lon="4.77757">
        <ele>191</ele>
        <time>2018-01-23T11:06:46Z</time>
      </trkpt>
      <trkpt lat="46.0653" lon="4.77762">
        <ele>192</ele>
        <time>2018-01-23T11:06:47Z</time>
      </trkpt>
      <trkpt lat="46.06525" lon="4.77771">
        <ele>192</ele>
        <time>2018-01-23T11:06:49Z</time>
      </trkpt>
      <trkpt lat="46.06523" lon="4.77775">
        <ele>192</ele>
        <time>2018-01-23T11:06:50Z</time>
      </trkpt>
      <trkpt lat="46.06517" lon="4.77783">
        <ele>192</ele>
        <time>2018-01-23T11:06:52Z</time>
      </trkpt>
      <trkpt lat="46.06515" lon="4.77787">
        <ele>192</ele>
        <time>2018-01-23T11:06:53Z</time>
      </trkpt>
      <trkpt lat="46.06511" lon="4.77796">
        <ele>192</ele>
        <time>2018-01-23T11:06:55Z</time>
      </trkpt>
      <trkpt lat="46.0651" lon="4.778">
        <ele>192</ele>
        <time>2018-01-23T11:06:56Z</time>
      </trkpt>
      <trkpt lat="46.06506" lon="4.77809">
        <ele>192</ele>
        <time>2018-01-23T11:06:58Z</time>
      </trkpt>
      <trkpt lat="46.06503" lon="4.77813">
        <ele>192</ele>
        <time>2018-01-23T11:06:59Z</time>
      </trkpt>
      <trkpt lat="46.065" lon="4.77822">
        <ele>192</ele>
        <time>2018-01-23T11:07:01Z</time>
      </trkpt>
      <trkpt lat="46.06497" lon="4.77826">
        <ele>192</ele>
        <time>2018-01-23T11:07:02Z</time>
      </trkpt>
      <trkpt lat="46.06493" lon="4.77835">
        <ele>192</ele>
        <time>2018-01-23T11:07:04Z</time>
      </trkpt>
      <trkpt lat="46.06491" lon="4.77839">
        <ele>192</ele>
        <time>2018-01-23T11:07:05Z</time>
      </trkpt>
      <trkpt lat="46.06487" lon="4.77848">
        <ele>192</ele>
        <time>2018-01-23T11:07:07Z</time>
      </trkpt>
      <trkpt lat="46.06486" lon="4.77852">
        <ele>192</ele>
        <time>2018-01-23T11:07:08Z</time>
      </trkpt>
      <trkpt lat="46.06483" lon="4.77861">
        <ele>192</ele>
        <time>2018-01-23T11:07:10Z</time>
      </trkpt>
      <trkpt lat="46.06482" lon="4.77865">
        <ele>192</ele>
        <time>2018-01-23T11:07:11Z</time>
      </trkpt>
      <trkpt lat="46.0648" lon="4.77873">
        <ele>193</ele>
        <time>2018-01-23T11:07:13Z</time>
      </trkpt>
      <trkpt lat="46.06478" lon="4.77878">
        <ele>193</ele>
        <time>2018-01-23T11:07:14Z</time>
      </trkpt>
      <trkpt lat="46.06474" lon="4.77889">
        <ele>193</ele>
        <time>2018-01-23T11:07:17Z</time>
      </trkpt>
      <trkpt lat="46.06473" lon="4.77892">
        <ele>193</ele>
        <time>2018-01-23T11:07:18Z</time>
      </trkpt>
      <trkpt lat="46.06469" lon="4.77903">
        <ele>193</ele>
        <time>2018-01-23T11:07:21Z</time>
      </trkpt>
      <trkpt lat="46.06467" lon="4.77907">
        <ele>193</ele>
        <time>2018-01-23T11:07:22Z</time>
      </trkpt>
      <trkpt lat="46.06463" lon="4.77918">
        <ele>194</ele>
        <time>2018-01-23T11:07:25Z</time>
      </trkpt>
      <trkpt lat="46.06461" lon="4.77922">
        <ele>194</ele>
        <time>2018-01-23T11:07:26Z</time>
      </trkpt>
      <trkpt lat="46.06458" lon="4.77929">
        <ele>195</ele>
        <time>2018-01-23T11:07:28Z</time>
      </trkpt>
      <trkpt lat="46.06456" lon="4.77933">
        <ele>195</ele>
        <time>2018-01-23T11:07:29Z</time>
      </trkpt>
      <trkpt lat="46.06453" lon="4.77945">
        <ele>195</ele>
        <time>2018-01-23T11:07:32Z</time>
      </trkpt>
      <trkpt lat="46.06452" lon="4.77949">
        <ele>195</ele>
        <time>2018-01-23T11:07:33Z</time>
      </trkpt>
      <trkpt lat="46.0645" lon="4.77958">
        <ele>195</ele>
        <time>2018-01-23T11:07:35Z</time>
      </trkpt>
      <trkpt lat="46.06449" lon="4.77962">
        <ele>195</ele>
        <time>2018-01-23T11:07:36Z</time>
      </trkpt>
      <trkpt lat="46.06448" lon="4.77974">
        <ele>195</ele>
        <time>2018-01-23T11:07:39Z</time>
      </trkpt>
      <trkpt lat="46.06447" lon="4.77978">
        <ele>195</ele>
        <time>2018-01-23T11:07:40Z</time>
      </trkpt>
      <trkpt lat="46.06446" lon="4.7799">
        <ele>195</ele>
        <time>2018-01-23T11:07:43Z</time>
      </trkpt>
      <trkpt lat="46.06445" lon="4.77995">
        <ele>195</ele>
        <time>2018-01-23T11:07:44Z</time>
      </trkpt>
      <trkpt lat="46.06442" lon="4.78006">
        <ele>197</ele>
        <time>2018-01-23T11:07:47Z</time>
      </trkpt>
      <trkpt lat="46.0644" lon="4.7801">
        <ele>197</ele>
        <time>2018-01-23T11:07:48Z</time>
      </trkpt>
      <trkpt lat="46.06436" lon="4.78018">
        <ele>197</ele>
        <time>2018-01-23T11:07:50Z</time>
      </trkpt>
      <trkpt lat="46.06434" lon="4.78021">
        <ele>197</ele>
        <time>2018-01-23T11:07:51Z</time>
      </trkpt>
      <trkpt lat="46.06429" lon="4.78028">
        <ele>198</ele>
        <time>2018-01-23T11:07:53Z</time>
      </trkpt>
      <trkpt lat="46.06426" lon="4.78031">
        <ele>198</ele>
        <time>2018-01-23T11:07:54Z</time>
      </trkpt>
      <trkpt lat="46.06421" lon="4.78038">
        <ele>198</ele>
        <time>2018-01-23T11:07:56Z</time>
      </trkpt>
      <trkpt lat="46.06418" lon="4.7804">
        <ele>198</ele>
        <time>2018-01-23T11:07:57Z</time>
      </trkpt>
      <trkpt lat="46.06412" lon="4.78046">
        <ele>197</ele>
        <time>2018-01-23T11:07:59Z</time>
      </trkpt>
      <trkpt lat="46.06409" lon="4.7805">
        <ele>197</ele>
        <time>2018-01-23T11:08:00Z</time>
      </trkpt>
      <trkpt lat="46.06404" lon="4.78059">
        <ele>198</ele>
        <time>2018-01-23T11:08:02Z</time>
      </trkpt>
      <trkpt lat="46.06401" lon="4.78064">
        <ele>198</ele>
        <time>2018-01-23T11:08:03Z</time>
      </trkpt>
      <trkpt lat="46.06397" lon="4.78074">
        <ele>198</ele>
        <time>2018-01-23T11:08:05Z</time>
      </trkpt>
      <trkpt lat="46.06395" lon="4.78079">
        <ele>198</ele>
        <time>2018-01-23T11:08:06Z</time>
      </trkpt>
      <trkpt lat="46.06392" lon="4.78091">
        <ele>200</ele>
        <time>2018-01-23T11:08:08Z</time>
      </trkpt>
      <trkpt lat="46.06391" lon="4.78097">
        <ele>200</ele>
        <time>2018-01-23T11:08:09Z</time>
      </trkpt>
      <trkpt lat="46.0639" lon="4.78109">
        <ele>200</ele>
        <time>2018-01-23T11:08:11Z</time>
      </trkpt>
      <trkpt lat="46.06389" lon="4.78115">
        <ele>200</ele>
        <time>2018-01-23T11:08:12Z</time>
      </trkpt>
      <trkpt lat="46.06388" lon="4.78127">
        <ele>201</ele>
        <time>2018-01-23T11:08:14Z</time>
      </trkpt>
      <trkpt lat="46.06388" lon="4.78133">
        <ele>201</ele>
        <time>2018-01-23T11:08:15Z</time>
      </trkpt>
      <trkpt lat="46.06389" lon="4.78144">
        <ele>201</ele>
        <time>2018-01-23T11:08:17Z</time>
      </trkpt>
      <trkpt lat="46.06389" lon="4.7815">
        <ele>201</ele>
        <time>2018-01-23T11:08:18Z</time>
      </trkpt>
      <trkpt lat="46.06388" lon="4.78161">
        <ele>201</ele>
        <time>2018-01-23T11:08:20Z</time>
      </trkpt>
      <trkpt lat="46.06387" lon="4.78167">
        <ele>204</ele>
        <time>2018-01-23T11:08:21Z</time>
      </trkpt>
      <trkpt lat="46.06386" lon="4.78179">
        <ele>204</ele>
        <time>2018-01-23T11:08:23Z</time>
      </trkpt>
      <trkpt lat="46.06385" lon="4.78184">
        <ele>204</ele>
        <time>2018-01-23T11:08:24Z</time>
      </trkpt>
      <trkpt lat="46.06384" lon="4.78195">
        <ele>204</ele>
        <time>2018-01-23T11:08:26Z</time>
      </trkpt>
      <trkpt lat="46.06383" lon="4.78202">
        <ele>204</ele>
        <time>2018-01-23T11:08:27Z</time>
      </trkpt>
      <trkpt lat="46.06379" lon="4.78212">
        <ele>204</ele>
        <time>2018-01-23T11:08:29Z</time>
      </trkpt>
      <trkpt lat="46.06374" lon="4.78212">
        <ele>204</ele>
        <time>2018-01-23T11:08:30Z</time>
      </trkpt>
      <trkpt lat="46.06368" lon="4.78221">
        <ele>205</ele>
        <time>2018-01-23T11:08:32Z</time>
      </trkpt>
      <trkpt lat="46.06365" lon="4.78224">
        <ele>205</ele>
        <time>2018-01-23T11:08:33Z</time>
      </trkpt>
      <trkpt lat="46.06359" lon="4.78232">
        <ele>205</ele>
        <time>2018-01-23T11:08:35Z</time>
      </trkpt>
      <trkpt lat="46.06356" lon="4.78235">
        <ele>205</ele>
        <time>2018-01-23T11:08:36Z</time>
      </trkpt>
      <trkpt lat="46.0635" lon="4.78242">
        <ele>205</ele>
        <time>2018-01-23T11:08:38Z</time>
      </trkpt>
      <trkpt lat="46.06345" lon="4.78241">
        <ele>205</ele>
        <time>2018-01-23T11:08:39Z</time>
      </trkpt>
      <trkpt lat="46.0634" lon="4.7824">
        <ele>205</ele>
        <time>2018-01-23T11:08:40Z</time>
      </trkpt>
      <trkpt lat="46.06336" lon="4.78239">
        <ele>205</ele>
        <time>2018-01-23T11:08:41Z</time>
      </trkpt>
      <trkpt lat="46.06329" lon="4.78235">
        <ele>206</ele>
        <time>2018-01-23T11:08:42Z</time>
      </trkpt>
      <trkpt lat="46.06325" lon="4.78233">
        <ele>206</ele>
        <time>2018-01-23T11:08:43Z</time>
      </trkpt>
      <trkpt lat="46.06321" lon="4.78229">
        <ele>205</ele>
        <time>2018-01-23T11:08:44Z</time>
      </trkpt>
      <trkpt lat="46.06316" lon="4.78227">
        <ele>205</ele>
        <time>2018-01-23T11:08:45Z</time>
      </trkpt>
      <trkpt lat="46.06309" lon="4.78223">
        <ele>205</ele>
        <time>2018-01-23T11:08:47Z</time>
      </trkpt>
      <trkpt lat="46.06304" lon="4.78222">
        <ele>205</ele>
        <time>2018-01-23T11:08:48Z</time>
      </trkpt>
      <trkpt lat="46.06297" lon="4.78215">
        <ele>205</ele>
        <time>2018-01-23T11:08:50Z</time>
      </trkpt>
      <trkpt lat="46.06293" lon="4.78213">
        <ele>205</ele>
        <time>2018-01-23T11:08:51Z</time>
      </trkpt>
      <trkpt lat="46.06289" lon="4.7821">
        <ele>205</ele>
        <time>2018-01-23T11:08:52Z</time>
      </trkpt>
      <trkpt lat="46.06284" lon="4.78208">
        <ele>205</ele>
        <time>2018-01-23T11:08:53Z</time>
      </trkpt>
      <trkpt lat="46.06277" lon="4.78204">
        <ele>205</ele>
        <time>2018-01-23T11:08:55Z</time>
      </trkpt>
      <trkpt lat="46.06273" lon="4.78202">
        <ele>205</ele>
        <time>2018-01-23T11:08:56Z</time>
      </trkpt>
      <trkpt lat="46.06267" lon="4.78196">
        <ele>205</ele>
        <time>2018-01-23T11:08:58Z</time>
      </trkpt>
      <trkpt lat="46.06264" lon="4.78195">
        <ele>205</ele>
        <time>2018-01-23T11:08:59Z</time>
      </trkpt>
      <trkpt lat="46.06259" lon="4.78191">
        <ele>205</ele>
        <time>2018-01-23T11:09:00Z</time>
      </trkpt>
      <trkpt lat="46.06255" lon="4.78188">
        <ele>205</ele>
        <time>2018-01-23T11:09:01Z</time>
      </trkpt>
      <trkpt lat="46.06251" lon="4.78185">
        <ele>205</ele>
        <time>2018-01-23T11:09:02Z</time>
      </trkpt>
      <trkpt lat="46.06246" lon="4.78182">
        <ele>206</ele>
        <time>2018-01-23T11:09:03Z</time>
      </trkpt>
      <trkpt lat="46.0624" lon="4.78178">
        <ele>206</ele>
        <time>2018-01-23T11:09:05Z</time>
      </trkpt>
      <trkpt lat="46.06238" lon="4.78175">
        <ele>206</ele>
        <time>2018-01-23T11:09:06Z</time>
      </trkpt>
      <trkpt lat="46.06231" lon="4.7817">
        <ele>206</ele>
        <time>2018-01-23T11:09:08Z</time>
      </trkpt>
      <trkpt lat="46.06227" lon="4.78168">
        <ele>206</ele>
        <time>2018-01-23T11:09:09Z</time>
      </trkpt>
      <trkpt lat="46.06221" lon="4.78163">
        <ele>205</ele>
        <time>2018-01-23T11:09:11Z</time>
      </trkpt>
      <trkpt lat="46.06217" lon="4.78161">
        <ele>205</ele>
        <time>2018-01-23T11:09:12Z</time>
      </trkpt>
      <trkpt lat="46.06209" lon="4.78156">
        <ele>205</ele>
        <time>2018-01-23T11:09:14Z</time>
      </trkpt>
      <trkpt lat="46.06205" lon="4.78154">
        <ele>205</ele>
        <time>2018-01-23T11:09:15Z</time>
      </trkpt>
      <trkpt lat="46.06197" lon="4.78151">
        <ele>205</ele>
        <time>2018-01-23T11:09:17Z</time>
      </trkpt>
      <trkpt lat="46.06193" lon="4.78149">
        <ele>205</ele>
        <time>2018-01-23T11:09:18Z</time>
      </trkpt>
      <trkpt lat="46.06185" lon="4.78145">
        <ele>206</ele>
        <time>2018-01-23T11:09:20Z</time>
      </trkpt>
      <trkpt lat="46.06182" lon="4.78143">
        <ele>206</ele>
        <time>2018-01-23T11:09:21Z</time>
      </trkpt>
      <trkpt lat="46.06174" lon="4.78138">
        <ele>206</ele>
        <time>2018-01-23T11:09:23Z</time>
      </trkpt>
      <trkpt lat="46.06171" lon="4.78136">
        <ele>206</ele>
        <time>2018-01-23T11:09:24Z</time>
      </trkpt>
      <trkpt lat="46.06164" lon="4.78132">
        <ele>208</ele>
        <time>2018-01-23T11:09:26Z</time>
      </trkpt>
      <trkpt lat="46.06161" lon="4.78129">
        <ele>208</ele>
        <time>2018-01-23T11:09:27Z</time>
      </trkpt>
      <trkpt lat="46.06154" lon="4.78124">
        <ele>208</ele>
        <time>2018-01-23T11:09:29Z</time>
      </trkpt>
      <trkpt lat="46.06151" lon="4.78121">
        <ele>208</ele>
        <time>2018-01-23T11:09:30Z</time>
      </trkpt>
      <trkpt lat="46.06145" lon="4.78114">
        <ele>208</ele>
        <time>2018-01-23T11:09:32Z</time>
      </trkpt>
      <trkpt lat="46.06142" lon="4.78111">
        <ele>208</ele>
        <time>2018-01-23T11:09:33Z</time>
      </trkpt>
      <trkpt lat="46.06136" lon="4.78104">
        <ele>208</ele>
        <time>2018-01-23T11:09:35Z</time>
      </trkpt>
      <trkpt lat="46.06132" lon="4.78101">
        <ele>209</ele>
        <time>2018-01-23T11:09:36Z</time>
      </trkpt>
      <trkpt lat="46.06126" lon="4.78096">
        <ele>209</ele>
        <time>2018-01-23T11:09:38Z</time>
      </trkpt>
      <trkpt lat="46.06123" lon="4.78093">
        <ele>209</ele>
        <time>2018-01-23T11:09:39Z</time>
      </trkpt>
      <trkpt lat="46.06116" lon="4.78086">
        <ele>209</ele>
        <time>2018-01-23T11:09:41Z</time>
      </trkpt>
      <trkpt lat="46.06113" lon="4.78083">
        <ele>210</ele>
        <time>2018-01-23T11:09:42Z</time>
      </trkpt>
      <trkpt lat="46.06106" lon="4.78076">
        <ele>210</ele>
        <time>2018-01-23T11:09:44Z</time>
      </trkpt>
      <trkpt lat="46.06103" lon="4.78072">
        <ele>210</ele>
        <time>2018-01-23T11:09:45Z</time>
      </trkpt>
      <trkpt lat="46.06097" lon="4.78065">
        <ele>210</ele>
        <time>2018-01-23T11:09:47Z</time>
      </trkpt>
      <trkpt lat="46.06094" lon="4.78062">
        <ele>210</ele>
        <time>2018-01-23T11:09:48Z</time>
      </trkpt>
      <trkpt lat="46.06087" lon="4.78055">
        <ele>210</ele>
        <time>2018-01-23T11:09:50Z</time>
      </trkpt>
      <trkpt lat="46.06085" lon="4.78049">
        <ele>210</ele>
        <time>2018-01-23T11:09:51Z</time>
      </trkpt>
      <trkpt lat="46.0608" lon="4.78046">
        <ele>211</ele>
        <time>2018-01-23T11:09:52Z</time>
      </trkpt>
      <trkpt lat="46.06076" lon="4.78042">
        <ele>211</ele>
        <time>2018-01-23T11:09:53Z</time>
      </trkpt>
      <trkpt lat="46.0607" lon="4.7804">
        <ele>211</ele>
        <time>2018-01-23T11:09:54Z</time>
      </trkpt>
      <trkpt lat="46.06065" lon="4.78036">
        <ele>211</ele>
        <time>2018-01-23T11:09:55Z</time>
      </trkpt>
      <trkpt lat="46.0606" lon="4.78033">
        <ele>211</ele>
        <time>2018-01-23T11:09:56Z</time>
      </trkpt>
      <trkpt lat="46.06057" lon="4.78029">
        <ele>211</ele>
        <time>2018-01-23T11:09:57Z</time>
      </trkpt>
      <trkpt lat="46.06052" lon="4.78021">
        <ele>211</ele>
        <time>2018-01-23T11:09:59Z</time>
      </trkpt>
      <trkpt lat="46.06049" lon="4.78017">
        <ele>211</ele>
        <time>2018-01-23T11:10:00Z</time>
      </trkpt>
      <trkpt lat="46.06043" lon="4.78009">
        <ele>211</ele>
        <time>2018-01-23T11:10:02Z</time>
      </trkpt>
      <trkpt lat="46.06041" lon="4.78005">
        <ele>211</ele>
        <time>2018-01-23T11:10:03Z</time>
      </trkpt>
      <trkpt lat="46.06035" lon="4.77996">
        <ele>211</ele>
        <time>2018-01-23T11:10:05Z</time>
      </trkpt>
      <trkpt lat="46.06033" lon="4.77992">
        <ele>211</ele>
        <time>2018-01-23T11:10:06Z</time>
      </trkpt>
      <trkpt lat="46.0603" lon="4.77988">
        <ele>211</ele>
        <time>2018-01-23T11:10:07Z</time>
      </trkpt>
      <trkpt lat="46.06026" lon="4.77982">
        <ele>211</ele>
        <time>2018-01-23T11:10:08Z</time>
      </trkpt>
      <trkpt lat="46.0602" lon="4.77975">
        <ele>211</ele>
        <time>2018-01-23T11:10:10Z</time>
      </trkpt>
      <trkpt lat="46.06016" lon="4.77971">
        <ele>211</ele>
        <time>2018-01-23T11:10:11Z</time>
      </trkpt>
      <trkpt lat="46.06009" lon="4.77964">
        <ele>211</ele>
        <time>2018-01-23T11:10:13Z</time>
      </trkpt>
      <trkpt lat="46.06004" lon="4.77961">
        <ele>211</ele>
        <time>2018-01-23T11:10:14Z</time>
      </trkpt>
      <trkpt lat="46.05998" lon="4.77952">
        <ele>212</ele>
        <time>2018-01-23T11:10:16Z</time>
      </trkpt>
      <trkpt lat="46.05995" lon="4.77947">
        <ele>212</ele>
        <time>2018-01-23T11:10:17Z</time>
      </trkpt>
      <trkpt lat="46.05993" lon="4.7794">
        <ele>212</ele>
        <time>2018-01-23T11:10:18Z</time>
      </trkpt>
      <trkpt lat="46.05991" lon="4.77934">
        <ele>212</ele>
        <time>2018-01-23T11:10:19Z</time>
      </trkpt>
      <trkpt lat="46.0599" lon="4.77924">
        <ele>212</ele>
        <time>2018-01-23T11:10:21Z</time>
      </trkpt>
      <trkpt lat="46.05989" lon="4.77919">
        <ele>211</ele>
        <time>2018-01-23T11:10:22Z</time>
      </trkpt>
      <trkpt lat="46.05986" lon="4.77911">
        <ele>211</ele>
        <time>2018-01-23T11:10:23Z</time>
      </trkpt>
      <trkpt lat="46.05983" lon="4.77905">
        <ele>211</ele>
        <time>2018-01-23T11:10:24Z</time>
      </trkpt>
      <trkpt lat="46.0598" lon="4.779">
        <ele>211</ele>
        <time>2018-01-23T11:10:25Z</time>
      </trkpt>
      <trkpt lat="46.05978" lon="4.77895">
        <ele>211</ele>
        <time>2018-01-23T11:10:26Z</time>
      </trkpt>
      <trkpt lat="46.05973" lon="4.77887">
        <ele>211</ele>
        <time>2018-01-23T11:10:28Z</time>
      </trkpt>
      <trkpt lat="46.0597" lon="4.77881">
        <ele>211</ele>
        <time>2018-01-23T11:10:29Z</time>
      </trkpt>
      <trkpt lat="46.05967" lon="4.77876">
        <ele>211</ele>
        <time>2018-01-23T11:10:30Z</time>
      </trkpt>
      <trkpt lat="46.05963" lon="4.77872">
        <ele>211</ele>
        <time>2018-01-23T11:10:31Z</time>
      </trkpt>
      <trkpt lat="46.05959" lon="4.77861">
        <ele>211</ele>
        <time>2018-01-23T11:10:33Z</time>
      </trkpt>
      <trkpt lat="46.05956" lon="4.77856">
        <ele>211</ele>
        <time>2018-01-23T11:10:34Z</time>
      </trkpt>
      <trkpt lat="46.05951" lon="4.77847">
        <ele>211</ele>
        <time>2018-01-23T11:10:36Z</time>
      </trkpt>
      <trkpt lat="46.05948" lon="4.77843">
        <ele>211</ele>
        <time>2018-01-23T11:10:37Z</time>
      </trkpt>
      <trkpt lat="46.05945" lon="4.77839">
        <ele>211</ele>
        <time>2018-01-23T11:10:38Z</time>
      </trkpt>
      <trkpt lat="46.05941" lon="4.77833">
        <ele>210</ele>
        <time>2018-01-23T11:10:39Z</time>
      </trkpt>
      <trkpt lat="46.05939" lon="4.77826">
        <ele>210</ele>
        <time>2018-01-23T11:10:40Z</time>
      </trkpt>
      <trkpt lat="46.05934" lon="4.77823">
        <ele>210</ele>
        <time>2018-01-23T11:10:41Z</time>
      </trkpt>
      <trkpt lat="46.05931" lon="4.77818">
        <ele>210</ele>
        <time>2018-01-23T11:10:42Z</time>
      </trkpt>
      <trkpt lat="46.05927" lon="4.77811">
        <ele>210</ele>
        <time>2018-01-23T11:10:43Z</time>
      </trkpt>
      <trkpt lat="46.05923" lon="4.77806">
        <ele>210</ele>
        <time>2018-01-23T11:10:44Z</time>
      </trkpt>
      <trkpt lat="46.05921" lon="4.778">
        <ele>210</ele>
        <time>2018-01-23T11:10:45Z</time>
      </trkpt>
      <trkpt lat="46.05918" lon="4.77795">
        <ele>210</ele>
        <time>2018-01-23T11:10:46Z</time>
      </trkpt>
      <trkpt lat="46.05914" lon="4.77789">
        <ele>210</ele>
        <time>2018-01-23T11:10:47Z</time>
      </trkpt>
      <trkpt lat="46.05911" lon="4.77784">
        <ele>210</ele>
        <time>2018-01-23T11:10:48Z</time>
      </trkpt>
      <trkpt lat="46.05907" lon="4.77778">
        <ele>210</ele>
        <time>2018-01-23T11:10:49Z</time>
      </trkpt>
      <trkpt lat="46.05905" lon="4.7777">
        <ele>210</ele>
        <time>2018-01-23T11:10:50Z</time>
      </trkpt>
      <trkpt lat="46.05901" lon="4.77764">
        <ele>209</ele>
        <time>2018-01-23T11:10:51Z</time>
      </trkpt>
      <trkpt lat="46.05896" lon="4.77757">
        <ele>209</ele>
        <time>2018-01-23T11:10:52Z</time>
      </trkpt>
      <trkpt lat="46.05896" lon="4.7775">
        <ele>209</ele>
        <time>2018-01-23T11:10:53Z</time>
      </trkpt>
      <trkpt lat="46.05895" lon="4.77742">
        <ele>209</ele>
        <time>2018-01-23T11:10:54Z</time>
      </trkpt>
      <trkpt lat="46.05893" lon="4.77735">
        <ele>209</ele>
        <time>2018-01-23T11:10:55Z</time>
      </trkpt>
      <trkpt lat="46.05892" lon="4.77725">
        <ele>209</ele>
        <time>2018-01-23T11:10:56Z</time>
      </trkpt>
      <trkpt lat="46.05892" lon="4.77717">
        <ele>208</ele>
        <time>2018-01-23T11:10:57Z</time>
      </trkpt>
      <trkpt lat="46.05891" lon="4.77709">
        <ele>208</ele>
        <time>2018-01-23T11:10:58Z</time>
      </trkpt>
      <trkpt lat="46.05891" lon="4.77702">
        <ele>208</ele>
        <time>2018-01-23T11:10:59Z</time>
      </trkpt>
      <trkpt lat="46.05889" lon="4.77695">
        <ele>208</ele>
        <time>2018-01-23T11:11:00Z</time>
      </trkpt>
      <trkpt lat="46.05887" lon="4.77688">
        <ele>208</ele>
        <time>2018-01-23T11:11:01Z</time>
      </trkpt>
      <trkpt lat="46.05885" lon="4.77682">
        <ele>208</ele>
        <time>2018-01-23T11:11:02Z</time>
      </trkpt>
      <trkpt lat="46.05883" lon="4.77675">
        <ele>208</ele>
        <time>2018-01-23T11:11:03Z</time>
      </trkpt>
      <trkpt lat="46.0588" lon="4.77669">
        <ele>208</ele>
        <time>2018-01-23T11:11:04Z</time>
      </trkpt>
      <trkpt lat="46.05877" lon="4.77663">
        <ele>208</ele>
        <time>2018-01-23T11:11:05Z</time>
      </trkpt>
      <trkpt lat="46.05873" lon="4.77657">
        <ele>208</ele>
        <time>2018-01-23T11:11:06Z</time>
      </trkpt>
      <trkpt lat="46.05868" lon="4.7765">
        <ele>208</ele>
        <time>2018-01-23T11:11:07Z</time>
      </trkpt>
      <trkpt lat="46.05863" lon="4.77646">
        <ele>208</ele>
        <time>2018-01-23T11:11:08Z</time>
      </trkpt>
      <trkpt lat="46.05858" lon="4.77641">
        <ele>208</ele>
        <time>2018-01-23T11:11:09Z</time>
      </trkpt>
      <trkpt lat="46.05854" lon="4.77636">
        <ele>208</ele>
        <time>2018-01-23T11:11:10Z</time>
      </trkpt>
      <trkpt lat="46.05849" lon="4.77632">
        <ele>208</ele>
        <time>2018-01-23T11:11:11Z</time>
      </trkpt>
      <trkpt lat="46.05845" lon="4.77627">
        <ele>208</ele>
        <time>2018-01-23T11:11:12Z</time>
      </trkpt>
      <trkpt lat="46.05841" lon="4.77623">
        <ele>208</ele>
        <time>2018-01-23T11:11:13Z</time>
      </trkpt>
      <trkpt lat="46.05836" lon="4.77618">
        <ele>208</ele>
        <time>2018-01-23T11:11:14Z</time>
      </trkpt>
      <trkpt lat="46.05832" lon="4.77613">
        <ele>209</ele>
        <time>2018-01-23T11:11:15Z</time>
      </trkpt>
      <trkpt lat="46.05827" lon="4.77607">
        <ele>208</ele>
        <time>2018-01-23T11:11:16Z</time>
      </trkpt>
      <trkpt lat="46.05821" lon="4.77602">
        <ele>208</ele>
        <time>2018-01-23T11:11:17Z</time>
      </trkpt>
      <trkpt lat="46.05817" lon="4.77597">
        <ele>208</ele>
        <time>2018-01-23T11:11:18Z</time>
      </trkpt>
      <trkpt lat="46.05812" lon="4.77592">
        <ele>208</ele>
        <time>2018-01-23T11:11:19Z</time>
      </trkpt>
      <trkpt lat="46.05808" lon="4.77586">
        <ele>208</ele>
        <time>2018-01-23T11:11:20Z</time>
      </trkpt>
      <trkpt lat="46.05804" lon="4.77582">
        <ele>208</ele>
        <time>2018-01-23T11:11:21Z</time>
      </trkpt>
      <trkpt lat="46.058" lon="4.77577">
        <ele>208</ele>
        <time>2018-01-23T11:11:22Z</time>
      </trkpt>
      <trkpt lat="46.05795" lon="4.77573">
        <ele>208</ele>
        <time>2018-01-23T11:11:23Z</time>
      </trkpt>
      <trkpt lat="46.05791" lon="4.77568">
        <ele>208</ele>
        <time>2018-01-23T11:11:24Z</time>
      </trkpt>
      <trkpt lat="46.05788" lon="4.77563">
        <ele>208</ele>
        <time>2018-01-23T11:11:25Z</time>
      </trkpt>
      <trkpt lat="46.05784" lon="4.77556">
        <ele>208</ele>
        <time>2018-01-23T11:11:26Z</time>
      </trkpt>
      <trkpt lat="46.05781" lon="4.77551">
        <ele>208</ele>
        <time>2018-01-23T11:11:27Z</time>
      </trkpt>
      <trkpt lat="46.05777" lon="4.77544">
        <ele>208</ele>
        <time>2018-01-23T11:11:28Z</time>
      </trkpt>
      <trkpt lat="46.05773" lon="4.77539">
        <ele>208</ele>
        <time>2018-01-23T11:11:29Z</time>
      </trkpt>
      <trkpt lat="46.0577" lon="4.77532">
        <ele>208</ele>
        <time>2018-01-23T11:11:30Z</time>
      </trkpt>
      <trkpt lat="46.05766" lon="4.77525">
        <ele>208</ele>
        <time>2018-01-23T11:11:31Z</time>
      </trkpt>
      <trkpt lat="46.05763" lon="4.7752">
        <ele>208</ele>
        <time>2018-01-23T11:11:32Z</time>
      </trkpt>
      <trkpt lat="46.05759" lon="4.77514">
        <ele>208</ele>
        <time>2018-01-23T11:11:33Z</time>
      </trkpt>
      <trkpt lat="46.05755" lon="4.77508">
        <ele>208</ele>
        <time>2018-01-23T11:11:34Z</time>
      </trkpt>
      <trkpt lat="46.05751" lon="4.77502">
        <ele>208</ele>
        <time>2018-01-23T11:11:35Z</time>
      </trkpt>
      <trkpt lat="46.05747" lon="4.77495">
        <ele>208</ele>
        <time>2018-01-23T11:11:36Z</time>
      </trkpt>
      <trkpt lat="46.05742" lon="4.77488">
        <ele>207</ele>
        <time>2018-01-23T11:11:37Z</time>
      </trkpt>
      <trkpt lat="46.05738" lon="4.77481">
        <ele>207</ele>
        <time>2018-01-23T11:11:38Z</time>
      </trkpt>
      <trkpt lat="46.05731" lon="4.77476">
        <ele>207</ele>
        <time>2018-01-23T11:11:39Z</time>
      </trkpt>
      <trkpt lat="46.05725" lon="4.7747">
        <ele>207</ele>
        <time>2018-01-23T11:11:40Z</time>
      </trkpt>
      <trkpt lat="46.05719" lon="4.77466">
        <ele>207</ele>
        <time>2018-01-23T11:11:41Z</time>
      </trkpt>
      <trkpt lat="46.05715" lon="4.7746">
        <ele>207</ele>
        <time>2018-01-23T11:11:42Z</time>
      </trkpt>
      <trkpt lat="46.0571" lon="4.77454">
        <ele>207</ele>
        <time>2018-01-23T11:11:43Z</time>
      </trkpt>
      <trkpt lat="46.05704" lon="4.7745">
        <ele>207</ele>
        <time>2018-01-23T11:11:44Z</time>
      </trkpt>
      <trkpt lat="46.05698" lon="4.77446">
        <ele>207</ele>
        <time>2018-01-23T11:11:45Z</time>
      </trkpt>
      <trkpt lat="46.05693" lon="4.77442">
        <ele>206</ele>
        <time>2018-01-23T11:11:46Z</time>
      </trkpt>
      <trkpt lat="46.05687" lon="4.77438">
        <ele>206</ele>
        <time>2018-01-23T11:11:47Z</time>
      </trkpt>
      <trkpt lat="46.05682" lon="4.77433">
        <ele>206</ele>
        <time>2018-01-23T11:11:48Z</time>
      </trkpt>
      <trkpt lat="46.05677" lon="4.77427">
        <ele>206</ele>
        <time>2018-01-23T11:11:49Z</time>
      </trkpt>
      <trkpt lat="46.05672" lon="4.77422">
        <ele>205</ele>
        <time>2018-01-23T11:11:50Z</time>
      </trkpt>
      <trkpt lat="46.05667" lon="4.77417">
        <ele>205</ele>
        <time>2018-01-23T11:11:51Z</time>
      </trkpt>
      <trkpt lat="46.05661" lon="4.77411">
        <ele>204</ele>
        <time>2018-01-23T11:11:52Z</time>
      </trkpt>
      <trkpt lat="46.05655" lon="4.77406">
        <ele>204</ele>
        <time>2018-01-23T11:11:53Z</time>
      </trkpt>
      <trkpt lat="46.05649" lon="4.77402">
        <ele>204</ele>
        <time>2018-01-23T11:11:54Z</time>
      </trkpt>
      <trkpt lat="46.05642" lon="4.77396">
        <ele>203</ele>
        <time>2018-01-23T11:11:55Z</time>
      </trkpt>
      <trkpt lat="46.05636" lon="4.7739">
        <ele>203</ele>
        <time>2018-01-23T11:11:56Z</time>
      </trkpt>
      <trkpt lat="46.0563" lon="4.77384">
        <ele>203</ele>
        <time>2018-01-23T11:11:57Z</time>
      </trkpt>
      <trkpt lat="46.05624" lon="4.77379">
        <ele>203</ele>
        <time>2018-01-23T11:11:58Z</time>
      </trkpt>
      <trkpt lat="46.05617" lon="4.77374">
        <ele>203</ele>
        <time>2018-01-23T11:11:59Z</time>
      </trkpt>
      <trkpt lat="46.0561" lon="4.7737">
        <ele>202</ele>
        <time>2018-01-23T11:12:00Z</time>
      </trkpt>
      <trkpt lat="46.05604" lon="4.77365">
        <ele>202</ele>
        <time>2018-01-23T11:12:01Z</time>
      </trkpt>
      <trkpt lat="46.05598" lon="4.7736">
        <ele>202</ele>
        <time>2018-01-23T11:12:02Z</time>
      </trkpt>
      <trkpt lat="46.05592" lon="4.77355">
        <ele>202</ele>
        <time>2018-01-23T11:12:03Z</time>
      </trkpt>
      <trkpt lat="46.05586" lon="4.77351">
        <ele>201</ele>
        <time>2018-01-23T11:12:04Z</time>
      </trkpt>
      <trkpt lat="46.05579" lon="4.77346">
        <ele>201</ele>
        <time>2018-01-23T11:12:05Z</time>
      </trkpt>
      <trkpt lat="46.05572" lon="4.77342">
        <ele>201</ele>
        <time>2018-01-23T11:12:06Z</time>
      </trkpt>
      <trkpt lat="46.05565" lon="4.77338">
        <ele>201</ele>
        <time>2018-01-23T11:12:07Z</time>
      </trkpt>
      <trkpt lat="46.05558" lon="4.77334">
        <ele>201</ele>
        <time>2018-01-23T11:12:08Z</time>
      </trkpt>
      <trkpt lat="46.05552" lon="4.7733">
        <ele>200</ele>
        <time>2018-01-23T11:12:09Z</time>
      </trkpt>
      <trkpt lat="46.05545" lon="4.77326">
        <ele>200</ele>
        <time>2018-01-23T11:12:10Z</time>
      </trkpt>
      <trkpt lat="46.0554" lon="4.77322">
        <ele>200</ele>
        <time>2018-01-23T11:12:11Z</time>
      </trkpt>
      <trkpt lat="46.05534" lon="4.77318">
        <ele>200</ele>
        <time>2018-01-23T11:12:12Z</time>
      </trkpt>
      <trkpt lat="46.05528" lon="4.77314">
        <ele>200</ele>
        <time>2018-01-23T11:12:13Z</time>
      </trkpt>
      <trkpt lat="46.05521" lon="4.77311">
        <ele>200</ele>
        <time>2018-01-23T11:12:14Z</time>
      </trkpt>
      <trkpt lat="46.05514" lon="4.77309">
        <ele>200</ele>
        <time>2018-01-23T11:12:15Z</time>
      </trkpt>
      <trkpt lat="46.05508" lon="4.77306">
        <ele>200</ele>
        <time>2018-01-23T11:12:16Z</time>
      </trkpt>
      <trkpt lat="46.05503" lon="4.77303">
        <ele>200</ele>
        <time>2018-01-23T11:12:17Z</time>
      </trkpt>
      <trkpt lat="46.05498" lon="4.773">
        <ele>201</ele>
        <time>2018-01-23T11:12:18Z</time>
      </trkpt>
      <trkpt lat="46.05493" lon="4.77296">
        <ele>201</ele>
        <time>2018-01-23T11:12:19Z</time>
      </trkpt>
      <trkpt lat="46.05487" lon="4.77293">
        <ele>201</ele>
        <time>2018-01-23T11:12:20Z</time>
      </trkpt>
      <trkpt lat="46.05481" lon="4.7729">
        <ele>201</ele>
        <time>2018-01-23T11:12:21Z</time>
      </trkpt>
      <trkpt lat="46.05476" lon="4.77288">
        <ele>201</ele>
        <time>2018-01-23T11:12:22Z</time>
      </trkpt>
      <trkpt lat="46.0547" lon="4.77286">
        <ele>201</ele>
        <time>2018-01-23T11:12:23Z</time>
      </trkpt>
      <trkpt lat="46.05464" lon="4.77281">
        <ele>201</ele>
        <time>2018-01-23T11:12:24Z</time>
      </trkpt>
      <trkpt lat="46.05459" lon="4.77278">
        <ele>201</ele>
        <time>2018-01-23T11:12:25Z</time>
      </trkpt>
      <trkpt lat="46.05453" lon="4.77276">
        <ele>201</ele>
        <time>2018-01-23T11:12:26Z</time>
      </trkpt>
      <trkpt lat="46.05447" lon="4.77271">
        <ele>201</ele>
        <time>2018-01-23T11:12:27Z</time>
      </trkpt>
      <trkpt lat="46.05442" lon="4.77269">
        <ele>201</ele>
        <time>2018-01-23T11:12:28Z</time>
      </trkpt>
      <trkpt lat="46.05437" lon="4.77266">
        <ele>201</ele>
        <time>2018-01-23T11:12:29Z</time>
      </trkpt>
      <trkpt lat="46.05432" lon="4.77265">
        <ele>201</ele>
        <time>2018-01-23T11:12:30Z</time>
      </trkpt>
      <trkpt lat="46.05427" lon="4.77263">
        <ele>201</ele>
        <time>2018-01-23T11:12:31Z</time>
      </trkpt>
      <trkpt lat="46.05422" lon="4.77262">
        <ele>201</ele>
        <time>2018-01-23T11:12:32Z</time>
      </trkpt>
      <trkpt lat="46.05417" lon="4.77259">
        <ele>201</ele>
        <time>2018-01-23T11:12:33Z</time>
      </trkpt>
      <trkpt lat="46.05412" lon="4.77257">
        <ele>202</ele>
        <time>2018-01-23T11:12:34Z</time>
      </trkpt>
      <trkpt lat="46.05407" lon="4.77255">
        <ele>202</ele>
        <time>2018-01-23T11:12:35Z</time>
      </trkpt>
      <trkpt lat="46.05402" lon="4.77252">
        <ele>202</ele>
        <time>2018-01-23T11:12:36Z</time>
      </trkpt>
      <trkpt lat="46.05397" lon="4.7725">
        <ele>202</ele>
        <time>2018-01-23T11:12:37Z</time>
      </trkpt>
      <trkpt lat="46.05389" lon="4.77244">
        <ele>202</ele>
        <time>2018-01-23T11:12:39Z</time>
      </trkpt>
      <trkpt lat="46.05385" lon="4.77242">
        <ele>202</ele>
        <time>2018-01-23T11:12:40Z</time>
      </trkpt>
      <trkpt lat="46.05381" lon="4.7724">
        <ele>203</ele>
        <time>2018-01-23T11:12:41Z</time>
      </trkpt>
      <trkpt lat="46.05376" lon="4.77238">
        <ele>203</ele>
        <time>2018-01-23T11:12:42Z</time>
      </trkpt>
      <trkpt lat="46.05372" lon="4.77235">
        <ele>203</ele>
        <time>2018-01-23T11:12:43Z</time>
      </trkpt>
      <trkpt lat="46.05367" lon="4.77232">
        <ele>203</ele>
        <time>2018-01-23T11:12:44Z</time>
      </trkpt>
      <trkpt lat="46.05363" lon="4.77229">
        <ele>203</ele>
        <time>2018-01-23T11:12:45Z</time>
      </trkpt>
      <trkpt lat="46.05358" lon="4.77226">
        <ele>203</ele>
        <time>2018-01-23T11:12:46Z</time>
      </trkpt>
      <trkpt lat="46.05354" lon="4.77224">
        <ele>203</ele>
        <time>2018-01-23T11:12:47Z</time>
      </trkpt>
      <trkpt lat="46.05349" lon="4.77221">
        <ele>203</ele>
        <time>2018-01-23T11:12:48Z</time>
      </trkpt>
      <trkpt lat="46.05345" lon="4.77219">
        <ele>204</ele>
        <time>2018-01-23T11:12:49Z</time>
      </trkpt>
      <trkpt lat="46.05341" lon="4.77216">
        <ele>204</ele>
        <time>2018-01-23T11:12:50Z</time>
      </trkpt>
      <trkpt lat="46.05333" lon="4.77211">
        <ele>206</ele>
        <time>2018-01-23T11:12:52Z</time>
      </trkpt>
      <trkpt lat="46.05328" lon="4.77208">
        <ele>205</ele>
        <time>2018-01-23T11:12:53Z</time>
      </trkpt>
      <trkpt lat="46.05323" lon="4.77204">
        <ele>205</ele>
        <time>2018-01-23T11:12:54Z</time>
      </trkpt>
      <trkpt lat="46.05318" lon="4.772">
        <ele>205</ele>
        <time>2018-01-23T11:12:55Z</time>
      </trkpt>
      <trkpt lat="46.05314" lon="4.77198">
        <ele>205</ele>
        <time>2018-01-23T11:12:56Z</time>
      </trkpt>
      <trkpt lat="46.05308" lon="4.77195">
        <ele>205</ele>
        <time>2018-01-23T11:12:57Z</time>
      </trkpt>
      <trkpt lat="46.05304" lon="4.77189">
        <ele>205</ele>
        <time>2018-01-23T11:12:58Z</time>
      </trkpt>
      <trkpt lat="46.05299" lon="4.77184">
        <ele>205</ele>
        <time>2018-01-23T11:12:59Z</time>
      </trkpt>
      <trkpt lat="46.05294" lon="4.77178">
        <ele>205</ele>
        <time>2018-01-23T11:13:00Z</time>
      </trkpt>
      <trkpt lat="46.0529" lon="4.77173">
        <ele>206</ele>
        <time>2018-01-23T11:13:01Z</time>
      </trkpt>
      <trkpt lat="46.05286" lon="4.77167">
        <ele>206</ele>
        <time>2018-01-23T11:13:02Z</time>
      </trkpt>
      <trkpt lat="46.05283" lon="4.77162">
        <ele>204</ele>
        <time>2018-01-23T11:13:03Z</time>
      </trkpt>
      <trkpt lat="46.05279" lon="4.77157">
        <ele>204</ele>
        <time>2018-01-23T11:13:04Z</time>
      </trkpt>
      <trkpt lat="46.05274" lon="4.77151">
        <ele>204</ele>
        <time>2018-01-23T11:13:05Z</time>
      </trkpt>
      <trkpt lat="46.0527" lon="4.77146">
        <ele>204</ele>
        <time>2018-01-23T11:13:06Z</time>
      </trkpt>
      <trkpt lat="46.05267" lon="4.77141">
        <ele>204</ele>
        <time>2018-01-23T11:13:07Z</time>
      </trkpt>
      <trkpt lat="46.05263" lon="4.77137">
        <ele>204</ele>
        <time>2018-01-23T11:13:08Z</time>
      </trkpt>
      <trkpt lat="46.0526" lon="4.77131">
        <ele>204</ele>
        <time>2018-01-23T11:13:09Z</time>
      </trkpt>
      <trkpt lat="46.05256" lon="4.77127">
        <ele>204</ele>
        <time>2018-01-23T11:13:10Z</time>
      </trkpt>
      <trkpt lat="46.05251" lon="4.77122">
        <ele>204</ele>
        <time>2018-01-23T11:13:11Z</time>
      </trkpt>
      <trkpt lat="46.05247" lon="4.77117">
        <ele>204</ele>
        <time>2018-01-23T11:13:12Z</time>
      </trkpt>
      <trkpt lat="46.05242" lon="4.77112">
        <ele>203</ele>
        <time>2018-01-23T11:13:13Z</time>
      </trkpt>
      <trkpt lat="46.05239" lon="4.77105">
        <ele>203</ele>
        <time>2018-01-23T11:13:14Z</time>
      </trkpt>
      <trkpt lat="46.05234" lon="4.77099">
        <ele>203</ele>
        <time>2018-01-23T11:13:15Z</time>
      </trkpt>
      <trkpt lat="46.05228" lon="4.77095">
        <ele>203</ele>
        <time>2018-01-23T11:13:16Z</time>
      </trkpt>
      <trkpt lat="46.05224" lon="4.77088">
        <ele>203</ele>
        <time>2018-01-23T11:13:17Z</time>
      </trkpt>
      <trkpt lat="46.0522" lon="4.7708">
        <ele>201</ele>
        <time>2018-01-23T11:13:18Z</time>
      </trkpt>
      <trkpt lat="46.05216" lon="4.77071">
        <ele>201</ele>
        <time>2018-01-23T11:13:19Z</time>
      </trkpt>
      <trkpt lat="46.05214" lon="4.7706">
        <ele>201</ele>
        <time>2018-01-23T11:13:20Z</time>
      </trkpt>
      <trkpt lat="46.0521" lon="4.77051">
        <ele>201</ele>
        <time>2018-01-23T11:13:21Z</time>
      </trkpt>
      <trkpt lat="46.05207" lon="4.77043">
        <ele>201</ele>
        <time>2018-01-23T11:13:22Z</time>
      </trkpt>
      <trkpt lat="46.05205" lon="4.77033">
        <ele>200</ele>
        <time>2018-01-23T11:13:23Z</time>
      </trkpt>
      <trkpt lat="46.05202" lon="4.77025">
        <ele>200</ele>
        <time>2018-01-23T11:13:24Z</time>
      </trkpt>
      <trkpt lat="46.05199" lon="4.77016">
        <ele>200</ele>
        <time>2018-01-23T11:13:25Z</time>
      </trkpt>
      <trkpt lat="46.05196" lon="4.77007">
        <ele>200</ele>
        <time>2018-01-23T11:13:26Z</time>
      </trkpt>
      <trkpt lat="46.05194" lon="4.76997">
        <ele>198</ele>
        <time>2018-01-23T11:13:27Z</time>
      </trkpt>
      <trkpt lat="46.05191" lon="4.76988">
        <ele>198</ele>
        <time>2018-01-23T11:13:28Z</time>
      </trkpt>
      <trkpt lat="46.05187" lon="4.76978">
        <ele>198</ele>
        <time>2018-01-23T11:13:29Z</time>
      </trkpt>
      <trkpt lat="46.05183" lon="4.76969">
        <ele>198</ele>
        <time>2018-01-23T11:13:30Z</time>
      </trkpt>
      <trkpt lat="46.0518" lon="4.76959">
        <ele>198</ele>
        <time>2018-01-23T11:13:31Z</time>
      </trkpt>
      <trkpt lat="46.05176" lon="4.76951">
        <ele>197</ele>
        <time>2018-01-23T11:13:32Z</time>
      </trkpt>
      <trkpt lat="46.05173" lon="4.76941">
        <ele>197</ele>
        <time>2018-01-23T11:13:33Z</time>
      </trkpt>
      <trkpt lat="46.05168" lon="4.76932">
        <ele>197</ele>
        <time>2018-01-23T11:13:34Z</time>
      </trkpt>
      <trkpt lat="46.05162" lon="4.76924">
        <ele>196</ele>
        <time>2018-01-23T11:13:35Z</time>
      </trkpt>
      <trkpt lat="46.05158" lon="4.76915">
        <ele>196</ele>
        <time>2018-01-23T11:13:36Z</time>
      </trkpt>
      <trkpt lat="46.05154" lon="4.76905">
        <ele>195</ele>
        <time>2018-01-23T11:13:37Z</time>
      </trkpt>
      <trkpt lat="46.05151" lon="4.76897">
        <ele>195</ele>
        <time>2018-01-23T11:13:38Z</time>
      </trkpt>
      <trkpt lat="46.05146" lon="4.76889">
        <ele>195</ele>
        <time>2018-01-23T11:13:39Z</time>
      </trkpt>
      <trkpt lat="46.05142" lon="4.76881">
        <ele>195</ele>
        <time>2018-01-23T11:13:40Z</time>
      </trkpt>
      <trkpt lat="46.05138" lon="4.76873">
        <ele>195</ele>
        <time>2018-01-23T11:13:41Z</time>
      </trkpt>
      <trkpt lat="46.05134" lon="4.76865">
        <ele>195</ele>
        <time>2018-01-23T11:13:42Z</time>
      </trkpt>
      <trkpt lat="46.0513" lon="4.76856">
        <ele>195</ele>
        <time>2018-01-23T11:13:43Z</time>
      </trkpt>
      <trkpt lat="46.05126" lon="4.76847">
        <ele>195</ele>
        <time>2018-01-23T11:13:44Z</time>
      </trkpt>
      <trkpt lat="46.05124" lon="4.76838">
        <ele>195</ele>
        <time>2018-01-23T11:13:45Z</time>
      </trkpt>
      <trkpt lat="46.0512" lon="4.7683">
        <ele>194</ele>
        <time>2018-01-23T11:13:46Z</time>
      </trkpt>
      <trkpt lat="46.05118" lon="4.76821">
        <ele>194</ele>
        <time>2018-01-23T11:13:47Z</time>
      </trkpt>
      <trkpt lat="46.05115" lon="4.76814">
        <ele>194</ele>
        <time>2018-01-23T11:13:48Z</time>
      </trkpt>
      <trkpt lat="46.05113" lon="4.76805">
        <ele>194</ele>
        <time>2018-01-23T11:13:49Z</time>
      </trkpt>
      <trkpt lat="46.0511" lon="4.76797">
        <ele>194</ele>
        <time>2018-01-23T11:13:50Z</time>
      </trkpt>
      <trkpt lat="46.05107" lon="4.76788">
        <ele>194</ele>
        <time>2018-01-23T11:13:51Z</time>
      </trkpt>
      <trkpt lat="46.05103" lon="4.7678">
        <ele>194</ele>
        <time>2018-01-23T11:13:52Z</time>
      </trkpt>
      <trkpt lat="46.05102" lon="4.7677">
        <ele>194</ele>
        <time>2018-01-23T11:13:53Z</time>
      </trkpt>
      <trkpt lat="46.051" lon="4.76761">
        <ele>194</ele>
        <time>2018-01-23T11:13:54Z</time>
      </trkpt>
      <trkpt lat="46.05098" lon="4.76754">
        <ele>194</ele>
        <time>2018-01-23T11:13:55Z</time>
      </trkpt>
      <trkpt lat="46.05096" lon="4.76745">
        <ele>193</ele>
        <time>2018-01-23T11:13:56Z</time>
      </trkpt>
      <trkpt lat="46.05095" lon="4.76739">
        <ele>193</ele>
        <time>2018-01-23T11:13:57Z</time>
      </trkpt>
      <trkpt lat="46.05094" lon="4.76731">
        <ele>193</ele>
        <time>2018-01-23T11:13:58Z</time>
      </trkpt>
      <trkpt lat="46.05092" lon="4.76721">
        <ele>193</ele>
        <time>2018-01-23T11:13:59Z</time>
      </trkpt>
      <trkpt lat="46.05091" lon="4.76713">
        <ele>193</ele>
        <time>2018-01-23T11:14:00Z</time>
      </trkpt>
      <trkpt lat="46.05089" lon="4.76705">
        <ele>193</ele>
        <time>2018-01-23T11:14:01Z</time>
      </trkpt>
      <trkpt lat="46.05088" lon="4.76696">
        <ele>193</ele>
        <time>2018-01-23T11:14:02Z</time>
      </trkpt>
      <trkpt lat="46.05087" lon="4.76688">
        <ele>193</ele>
        <time>2018-01-23T11:14:03Z</time>
      </trkpt>
      <trkpt lat="46.05085" lon="4.76681">
        <ele>193</ele>
        <time>2018-01-23T11:14:04Z</time>
      </trkpt>
      <trkpt lat="46.05083" lon="4.76672">
        <ele>193</ele>
        <time>2018-01-23T11:14:05Z</time>
      </trkpt>
      <trkpt lat="46.05082" lon="4.76663">
        <ele>193</ele>
        <time>2018-01-23T11:14:06Z</time>
      </trkpt>
      <trkpt lat="46.05081" lon="4.76655">
        <ele>192</ele>
        <time>2018-01-23T11:14:07Z</time>
      </trkpt>
      <trkpt lat="46.0508" lon="4.76648">
        <ele>192</ele>
        <time>2018-01-23T11:14:08Z</time>
      </trkpt>
      <trkpt lat="46.05079" lon="4.7664">
        <ele>192</ele>
        <time>2018-01-23T11:14:09Z</time>
      </trkpt>
      <trkpt lat="46.05077" lon="4.76628">
        <ele>192</ele>
        <time>2018-01-23T11:14:11Z</time>
      </trkpt>
      <trkpt lat="46.05077" lon="4.76623">
        <ele>192</ele>
        <time>2018-01-23T11:14:12Z</time>
      </trkpt>
      <trkpt lat="46.05079" lon="4.76611">
        <ele>191</ele>
        <time>2018-01-23T11:14:22Z</time>
      </trkpt>
      <trkpt lat="46.05078" lon="4.76608">
        <ele>191</ele>
        <time>2018-01-23T11:14:23Z</time>
      </trkpt>
      <trkpt lat="46.05072" lon="4.76603">
        <ele>191</ele>
        <time>2018-01-23T11:14:26Z</time>
      </trkpt>
      <trkpt lat="46.05069" lon="4.76601">
        <ele>191</ele>
        <time>2018-01-23T11:14:27Z</time>
      </trkpt>
      <trkpt lat="46.05062" lon="4.76597">
        <ele>191</ele>
        <time>2018-01-23T11:14:29Z</time>
      </trkpt>
      <trkpt lat="46.05059" lon="4.76596">
        <ele>191</ele>
        <time>2018-01-23T11:14:30Z</time>
      </trkpt>
      <trkpt lat="46.05052" lon="4.7659">
        <ele>191</ele>
        <time>2018-01-23T11:14:32Z</time>
      </trkpt>
      <trkpt lat="46.05049" lon="4.76587">
        <ele>191</ele>
        <time>2018-01-23T11:14:33Z</time>
      </trkpt>
      <trkpt lat="46.05042" lon="4.7658">
        <ele>190</ele>
        <time>2018-01-23T11:14:35Z</time>
      </trkpt>
      <trkpt lat="46.05039" lon="4.76578">
        <ele>190</ele>
        <time>2018-01-23T11:14:36Z</time>
      </trkpt>
      <trkpt lat="46.05036" lon="4.76575">
        <ele>190</ele>
        <time>2018-01-23T11:14:37Z</time>
      </trkpt>
      <trkpt lat="46.05031" lon="4.76571">
        <ele>190</ele>
        <time>2018-01-23T11:14:38Z</time>
      </trkpt>
      <trkpt lat="46.05022" lon="4.76569">
        <ele>190</ele>
        <time>2018-01-23T11:14:40Z</time>
      </trkpt>
      <trkpt lat="46.05018" lon="4.76567">
        <ele>190</ele>
        <time>2018-01-23T11:14:41Z</time>
      </trkpt>
      <trkpt lat="46.05014" lon="4.76564">
        <ele>191</ele>
        <time>2018-01-23T11:14:42Z</time>
      </trkpt>
      <trkpt lat="46.0501" lon="4.7656">
        <ele>190</ele>
        <time>2018-01-23T11:14:43Z</time>
      </trkpt>
      <trkpt lat="46.05006" lon="4.76554">
        <ele>190</ele>
        <time>2018-01-23T11:14:44Z</time>
      </trkpt>
      <trkpt lat="46.05002" lon="4.76549">
        <ele>190</ele>
        <time>2018-01-23T11:14:45Z</time>
      </trkpt>
      <trkpt lat="46.04999" lon="4.76543">
        <ele>191</ele>
        <time>2018-01-23T11:14:46Z</time>
      </trkpt>
      <trkpt lat="46.04996" lon="4.76538">
        <ele>191</ele>
        <time>2018-01-23T11:14:47Z</time>
      </trkpt>
      <trkpt lat="46.04994" lon="4.7653">
        <ele>191</ele>
        <time>2018-01-23T11:14:48Z</time>
      </trkpt>
      <trkpt lat="46.04992" lon="4.76525">
        <ele>191</ele>
        <time>2018-01-23T11:14:49Z</time>
      </trkpt>
      <trkpt lat="46.04988" lon="4.76519">
        <ele>191</ele>
        <time>2018-01-23T11:14:50Z</time>
      </trkpt>
      <trkpt lat="46.04984" lon="4.76514">
        <ele>191</ele>
        <time>2018-01-23T11:14:51Z</time>
      </trkpt>
      <trkpt lat="46.04981" lon="4.76508">
        <ele>191</ele>
        <time>2018-01-23T11:14:52Z</time>
      </trkpt>
      <trkpt lat="46.0498" lon="4.76501">
        <ele>191</ele>
        <time>2018-01-23T11:14:53Z</time>
      </trkpt>
      <trkpt lat="46.04978" lon="4.76494">
        <ele>191</ele>
        <time>2018-01-23T11:14:54Z</time>
      </trkpt>
      <trkpt lat="46.04976" lon="4.76487">
        <ele>191</ele>
        <time>2018-01-23T11:14:55Z</time>
      </trkpt>
      <trkpt lat="46.04974" lon="4.76481">
        <ele>191</ele>
        <time>2018-01-23T11:14:56Z</time>
      </trkpt>
      <trkpt lat="46.04971" lon="4.76473">
        <ele>191</ele>
        <time>2018-01-23T11:14:57Z</time>
      </trkpt>
      <trkpt lat="46.0497" lon="4.76461">
        <ele>191</ele>
        <time>2018-01-23T11:14:59Z</time>
      </trkpt>
      <trkpt lat="46.04968" lon="4.76456">
        <ele>191</ele>
        <time>2018-01-23T11:15:00Z</time>
      </trkpt>
      <trkpt lat="46.04964" lon="4.76446">
        <ele>191</ele>
        <time>2018-01-23T11:15:02Z</time>
      </trkpt>
      <trkpt lat="46.0496" lon="4.76442">
        <ele>191</ele>
        <time>2018-01-23T11:15:03Z</time>
      </trkpt>
      <trkpt lat="46.04958" lon="4.76436">
        <ele>191</ele>
        <time>2018-01-23T11:15:04Z</time>
      </trkpt>
      <trkpt lat="46.04953" lon="4.76433">
        <ele>191</ele>
        <time>2018-01-23T11:15:05Z</time>
      </trkpt>
      <trkpt lat="46.04948" lon="4.76431">
        <ele>191</ele>
        <time>2018-01-23T11:15:06Z</time>
      </trkpt>
      <trkpt lat="46.04943" lon="4.7643">
        <ele>191</ele>
        <time>2018-01-23T11:15:07Z</time>
      </trkpt>
      <trkpt lat="46.04938" lon="4.76431">
        <ele>191</ele>
        <time>2018-01-23T11:15:08Z</time>
      </trkpt>
      <trkpt lat="46.04933" lon="4.76431">
        <ele>191</ele>
        <time>2018-01-23T11:15:09Z</time>
      </trkpt>
      <trkpt lat="46.04928" lon="4.76434">
        <ele>191</ele>
        <time>2018-01-23T11:15:10Z</time>
      </trkpt>
      <trkpt lat="46.04923" lon="4.76436">
        <ele>191</ele>
        <time>2018-01-23T11:15:11Z</time>
      </trkpt>
      <trkpt lat="46.04915" lon="4.7644">
        <ele>193</ele>
        <time>2018-01-23T11:15:13Z</time>
      </trkpt>
      <trkpt lat="46.04911" lon="4.76441">
        <ele>193</ele>
        <time>2018-01-23T11:15:14Z</time>
      </trkpt>
      <trkpt lat="46.04906" lon="4.76444">
        <ele>193</ele>
        <time>2018-01-23T11:15:15Z</time>
      </trkpt>
      <trkpt lat="46.04901" lon="4.76446">
        <ele>193</ele>
        <time>2018-01-23T11:15:16Z</time>
      </trkpt>
      <trkpt lat="46.04895" lon="4.76447">
        <ele>193</ele>
        <time>2018-01-23T11:15:17Z</time>
      </trkpt>
      <trkpt lat="46.04891" lon="4.76446">
        <ele>193</ele>
        <time>2018-01-23T11:15:18Z</time>
      </trkpt>
      <trkpt lat="46.04883" lon="4.76448">
        <ele>193</ele>
        <time>2018-01-23T11:15:20Z</time>
      </trkpt>
      <trkpt lat="46.04879" lon="4.76448">
        <ele>193</ele>
        <time>2018-01-23T11:15:21Z</time>
      </trkpt>
      <trkpt lat="46.04875" lon="4.76448">
        <ele>193</ele>
        <time>2018-01-23T11:15:22Z</time>
      </trkpt>
      <trkpt lat="46.0487" lon="4.76448">
        <ele>193</ele>
        <time>2018-01-23T11:15:23Z</time>
      </trkpt>
      <trkpt lat="46.04865" lon="4.76448">
        <ele>193</ele>
        <time>2018-01-23T11:15:24Z</time>
      </trkpt>
      <trkpt lat="46.0486" lon="4.76449">
        <ele>193</ele>
        <time>2018-01-23T11:15:25Z</time>
      </trkpt>
      <trkpt lat="46.04852" lon="4.76449">
        <ele>193</ele>
        <time>2018-01-23T11:15:27Z</time>
      </trkpt>
      <trkpt lat="46.04848" lon="4.7645">
        <ele>193</ele>
        <time>2018-01-23T11:15:28Z</time>
      </trkpt>
      <trkpt lat="46.0484" lon="4.76446">
        <ele>194</ele>
        <time>2018-01-23T11:15:30Z</time>
      </trkpt>
      <trkpt lat="46.04837" lon="4.76446">
        <ele>194</ele>
        <time>2018-01-23T11:15:31Z</time>
      </trkpt>
      <trkpt lat="46.0483" lon="4.76447">
        <ele>193</ele>
        <time>2018-01-23T11:15:32Z</time>
      </trkpt>
      <trkpt lat="46.04825" lon="4.76447">
        <ele>193</ele>
        <time>2018-01-23T11:15:33Z</time>
      </trkpt>
      <trkpt lat="46.04818" lon="4.76438">
        <ele>193</ele>
        <time>2018-01-23T11:15:35Z</time>
      </trkpt>
      <trkpt lat="46.04814" lon="4.76436">
        <ele>193</ele>
        <time>2018-01-23T11:15:36Z</time>
      </trkpt>
      <trkpt lat="46.04805" lon="4.76435">
        <ele>193</ele>
        <time>2018-01-23T11:15:38Z</time>
      </trkpt>
      <trkpt lat="46.048" lon="4.76439">
        <ele>193</ele>
        <time>2018-01-23T11:15:39Z</time>
      </trkpt>
      <trkpt lat="46.04793" lon="4.76445">
        <ele>193</ele>
        <time>2018-01-23T11:15:40Z</time>
      </trkpt>
      <trkpt lat="46.04788" lon="4.76449">
        <ele>192</ele>
        <time>2018-01-23T11:15:41Z</time>
      </trkpt>
      <trkpt lat="46.04784" lon="4.76452">
        <ele>192</ele>
        <time>2018-01-23T11:15:42Z</time>
      </trkpt>
      <trkpt lat="46.04779" lon="4.76455">
        <ele>192</ele>
        <time>2018-01-23T11:15:43Z</time>
      </trkpt>
      <trkpt lat="46.04774" lon="4.76459">
        <ele>192</ele>
        <time>2018-01-23T11:15:44Z</time>
      </trkpt>
      <trkpt lat="46.0477" lon="4.76462">
        <ele>192</ele>
        <time>2018-01-23T11:15:45Z</time>
      </trkpt>
      <trkpt lat="46.04765" lon="4.76463">
        <ele>192</ele>
        <time>2018-01-23T11:15:46Z</time>
      </trkpt>
      <trkpt lat="46.04761" lon="4.76468">
        <ele>192</ele>
        <time>2018-01-23T11:15:47Z</time>
      </trkpt>
      <trkpt lat="46.04756" lon="4.76472">
        <ele>192</ele>
        <time>2018-01-23T11:15:48Z</time>
      </trkpt>
      <trkpt lat="46.0475" lon="4.76474">
        <ele>190</ele>
        <time>2018-01-23T11:15:49Z</time>
      </trkpt>
      <trkpt lat="46.04743" lon="4.76479">
        <ele>190</ele>
        <time>2018-01-23T11:15:50Z</time>
      </trkpt>
      <trkpt lat="46.04737" lon="4.7648">
        <ele>190</ele>
        <time>2018-01-23T11:15:51Z</time>
      </trkpt>
      <trkpt lat="46.04732" lon="4.76482">
        <ele>190</ele>
        <time>2018-01-23T11:15:52Z</time>
      </trkpt>
      <trkpt lat="46.04727" lon="4.76485">
        <ele>189</ele>
        <time>2018-01-23T11:15:53Z</time>
      </trkpt>
      <trkpt lat="46.04718" lon="4.76486">
        <ele>189</ele>
        <time>2018-01-23T11:15:55Z</time>
      </trkpt>
      <trkpt lat="46.04716" lon="4.76486">
        <ele>189</ele>
        <time>2018-01-23T11:15:56Z</time>
      </trkpt>
      <trkpt lat="46.04709" lon="4.76489">
        <ele>189</ele>
        <time>2018-01-23T11:16:07Z</time>
      </trkpt>
      <trkpt lat="46.04706" lon="4.7649">
        <ele>189</ele>
        <time>2018-01-23T11:16:08Z</time>
      </trkpt>
      <trkpt lat="46.04699" lon="4.76494">
        <ele>188</ele>
        <time>2018-01-23T11:16:10Z</time>
      </trkpt>
      <trkpt lat="46.04695" lon="4.76497">
        <ele>188</ele>
        <time>2018-01-23T11:16:11Z</time>
      </trkpt>
      <trkpt lat="46.04691" lon="4.76499">
        <ele>188</ele>
        <time>2018-01-23T11:16:12Z</time>
      </trkpt>
      <trkpt lat="46.04686" lon="4.76502">
        <ele>187</ele>
        <time>2018-01-23T11:16:13Z</time>
      </trkpt>
      <trkpt lat="46.04682" lon="4.76504">
        <ele>187</ele>
        <time>2018-01-23T11:16:14Z</time>
      </trkpt>
      <trkpt lat="46.04676" lon="4.76507">
        <ele>187</ele>
        <time>2018-01-23T11:16:15Z</time>
      </trkpt>
      <trkpt lat="46.04671" lon="4.7651">
        <ele>187</ele>
        <time>2018-01-23T11:16:16Z</time>
      </trkpt>
      <trkpt lat="46.04665" lon="4.76511">
        <ele>186</ele>
        <time>2018-01-23T11:16:17Z</time>
      </trkpt>
      <trkpt lat="46.04658" lon="4.76512">
        <ele>186</ele>
        <time>2018-01-23T11:16:18Z</time>
      </trkpt>
      <trkpt lat="46.04652" lon="4.76513">
        <ele>186</ele>
        <time>2018-01-23T11:16:19Z</time>
      </trkpt>
      <trkpt lat="46.04646" lon="4.76514">
        <ele>186</ele>
        <time>2018-01-23T11:16:20Z</time>
      </trkpt>
      <trkpt lat="46.04639" lon="4.76517">
        <ele>186</ele>
        <time>2018-01-23T11:16:21Z</time>
      </trkpt>
      <trkpt lat="46.04633" lon="4.76519">
        <ele>186</ele>
        <time>2018-01-23T11:16:22Z</time>
      </trkpt>
      <trkpt lat="46.04628" lon="4.7652">
        <ele>186</ele>
        <time>2018-01-23T11:16:23Z</time>
      </trkpt>
      <trkpt lat="46.04622" lon="4.76523">
        <ele>186</ele>
        <time>2018-01-23T11:16:24Z</time>
      </trkpt>
      <trkpt lat="46.04617" lon="4.76526">
        <ele>186</ele>
        <time>2018-01-23T11:16:25Z</time>
      </trkpt>
      <trkpt lat="46.04608" lon="4.76528">
        <ele>186</ele>
        <time>2018-01-23T11:16:27Z</time>
      </trkpt>
      <trkpt lat="46.04601" lon="4.76531">
        <ele>186</ele>
        <time>2018-01-23T11:16:28Z</time>
      </trkpt>
      <trkpt lat="46.04594" lon="4.76534">
        <ele>186</ele>
        <time>2018-01-23T11:16:29Z</time>
      </trkpt>
      <trkpt lat="46.04589" lon="4.76533">
        <ele>186</ele>
        <time>2018-01-23T11:16:30Z</time>
      </trkpt>
      <trkpt lat="46.04583" lon="4.76535">
        <ele>187</ele>
        <time>2018-01-23T11:16:31Z</time>
      </trkpt>
      <trkpt lat="46.04578" lon="4.76537">
        <ele>187</ele>
        <time>2018-01-23T11:16:32Z</time>
      </trkpt>
      <trkpt lat="46.0457" lon="4.76541">
        <ele>187</ele>
        <time>2018-01-23T11:16:34Z</time>
      </trkpt>
      <trkpt lat="46.04566" lon="4.76542">
        <ele>187</ele>
        <time>2018-01-23T11:16:35Z</time>
      </trkpt>
      <trkpt lat="46.04562" lon="4.76544">
        <ele>187</ele>
        <time>2018-01-23T11:16:36Z</time>
      </trkpt>
      <trkpt lat="46.04557" lon="4.76546">
        <ele>188</ele>
        <time>2018-01-23T11:16:37Z</time>
      </trkpt>
      <trkpt lat="46.04553" lon="4.76548">
        <ele>188</ele>
        <time>2018-01-23T11:16:38Z</time>
      </trkpt>
      <trkpt lat="46.04548" lon="4.76549">
        <ele>188</ele>
        <time>2018-01-23T11:16:39Z</time>
      </trkpt>
      <trkpt lat="46.04543" lon="4.76551">
        <ele>188</ele>
        <time>2018-01-23T11:16:40Z</time>
      </trkpt>
      <trkpt lat="46.04539" lon="4.76552">
        <ele>188</ele>
        <time>2018-01-23T11:16:41Z</time>
      </trkpt>
      <trkpt lat="46.04531" lon="4.76552">
        <ele>188</ele>
        <time>2018-01-23T11:16:43Z</time>
      </trkpt>
      <trkpt lat="46.04527" lon="4.76552">
        <ele>189</ele>
        <time>2018-01-23T11:16:44Z</time>
      </trkpt>
      <trkpt lat="46.0452" lon="4.76554">
        <ele>189</ele>
        <time>2018-01-23T11:16:46Z</time>
      </trkpt>
      <trkpt lat="46.04516" lon="4.76555">
        <ele>189</ele>
        <time>2018-01-23T11:16:47Z</time>
      </trkpt>
      <trkpt lat="46.04509" lon="4.76556">
        <ele>189</ele>
        <time>2018-01-23T11:16:49Z</time>
      </trkpt>
      <trkpt lat="46.04505" lon="4.76554">
        <ele>189</ele>
        <time>2018-01-23T11:16:50Z</time>
      </trkpt>
      <trkpt lat="46.04497" lon="4.76555">
        <ele>192</ele>
        <time>2018-01-23T11:16:52Z</time>
      </trkpt>
      <trkpt lat="46.04494" lon="4.76557">
        <ele>192</ele>
        <time>2018-01-23T11:16:53Z</time>
      </trkpt>
      <trkpt lat="46.04486" lon="4.76557">
        <ele>193</ele>
        <time>2018-01-23T11:16:56Z</time>
      </trkpt>
      <trkpt lat="46.04482" lon="4.76557">
        <ele>193</ele>
        <time>2018-01-23T11:16:57Z</time>
      </trkpt>
      <trkpt lat="46.04475" lon="4.76557">
        <ele>193</ele>
        <time>2018-01-23T11:16:59Z</time>
      </trkpt>
      <trkpt lat="46.04471" lon="4.76557">
        <ele>193</ele>
        <time>2018-01-23T11:17:00Z</time>
      </trkpt>
      <trkpt lat="46.04464" lon="4.76559">
        <ele>194</ele>
        <time>2018-01-23T11:17:02Z</time>
      </trkpt>
      <trkpt lat="46.04461" lon="4.7656">
        <ele>194</ele>
        <time>2018-01-23T11:17:03Z</time>
      </trkpt>
      <trkpt lat="46.04453" lon="4.76561">
        <ele>194</ele>
        <time>2018-01-23T11:17:05Z</time>
      </trkpt>
      <trkpt lat="46.04448" lon="4.76563">
        <ele>194</ele>
        <time>2018-01-23T11:17:06Z</time>
      </trkpt>
      <trkpt lat="46.0444" lon="4.76565">
        <ele>195</ele>
        <time>2018-01-23T11:17:08Z</time>
      </trkpt>
      <trkpt lat="46.04436" lon="4.76566">
        <ele>195</ele>
        <time>2018-01-23T11:17:09Z</time>
      </trkpt>
      <trkpt lat="46.04427" lon="4.76564">
        <ele>196</ele>
        <time>2018-01-23T11:17:12Z</time>
      </trkpt>
      <trkpt lat="46.04425" lon="4.76563">
        <ele>196</ele>
        <time>2018-01-23T11:17:13Z</time>
      </trkpt>
      <trkpt lat="46.04418" lon="4.76561">
        <ele>196</ele>
        <time>2018-01-23T11:17:15Z</time>
      </trkpt>
      <trkpt lat="46.04415" lon="4.76562">
        <ele>197</ele>
        <time>2018-01-23T11:17:16Z</time>
      </trkpt>
      <trkpt lat="46.04411" lon="4.76563">
        <ele>197</ele>
        <time>2018-01-23T11:17:17Z</time>
      </trkpt>
      <trkpt lat="46.04405" lon="4.76565">
        <ele>198</ele>
        <time>2018-01-23T11:17:18Z</time>
      </trkpt>
      <trkpt lat="46.044" lon="4.76567">
        <ele>197</ele>
        <time>2018-01-23T11:17:19Z</time>
      </trkpt>
      <trkpt lat="46.04395" lon="4.7657">
        <ele>197</ele>
        <time>2018-01-23T11:17:20Z</time>
      </trkpt>
      <trkpt lat="46.04384" lon="4.76573">
        <ele>197</ele>
        <time>2018-01-23T11:17:21Z</time>
      </trkpt>
      <trkpt lat="46.04379" lon="4.76575">
        <ele>197</ele>
        <time>2018-01-23T11:17:22Z</time>
      </trkpt>
      <trkpt lat="46.04374" lon="4.76576">
        <ele>197</ele>
        <time>2018-01-23T11:17:23Z</time>
      </trkpt>
      <trkpt lat="46.04368" lon="4.76575">
        <ele>197</ele>
        <time>2018-01-23T11:17:24Z</time>
      </trkpt>
      <trkpt lat="46.04364" lon="4.76573">
        <ele>197</ele>
        <time>2018-01-23T11:17:25Z</time>
      </trkpt>
      <trkpt lat="46.04356" lon="4.76572">
        <ele>198</ele>
        <time>2018-01-23T11:17:27Z</time>
      </trkpt>
      <trkpt lat="46.04352" lon="4.76575">
        <ele>198</ele>
        <time>2018-01-23T11:17:28Z</time>
      </trkpt>
      <trkpt lat="46.04344" lon="4.76573">
        <ele>198</ele>
        <time>2018-01-23T11:17:30Z</time>
      </trkpt>
      <trkpt lat="46.0434" lon="4.76574">
        <ele>198</ele>
        <time>2018-01-23T11:17:31Z</time>
      </trkpt>
      <trkpt lat="46.04336" lon="4.76574">
        <ele>198</ele>
        <time>2018-01-23T11:17:33Z</time>
      </trkpt>
      <trkpt lat="46.04331" lon="4.76574">
        <ele>198</ele>
        <time>2018-01-23T11:17:34Z</time>
      </trkpt>
      <trkpt lat="46.04325" lon="4.76574">
        <ele>198</ele>
        <time>2018-01-23T11:17:35Z</time>
      </trkpt>
      <trkpt lat="46.04321" lon="4.76577">
        <ele>198</ele>
        <time>2018-01-23T11:17:36Z</time>
      </trkpt>
      <trkpt lat="46.04317" lon="4.76577">
        <ele>197</ele>
        <time>2018-01-23T11:17:37Z</time>
      </trkpt>
      <trkpt lat="46.04311" lon="4.76577">
        <ele>197</ele>
        <time>2018-01-23T11:17:38Z</time>
      </trkpt>
      <trkpt lat="46.04307" lon="4.76578">
        <ele>197</ele>
        <time>2018-01-23T11:17:39Z</time>
      </trkpt>
      <trkpt lat="46.04301" lon="4.76581">
        <ele>197</ele>
        <time>2018-01-23T11:17:40Z</time>
      </trkpt>
      <trkpt lat="46.04295" lon="4.76583">
        <ele>197</ele>
        <time>2018-01-23T11:17:42Z</time>
      </trkpt>
      <trkpt lat="46.04286" lon="4.76584">
        <ele>198</ele>
        <time>2018-01-23T11:17:43Z</time>
      </trkpt>
      <trkpt lat="46.04278" lon="4.76583">
        <ele>197</ele>
        <time>2018-01-23T11:17:45Z</time>
      </trkpt>
      <trkpt lat="46.04274" lon="4.76582">
        <ele>197</ele>
        <time>2018-01-23T11:17:46Z</time>
      </trkpt>
      <trkpt lat="46.04265" lon="4.76582">
        <ele>197</ele>
        <time>2018-01-23T11:17:49Z</time>
      </trkpt>
      <trkpt lat="46.0426" lon="4.76581">
        <ele>197</ele>
        <time>2018-01-23T11:17:50Z</time>
      </trkpt>
      <trkpt lat="46.04255" lon="4.7658">
        <ele>197</ele>
        <time>2018-01-23T11:17:52Z</time>
      </trkpt>
      <trkpt lat="46.04251" lon="4.76579">
        <ele>197</ele>
        <time>2018-01-23T11:17:53Z</time>
      </trkpt>
      <trkpt lat="46.04243" lon="4.76579">
        <ele>197</ele>
        <time>2018-01-23T11:17:55Z</time>
      </trkpt>
      <trkpt lat="46.04239" lon="4.7658">
        <ele>197</ele>
        <time>2018-01-23T11:17:56Z</time>
      </trkpt>
      <trkpt lat="46.04233" lon="4.76582">
        <ele>197</ele>
        <time>2018-01-23T11:17:57Z</time>
      </trkpt>
      <trkpt lat="46.04229" lon="4.76585">
        <ele>198</ele>
        <time>2018-01-23T11:17:58Z</time>
      </trkpt>
      <trkpt lat="46.04222" lon="4.76586">
        <ele>198</ele>
        <time>2018-01-23T11:18:00Z</time>
      </trkpt>
      <trkpt lat="46.04218" lon="4.76585">
        <ele>198</ele>
        <time>2018-01-23T11:18:01Z</time>
      </trkpt>
      <trkpt lat="46.0421" lon="4.76587">
        <ele>198</ele>
        <time>2018-01-23T11:18:03Z</time>
      </trkpt>
      <trkpt lat="46.04206" lon="4.76589">
        <ele>198</ele>
        <time>2018-01-23T11:18:04Z</time>
      </trkpt>
      <trkpt lat="46.04197" lon="4.7659">
        <ele>198</ele>
        <time>2018-01-23T11:18:06Z</time>
      </trkpt>
      <trkpt lat="46.04194" lon="4.76592">
        <ele>198</ele>
        <time>2018-01-23T11:18:07Z</time>
      </trkpt>
      <trkpt lat="46.04188" lon="4.76596">
        <ele>198</ele>
        <time>2018-01-23T11:18:09Z</time>
      </trkpt>
      <trkpt lat="46.04186" lon="4.76598">
        <ele>198</ele>
        <time>2018-01-23T11:18:10Z</time>
      </trkpt>
      <trkpt lat="46.04179" lon="4.76605">
        <ele>198</ele>
        <time>2018-01-23T11:18:12Z</time>
      </trkpt>
      <trkpt lat="46.04176" lon="4.76608">
        <ele>198</ele>
        <time>2018-01-23T11:18:13Z</time>
      </trkpt>
      <trkpt lat="46.04169" lon="4.76614">
        <ele>198</ele>
        <time>2018-01-23T11:18:15Z</time>
      </trkpt>
      <trkpt lat="46.04166" lon="4.76617">
        <ele>199</ele>
        <time>2018-01-23T11:18:16Z</time>
      </trkpt>
      <trkpt lat="46.04159" lon="4.76623">
        <ele>199</ele>
        <time>2018-01-23T11:18:18Z</time>
      </trkpt>
      <trkpt lat="46.04156" lon="4.76626">
        <ele>200</ele>
        <time>2018-01-23T11:18:19Z</time>
      </trkpt>
      <trkpt lat="46.04148" lon="4.76632">
        <ele>200</ele>
        <time>2018-01-23T11:18:21Z</time>
      </trkpt>
      <trkpt lat="46.04144" lon="4.76635">
        <ele>200</ele>
        <time>2018-01-23T11:18:22Z</time>
      </trkpt>
      <trkpt lat="46.04136" lon="4.7664">
        <ele>200</ele>
        <time>2018-01-23T11:18:24Z</time>
      </trkpt>
      <trkpt lat="46.04132" lon="4.76642">
        <ele>200</ele>
        <time>2018-01-23T11:18:25Z</time>
      </trkpt>
      <trkpt lat="46.04124" lon="4.76646">
        <ele>200</ele>
        <time>2018-01-23T11:18:27Z</time>
      </trkpt>
      <trkpt lat="46.04119" lon="4.76647">
        <ele>200</ele>
        <time>2018-01-23T11:18:28Z</time>
      </trkpt>
      <trkpt lat="46.04111" lon="4.76649">
        <ele>200</ele>
        <time>2018-01-23T11:18:30Z</time>
      </trkpt>
      <trkpt lat="46.04107" lon="4.7665">
        <ele>200</ele>
        <time>2018-01-23T11:18:31Z</time>
      </trkpt>
      <trkpt lat="46.04098" lon="4.76651">
        <ele>201</ele>
        <time>2018-01-23T11:18:33Z</time>
      </trkpt>
      <trkpt lat="46.04094" lon="4.76652">
        <ele>201</ele>
        <time>2018-01-23T11:18:34Z</time>
      </trkpt>
      <trkpt lat="46.04085" lon="4.76654">
        <ele>201</ele>
        <time>2018-01-23T11:18:36Z</time>
      </trkpt>
      <trkpt lat="46.04081" lon="4.76655">
        <ele>202</ele>
        <time>2018-01-23T11:18:37Z</time>
      </trkpt>
      <trkpt lat="46.04076" lon="4.76656">
        <ele>201</ele>
        <time>2018-01-23T11:18:38Z</time>
      </trkpt>
      <trkpt lat="46.04072" lon="4.76658">
        <ele>201</ele>
        <time>2018-01-23T11:18:39Z</time>
      </trkpt>
      <trkpt lat="46.04063" lon="4.76659">
        <ele>201</ele>
        <time>2018-01-23T11:18:41Z</time>
      </trkpt>
      <trkpt lat="46.04059" lon="4.76659">
        <ele>201</ele>
        <time>2018-01-23T11:18:42Z</time>
      </trkpt>
      <trkpt lat="46.04055" lon="4.7666">
        <ele>201</ele>
        <time>2018-01-23T11:18:43Z</time>
      </trkpt>
      <trkpt lat="46.04048" lon="4.76659">
        <ele>201</ele>
        <time>2018-01-23T11:18:44Z</time>
      </trkpt>
      <trkpt lat="46.04043" lon="4.76659">
        <ele>201</ele>
        <time>2018-01-23T11:18:45Z</time>
      </trkpt>
      <trkpt lat="46.04038" lon="4.7666">
        <ele>201</ele>
        <time>2018-01-23T11:18:46Z</time>
      </trkpt>
      <trkpt lat="46.04031" lon="4.76661">
        <ele>201</ele>
        <time>2018-01-23T11:18:48Z</time>
      </trkpt>
      <trkpt lat="46.04029" lon="4.7666">
        <ele>201</ele>
        <time>2018-01-23T11:18:49Z</time>
      </trkpt>
      <trkpt lat="46.04022" lon="4.76662">
        <ele>201</ele>
        <time>2018-01-23T11:18:51Z</time>
      </trkpt>
      <trkpt lat="46.04016" lon="4.76665">
        <ele>201</ele>
        <time>2018-01-23T11:18:52Z</time>
      </trkpt>
      <trkpt lat="46.0401" lon="4.76667">
        <ele>202</ele>
        <time>2018-01-23T11:18:53Z</time>
      </trkpt>
      <trkpt lat="46.04007" lon="4.76668">
        <ele>202</ele>
        <time>2018-01-23T11:18:54Z</time>
      </trkpt>
      <trkpt lat="46.04003" lon="4.76669">
        <ele>202</ele>
        <time>2018-01-23T11:18:55Z</time>
      </trkpt>
      <trkpt lat="46.03998" lon="4.76668">
        <ele>202</ele>
        <time>2018-01-23T11:18:56Z</time>
      </trkpt>
      <trkpt lat="46.03994" lon="4.7667">
        <ele>202</ele>
        <time>2018-01-23T11:18:57Z</time>
      </trkpt>
      <trkpt lat="46.03988" lon="4.7667">
        <ele>203</ele>
        <time>2018-01-23T11:18:58Z</time>
      </trkpt>
      <trkpt lat="46.0398" lon="4.76673">
        <ele>203</ele>
        <time>2018-01-23T11:19:00Z</time>
      </trkpt>
      <trkpt lat="46.03977" lon="4.76672">
        <ele>203</ele>
        <time>2018-01-23T11:19:01Z</time>
      </trkpt>
      <trkpt lat="46.0397" lon="4.76668">
        <ele>203</ele>
        <time>2018-01-23T11:19:03Z</time>
      </trkpt>
      <trkpt lat="46.03963" lon="4.76668">
        <ele>203</ele>
        <time>2018-01-23T11:19:04Z</time>
      </trkpt>
      <trkpt lat="46.03958" lon="4.76668">
        <ele>203</ele>
        <time>2018-01-23T11:19:05Z</time>
      </trkpt>
      <trkpt lat="46.03953" lon="4.76669">
        <ele>204</ele>
        <time>2018-01-23T11:19:06Z</time>
      </trkpt>
      <trkpt lat="46.03948" lon="4.7667">
        <ele>204</ele>
        <time>2018-01-23T11:19:07Z</time>
      </trkpt>
      <trkpt lat="46.03943" lon="4.76673">
        <ele>204</ele>
        <time>2018-01-23T11:19:08Z</time>
      </trkpt>
      <trkpt lat="46.03937" lon="4.76675">
        <ele>204</ele>
        <time>2018-01-23T11:19:09Z</time>
      </trkpt>
      <trkpt lat="46.03933" lon="4.76675">
        <ele>204</ele>
        <time>2018-01-23T11:19:10Z</time>
      </trkpt>
      <trkpt lat="46.03928" lon="4.76677">
        <ele>204</ele>
        <time>2018-01-23T11:19:11Z</time>
      </trkpt>
      <trkpt lat="46.03922" lon="4.76678">
        <ele>204</ele>
        <time>2018-01-23T11:19:12Z</time>
      </trkpt>
      <trkpt lat="46.03916" lon="4.76681">
        <ele>204</ele>
        <time>2018-01-23T11:19:13Z</time>
      </trkpt>
      <trkpt lat="46.03912" lon="4.76687">
        <ele>205</ele>
        <time>2018-01-23T11:19:14Z</time>
      </trkpt>
      <trkpt lat="46.03908" lon="4.7669">
        <ele>205</ele>
        <time>2018-01-23T11:19:15Z</time>
      </trkpt>
      <trkpt lat="46.03903" lon="4.76693">
        <ele>205</ele>
        <time>2018-01-23T11:19:16Z</time>
      </trkpt>
      <trkpt lat="46.03899" lon="4.76693">
        <ele>205</ele>
        <time>2018-01-23T11:19:17Z</time>
      </trkpt>
      <trkpt lat="46.03893" lon="4.76694">
        <ele>205</ele>
        <time>2018-01-23T11:19:18Z</time>
      </trkpt>
      <trkpt lat="46.03888" lon="4.76695">
        <ele>205</ele>
        <time>2018-01-23T11:19:19Z</time>
      </trkpt>
      <trkpt lat="46.03883" lon="4.76696">
        <ele>205</ele>
        <time>2018-01-23T11:19:20Z</time>
      </trkpt>
      <trkpt lat="46.03878" lon="4.76698">
        <ele>205</ele>
        <time>2018-01-23T11:19:21Z</time>
      </trkpt>
      <trkpt lat="46.03873" lon="4.76699">
        <ele>205</ele>
        <time>2018-01-23T11:19:22Z</time>
      </trkpt>
      <trkpt lat="46.03866" lon="4.76703">
        <ele>205</ele>
        <time>2018-01-23T11:19:23Z</time>
      </trkpt>
      <trkpt lat="46.03862" lon="4.76704">
        <ele>205</ele>
        <time>2018-01-23T11:19:24Z</time>
      </trkpt>
      <trkpt lat="46.03856" lon="4.76705">
        <ele>205</ele>
        <time>2018-01-23T11:19:25Z</time>
      </trkpt>
      <trkpt lat="46.0385" lon="4.76707">
        <ele>205</ele>
        <time>2018-01-23T11:19:26Z</time>
      </trkpt>
      <trkpt lat="46.03845" lon="4.76708">
        <ele>205</ele>
        <time>2018-01-23T11:19:27Z</time>
      </trkpt>
      <trkpt lat="46.03838" lon="4.76708">
        <ele>205</ele>
        <time>2018-01-23T11:19:28Z</time>
      </trkpt>
      <trkpt lat="46.03833" lon="4.76709">
        <ele>205</ele>
        <time>2018-01-23T11:19:29Z</time>
      </trkpt>
      <trkpt lat="46.03828" lon="4.76709">
        <ele>205</ele>
        <time>2018-01-23T11:19:30Z</time>
      </trkpt>
      <trkpt lat="46.03823" lon="4.76709">
        <ele>205</ele>
        <time>2018-01-23T11:19:31Z</time>
      </trkpt>
      <trkpt lat="46.03817" lon="4.76709">
        <ele>205</ele>
        <time>2018-01-23T11:19:32Z</time>
      </trkpt>
      <trkpt lat="46.03812" lon="4.76709">
        <ele>205</ele>
        <time>2018-01-23T11:19:33Z</time>
      </trkpt>
      <trkpt lat="46.03807" lon="4.76709">
        <ele>205</ele>
        <time>2018-01-23T11:19:34Z</time>
      </trkpt>
      <trkpt lat="46.03802" lon="4.76709">
        <ele>205</ele>
        <time>2018-01-23T11:19:35Z</time>
      </trkpt>
      <trkpt lat="46.03797" lon="4.76709">
        <ele>205</ele>
        <time>2018-01-23T11:19:36Z</time>
      </trkpt>
      <trkpt lat="46.03791" lon="4.7671">
        <ele>205</ele>
        <time>2018-01-23T11:19:37Z</time>
      </trkpt>
      <trkpt lat="46.03785" lon="4.7671">
        <ele>205</ele>
        <time>2018-01-23T11:19:38Z</time>
      </trkpt>
      <trkpt lat="46.03779" lon="4.76712">
        <ele>205</ele>
        <time>2018-01-23T11:19:39Z</time>
      </trkpt>
      <trkpt lat="46.03773" lon="4.76712">
        <ele>205</ele>
        <time>2018-01-23T11:19:40Z</time>
      </trkpt>
      <trkpt lat="46.03767" lon="4.76712">
        <ele>205</ele>
        <time>2018-01-23T11:19:41Z</time>
      </trkpt>
      <trkpt lat="46.03763" lon="4.76711">
        <ele>205</ele>
        <time>2018-01-23T11:19:42Z</time>
      </trkpt>
      <trkpt lat="46.03755" lon="4.76709">
        <ele>205</ele>
        <time>2018-01-23T11:19:44Z</time>
      </trkpt>
      <trkpt lat="46.03751" lon="4.76708">
        <ele>205</ele>
        <time>2018-01-23T11:19:45Z</time>
      </trkpt>
      <trkpt lat="46.03743" lon="4.76708">
        <ele>205</ele>
        <time>2018-01-23T11:19:46Z</time>
      </trkpt>
      <trkpt lat="46.03741" lon="4.76705">
        <ele>205</ele>
        <time>2018-01-23T11:19:47Z</time>
      </trkpt>
      <trkpt lat="46.03736" lon="4.76703">
        <ele>205</ele>
        <time>2018-01-23T11:19:48Z</time>
      </trkpt>
      <trkpt lat="46.03731" lon="4.76701">
        <ele>205</ele>
        <time>2018-01-23T11:19:49Z</time>
      </trkpt>
      <trkpt lat="46.03726" lon="4.76697">
        <ele>205</ele>
        <time>2018-01-23T11:19:50Z</time>
      </trkpt>
      <trkpt lat="46.03722" lon="4.76696">
        <ele>205</ele>
        <time>2018-01-23T11:19:51Z</time>
      </trkpt>
      <trkpt lat="46.03718" lon="4.76694">
        <ele>205</ele>
        <time>2018-01-23T11:19:52Z</time>
      </trkpt>
      <trkpt lat="46.03712" lon="4.76692">
        <ele>205</ele>
        <time>2018-01-23T11:19:53Z</time>
      </trkpt>
      <trkpt lat="46.03707" lon="4.7669">
        <ele>205</ele>
        <time>2018-01-23T11:19:54Z</time>
      </trkpt>
      <trkpt lat="46.03701" lon="4.76688">
        <ele>205</ele>
        <time>2018-01-23T11:19:55Z</time>
      </trkpt>
      <trkpt lat="46.03696" lon="4.76684">
        <ele>205</ele>
        <time>2018-01-23T11:19:56Z</time>
      </trkpt>
      <trkpt lat="46.03692" lon="4.7668">
        <ele>205</ele>
        <time>2018-01-23T11:19:57Z</time>
      </trkpt>
      <trkpt lat="46.03691" lon="4.7667">
        <ele>205</ele>
        <time>2018-01-23T11:19:58Z</time>
      </trkpt>
      <trkpt lat="46.03689" lon="4.76663">
        <ele>204</ele>
        <time>2018-01-23T11:19:59Z</time>
      </trkpt>
      <trkpt lat="46.03686" lon="4.76657">
        <ele>204</ele>
        <time>2018-01-23T11:20:00Z</time>
      </trkpt>
      <trkpt lat="46.03684" lon="4.76649">
        <ele>204</ele>
        <time>2018-01-23T11:20:01Z</time>
      </trkpt>
      <trkpt lat="46.03683" lon="4.76641">
        <ele>204</ele>
        <time>2018-01-23T11:20:02Z</time>
      </trkpt>
      <trkpt lat="46.03682" lon="4.76633">
        <ele>203</ele>
        <time>2018-01-23T11:20:03Z</time>
      </trkpt>
      <trkpt lat="46.03681" lon="4.76622">
        <ele>203</ele>
        <time>2018-01-23T11:20:04Z</time>
      </trkpt>
      <trkpt lat="46.0368" lon="4.76613">
        <ele>203</ele>
        <time>2018-01-23T11:20:05Z</time>
      </trkpt>
      <trkpt lat="46.03677" lon="4.76605">
        <ele>203</ele>
        <time>2018-01-23T11:20:06Z</time>
      </trkpt>
      <trkpt lat="46.03673" lon="4.76596">
        <ele>203</ele>
        <time>2018-01-23T11:20:07Z</time>
      </trkpt>
      <trkpt lat="46.03669" lon="4.7659">
        <ele>202</ele>
        <time>2018-01-23T11:20:08Z</time>
      </trkpt>
      <trkpt lat="46.03661" lon="4.76587">
        <ele>202</ele>
        <time>2018-01-23T11:20:09Z</time>
      </trkpt>
      <trkpt lat="46.03656" lon="4.76583">
        <ele>201</ele>
        <time>2018-01-23T11:20:10Z</time>
      </trkpt>
      <trkpt lat="46.03649" lon="4.76576">
        <ele>201</ele>
        <time>2018-01-23T11:20:11Z</time>
      </trkpt>
      <trkpt lat="46.03643" lon="4.7657">
        <ele>201</ele>
        <time>2018-01-23T11:20:12Z</time>
      </trkpt>
      <trkpt lat="46.03642" lon="4.76557">
        <ele>201</ele>
        <time>2018-01-23T11:20:13Z</time>
      </trkpt>
      <trkpt lat="46.0364" lon="4.76547">
        <ele>200</ele>
        <time>2018-01-23T11:20:14Z</time>
      </trkpt>
      <trkpt lat="46.03636" lon="4.76538">
        <ele>200</ele>
        <time>2018-01-23T11:20:15Z</time>
      </trkpt>
      <trkpt lat="46.03633" lon="4.76528">
        <ele>200</ele>
        <time>2018-01-23T11:20:16Z</time>
      </trkpt>
      <trkpt lat="46.0363" lon="4.7652">
        <ele>200</ele>
        <time>2018-01-23T11:20:17Z</time>
      </trkpt>
      <trkpt lat="46.03625" lon="4.76511">
        <ele>200</ele>
        <time>2018-01-23T11:20:18Z</time>
      </trkpt>
      <trkpt lat="46.03621" lon="4.76504">
        <ele>200</ele>
        <time>2018-01-23T11:20:19Z</time>
      </trkpt>
      <trkpt lat="46.03616" lon="4.76497">
        <ele>199</ele>
        <time>2018-01-23T11:20:20Z</time>
      </trkpt>
      <trkpt lat="46.03611" lon="4.7649">
        <ele>199</ele>
        <time>2018-01-23T11:20:21Z</time>
      </trkpt>
      <trkpt lat="46.03609" lon="4.76481">
        <ele>199</ele>
        <time>2018-01-23T11:20:22Z</time>
      </trkpt>
      <trkpt lat="46.03604" lon="4.76475">
        <ele>199</ele>
        <time>2018-01-23T11:20:23Z</time>
      </trkpt>
      <trkpt lat="46.03602" lon="4.76468">
        <ele>199</ele>
        <time>2018-01-23T11:20:24Z</time>
      </trkpt>
      <trkpt lat="46.03601" lon="4.76457">
        <ele>199</ele>
        <time>2018-01-23T11:20:25Z</time>
      </trkpt>
      <trkpt lat="46.03599" lon="4.76448">
        <ele>199</ele>
        <time>2018-01-23T11:20:26Z</time>
      </trkpt>
      <trkpt lat="46.03598" lon="4.76439">
        <ele>199</ele>
        <time>2018-01-23T11:20:27Z</time>
      </trkpt>
      <trkpt lat="46.03594" lon="4.76428">
        <ele>199</ele>
        <time>2018-01-23T11:20:29Z</time>
      </trkpt>
      <trkpt lat="46.03592" lon="4.76421">
        <ele>199</ele>
        <time>2018-01-23T11:20:30Z</time>
      </trkpt>
      <trkpt lat="46.03596" lon="4.76409">
        <ele>198</ele>
        <time>2018-01-23T11:20:31Z</time>
      </trkpt>
      <trkpt lat="46.03596" lon="4.76397">
        <ele>198</ele>
        <time>2018-01-23T11:20:32Z</time>
      </trkpt>
      <trkpt lat="46.03599" lon="4.76385">
        <ele>197</ele>
        <time>2018-01-23T11:20:33Z</time>
      </trkpt>
      <trkpt lat="46.03599" lon="4.76375">
        <ele>197</ele>
        <time>2018-01-23T11:20:34Z</time>
      </trkpt>
      <trkpt lat="46.036" lon="4.76365">
        <ele>197</ele>
        <time>2018-01-23T11:20:35Z</time>
      </trkpt>
      <trkpt lat="46.036" lon="4.76355">
        <ele>196</ele>
        <time>2018-01-23T11:20:36Z</time>
      </trkpt>
      <trkpt lat="46.03601" lon="4.76345">
        <ele>196</ele>
        <time>2018-01-23T11:20:37Z</time>
      </trkpt>
      <trkpt lat="46.03603" lon="4.76334">
        <ele>196</ele>
        <time>2018-01-23T11:20:38Z</time>
      </trkpt>
      <trkpt lat="46.03605" lon="4.76326">
        <ele>195</ele>
        <time>2018-01-23T11:20:39Z</time>
      </trkpt>
      <trkpt lat="46.03606" lon="4.76317">
        <ele>195</ele>
        <time>2018-01-23T11:20:40Z</time>
      </trkpt>
      <trkpt lat="46.03609" lon="4.76307">
        <ele>195</ele>
        <time>2018-01-23T11:20:41Z</time>
      </trkpt>
      <trkpt lat="46.03609" lon="4.76298">
        <ele>195</ele>
        <time>2018-01-23T11:20:42Z</time>
      </trkpt>
      <trkpt lat="46.03612" lon="4.76286">
        <ele>194</ele>
        <time>2018-01-23T11:20:43Z</time>
      </trkpt>
      <trkpt lat="46.03615" lon="4.76279">
        <ele>194</ele>
        <time>2018-01-23T11:20:44Z</time>
      </trkpt>
      <trkpt lat="46.03616" lon="4.76268">
        <ele>194</ele>
        <time>2018-01-23T11:20:45Z</time>
      </trkpt>
      <trkpt lat="46.03617" lon="4.7626">
        <ele>194</ele>
        <time>2018-01-23T11:20:46Z</time>
      </trkpt>
      <trkpt lat="46.03618" lon="4.76252">
        <ele>194</ele>
        <time>2018-01-23T11:20:47Z</time>
      </trkpt>
      <trkpt lat="46.0362" lon="4.76244">
        <ele>193</ele>
        <time>2018-01-23T11:20:48Z</time>
      </trkpt>
      <trkpt lat="46.03624" lon="4.76232">
        <ele>193</ele>
        <time>2018-01-23T11:20:49Z</time>
      </trkpt>
      <trkpt lat="46.03626" lon="4.76223">
        <ele>193</ele>
        <time>2018-01-23T11:20:50Z</time>
      </trkpt>
      <trkpt lat="46.03628" lon="4.76213">
        <ele>193</ele>
        <time>2018-01-23T11:20:51Z</time>
      </trkpt>
      <trkpt lat="46.03629" lon="4.76204">
        <ele>193</ele>
        <time>2018-01-23T11:20:52Z</time>
      </trkpt>
      <trkpt lat="46.03628" lon="4.76194">
        <ele>193</ele>
        <time>2018-01-23T11:20:53Z</time>
      </trkpt>
      <trkpt lat="46.0363" lon="4.76185">
        <ele>193</ele>
        <time>2018-01-23T11:20:54Z</time>
      </trkpt>
      <trkpt lat="46.0363" lon="4.76176">
        <ele>192</ele>
        <time>2018-01-23T11:20:55Z</time>
      </trkpt>
      <trkpt lat="46.03631" lon="4.76166">
        <ele>192</ele>
        <time>2018-01-23T11:20:56Z</time>
      </trkpt>
      <trkpt lat="46.03631" lon="4.76158">
        <ele>192</ele>
        <time>2018-01-23T11:20:57Z</time>
      </trkpt>
      <trkpt lat="46.03631" lon="4.7615">
        <ele>192</ele>
        <time>2018-01-23T11:20:58Z</time>
      </trkpt>
      <trkpt lat="46.03631" lon="4.76142">
        <ele>192</ele>
        <time>2018-01-23T11:20:59Z</time>
      </trkpt>
      <trkpt lat="46.03631" lon="4.76135">
        <ele>192</ele>
        <time>2018-01-23T11:21:00Z</time>
      </trkpt>
      <trkpt lat="46.03632" lon="4.76126">
        <ele>192</ele>
        <time>2018-01-23T11:21:01Z</time>
      </trkpt>
      <trkpt lat="46.03632" lon="4.76119">
        <ele>192</ele>
        <time>2018-01-23T11:21:02Z</time>
      </trkpt>
      <trkpt lat="46.03631" lon="4.76112">
        <ele>192</ele>
        <time>2018-01-23T11:21:03Z</time>
      </trkpt>
      <trkpt lat="46.03631" lon="4.76103">
        <ele>192</ele>
        <time>2018-01-23T11:21:04Z</time>
      </trkpt>
      <trkpt lat="46.0363" lon="4.76095">
        <ele>192</ele>
        <time>2018-01-23T11:21:05Z</time>
      </trkpt>
      <trkpt lat="46.03629" lon="4.76087">
        <ele>192</ele>
        <time>2018-01-23T11:21:06Z</time>
      </trkpt>
      <trkpt lat="46.03627" lon="4.76079">
        <ele>191</ele>
        <time>2018-01-23T11:21:07Z</time>
      </trkpt>
      <trkpt lat="46.03625" lon="4.7607">
        <ele>191</ele>
        <time>2018-01-23T11:21:08Z</time>
      </trkpt>
      <trkpt lat="46.03622" lon="4.76061">
        <ele>191</ele>
        <time>2018-01-23T11:21:09Z</time>
      </trkpt>
      <trkpt lat="46.03619" lon="4.76052">
        <ele>191</ele>
        <time>2018-01-23T11:21:10Z</time>
      </trkpt>
      <trkpt lat="46.03618" lon="4.76043">
        <ele>191</ele>
        <time>2018-01-23T11:21:11Z</time>
      </trkpt>
      <trkpt lat="46.03615" lon="4.76034">
        <ele>191</ele>
        <time>2018-01-23T11:21:12Z</time>
      </trkpt>
      <trkpt lat="46.03613" lon="4.76025">
        <ele>191</ele>
        <time>2018-01-23T11:21:13Z</time>
      </trkpt>
      <trkpt lat="46.0361" lon="4.76016">
        <ele>191</ele>
        <time>2018-01-23T11:21:14Z</time>
      </trkpt>
      <trkpt lat="46.03607" lon="4.76008">
        <ele>191</ele>
        <time>2018-01-23T11:21:15Z</time>
      </trkpt>
      <trkpt lat="46.03603" lon="4.76">
        <ele>190</ele>
        <time>2018-01-23T11:21:16Z</time>
      </trkpt>
      <trkpt lat="46.03599" lon="4.75992">
        <ele>190</ele>
        <time>2018-01-23T11:21:17Z</time>
      </trkpt>
      <trkpt lat="46.03596" lon="4.75985">
        <ele>190</ele>
        <time>2018-01-23T11:21:18Z</time>
      </trkpt>
      <trkpt lat="46.03593" lon="4.75977">
        <ele>190</ele>
        <time>2018-01-23T11:21:19Z</time>
      </trkpt>
      <trkpt lat="46.03591" lon="4.75969">
        <ele>190</ele>
        <time>2018-01-23T11:21:20Z</time>
      </trkpt>
      <trkpt lat="46.03588" lon="4.75962">
        <ele>190</ele>
        <time>2018-01-23T11:21:21Z</time>
      </trkpt>
      <trkpt lat="46.03584" lon="4.75955">
        <ele>190</ele>
        <time>2018-01-23T11:21:22Z</time>
      </trkpt>
      <trkpt lat="46.03581" lon="4.75948">
        <ele>190</ele>
        <time>2018-01-23T11:21:23Z</time>
      </trkpt>
      <trkpt lat="46.03578" lon="4.75941">
        <ele>190</ele>
        <time>2018-01-23T11:21:24Z</time>
      </trkpt>
      <trkpt lat="46.03575" lon="4.75934">
        <ele>190</ele>
        <time>2018-01-23T11:21:25Z</time>
      </trkpt>
      <trkpt lat="46.03572" lon="4.75927">
        <ele>189</ele>
        <time>2018-01-23T11:21:26Z</time>
      </trkpt>
      <trkpt lat="46.03568" lon="4.7592">
        <ele>189</ele>
        <time>2018-01-23T11:21:27Z</time>
      </trkpt>
      <trkpt lat="46.03564" lon="4.75913">
        <ele>189</ele>
        <time>2018-01-23T11:21:28Z</time>
      </trkpt>
      <trkpt lat="46.03561" lon="4.75904">
        <ele>189</ele>
        <time>2018-01-23T11:21:29Z</time>
      </trkpt>
      <trkpt lat="46.03557" lon="4.75897">
        <ele>189</ele>
        <time>2018-01-23T11:21:30Z</time>
      </trkpt>
      <trkpt lat="46.03552" lon="4.7589">
        <ele>189</ele>
        <time>2018-01-23T11:21:31Z</time>
      </trkpt>
      <trkpt lat="46.03549" lon="4.75882">
        <ele>189</ele>
        <time>2018-01-23T11:21:32Z</time>
      </trkpt>
      <trkpt lat="46.03546" lon="4.75874">
        <ele>189</ele>
        <time>2018-01-23T11:21:33Z</time>
      </trkpt>
      <trkpt lat="46.03543" lon="4.75867">
        <ele>189</ele>
        <time>2018-01-23T11:21:34Z</time>
      </trkpt>
      <trkpt lat="46.0354" lon="4.75859">
        <ele>190</ele>
        <time>2018-01-23T11:21:35Z</time>
      </trkpt>
      <trkpt lat="46.03539" lon="4.7585">
        <ele>190</ele>
        <time>2018-01-23T11:21:36Z</time>
      </trkpt>
      <trkpt lat="46.03535" lon="4.75843">
        <ele>190</ele>
        <time>2018-01-23T11:21:37Z</time>
      </trkpt>
      <trkpt lat="46.03532" lon="4.75836">
        <ele>190</ele>
        <time>2018-01-23T11:21:38Z</time>
      </trkpt>
      <trkpt lat="46.03529" lon="4.75828">
        <ele>189</ele>
        <time>2018-01-23T11:21:39Z</time>
      </trkpt>
      <trkpt lat="46.03526" lon="4.75822">
        <ele>189</ele>
        <time>2018-01-23T11:21:40Z</time>
      </trkpt>
      <trkpt lat="46.03523" lon="4.75815">
        <ele>189</ele>
        <time>2018-01-23T11:21:41Z</time>
      </trkpt>
      <trkpt lat="46.03519" lon="4.75809">
        <ele>189</ele>
        <time>2018-01-23T11:21:42Z</time>
      </trkpt>
      <trkpt lat="46.03516" lon="4.75802">
        <ele>189</ele>
        <time>2018-01-23T11:21:43Z</time>
      </trkpt>
      <trkpt lat="46.03513" lon="4.75794">
        <ele>189</ele>
        <time>2018-01-23T11:21:44Z</time>
      </trkpt>
      <trkpt lat="46.0351" lon="4.75786">
        <ele>189</ele>
        <time>2018-01-23T11:21:45Z</time>
      </trkpt>
      <trkpt lat="46.03507" lon="4.75778">
        <ele>189</ele>
        <time>2018-01-23T11:21:46Z</time>
      </trkpt>
      <trkpt lat="46.03503" lon="4.7577">
        <ele>189</ele>
        <time>2018-01-23T11:21:47Z</time>
      </trkpt>
      <trkpt lat="46.035" lon="4.75763">
        <ele>189</ele>
        <time>2018-01-23T11:21:48Z</time>
      </trkpt>
      <trkpt lat="46.03496" lon="4.75756">
        <ele>189</ele>
        <time>2018-01-23T11:21:49Z</time>
      </trkpt>
      <trkpt lat="46.03494" lon="4.75745">
        <ele>189</ele>
        <time>2018-01-23T11:21:50Z</time>
      </trkpt>
      <trkpt lat="46.03491" lon="4.75739">
        <ele>189</ele>
        <time>2018-01-23T11:21:51Z</time>
      </trkpt>
      <trkpt lat="46.03488" lon="4.75732">
        <ele>189</ele>
        <time>2018-01-23T11:21:52Z</time>
      </trkpt>
      <trkpt lat="46.03485" lon="4.75725">
        <ele>189</ele>
        <time>2018-01-23T11:21:53Z</time>
      </trkpt>
      <trkpt lat="46.0348" lon="4.75719">
        <ele>189</ele>
        <time>2018-01-23T11:21:54Z</time>
      </trkpt>
      <trkpt lat="46.03479" lon="4.75712">
        <ele>189</ele>
        <time>2018-01-23T11:21:55Z</time>
      </trkpt>
      <trkpt lat="46.03476" lon="4.75706">
        <ele>189</ele>
        <time>2018-01-23T11:21:56Z</time>
      </trkpt>
      <trkpt lat="46.03474" lon="4.75697">
        <ele>189</ele>
        <time>2018-01-23T11:21:57Z</time>
      </trkpt>
      <trkpt lat="46.0347" lon="4.75691">
        <ele>189</ele>
        <time>2018-01-23T11:21:58Z</time>
      </trkpt>
      <trkpt lat="46.03468" lon="4.75686">
        <ele>189</ele>
        <time>2018-01-23T11:21:59Z</time>
      </trkpt>
      <trkpt lat="46.03465" lon="4.7568">
        <ele>189</ele>
        <time>2018-01-23T11:22:00Z</time>
      </trkpt>
      <trkpt lat="46.03461" lon="4.75673">
        <ele>189</ele>
        <time>2018-01-23T11:22:01Z</time>
      </trkpt>
      <trkpt lat="46.03458" lon="4.75668">
        <ele>189</ele>
        <time>2018-01-23T11:22:02Z</time>
      </trkpt>
      <trkpt lat="46.03455" lon="4.75661">
        <ele>188</ele>
        <time>2018-01-23T11:22:03Z</time>
      </trkpt>
      <trkpt lat="46.03453" lon="4.75654">
        <ele>188</ele>
        <time>2018-01-23T11:22:04Z</time>
      </trkpt>
      <trkpt lat="46.03452" lon="4.75647">
        <ele>188</ele>
        <time>2018-01-23T11:22:05Z</time>
      </trkpt>
      <trkpt lat="46.03448" lon="4.75641">
        <ele>188</ele>
        <time>2018-01-23T11:22:06Z</time>
      </trkpt>
      <trkpt lat="46.03446" lon="4.75635">
        <ele>188</ele>
        <time>2018-01-23T11:22:07Z</time>
      </trkpt>
      <trkpt lat="46.03443" lon="4.75626">
        <ele>188</ele>
        <time>2018-01-23T11:22:09Z</time>
      </trkpt>
      <trkpt lat="46.0344" lon="4.75622">
        <ele>188</ele>
        <time>2018-01-23T11:22:10Z</time>
      </trkpt>
      <trkpt lat="46.03432" lon="4.75618">
        <ele>188</ele>
        <time>2018-01-23T11:22:12Z</time>
      </trkpt>
      <trkpt lat="46.03428" lon="4.75618">
        <ele>188</ele>
        <time>2018-01-23T11:22:13Z</time>
      </trkpt>
      <trkpt lat="46.03421" lon="4.75617">
        <ele>188</ele>
        <time>2018-01-23T11:22:15Z</time>
      </trkpt>
      <trkpt lat="46.03417" lon="4.75619">
        <ele>188</ele>
        <time>2018-01-23T11:22:16Z</time>
      </trkpt>
      <trkpt lat="46.03409" lon="4.7562">
        <ele>188</ele>
        <time>2018-01-23T11:22:18Z</time>
      </trkpt>
      <trkpt lat="46.03402" lon="4.75621">
        <ele>188</ele>
        <time>2018-01-23T11:22:19Z</time>
      </trkpt>
      <trkpt lat="46.03397" lon="4.75622">
        <ele>188</ele>
        <time>2018-01-23T11:22:20Z</time>
      </trkpt>
      <trkpt lat="46.03392" lon="4.75624">
        <ele>188</ele>
        <time>2018-01-23T11:22:21Z</time>
      </trkpt>
      <trkpt lat="46.03386" lon="4.75626">
        <ele>188</ele>
        <time>2018-01-23T11:22:22Z</time>
      </trkpt>
      <trkpt lat="46.0338" lon="4.75627">
        <ele>188</ele>
        <time>2018-01-23T11:22:23Z</time>
      </trkpt>
      <trkpt lat="46.03375" lon="4.75628">
        <ele>188</ele>
        <time>2018-01-23T11:22:24Z</time>
      </trkpt>
      <trkpt lat="46.03368" lon="4.75629">
        <ele>188</ele>
        <time>2018-01-23T11:22:25Z</time>
      </trkpt>
      <trkpt lat="46.03363" lon="4.7563">
        <ele>188</ele>
        <time>2018-01-23T11:22:26Z</time>
      </trkpt>
      <trkpt lat="46.03357" lon="4.7563">
        <ele>188</ele>
        <time>2018-01-23T11:22:27Z</time>
      </trkpt>
      <trkpt lat="46.03351" lon="4.7563">
        <ele>188</ele>
        <time>2018-01-23T11:22:28Z</time>
      </trkpt>
      <trkpt lat="46.03343" lon="4.75629">
        <ele>188</ele>
        <time>2018-01-23T11:22:29Z</time>
      </trkpt>
      <trkpt lat="46.03338" lon="4.75631">
        <ele>188</ele>
        <time>2018-01-23T11:22:30Z</time>
      </trkpt>
      <trkpt lat="46.03331" lon="4.75632">
        <ele>189</ele>
        <time>2018-01-23T11:22:31Z</time>
      </trkpt>
      <trkpt lat="46.03325" lon="4.75631">
        <ele>189</ele>
        <time>2018-01-23T11:22:32Z</time>
      </trkpt>
      <trkpt lat="46.03318" lon="4.75632">
        <ele>189</ele>
        <time>2018-01-23T11:22:33Z</time>
      </trkpt>
      <trkpt lat="46.03313" lon="4.75632">
        <ele>189</ele>
        <time>2018-01-23T11:22:34Z</time>
      </trkpt>
      <trkpt lat="46.03306" lon="4.75634">
        <ele>189</ele>
        <time>2018-01-23T11:22:35Z</time>
      </trkpt>
      <trkpt lat="46.033" lon="4.75636">
        <ele>189</ele>
        <time>2018-01-23T11:22:36Z</time>
      </trkpt>
      <trkpt lat="46.03294" lon="4.75638">
        <ele>190</ele>
        <time>2018-01-23T11:22:37Z</time>
      </trkpt>
      <trkpt lat="46.03288" lon="4.75642">
        <ele>190</ele>
        <time>2018-01-23T11:22:38Z</time>
      </trkpt>
      <trkpt lat="46.03282" lon="4.75646">
        <ele>190</ele>
        <time>2018-01-23T11:22:39Z</time>
      </trkpt>
      <trkpt lat="46.03276" lon="4.75651">
        <ele>191</ele>
        <time>2018-01-23T11:22:40Z</time>
      </trkpt>
      <trkpt lat="46.03271" lon="4.75655">
        <ele>191</ele>
        <time>2018-01-23T11:22:41Z</time>
      </trkpt>
      <trkpt lat="46.03265" lon="4.75657">
        <ele>192</ele>
        <time>2018-01-23T11:22:42Z</time>
      </trkpt>
      <trkpt lat="46.03259" lon="4.75658">
        <ele>193</ele>
        <time>2018-01-23T11:22:43Z</time>
      </trkpt>
      <trkpt lat="46.03252" lon="4.75659">
        <ele>193</ele>
        <time>2018-01-23T11:22:44Z</time>
      </trkpt>
      <trkpt lat="46.03246" lon="4.75659">
        <ele>193</ele>
        <time>2018-01-23T11:22:45Z</time>
      </trkpt>
      <trkpt lat="46.03238" lon="4.75659">
        <ele>192</ele>
        <time>2018-01-23T11:22:46Z</time>
      </trkpt>
      <trkpt lat="46.03232" lon="4.7566">
        <ele>192</ele>
        <time>2018-01-23T11:22:47Z</time>
      </trkpt>
      <trkpt lat="46.03228" lon="4.75663">
        <ele>191</ele>
        <time>2018-01-23T11:22:48Z</time>
      </trkpt>
      <trkpt lat="46.03223" lon="4.75664">
        <ele>191</ele>
        <time>2018-01-23T11:22:49Z</time>
      </trkpt>
      <trkpt lat="46.03215" lon="4.75664">
        <ele>190</ele>
        <time>2018-01-23T11:22:50Z</time>
      </trkpt>
      <trkpt lat="46.0321" lon="4.75662">
        <ele>190</ele>
        <time>2018-01-23T11:22:51Z</time>
      </trkpt>
      <trkpt lat="46.03201" lon="4.75663">
        <ele>189</ele>
        <time>2018-01-23T11:22:52Z</time>
      </trkpt>
      <trkpt lat="46.03193" lon="4.75664">
        <ele>189</ele>
        <time>2018-01-23T11:22:53Z</time>
      </trkpt>
      <trkpt lat="46.03185" lon="4.75663">
        <ele>189</ele>
        <time>2018-01-23T11:22:54Z</time>
      </trkpt>
      <trkpt lat="46.03182" lon="4.75666">
        <ele>189</ele>
        <time>2018-01-23T11:22:55Z</time>
      </trkpt>
      <trkpt lat="46.03175" lon="4.75666">
        <ele>188</ele>
        <time>2018-01-23T11:22:56Z</time>
      </trkpt>
      <trkpt lat="46.03169" lon="4.75666">
        <ele>188</ele>
        <time>2018-01-23T11:22:57Z</time>
      </trkpt>
      <trkpt lat="46.03163" lon="4.75665">
        <ele>188</ele>
        <time>2018-01-23T11:22:58Z</time>
      </trkpt>
      <trkpt lat="46.03156" lon="4.75665">
        <ele>187</ele>
        <time>2018-01-23T11:22:59Z</time>
      </trkpt>
      <trkpt lat="46.0315" lon="4.75666">
        <ele>187</ele>
        <time>2018-01-23T11:23:00Z</time>
      </trkpt>
      <trkpt lat="46.03144" lon="4.75665">
        <ele>186</ele>
        <time>2018-01-23T11:23:01Z</time>
      </trkpt>
      <trkpt lat="46.03138" lon="4.75665">
        <ele>186</ele>
        <time>2018-01-23T11:23:02Z</time>
      </trkpt>
      <trkpt lat="46.03133" lon="4.75666">
        <ele>186</ele>
        <time>2018-01-23T11:23:03Z</time>
      </trkpt>
      <trkpt lat="46.03128" lon="4.75667">
        <ele>187</ele>
        <time>2018-01-23T11:23:04Z</time>
      </trkpt>
      <trkpt lat="46.03124" lon="4.75668">
        <ele>186</ele>
        <time>2018-01-23T11:23:05Z</time>
      </trkpt>
      <trkpt lat="46.03117" lon="4.7567">
        <ele>186</ele>
        <time>2018-01-23T11:23:06Z</time>
      </trkpt>
      <trkpt lat="46.03111" lon="4.75672">
        <ele>186</ele>
        <time>2018-01-23T11:23:07Z</time>
      </trkpt>
      <trkpt lat="46.03104" lon="4.75671">
        <ele>186</ele>
        <time>2018-01-23T11:23:08Z</time>
      </trkpt>
      <trkpt lat="46.03098" lon="4.75673">
        <ele>185</ele>
        <time>2018-01-23T11:23:09Z</time>
      </trkpt>
      <trkpt lat="46.03091" lon="4.75673">
        <ele>185</ele>
        <time>2018-01-23T11:23:10Z</time>
      </trkpt>
      <trkpt lat="46.03085" lon="4.75676">
        <ele>185</ele>
        <time>2018-01-23T11:23:11Z</time>
      </trkpt>
      <trkpt lat="46.03076" lon="4.75676">
        <ele>184</ele>
        <time>2018-01-23T11:23:12Z</time>
      </trkpt>
      <trkpt lat="46.03069" lon="4.75677">
        <ele>184</ele>
        <time>2018-01-23T11:23:13Z</time>
      </trkpt>
      <trkpt lat="46.03063" lon="4.75678">
        <ele>184</ele>
        <time>2018-01-23T11:23:14Z</time>
      </trkpt>
      <trkpt lat="46.03056" lon="4.7568">
        <ele>184</ele>
        <time>2018-01-23T11:23:15Z</time>
      </trkpt>
      <trkpt lat="46.03049" lon="4.75682">
        <ele>184</ele>
        <time>2018-01-23T11:23:16Z</time>
      </trkpt>
      <trkpt lat="46.03043" lon="4.75683">
        <ele>184</ele>
        <time>2018-01-23T11:23:17Z</time>
      </trkpt>
      <trkpt lat="46.03036" lon="4.75686">
        <ele>183</ele>
        <time>2018-01-23T11:23:18Z</time>
      </trkpt>
      <trkpt lat="46.0303" lon="4.75688">
        <ele>183</ele>
        <time>2018-01-23T11:23:19Z</time>
      </trkpt>
      <trkpt lat="46.03024" lon="4.75691">
        <ele>183</ele>
        <time>2018-01-23T11:23:20Z</time>
      </trkpt>
      <trkpt lat="46.03018" lon="4.75693">
        <ele>183</ele>
        <time>2018-01-23T11:23:21Z</time>
      </trkpt>
      <trkpt lat="46.03011" lon="4.75694">
        <ele>183</ele>
        <time>2018-01-23T11:23:22Z</time>
      </trkpt>
      <trkpt lat="46.03004" lon="4.75696">
        <ele>183</ele>
        <time>2018-01-23T11:23:23Z</time>
      </trkpt>
      <trkpt lat="46.02999" lon="4.757">
        <ele>183</ele>
        <time>2018-01-23T11:23:24Z</time>
      </trkpt>
      <trkpt lat="46.02993" lon="4.75702">
        <ele>183</ele>
        <time>2018-01-23T11:23:25Z</time>
      </trkpt>
      <trkpt lat="46.02987" lon="4.75705">
        <ele>183</ele>
        <time>2018-01-23T11:23:26Z</time>
      </trkpt>
      <trkpt lat="46.02981" lon="4.75707">
        <ele>183</ele>
        <time>2018-01-23T11:23:27Z</time>
      </trkpt>
      <trkpt lat="46.02976" lon="4.75709">
        <ele>183</ele>
        <time>2018-01-23T11:23:28Z</time>
      </trkpt>
      <trkpt lat="46.02969" lon="4.7571">
        <ele>183</ele>
        <time>2018-01-23T11:23:29Z</time>
      </trkpt>
      <trkpt lat="46.02963" lon="4.75712">
        <ele>183</ele>
        <time>2018-01-23T11:23:30Z</time>
      </trkpt>
      <trkpt lat="46.02956" lon="4.75713">
        <ele>183</ele>
        <time>2018-01-23T11:23:31Z</time>
      </trkpt>
      <trkpt lat="46.02949" lon="4.75715">
        <ele>183</ele>
        <time>2018-01-23T11:23:32Z</time>
      </trkpt>
      <trkpt lat="46.02944" lon="4.75718">
        <ele>183</ele>
        <time>2018-01-23T11:23:33Z</time>
      </trkpt>
      <trkpt lat="46.02937" lon="4.75718">
        <ele>183</ele>
        <time>2018-01-23T11:23:34Z</time>
      </trkpt>
      <trkpt lat="46.0293" lon="4.75718">
        <ele>183</ele>
        <time>2018-01-23T11:23:35Z</time>
      </trkpt>
      <trkpt lat="46.02922" lon="4.75719">
        <ele>183</ele>
        <time>2018-01-23T11:23:36Z</time>
      </trkpt>
      <trkpt lat="46.02917" lon="4.75718">
        <ele>183</ele>
        <time>2018-01-23T11:23:37Z</time>
      </trkpt>
      <trkpt lat="46.0291" lon="4.75718">
        <ele>183</ele>
        <time>2018-01-23T11:23:38Z</time>
      </trkpt>
      <trkpt lat="46.02903" lon="4.75719">
        <ele>183</ele>
        <time>2018-01-23T11:23:39Z</time>
      </trkpt>
      <trkpt lat="46.02896" lon="4.75719">
        <ele>183</ele>
        <time>2018-01-23T11:23:40Z</time>
      </trkpt>
      <trkpt lat="46.02889" lon="4.7572">
        <ele>183</ele>
        <time>2018-01-23T11:23:41Z</time>
      </trkpt>
      <trkpt lat="46.02881" lon="4.7572">
        <ele>183</ele>
        <time>2018-01-23T11:23:42Z</time>
      </trkpt>
      <trkpt lat="46.02874" lon="4.75719">
        <ele>183</ele>
        <time>2018-01-23T11:23:43Z</time>
      </trkpt>
      <trkpt lat="46.02869" lon="4.75722">
        <ele>183</ele>
        <time>2018-01-23T11:23:44Z</time>
      </trkpt>
      <trkpt lat="46.02862" lon="4.75722">
        <ele>183</ele>
        <time>2018-01-23T11:23:45Z</time>
      </trkpt>
      <trkpt lat="46.02855" lon="4.75721">
        <ele>183</ele>
        <time>2018-01-23T11:23:46Z</time>
      </trkpt>
      <trkpt lat="46.02847" lon="4.75719">
        <ele>183</ele>
        <time>2018-01-23T11:23:47Z</time>
      </trkpt>
      <trkpt lat="46.0284" lon="4.75718">
        <ele>183</ele>
        <time>2018-01-23T11:23:48Z</time>
      </trkpt>
      <trkpt lat="46.02833" lon="4.75715">
        <ele>183</ele>
        <time>2018-01-23T11:23:49Z</time>
      </trkpt>
      <trkpt lat="46.02826" lon="4.75713">
        <ele>183</ele>
        <time>2018-01-23T11:23:50Z</time>
      </trkpt>
      <trkpt lat="46.02819" lon="4.75712">
        <ele>183</ele>
        <time>2018-01-23T11:23:51Z</time>
      </trkpt>
      <trkpt lat="46.02813" lon="4.75711">
        <ele>183</ele>
        <time>2018-01-23T11:23:52Z</time>
      </trkpt>
      <trkpt lat="46.02806" lon="4.7571">
        <ele>183</ele>
        <time>2018-01-23T11:23:53Z</time>
      </trkpt>
      <trkpt lat="46.02799" lon="4.75708">
        <ele>183</ele>
        <time>2018-01-23T11:23:54Z</time>
      </trkpt>
      <trkpt lat="46.02792" lon="4.75707">
        <ele>183</ele>
        <time>2018-01-23T11:23:55Z</time>
      </trkpt>
      <trkpt lat="46.02786" lon="4.75707">
        <ele>183</ele>
        <time>2018-01-23T11:23:56Z</time>
      </trkpt>
      <trkpt lat="46.02779" lon="4.75706">
        <ele>183</ele>
        <time>2018-01-23T11:23:57Z</time>
      </trkpt>
      <trkpt lat="46.02773" lon="4.75705">
        <ele>183</ele>
        <time>2018-01-23T11:23:58Z</time>
      </trkpt>
      <trkpt lat="46.02766" lon="4.75705">
        <ele>182</ele>
        <time>2018-01-23T11:23:59Z</time>
      </trkpt>
      <trkpt lat="46.02759" lon="4.75705">
        <ele>182</ele>
        <time>2018-01-23T11:24:00Z</time>
      </trkpt>
      <trkpt lat="46.02755" lon="4.75704">
        <ele>182</ele>
        <time>2018-01-23T11:24:01Z</time>
      </trkpt>
      <trkpt lat="46.02751" lon="4.75708">
        <ele>183</ele>
        <time>2018-01-23T11:24:02Z</time>
      </trkpt>
      <trkpt lat="46.02745" lon="4.75709">
        <ele>182</ele>
        <time>2018-01-23T11:24:03Z</time>
      </trkpt>
      <trkpt lat="46.02739" lon="4.7571">
        <ele>182</ele>
        <time>2018-01-23T11:24:04Z</time>
      </trkpt>
      <trkpt lat="46.02733" lon="4.75713">
        <ele>182</ele>
        <time>2018-01-23T11:24:05Z</time>
      </trkpt>
      <trkpt lat="46.02728" lon="4.75715">
        <ele>182</ele>
        <time>2018-01-23T11:24:06Z</time>
      </trkpt>
      <trkpt lat="46.02723" lon="4.75718">
        <ele>182</ele>
        <time>2018-01-23T11:24:07Z</time>
      </trkpt>
      <trkpt lat="46.02718" lon="4.75721">
        <ele>182</ele>
        <time>2018-01-23T11:24:08Z</time>
      </trkpt>
      <trkpt lat="46.02712" lon="4.75723">
        <ele>182</ele>
        <time>2018-01-23T11:24:09Z</time>
      </trkpt>
      <trkpt lat="46.02707" lon="4.75725">
        <ele>182</ele>
        <time>2018-01-23T11:24:10Z</time>
      </trkpt>
      <trkpt lat="46.02702" lon="4.75727">
        <ele>182</ele>
        <time>2018-01-23T11:24:11Z</time>
      </trkpt>
      <trkpt lat="46.02696" lon="4.75731">
        <ele>182</ele>
        <time>2018-01-23T11:24:12Z</time>
      </trkpt>
      <trkpt lat="46.02691" lon="4.75732">
        <ele>182</ele>
        <time>2018-01-23T11:24:13Z</time>
      </trkpt>
      <trkpt lat="46.02685" lon="4.75733">
        <ele>181</ele>
        <time>2018-01-23T11:24:14Z</time>
      </trkpt>
      <trkpt lat="46.02679" lon="4.75733">
        <ele>181</ele>
        <time>2018-01-23T11:24:15Z</time>
      </trkpt>
      <trkpt lat="46.02675" lon="4.75736">
        <ele>181</ele>
        <time>2018-01-23T11:24:16Z</time>
      </trkpt>
      <trkpt lat="46.0267" lon="4.75737">
        <ele>181</ele>
        <time>2018-01-23T11:24:17Z</time>
      </trkpt>
      <trkpt lat="46.02666" lon="4.75741">
        <ele>181</ele>
        <time>2018-01-23T11:24:18Z</time>
      </trkpt>
      <trkpt lat="46.02661" lon="4.75741">
        <ele>181</ele>
        <time>2018-01-23T11:24:19Z</time>
      </trkpt>
      <trkpt lat="46.02656" lon="4.75741">
        <ele>181</ele>
        <time>2018-01-23T11:24:20Z</time>
      </trkpt>
      <trkpt lat="46.0265" lon="4.75743">
        <ele>182</ele>
        <time>2018-01-23T11:24:21Z</time>
      </trkpt>
      <trkpt lat="46.02642" lon="4.7574">
        <ele>182</ele>
        <time>2018-01-23T11:24:23Z</time>
      </trkpt>
      <trkpt lat="46.02641" lon="4.75739">
        <ele>182</ele>
        <time>2018-01-23T11:24:24Z</time>
      </trkpt>
      <trkpt lat="46.02633" lon="4.75742">
        <ele>182</ele>
        <time>2018-01-23T11:24:27Z</time>
      </trkpt>
      <trkpt lat="46.0263" lon="4.75742">
        <ele>182</ele>
        <time>2018-01-23T11:24:28Z</time>
      </trkpt>
      <trkpt lat="46.02621" lon="4.75743">
        <ele>182</ele>
        <time>2018-01-23T11:24:31Z</time>
      </trkpt>
      <trkpt lat="46.02618" lon="4.75743">
        <ele>182</ele>
        <time>2018-01-23T11:24:32Z</time>
      </trkpt>
      <trkpt lat="46.02611" lon="4.75743">
        <ele>182</ele>
        <time>2018-01-23T11:24:34Z</time>
      </trkpt>
      <trkpt lat="46.02609" lon="4.75743">
        <ele>182</ele>
        <time>2018-01-23T11:24:35Z</time>
      </trkpt>
      <trkpt lat="46.026" lon="4.75743">
        <ele>183</ele>
        <time>2018-01-23T11:24:38Z</time>
      </trkpt>
      <trkpt lat="46.02597" lon="4.75744">
        <ele>183</ele>
        <time>2018-01-23T11:24:39Z</time>
      </trkpt>
      <trkpt lat="46.02588" lon="4.75742">
        <ele>183</ele>
        <time>2018-01-23T11:24:42Z</time>
      </trkpt>
      <trkpt lat="46.02585" lon="4.75742">
        <ele>183</ele>
        <time>2018-01-23T11:24:43Z</time>
      </trkpt>
      <trkpt lat="46.02577" lon="4.75741">
        <ele>184</ele>
        <time>2018-01-23T11:24:46Z</time>
      </trkpt>
      <trkpt lat="46.02575" lon="4.75741">
        <ele>184</ele>
        <time>2018-01-23T11:24:47Z</time>
      </trkpt>
      <trkpt lat="46.02567" lon="4.75739">
        <ele>185</ele>
        <time>2018-01-23T11:24:50Z</time>
      </trkpt>
      <trkpt lat="46.02564" lon="4.75739">
        <ele>185</ele>
        <time>2018-01-23T11:24:51Z</time>
      </trkpt>
      <trkpt lat="46.02555" lon="4.7574">
        <ele>186</ele>
        <time>2018-01-23T11:24:54Z</time>
      </trkpt>
      <trkpt lat="46.02552" lon="4.7574">
        <ele>186</ele>
        <time>2018-01-23T11:24:55Z</time>
      </trkpt>
      <trkpt lat="46.02546" lon="4.7574">
        <ele>186</ele>
        <time>2018-01-23T11:24:57Z</time>
      </trkpt>
      <trkpt lat="46.02543" lon="4.7574">
        <ele>186</ele>
        <time>2018-01-23T11:24:58Z</time>
      </trkpt>
      <trkpt lat="46.02534" lon="4.75741">
        <ele>187</ele>
        <time>2018-01-23T11:25:01Z</time>
      </trkpt>
      <trkpt lat="46.02531" lon="4.75741">
        <ele>187</ele>
        <time>2018-01-23T11:25:02Z</time>
      </trkpt>
      <trkpt lat="46.02522" lon="4.75743">
        <ele>188</ele>
        <time>2018-01-23T11:25:05Z</time>
      </trkpt>
      <trkpt lat="46.02519" lon="4.75744">
        <ele>188</ele>
        <time>2018-01-23T11:25:06Z</time>
      </trkpt>
      <trkpt lat="46.02511" lon="4.75746">
        <ele>188</ele>
        <time>2018-01-23T11:25:09Z</time>
      </trkpt>
      <trkpt lat="46.02509" lon="4.75747">
        <ele>189</ele>
        <time>2018-01-23T11:25:10Z</time>
      </trkpt>
      <trkpt lat="46.02501" lon="4.75751">
        <ele>190</ele>
        <time>2018-01-23T11:25:13Z</time>
      </trkpt>
      <trkpt lat="46.02498" lon="4.75753">
        <ele>190</ele>
        <time>2018-01-23T11:25:14Z</time>
      </trkpt>
      <trkpt lat="46.02492" lon="4.75755">
        <ele>190</ele>
        <time>2018-01-23T11:25:16Z</time>
      </trkpt>
      <trkpt lat="46.02489" lon="4.75756">
        <ele>190</ele>
        <time>2018-01-23T11:25:17Z</time>
      </trkpt>
      <trkpt lat="46.02483" lon="4.75759">
        <ele>191</ele>
        <time>2018-01-23T11:25:19Z</time>
      </trkpt>
      <trkpt lat="46.0248" lon="4.75759">
        <ele>191</ele>
        <time>2018-01-23T11:25:20Z</time>
      </trkpt>
      <trkpt lat="46.02474" lon="4.75762">
        <ele>191</ele>
        <time>2018-01-23T11:25:22Z</time>
      </trkpt>
      <trkpt lat="46.02471" lon="4.75763">
        <ele>191</ele>
        <time>2018-01-23T11:25:23Z</time>
      </trkpt>
      <trkpt lat="46.02463" lon="4.75766">
        <ele>191</ele>
        <time>2018-01-23T11:25:26Z</time>
      </trkpt>
      <trkpt lat="46.0246" lon="4.75767">
        <ele>191</ele>
        <time>2018-01-23T11:25:27Z</time>
      </trkpt>
      <trkpt lat="46.02453" lon="4.75772">
        <ele>191</ele>
        <time>2018-01-23T11:25:30Z</time>
      </trkpt>
      <trkpt lat="46.0245" lon="4.75773">
        <ele>191</ele>
        <time>2018-01-23T11:25:31Z</time>
      </trkpt>
      <trkpt lat="46.02441" lon="4.75776">
        <ele>191</ele>
        <time>2018-01-23T11:25:34Z</time>
      </trkpt>
      <trkpt lat="46.02438" lon="4.75778">
        <ele>191</ele>
        <time>2018-01-23T11:25:35Z</time>
      </trkpt>
      <trkpt lat="46.02433" lon="4.75781">
        <ele>191</ele>
        <time>2018-01-23T11:25:37Z</time>
      </trkpt>
      <trkpt lat="46.0243" lon="4.75783">
        <ele>191</ele>
        <time>2018-01-23T11:25:38Z</time>
      </trkpt>
      <trkpt lat="46.02424" lon="4.75786">
        <ele>191</ele>
        <time>2018-01-23T11:25:40Z</time>
      </trkpt>
      <trkpt lat="46.0242" lon="4.75787">
        <ele>192</ele>
        <time>2018-01-23T11:25:41Z</time>
      </trkpt>
      <trkpt lat="46.02413" lon="4.7579">
        <ele>192</ele>
        <time>2018-01-23T11:25:43Z</time>
      </trkpt>
      <trkpt lat="46.0241" lon="4.75792">
        <ele>192</ele>
        <time>2018-01-23T11:25:44Z</time>
      </trkpt>
      <trkpt lat="46.02404" lon="4.75797">
        <ele>192</ele>
        <time>2018-01-23T11:25:46Z</time>
      </trkpt>
      <trkpt lat="46.024" lon="4.758">
        <ele>192</ele>
        <time>2018-01-23T11:25:47Z</time>
      </trkpt>
      <trkpt lat="46.02394" lon="4.75805">
        <ele>192</ele>
        <time>2018-01-23T11:25:49Z</time>
      </trkpt>
      <trkpt lat="46.02391" lon="4.75808">
        <ele>192</ele>
        <time>2018-01-23T11:25:50Z</time>
      </trkpt>
      <trkpt lat="46.02384" lon="4.75813">
        <ele>192</ele>
        <time>2018-01-23T11:25:52Z</time>
      </trkpt>
      <trkpt lat="46.02381" lon="4.75816">
        <ele>192</ele>
        <time>2018-01-23T11:25:53Z</time>
      </trkpt>
      <trkpt lat="46.02374" lon="4.75823">
        <ele>192</ele>
        <time>2018-01-23T11:25:55Z</time>
      </trkpt>
      <trkpt lat="46.02371" lon="4.75826">
        <ele>192</ele>
        <time>2018-01-23T11:25:56Z</time>
      </trkpt>
      <trkpt lat="46.02364" lon="4.75832">
        <ele>192</ele>
        <time>2018-01-23T11:25:58Z</time>
      </trkpt>
      <trkpt lat="46.0236" lon="4.75835">
        <ele>193</ele>
        <time>2018-01-23T11:25:59Z</time>
      </trkpt>
      <trkpt lat="46.02352" lon="4.75841">
        <ele>193</ele>
        <time>2018-01-23T11:26:01Z</time>
      </trkpt>
      <trkpt lat="46.02349" lon="4.75845">
        <ele>193</ele>
        <time>2018-01-23T11:26:02Z</time>
      </trkpt>
      <trkpt lat="46.02342" lon="4.75852">
        <ele>193</ele>
        <time>2018-01-23T11:26:04Z</time>
      </trkpt>
      <trkpt lat="46.02339" lon="4.75855">
        <ele>193</ele>
        <time>2018-01-23T11:26:05Z</time>
      </trkpt>
      <trkpt lat="46.02335" lon="4.75859">
        <ele>193</ele>
        <time>2018-01-23T11:26:06Z</time>
      </trkpt>
      <trkpt lat="46.0233" lon="4.75862">
        <ele>193</ele>
        <time>2018-01-23T11:26:07Z</time>
      </trkpt>
      <trkpt lat="46.02326" lon="4.75865">
        <ele>193</ele>
        <time>2018-01-23T11:26:08Z</time>
      </trkpt>
      <trkpt lat="46.02322" lon="4.75869">
        <ele>193</ele>
        <time>2018-01-23T11:26:09Z</time>
      </trkpt>
      <trkpt lat="46.02318" lon="4.75873">
        <ele>193</ele>
        <time>2018-01-23T11:26:10Z</time>
      </trkpt>
      <trkpt lat="46.02313" lon="4.75876">
        <ele>193</ele>
        <time>2018-01-23T11:26:11Z</time>
      </trkpt>
      <trkpt lat="46.02309" lon="4.75879">
        <ele>193</ele>
        <time>2018-01-23T11:26:12Z</time>
      </trkpt>
      <trkpt lat="46.02305" lon="4.75884">
        <ele>193</ele>
        <time>2018-01-23T11:26:13Z</time>
      </trkpt>
      <trkpt lat="46.023" lon="4.75888">
        <ele>193</ele>
        <time>2018-01-23T11:26:14Z</time>
      </trkpt>
      <trkpt lat="46.02296" lon="4.75894">
        <ele>193</ele>
        <time>2018-01-23T11:26:15Z</time>
      </trkpt>
      <trkpt lat="46.02291" lon="4.75898">
        <ele>193</ele>
        <time>2018-01-23T11:26:16Z</time>
      </trkpt>
      <trkpt lat="46.02286" lon="4.75901">
        <ele>193</ele>
        <time>2018-01-23T11:26:17Z</time>
      </trkpt>
      <trkpt lat="46.02281" lon="4.75905">
        <ele>193</ele>
        <time>2018-01-23T11:26:18Z</time>
      </trkpt>
      <trkpt lat="46.02276" lon="4.7591">
        <ele>193</ele>
        <time>2018-01-23T11:26:19Z</time>
      </trkpt>
      <trkpt lat="46.02271" lon="4.75915">
        <ele>193</ele>
        <time>2018-01-23T11:26:20Z</time>
      </trkpt>
      <trkpt lat="46.02265" lon="4.75918">
        <ele>193</ele>
        <time>2018-01-23T11:26:21Z</time>
      </trkpt>
      <trkpt lat="46.02261" lon="4.75922">
        <ele>193</ele>
        <time>2018-01-23T11:26:22Z</time>
      </trkpt>
      <trkpt lat="46.02256" lon="4.75928">
        <ele>193</ele>
        <time>2018-01-23T11:26:23Z</time>
      </trkpt>
      <trkpt lat="46.0225" lon="4.75933">
        <ele>193</ele>
        <time>2018-01-23T11:26:24Z</time>
      </trkpt>
      <trkpt lat="46.02245" lon="4.75938">
        <ele>193</ele>
        <time>2018-01-23T11:26:25Z</time>
      </trkpt>
      <trkpt lat="46.0224" lon="4.75942">
        <ele>193</ele>
        <time>2018-01-23T11:26:26Z</time>
      </trkpt>
      <trkpt lat="46.02235" lon="4.75948">
        <ele>193</ele>
        <time>2018-01-23T11:26:27Z</time>
      </trkpt>
      <trkpt lat="46.0223" lon="4.75951">
        <ele>193</ele>
        <time>2018-01-23T11:26:28Z</time>
      </trkpt>
      <trkpt lat="46.02224" lon="4.75956">
        <ele>193</ele>
        <time>2018-01-23T11:26:29Z</time>
      </trkpt>
      <trkpt lat="46.02218" lon="4.75962">
        <ele>192</ele>
        <time>2018-01-23T11:26:30Z</time>
      </trkpt>
      <trkpt lat="46.02212" lon="4.75966">
        <ele>192</ele>
        <time>2018-01-23T11:26:31Z</time>
      </trkpt>
      <trkpt lat="46.02206" lon="4.7597">
        <ele>192</ele>
        <time>2018-01-23T11:26:32Z</time>
      </trkpt>
      <trkpt lat="46.02201" lon="4.75973">
        <ele>192</ele>
        <time>2018-01-23T11:26:33Z</time>
      </trkpt>
      <trkpt lat="46.02195" lon="4.75978">
        <ele>192</ele>
        <time>2018-01-23T11:26:34Z</time>
      </trkpt>
      <trkpt lat="46.0219" lon="4.75982">
        <ele>192</ele>
        <time>2018-01-23T11:26:35Z</time>
      </trkpt>
      <trkpt lat="46.02185" lon="4.75985">
        <ele>192</ele>
        <time>2018-01-23T11:26:36Z</time>
      </trkpt>
      <trkpt lat="46.02181" lon="4.7599">
        <ele>192</ele>
        <time>2018-01-23T11:26:37Z</time>
      </trkpt>
      <trkpt lat="46.02177" lon="4.75995">
        <ele>192</ele>
        <time>2018-01-23T11:26:38Z</time>
      </trkpt>
      <trkpt lat="46.02171" lon="4.76">
        <ele>192</ele>
        <time>2018-01-23T11:26:39Z</time>
      </trkpt>
      <trkpt lat="46.02167" lon="4.76004">
        <ele>192</ele>
        <time>2018-01-23T11:26:40Z</time>
      </trkpt>
      <trkpt lat="46.02162" lon="4.76008">
        <ele>192</ele>
        <time>2018-01-23T11:26:41Z</time>
      </trkpt>
      <trkpt lat="46.02157" lon="4.76011">
        <ele>193</ele>
        <time>2018-01-23T11:26:42Z</time>
      </trkpt>
      <trkpt lat="46.02152" lon="4.76015">
        <ele>193</ele>
        <time>2018-01-23T11:26:43Z</time>
      </trkpt>
      <trkpt lat="46.02148" lon="4.7602">
        <ele>193</ele>
        <time>2018-01-23T11:26:44Z</time>
      </trkpt>
      <trkpt lat="46.02143" lon="4.76025">
        <ele>193</ele>
        <time>2018-01-23T11:26:45Z</time>
      </trkpt>
      <trkpt lat="46.02139" lon="4.76029">
        <ele>193</ele>
        <time>2018-01-23T11:26:46Z</time>
      </trkpt>
      <trkpt lat="46.02135" lon="4.76032">
        <ele>193</ele>
        <time>2018-01-23T11:26:47Z</time>
      </trkpt>
      <trkpt lat="46.0213" lon="4.76037">
        <ele>193</ele>
        <time>2018-01-23T11:26:48Z</time>
      </trkpt>
      <trkpt lat="46.02125" lon="4.76042">
        <ele>194</ele>
        <time>2018-01-23T11:26:49Z</time>
      </trkpt>
      <trkpt lat="46.0212" lon="4.76045">
        <ele>194</ele>
        <time>2018-01-23T11:26:50Z</time>
      </trkpt>
      <trkpt lat="46.02116" lon="4.7605">
        <ele>194</ele>
        <time>2018-01-23T11:26:51Z</time>
      </trkpt>
      <trkpt lat="46.02113" lon="4.76055">
        <ele>194</ele>
        <time>2018-01-23T11:26:52Z</time>
      </trkpt>
      <trkpt lat="46.02107" lon="4.76059">
        <ele>194</ele>
        <time>2018-01-23T11:26:53Z</time>
      </trkpt>
      <trkpt lat="46.02102" lon="4.76062">
        <ele>194</ele>
        <time>2018-01-23T11:26:54Z</time>
      </trkpt>
      <trkpt lat="46.02097" lon="4.76065">
        <ele>194</ele>
        <time>2018-01-23T11:26:55Z</time>
      </trkpt>
      <trkpt lat="46.02092" lon="4.76069">
        <ele>195</ele>
        <time>2018-01-23T11:26:56Z</time>
      </trkpt>
      <trkpt lat="46.02088" lon="4.76071">
        <ele>195</ele>
        <time>2018-01-23T11:26:57Z</time>
      </trkpt>
      <trkpt lat="46.02083" lon="4.76074">
        <ele>196</ele>
        <time>2018-01-23T11:26:58Z</time>
      </trkpt>
      <trkpt lat="46.02078" lon="4.76074">
        <ele>196</ele>
        <time>2018-01-23T11:26:59Z</time>
      </trkpt>
      <trkpt lat="46.02073" lon="4.76076">
        <ele>196</ele>
        <time>2018-01-23T11:27:00Z</time>
      </trkpt>
      <trkpt lat="46.02069" lon="4.76078">
        <ele>195</ele>
        <time>2018-01-23T11:27:01Z</time>
      </trkpt>
      <trkpt lat="46.02065" lon="4.76079">
        <ele>195</ele>
        <time>2018-01-23T11:27:02Z</time>
      </trkpt>
      <trkpt lat="46.02061" lon="4.76081">
        <ele>195</ele>
        <time>2018-01-23T11:27:03Z</time>
      </trkpt>
      <trkpt lat="46.02056" lon="4.7608">
        <ele>195</ele>
        <time>2018-01-23T11:27:04Z</time>
      </trkpt>
      <trkpt lat="46.02051" lon="4.7608">
        <ele>195</ele>
        <time>2018-01-23T11:27:05Z</time>
      </trkpt>
      <trkpt lat="46.02046" lon="4.76083">
        <ele>195</ele>
        <time>2018-01-23T11:27:06Z</time>
      </trkpt>
      <trkpt lat="46.02041" lon="4.76084">
        <ele>197</ele>
        <time>2018-01-23T11:27:07Z</time>
      </trkpt>
      <trkpt lat="46.02033" lon="4.76087">
        <ele>197</ele>
        <time>2018-01-23T11:27:09Z</time>
      </trkpt>
      <trkpt lat="46.02028" lon="4.76088">
        <ele>197</ele>
        <time>2018-01-23T11:27:10Z</time>
      </trkpt>
      <trkpt lat="46.02021" lon="4.76092">
        <ele>197</ele>
        <time>2018-01-23T11:27:12Z</time>
      </trkpt>
      <trkpt lat="46.02014" lon="4.76092">
        <ele>197</ele>
        <time>2018-01-23T11:27:13Z</time>
      </trkpt>
      <trkpt lat="46.0201" lon="4.76095">
        <ele>197</ele>
        <time>2018-01-23T11:27:14Z</time>
      </trkpt>
      <trkpt lat="46.02005" lon="4.76097">
        <ele>197</ele>
        <time>2018-01-23T11:27:15Z</time>
      </trkpt>
      <trkpt lat="46.02003" lon="4.76102">
        <ele>197</ele>
        <time>2018-01-23T11:27:18Z</time>
      </trkpt>
      <trkpt lat="46.01992" lon="4.76103">
        <ele>198</ele>
        <time>2018-01-23T11:27:19Z</time>
      </trkpt>
      <trkpt lat="46.01988" lon="4.76108">
        <ele>198</ele>
        <time>2018-01-23T11:27:21Z</time>
      </trkpt>
      <trkpt lat="46.01984" lon="4.7611">
        <ele>198</ele>
        <time>2018-01-23T11:27:22Z</time>
      </trkpt>
      <trkpt lat="46.01976" lon="4.76112">
        <ele>198</ele>
        <time>2018-01-23T11:27:23Z</time>
      </trkpt>
      <trkpt lat="46.01969" lon="4.76113">
        <ele>198</ele>
        <time>2018-01-23T11:27:24Z</time>
      </trkpt>
      <trkpt lat="46.01963" lon="4.76113">
        <ele>198</ele>
        <time>2018-01-23T11:27:25Z</time>
      </trkpt>
      <trkpt lat="46.01959" lon="4.76115">
        <ele>198</ele>
        <time>2018-01-23T11:27:26Z</time>
      </trkpt>
      <trkpt lat="46.01953" lon="4.76116">
        <ele>198</ele>
        <time>2018-01-23T11:27:27Z</time>
      </trkpt>
      <trkpt lat="46.01948" lon="4.76117">
        <ele>198</ele>
        <time>2018-01-23T11:27:28Z</time>
      </trkpt>
      <trkpt lat="46.0194" lon="4.76116">
        <ele>198</ele>
        <time>2018-01-23T11:27:29Z</time>
      </trkpt>
      <trkpt lat="46.01934" lon="4.76119">
        <ele>198</ele>
        <time>2018-01-23T11:27:30Z</time>
      </trkpt>
      <trkpt lat="46.01929" lon="4.76122">
        <ele>198</ele>
        <time>2018-01-23T11:27:31Z</time>
      </trkpt>
      <trkpt lat="46.01923" lon="4.76121">
        <ele>198</ele>
        <time>2018-01-23T11:27:32Z</time>
      </trkpt>
      <trkpt lat="46.01914" lon="4.76123">
        <ele>199</ele>
        <time>2018-01-23T11:27:34Z</time>
      </trkpt>
      <trkpt lat="46.0191" lon="4.76126">
        <ele>199</ele>
        <time>2018-01-23T11:27:35Z</time>
      </trkpt>
      <trkpt lat="46.01902" lon="4.76126">
        <ele>199</ele>
        <time>2018-01-23T11:27:36Z</time>
      </trkpt>
      <trkpt lat="46.01896" lon="4.76127">
        <ele>199</ele>
        <time>2018-01-23T11:27:37Z</time>
      </trkpt>
      <trkpt lat="46.0189" lon="4.76127">
        <ele>199</ele>
        <time>2018-01-23T11:27:38Z</time>
      </trkpt>
      <trkpt lat="46.01885" lon="4.76128">
        <ele>199</ele>
        <time>2018-01-23T11:27:39Z</time>
      </trkpt>
      <trkpt lat="46.01879" lon="4.76131">
        <ele>199</ele>
        <time>2018-01-23T11:27:40Z</time>
      </trkpt>
      <trkpt lat="46.01873" lon="4.76132">
        <ele>199</ele>
        <time>2018-01-23T11:27:41Z</time>
      </trkpt>
      <trkpt lat="46.01864" lon="4.76134">
        <ele>199</ele>
        <time>2018-01-23T11:27:43Z</time>
      </trkpt>
      <trkpt lat="46.01859" lon="4.76134">
        <ele>199</ele>
        <time>2018-01-23T11:27:44Z</time>
      </trkpt>
      <trkpt lat="46.01854" lon="4.76134">
        <ele>199</ele>
        <time>2018-01-23T11:27:45Z</time>
      </trkpt>
      <trkpt lat="46.01848" lon="4.76136">
        <ele>199</ele>
        <time>2018-01-23T11:27:46Z</time>
      </trkpt>
      <trkpt lat="46.01839" lon="4.76136">
        <ele>199</ele>
        <time>2018-01-23T11:27:48Z</time>
      </trkpt>
      <trkpt lat="46.01835" lon="4.76136">
        <ele>199</ele>
        <time>2018-01-23T11:27:49Z</time>
      </trkpt>
      <trkpt lat="46.01827" lon="4.76131">
        <ele>198</ele>
        <time>2018-01-23T11:27:51Z</time>
      </trkpt>
      <trkpt lat="46.01823" lon="4.76132">
        <ele>198</ele>
        <time>2018-01-23T11:27:52Z</time>
      </trkpt>
      <trkpt lat="46.01817" lon="4.76133">
        <ele>198</ele>
        <time>2018-01-23T11:27:54Z</time>
      </trkpt>
      <trkpt lat="46.01812" lon="4.76132">
        <ele>198</ele>
        <time>2018-01-23T11:27:55Z</time>
      </trkpt>
      <trkpt lat="46.01807" lon="4.76132">
        <ele>198</ele>
        <time>2018-01-23T11:27:56Z</time>
      </trkpt>
      <trkpt lat="46.01802" lon="4.7613">
        <ele>198</ele>
        <time>2018-01-23T11:27:57Z</time>
      </trkpt>
      <trkpt lat="46.01796" lon="4.7613">
        <ele>198</ele>
        <time>2018-01-23T11:27:58Z</time>
      </trkpt>
      <trkpt lat="46.01791" lon="4.7613">
        <ele>198</ele>
        <time>2018-01-23T11:27:59Z</time>
      </trkpt>
      <trkpt lat="46.01786" lon="4.76129">
        <ele>198</ele>
        <time>2018-01-23T11:28:00Z</time>
      </trkpt>
      <trkpt lat="46.01781" lon="4.76128">
        <ele>198</ele>
        <time>2018-01-23T11:28:01Z</time>
      </trkpt>
      <trkpt lat="46.01776" lon="4.76128">
        <ele>198</ele>
        <time>2018-01-23T11:28:02Z</time>
      </trkpt>
      <trkpt lat="46.01768" lon="4.76126">
        <ele>198</ele>
        <time>2018-01-23T11:28:03Z</time>
      </trkpt>
      <trkpt lat="46.01761" lon="4.76129">
        <ele>198</ele>
        <time>2018-01-23T11:28:04Z</time>
      </trkpt>
      <trkpt lat="46.01756" lon="4.76129">
        <ele>198</ele>
        <time>2018-01-23T11:28:05Z</time>
      </trkpt>
      <trkpt lat="46.0175" lon="4.76123">
        <ele>197</ele>
        <time>2018-01-23T11:28:07Z</time>
      </trkpt>
      <trkpt lat="46.01747" lon="4.76123">
        <ele>197</ele>
        <time>2018-01-23T11:28:08Z</time>
      </trkpt>
      <trkpt lat="46.01742" lon="4.76116">
        <ele>197</ele>
        <time>2018-01-23T11:28:10Z</time>
      </trkpt>
      <trkpt lat="46.01738" lon="4.76116">
        <ele>197</ele>
        <time>2018-01-23T11:28:11Z</time>
      </trkpt>
      <trkpt lat="46.01733" lon="4.76118">
        <ele>197</ele>
        <time>2018-01-23T11:28:13Z</time>
      </trkpt>
      <trkpt lat="46.01729" lon="4.76121">
        <ele>197</ele>
        <time>2018-01-23T11:28:14Z</time>
      </trkpt>
      <trkpt lat="46.01724" lon="4.76122">
        <ele>197</ele>
        <time>2018-01-23T11:28:15Z</time>
      </trkpt>
      <trkpt lat="46.01719" lon="4.76122">
        <ele>197</ele>
        <time>2018-01-23T11:28:16Z</time>
      </trkpt>
      <trkpt lat="46.01714" lon="4.76122">
        <ele>197</ele>
        <time>2018-01-23T11:28:17Z</time>
      </trkpt>
      <trkpt lat="46.01709" lon="4.76121">
        <ele>198</ele>
        <time>2018-01-23T11:28:18Z</time>
      </trkpt>
      <trkpt lat="46.01703" lon="4.76118">
        <ele>198</ele>
        <time>2018-01-23T11:28:19Z</time>
      </trkpt>
      <trkpt lat="46.01699" lon="4.76116">
        <ele>198</ele>
        <time>2018-01-23T11:28:20Z</time>
      </trkpt>
      <trkpt lat="46.01692" lon="4.76116">
        <ele>198</ele>
        <time>2018-01-23T11:28:22Z</time>
      </trkpt>
      <trkpt lat="46.01688" lon="4.76114">
        <ele>198</ele>
        <time>2018-01-23T11:28:23Z</time>
      </trkpt>
      <trkpt lat="46.01684" lon="4.76114">
        <ele>198</ele>
        <time>2018-01-23T11:28:24Z</time>
      </trkpt>
      <trkpt lat="46.01679" lon="4.76115">
        <ele>198</ele>
        <time>2018-01-23T11:28:25Z</time>
      </trkpt>
      <trkpt lat="46.01674" lon="4.76115">
        <ele>198</ele>
        <time>2018-01-23T11:28:26Z</time>
      </trkpt>
      <trkpt lat="46.01669" lon="4.76115">
        <ele>198</ele>
        <time>2018-01-23T11:28:27Z</time>
      </trkpt>
      <trkpt lat="46.01664" lon="4.76115">
        <ele>199</ele>
        <time>2018-01-23T11:28:28Z</time>
      </trkpt>
      <trkpt lat="46.01659" lon="4.76114">
        <ele>199</ele>
        <time>2018-01-23T11:28:29Z</time>
      </trkpt>
      <trkpt lat="46.01651" lon="4.76115">
        <ele>199</ele>
        <time>2018-01-23T11:28:31Z</time>
      </trkpt>
      <trkpt lat="46.01647" lon="4.76112">
        <ele>199</ele>
        <time>2018-01-23T11:28:32Z</time>
      </trkpt>
      <trkpt lat="46.01642" lon="4.76112">
        <ele>199</ele>
        <time>2018-01-23T11:28:33Z</time>
      </trkpt>
      <trkpt lat="46.01636" lon="4.76112">
        <ele>199</ele>
        <time>2018-01-23T11:28:34Z</time>
      </trkpt>
      <trkpt lat="46.01631" lon="4.76112">
        <ele>199</ele>
        <time>2018-01-23T11:28:35Z</time>
      </trkpt>
      <trkpt lat="46.01627" lon="4.76111">
        <ele>199</ele>
        <time>2018-01-23T11:28:36Z</time>
      </trkpt>
      <trkpt lat="46.01622" lon="4.7611">
        <ele>200</ele>
        <time>2018-01-23T11:28:37Z</time>
      </trkpt>
      <trkpt lat="46.01617" lon="4.76111">
        <ele>200</ele>
        <time>2018-01-23T11:28:38Z</time>
      </trkpt>
      <trkpt lat="46.01612" lon="4.76109">
        <ele>200</ele>
        <time>2018-01-23T11:28:39Z</time>
      </trkpt>
      <trkpt lat="46.01608" lon="4.76109">
        <ele>200</ele>
        <time>2018-01-23T11:28:40Z</time>
      </trkpt>
      <trkpt lat="46.01603" lon="4.76107">
        <ele>200</ele>
        <time>2018-01-23T11:28:41Z</time>
      </trkpt>
      <trkpt lat="46.01598" lon="4.76106">
        <ele>200</ele>
        <time>2018-01-23T11:28:42Z</time>
      </trkpt>
      <trkpt lat="46.01593" lon="4.76105">
        <ele>200</ele>
        <time>2018-01-23T11:28:43Z</time>
      </trkpt>
      <trkpt lat="46.01589" lon="4.76103">
        <ele>200</ele>
        <time>2018-01-23T11:28:44Z</time>
      </trkpt>
      <trkpt lat="46.01583" lon="4.76103">
        <ele>202</ele>
        <time>2018-01-23T11:28:45Z</time>
      </trkpt>
      <trkpt lat="46.01579" lon="4.76103">
        <ele>202</ele>
        <time>2018-01-23T11:28:46Z</time>
      </trkpt>
      <trkpt lat="46.0157" lon="4.76102">
        <ele>202</ele>
        <time>2018-01-23T11:28:48Z</time>
      </trkpt>
      <trkpt lat="46.01565" lon="4.76101">
        <ele>202</ele>
        <time>2018-01-23T11:28:49Z</time>
      </trkpt>
      <trkpt lat="46.01558" lon="4.76096">
        <ele>202</ele>
        <time>2018-01-23T11:28:51Z</time>
      </trkpt>
      <trkpt lat="46.01553" lon="4.76093">
        <ele>202</ele>
        <time>2018-01-23T11:28:52Z</time>
      </trkpt>
      <trkpt lat="46.01549" lon="4.76091">
        <ele>202</ele>
        <time>2018-01-23T11:28:53Z</time>
      </trkpt>
      <trkpt lat="46.01545" lon="4.76089">
        <ele>202</ele>
        <time>2018-01-23T11:28:54Z</time>
      </trkpt>
      <trkpt lat="46.01538" lon="4.76088">
        <ele>202</ele>
        <time>2018-01-23T11:28:55Z</time>
      </trkpt>
      <trkpt lat="46.01534" lon="4.76087">
        <ele>202</ele>
        <time>2018-01-23T11:28:56Z</time>
      </trkpt>
      <trkpt lat="46.0153" lon="4.76085">
        <ele>202</ele>
        <time>2018-01-23T11:28:57Z</time>
      </trkpt>
      <trkpt lat="46.01525" lon="4.76084">
        <ele>202</ele>
        <time>2018-01-23T11:28:58Z</time>
      </trkpt>
      <trkpt lat="46.0152" lon="4.76082">
        <ele>202</ele>
        <time>2018-01-23T11:28:59Z</time>
      </trkpt>
      <trkpt lat="46.01515" lon="4.76082">
        <ele>202</ele>
        <time>2018-01-23T11:29:00Z</time>
      </trkpt>
      <trkpt lat="46.0151" lon="4.76081">
        <ele>203</ele>
        <time>2018-01-23T11:29:01Z</time>
      </trkpt>
      <trkpt lat="46.01505" lon="4.76081">
        <ele>203</ele>
        <time>2018-01-23T11:29:02Z</time>
      </trkpt>
      <trkpt lat="46.015" lon="4.76079">
        <ele>203</ele>
        <time>2018-01-23T11:29:03Z</time>
      </trkpt>
      <trkpt lat="46.01496" lon="4.76078">
        <ele>203</ele>
        <time>2018-01-23T11:29:04Z</time>
      </trkpt>
      <trkpt lat="46.0149" lon="4.76077">
        <ele>203</ele>
        <time>2018-01-23T11:29:05Z</time>
      </trkpt>
      <trkpt lat="46.01486" lon="4.76075">
        <ele>203</ele>
        <time>2018-01-23T11:29:06Z</time>
      </trkpt>
      <trkpt lat="46.01479" lon="4.76073">
        <ele>203</ele>
        <time>2018-01-23T11:29:07Z</time>
      </trkpt>
      <trkpt lat="46.01475" lon="4.76073">
        <ele>203</ele>
        <time>2018-01-23T11:29:08Z</time>
      </trkpt>
      <trkpt lat="46.0147" lon="4.76072">
        <ele>203</ele>
        <time>2018-01-23T11:29:09Z</time>
      </trkpt>
      <trkpt lat="46.01465" lon="4.76072">
        <ele>203</ele>
        <time>2018-01-23T11:29:10Z</time>
      </trkpt>
      <trkpt lat="46.01461" lon="4.7607">
        <ele>203</ele>
        <time>2018-01-23T11:29:11Z</time>
      </trkpt>
      <trkpt lat="46.01456" lon="4.76069">
        <ele>203</ele>
        <time>2018-01-23T11:29:12Z</time>
      </trkpt>
      <trkpt lat="46.01452" lon="4.76067">
        <ele>203</ele>
        <time>2018-01-23T11:29:13Z</time>
      </trkpt>
      <trkpt lat="46.01447" lon="4.76066">
        <ele>203</ele>
        <time>2018-01-23T11:29:14Z</time>
      </trkpt>
      <trkpt lat="46.01443" lon="4.76063">
        <ele>203</ele>
        <time>2018-01-23T11:29:15Z</time>
      </trkpt>
      <trkpt lat="46.01437" lon="4.7606">
        <ele>203</ele>
        <time>2018-01-23T11:29:16Z</time>
      </trkpt>
      <trkpt lat="46.01432" lon="4.76057">
        <ele>203</ele>
        <time>2018-01-23T11:29:17Z</time>
      </trkpt>
      <trkpt lat="46.01428" lon="4.76053">
        <ele>204</ele>
        <time>2018-01-23T11:29:18Z</time>
      </trkpt>
      <trkpt lat="46.01423" lon="4.7605">
        <ele>204</ele>
        <time>2018-01-23T11:29:19Z</time>
      </trkpt>
      <trkpt lat="46.0142" lon="4.76046">
        <ele>204</ele>
        <time>2018-01-23T11:29:20Z</time>
      </trkpt>
      <trkpt lat="46.01415" lon="4.76042">
        <ele>204</ele>
        <time>2018-01-23T11:29:21Z</time>
      </trkpt>
      <trkpt lat="46.0141" lon="4.7604">
        <ele>204</ele>
        <time>2018-01-23T11:29:22Z</time>
      </trkpt>
      <trkpt lat="46.01402" lon="4.76037">
        <ele>204</ele>
        <time>2018-01-23T11:29:24Z</time>
      </trkpt>
      <trkpt lat="46.01398" lon="4.76036">
        <ele>204</ele>
        <time>2018-01-23T11:29:25Z</time>
      </trkpt>
      <trkpt lat="46.01393" lon="4.76036">
        <ele>203</ele>
        <time>2018-01-23T11:29:26Z</time>
      </trkpt>
      <trkpt lat="46.01387" lon="4.76035">
        <ele>203</ele>
        <time>2018-01-23T11:29:27Z</time>
      </trkpt>
      <trkpt lat="46.01382" lon="4.76037">
        <ele>203</ele>
        <time>2018-01-23T11:29:28Z</time>
      </trkpt>
      <trkpt lat="46.01377" lon="4.76039">
        <ele>203</ele>
        <time>2018-01-23T11:29:29Z</time>
      </trkpt>
      <trkpt lat="46.01369" lon="4.7604">
        <ele>203</ele>
        <time>2018-01-23T11:29:31Z</time>
      </trkpt>
      <trkpt lat="46.01364" lon="4.76043">
        <ele>203</ele>
        <time>2018-01-23T11:29:32Z</time>
      </trkpt>
      <trkpt lat="46.01359" lon="4.76046">
        <ele>203</ele>
        <time>2018-01-23T11:29:33Z</time>
      </trkpt>
      <trkpt lat="46.01354" lon="4.76046">
        <ele>203</ele>
        <time>2018-01-23T11:29:34Z</time>
      </trkpt>
      <trkpt lat="46.01346" lon="4.76047">
        <ele>203</ele>
        <time>2018-01-23T11:29:35Z</time>
      </trkpt>
      <trkpt lat="46.01341" lon="4.76047">
        <ele>203</ele>
        <time>2018-01-23T11:29:36Z</time>
      </trkpt>
      <trkpt lat="46.01335" lon="4.76048">
        <ele>203</ele>
        <time>2018-01-23T11:29:37Z</time>
      </trkpt>
      <trkpt lat="46.0133" lon="4.76049">
        <ele>203</ele>
        <time>2018-01-23T11:29:38Z</time>
      </trkpt>
      <trkpt lat="46.01325" lon="4.76051">
        <ele>203</ele>
        <time>2018-01-23T11:29:39Z</time>
      </trkpt>
      <trkpt lat="46.0132" lon="4.76052">
        <ele>203</ele>
        <time>2018-01-23T11:29:40Z</time>
      </trkpt>
      <trkpt lat="46.01312" lon="4.76055">
        <ele>203</ele>
        <time>2018-01-23T11:29:42Z</time>
      </trkpt>
      <trkpt lat="46.01307" lon="4.76057">
        <ele>203</ele>
        <time>2018-01-23T11:29:43Z</time>
      </trkpt>
      <trkpt lat="46.01301" lon="4.76057">
        <ele>203</ele>
        <time>2018-01-23T11:29:44Z</time>
      </trkpt>
      <trkpt lat="46.01297" lon="4.76059">
        <ele>204</ele>
        <time>2018-01-23T11:29:45Z</time>
      </trkpt>
      <trkpt lat="46.01291" lon="4.76061">
        <ele>204</ele>
        <time>2018-01-23T11:29:46Z</time>
      </trkpt>
      <trkpt lat="46.01285" lon="4.76063">
        <ele>204</ele>
        <time>2018-01-23T11:29:47Z</time>
      </trkpt>
      <trkpt lat="46.01281" lon="4.76065">
        <ele>204</ele>
        <time>2018-01-23T11:29:48Z</time>
      </trkpt>
      <trkpt lat="46.01274" lon="4.76066">
        <ele>204</ele>
        <time>2018-01-23T11:29:49Z</time>
      </trkpt>
      <trkpt lat="46.01265" lon="4.76067">
        <ele>204</ele>
        <time>2018-01-23T11:29:51Z</time>
      </trkpt>
      <trkpt lat="46.01261" lon="4.76067">
        <ele>204</ele>
        <time>2018-01-23T11:29:52Z</time>
      </trkpt>
      <trkpt lat="46.01257" lon="4.76067">
        <ele>204</ele>
        <time>2018-01-23T11:29:53Z</time>
      </trkpt>
      <trkpt lat="46.01252" lon="4.76067">
        <ele>204</ele>
        <time>2018-01-23T11:29:54Z</time>
      </trkpt>
      <trkpt lat="46.01243" lon="4.76067">
        <ele>205</ele>
        <time>2018-01-23T11:29:56Z</time>
      </trkpt>
      <trkpt lat="46.01239" lon="4.76066">
        <ele>205</ele>
        <time>2018-01-23T11:29:57Z</time>
      </trkpt>
      <trkpt lat="46.0123" lon="4.76063">
        <ele>206</ele>
        <time>2018-01-23T11:29:59Z</time>
      </trkpt>
      <trkpt lat="46.01226" lon="4.76063">
        <ele>206</ele>
        <time>2018-01-23T11:30:00Z</time>
      </trkpt>
      <trkpt lat="46.01221" lon="4.76063">
        <ele>206</ele>
        <time>2018-01-23T11:30:01Z</time>
      </trkpt>
      <trkpt lat="46.01216" lon="4.76063">
        <ele>206</ele>
        <time>2018-01-23T11:30:02Z</time>
      </trkpt>
      <trkpt lat="46.01208" lon="4.76059">
        <ele>206</ele>
        <time>2018-01-23T11:30:04Z</time>
      </trkpt>
      <trkpt lat="46.01204" lon="4.76059">
        <ele>206</ele>
        <time>2018-01-23T11:30:05Z</time>
      </trkpt>
      <trkpt lat="46.01198" lon="4.76057">
        <ele>206</ele>
        <time>2018-01-23T11:30:07Z</time>
      </trkpt>
      <trkpt lat="46.01194" lon="4.76053">
        <ele>206</ele>
        <time>2018-01-23T11:30:08Z</time>
      </trkpt>
      <trkpt lat="46.01188" lon="4.76054">
        <ele>206</ele>
        <time>2018-01-23T11:30:10Z</time>
      </trkpt>
      <trkpt lat="46.01184" lon="4.76054">
        <ele>207</ele>
        <time>2018-01-23T11:30:11Z</time>
      </trkpt>
      <trkpt lat="46.01178" lon="4.76051">
        <ele>207</ele>
        <time>2018-01-23T11:30:12Z</time>
      </trkpt>
      <trkpt lat="46.01173" lon="4.7605">
        <ele>207</ele>
        <time>2018-01-23T11:30:13Z</time>
      </trkpt>
      <trkpt lat="46.01165" lon="4.7605">
        <ele>208</ele>
        <time>2018-01-23T11:30:15Z</time>
      </trkpt>
      <trkpt lat="46.0116" lon="4.7605">
        <ele>208</ele>
        <time>2018-01-23T11:30:16Z</time>
      </trkpt>
      <trkpt lat="46.01154" lon="4.76051">
        <ele>208</ele>
        <time>2018-01-23T11:30:18Z</time>
      </trkpt>
      <trkpt lat="46.0115" lon="4.76052">
        <ele>208</ele>
        <time>2018-01-23T11:30:19Z</time>
      </trkpt>
      <trkpt lat="46.01145" lon="4.76051">
        <ele>208</ele>
        <time>2018-01-23T11:30:20Z</time>
      </trkpt>
      <trkpt lat="46.0114" lon="4.76051">
        <ele>208</ele>
        <time>2018-01-23T11:30:21Z</time>
      </trkpt>
      <trkpt lat="46.01131" lon="4.76054">
        <ele>208</ele>
        <time>2018-01-23T11:30:23Z</time>
      </trkpt>
      <trkpt lat="46.01129" lon="4.76056">
        <ele>208</ele>
        <time>2018-01-23T11:30:24Z</time>
      </trkpt>
      <trkpt lat="46.01123" lon="4.76057">
        <ele>208</ele>
        <time>2018-01-23T11:30:25Z</time>
      </trkpt>
      <trkpt lat="46.01118" lon="4.76058">
        <ele>208</ele>
        <time>2018-01-23T11:30:26Z</time>
      </trkpt>
      <trkpt lat="46.0111" lon="4.76057">
        <ele>208</ele>
        <time>2018-01-23T11:30:28Z</time>
      </trkpt>
      <trkpt lat="46.01106" lon="4.76057">
        <ele>208</ele>
        <time>2018-01-23T11:30:29Z</time>
      </trkpt>
      <trkpt lat="46.01101" lon="4.76057">
        <ele>208</ele>
        <time>2018-01-23T11:30:30Z</time>
      </trkpt>
      <trkpt lat="46.01097" lon="4.76057">
        <ele>208</ele>
        <time>2018-01-23T11:30:31Z</time>
      </trkpt>
      <trkpt lat="46.01092" lon="4.76059">
        <ele>208</ele>
        <time>2018-01-23T11:30:32Z</time>
      </trkpt>
      <trkpt lat="46.01088" lon="4.76061">
        <ele>208</ele>
        <time>2018-01-23T11:30:33Z</time>
      </trkpt>
      <trkpt lat="46.0108" lon="4.76065">
        <ele>209</ele>
        <time>2018-01-23T11:30:35Z</time>
      </trkpt>
      <trkpt lat="46.01078" lon="4.76066">
        <ele>209</ele>
        <time>2018-01-23T11:30:36Z</time>
      </trkpt>
      <trkpt lat="46.01074" lon="4.76066">
        <ele>209</ele>
        <time>2018-01-23T11:30:37Z</time>
      </trkpt>
      <trkpt lat="46.01068" lon="4.76068">
        <ele>209</ele>
        <time>2018-01-23T11:30:38Z</time>
      </trkpt>
      <trkpt lat="46.0106" lon="4.76069">
        <ele>209</ele>
        <time>2018-01-23T11:30:40Z</time>
      </trkpt>
      <trkpt lat="46.01057" lon="4.76069">
        <ele>210</ele>
        <time>2018-01-23T11:30:41Z</time>
      </trkpt>
      <trkpt lat="46.01051" lon="4.7607">
        <ele>210</ele>
        <time>2018-01-23T11:30:43Z</time>
      </trkpt>
      <trkpt lat="46.01047" lon="4.76069">
        <ele>210</ele>
        <time>2018-01-23T11:30:44Z</time>
      </trkpt>
      <trkpt lat="46.01039" lon="4.76069">
        <ele>210</ele>
        <time>2018-01-23T11:30:46Z</time>
      </trkpt>
      <trkpt lat="46.01035" lon="4.7607">
        <ele>210</ele>
        <time>2018-01-23T11:30:47Z</time>
      </trkpt>
      <trkpt lat="46.01028" lon="4.76071">
        <ele>210</ele>
        <time>2018-01-23T11:30:49Z</time>
      </trkpt>
      <trkpt lat="46.01025" lon="4.76072">
        <ele>210</ele>
        <time>2018-01-23T11:30:50Z</time>
      </trkpt>
      <trkpt lat="46.01018" lon="4.76074">
        <ele>211</ele>
        <time>2018-01-23T11:30:52Z</time>
      </trkpt>
      <trkpt lat="46.01014" lon="4.76075">
        <ele>211</ele>
        <time>2018-01-23T11:30:53Z</time>
      </trkpt>
      <trkpt lat="46.01007" lon="4.76074">
        <ele>211</ele>
        <time>2018-01-23T11:30:55Z</time>
      </trkpt>
      <trkpt lat="46.01003" lon="4.76074">
        <ele>211</ele>
        <time>2018-01-23T11:30:56Z</time>
      </trkpt>
      <trkpt lat="46.00995" lon="4.76072">
        <ele>212</ele>
        <time>2018-01-23T11:30:58Z</time>
      </trkpt>
      <trkpt lat="46.00991" lon="4.76072">
        <ele>212</ele>
        <time>2018-01-23T11:30:59Z</time>
      </trkpt>
      <trkpt lat="46.00984" lon="4.76072">
        <ele>212</ele>
        <time>2018-01-23T11:31:01Z</time>
      </trkpt>
      <trkpt lat="46.0098" lon="4.76071">
        <ele>212</ele>
        <time>2018-01-23T11:31:02Z</time>
      </trkpt>
      <trkpt lat="46.00973" lon="4.76072">
        <ele>212</ele>
        <time>2018-01-23T11:31:04Z</time>
      </trkpt>
      <trkpt lat="46.00969" lon="4.76073">
        <ele>212</ele>
        <time>2018-01-23T11:31:05Z</time>
      </trkpt>
      <trkpt lat="46.00961" lon="4.76074">
        <ele>212</ele>
        <time>2018-01-23T11:31:07Z</time>
      </trkpt>
      <trkpt lat="46.00956" lon="4.76075">
        <ele>212</ele>
        <time>2018-01-23T11:31:08Z</time>
      </trkpt>
      <trkpt lat="46.00951" lon="4.76076">
        <ele>212</ele>
        <time>2018-01-23T11:31:09Z</time>
      </trkpt>
      <trkpt lat="46.00946" lon="4.76077">
        <ele>212</ele>
        <time>2018-01-23T11:31:10Z</time>
      </trkpt>
      <trkpt lat="46.00941" lon="4.76078">
        <ele>212</ele>
        <time>2018-01-23T11:31:11Z</time>
      </trkpt>
      <trkpt lat="46.00937" lon="4.76078">
        <ele>212</ele>
        <time>2018-01-23T11:31:12Z</time>
      </trkpt>
      <trkpt lat="46.00929" lon="4.7608">
        <ele>213</ele>
        <time>2018-01-23T11:31:14Z</time>
      </trkpt>
      <trkpt lat="46.00925" lon="4.76081">
        <ele>213</ele>
        <time>2018-01-23T11:31:15Z</time>
      </trkpt>
      <trkpt lat="46.00918" lon="4.76082">
        <ele>213</ele>
        <time>2018-01-23T11:31:17Z</time>
      </trkpt>
      <trkpt lat="46.00914" lon="4.76082">
        <ele>213</ele>
        <time>2018-01-23T11:31:18Z</time>
      </trkpt>
      <trkpt lat="46.00908" lon="4.76083">
        <ele>213</ele>
        <time>2018-01-23T11:31:20Z</time>
      </trkpt>
      <trkpt lat="46.00904" lon="4.76084">
        <ele>214</ele>
        <time>2018-01-23T11:31:21Z</time>
      </trkpt>
      <trkpt lat="46.00898" lon="4.76086">
        <ele>214</ele>
        <time>2018-01-23T11:31:23Z</time>
      </trkpt>
      <trkpt lat="46.00894" lon="4.76087">
        <ele>214</ele>
        <time>2018-01-23T11:31:24Z</time>
      </trkpt>
      <trkpt lat="46.00887" lon="4.76089">
        <ele>215</ele>
        <time>2018-01-23T11:31:26Z</time>
      </trkpt>
      <trkpt lat="46.00884" lon="4.7609">
        <ele>215</ele>
        <time>2018-01-23T11:31:27Z</time>
      </trkpt>
      <trkpt lat="46.00877" lon="4.76092">
        <ele>215</ele>
        <time>2018-01-23T11:31:29Z</time>
      </trkpt>
      <trkpt lat="46.00873" lon="4.76092">
        <ele>215</ele>
        <time>2018-01-23T11:31:30Z</time>
      </trkpt>
      <trkpt lat="46.00866" lon="4.76093">
        <ele>215</ele>
        <time>2018-01-23T11:31:32Z</time>
      </trkpt>
      <trkpt lat="46.00863" lon="4.76094">
        <ele>215</ele>
        <time>2018-01-23T11:31:33Z</time>
      </trkpt>
      <trkpt lat="46.00856" lon="4.76095">
        <ele>215</ele>
        <time>2018-01-23T11:31:35Z</time>
      </trkpt>
      <trkpt lat="46.00853" lon="4.76096">
        <ele>215</ele>
        <time>2018-01-23T11:31:36Z</time>
      </trkpt>
      <trkpt lat="46.00846" lon="4.76098">
        <ele>216</ele>
        <time>2018-01-23T11:31:38Z</time>
      </trkpt>
      <trkpt lat="46.00843" lon="4.76098">
        <ele>216</ele>
        <time>2018-01-23T11:31:39Z</time>
      </trkpt>
      <trkpt lat="46.00836" lon="4.76099">
        <ele>216</ele>
        <time>2018-01-23T11:31:41Z</time>
      </trkpt>
      <trkpt lat="46.00833" lon="4.76099">
        <ele>217</ele>
        <time>2018-01-23T11:31:42Z</time>
      </trkpt>
      <trkpt lat="46.00827" lon="4.761">
        <ele>217</ele>
        <time>2018-01-23T11:31:44Z</time>
      </trkpt>
      <trkpt lat="46.00823" lon="4.761">
        <ele>217</ele>
        <time>2018-01-23T11:31:45Z</time>
      </trkpt>
      <trkpt lat="46.00817" lon="4.761">
        <ele>218</ele>
        <time>2018-01-23T11:31:47Z</time>
      </trkpt>
      <trkpt lat="46.00813" lon="4.761">
        <ele>218</ele>
        <time>2018-01-23T11:31:48Z</time>
      </trkpt>
      <trkpt lat="46.00807" lon="4.761">
        <ele>218</ele>
        <time>2018-01-23T11:31:50Z</time>
      </trkpt>
      <trkpt lat="46.00804" lon="4.761">
        <ele>218</ele>
        <time>2018-01-23T11:31:51Z</time>
      </trkpt>
      <trkpt lat="46.00797" lon="4.761">
        <ele>218</ele>
        <time>2018-01-23T11:31:53Z</time>
      </trkpt>
      <trkpt lat="46.00794" lon="4.76101">
        <ele>218</ele>
        <time>2018-01-23T11:31:54Z</time>
      </trkpt>
      <trkpt lat="46.00785" lon="4.76102">
        <ele>219</ele>
        <time>2018-01-23T11:31:57Z</time>
      </trkpt>
      <trkpt lat="46.00782" lon="4.76103">
        <ele>219</ele>
        <time>2018-01-23T11:31:58Z</time>
      </trkpt>
      <trkpt lat="46.00774" lon="4.76104">
        <ele>219</ele>
        <time>2018-01-23T11:32:01Z</time>
      </trkpt>
      <trkpt lat="46.00771" lon="4.76104">
        <ele>219</ele>
        <time>2018-01-23T11:32:02Z</time>
      </trkpt>
      <trkpt lat="46.00762" lon="4.76103">
        <ele>219</ele>
        <time>2018-01-23T11:32:05Z</time>
      </trkpt>
      <trkpt lat="46.00759" lon="4.76103">
        <ele>219</ele>
        <time>2018-01-23T11:32:06Z</time>
      </trkpt>
      <trkpt lat="46.00751" lon="4.76104">
        <ele>219</ele>
        <time>2018-01-23T11:32:09Z</time>
      </trkpt>
      <trkpt lat="46.00749" lon="4.76105">
        <ele>222</ele>
        <time>2018-01-23T11:32:10Z</time>
      </trkpt>
      <trkpt lat="46.00741" lon="4.76104">
        <ele>223</ele>
        <time>2018-01-23T11:32:13Z</time>
      </trkpt>
      <trkpt lat="46.00738" lon="4.76104">
        <ele>223</ele>
        <time>2018-01-23T11:32:14Z</time>
      </trkpt>
      <trkpt lat="46.0073" lon="4.76106">
        <ele>223</ele>
        <time>2018-01-23T11:32:17Z</time>
      </trkpt>
      <trkpt lat="46.00728" lon="4.76106">
        <ele>223</ele>
        <time>2018-01-23T11:32:18Z</time>
      </trkpt>
      <trkpt lat="46.00719" lon="4.76107">
        <ele>224</ele>
        <time>2018-01-23T11:32:21Z</time>
      </trkpt>
      <trkpt lat="46.00716" lon="4.76106">
        <ele>224</ele>
        <time>2018-01-23T11:32:22Z</time>
      </trkpt>
      <trkpt lat="46.0071" lon="4.76104">
        <ele>224</ele>
        <time>2018-01-23T11:32:24Z</time>
      </trkpt>
      <trkpt lat="46.00707" lon="4.76104">
        <ele>224</ele>
        <time>2018-01-23T11:32:25Z</time>
      </trkpt>
      <trkpt lat="46.007" lon="4.76104">
        <ele>225</ele>
        <time>2018-01-23T11:32:28Z</time>
      </trkpt>
      <trkpt lat="46.00698" lon="4.76104">
        <ele>225</ele>
        <time>2018-01-23T11:32:29Z</time>
      </trkpt>
      <trkpt lat="46.0069" lon="4.76106">
        <ele>225</ele>
        <time>2018-01-23T11:32:34Z</time>
      </trkpt>
      <trkpt lat="46.00688" lon="4.76107">
        <ele>225</ele>
        <time>2018-01-23T11:32:35Z</time>
      </trkpt>
      <trkpt lat="46.0068" lon="4.76109">
        <ele>225</ele>
        <time>2018-01-23T11:32:40Z</time>
      </trkpt>
      <trkpt lat="46.00678" lon="4.76109">
        <ele>226</ele>
        <time>2018-01-23T11:32:41Z</time>
      </trkpt>
      <trkpt lat="46.00671" lon="4.76114">
        <ele>226</ele>
        <time>2018-01-23T11:32:46Z</time>
      </trkpt>
      <trkpt lat="46.00669" lon="4.76114">
        <ele>226</ele>
        <time>2018-01-23T11:32:47Z</time>
      </trkpt>
      <trkpt lat="46.00661" lon="4.76115">
        <ele>228</ele>
        <time>2018-01-23T11:32:51Z</time>
      </trkpt>
      <trkpt lat="46.00659" lon="4.76115">
        <ele>228</ele>
        <time>2018-01-23T11:32:52Z</time>
      </trkpt>
      <trkpt lat="46.00651" lon="4.76117">
        <ele>228</ele>
        <time>2018-01-23T11:32:57Z</time>
      </trkpt>
      <trkpt lat="46.0065" lon="4.76117">
        <ele>228</ele>
        <time>2018-01-23T11:32:58Z</time>
      </trkpt>
      <trkpt lat="46.00642" lon="4.76115">
        <ele>228</ele>
        <time>2018-01-23T11:33:02Z</time>
      </trkpt>
      <trkpt lat="46.00641" lon="4.76114">
        <ele>228</ele>
        <time>2018-01-23T11:33:03Z</time>
      </trkpt>
      <trkpt lat="46.00635" lon="4.76108">
        <ele>227</ele>
        <time>2018-01-23T11:33:09Z</time>
      </trkpt>
      <trkpt lat="46.00633" lon="4.76107">
        <ele>227</ele>
        <time>2018-01-23T11:33:10Z</time>
      </trkpt>
      <trkpt lat="46.00627" lon="4.76113">
        <ele>228</ele>
        <time>2018-01-23T11:33:14Z</time>
      </trkpt>
      <trkpt lat="46.00626" lon="4.76117">
        <ele>228</ele>
        <time>2018-01-23T11:33:15Z</time>
      </trkpt>
      <trkpt lat="46.00626" lon="4.76125">
        <ele>228</ele>
        <time>2018-01-23T11:33:17Z</time>
      </trkpt>
      <trkpt lat="46.00626" lon="4.7613">
        <ele>228</ele>
        <time>2018-01-23T11:33:18Z</time>
      </trkpt>
      <trkpt lat="46.00626" lon="4.76139">
        <ele>228</ele>
        <time>2018-01-23T11:33:20Z</time>
      </trkpt>
      <trkpt lat="46.00627" lon="4.76143">
        <ele>228</ele>
        <time>2018-01-23T11:33:21Z</time>
      </trkpt>
      <trkpt lat="46.00627" lon="4.76152">
        <ele>228</ele>
        <time>2018-01-23T11:33:23Z</time>
      </trkpt>
      <trkpt lat="46.00627" lon="4.76156">
        <ele>228</ele>
        <time>2018-01-23T11:33:24Z</time>
      </trkpt>
      <trkpt lat="46.00626" lon="4.76165">
        <ele>228</ele>
        <time>2018-01-23T11:33:26Z</time>
      </trkpt>
      <trkpt lat="46.00626" lon="4.76169">
        <ele>230</ele>
        <time>2018-01-23T11:33:27Z</time>
      </trkpt>
      <trkpt lat="46.00625" lon="4.76179">
        <ele>230</ele>
        <time>2018-01-23T11:33:29Z</time>
      </trkpt>
      <trkpt lat="46.00625" lon="4.76184">
        <ele>230</ele>
        <time>2018-01-23T11:33:30Z</time>
      </trkpt>
      <trkpt lat="46.00622" lon="4.76192">
        <ele>230</ele>
        <time>2018-01-23T11:33:32Z</time>
      </trkpt>
      <trkpt lat="46.0062" lon="4.76195">
        <ele>230</ele>
        <time>2018-01-23T11:33:33Z</time>
      </trkpt>
      <trkpt lat="46.00612" lon="4.76196">
        <ele>230</ele>
        <time>2018-01-23T11:33:35Z</time>
      </trkpt>
      <trkpt lat="46.00608" lon="4.76194">
        <ele>230</ele>
        <time>2018-01-23T11:33:36Z</time>
      </trkpt>
      <trkpt lat="46.00603" lon="4.76191">
        <ele>230</ele>
        <time>2018-01-23T11:33:37Z</time>
      </trkpt>
      <trkpt lat="46.00597" lon="4.76189">
        <ele>230</ele>
        <time>2018-01-23T11:33:38Z</time>
      </trkpt>
      <trkpt lat="46.00593" lon="4.76187">
        <ele>230</ele>
        <time>2018-01-23T11:33:39Z</time>
      </trkpt>
      <trkpt lat="46.00588" lon="4.76185">
        <ele>230</ele>
        <time>2018-01-23T11:33:40Z</time>
      </trkpt>
      <trkpt lat="46.00582" lon="4.76184">
        <ele>230</ele>
        <time>2018-01-23T11:33:41Z</time>
      </trkpt>
      <trkpt lat="46.00576" lon="4.76183">
        <ele>230</ele>
        <time>2018-01-23T11:33:42Z</time>
      </trkpt>
      <trkpt lat="46.00569" lon="4.76181">
        <ele>230</ele>
        <time>2018-01-23T11:33:43Z</time>
      </trkpt>
      <trkpt lat="46.00563" lon="4.7618">
        <ele>230</ele>
        <time>2018-01-23T11:33:44Z</time>
      </trkpt>
      <trkpt lat="46.00556" lon="4.76177">
        <ele>230</ele>
        <time>2018-01-23T11:33:45Z</time>
      </trkpt>
      <trkpt lat="46.0055" lon="4.76174">
        <ele>230</ele>
        <time>2018-01-23T11:33:46Z</time>
      </trkpt>
      <trkpt lat="46.00542" lon="4.7617">
        <ele>230</ele>
        <time>2018-01-23T11:33:47Z</time>
      </trkpt>
      <trkpt lat="46.00535" lon="4.76166">
        <ele>228</ele>
        <time>2018-01-23T11:33:48Z</time>
      </trkpt>
      <trkpt lat="46.00528" lon="4.76161">
        <ele>228</ele>
        <time>2018-01-23T11:33:49Z</time>
      </trkpt>
      <trkpt lat="46.00521" lon="4.76156">
        <ele>228</ele>
        <time>2018-01-23T11:33:50Z</time>
      </trkpt>
      <trkpt lat="46.00515" lon="4.7615">
        <ele>228</ele>
        <time>2018-01-23T11:33:51Z</time>
      </trkpt>
      <trkpt lat="46.00508" lon="4.76142">
        <ele>228</ele>
        <time>2018-01-23T11:33:52Z</time>
      </trkpt>
      <trkpt lat="46.00502" lon="4.76134">
        <ele>227</ele>
        <time>2018-01-23T11:33:53Z</time>
      </trkpt>
      <trkpt lat="46.00495" lon="4.76126">
        <ele>227</ele>
        <time>2018-01-23T11:33:54Z</time>
      </trkpt>
      <trkpt lat="46.00489" lon="4.76118">
        <ele>227</ele>
        <time>2018-01-23T11:33:55Z</time>
      </trkpt>
      <trkpt lat="46.00482" lon="4.7611">
        <ele>227</ele>
        <time>2018-01-23T11:33:56Z</time>
      </trkpt>
      <trkpt lat="46.00474" lon="4.76102">
        <ele>227</ele>
        <time>2018-01-23T11:33:57Z</time>
      </trkpt>
      <trkpt lat="46.00467" lon="4.76096">
        <ele>227</ele>
        <time>2018-01-23T11:33:58Z</time>
      </trkpt>
      <trkpt lat="46.0046" lon="4.76088">
        <ele>227</ele>
        <time>2018-01-23T11:33:59Z</time>
      </trkpt>
      <trkpt lat="46.00452" lon="4.76084">
        <ele>227</ele>
        <time>2018-01-23T11:34:00Z</time>
      </trkpt>
      <trkpt lat="46.00444" lon="4.76082">
        <ele>224</ele>
        <time>2018-01-23T11:34:01Z</time>
      </trkpt>
      <trkpt lat="46.00435" lon="4.76079">
        <ele>224</ele>
        <time>2018-01-23T11:34:02Z</time>
      </trkpt>
      <trkpt lat="46.00427" lon="4.76075">
        <ele>225</ele>
        <time>2018-01-23T11:34:03Z</time>
      </trkpt>
      <trkpt lat="46.00419" lon="4.76074">
        <ele>225</ele>
        <time>2018-01-23T11:34:04Z</time>
      </trkpt>
      <trkpt lat="46.00411" lon="4.76073">
        <ele>226</ele>
        <time>2018-01-23T11:34:05Z</time>
      </trkpt>
      <trkpt lat="46.00404" lon="4.76072">
        <ele>226</ele>
        <time>2018-01-23T11:34:06Z</time>
      </trkpt>
      <trkpt lat="46.00396" lon="4.76072">
        <ele>226</ele>
        <time>2018-01-23T11:34:07Z</time>
      </trkpt>
      <trkpt lat="46.0039" lon="4.76072">
        <ele>226</ele>
        <time>2018-01-23T11:34:08Z</time>
      </trkpt>
      <trkpt lat="46.00384" lon="4.76072">
        <ele>226</ele>
        <time>2018-01-23T11:34:09Z</time>
      </trkpt>
      <trkpt lat="46.00378" lon="4.76071">
        <ele>226</ele>
        <time>2018-01-23T11:34:10Z</time>
      </trkpt>
      <trkpt lat="46.00372" lon="4.76065">
        <ele>226</ele>
        <time>2018-01-23T11:34:11Z</time>
      </trkpt>
      <trkpt lat="46.00367" lon="4.76059">
        <ele>226</ele>
        <time>2018-01-23T11:34:12Z</time>
      </trkpt>
      <trkpt lat="46.00363" lon="4.76052">
        <ele>226</ele>
        <time>2018-01-23T11:34:13Z</time>
      </trkpt>
      <trkpt lat="46.00367" lon="4.76043">
        <ele>225</ele>
        <time>2018-01-23T11:34:14Z</time>
      </trkpt>
      <trkpt lat="46.00376" lon="4.76035">
        <ele>225</ele>
        <time>2018-01-23T11:34:15Z</time>
      </trkpt>
      <trkpt lat="46.00381" lon="4.7603">
        <ele>225</ele>
        <time>2018-01-23T11:34:16Z</time>
      </trkpt>
      <trkpt lat="46.00391" lon="4.7602">
        <ele>224</ele>
        <time>2018-01-23T11:34:17Z</time>
      </trkpt>
      <trkpt lat="46.00397" lon="4.76014">
        <ele>224</ele>
        <time>2018-01-23T11:34:18Z</time>
      </trkpt>
      <trkpt lat="46.00401" lon="4.76009">
        <ele>223</ele>
        <time>2018-01-23T11:34:19Z</time>
      </trkpt>
      <trkpt lat="46.00408" lon="4.76004">
        <ele>222</ele>
        <time>2018-01-23T11:34:20Z</time>
      </trkpt>
      <trkpt lat="46.00416" lon="4.75996">
        <ele>221</ele>
        <time>2018-01-23T11:34:21Z</time>
      </trkpt>
      <trkpt lat="46.00421" lon="4.7599">
        <ele>220</ele>
        <time>2018-01-23T11:34:22Z</time>
      </trkpt>
      <trkpt lat="46.00426" lon="4.75987">
        <ele>220</ele>
        <time>2018-01-23T11:34:23Z</time>
      </trkpt>
      <trkpt lat="46.00432" lon="4.75977">
        <ele>219</ele>
        <time>2018-01-23T11:34:24Z</time>
      </trkpt>
      <trkpt lat="46.00434" lon="4.75966">
        <ele>219</ele>
        <time>2018-01-23T11:34:25Z</time>
      </trkpt>
      <trkpt lat="46.00439" lon="4.75955">
        <ele>219</ele>
        <time>2018-01-23T11:34:26Z</time>
      </trkpt>
      <trkpt lat="46.00443" lon="4.75946">
        <ele>219</ele>
        <time>2018-01-23T11:34:27Z</time>
      </trkpt>
      <trkpt lat="46.00446" lon="4.75935">
        <ele>218</ele>
        <time>2018-01-23T11:34:28Z</time>
      </trkpt>
      <trkpt lat="46.00448" lon="4.75925">
        <ele>218</ele>
        <time>2018-01-23T11:34:29Z</time>
      </trkpt>
      <trkpt lat="46.00448" lon="4.75914">
        <ele>217</ele>
        <time>2018-01-23T11:34:30Z</time>
      </trkpt>
      <trkpt lat="46.00446" lon="4.75902">
        <ele>217</ele>
        <time>2018-01-23T11:34:31Z</time>
      </trkpt>
      <trkpt lat="46.00436" lon="4.75893">
        <ele>217</ele>
        <time>2018-01-23T11:34:32Z</time>
      </trkpt>
      <trkpt lat="46.0043" lon="4.75887">
        <ele>217</ele>
        <time>2018-01-23T11:34:33Z</time>
      </trkpt>
      <trkpt lat="46.00422" lon="4.75879">
        <ele>217</ele>
        <time>2018-01-23T11:34:34Z</time>
      </trkpt>
      <trkpt lat="46.00419" lon="4.75866">
        <ele>216</ele>
        <time>2018-01-23T11:34:35Z</time>
      </trkpt>
      <trkpt lat="46.00415" lon="4.75854">
        <ele>215</ele>
        <time>2018-01-23T11:34:36Z</time>
      </trkpt>
      <trkpt lat="46.00411" lon="4.75844">
        <ele>214</ele>
        <time>2018-01-23T11:34:37Z</time>
      </trkpt>
      <trkpt lat="46.00406" lon="4.75834">
        <ele>214</ele>
        <time>2018-01-23T11:34:38Z</time>
      </trkpt>
      <trkpt lat="46.00399" lon="4.75822">
        <ele>213</ele>
        <time>2018-01-23T11:34:39Z</time>
      </trkpt>
      <trkpt lat="46.00393" lon="4.75812">
        <ele>213</ele>
        <time>2018-01-23T11:34:40Z</time>
      </trkpt>
      <trkpt lat="46.00388" lon="4.75804">
        <ele>213</ele>
        <time>2018-01-23T11:34:41Z</time>
      </trkpt>
      <trkpt lat="46.00382" lon="4.75797">
        <ele>213</ele>
        <time>2018-01-23T11:34:42Z</time>
      </trkpt>
      <trkpt lat="46.00375" lon="4.75786">
        <ele>213</ele>
        <time>2018-01-23T11:34:43Z</time>
      </trkpt>
      <trkpt lat="46.00368" lon="4.75777">
        <ele>213</ele>
        <time>2018-01-23T11:34:44Z</time>
      </trkpt>
      <trkpt lat="46.00361" lon="4.75768">
        <ele>212</ele>
        <time>2018-01-23T11:34:45Z</time>
      </trkpt>
      <trkpt lat="46.00353" lon="4.75759">
        <ele>211</ele>
        <time>2018-01-23T11:34:46Z</time>
      </trkpt>
      <trkpt lat="46.00344" lon="4.7575">
        <ele>209</ele>
        <time>2018-01-23T11:34:47Z</time>
      </trkpt>
      <trkpt lat="46.00339" lon="4.75736">
        <ele>210</ele>
        <time>2018-01-23T11:34:48Z</time>
      </trkpt>
      <trkpt lat="46.00332" lon="4.75727">
        <ele>208</ele>
        <time>2018-01-23T11:34:49Z</time>
      </trkpt>
      <trkpt lat="46.00326" lon="4.75715">
        <ele>208</ele>
        <time>2018-01-23T11:34:50Z</time>
      </trkpt>
      <trkpt lat="46.00319" lon="4.75705">
        <ele>208</ele>
        <time>2018-01-23T11:34:51Z</time>
      </trkpt>
      <trkpt lat="46.00311" lon="4.75694">
        <ele>208</ele>
        <time>2018-01-23T11:34:52Z</time>
      </trkpt>
      <trkpt lat="46.00306" lon="4.75682">
        <ele>208</ele>
        <time>2018-01-23T11:34:53Z</time>
      </trkpt>
      <trkpt lat="46.00299" lon="4.75671">
        <ele>208</ele>
        <time>2018-01-23T11:34:54Z</time>
      </trkpt>
      <trkpt lat="46.00292" lon="4.75655">
        <ele>206</ele>
        <time>2018-01-23T11:34:55Z</time>
      </trkpt>
      <trkpt lat="46.00285" lon="4.75644">
        <ele>206</ele>
        <time>2018-01-23T11:34:56Z</time>
      </trkpt>
      <trkpt lat="46.00277" lon="4.75633">
        <ele>206</ele>
        <time>2018-01-23T11:34:57Z</time>
      </trkpt>
      <trkpt lat="46.0027" lon="4.75622">
        <ele>206</ele>
        <time>2018-01-23T11:34:58Z</time>
      </trkpt>
      <trkpt lat="46.00262" lon="4.75607">
        <ele>205</ele>
        <time>2018-01-23T11:34:59Z</time>
      </trkpt>
      <trkpt lat="46.00254" lon="4.75597">
        <ele>205</ele>
        <time>2018-01-23T11:35:00Z</time>
      </trkpt>
      <trkpt lat="46.00246" lon="4.75588">
        <ele>206</ele>
        <time>2018-01-23T11:35:01Z</time>
      </trkpt>
      <trkpt lat="46.00242" lon="4.75574">
        <ele>205</ele>
        <time>2018-01-23T11:35:02Z</time>
      </trkpt>
      <trkpt lat="46.00235" lon="4.75563">
        <ele>205</ele>
        <time>2018-01-23T11:35:03Z</time>
      </trkpt>
      <trkpt lat="46.00229" lon="4.75551">
        <ele>205</ele>
        <time>2018-01-23T11:35:04Z</time>
      </trkpt>
      <trkpt lat="46.00223" lon="4.75538">
        <ele>205</ele>
        <time>2018-01-23T11:35:05Z</time>
      </trkpt>
      <trkpt lat="46.0022" lon="4.75523">
        <ele>204</ele>
        <time>2018-01-23T11:35:06Z</time>
      </trkpt>
      <trkpt lat="46.00221" lon="4.75506">
        <ele>203</ele>
        <time>2018-01-23T11:35:07Z</time>
      </trkpt>
      <trkpt lat="46.00219" lon="4.75491">
        <ele>198</ele>
        <time>2018-01-23T11:35:08Z</time>
      </trkpt>
      <trkpt lat="46.0022" lon="4.75476">
        <ele>198</ele>
        <time>2018-01-23T11:35:09Z</time>
      </trkpt>
      <trkpt lat="46.0022" lon="4.75461">
        <ele>197</ele>
        <time>2018-01-23T11:35:10Z</time>
      </trkpt>
      <trkpt lat="46.0022" lon="4.75446">
        <ele>197</ele>
        <time>2018-01-23T11:35:11Z</time>
      </trkpt>
      <trkpt lat="46.00219" lon="4.7543">
        <ele>196</ele>
        <time>2018-01-23T11:35:12Z</time>
      </trkpt>
      <trkpt lat="46.00219" lon="4.75414">
        <ele>192</ele>
        <time>2018-01-23T11:35:13Z</time>
      </trkpt>
      <trkpt lat="46.00218" lon="4.75399">
        <ele>192</ele>
        <time>2018-01-23T11:35:14Z</time>
      </trkpt>
      <trkpt lat="46.00218" lon="4.75384">
        <ele>192</ele>
        <time>2018-01-23T11:35:15Z</time>
      </trkpt>
      <trkpt lat="46.00218" lon="4.75369">
        <ele>191</ele>
        <time>2018-01-23T11:35:16Z</time>
      </trkpt>
      <trkpt lat="46.0022" lon="4.75354">
        <ele>190</ele>
        <time>2018-01-23T11:35:17Z</time>
      </trkpt>
      <trkpt lat="46.0022" lon="4.7534">
        <ele>190</ele>
        <time>2018-01-23T11:35:18Z</time>
      </trkpt>
      <trkpt lat="46.0022" lon="4.75325">
        <ele>186</ele>
        <time>2018-01-23T11:35:19Z</time>
      </trkpt>
      <trkpt lat="46.0022" lon="4.7531">
        <ele>186</ele>
        <time>2018-01-23T11:35:20Z</time>
      </trkpt>
      <trkpt lat="46.00219" lon="4.75296">
        <ele>185</ele>
        <time>2018-01-23T11:35:21Z</time>
      </trkpt>
      <trkpt lat="46.0022" lon="4.75281">
        <ele>185</ele>
        <time>2018-01-23T11:35:22Z</time>
      </trkpt>
      <trkpt lat="46.00219" lon="4.75269">
        <ele>184</ele>
        <time>2018-01-23T11:35:23Z</time>
      </trkpt>
      <trkpt lat="46.00221" lon="4.75257">
        <ele>184</ele>
        <time>2018-01-23T11:35:24Z</time>
      </trkpt>
      <trkpt lat="46.00221" lon="4.75246">
        <ele>180</ele>
        <time>2018-01-23T11:35:25Z</time>
      </trkpt>
      <trkpt lat="46.0022" lon="4.75235">
        <ele>180</ele>
        <time>2018-01-23T11:35:26Z</time>
      </trkpt>
      <trkpt lat="46.00216" lon="4.75223">
        <ele>180</ele>
        <time>2018-01-23T11:35:27Z</time>
      </trkpt>
      <trkpt lat="46.00216" lon="4.75212">
        <ele>180</ele>
        <time>2018-01-23T11:35:28Z</time>
      </trkpt>
      <trkpt lat="46.00216" lon="4.752">
        <ele>179</ele>
        <time>2018-01-23T11:35:29Z</time>
      </trkpt>
      <trkpt lat="46.00216" lon="4.75189">
        <ele>179</ele>
        <time>2018-01-23T11:35:30Z</time>
      </trkpt>
      <trkpt lat="46.00215" lon="4.75179">
        <ele>179</ele>
        <time>2018-01-23T11:35:31Z</time>
      </trkpt>
      <trkpt lat="46.00214" lon="4.75168">
        <ele>179</ele>
        <time>2018-01-23T11:35:32Z</time>
      </trkpt>
      <trkpt lat="46.00214" lon="4.75159">
        <ele>177</ele>
        <time>2018-01-23T11:35:33Z</time>
      </trkpt>
      <trkpt lat="46.00215" lon="4.7515">
        <ele>177</ele>
        <time>2018-01-23T11:35:34Z</time>
      </trkpt>
      <trkpt lat="46.00215" lon="4.75143">
        <ele>177</ele>
        <time>2018-01-23T11:35:35Z</time>
      </trkpt>
      <trkpt lat="46.00217" lon="4.7513">
        <ele>176</ele>
        <time>2018-01-23T11:35:37Z</time>
      </trkpt>
      <trkpt lat="46.00217" lon="4.75125">
        <ele>176</ele>
        <time>2018-01-23T11:35:38Z</time>
      </trkpt>
      <trkpt lat="46.00218" lon="4.75114">
        <ele>176</ele>
        <time>2018-01-23T11:35:42Z</time>
      </trkpt>
      <trkpt lat="46.00217" lon="4.75111">
        <ele>176</ele>
        <time>2018-01-23T11:35:43Z</time>
      </trkpt>
      <trkpt lat="46.00209" lon="4.75106">
        <ele>176</ele>
        <time>2018-01-23T11:35:47Z</time>
      </trkpt>
      <trkpt lat="46.00206" lon="4.75105">
        <ele>176</ele>
        <time>2018-01-23T11:35:48Z</time>
      </trkpt>
      <trkpt lat="46.00199" lon="4.75105">
        <ele>176</ele>
        <time>2018-01-23T11:35:50Z</time>
      </trkpt>
      <trkpt lat="46.00195" lon="4.75105">
        <ele>176</ele>
        <time>2018-01-23T11:35:51Z</time>
      </trkpt>
      <trkpt lat="46.00186" lon="4.75104">
        <ele>176</ele>
        <time>2018-01-23T11:35:53Z</time>
      </trkpt>
      <trkpt lat="46.00182" lon="4.75104">
        <ele>176</ele>
        <time>2018-01-23T11:35:54Z</time>
      </trkpt>
      <trkpt lat="46.00177" lon="4.75103">
        <ele>176</ele>
        <time>2018-01-23T11:35:55Z</time>
      </trkpt>
      <trkpt lat="46.00173" lon="4.75102">
        <ele>176</ele>
        <time>2018-01-23T11:35:56Z</time>
      </trkpt>
      <trkpt lat="46.00166" lon="4.75105">
        <ele>175</ele>
        <time>2018-01-23T11:35:57Z</time>
      </trkpt>
      <trkpt lat="46.0016" lon="4.75105">
        <ele>175</ele>
        <time>2018-01-23T11:35:58Z</time>
      </trkpt>
      <trkpt lat="46.00153" lon="4.75105">
        <ele>175</ele>
        <time>2018-01-23T11:35:59Z</time>
      </trkpt>
      <trkpt lat="46.0015" lon="4.75104">
        <ele>175</ele>
        <time>2018-01-23T11:36:00Z</time>
      </trkpt>
      <trkpt lat="46.00144" lon="4.75103">
        <ele>175</ele>
        <time>2018-01-23T11:36:01Z</time>
      </trkpt>
      <trkpt lat="46.00136" lon="4.75105">
        <ele>175</ele>
        <time>2018-01-23T11:36:02Z</time>
      </trkpt>
      <trkpt lat="46.00131" lon="4.75105">
        <ele>175</ele>
        <time>2018-01-23T11:36:03Z</time>
      </trkpt>
      <trkpt lat="46.00125" lon="4.75105">
        <ele>175</ele>
        <time>2018-01-23T11:36:04Z</time>
      </trkpt>
      <trkpt lat="46.00119" lon="4.75104">
        <ele>175</ele>
        <time>2018-01-23T11:36:05Z</time>
      </trkpt>
      <trkpt lat="46.00113" lon="4.75102">
        <ele>175</ele>
        <time>2018-01-23T11:36:06Z</time>
      </trkpt>
      <trkpt lat="46.00105" lon="4.75101">
        <ele>175</ele>
        <time>2018-01-23T11:36:07Z</time>
      </trkpt>
      <trkpt lat="46.00101" lon="4.75103">
        <ele>175</ele>
        <time>2018-01-23T11:36:08Z</time>
      </trkpt>
      <trkpt lat="46.00097" lon="4.75103">
        <ele>174</ele>
        <time>2018-01-23T11:36:09Z</time>
      </trkpt>
      <trkpt lat="46.00092" lon="4.75103">
        <ele>174</ele>
        <time>2018-01-23T11:36:10Z</time>
      </trkpt>
      <trkpt lat="46.00086" lon="4.75103">
        <ele>174</ele>
        <time>2018-01-23T11:36:11Z</time>
      </trkpt>
      <trkpt lat="46.00081" lon="4.75103">
        <ele>174</ele>
        <time>2018-01-23T11:36:12Z</time>
      </trkpt>
      <trkpt lat="46.00076" lon="4.75102">
        <ele>174</ele>
        <time>2018-01-23T11:36:13Z</time>
      </trkpt>
      <trkpt lat="46.0007" lon="4.75101">
        <ele>174</ele>
        <time>2018-01-23T11:36:14Z</time>
      </trkpt>
      <trkpt lat="46.00066" lon="4.75101">
        <ele>174</ele>
        <time>2018-01-23T11:36:15Z</time>
      </trkpt>
      <trkpt lat="46.00061" lon="4.751">
        <ele>174</ele>
        <time>2018-01-23T11:36:16Z</time>
      </trkpt>
      <trkpt lat="46.00056" lon="4.75102">
        <ele>174</ele>
        <time>2018-01-23T11:36:17Z</time>
      </trkpt>
      <trkpt lat="46.00049" lon="4.75103">
        <ele>174</ele>
        <time>2018-01-23T11:36:18Z</time>
      </trkpt>
      <trkpt lat="46.00044" lon="4.75104">
        <ele>174</ele>
        <time>2018-01-23T11:36:19Z</time>
      </trkpt>
      <trkpt lat="46.00038" lon="4.75105">
        <ele>174</ele>
        <time>2018-01-23T11:36:20Z</time>
      </trkpt>
      <trkpt lat="46.00033" lon="4.75105">
        <ele>174</ele>
        <time>2018-01-23T11:36:21Z</time>
      </trkpt>
      <trkpt lat="46.00027" lon="4.75105">
        <ele>174</ele>
        <time>2018-01-23T11:36:22Z</time>
      </trkpt>
      <trkpt lat="46.00021" lon="4.75106">
        <ele>174</ele>
        <time>2018-01-23T11:36:23Z</time>
      </trkpt>
      <trkpt lat="46.00017" lon="4.75107">
        <ele>174</ele>
        <time>2018-01-23T11:36:24Z</time>
      </trkpt>
      <trkpt lat="46.0001" lon="4.75108">
        <ele>174</ele>
        <time>2018-01-23T11:36:25Z</time>
      </trkpt>
      <trkpt lat="46.00005" lon="4.75111">
        <ele>174</ele>
        <time>2018-01-23T11:36:26Z</time>
      </trkpt>
      <trkpt lat="45.99999" lon="4.75114">
        <ele>173</ele>
        <time>2018-01-23T11:36:27Z</time>
      </trkpt>
      <trkpt lat="45.99988" lon="4.75116">
        <ele>173</ele>
        <time>2018-01-23T11:36:28Z</time>
      </trkpt>
      <trkpt lat="45.99983" lon="4.75119">
        <ele>173</ele>
        <time>2018-01-23T11:36:29Z</time>
      </trkpt>
      <trkpt lat="45.99978" lon="4.75122">
        <ele>173</ele>
        <time>2018-01-23T11:36:30Z</time>
      </trkpt>
      <trkpt lat="45.99971" lon="4.75124">
        <ele>173</ele>
        <time>2018-01-23T11:36:31Z</time>
      </trkpt>
      <trkpt lat="45.99965" lon="4.75126">
        <ele>173</ele>
        <time>2018-01-23T11:36:32Z</time>
      </trkpt>
      <trkpt lat="45.99961" lon="4.75127">
        <ele>173</ele>
        <time>2018-01-23T11:36:33Z</time>
      </trkpt>
      <trkpt lat="45.99956" lon="4.7513">
        <ele>173</ele>
        <time>2018-01-23T11:36:34Z</time>
      </trkpt>
      <trkpt lat="45.99951" lon="4.75132">
        <ele>173</ele>
        <time>2018-01-23T11:36:35Z</time>
      </trkpt>
      <trkpt lat="45.99946" lon="4.75135">
        <ele>173</ele>
        <time>2018-01-23T11:36:36Z</time>
      </trkpt>
      <trkpt lat="45.99942" lon="4.75138">
        <ele>173</ele>
        <time>2018-01-23T11:36:37Z</time>
      </trkpt>
      <trkpt lat="45.99938" lon="4.7514">
        <ele>173</ele>
        <time>2018-01-23T11:36:38Z</time>
      </trkpt>
      <trkpt lat="45.99934" lon="4.75143">
        <ele>173</ele>
        <time>2018-01-23T11:36:39Z</time>
      </trkpt>
      <trkpt lat="45.99928" lon="4.75146">
        <ele>173</ele>
        <time>2018-01-23T11:36:40Z</time>
      </trkpt>
      <trkpt lat="45.99923" lon="4.75149">
        <ele>173</ele>
        <time>2018-01-23T11:36:41Z</time>
      </trkpt>
      <trkpt lat="45.99916" lon="4.75151">
        <ele>172</ele>
        <time>2018-01-23T11:36:42Z</time>
      </trkpt>
      <trkpt lat="45.9991" lon="4.75152">
        <ele>172</ele>
        <time>2018-01-23T11:36:43Z</time>
      </trkpt>
      <trkpt lat="45.99903" lon="4.75155">
        <ele>172</ele>
        <time>2018-01-23T11:36:44Z</time>
      </trkpt>
      <trkpt lat="45.99898" lon="4.75158">
        <ele>172</ele>
        <time>2018-01-23T11:36:45Z</time>
      </trkpt>
      <trkpt lat="45.99892" lon="4.7516">
        <ele>172</ele>
        <time>2018-01-23T11:36:46Z</time>
      </trkpt>
      <trkpt lat="45.99886" lon="4.75164">
        <ele>172</ele>
        <time>2018-01-23T11:36:47Z</time>
      </trkpt>
      <trkpt lat="45.99879" lon="4.75165">
        <ele>172</ele>
        <time>2018-01-23T11:36:48Z</time>
      </trkpt>
      <trkpt lat="45.99873" lon="4.75169">
        <ele>174</ele>
        <time>2018-01-23T11:36:49Z</time>
      </trkpt>
      <trkpt lat="45.99868" lon="4.75171">
        <ele>174</ele>
        <time>2018-01-23T11:36:50Z</time>
      </trkpt>
      <trkpt lat="45.99865" lon="4.75178">
        <ele>174</ele>
        <time>2018-01-23T11:36:51Z</time>
      </trkpt>
      <trkpt lat="45.99858" lon="4.75176">
        <ele>174</ele>
        <time>2018-01-23T11:36:52Z</time>
      </trkpt>
      <trkpt lat="45.99852" lon="4.7518">
        <ele>174</ele>
        <time>2018-01-23T11:36:54Z</time>
      </trkpt>
      <trkpt lat="45.99849" lon="4.75182">
        <ele>174</ele>
        <time>2018-01-23T11:36:55Z</time>
      </trkpt>
      <trkpt lat="45.99843" lon="4.75183">
        <ele>174</ele>
        <time>2018-01-23T11:36:56Z</time>
      </trkpt>
      <trkpt lat="45.99837" lon="4.75185">
        <ele>174</ele>
        <time>2018-01-23T11:36:57Z</time>
      </trkpt>
      <trkpt lat="45.99831" lon="4.75187">
        <ele>173</ele>
        <time>2018-01-23T11:36:58Z</time>
      </trkpt>
      <trkpt lat="45.99824" lon="4.75188">
        <ele>173</ele>
        <time>2018-01-23T11:36:59Z</time>
      </trkpt>
      <trkpt lat="45.9982" lon="4.7519">
        <ele>174</ele>
        <time>2018-01-23T11:37:00Z</time>
      </trkpt>
      <trkpt lat="45.99814" lon="4.75193">
        <ele>174</ele>
        <time>2018-01-23T11:37:01Z</time>
      </trkpt>
      <trkpt lat="45.99808" lon="4.75196">
        <ele>174</ele>
        <time>2018-01-23T11:37:02Z</time>
      </trkpt>
      <trkpt lat="45.99802" lon="4.75199">
        <ele>174</ele>
        <time>2018-01-23T11:37:03Z</time>
      </trkpt>
      <trkpt lat="45.99796" lon="4.75202">
        <ele>174</ele>
        <time>2018-01-23T11:37:04Z</time>
      </trkpt>
      <trkpt lat="45.99789" lon="4.75207">
        <ele>174</ele>
        <time>2018-01-23T11:37:05Z</time>
      </trkpt>
      <trkpt lat="45.99782" lon="4.75211">
        <ele>174</ele>
        <time>2018-01-23T11:37:06Z</time>
      </trkpt>
      <trkpt lat="45.99776" lon="4.75214">
        <ele>174</ele>
        <time>2018-01-23T11:37:07Z</time>
      </trkpt>
      <trkpt lat="45.9977" lon="4.75217">
        <ele>175</ele>
        <time>2018-01-23T11:37:08Z</time>
      </trkpt>
      <trkpt lat="45.99765" lon="4.75219">
        <ele>175</ele>
        <time>2018-01-23T11:37:09Z</time>
      </trkpt>
      <trkpt lat="45.99758" lon="4.75222">
        <ele>175</ele>
        <time>2018-01-23T11:37:10Z</time>
      </trkpt>
      <trkpt lat="45.99752" lon="4.75225">
        <ele>175</ele>
        <time>2018-01-23T11:37:11Z</time>
      </trkpt>
      <trkpt lat="45.99747" lon="4.75229">
        <ele>175</ele>
        <time>2018-01-23T11:37:12Z</time>
      </trkpt>
      <trkpt lat="45.99741" lon="4.75232">
        <ele>175</ele>
        <time>2018-01-23T11:37:13Z</time>
      </trkpt>
      <trkpt lat="45.99736" lon="4.75235">
        <ele>175</ele>
        <time>2018-01-23T11:37:14Z</time>
      </trkpt>
      <trkpt lat="45.99731" lon="4.75238">
        <ele>175</ele>
        <time>2018-01-23T11:37:15Z</time>
      </trkpt>
      <trkpt lat="45.99726" lon="4.75242">
        <ele>175</ele>
        <time>2018-01-23T11:37:16Z</time>
      </trkpt>
      <trkpt lat="45.9972" lon="4.75242">
        <ele>174</ele>
        <time>2018-01-23T11:37:17Z</time>
      </trkpt>
      <trkpt lat="45.99715" lon="4.75243">
        <ele>174</ele>
        <time>2018-01-23T11:37:18Z</time>
      </trkpt>
      <trkpt lat="45.99711" lon="4.75244">
        <ele>174</ele>
        <time>2018-01-23T11:37:19Z</time>
      </trkpt>
      <trkpt lat="45.99705" lon="4.75247">
        <ele>174</ele>
        <time>2018-01-23T11:37:20Z</time>
      </trkpt>
      <trkpt lat="45.997" lon="4.75252">
        <ele>176</ele>
        <time>2018-01-23T11:37:21Z</time>
      </trkpt>
      <trkpt lat="45.99695" lon="4.75255">
        <ele>176</ele>
        <time>2018-01-23T11:37:22Z</time>
      </trkpt>
      <trkpt lat="45.99689" lon="4.75258">
        <ele>176</ele>
        <time>2018-01-23T11:37:23Z</time>
      </trkpt>
      <trkpt lat="45.99683" lon="4.7526">
        <ele>175</ele>
        <time>2018-01-23T11:37:24Z</time>
      </trkpt>
      <trkpt lat="45.99678" lon="4.75262">
        <ele>175</ele>
        <time>2018-01-23T11:37:25Z</time>
      </trkpt>
      <trkpt lat="45.99671" lon="4.75266">
        <ele>175</ele>
        <time>2018-01-23T11:37:26Z</time>
      </trkpt>
      <trkpt lat="45.99664" lon="4.75268">
        <ele>174</ele>
        <time>2018-01-23T11:37:27Z</time>
      </trkpt>
      <trkpt lat="45.99658" lon="4.75269">
        <ele>174</ele>
        <time>2018-01-23T11:37:28Z</time>
      </trkpt>
      <trkpt lat="45.99653" lon="4.7527">
        <ele>174</ele>
        <time>2018-01-23T11:37:29Z</time>
      </trkpt>
      <trkpt lat="45.99648" lon="4.7527">
        <ele>174</ele>
        <time>2018-01-23T11:37:30Z</time>
      </trkpt>
      <trkpt lat="45.99642" lon="4.7527">
        <ele>174</ele>
        <time>2018-01-23T11:37:31Z</time>
      </trkpt>
      <trkpt lat="45.99638" lon="4.75269">
        <ele>174</ele>
        <time>2018-01-23T11:37:32Z</time>
      </trkpt>
      <trkpt lat="45.99633" lon="4.75267">
        <ele>174</ele>
        <time>2018-01-23T11:37:33Z</time>
      </trkpt>
      <trkpt lat="45.99628" lon="4.75265">
        <ele>174</ele>
        <time>2018-01-23T11:37:34Z</time>
      </trkpt>
      <trkpt lat="45.99623" lon="4.75265">
        <ele>174</ele>
        <time>2018-01-23T11:37:35Z</time>
      </trkpt>
      <trkpt lat="45.99618" lon="4.75266">
        <ele>174</ele>
        <time>2018-01-23T11:37:36Z</time>
      </trkpt>
      <trkpt lat="45.99614" lon="4.75266">
        <ele>173</ele>
        <time>2018-01-23T11:37:37Z</time>
      </trkpt>
      <trkpt lat="45.99605" lon="4.75267">
        <ele>173</ele>
        <time>2018-01-23T11:37:39Z</time>
      </trkpt>
      <trkpt lat="45.99601" lon="4.75268">
        <ele>173</ele>
        <time>2018-01-23T11:37:40Z</time>
      </trkpt>
      <trkpt lat="45.99595" lon="4.75268">
        <ele>173</ele>
        <time>2018-01-23T11:37:41Z</time>
      </trkpt>
      <trkpt lat="45.99591" lon="4.75265">
        <ele>173</ele>
        <time>2018-01-23T11:37:42Z</time>
      </trkpt>
      <trkpt lat="45.99587" lon="4.75262">
        <ele>173</ele>
        <time>2018-01-23T11:37:43Z</time>
      </trkpt>
      <trkpt lat="45.99582" lon="4.75259">
        <ele>172</ele>
        <time>2018-01-23T11:37:44Z</time>
      </trkpt>
      <trkpt lat="45.99577" lon="4.75258">
        <ele>172</ele>
        <time>2018-01-23T11:37:45Z</time>
      </trkpt>
      <trkpt lat="45.99571" lon="4.75258">
        <ele>172</ele>
        <time>2018-01-23T11:37:46Z</time>
      </trkpt>
      <trkpt lat="45.99567" lon="4.7526">
        <ele>172</ele>
        <time>2018-01-23T11:37:47Z</time>
      </trkpt>
      <trkpt lat="45.99561" lon="4.75265">
        <ele>172</ele>
        <time>2018-01-23T11:37:48Z</time>
      </trkpt>
      <trkpt lat="45.99555" lon="4.75268">
        <ele>172</ele>
        <time>2018-01-23T11:37:49Z</time>
      </trkpt>
      <trkpt lat="45.99552" lon="4.75273">
        <ele>172</ele>
        <time>2018-01-23T11:37:50Z</time>
      </trkpt>
      <trkpt lat="45.99546" lon="4.7528">
        <ele>172</ele>
        <time>2018-01-23T11:37:51Z</time>
      </trkpt>
      <trkpt lat="45.99542" lon="4.75285">
        <ele>172</ele>
        <time>2018-01-23T11:37:52Z</time>
      </trkpt>
      <trkpt lat="45.99537" lon="4.75288">
        <ele>172</ele>
        <time>2018-01-23T11:37:53Z</time>
      </trkpt>
      <trkpt lat="45.99529" lon="4.7529">
        <ele>172</ele>
        <time>2018-01-23T11:37:54Z</time>
      </trkpt>
      <trkpt lat="45.99523" lon="4.75291">
        <ele>172</ele>
        <time>2018-01-23T11:37:55Z</time>
      </trkpt>
      <trkpt lat="45.99517" lon="4.75292">
        <ele>172</ele>
        <time>2018-01-23T11:37:56Z</time>
      </trkpt>
      <trkpt lat="45.99513" lon="4.75294">
        <ele>172</ele>
        <time>2018-01-23T11:37:57Z</time>
      </trkpt>
      <trkpt lat="45.99507" lon="4.75296">
        <ele>172</ele>
        <time>2018-01-23T11:37:58Z</time>
      </trkpt>
      <trkpt lat="45.99502" lon="4.75297">
        <ele>172</ele>
        <time>2018-01-23T11:37:59Z</time>
      </trkpt>
      <trkpt lat="45.99496" lon="4.75298">
        <ele>171</ele>
        <time>2018-01-23T11:38:00Z</time>
      </trkpt>
      <trkpt lat="45.9949" lon="4.75299">
        <ele>171</ele>
        <time>2018-01-23T11:38:01Z</time>
      </trkpt>
      <trkpt lat="45.99486" lon="4.753">
        <ele>171</ele>
        <time>2018-01-23T11:38:02Z</time>
      </trkpt>
      <trkpt lat="45.9948" lon="4.75302">
        <ele>171</ele>
        <time>2018-01-23T11:38:03Z</time>
      </trkpt>
      <trkpt lat="45.99474" lon="4.75303">
        <ele>171</ele>
        <time>2018-01-23T11:38:04Z</time>
      </trkpt>
      <trkpt lat="45.99468" lon="4.75305">
        <ele>171</ele>
        <time>2018-01-23T11:38:05Z</time>
      </trkpt>
      <trkpt lat="45.99462" lon="4.75307">
        <ele>171</ele>
        <time>2018-01-23T11:38:06Z</time>
      </trkpt>
      <trkpt lat="45.99455" lon="4.75307">
        <ele>171</ele>
        <time>2018-01-23T11:38:07Z</time>
      </trkpt>
      <trkpt lat="45.99449" lon="4.75307">
        <ele>171</ele>
        <time>2018-01-23T11:38:08Z</time>
      </trkpt>
      <trkpt lat="45.99443" lon="4.75308">
        <ele>171</ele>
        <time>2018-01-23T11:38:09Z</time>
      </trkpt>
      <trkpt lat="45.99437" lon="4.75307">
        <ele>171</ele>
        <time>2018-01-23T11:38:10Z</time>
      </trkpt>
      <trkpt lat="45.9943" lon="4.75309">
        <ele>171</ele>
        <time>2018-01-23T11:38:11Z</time>
      </trkpt>
      <trkpt lat="45.99423" lon="4.7531">
        <ele>171</ele>
        <time>2018-01-23T11:38:12Z</time>
      </trkpt>
      <trkpt lat="45.99417" lon="4.75312">
        <ele>171</ele>
        <time>2018-01-23T11:38:13Z</time>
      </trkpt>
      <trkpt lat="45.9941" lon="4.75313">
        <ele>170</ele>
        <time>2018-01-23T11:38:14Z</time>
      </trkpt>
      <trkpt lat="45.99405" lon="4.75315">
        <ele>170</ele>
        <time>2018-01-23T11:38:15Z</time>
      </trkpt>
      <trkpt lat="45.99399" lon="4.75316">
        <ele>170</ele>
        <time>2018-01-23T11:38:16Z</time>
      </trkpt>
      <trkpt lat="45.99394" lon="4.7532">
        <ele>170</ele>
        <time>2018-01-23T11:38:17Z</time>
      </trkpt>
      <trkpt lat="45.99389" lon="4.75324">
        <ele>170</ele>
        <time>2018-01-23T11:38:18Z</time>
      </trkpt>
      <trkpt lat="45.99385" lon="4.75328">
        <ele>170</ele>
        <time>2018-01-23T11:38:19Z</time>
      </trkpt>
      <trkpt lat="45.99379" lon="4.75333">
        <ele>170</ele>
        <time>2018-01-23T11:38:20Z</time>
      </trkpt>
      <trkpt lat="45.99375" lon="4.75339">
        <ele>171</ele>
        <time>2018-01-23T11:38:21Z</time>
      </trkpt>
      <trkpt lat="45.9937" lon="4.75348">
        <ele>172</ele>
        <time>2018-01-23T11:38:22Z</time>
      </trkpt>
      <trkpt lat="45.99366" lon="4.75356">
        <ele>172</ele>
        <time>2018-01-23T11:38:23Z</time>
      </trkpt>
      <trkpt lat="45.99363" lon="4.75362">
        <ele>172</ele>
        <time>2018-01-23T11:38:24Z</time>
      </trkpt>
      <trkpt lat="45.99359" lon="4.75369">
        <ele>172</ele>
        <time>2018-01-23T11:38:25Z</time>
      </trkpt>
      <trkpt lat="45.99356" lon="4.75376">
        <ele>172</ele>
        <time>2018-01-23T11:38:26Z</time>
      </trkpt>
      <trkpt lat="45.99352" lon="4.75383">
        <ele>172</ele>
        <time>2018-01-23T11:38:27Z</time>
      </trkpt>
      <trkpt lat="45.99349" lon="4.75389">
        <ele>172</ele>
        <time>2018-01-23T11:38:28Z</time>
      </trkpt>
      <trkpt lat="45.99346" lon="4.75395">
        <ele>173</ele>
        <time>2018-01-23T11:38:29Z</time>
      </trkpt>
      <trkpt lat="45.99343" lon="4.75401">
        <ele>173</ele>
        <time>2018-01-23T11:38:30Z</time>
      </trkpt>
      <trkpt lat="45.99341" lon="4.75407">
        <ele>173</ele>
        <time>2018-01-23T11:38:31Z</time>
      </trkpt>
      <trkpt lat="45.9934" lon="4.75415">
        <ele>173</ele>
        <time>2018-01-23T11:38:32Z</time>
      </trkpt>
      <trkpt lat="45.99338" lon="4.75422">
        <ele>174</ele>
        <time>2018-01-23T11:38:33Z</time>
      </trkpt>
      <trkpt lat="45.99337" lon="4.7543">
        <ele>175</ele>
        <time>2018-01-23T11:38:34Z</time>
      </trkpt>
      <trkpt lat="45.99334" lon="4.75438">
        <ele>176</ele>
        <time>2018-01-23T11:38:35Z</time>
      </trkpt>
      <trkpt lat="45.99332" lon="4.75446">
        <ele>173</ele>
        <time>2018-01-23T11:38:36Z</time>
      </trkpt>
      <trkpt lat="45.99331" lon="4.75454">
        <ele>174</ele>
        <time>2018-01-23T11:38:37Z</time>
      </trkpt>
      <trkpt lat="45.99327" lon="4.7546">
        <ele>174</ele>
        <time>2018-01-23T11:38:38Z</time>
      </trkpt>
      <trkpt lat="45.99325" lon="4.75467">
        <ele>174</ele>
        <time>2018-01-23T11:38:39Z</time>
      </trkpt>
      <trkpt lat="45.99321" lon="4.75474">
        <ele>174</ele>
        <time>2018-01-23T11:38:40Z</time>
      </trkpt>
      <trkpt lat="45.99317" lon="4.75481">
        <ele>174</ele>
        <time>2018-01-23T11:38:41Z</time>
      </trkpt>
      <trkpt lat="45.99312" lon="4.75486">
        <ele>174</ele>
        <time>2018-01-23T11:38:42Z</time>
      </trkpt>
      <trkpt lat="45.99308" lon="4.75491">
        <ele>174</ele>
        <time>2018-01-23T11:38:43Z</time>
      </trkpt>
      <trkpt lat="45.99304" lon="4.75497">
        <ele>174</ele>
        <time>2018-01-23T11:38:44Z</time>
      </trkpt>
      <trkpt lat="45.99301" lon="4.75503">
        <ele>177</ele>
        <time>2018-01-23T11:38:45Z</time>
      </trkpt>
      <trkpt lat="45.99296" lon="4.75508">
        <ele>176</ele>
        <time>2018-01-23T11:38:46Z</time>
      </trkpt>
      <trkpt lat="45.99292" lon="4.75513">
        <ele>176</ele>
        <time>2018-01-23T11:38:47Z</time>
      </trkpt>
      <trkpt lat="45.99288" lon="4.75519">
        <ele>176</ele>
        <time>2018-01-23T11:38:48Z</time>
      </trkpt>
      <trkpt lat="45.99284" lon="4.75524">
        <ele>176</ele>
        <time>2018-01-23T11:38:49Z</time>
      </trkpt>
      <trkpt lat="45.9928" lon="4.75528">
        <ele>176</ele>
        <time>2018-01-23T11:38:50Z</time>
      </trkpt>
      <trkpt lat="45.99277" lon="4.75531">
        <ele>176</ele>
        <time>2018-01-23T11:38:51Z</time>
      </trkpt>
      <trkpt lat="45.99272" lon="4.75535">
        <ele>176</ele>
        <time>2018-01-23T11:38:52Z</time>
      </trkpt>
      <trkpt lat="45.99267" lon="4.7554">
        <ele>176</ele>
        <time>2018-01-23T11:38:53Z</time>
      </trkpt>
      <trkpt lat="45.99261" lon="4.75543">
        <ele>176</ele>
        <time>2018-01-23T11:38:54Z</time>
      </trkpt>
      <trkpt lat="45.99256" lon="4.75546">
        <ele>176</ele>
        <time>2018-01-23T11:38:55Z</time>
      </trkpt>
      <trkpt lat="45.99252" lon="4.7555">
        <ele>177</ele>
        <time>2018-01-23T11:38:56Z</time>
      </trkpt>
      <trkpt lat="45.99249" lon="4.75553">
        <ele>175</ele>
        <time>2018-01-23T11:38:57Z</time>
      </trkpt>
      <trkpt lat="45.99244" lon="4.75556">
        <ele>175</ele>
        <time>2018-01-23T11:38:58Z</time>
      </trkpt>
      <trkpt lat="45.99237" lon="4.75559">
        <ele>175</ele>
        <time>2018-01-23T11:38:59Z</time>
      </trkpt>
      <trkpt lat="45.99232" lon="4.75563">
        <ele>175</ele>
        <time>2018-01-23T11:39:00Z</time>
      </trkpt>
      <trkpt lat="45.99227" lon="4.75567">
        <ele>175</ele>
        <time>2018-01-23T11:39:01Z</time>
      </trkpt>
      <trkpt lat="45.99221" lon="4.7557">
        <ele>175</ele>
        <time>2018-01-23T11:39:02Z</time>
      </trkpt>
      <trkpt lat="45.99215" lon="4.75574">
        <ele>175</ele>
        <time>2018-01-23T11:39:03Z</time>
      </trkpt>
      <trkpt lat="45.9921" lon="4.75577">
        <ele>175</ele>
        <time>2018-01-23T11:39:04Z</time>
      </trkpt>
      <trkpt lat="45.99204" lon="4.75583">
        <ele>175</ele>
        <time>2018-01-23T11:39:06Z</time>
      </trkpt>
      <trkpt lat="45.99199" lon="4.75587">
        <ele>178</ele>
        <time>2018-01-23T11:39:07Z</time>
      </trkpt>
      <trkpt lat="45.99194" lon="4.75591">
        <ele>178</ele>
        <time>2018-01-23T11:39:08Z</time>
      </trkpt>
      <trkpt lat="45.99189" lon="4.75594">
        <ele>178</ele>
        <time>2018-01-23T11:39:09Z</time>
      </trkpt>
      <trkpt lat="45.99184" lon="4.75597">
        <ele>177</ele>
        <time>2018-01-23T11:39:10Z</time>
      </trkpt>
      <trkpt lat="45.99178" lon="4.75599">
        <ele>177</ele>
        <time>2018-01-23T11:39:11Z</time>
      </trkpt>
      <trkpt lat="45.99173" lon="4.75601">
        <ele>177</ele>
        <time>2018-01-23T11:39:12Z</time>
      </trkpt>
      <trkpt lat="45.99168" lon="4.75602">
        <ele>177</ele>
        <time>2018-01-23T11:39:13Z</time>
      </trkpt>
      <trkpt lat="45.99163" lon="4.75604">
        <ele>176</ele>
        <time>2018-01-23T11:39:14Z</time>
      </trkpt>
      <trkpt lat="45.99157" lon="4.75605">
        <ele>176</ele>
        <time>2018-01-23T11:39:15Z</time>
      </trkpt>
      <trkpt lat="45.99152" lon="4.75606">
        <ele>176</ele>
        <time>2018-01-23T11:39:16Z</time>
      </trkpt>
      <trkpt lat="45.99148" lon="4.75607">
        <ele>176</ele>
        <time>2018-01-23T11:39:17Z</time>
      </trkpt>
      <trkpt lat="45.99143" lon="4.75607">
        <ele>176</ele>
        <time>2018-01-23T11:39:18Z</time>
      </trkpt>
      <trkpt lat="45.99137" lon="4.75607">
        <ele>176</ele>
        <time>2018-01-23T11:39:19Z</time>
      </trkpt>
      <trkpt lat="45.9913" lon="4.75613">
        <ele>177</ele>
        <time>2018-01-23T11:39:20Z</time>
      </trkpt>
      <trkpt lat="45.99125" lon="4.75617">
        <ele>177</ele>
        <time>2018-01-23T11:39:21Z</time>
      </trkpt>
      <trkpt lat="45.99122" lon="4.75622">
        <ele>177</ele>
        <time>2018-01-23T11:39:22Z</time>
      </trkpt>
      <trkpt lat="45.99118" lon="4.75628">
        <ele>177</ele>
        <time>2018-01-23T11:39:23Z</time>
      </trkpt>
      <trkpt lat="45.99115" lon="4.75635">
        <ele>177</ele>
        <time>2018-01-23T11:39:24Z</time>
      </trkpt>
      <trkpt lat="45.99111" lon="4.75641">
        <ele>178</ele>
        <time>2018-01-23T11:39:25Z</time>
      </trkpt>
      <trkpt lat="45.99104" lon="4.75647">
        <ele>178</ele>
        <time>2018-01-23T11:39:27Z</time>
      </trkpt>
      <trkpt lat="45.99097" lon="4.7565">
        <ele>178</ele>
        <time>2018-01-23T11:39:28Z</time>
      </trkpt>
      <trkpt lat="45.99089" lon="4.75652">
        <ele>178</ele>
        <time>2018-01-23T11:39:29Z</time>
      </trkpt>
      <trkpt lat="45.99082" lon="4.75653">
        <ele>178</ele>
        <time>2018-01-23T11:39:30Z</time>
      </trkpt>
      <trkpt lat="45.99076" lon="4.75652">
        <ele>178</ele>
        <time>2018-01-23T11:39:31Z</time>
      </trkpt>
      <trkpt lat="45.9907" lon="4.75654">
        <ele>178</ele>
        <time>2018-01-23T11:39:32Z</time>
      </trkpt>
      <trkpt lat="45.99066" lon="4.75652">
        <ele>178</ele>
        <time>2018-01-23T11:39:33Z</time>
      </trkpt>
      <trkpt lat="45.9906" lon="4.75652">
        <ele>178</ele>
        <time>2018-01-23T11:39:34Z</time>
      </trkpt>
      <trkpt lat="45.99053" lon="4.75652">
        <ele>178</ele>
        <time>2018-01-23T11:39:35Z</time>
      </trkpt>
      <trkpt lat="45.99047" lon="4.75652">
        <ele>178</ele>
        <time>2018-01-23T11:39:36Z</time>
      </trkpt>
      <trkpt lat="45.99043" lon="4.75653">
        <ele>178</ele>
        <time>2018-01-23T11:39:37Z</time>
      </trkpt>
      <trkpt lat="45.99034" lon="4.75653">
        <ele>178</ele>
        <time>2018-01-23T11:39:38Z</time>
      </trkpt>
      <trkpt lat="45.99027" lon="4.75652">
        <ele>178</ele>
        <time>2018-01-23T11:39:39Z</time>
      </trkpt>
      <trkpt lat="45.99019" lon="4.75651">
        <ele>178</ele>
        <time>2018-01-23T11:39:40Z</time>
      </trkpt>
      <trkpt lat="45.99013" lon="4.75652">
        <ele>178</ele>
        <time>2018-01-23T11:39:41Z</time>
      </trkpt>
      <trkpt lat="45.99008" lon="4.75652">
        <ele>178</ele>
        <time>2018-01-23T11:39:42Z</time>
      </trkpt>
      <trkpt lat="45.99004" lon="4.75651">
        <ele>178</ele>
        <time>2018-01-23T11:39:43Z</time>
      </trkpt>
      <trkpt lat="45.98998" lon="4.75653">
        <ele>178</ele>
        <time>2018-01-23T11:39:44Z</time>
      </trkpt>
      <trkpt lat="45.98992" lon="4.75654">
        <ele>178</ele>
        <time>2018-01-23T11:39:45Z</time>
      </trkpt>
      <trkpt lat="45.98985" lon="4.75655">
        <ele>178</ele>
        <time>2018-01-23T11:39:46Z</time>
      </trkpt>
      <trkpt lat="45.98977" lon="4.75654">
        <ele>177</ele>
        <time>2018-01-23T11:39:47Z</time>
      </trkpt>
      <trkpt lat="45.9897" lon="4.75658">
        <ele>177</ele>
        <time>2018-01-23T11:39:48Z</time>
      </trkpt>
      <trkpt lat="45.98964" lon="4.75661">
        <ele>177</ele>
        <time>2018-01-23T11:39:49Z</time>
      </trkpt>
      <trkpt lat="45.98959" lon="4.75664">
        <ele>177</ele>
        <time>2018-01-23T11:39:50Z</time>
      </trkpt>
      <trkpt lat="45.98954" lon="4.75668">
        <ele>181</ele>
        <time>2018-01-23T11:39:51Z</time>
      </trkpt>
      <trkpt lat="45.98948" lon="4.75669">
        <ele>181</ele>
        <time>2018-01-23T11:39:52Z</time>
      </trkpt>
      <trkpt lat="45.98943" lon="4.75672">
        <ele>180</ele>
        <time>2018-01-23T11:39:53Z</time>
      </trkpt>
      <trkpt lat="45.98937" lon="4.75675">
        <ele>180</ele>
        <time>2018-01-23T11:39:54Z</time>
      </trkpt>
      <trkpt lat="45.9893" lon="4.7568">
        <ele>180</ele>
        <time>2018-01-23T11:39:55Z</time>
      </trkpt>
      <trkpt lat="45.98924" lon="4.75682">
        <ele>180</ele>
        <time>2018-01-23T11:39:56Z</time>
      </trkpt>
      <trkpt lat="45.98918" lon="4.75684">
        <ele>180</ele>
        <time>2018-01-23T11:39:57Z</time>
      </trkpt>
      <trkpt lat="45.98912" lon="4.75687">
        <ele>179</ele>
        <time>2018-01-23T11:39:58Z</time>
      </trkpt>
      <trkpt lat="45.98906" lon="4.7569">
        <ele>179</ele>
        <time>2018-01-23T11:39:59Z</time>
      </trkpt>
      <trkpt lat="45.98901" lon="4.75694">
        <ele>179</ele>
        <time>2018-01-23T11:40:00Z</time>
      </trkpt>
      <trkpt lat="45.98896" lon="4.75696">
        <ele>180</ele>
        <time>2018-01-23T11:40:01Z</time>
      </trkpt>
      <trkpt lat="45.9889" lon="4.757">
        <ele>180</ele>
        <time>2018-01-23T11:40:02Z</time>
      </trkpt>
      <trkpt lat="45.98884" lon="4.75702">
        <ele>180</ele>
        <time>2018-01-23T11:40:03Z</time>
      </trkpt>
      <trkpt lat="45.98878" lon="4.75705">
        <ele>180</ele>
        <time>2018-01-23T11:40:04Z</time>
      </trkpt>
      <trkpt lat="45.98873" lon="4.75707">
        <ele>180</ele>
        <time>2018-01-23T11:40:05Z</time>
      </trkpt>
      <trkpt lat="45.98868" lon="4.75709">
        <ele>180</ele>
        <time>2018-01-23T11:40:06Z</time>
      </trkpt>
      <trkpt lat="45.98862" lon="4.75711">
        <ele>180</ele>
        <time>2018-01-23T11:40:07Z</time>
      </trkpt>
      <trkpt lat="45.98856" lon="4.75709">
        <ele>180</ele>
        <time>2018-01-23T11:40:08Z</time>
      </trkpt>
      <trkpt lat="45.98848" lon="4.75707">
        <ele>180</ele>
        <time>2018-01-23T11:40:09Z</time>
      </trkpt>
      <trkpt lat="45.98843" lon="4.75707">
        <ele>180</ele>
        <time>2018-01-23T11:40:10Z</time>
      </trkpt>
      <trkpt lat="45.98836" lon="4.75708">
        <ele>180</ele>
        <time>2018-01-23T11:40:11Z</time>
      </trkpt>
      <trkpt lat="45.98831" lon="4.75709">
        <ele>179</ele>
        <time>2018-01-23T11:40:12Z</time>
      </trkpt>
      <trkpt lat="45.98825" lon="4.7571">
        <ele>179</ele>
        <time>2018-01-23T11:40:13Z</time>
      </trkpt>
      <trkpt lat="45.98819" lon="4.75711">
        <ele>179</ele>
        <time>2018-01-23T11:40:14Z</time>
      </trkpt>
      <trkpt lat="45.98814" lon="4.75711">
        <ele>178</ele>
        <time>2018-01-23T11:40:15Z</time>
      </trkpt>
      <trkpt lat="45.98809" lon="4.75712">
        <ele>178</ele>
        <time>2018-01-23T11:40:16Z</time>
      </trkpt>
      <trkpt lat="45.98804" lon="4.75713">
        <ele>178</ele>
        <time>2018-01-23T11:40:17Z</time>
      </trkpt>
      <trkpt lat="45.98799" lon="4.75715">
        <ele>178</ele>
        <time>2018-01-23T11:40:18Z</time>
      </trkpt>
      <trkpt lat="45.98793" lon="4.75715">
        <ele>178</ele>
        <time>2018-01-23T11:40:19Z</time>
      </trkpt>
      <trkpt lat="45.98788" lon="4.75715">
        <ele>178</ele>
        <time>2018-01-23T11:40:20Z</time>
      </trkpt>
      <trkpt lat="45.98783" lon="4.75715">
        <ele>178</ele>
        <time>2018-01-23T11:40:21Z</time>
      </trkpt>
      <trkpt lat="45.98778" lon="4.75714">
        <ele>178</ele>
        <time>2018-01-23T11:40:22Z</time>
      </trkpt>
      <trkpt lat="45.9877" lon="4.75712">
        <ele>178</ele>
        <time>2018-01-23T11:40:24Z</time>
      </trkpt>
      <trkpt lat="45.98765" lon="4.75713">
        <ele>178</ele>
        <time>2018-01-23T11:40:25Z</time>
      </trkpt>
      <trkpt lat="45.9876" lon="4.75717">
        <ele>178</ele>
        <time>2018-01-23T11:40:26Z</time>
      </trkpt>
      <trkpt lat="45.98755" lon="4.75719">
        <ele>178</ele>
        <time>2018-01-23T11:40:27Z</time>
      </trkpt>
      <trkpt lat="45.98748" lon="4.75723">
        <ele>177</ele>
        <time>2018-01-23T11:40:29Z</time>
      </trkpt>
      <trkpt lat="45.98744" lon="4.75724">
        <ele>177</ele>
        <time>2018-01-23T11:40:30Z</time>
      </trkpt>
      <trkpt lat="45.98737" lon="4.75723">
        <ele>177</ele>
        <time>2018-01-23T11:40:31Z</time>
      </trkpt>
      <trkpt lat="45.9873" lon="4.75723">
        <ele>177</ele>
        <time>2018-01-23T11:40:32Z</time>
      </trkpt>
      <trkpt lat="45.98723" lon="4.75723">
        <ele>177</ele>
        <time>2018-01-23T11:40:33Z</time>
      </trkpt>
      <trkpt lat="45.98717" lon="4.75722">
        <ele>177</ele>
        <time>2018-01-23T11:40:34Z</time>
      </trkpt>
      <trkpt lat="45.98711" lon="4.75722">
        <ele>177</ele>
        <time>2018-01-23T11:40:35Z</time>
      </trkpt>
      <trkpt lat="45.98706" lon="4.75722">
        <ele>177</ele>
        <time>2018-01-23T11:40:36Z</time>
      </trkpt>
      <trkpt lat="45.98701" lon="4.75722">
        <ele>177</ele>
        <time>2018-01-23T11:40:37Z</time>
      </trkpt>
      <trkpt lat="45.98694" lon="4.75722">
        <ele>177</ele>
        <time>2018-01-23T11:40:38Z</time>
      </trkpt>
      <trkpt lat="45.98689" lon="4.75722">
        <ele>177</ele>
        <time>2018-01-23T11:40:39Z</time>
      </trkpt>
      <trkpt lat="45.98683" lon="4.75725">
        <ele>177</ele>
        <time>2018-01-23T11:40:40Z</time>
      </trkpt>
      <trkpt lat="45.98678" lon="4.75723">
        <ele>177</ele>
        <time>2018-01-23T11:40:41Z</time>
      </trkpt>
      <trkpt lat="45.98672" lon="4.75722">
        <ele>177</ele>
        <time>2018-01-23T11:40:42Z</time>
      </trkpt>
      <trkpt lat="45.98665" lon="4.75723">
        <ele>176</ele>
        <time>2018-01-23T11:40:43Z</time>
      </trkpt>
      <trkpt lat="45.98662" lon="4.75721">
        <ele>176</ele>
        <time>2018-01-23T11:40:44Z</time>
      </trkpt>
      <trkpt lat="45.98657" lon="4.75725">
        <ele>176</ele>
        <time>2018-01-23T11:40:46Z</time>
      </trkpt>
      <trkpt lat="45.98651" lon="4.75723">
        <ele>176</ele>
        <time>2018-01-23T11:40:47Z</time>
      </trkpt>
      <trkpt lat="45.98644" lon="4.75725">
        <ele>175</ele>
        <time>2018-01-23T11:40:48Z</time>
      </trkpt>
      <trkpt lat="45.9864" lon="4.75723">
        <ele>175</ele>
        <time>2018-01-23T11:40:49Z</time>
      </trkpt>
      <trkpt lat="45.98634" lon="4.75724">
        <ele>175</ele>
        <time>2018-01-23T11:40:50Z</time>
      </trkpt>
      <trkpt lat="45.98628" lon="4.75725">
        <ele>175</ele>
        <time>2018-01-23T11:40:51Z</time>
      </trkpt>
      <trkpt lat="45.98622" lon="4.75726">
        <ele>175</ele>
        <time>2018-01-23T11:40:52Z</time>
      </trkpt>
      <trkpt lat="45.98613" lon="4.75728">
        <ele>175</ele>
        <time>2018-01-23T11:40:53Z</time>
      </trkpt>
      <trkpt lat="45.98608" lon="4.75729">
        <ele>175</ele>
        <time>2018-01-23T11:40:54Z</time>
      </trkpt>
      <trkpt lat="45.98603" lon="4.75726">
        <ele>174</ele>
        <time>2018-01-23T11:40:55Z</time>
      </trkpt>
      <trkpt lat="45.98603" lon="4.75715">
        <ele>175</ele>
        <time>2018-01-23T11:40:59Z</time>
      </trkpt>
      <trkpt lat="45.98598" lon="4.75711">
        <ele>175</ele>
        <time>2018-01-23T11:41:00Z</time>
      </trkpt>
      <trkpt lat="45.9859" lon="4.75713">
        <ele>174</ele>
        <time>2018-01-23T11:41:01Z</time>
      </trkpt>
      <trkpt lat="45.98584" lon="4.75713">
        <ele>174</ele>
        <time>2018-01-23T11:41:02Z</time>
      </trkpt>
      <trkpt lat="45.98578" lon="4.75713">
        <ele>174</ele>
        <time>2018-01-23T11:41:03Z</time>
      </trkpt>
      <trkpt lat="45.98573" lon="4.75714">
        <ele>174</ele>
        <time>2018-01-23T11:41:04Z</time>
      </trkpt>
      <trkpt lat="45.98567" lon="4.75711">
        <ele>174</ele>
        <time>2018-01-23T11:41:05Z</time>
      </trkpt>
      <trkpt lat="45.9856" lon="4.7571">
        <ele>174</ele>
        <time>2018-01-23T11:41:06Z</time>
      </trkpt>
      <trkpt lat="45.98555" lon="4.75708">
        <ele>174</ele>
        <time>2018-01-23T11:41:07Z</time>
      </trkpt>
      <trkpt lat="45.98551" lon="4.75707">
        <ele>174</ele>
        <time>2018-01-23T11:41:08Z</time>
      </trkpt>
      <trkpt lat="45.98542" lon="4.75707">
        <ele>174</ele>
        <time>2018-01-23T11:41:10Z</time>
      </trkpt>
      <trkpt lat="45.98536" lon="4.75707">
        <ele>174</ele>
        <time>2018-01-23T11:41:11Z</time>
      </trkpt>
      <trkpt lat="45.98532" lon="4.75706">
        <ele>174</ele>
        <time>2018-01-23T11:41:12Z</time>
      </trkpt>
      <trkpt lat="45.98525" lon="4.75703">
        <ele>174</ele>
        <time>2018-01-23T11:41:13Z</time>
      </trkpt>
      <trkpt lat="45.9852" lon="4.75702">
        <ele>174</ele>
        <time>2018-01-23T11:41:14Z</time>
      </trkpt>
      <trkpt lat="45.98513" lon="4.75699">
        <ele>174</ele>
        <time>2018-01-23T11:41:15Z</time>
      </trkpt>
      <trkpt lat="45.98507" lon="4.75698">
        <ele>174</ele>
        <time>2018-01-23T11:41:16Z</time>
      </trkpt>
      <trkpt lat="45.98501" lon="4.75697">
        <ele>174</ele>
        <time>2018-01-23T11:41:17Z</time>
      </trkpt>
      <trkpt lat="45.98495" lon="4.75696">
        <ele>174</ele>
        <time>2018-01-23T11:41:18Z</time>
      </trkpt>
      <trkpt lat="45.98489" lon="4.75696">
        <ele>174</ele>
        <time>2018-01-23T11:41:19Z</time>
      </trkpt>
      <trkpt lat="45.98482" lon="4.75693">
        <ele>174</ele>
        <time>2018-01-23T11:41:20Z</time>
      </trkpt>
      <trkpt lat="45.98476" lon="4.75692">
        <ele>174</ele>
        <time>2018-01-23T11:41:21Z</time>
      </trkpt>
      <trkpt lat="45.98471" lon="4.75692">
        <ele>174</ele>
        <time>2018-01-23T11:41:22Z</time>
      </trkpt>
      <trkpt lat="45.98464" lon="4.75692">
        <ele>174</ele>
        <time>2018-01-23T11:41:23Z</time>
      </trkpt>
      <trkpt lat="45.98459" lon="4.75692">
        <ele>174</ele>
        <time>2018-01-23T11:41:24Z</time>
      </trkpt>
      <trkpt lat="45.98454" lon="4.75691">
        <ele>175</ele>
        <time>2018-01-23T11:41:25Z</time>
      </trkpt>
      <trkpt lat="45.9845" lon="4.7569">
        <ele>175</ele>
        <time>2018-01-23T11:41:26Z</time>
      </trkpt>
      <trkpt lat="45.98444" lon="4.7569">
        <ele>175</ele>
        <time>2018-01-23T11:41:27Z</time>
      </trkpt>
      <trkpt lat="45.98439" lon="4.75689">
        <ele>175</ele>
        <time>2018-01-23T11:41:28Z</time>
      </trkpt>
      <trkpt lat="45.98434" lon="4.75688">
        <ele>175</ele>
        <time>2018-01-23T11:41:29Z</time>
      </trkpt>
      <trkpt lat="45.98426" lon="4.7569">
        <ele>175</ele>
        <time>2018-01-23T11:41:30Z</time>
      </trkpt>
      <trkpt lat="45.98421" lon="4.75689">
        <ele>175</ele>
        <time>2018-01-23T11:41:31Z</time>
      </trkpt>
      <trkpt lat="45.98415" lon="4.75687">
        <ele>175</ele>
        <time>2018-01-23T11:41:32Z</time>
      </trkpt>
      <trkpt lat="45.9841" lon="4.75686">
        <ele>175</ele>
        <time>2018-01-23T11:41:33Z</time>
      </trkpt>
      <trkpt lat="45.98406" lon="4.75683">
        <ele>175</ele>
        <time>2018-01-23T11:41:34Z</time>
      </trkpt>
      <trkpt lat="45.98399" lon="4.75688">
        <ele>174</ele>
        <time>2018-01-23T11:41:35Z</time>
      </trkpt>
      <trkpt lat="45.98395" lon="4.75684">
        <ele>174</ele>
        <time>2018-01-23T11:41:36Z</time>
      </trkpt>
      <trkpt lat="45.98391" lon="4.75681">
        <ele>174</ele>
        <time>2018-01-23T11:41:37Z</time>
      </trkpt>
      <trkpt lat="45.98389" lon="4.75678">
        <ele>174</ele>
        <time>2018-01-23T11:41:38Z</time>
      </trkpt>
      <trkpt lat="45.98382" lon="4.75679">
        <ele>174</ele>
        <time>2018-01-23T11:41:39Z</time>
      </trkpt>
      <trkpt lat="45.98375" lon="4.75682">
        <ele>174</ele>
        <time>2018-01-23T11:41:40Z</time>
      </trkpt>
      <trkpt lat="45.98373" lon="4.75683">
        <ele>174</ele>
        <time>2018-01-23T11:41:41Z</time>
      </trkpt>
      <trkpt lat="45.98368" lon="4.75683">
        <ele>174</ele>
        <time>2018-01-23T11:41:42Z</time>
      </trkpt>
      <trkpt lat="45.98362" lon="4.75684">
        <ele>174</ele>
        <time>2018-01-23T11:41:43Z</time>
      </trkpt>
      <trkpt lat="45.98356" lon="4.75684">
        <ele>174</ele>
        <time>2018-01-23T11:41:44Z</time>
      </trkpt>
      <trkpt lat="45.9835" lon="4.75682">
        <ele>174</ele>
        <time>2018-01-23T11:41:45Z</time>
      </trkpt>
      <trkpt lat="45.98344" lon="4.75681">
        <ele>174</ele>
        <time>2018-01-23T11:41:46Z</time>
      </trkpt>
      <trkpt lat="45.98339" lon="4.7568">
        <ele>174</ele>
        <time>2018-01-23T11:41:47Z</time>
      </trkpt>
      <trkpt lat="45.98329" lon="4.75678">
        <ele>174</ele>
        <time>2018-01-23T11:41:48Z</time>
      </trkpt>
      <trkpt lat="45.98324" lon="4.75677">
        <ele>174</ele>
        <time>2018-01-23T11:41:49Z</time>
      </trkpt>
      <trkpt lat="45.98319" lon="4.75677">
        <ele>174</ele>
        <time>2018-01-23T11:41:50Z</time>
      </trkpt>
      <trkpt lat="45.98312" lon="4.75675">
        <ele>174</ele>
        <time>2018-01-23T11:41:52Z</time>
      </trkpt>
      <trkpt lat="45.98307" lon="4.75674">
        <ele>174</ele>
        <time>2018-01-23T11:41:53Z</time>
      </trkpt>
      <trkpt lat="45.98303" lon="4.75673">
        <ele>174</ele>
        <time>2018-01-23T11:41:54Z</time>
      </trkpt>
      <trkpt lat="45.98297" lon="4.75672">
        <ele>174</ele>
        <time>2018-01-23T11:41:55Z</time>
      </trkpt>
      <trkpt lat="45.98292" lon="4.75672">
        <ele>174</ele>
        <time>2018-01-23T11:41:56Z</time>
      </trkpt>
      <trkpt lat="45.98286" lon="4.75674">
        <ele>174</ele>
        <time>2018-01-23T11:41:57Z</time>
      </trkpt>
      <trkpt lat="45.98282" lon="4.75675">
        <ele>174</ele>
        <time>2018-01-23T11:41:58Z</time>
      </trkpt>
      <trkpt lat="45.98274" lon="4.75676">
        <ele>174</ele>
        <time>2018-01-23T11:41:59Z</time>
      </trkpt>
      <trkpt lat="45.98269" lon="4.75676">
        <ele>173</ele>
        <time>2018-01-23T11:42:00Z</time>
      </trkpt>
      <trkpt lat="45.98263" lon="4.75675">
        <ele>173</ele>
        <time>2018-01-23T11:42:01Z</time>
      </trkpt>
      <trkpt lat="45.98257" lon="4.75675">
        <ele>173</ele>
        <time>2018-01-23T11:42:02Z</time>
      </trkpt>
      <trkpt lat="45.98251" lon="4.75676">
        <ele>173</ele>
        <time>2018-01-23T11:42:03Z</time>
      </trkpt>
      <trkpt lat="45.98246" lon="4.75675">
        <ele>173</ele>
        <time>2018-01-23T11:42:04Z</time>
      </trkpt>
      <trkpt lat="45.9824" lon="4.75676">
        <ele>173</ele>
        <time>2018-01-23T11:42:05Z</time>
      </trkpt>
      <trkpt lat="45.98234" lon="4.75679">
        <ele>174</ele>
        <time>2018-01-23T11:42:06Z</time>
      </trkpt>
      <trkpt lat="45.98228" lon="4.75681">
        <ele>174</ele>
        <time>2018-01-23T11:42:07Z</time>
      </trkpt>
      <trkpt lat="45.98224" lon="4.75683">
        <ele>174</ele>
        <time>2018-01-23T11:42:08Z</time>
      </trkpt>
      <trkpt lat="45.98218" lon="4.75684">
        <ele>174</ele>
        <time>2018-01-23T11:42:09Z</time>
      </trkpt>
      <trkpt lat="45.98214" lon="4.75683">
        <ele>174</ele>
        <time>2018-01-23T11:42:10Z</time>
      </trkpt>
      <trkpt lat="45.98209" lon="4.75683">
        <ele>174</ele>
        <time>2018-01-23T11:42:11Z</time>
      </trkpt>
      <trkpt lat="45.98203" lon="4.75683">
        <ele>174</ele>
        <time>2018-01-23T11:42:12Z</time>
      </trkpt>
      <trkpt lat="45.98198" lon="4.75684">
        <ele>174</ele>
        <time>2018-01-23T11:42:13Z</time>
      </trkpt>
      <trkpt lat="45.98193" lon="4.75684">
        <ele>174</ele>
        <time>2018-01-23T11:42:14Z</time>
      </trkpt>
      <trkpt lat="45.98187" lon="4.75685">
        <ele>174</ele>
        <time>2018-01-23T11:42:15Z</time>
      </trkpt>
      <trkpt lat="45.98181" lon="4.75687">
        <ele>174</ele>
        <time>2018-01-23T11:42:16Z</time>
      </trkpt>
      <trkpt lat="45.98174" lon="4.75686">
        <ele>174</ele>
        <time>2018-01-23T11:42:17Z</time>
      </trkpt>
      <trkpt lat="45.98169" lon="4.75687">
        <ele>174</ele>
        <time>2018-01-23T11:42:18Z</time>
      </trkpt>
      <trkpt lat="45.98162" lon="4.75687">
        <ele>174</ele>
        <time>2018-01-23T11:42:19Z</time>
      </trkpt>
      <trkpt lat="45.98157" lon="4.75686">
        <ele>174</ele>
        <time>2018-01-23T11:42:20Z</time>
      </trkpt>
      <trkpt lat="45.98151" lon="4.75686">
        <ele>174</ele>
        <time>2018-01-23T11:42:21Z</time>
      </trkpt>
      <trkpt lat="45.98146" lon="4.75687">
        <ele>174</ele>
        <time>2018-01-23T11:42:22Z</time>
      </trkpt>
      <trkpt lat="45.98139" lon="4.75687">
        <ele>174</ele>
        <time>2018-01-23T11:42:23Z</time>
      </trkpt>
      <trkpt lat="45.98131" lon="4.75688">
        <ele>174</ele>
        <time>2018-01-23T11:42:24Z</time>
      </trkpt>
      <trkpt lat="45.98125" lon="4.75688">
        <ele>174</ele>
        <time>2018-01-23T11:42:25Z</time>
      </trkpt>
      <trkpt lat="45.98119" lon="4.75689">
        <ele>174</ele>
        <time>2018-01-23T11:42:26Z</time>
      </trkpt>
      <trkpt lat="45.98111" lon="4.75689">
        <ele>174</ele>
        <time>2018-01-23T11:42:27Z</time>
      </trkpt>
      <trkpt lat="45.98104" lon="4.7569">
        <ele>174</ele>
        <time>2018-01-23T11:42:28Z</time>
      </trkpt>
      <trkpt lat="45.98098" lon="4.75691">
        <ele>174</ele>
        <time>2018-01-23T11:42:29Z</time>
      </trkpt>
      <trkpt lat="45.98092" lon="4.75691">
        <ele>174</ele>
        <time>2018-01-23T11:42:30Z</time>
      </trkpt>
      <trkpt lat="45.98088" lon="4.75691">
        <ele>174</ele>
        <time>2018-01-23T11:42:31Z</time>
      </trkpt>
      <trkpt lat="45.98083" lon="4.75691">
        <ele>173</ele>
        <time>2018-01-23T11:42:32Z</time>
      </trkpt>
      <trkpt lat="45.98076" lon="4.75692">
        <ele>173</ele>
        <time>2018-01-23T11:42:33Z</time>
      </trkpt>
      <trkpt lat="45.98071" lon="4.75692">
        <ele>174</ele>
        <time>2018-01-23T11:42:34Z</time>
      </trkpt>
      <trkpt lat="45.98065" lon="4.75692">
        <ele>174</ele>
        <time>2018-01-23T11:42:35Z</time>
      </trkpt>
      <trkpt lat="45.9806" lon="4.75693">
        <ele>174</ele>
        <time>2018-01-23T11:42:36Z</time>
      </trkpt>
      <trkpt lat="45.98054" lon="4.75694">
        <ele>174</ele>
        <time>2018-01-23T11:42:37Z</time>
      </trkpt>
      <trkpt lat="45.98048" lon="4.75695">
        <ele>174</ele>
        <time>2018-01-23T11:42:38Z</time>
      </trkpt>
      <trkpt lat="45.98042" lon="4.75697">
        <ele>174</ele>
        <time>2018-01-23T11:42:39Z</time>
      </trkpt>
      <trkpt lat="45.98037" lon="4.75698">
        <ele>174</ele>
        <time>2018-01-23T11:42:40Z</time>
      </trkpt>
      <trkpt lat="45.98031" lon="4.757">
        <ele>174</ele>
        <time>2018-01-23T11:42:41Z</time>
      </trkpt>
      <trkpt lat="45.98024" lon="4.75701">
        <ele>174</ele>
        <time>2018-01-23T11:42:42Z</time>
      </trkpt>
      <trkpt lat="45.98019" lon="4.75703">
        <ele>174</ele>
        <time>2018-01-23T11:42:43Z</time>
      </trkpt>
      <trkpt lat="45.98013" lon="4.75705">
        <ele>174</ele>
        <time>2018-01-23T11:42:44Z</time>
      </trkpt>
      <trkpt lat="45.98007" lon="4.75707">
        <ele>174</ele>
        <time>2018-01-23T11:42:45Z</time>
      </trkpt>
      <trkpt lat="45.98002" lon="4.75708">
        <ele>174</ele>
        <time>2018-01-23T11:42:46Z</time>
      </trkpt>
      <trkpt lat="45.97996" lon="4.7571">
        <ele>174</ele>
        <time>2018-01-23T11:42:47Z</time>
      </trkpt>
      <trkpt lat="45.97988" lon="4.75712">
        <ele>174</ele>
        <time>2018-01-23T11:42:48Z</time>
      </trkpt>
      <trkpt lat="45.97984" lon="4.75715">
        <ele>174</ele>
        <time>2018-01-23T11:42:49Z</time>
      </trkpt>
      <trkpt lat="45.9798" lon="4.75716">
        <ele>174</ele>
        <time>2018-01-23T11:42:50Z</time>
      </trkpt>
      <trkpt lat="45.97975" lon="4.75719">
        <ele>174</ele>
        <time>2018-01-23T11:42:51Z</time>
      </trkpt>
      <trkpt lat="45.97971" lon="4.75721">
        <ele>174</ele>
        <time>2018-01-23T11:42:52Z</time>
      </trkpt>
      <trkpt lat="45.97965" lon="4.75722">
        <ele>174</ele>
        <time>2018-01-23T11:42:53Z</time>
      </trkpt>
      <trkpt lat="45.97958" lon="4.75724">
        <ele>174</ele>
        <time>2018-01-23T11:42:55Z</time>
      </trkpt>
      <trkpt lat="45.97954" lon="4.75722">
        <ele>174</ele>
        <time>2018-01-23T11:42:56Z</time>
      </trkpt>
      <trkpt lat="45.97948" lon="4.75721">
        <ele>174</ele>
        <time>2018-01-23T11:42:57Z</time>
      </trkpt>
      <trkpt lat="45.97943" lon="4.7572">
        <ele>174</ele>
        <time>2018-01-23T11:42:58Z</time>
      </trkpt>
      <trkpt lat="45.97937" lon="4.75716">
        <ele>174</ele>
        <time>2018-01-23T11:42:59Z</time>
      </trkpt>
      <trkpt lat="45.97931" lon="4.75714">
        <ele>174</ele>
        <time>2018-01-23T11:43:00Z</time>
      </trkpt>
      <trkpt lat="45.97926" lon="4.75711">
        <ele>174</ele>
        <time>2018-01-23T11:43:01Z</time>
      </trkpt>
      <trkpt lat="45.97921" lon="4.75708">
        <ele>174</ele>
        <time>2018-01-23T11:43:02Z</time>
      </trkpt>
      <trkpt lat="45.97915" lon="4.75704">
        <ele>175</ele>
        <time>2018-01-23T11:43:03Z</time>
      </trkpt>
      <trkpt lat="45.9791" lon="4.75701">
        <ele>175</ele>
        <time>2018-01-23T11:43:04Z</time>
      </trkpt>
      <trkpt lat="45.97904" lon="4.75698">
        <ele>175</ele>
        <time>2018-01-23T11:43:05Z</time>
      </trkpt>
      <trkpt lat="45.97899" lon="4.75694">
        <ele>175</ele>
        <time>2018-01-23T11:43:06Z</time>
      </trkpt>
      <trkpt lat="45.97891" lon="4.75691">
        <ele>175</ele>
        <time>2018-01-23T11:43:07Z</time>
      </trkpt>
      <trkpt lat="45.97887" lon="4.75689">
        <ele>175</ele>
        <time>2018-01-23T11:43:08Z</time>
      </trkpt>
      <trkpt lat="45.97881" lon="4.75686">
        <ele>175</ele>
        <time>2018-01-23T11:43:09Z</time>
      </trkpt>
      <trkpt lat="45.97876" lon="4.75682">
        <ele>175</ele>
        <time>2018-01-23T11:43:10Z</time>
      </trkpt>
      <trkpt lat="45.97872" lon="4.7568">
        <ele>175</ele>
        <time>2018-01-23T11:43:11Z</time>
      </trkpt>
      <trkpt lat="45.97866" lon="4.75678">
        <ele>175</ele>
        <time>2018-01-23T11:43:12Z</time>
      </trkpt>
      <trkpt lat="45.97861" lon="4.75677">
        <ele>175</ele>
        <time>2018-01-23T11:43:13Z</time>
      </trkpt>
      <trkpt lat="45.97856" lon="4.75674">
        <ele>175</ele>
        <time>2018-01-23T11:43:14Z</time>
      </trkpt>
      <trkpt lat="45.97851" lon="4.75672">
        <ele>175</ele>
        <time>2018-01-23T11:43:15Z</time>
      </trkpt>
      <trkpt lat="45.97845" lon="4.7567">
        <ele>175</ele>
        <time>2018-01-23T11:43:16Z</time>
      </trkpt>
      <trkpt lat="45.97839" lon="4.75669">
        <ele>175</ele>
        <time>2018-01-23T11:43:17Z</time>
      </trkpt>
      <trkpt lat="45.97835" lon="4.75669">
        <ele>175</ele>
        <time>2018-01-23T11:43:18Z</time>
      </trkpt>
      <trkpt lat="45.97829" lon="4.75668">
        <ele>175</ele>
        <time>2018-01-23T11:43:19Z</time>
      </trkpt>
      <trkpt lat="45.97823" lon="4.75666">
        <ele>174</ele>
        <time>2018-01-23T11:43:20Z</time>
      </trkpt>
      <trkpt lat="45.97817" lon="4.75665">
        <ele>173</ele>
        <time>2018-01-23T11:43:21Z</time>
      </trkpt>
      <trkpt lat="45.97811" lon="4.75665">
        <ele>173</ele>
        <time>2018-01-23T11:43:22Z</time>
      </trkpt>
      <trkpt lat="45.97806" lon="4.75665">
        <ele>173</ele>
        <time>2018-01-23T11:43:23Z</time>
      </trkpt>
      <trkpt lat="45.97799" lon="4.75664">
        <ele>172</ele>
        <time>2018-01-23T11:43:24Z</time>
      </trkpt>
      <trkpt lat="45.97794" lon="4.75664">
        <ele>172</ele>
        <time>2018-01-23T11:43:25Z</time>
      </trkpt>
      <trkpt lat="45.97787" lon="4.75662">
        <ele>172</ele>
        <time>2018-01-23T11:43:26Z</time>
      </trkpt>
      <trkpt lat="45.9778" lon="4.75661">
        <ele>172</ele>
        <time>2018-01-23T11:43:27Z</time>
      </trkpt>
      <trkpt lat="45.97774" lon="4.75662">
        <ele>172</ele>
        <time>2018-01-23T11:43:28Z</time>
      </trkpt>
      <trkpt lat="45.97767" lon="4.75662">
        <ele>172</ele>
        <time>2018-01-23T11:43:29Z</time>
      </trkpt>
      <trkpt lat="45.9776" lon="4.75663">
        <ele>172</ele>
        <time>2018-01-23T11:43:30Z</time>
      </trkpt>
      <trkpt lat="45.97753" lon="4.75662">
        <ele>172</ele>
        <time>2018-01-23T11:43:31Z</time>
      </trkpt>
      <trkpt lat="45.97747" lon="4.75663">
        <ele>172</ele>
        <time>2018-01-23T11:43:32Z</time>
      </trkpt>
      <trkpt lat="45.97741" lon="4.75663">
        <ele>172</ele>
        <time>2018-01-23T11:43:33Z</time>
      </trkpt>
      <trkpt lat="45.97736" lon="4.75663">
        <ele>171</ele>
        <time>2018-01-23T11:43:34Z</time>
      </trkpt>
      <trkpt lat="45.97731" lon="4.75663">
        <ele>171</ele>
        <time>2018-01-23T11:43:35Z</time>
      </trkpt>
      <trkpt lat="45.97726" lon="4.75663">
        <ele>171</ele>
        <time>2018-01-23T11:43:36Z</time>
      </trkpt>
      <trkpt lat="45.9772" lon="4.75662">
        <ele>171</ele>
        <time>2018-01-23T11:43:37Z</time>
      </trkpt>
      <trkpt lat="45.97715" lon="4.75662">
        <ele>171</ele>
        <time>2018-01-23T11:43:38Z</time>
      </trkpt>
      <trkpt lat="45.9771" lon="4.75662">
        <ele>171</ele>
        <time>2018-01-23T11:43:39Z</time>
      </trkpt>
      <trkpt lat="45.97704" lon="4.75663">
        <ele>171</ele>
        <time>2018-01-23T11:43:40Z</time>
      </trkpt>
      <trkpt lat="45.97698" lon="4.75663">
        <ele>170</ele>
        <time>2018-01-23T11:43:41Z</time>
      </trkpt>
      <trkpt lat="45.97691" lon="4.75663">
        <ele>170</ele>
        <time>2018-01-23T11:43:42Z</time>
      </trkpt>
      <trkpt lat="45.97685" lon="4.75663">
        <ele>170</ele>
        <time>2018-01-23T11:43:43Z</time>
      </trkpt>
      <trkpt lat="45.9768" lon="4.75663">
        <ele>170</ele>
        <time>2018-01-23T11:43:44Z</time>
      </trkpt>
      <trkpt lat="45.97674" lon="4.75663">
        <ele>170</ele>
        <time>2018-01-23T11:43:45Z</time>
      </trkpt>
      <trkpt lat="45.97669" lon="4.75662">
        <ele>169</ele>
        <time>2018-01-23T11:43:46Z</time>
      </trkpt>
      <trkpt lat="45.97664" lon="4.75661">
        <ele>169</ele>
        <time>2018-01-23T11:43:47Z</time>
      </trkpt>
      <trkpt lat="45.97658" lon="4.75661">
        <ele>169</ele>
        <time>2018-01-23T11:43:48Z</time>
      </trkpt>
      <trkpt lat="45.97649" lon="4.75659">
        <ele>169</ele>
        <time>2018-01-23T11:43:50Z</time>
      </trkpt>
      <trkpt lat="45.97644" lon="4.75659">
        <ele>169</ele>
        <time>2018-01-23T11:43:51Z</time>
      </trkpt>
      <trkpt lat="45.9764" lon="4.7566">
        <ele>170</ele>
        <time>2018-01-23T11:43:52Z</time>
      </trkpt>
      <trkpt lat="45.97634" lon="4.75663">
        <ele>170</ele>
        <time>2018-01-23T11:43:53Z</time>
      </trkpt>
      <trkpt lat="45.97627" lon="4.75664">
        <ele>170</ele>
        <time>2018-01-23T11:43:54Z</time>
      </trkpt>
      <trkpt lat="45.97621" lon="4.75665">
        <ele>170</ele>
        <time>2018-01-23T11:43:55Z</time>
      </trkpt>
      <trkpt lat="45.97616" lon="4.75666">
        <ele>170</ele>
        <time>2018-01-23T11:43:56Z</time>
      </trkpt>
      <trkpt lat="45.9761" lon="4.75668">
        <ele>171</ele>
        <time>2018-01-23T11:43:57Z</time>
      </trkpt>
      <trkpt lat="45.97604" lon="4.75671">
        <ele>171</ele>
        <time>2018-01-23T11:43:58Z</time>
      </trkpt>
      <trkpt lat="45.97599" lon="4.75673">
        <ele>171</ele>
        <time>2018-01-23T11:43:59Z</time>
      </trkpt>
      <trkpt lat="45.97593" lon="4.75677">
        <ele>171</ele>
        <time>2018-01-23T11:44:00Z</time>
      </trkpt>
      <trkpt lat="45.97587" lon="4.7568">
        <ele>171</ele>
        <time>2018-01-23T11:44:01Z</time>
      </trkpt>
      <trkpt lat="45.9758" lon="4.7568">
        <ele>171</ele>
        <time>2018-01-23T11:44:02Z</time>
      </trkpt>
      <trkpt lat="45.97578" lon="4.75675">
        <ele>171</ele>
        <time>2018-01-23T11:44:03Z</time>
      </trkpt>
      <trkpt lat="45.97574" lon="4.7567">
        <ele>171</ele>
        <time>2018-01-23T11:44:04Z</time>
      </trkpt>
      <trkpt lat="45.97569" lon="4.75662">
        <ele>170</ele>
        <time>2018-01-23T11:44:05Z</time>
      </trkpt>
      <trkpt lat="45.97565" lon="4.75659">
        <ele>170</ele>
        <time>2018-01-23T11:44:06Z</time>
      </trkpt>
      <trkpt lat="45.9756" lon="4.75657">
        <ele>169</ele>
        <time>2018-01-23T11:44:07Z</time>
      </trkpt>
      <trkpt lat="45.97555" lon="4.75656">
        <ele>169</ele>
        <time>2018-01-23T11:44:08Z</time>
      </trkpt>
      <trkpt lat="45.97548" lon="4.75654">
        <ele>169</ele>
        <time>2018-01-23T11:44:09Z</time>
      </trkpt>
      <trkpt lat="45.97542" lon="4.75653">
        <ele>169</ele>
        <time>2018-01-23T11:44:10Z</time>
      </trkpt>
      <trkpt lat="45.97537" lon="4.75652">
        <ele>169</ele>
        <time>2018-01-23T11:44:11Z</time>
      </trkpt>
      <trkpt lat="45.97531" lon="4.75654">
        <ele>169</ele>
        <time>2018-01-23T11:44:12Z</time>
      </trkpt>
      <trkpt lat="45.97524" lon="4.75656">
        <ele>169</ele>
        <time>2018-01-23T11:44:13Z</time>
      </trkpt>
      <trkpt lat="45.97518" lon="4.75659">
        <ele>169</ele>
        <time>2018-01-23T11:44:14Z</time>
      </trkpt>
      <trkpt lat="45.97512" lon="4.75661">
        <ele>169</ele>
        <time>2018-01-23T11:44:15Z</time>
      </trkpt>
      <trkpt lat="45.97508" lon="4.75664">
        <ele>170</ele>
        <time>2018-01-23T11:44:16Z</time>
      </trkpt>
      <trkpt lat="45.97503" lon="4.75667">
        <ele>170</ele>
        <time>2018-01-23T11:44:17Z</time>
      </trkpt>
      <trkpt lat="45.97498" lon="4.75668">
        <ele>170</ele>
        <time>2018-01-23T11:44:18Z</time>
      </trkpt>
      <trkpt lat="45.97491" lon="4.7567">
        <ele>170</ele>
        <time>2018-01-23T11:44:19Z</time>
      </trkpt>
      <trkpt lat="45.97485" lon="4.75672">
        <ele>170</ele>
        <time>2018-01-23T11:44:20Z</time>
      </trkpt>
      <trkpt lat="45.9748" lon="4.75674">
        <ele>170</ele>
        <time>2018-01-23T11:44:21Z</time>
      </trkpt>
      <trkpt lat="45.97474" lon="4.75674">
        <ele>171</ele>
        <time>2018-01-23T11:44:22Z</time>
      </trkpt>
      <trkpt lat="45.97469" lon="4.75675">
        <ele>171</ele>
        <time>2018-01-23T11:44:23Z</time>
      </trkpt>
      <trkpt lat="45.97464" lon="4.75674">
        <ele>171</ele>
        <time>2018-01-23T11:44:24Z</time>
      </trkpt>
      <trkpt lat="45.97458" lon="4.75675">
        <ele>170</ele>
        <time>2018-01-23T11:44:25Z</time>
      </trkpt>
      <trkpt lat="45.97453" lon="4.75675">
        <ele>170</ele>
        <time>2018-01-23T11:44:26Z</time>
      </trkpt>
      <trkpt lat="45.97447" lon="4.75674">
        <ele>170</ele>
        <time>2018-01-23T11:44:27Z</time>
      </trkpt>
      <trkpt lat="45.97442" lon="4.75674">
        <ele>170</ele>
        <time>2018-01-23T11:44:28Z</time>
      </trkpt>
      <trkpt lat="45.97436" lon="4.75675">
        <ele>170</ele>
        <time>2018-01-23T11:44:29Z</time>
      </trkpt>
      <trkpt lat="45.9743" lon="4.75675">
        <ele>170</ele>
        <time>2018-01-23T11:44:30Z</time>
      </trkpt>
      <trkpt lat="45.97425" lon="4.75676">
        <ele>170</ele>
        <time>2018-01-23T11:44:31Z</time>
      </trkpt>
      <trkpt lat="45.97419" lon="4.75676">
        <ele>170</ele>
        <time>2018-01-23T11:44:32Z</time>
      </trkpt>
      <trkpt lat="45.97413" lon="4.75676">
        <ele>171</ele>
        <time>2018-01-23T11:44:33Z</time>
      </trkpt>
      <trkpt lat="45.97406" lon="4.75676">
        <ele>171</ele>
        <time>2018-01-23T11:44:34Z</time>
      </trkpt>
      <trkpt lat="45.97401" lon="4.75675">
        <ele>172</ele>
        <time>2018-01-23T11:44:35Z</time>
      </trkpt>
      <trkpt lat="45.97396" lon="4.75675">
        <ele>172</ele>
        <time>2018-01-23T11:44:36Z</time>
      </trkpt>
      <trkpt lat="45.97389" lon="4.75675">
        <ele>173</ele>
        <time>2018-01-23T11:44:37Z</time>
      </trkpt>
      <trkpt lat="45.97383" lon="4.75675">
        <ele>173</ele>
        <time>2018-01-23T11:44:38Z</time>
      </trkpt>
      <trkpt lat="45.97378" lon="4.75676">
        <ele>173</ele>
        <time>2018-01-23T11:44:39Z</time>
      </trkpt>
      <trkpt lat="45.97372" lon="4.75677">
        <ele>174</ele>
        <time>2018-01-23T11:44:40Z</time>
      </trkpt>
      <trkpt lat="45.97367" lon="4.75676">
        <ele>174</ele>
        <time>2018-01-23T11:44:41Z</time>
      </trkpt>
      <trkpt lat="45.97362" lon="4.75676">
        <ele>174</ele>
        <time>2018-01-23T11:44:42Z</time>
      </trkpt>
      <trkpt lat="45.97357" lon="4.75675">
        <ele>175</ele>
        <time>2018-01-23T11:44:43Z</time>
      </trkpt>
      <trkpt lat="45.97351" lon="4.75674">
        <ele>175</ele>
        <time>2018-01-23T11:44:44Z</time>
      </trkpt>
      <trkpt lat="45.97345" lon="4.75673">
        <ele>175</ele>
        <time>2018-01-23T11:44:45Z</time>
      </trkpt>
      <trkpt lat="45.97341" lon="4.75673">
        <ele>175</ele>
        <time>2018-01-23T11:44:46Z</time>
      </trkpt>
      <trkpt lat="45.97336" lon="4.75672">
        <ele>176</ele>
        <time>2018-01-23T11:44:47Z</time>
      </trkpt>
      <trkpt lat="45.97329" lon="4.75673">
        <ele>176</ele>
        <time>2018-01-23T11:44:48Z</time>
      </trkpt>
      <trkpt lat="45.97323" lon="4.75672">
        <ele>176</ele>
        <time>2018-01-23T11:44:49Z</time>
      </trkpt>
      <trkpt lat="45.97316" lon="4.75672">
        <ele>176</ele>
        <time>2018-01-23T11:44:50Z</time>
      </trkpt>
      <trkpt lat="45.9731" lon="4.7567">
        <ele>176</ele>
        <time>2018-01-23T11:44:51Z</time>
      </trkpt>
      <trkpt lat="45.97305" lon="4.75671">
        <ele>176</ele>
        <time>2018-01-23T11:44:52Z</time>
      </trkpt>
      <trkpt lat="45.97301" lon="4.75671">
        <ele>176</ele>
        <time>2018-01-23T11:44:53Z</time>
      </trkpt>
      <trkpt lat="45.97296" lon="4.7567">
        <ele>176</ele>
        <time>2018-01-23T11:44:54Z</time>
      </trkpt>
      <trkpt lat="45.9729" lon="4.75669">
        <ele>176</ele>
        <time>2018-01-23T11:44:55Z</time>
      </trkpt>
      <trkpt lat="45.97285" lon="4.75668">
        <ele>176</ele>
        <time>2018-01-23T11:44:56Z</time>
      </trkpt>
      <trkpt lat="45.97279" lon="4.75665">
        <ele>172</ele>
        <time>2018-01-23T11:44:57Z</time>
      </trkpt>
      <trkpt lat="45.97273" lon="4.75664">
        <ele>172</ele>
        <time>2018-01-23T11:44:58Z</time>
      </trkpt>
      <trkpt lat="45.97267" lon="4.75662">
        <ele>172</ele>
        <time>2018-01-23T11:44:59Z</time>
      </trkpt>
      <trkpt lat="45.97263" lon="4.7566">
        <ele>173</ele>
        <time>2018-01-23T11:45:00Z</time>
      </trkpt>
      <trkpt lat="45.97257" lon="4.75658">
        <ele>173</ele>
        <time>2018-01-23T11:45:01Z</time>
      </trkpt>
      <trkpt lat="45.9725" lon="4.75656">
        <ele>173</ele>
        <time>2018-01-23T11:45:02Z</time>
      </trkpt>
      <trkpt lat="45.97245" lon="4.75654">
        <ele>173</ele>
        <time>2018-01-23T11:45:03Z</time>
      </trkpt>
      <trkpt lat="45.97239" lon="4.75653">
        <ele>173</ele>
        <time>2018-01-23T11:45:04Z</time>
      </trkpt>
      <trkpt lat="45.97235" lon="4.75651">
        <ele>173</ele>
        <time>2018-01-23T11:45:05Z</time>
      </trkpt>
      <trkpt lat="45.97229" lon="4.7565">
        <ele>173</ele>
        <time>2018-01-23T11:45:06Z</time>
      </trkpt>
      <trkpt lat="45.97223" lon="4.75649">
        <ele>173</ele>
        <time>2018-01-23T11:45:07Z</time>
      </trkpt>
      <trkpt lat="45.97219" lon="4.75649">
        <ele>173</ele>
        <time>2018-01-23T11:45:08Z</time>
      </trkpt>
      <trkpt lat="45.97213" lon="4.75647">
        <ele>173</ele>
        <time>2018-01-23T11:45:09Z</time>
      </trkpt>
      <trkpt lat="45.97208" lon="4.75646">
        <ele>173</ele>
        <time>2018-01-23T11:45:10Z</time>
      </trkpt>
      <trkpt lat="45.97202" lon="4.75641">
        <ele>173</ele>
        <time>2018-01-23T11:45:11Z</time>
      </trkpt>
      <trkpt lat="45.97196" lon="4.75639">
        <ele>173</ele>
        <time>2018-01-23T11:45:12Z</time>
      </trkpt>
      <trkpt lat="45.97189" lon="4.75636">
        <ele>173</ele>
        <time>2018-01-23T11:45:13Z</time>
      </trkpt>
      <trkpt lat="45.97183" lon="4.75633">
        <ele>174</ele>
        <time>2018-01-23T11:45:14Z</time>
      </trkpt>
      <trkpt lat="45.97177" lon="4.75631">
        <ele>174</ele>
        <time>2018-01-23T11:45:15Z</time>
      </trkpt>
      <trkpt lat="45.97172" lon="4.75628">
        <ele>174</ele>
        <time>2018-01-23T11:45:16Z</time>
      </trkpt>
      <trkpt lat="45.97167" lon="4.75625">
        <ele>176</ele>
        <time>2018-01-23T11:45:17Z</time>
      </trkpt>
      <trkpt lat="45.97161" lon="4.75624">
        <ele>176</ele>
        <time>2018-01-23T11:45:18Z</time>
      </trkpt>
      <trkpt lat="45.97155" lon="4.75622">
        <ele>176</ele>
        <time>2018-01-23T11:45:19Z</time>
      </trkpt>
      <trkpt lat="45.9715" lon="4.75619">
        <ele>176</ele>
        <time>2018-01-23T11:45:20Z</time>
      </trkpt>
      <trkpt lat="45.97144" lon="4.75615">
        <ele>176</ele>
        <time>2018-01-23T11:45:21Z</time>
      </trkpt>
      <trkpt lat="45.97139" lon="4.75612">
        <ele>176</ele>
        <time>2018-01-23T11:45:22Z</time>
      </trkpt>
      <trkpt lat="45.97133" lon="4.75607">
        <ele>176</ele>
        <time>2018-01-23T11:45:23Z</time>
      </trkpt>
      <trkpt lat="45.97127" lon="4.75604">
        <ele>176</ele>
        <time>2018-01-23T11:45:24Z</time>
      </trkpt>
      <trkpt lat="45.97123" lon="4.75601">
        <ele>176</ele>
        <time>2018-01-23T11:45:25Z</time>
      </trkpt>
      <trkpt lat="45.97118" lon="4.75598">
        <ele>176</ele>
        <time>2018-01-23T11:45:26Z</time>
      </trkpt>
      <trkpt lat="45.97112" lon="4.75596">
        <ele>176</ele>
        <time>2018-01-23T11:45:27Z</time>
      </trkpt>
      <trkpt lat="45.97107" lon="4.75594">
        <ele>176</ele>
        <time>2018-01-23T11:45:28Z</time>
      </trkpt>
      <trkpt lat="45.971" lon="4.75592">
        <ele>176</ele>
        <time>2018-01-23T11:45:29Z</time>
      </trkpt>
      <trkpt lat="45.97094" lon="4.75591">
        <ele>176</ele>
        <time>2018-01-23T11:45:30Z</time>
      </trkpt>
      <trkpt lat="45.97089" lon="4.75589">
        <ele>176</ele>
        <time>2018-01-23T11:45:31Z</time>
      </trkpt>
      <trkpt lat="45.97083" lon="4.75588">
        <ele>176</ele>
        <time>2018-01-23T11:45:32Z</time>
      </trkpt>
      <trkpt lat="45.97077" lon="4.75585">
        <ele>177</ele>
        <time>2018-01-23T11:45:33Z</time>
      </trkpt>
      <trkpt lat="45.97072" lon="4.75584">
        <ele>178</ele>
        <time>2018-01-23T11:45:34Z</time>
      </trkpt>
      <trkpt lat="45.97067" lon="4.75581">
        <ele>174</ele>
        <time>2018-01-23T11:45:35Z</time>
      </trkpt>
      <trkpt lat="45.97061" lon="4.75579">
        <ele>174</ele>
        <time>2018-01-23T11:45:36Z</time>
      </trkpt>
      <trkpt lat="45.97055" lon="4.75577">
        <ele>173</ele>
        <time>2018-01-23T11:45:37Z</time>
      </trkpt>
      <trkpt lat="45.9705" lon="4.75574">
        <ele>173</ele>
        <time>2018-01-23T11:45:38Z</time>
      </trkpt>
      <trkpt lat="45.97045" lon="4.75571">
        <ele>173</ele>
        <time>2018-01-23T11:45:39Z</time>
      </trkpt>
      <trkpt lat="45.97039" lon="4.75569">
        <ele>174</ele>
        <time>2018-01-23T11:45:40Z</time>
      </trkpt>
      <trkpt lat="45.97033" lon="4.75565">
        <ele>174</ele>
        <time>2018-01-23T11:45:41Z</time>
      </trkpt>
      <trkpt lat="45.97025" lon="4.7556">
        <ele>174</ele>
        <time>2018-01-23T11:45:42Z</time>
      </trkpt>
      <trkpt lat="45.97019" lon="4.75557">
        <ele>174</ele>
        <time>2018-01-23T11:45:43Z</time>
      </trkpt>
      <trkpt lat="45.97014" lon="4.75554">
        <ele>173</ele>
        <time>2018-01-23T11:45:44Z</time>
      </trkpt>
      <trkpt lat="45.9701" lon="4.7555">
        <ele>173</ele>
        <time>2018-01-23T11:45:45Z</time>
      </trkpt>
      <trkpt lat="45.97002" lon="4.7555">
        <ele>173</ele>
        <time>2018-01-23T11:45:46Z</time>
      </trkpt>
      <trkpt lat="45.96996" lon="4.75548">
        <ele>175</ele>
        <time>2018-01-23T11:45:47Z</time>
      </trkpt>
      <trkpt lat="45.9699" lon="4.75546">
        <ele>175</ele>
        <time>2018-01-23T11:45:48Z</time>
      </trkpt>
      <trkpt lat="45.96985" lon="4.75543">
        <ele>175</ele>
        <time>2018-01-23T11:45:49Z</time>
      </trkpt>
      <trkpt lat="45.96978" lon="4.75542">
        <ele>175</ele>
        <time>2018-01-23T11:45:50Z</time>
      </trkpt>
      <trkpt lat="45.96973" lon="4.75538">
        <ele>174</ele>
        <time>2018-01-23T11:45:51Z</time>
      </trkpt>
      <trkpt lat="45.96968" lon="4.75536">
        <ele>174</ele>
        <time>2018-01-23T11:45:52Z</time>
      </trkpt>
      <trkpt lat="45.96962" lon="4.75534">
        <ele>174</ele>
        <time>2018-01-23T11:45:53Z</time>
      </trkpt>
      <trkpt lat="45.96958" lon="4.75532">
        <ele>174</ele>
        <time>2018-01-23T11:45:54Z</time>
      </trkpt>
      <trkpt lat="45.96952" lon="4.7553">
        <ele>174</ele>
        <time>2018-01-23T11:45:55Z</time>
      </trkpt>
      <trkpt lat="45.96946" lon="4.75528">
        <ele>174</ele>
        <time>2018-01-23T11:45:56Z</time>
      </trkpt>
      <trkpt lat="45.96941" lon="4.75526">
        <ele>174</ele>
        <time>2018-01-23T11:45:57Z</time>
      </trkpt>
      <trkpt lat="45.96935" lon="4.75524">
        <ele>174</ele>
        <time>2018-01-23T11:45:58Z</time>
      </trkpt>
      <trkpt lat="45.96928" lon="4.75522">
        <ele>174</ele>
        <time>2018-01-23T11:45:59Z</time>
      </trkpt>
      <trkpt lat="45.96923" lon="4.75521">
        <ele>174</ele>
        <time>2018-01-23T11:46:00Z</time>
      </trkpt>
      <trkpt lat="45.96917" lon="4.75519">
        <ele>174</ele>
        <time>2018-01-23T11:46:01Z</time>
      </trkpt>
      <trkpt lat="45.96911" lon="4.75517">
        <ele>177</ele>
        <time>2018-01-23T11:46:02Z</time>
      </trkpt>
      <trkpt lat="45.96904" lon="4.75515">
        <ele>177</ele>
        <time>2018-01-23T11:46:03Z</time>
      </trkpt>
      <trkpt lat="45.96895" lon="4.75512">
        <ele>178</ele>
        <time>2018-01-23T11:46:04Z</time>
      </trkpt>
      <trkpt lat="45.96887" lon="4.75511">
        <ele>178</ele>
        <time>2018-01-23T11:46:05Z</time>
      </trkpt>
      <trkpt lat="45.96881" lon="4.75508">
        <ele>178</ele>
        <time>2018-01-23T11:46:06Z</time>
      </trkpt>
      <trkpt lat="45.96876" lon="4.75506">
        <ele>178</ele>
        <time>2018-01-23T11:46:07Z</time>
      </trkpt>
      <trkpt lat="45.9687" lon="4.75505">
        <ele>179</ele>
        <time>2018-01-23T11:46:08Z</time>
      </trkpt>
      <trkpt lat="45.96864" lon="4.75503">
        <ele>178</ele>
        <time>2018-01-23T11:46:09Z</time>
      </trkpt>
      <trkpt lat="45.96858" lon="4.755">
        <ele>172</ele>
        <time>2018-01-23T11:46:10Z</time>
      </trkpt>
      <trkpt lat="45.96852" lon="4.75497">
        <ele>172</ele>
        <time>2018-01-23T11:46:11Z</time>
      </trkpt>
      <trkpt lat="45.96847" lon="4.75495">
        <ele>172</ele>
        <time>2018-01-23T11:46:12Z</time>
      </trkpt>
      <trkpt lat="45.96842" lon="4.75492">
        <ele>172</ele>
        <time>2018-01-23T11:46:13Z</time>
      </trkpt>
      <trkpt lat="45.96836" lon="4.75488">
        <ele>172</ele>
        <time>2018-01-23T11:46:14Z</time>
      </trkpt>
      <trkpt lat="45.96831" lon="4.75485">
        <ele>174</ele>
        <time>2018-01-23T11:46:15Z</time>
      </trkpt>
      <trkpt lat="45.96825" lon="4.75486">
        <ele>174</ele>
        <time>2018-01-23T11:46:16Z</time>
      </trkpt>
      <trkpt lat="45.9682" lon="4.75483">
        <ele>174</ele>
        <time>2018-01-23T11:46:17Z</time>
      </trkpt>
      <trkpt lat="45.96814" lon="4.75479">
        <ele>174</ele>
        <time>2018-01-23T11:46:18Z</time>
      </trkpt>
      <trkpt lat="45.96809" lon="4.75478">
        <ele>174</ele>
        <time>2018-01-23T11:46:19Z</time>
      </trkpt>
      <trkpt lat="45.96804" lon="4.75476">
        <ele>174</ele>
        <time>2018-01-23T11:46:20Z</time>
      </trkpt>
      <trkpt lat="45.96797" lon="4.75473">
        <ele>174</ele>
        <time>2018-01-23T11:46:21Z</time>
      </trkpt>
      <trkpt lat="45.96792" lon="4.75471">
        <ele>174</ele>
        <time>2018-01-23T11:46:22Z</time>
      </trkpt>
      <trkpt lat="45.96787" lon="4.75469">
        <ele>174</ele>
        <time>2018-01-23T11:46:23Z</time>
      </trkpt>
      <trkpt lat="45.96781" lon="4.75466">
        <ele>174</ele>
        <time>2018-01-23T11:46:24Z</time>
      </trkpt>
      <trkpt lat="45.96776" lon="4.75463">
        <ele>174</ele>
        <time>2018-01-23T11:46:25Z</time>
      </trkpt>
      <trkpt lat="45.96769" lon="4.7546">
        <ele>174</ele>
        <time>2018-01-23T11:46:26Z</time>
      </trkpt>
      <trkpt lat="45.96764" lon="4.75458">
        <ele>174</ele>
        <time>2018-01-23T11:46:27Z</time>
      </trkpt>
      <trkpt lat="45.96759" lon="4.75455">
        <ele>174</ele>
        <time>2018-01-23T11:46:28Z</time>
      </trkpt>
      <trkpt lat="45.96752" lon="4.75452">
        <ele>173</ele>
        <time>2018-01-23T11:46:29Z</time>
      </trkpt>
      <trkpt lat="45.96747" lon="4.75449">
        <ele>178</ele>
        <time>2018-01-23T11:46:30Z</time>
      </trkpt>
      <trkpt lat="45.96741" lon="4.75446">
        <ele>178</ele>
        <time>2018-01-23T11:46:31Z</time>
      </trkpt>
      <trkpt lat="45.96736" lon="4.75443">
        <ele>178</ele>
        <time>2018-01-23T11:46:32Z</time>
      </trkpt>
      <trkpt lat="45.96731" lon="4.7544">
        <ele>178</ele>
        <time>2018-01-23T11:46:33Z</time>
      </trkpt>
      <trkpt lat="45.96725" lon="4.75437">
        <ele>178</ele>
        <time>2018-01-23T11:46:34Z</time>
      </trkpt>
      <trkpt lat="45.9672" lon="4.75435">
        <ele>178</ele>
        <time>2018-01-23T11:46:35Z</time>
      </trkpt>
      <trkpt lat="45.96715" lon="4.75432">
        <ele>179</ele>
        <time>2018-01-23T11:46:36Z</time>
      </trkpt>
      <trkpt lat="45.96711" lon="4.75428">
        <ele>179</ele>
        <time>2018-01-23T11:46:37Z</time>
      </trkpt>
      <trkpt lat="45.96705" lon="4.75425">
        <ele>179</ele>
        <time>2018-01-23T11:46:38Z</time>
      </trkpt>
      <trkpt lat="45.96701" lon="4.75423">
        <ele>179</ele>
        <time>2018-01-23T11:46:39Z</time>
      </trkpt>
      <trkpt lat="45.96695" lon="4.75422">
        <ele>179</ele>
        <time>2018-01-23T11:46:40Z</time>
      </trkpt>
      <trkpt lat="45.96691" lon="4.75417">
        <ele>171</ele>
        <time>2018-01-23T11:46:41Z</time>
      </trkpt>
      <trkpt lat="45.96686" lon="4.75414">
        <ele>172</ele>
        <time>2018-01-23T11:46:42Z</time>
      </trkpt>
      <trkpt lat="45.96683" lon="4.7541">
        <ele>172</ele>
        <time>2018-01-23T11:46:43Z</time>
      </trkpt>
      <trkpt lat="45.96678" lon="4.75408">
        <ele>173</ele>
        <time>2018-01-23T11:46:44Z</time>
      </trkpt>
      <trkpt lat="45.96673" lon="4.75405">
        <ele>173</ele>
        <time>2018-01-23T11:46:45Z</time>
      </trkpt>
      <trkpt lat="45.96665" lon="4.75399">
        <ele>177</ele>
        <time>2018-01-23T11:46:47Z</time>
      </trkpt>
      <trkpt lat="45.9666" lon="4.75397">
        <ele>178</ele>
        <time>2018-01-23T11:46:48Z</time>
      </trkpt>
      <trkpt lat="45.96655" lon="4.75394">
        <ele>178</ele>
        <time>2018-01-23T11:46:49Z</time>
      </trkpt>
      <trkpt lat="45.96651" lon="4.75389">
        <ele>178</ele>
        <time>2018-01-23T11:46:50Z</time>
      </trkpt>
      <trkpt lat="45.96646" lon="4.75387">
        <ele>178</ele>
        <time>2018-01-23T11:46:51Z</time>
      </trkpt>
      <trkpt lat="45.9664" lon="4.75386">
        <ele>179</ele>
        <time>2018-01-23T11:46:52Z</time>
      </trkpt>
      <trkpt lat="45.96635" lon="4.75383">
        <ele>179</ele>
        <time>2018-01-23T11:46:53Z</time>
      </trkpt>
      <trkpt lat="45.96629" lon="4.75381">
        <ele>179</ele>
        <time>2018-01-23T11:46:54Z</time>
      </trkpt>
      <trkpt lat="45.96624" lon="4.75377">
        <ele>180</ele>
        <time>2018-01-23T11:46:55Z</time>
      </trkpt>
      <trkpt lat="45.9662" lon="4.75374">
        <ele>180</ele>
        <time>2018-01-23T11:46:56Z</time>
      </trkpt>
      <trkpt lat="45.96615" lon="4.75371">
        <ele>180</ele>
        <time>2018-01-23T11:46:57Z</time>
      </trkpt>
      <trkpt lat="45.9661" lon="4.75369">
        <ele>180</ele>
        <time>2018-01-23T11:46:58Z</time>
      </trkpt>
      <trkpt lat="45.96605" lon="4.75365">
        <ele>180</ele>
        <time>2018-01-23T11:46:59Z</time>
      </trkpt>
      <trkpt lat="45.96599" lon="4.75363">
        <ele>180</ele>
        <time>2018-01-23T11:47:00Z</time>
      </trkpt>
      <trkpt lat="45.96592" lon="4.7536">
        <ele>179</ele>
        <time>2018-01-23T11:47:01Z</time>
      </trkpt>
      <trkpt lat="45.96587" lon="4.75358">
        <ele>179</ele>
        <time>2018-01-23T11:47:02Z</time>
      </trkpt>
      <trkpt lat="45.96582" lon="4.75356">
        <ele>187</ele>
        <time>2018-01-23T11:47:03Z</time>
      </trkpt>
      <trkpt lat="45.96577" lon="4.75353">
        <ele>186</ele>
        <time>2018-01-23T11:47:04Z</time>
      </trkpt>
      <trkpt lat="45.96572" lon="4.7535">
        <ele>186</ele>
        <time>2018-01-23T11:47:05Z</time>
      </trkpt>
      <trkpt lat="45.96568" lon="4.75347">
        <ele>186</ele>
        <time>2018-01-23T11:47:06Z</time>
      </trkpt>
      <trkpt lat="45.96563" lon="4.75344">
        <ele>186</ele>
        <time>2018-01-23T11:47:07Z</time>
      </trkpt>
      <trkpt lat="45.96553" lon="4.75339">
        <ele>188</ele>
        <time>2018-01-23T11:47:08Z</time>
      </trkpt>
      <trkpt lat="45.96548" lon="4.75337">
        <ele>189</ele>
        <time>2018-01-23T11:47:09Z</time>
      </trkpt>
      <trkpt lat="45.96543" lon="4.75333">
        <ele>177</ele>
        <time>2018-01-23T11:47:10Z</time>
      </trkpt>
      <trkpt lat="45.96535" lon="4.75328">
        <ele>178</ele>
        <time>2018-01-23T11:47:12Z</time>
      </trkpt>
      <trkpt lat="45.96531" lon="4.75326">
        <ele>178</ele>
        <time>2018-01-23T11:47:13Z</time>
      </trkpt>
      <trkpt lat="45.96526" lon="4.75322">
        <ele>179</ele>
        <time>2018-01-23T11:47:14Z</time>
      </trkpt>
      <trkpt lat="45.9652" lon="4.75319">
        <ele>180</ele>
        <time>2018-01-23T11:47:15Z</time>
      </trkpt>
      <trkpt lat="45.96512" lon="4.75317">
        <ele>180</ele>
        <time>2018-01-23T11:47:16Z</time>
      </trkpt>
      <trkpt lat="45.96509" lon="4.75314">
        <ele>180</ele>
        <time>2018-01-23T11:47:17Z</time>
      </trkpt>
      <trkpt lat="45.96503" lon="4.75311">
        <ele>180</ele>
        <time>2018-01-23T11:47:18Z</time>
      </trkpt>
      <trkpt lat="45.96499" lon="4.75311">
        <ele>186</ele>
        <time>2018-01-23T11:47:19Z</time>
      </trkpt>
      <trkpt lat="45.96495" lon="4.75308">
        <ele>186</ele>
        <time>2018-01-23T11:47:20Z</time>
      </trkpt>
      <trkpt lat="45.9649" lon="4.75304">
        <ele>186</ele>
        <time>2018-01-23T11:47:21Z</time>
      </trkpt>
      <trkpt lat="45.96485" lon="4.75302">
        <ele>186</ele>
        <time>2018-01-23T11:47:22Z</time>
      </trkpt>
      <trkpt lat="45.9648" lon="4.753">
        <ele>186</ele>
        <time>2018-01-23T11:47:23Z</time>
      </trkpt>
      <trkpt lat="45.96475" lon="4.75297">
        <ele>186</ele>
        <time>2018-01-23T11:47:24Z</time>
      </trkpt>
      <trkpt lat="45.9647" lon="4.75296">
        <ele>186</ele>
        <time>2018-01-23T11:47:25Z</time>
      </trkpt>
      <trkpt lat="45.96467" lon="4.75293">
        <ele>186</ele>
        <time>2018-01-23T11:47:26Z</time>
      </trkpt>
      <trkpt lat="45.96462" lon="4.75289">
        <ele>186</ele>
        <time>2018-01-23T11:47:27Z</time>
      </trkpt>
      <trkpt lat="45.96455" lon="4.75284">
        <ele>186</ele>
        <time>2018-01-23T11:47:29Z</time>
      </trkpt>
      <trkpt lat="45.96452" lon="4.7528">
        <ele>185</ele>
        <time>2018-01-23T11:47:30Z</time>
      </trkpt>
      <trkpt lat="45.96448" lon="4.75278">
        <ele>185</ele>
        <time>2018-01-23T11:47:31Z</time>
      </trkpt>
      <trkpt lat="45.96442" lon="4.75277">
        <ele>186</ele>
        <time>2018-01-23T11:47:32Z</time>
      </trkpt>
      <trkpt lat="45.96439" lon="4.75275">
        <ele>186</ele>
        <time>2018-01-23T11:47:33Z</time>
      </trkpt>
      <trkpt lat="45.96432" lon="4.75275">
        <ele>186</ele>
        <time>2018-01-23T11:47:34Z</time>
      </trkpt>
      <trkpt lat="45.96424" lon="4.75271">
        <ele>185</ele>
        <time>2018-01-23T11:47:36Z</time>
      </trkpt>
      <trkpt lat="45.9642" lon="4.75269">
        <ele>185</ele>
        <time>2018-01-23T11:47:37Z</time>
      </trkpt>
      <trkpt lat="45.96412" lon="4.75264">
        <ele>189</ele>
        <time>2018-01-23T11:47:39Z</time>
      </trkpt>
      <trkpt lat="45.96408" lon="4.75262">
        <ele>189</ele>
        <time>2018-01-23T11:47:40Z</time>
      </trkpt>
      <trkpt lat="45.964" lon="4.75257">
        <ele>189</ele>
        <time>2018-01-23T11:47:42Z</time>
      </trkpt>
      <trkpt lat="45.96395" lon="4.75256">
        <ele>190</ele>
        <time>2018-01-23T11:47:43Z</time>
      </trkpt>
      <trkpt lat="45.96387" lon="4.75252">
        <ele>191</ele>
        <time>2018-01-23T11:47:45Z</time>
      </trkpt>
      <trkpt lat="45.96384" lon="4.75252">
        <ele>192</ele>
        <time>2018-01-23T11:47:46Z</time>
      </trkpt>
      <trkpt lat="45.96379" lon="4.75251">
        <ele>192</ele>
        <time>2018-01-23T11:47:47Z</time>
      </trkpt>
      <trkpt lat="45.96372" lon="4.75249">
        <ele>180</ele>
        <time>2018-01-23T11:47:48Z</time>
      </trkpt>
      <trkpt lat="45.96367" lon="4.75248">
        <ele>181</ele>
        <time>2018-01-23T11:47:49Z</time>
      </trkpt>
      <trkpt lat="45.96362" lon="4.75248">
        <ele>181</ele>
        <time>2018-01-23T11:47:50Z</time>
      </trkpt>
      <trkpt lat="45.96356" lon="4.75241">
        <ele>182</ele>
        <time>2018-01-23T11:47:52Z</time>
      </trkpt>
      <trkpt lat="45.96352" lon="4.75239">
        <ele>182</ele>
        <time>2018-01-23T11:47:53Z</time>
      </trkpt>
      <trkpt lat="45.96347" lon="4.75237">
        <ele>183</ele>
        <time>2018-01-23T11:47:54Z</time>
      </trkpt>
      <trkpt lat="45.96342" lon="4.75236">
        <ele>183</ele>
        <time>2018-01-23T11:47:55Z</time>
      </trkpt>
      <trkpt lat="45.96334" lon="4.75232">
        <ele>183</ele>
        <time>2018-01-23T11:47:57Z</time>
      </trkpt>
      <trkpt lat="45.9633" lon="4.75231">
        <ele>186</ele>
        <time>2018-01-23T11:47:58Z</time>
      </trkpt>
      <trkpt lat="45.96324" lon="4.75227">
        <ele>186</ele>
        <time>2018-01-23T11:47:59Z</time>
      </trkpt>
      <trkpt lat="45.9632" lon="4.75224">
        <ele>185</ele>
        <time>2018-01-23T11:48:00Z</time>
      </trkpt>
      <trkpt lat="45.96314" lon="4.75224">
        <ele>185</ele>
        <time>2018-01-23T11:48:01Z</time>
      </trkpt>
      <trkpt lat="45.9631" lon="4.75223">
        <ele>185</ele>
        <time>2018-01-23T11:48:02Z</time>
      </trkpt>
      <trkpt lat="45.96306" lon="4.75221">
        <ele>185</ele>
        <time>2018-01-23T11:48:03Z</time>
      </trkpt>
      <trkpt lat="45.96301" lon="4.75219">
        <ele>185</ele>
        <time>2018-01-23T11:48:04Z</time>
      </trkpt>
      <trkpt lat="45.96297" lon="4.75217">
        <ele>185</ele>
        <time>2018-01-23T11:48:05Z</time>
      </trkpt>
      <trkpt lat="45.96292" lon="4.75215">
        <ele>185</ele>
        <time>2018-01-23T11:48:06Z</time>
      </trkpt>
      <trkpt lat="45.96287" lon="4.75214">
        <ele>186</ele>
        <time>2018-01-23T11:48:07Z</time>
      </trkpt>
      <trkpt lat="45.96283" lon="4.75211">
        <ele>185</ele>
        <time>2018-01-23T11:48:08Z</time>
      </trkpt>
      <trkpt lat="45.96278" lon="4.75208">
        <ele>185</ele>
        <time>2018-01-23T11:48:09Z</time>
      </trkpt>
      <trkpt lat="45.96274" lon="4.75204">
        <ele>185</ele>
        <time>2018-01-23T11:48:10Z</time>
      </trkpt>
      <trkpt lat="45.96269" lon="4.75204">
        <ele>185</ele>
        <time>2018-01-23T11:48:11Z</time>
      </trkpt>
      <trkpt lat="45.96265" lon="4.75202">
        <ele>185</ele>
        <time>2018-01-23T11:48:12Z</time>
      </trkpt>
      <trkpt lat="45.96258" lon="4.75198">
        <ele>185</ele>
        <time>2018-01-23T11:48:14Z</time>
      </trkpt>
      <trkpt lat="45.96254" lon="4.75195">
        <ele>185</ele>
        <time>2018-01-23T11:48:15Z</time>
      </trkpt>
      <trkpt lat="45.96246" lon="4.75194">
        <ele>191</ele>
        <time>2018-01-23T11:48:16Z</time>
      </trkpt>
      <trkpt lat="45.96242" lon="4.75193">
        <ele>191</ele>
        <time>2018-01-23T11:48:17Z</time>
      </trkpt>
      <trkpt lat="45.96235" lon="4.75188">
        <ele>191</ele>
        <time>2018-01-23T11:48:19Z</time>
      </trkpt>
      <trkpt lat="45.9623" lon="4.75188">
        <ele>192</ele>
        <time>2018-01-23T11:48:20Z</time>
      </trkpt>
      <trkpt lat="45.96225" lon="4.75188">
        <ele>192</ele>
        <time>2018-01-23T11:48:21Z</time>
      </trkpt>
      <trkpt lat="45.9622" lon="4.75184">
        <ele>193</ele>
        <time>2018-01-23T11:48:22Z</time>
      </trkpt>
      <trkpt lat="45.96215" lon="4.75181">
        <ele>193</ele>
        <time>2018-01-23T11:48:23Z</time>
      </trkpt>
      <trkpt lat="45.96211" lon="4.75177">
        <ele>193</ele>
        <time>2018-01-23T11:48:24Z</time>
      </trkpt>
      <trkpt lat="45.96206" lon="4.75175">
        <ele>194</ele>
        <time>2018-01-23T11:48:26Z</time>
      </trkpt>
      <trkpt lat="45.96201" lon="4.75172">
        <ele>194</ele>
        <time>2018-01-23T11:48:27Z</time>
      </trkpt>
      <trkpt lat="45.96194" lon="4.75167">
        <ele>195</ele>
        <time>2018-01-23T11:48:29Z</time>
      </trkpt>
      <trkpt lat="45.96192" lon="4.75163">
        <ele>187</ele>
        <time>2018-01-23T11:48:30Z</time>
      </trkpt>
      <trkpt lat="45.96187" lon="4.75159">
        <ele>188</ele>
        <time>2018-01-23T11:48:31Z</time>
      </trkpt>
      <trkpt lat="45.96184" lon="4.75156">
        <ele>188</ele>
        <time>2018-01-23T11:48:32Z</time>
      </trkpt>
      <trkpt lat="45.96177" lon="4.75149">
        <ele>188</ele>
        <time>2018-01-23T11:48:34Z</time>
      </trkpt>
      <trkpt lat="45.96174" lon="4.75145">
        <ele>187</ele>
        <time>2018-01-23T11:48:35Z</time>
      </trkpt>
      <trkpt lat="45.96168" lon="4.75139">
        <ele>186</ele>
        <time>2018-01-23T11:48:37Z</time>
      </trkpt>
      <trkpt lat="45.96164" lon="4.75135">
        <ele>191</ele>
        <time>2018-01-23T11:48:38Z</time>
      </trkpt>
      <trkpt lat="45.96161" lon="4.75131">
        <ele>190</ele>
        <time>2018-01-23T11:48:39Z</time>
      </trkpt>
      <trkpt lat="45.96155" lon="4.75127">
        <ele>190</ele>
        <time>2018-01-23T11:48:40Z</time>
      </trkpt>
      <trkpt lat="45.96148" lon="4.75118">
        <ele>189</ele>
        <time>2018-01-23T11:48:42Z</time>
      </trkpt>
      <trkpt lat="45.96144" lon="4.75114">
        <ele>189</ele>
        <time>2018-01-23T11:48:43Z</time>
      </trkpt>
      <trkpt lat="45.96141" lon="4.75111">
        <ele>189</ele>
        <time>2018-01-23T11:48:44Z</time>
      </trkpt>
      <trkpt lat="45.96136" lon="4.75107">
        <ele>189</ele>
        <time>2018-01-23T11:48:45Z</time>
      </trkpt>
      <trkpt lat="45.96132" lon="4.75102">
        <ele>189</ele>
        <time>2018-01-23T11:48:46Z</time>
      </trkpt>
      <trkpt lat="45.96127" lon="4.75098">
        <ele>189</ele>
        <time>2018-01-23T11:48:47Z</time>
      </trkpt>
      <trkpt lat="45.96124" lon="4.75095">
        <ele>189</ele>
        <time>2018-01-23T11:48:48Z</time>
      </trkpt>
      <trkpt lat="45.9612" lon="4.75091">
        <ele>189</ele>
        <time>2018-01-23T11:48:49Z</time>
      </trkpt>
      <trkpt lat="45.96116" lon="4.75086">
        <ele>189</ele>
        <time>2018-01-23T11:48:50Z</time>
      </trkpt>
      <trkpt lat="45.96113" lon="4.75083">
        <ele>184</ele>
        <time>2018-01-23T11:48:51Z</time>
      </trkpt>
      <trkpt lat="45.96108" lon="4.75078">
        <ele>184</ele>
        <time>2018-01-23T11:48:52Z</time>
      </trkpt>
      <trkpt lat="45.96104" lon="4.75074">
        <ele>185</ele>
        <time>2018-01-23T11:48:53Z</time>
      </trkpt>
      <trkpt lat="45.96096" lon="4.75068">
        <ele>185</ele>
        <time>2018-01-23T11:48:55Z</time>
      </trkpt>
      <trkpt lat="45.96094" lon="4.75065">
        <ele>185</ele>
        <time>2018-01-23T11:48:56Z</time>
      </trkpt>
      <trkpt lat="45.96089" lon="4.75061">
        <ele>185</ele>
        <time>2018-01-23T11:48:57Z</time>
      </trkpt>
      <trkpt lat="45.96085" lon="4.75058">
        <ele>184</ele>
        <time>2018-01-23T11:48:58Z</time>
      </trkpt>
      <trkpt lat="45.96081" lon="4.75056">
        <ele>189</ele>
        <time>2018-01-23T11:48:59Z</time>
      </trkpt>
      <trkpt lat="45.96076" lon="4.75055">
        <ele>189</ele>
        <time>2018-01-23T11:49:00Z</time>
      </trkpt>
      <trkpt lat="45.96068" lon="4.75051">
        <ele>188</ele>
        <time>2018-01-23T11:49:02Z</time>
      </trkpt>
      <trkpt lat="45.96062" lon="4.75051">
        <ele>189</ele>
        <time>2018-01-23T11:49:03Z</time>
      </trkpt>
      <trkpt lat="45.96057" lon="4.75051">
        <ele>189</ele>
        <time>2018-01-23T11:49:04Z</time>
      </trkpt>
      <trkpt lat="45.96052" lon="4.7505">
        <ele>189</ele>
        <time>2018-01-23T11:49:05Z</time>
      </trkpt>
      <trkpt lat="45.96047" lon="4.75049">
        <ele>189</ele>
        <time>2018-01-23T11:49:06Z</time>
      </trkpt>
      <trkpt lat="45.96041" lon="4.75051">
        <ele>189</ele>
        <time>2018-01-23T11:49:07Z</time>
      </trkpt>
      <trkpt lat="45.96036" lon="4.75052">
        <ele>189</ele>
        <time>2018-01-23T11:49:08Z</time>
      </trkpt>
      <trkpt lat="45.96031" lon="4.75051">
        <ele>189</ele>
        <time>2018-01-23T11:49:09Z</time>
      </trkpt>
      <trkpt lat="45.96024" lon="4.75053">
        <ele>190</ele>
        <time>2018-01-23T11:49:11Z</time>
      </trkpt>
      <trkpt lat="45.96021" lon="4.75054">
        <ele>190</ele>
        <time>2018-01-23T11:49:12Z</time>
      </trkpt>
      <trkpt lat="45.96014" lon="4.75062">
        <ele>191</ele>
        <time>2018-01-23T11:49:14Z</time>
      </trkpt>
      <trkpt lat="45.96013" lon="4.75063">
        <ele>191</ele>
        <time>2018-01-23T11:49:15Z</time>
      </trkpt>
      <trkpt lat="45.96004" lon="4.75067">
        <ele>192</ele>
        <time>2018-01-23T11:49:17Z</time>
      </trkpt>
      <trkpt lat="45.95999" lon="4.7507">
        <ele>193</ele>
        <time>2018-01-23T11:49:18Z</time>
      </trkpt>
      <trkpt lat="45.95994" lon="4.75072">
        <ele>193</ele>
        <time>2018-01-23T11:49:19Z</time>
      </trkpt>
      <trkpt lat="45.95989" lon="4.75072">
        <ele>192</ele>
        <time>2018-01-23T11:49:20Z</time>
      </trkpt>
      <trkpt lat="45.95982" lon="4.75073">
        <ele>192</ele>
        <time>2018-01-23T11:49:21Z</time>
      </trkpt>
      <trkpt lat="45.95977" lon="4.75074">
        <ele>192</ele>
        <time>2018-01-23T11:49:22Z</time>
      </trkpt>
      <trkpt lat="45.95972" lon="4.75076">
        <ele>191</ele>
        <time>2018-01-23T11:49:23Z</time>
      </trkpt>
      <trkpt lat="45.95968" lon="4.75078">
        <ele>191</ele>
        <time>2018-01-23T11:49:24Z</time>
      </trkpt>
      <trkpt lat="45.95963" lon="4.7508">
        <ele>191</ele>
        <time>2018-01-23T11:49:26Z</time>
      </trkpt>
      <trkpt lat="45.95958" lon="4.75081">
        <ele>191</ele>
        <time>2018-01-23T11:49:27Z</time>
      </trkpt>
      <trkpt lat="45.95951" lon="4.75083">
        <ele>190</ele>
        <time>2018-01-23T11:49:28Z</time>
      </trkpt>
      <trkpt lat="45.95948" lon="4.75084">
        <ele>193</ele>
        <time>2018-01-23T11:49:29Z</time>
      </trkpt>
      <trkpt lat="45.9594" lon="4.75087">
        <ele>192</ele>
        <time>2018-01-23T11:49:31Z</time>
      </trkpt>
      <trkpt lat="45.95937" lon="4.75089">
        <ele>192</ele>
        <time>2018-01-23T11:49:32Z</time>
      </trkpt>
      <trkpt lat="45.95931" lon="4.75092">
        <ele>192</ele>
        <time>2018-01-23T11:49:34Z</time>
      </trkpt>
      <trkpt lat="45.95927" lon="4.75094">
        <ele>192</ele>
        <time>2018-01-23T11:49:35Z</time>
      </trkpt>
      <trkpt lat="45.95918" lon="4.75097">
        <ele>192</ele>
        <time>2018-01-23T11:49:37Z</time>
      </trkpt>
      <trkpt lat="45.95914" lon="4.75101">
        <ele>190</ele>
        <time>2018-01-23T11:49:38Z</time>
      </trkpt>
      <trkpt lat="45.95907" lon="4.75105">
        <ele>191</ele>
        <time>2018-01-23T11:49:40Z</time>
      </trkpt>
      <trkpt lat="45.95902" lon="4.75108">
        <ele>191</ele>
        <time>2018-01-23T11:49:41Z</time>
      </trkpt>
      <trkpt lat="45.95895" lon="4.75112">
        <ele>191</ele>
        <time>2018-01-23T11:49:43Z</time>
      </trkpt>
      <trkpt lat="45.95891" lon="4.75115">
        <ele>191</ele>
        <time>2018-01-23T11:49:44Z</time>
      </trkpt>
      <trkpt lat="45.95887" lon="4.75119">
        <ele>191</ele>
        <time>2018-01-23T11:49:45Z</time>
      </trkpt>
      <trkpt lat="45.95881" lon="4.75121">
        <ele>191</ele>
        <time>2018-01-23T11:49:46Z</time>
      </trkpt>
      <trkpt lat="45.95877" lon="4.75125">
        <ele>191</ele>
        <time>2018-01-23T11:49:47Z</time>
      </trkpt>
      <trkpt lat="45.95873" lon="4.75128">
        <ele>191</ele>
        <time>2018-01-23T11:49:48Z</time>
      </trkpt>
      <trkpt lat="45.95867" lon="4.75134">
        <ele>191</ele>
        <time>2018-01-23T11:49:50Z</time>
      </trkpt>
      <trkpt lat="45.95864" lon="4.75138">
        <ele>191</ele>
        <time>2018-01-23T11:49:51Z</time>
      </trkpt>
      <trkpt lat="45.95858" lon="4.75146">
        <ele>191</ele>
        <time>2018-01-23T11:49:53Z</time>
      </trkpt>
      <trkpt lat="45.95855" lon="4.75149">
        <ele>191</ele>
        <time>2018-01-23T11:49:54Z</time>
      </trkpt>
      <trkpt lat="45.95849" lon="4.75157">
        <ele>191</ele>
        <time>2018-01-23T11:49:56Z</time>
      </trkpt>
      <trkpt lat="45.95846" lon="4.75161">
        <ele>191</ele>
        <time>2018-01-23T11:49:57Z</time>
      </trkpt>
      <trkpt lat="45.9584" lon="4.7517">
        <ele>192</ele>
        <time>2018-01-23T11:49:59Z</time>
      </trkpt>
      <trkpt lat="45.95837" lon="4.75174">
        <ele>192</ele>
        <time>2018-01-23T11:50:00Z</time>
      </trkpt>
      <trkpt lat="45.95833" lon="4.75178">
        <ele>192</ele>
        <time>2018-01-23T11:50:01Z</time>
      </trkpt>
      <trkpt lat="45.9583" lon="4.75182">
        <ele>192</ele>
        <time>2018-01-23T11:50:02Z</time>
      </trkpt>
      <trkpt lat="45.95824" lon="4.75188">
        <ele>192</ele>
        <time>2018-01-23T11:50:03Z</time>
      </trkpt>
      <trkpt lat="45.95824" lon="4.75193">
        <ele>193</ele>
        <time>2018-01-23T11:50:04Z</time>
      </trkpt>
      <trkpt lat="45.9582" lon="4.75197">
        <ele>193</ele>
        <time>2018-01-23T11:50:05Z</time>
      </trkpt>
      <trkpt lat="45.95817" lon="4.75202">
        <ele>193</ele>
        <time>2018-01-23T11:50:06Z</time>
      </trkpt>
      <trkpt lat="45.95814" lon="4.75206">
        <ele>193</ele>
        <time>2018-01-23T11:50:07Z</time>
      </trkpt>
      <trkpt lat="45.9581" lon="4.75212">
        <ele>193</ele>
        <time>2018-01-23T11:50:08Z</time>
      </trkpt>
      <trkpt lat="45.95806" lon="4.75216">
        <ele>193</ele>
        <time>2018-01-23T11:50:09Z</time>
      </trkpt>
      <trkpt lat="45.95803" lon="4.75221">
        <ele>193</ele>
        <time>2018-01-23T11:50:10Z</time>
      </trkpt>
      <trkpt lat="45.958" lon="4.75227">
        <ele>193</ele>
        <time>2018-01-23T11:50:11Z</time>
      </trkpt>
      <trkpt lat="45.95796" lon="4.75232">
        <ele>193</ele>
        <time>2018-01-23T11:50:12Z</time>
      </trkpt>
      <trkpt lat="45.95792" lon="4.75237">
        <ele>193</ele>
        <time>2018-01-23T11:50:13Z</time>
      </trkpt>
      <trkpt lat="45.95789" lon="4.75242">
        <ele>193</ele>
        <time>2018-01-23T11:50:14Z</time>
      </trkpt>
      <trkpt lat="45.95786" lon="4.75247">
        <ele>193</ele>
        <time>2018-01-23T11:50:15Z</time>
      </trkpt>
      <trkpt lat="45.95782" lon="4.7525">
        <ele>193</ele>
        <time>2018-01-23T11:50:16Z</time>
      </trkpt>
      <trkpt lat="45.95778" lon="4.75255">
        <ele>193</ele>
        <time>2018-01-23T11:50:17Z</time>
      </trkpt>
      <trkpt lat="45.95772" lon="4.75259">
        <ele>193</ele>
        <time>2018-01-23T11:50:18Z</time>
      </trkpt>
      <trkpt lat="45.95768" lon="4.75264">
        <ele>193</ele>
        <time>2018-01-23T11:50:19Z</time>
      </trkpt>
      <trkpt lat="45.95765" lon="4.75269">
        <ele>193</ele>
        <time>2018-01-23T11:50:20Z</time>
      </trkpt>
      <trkpt lat="45.95761" lon="4.75274">
        <ele>193</ele>
        <time>2018-01-23T11:50:21Z</time>
      </trkpt>
      <trkpt lat="45.95756" lon="4.75279">
        <ele>193</ele>
        <time>2018-01-23T11:50:22Z</time>
      </trkpt>
      <trkpt lat="45.95753" lon="4.75283">
        <ele>193</ele>
        <time>2018-01-23T11:50:23Z</time>
      </trkpt>
      <trkpt lat="45.95748" lon="4.75287">
        <ele>193</ele>
        <time>2018-01-23T11:50:24Z</time>
      </trkpt>
      <trkpt lat="45.95743" lon="4.75293">
        <ele>193</ele>
        <time>2018-01-23T11:50:25Z</time>
      </trkpt>
      <trkpt lat="45.95738" lon="4.75298">
        <ele>193</ele>
        <time>2018-01-23T11:50:26Z</time>
      </trkpt>
      <trkpt lat="45.95735" lon="4.75302">
        <ele>193</ele>
        <time>2018-01-23T11:50:27Z</time>
      </trkpt>
      <trkpt lat="45.95731" lon="4.75308">
        <ele>193</ele>
        <time>2018-01-23T11:50:28Z</time>
      </trkpt>
      <trkpt lat="45.95726" lon="4.75308">
        <ele>193</ele>
        <time>2018-01-23T11:50:29Z</time>
      </trkpt>
      <trkpt lat="45.95722" lon="4.75312">
        <ele>193</ele>
        <time>2018-01-23T11:50:30Z</time>
      </trkpt>
      <trkpt lat="45.95718" lon="4.75317">
        <ele>193</ele>
        <time>2018-01-23T11:50:31Z</time>
      </trkpt>
      <trkpt lat="45.95714" lon="4.75322">
        <ele>193</ele>
        <time>2018-01-23T11:50:32Z</time>
      </trkpt>
      <trkpt lat="45.9571" lon="4.75326">
        <ele>193</ele>
        <time>2018-01-23T11:50:33Z</time>
      </trkpt>
      <trkpt lat="45.95705" lon="4.75331">
        <ele>193</ele>
        <time>2018-01-23T11:50:34Z</time>
      </trkpt>
      <trkpt lat="45.957" lon="4.75334">
        <ele>193</ele>
        <time>2018-01-23T11:50:35Z</time>
      </trkpt>
      <trkpt lat="45.95695" lon="4.75337">
        <ele>193</ele>
        <time>2018-01-23T11:50:36Z</time>
      </trkpt>
      <trkpt lat="45.95691" lon="4.75342">
        <ele>193</ele>
        <time>2018-01-23T11:50:37Z</time>
      </trkpt>
      <trkpt lat="45.95686" lon="4.75346">
        <ele>193</ele>
        <time>2018-01-23T11:50:38Z</time>
      </trkpt>
      <trkpt lat="45.95682" lon="4.7535">
        <ele>193</ele>
        <time>2018-01-23T11:50:39Z</time>
      </trkpt>
      <trkpt lat="45.95675" lon="4.75354">
        <ele>193</ele>
        <time>2018-01-23T11:50:40Z</time>
      </trkpt>
      <trkpt lat="45.95672" lon="4.75359">
        <ele>193</ele>
        <time>2018-01-23T11:50:41Z</time>
      </trkpt>
      <trkpt lat="45.95664" lon="4.75364">
        <ele>193</ele>
        <time>2018-01-23T11:50:42Z</time>
      </trkpt>
      <trkpt lat="45.95658" lon="4.7537">
        <ele>193</ele>
        <time>2018-01-23T11:50:43Z</time>
      </trkpt>
      <trkpt lat="45.95653" lon="4.75379">
        <ele>193</ele>
        <time>2018-01-23T11:50:44Z</time>
      </trkpt>
      <trkpt lat="45.95648" lon="4.75384">
        <ele>193</ele>
        <time>2018-01-23T11:50:45Z</time>
      </trkpt>
      <trkpt lat="45.95642" lon="4.75389">
        <ele>193</ele>
        <time>2018-01-23T11:50:46Z</time>
      </trkpt>
      <trkpt lat="45.95637" lon="4.75394">
        <ele>193</ele>
        <time>2018-01-23T11:50:47Z</time>
      </trkpt>
      <trkpt lat="45.95633" lon="4.754">
        <ele>193</ele>
        <time>2018-01-23T11:50:48Z</time>
      </trkpt>
      <trkpt lat="45.9563" lon="4.75406">
        <ele>193</ele>
        <time>2018-01-23T11:50:49Z</time>
      </trkpt>
      <trkpt lat="45.95624" lon="4.7541">
        <ele>193</ele>
        <time>2018-01-23T11:50:50Z</time>
      </trkpt>
      <trkpt lat="45.95618" lon="4.75415">
        <ele>193</ele>
        <time>2018-01-23T11:50:51Z</time>
      </trkpt>
      <trkpt lat="45.95606" lon="4.75417">
        <ele>192</ele>
        <time>2018-01-23T11:50:52Z</time>
      </trkpt>
      <trkpt lat="45.95599" lon="4.75421">
        <ele>192</ele>
        <time>2018-01-23T11:50:53Z</time>
      </trkpt>
      <trkpt lat="45.95592" lon="4.75425">
        <ele>192</ele>
        <time>2018-01-23T11:50:54Z</time>
      </trkpt>
      <trkpt lat="45.95584" lon="4.75428">
        <ele>192</ele>
        <time>2018-01-23T11:50:55Z</time>
      </trkpt>
      <trkpt lat="45.95577" lon="4.75433">
        <ele>190</ele>
        <time>2018-01-23T11:50:56Z</time>
      </trkpt>
      <trkpt lat="45.95569" lon="4.75438">
        <ele>189</ele>
        <time>2018-01-23T11:50:57Z</time>
      </trkpt>
      <trkpt lat="45.95561" lon="4.75442">
        <ele>189</ele>
        <time>2018-01-23T11:50:58Z</time>
      </trkpt>
      <trkpt lat="45.95555" lon="4.75445">
        <ele>188</ele>
        <time>2018-01-23T11:50:59Z</time>
      </trkpt>
      <trkpt lat="45.95546" lon="4.75447">
        <ele>188</ele>
        <time>2018-01-23T11:51:00Z</time>
      </trkpt>
      <trkpt lat="45.95537" lon="4.75449">
        <ele>187</ele>
        <time>2018-01-23T11:51:01Z</time>
      </trkpt>
      <trkpt lat="45.95529" lon="4.75448">
        <ele>187</ele>
        <time>2018-01-23T11:51:02Z</time>
      </trkpt>
      <trkpt lat="45.95522" lon="4.75444">
        <ele>187</ele>
        <time>2018-01-23T11:51:03Z</time>
      </trkpt>
      <trkpt lat="45.95516" lon="4.75437">
        <ele>187</ele>
        <time>2018-01-23T11:51:04Z</time>
      </trkpt>
      <trkpt lat="45.95513" lon="4.75427">
        <ele>186</ele>
        <time>2018-01-23T11:51:05Z</time>
      </trkpt>
      <trkpt lat="45.9551" lon="4.75418">
        <ele>186</ele>
        <time>2018-01-23T11:51:06Z</time>
      </trkpt>
      <trkpt lat="45.95508" lon="4.7541">
        <ele>187</ele>
        <time>2018-01-23T11:51:07Z</time>
      </trkpt>
      <trkpt lat="45.95505" lon="4.75403">
        <ele>187</ele>
        <time>2018-01-23T11:51:08Z</time>
      </trkpt>
      <trkpt lat="45.95503" lon="4.75395">
        <ele>188</ele>
        <time>2018-01-23T11:51:09Z</time>
      </trkpt>
      <trkpt lat="45.955" lon="4.75387">
        <ele>188</ele>
        <time>2018-01-23T11:51:10Z</time>
      </trkpt>
      <trkpt lat="45.95497" lon="4.7538">
        <ele>185</ele>
        <time>2018-01-23T11:51:11Z</time>
      </trkpt>
      <trkpt lat="45.95494" lon="4.75374">
        <ele>185</ele>
        <time>2018-01-23T11:51:12Z</time>
      </trkpt>
      <trkpt lat="45.95491" lon="4.75367">
        <ele>186</ele>
        <time>2018-01-23T11:51:13Z</time>
      </trkpt>
      <trkpt lat="45.95488" lon="4.75361">
        <ele>186</ele>
        <time>2018-01-23T11:51:14Z</time>
      </trkpt>
      <trkpt lat="45.95485" lon="4.75354">
        <ele>186</ele>
        <time>2018-01-23T11:51:15Z</time>
      </trkpt>
      <trkpt lat="45.95482" lon="4.75347">
        <ele>186</ele>
        <time>2018-01-23T11:51:16Z</time>
      </trkpt>
      <trkpt lat="45.95477" lon="4.75342">
        <ele>186</ele>
        <time>2018-01-23T11:51:17Z</time>
      </trkpt>
      <trkpt lat="45.95474" lon="4.75335">
        <ele>186</ele>
        <time>2018-01-23T11:51:18Z</time>
      </trkpt>
      <trkpt lat="45.95471" lon="4.75329">
        <ele>188</ele>
        <time>2018-01-23T11:51:19Z</time>
      </trkpt>
      <trkpt lat="45.95468" lon="4.75322">
        <ele>188</ele>
        <time>2018-01-23T11:51:20Z</time>
      </trkpt>
      <trkpt lat="45.95465" lon="4.75316">
        <ele>188</ele>
        <time>2018-01-23T11:51:21Z</time>
      </trkpt>
      <trkpt lat="45.95462" lon="4.7531">
        <ele>188</ele>
        <time>2018-01-23T11:51:22Z</time>
      </trkpt>
      <trkpt lat="45.95458" lon="4.75304">
        <ele>188</ele>
        <time>2018-01-23T11:51:23Z</time>
      </trkpt>
      <trkpt lat="45.95455" lon="4.75297">
        <ele>188</ele>
        <time>2018-01-23T11:51:24Z</time>
      </trkpt>
      <trkpt lat="45.95452" lon="4.7529">
        <ele>188</ele>
        <time>2018-01-23T11:51:25Z</time>
      </trkpt>
      <trkpt lat="45.95448" lon="4.75283">
        <ele>188</ele>
        <time>2018-01-23T11:51:26Z</time>
      </trkpt>
      <trkpt lat="45.95445" lon="4.75277">
        <ele>189</ele>
        <time>2018-01-23T11:51:27Z</time>
      </trkpt>
      <trkpt lat="45.95443" lon="4.75272">
        <ele>189</ele>
        <time>2018-01-23T11:51:28Z</time>
      </trkpt>
      <trkpt lat="45.95439" lon="4.75265">
        <ele>189</ele>
        <time>2018-01-23T11:51:29Z</time>
      </trkpt>
      <trkpt lat="45.95436" lon="4.75258">
        <ele>189</ele>
        <time>2018-01-23T11:51:30Z</time>
      </trkpt>
      <trkpt lat="45.95432" lon="4.75252">
        <ele>189</ele>
        <time>2018-01-23T11:51:31Z</time>
      </trkpt>
      <trkpt lat="45.95428" lon="4.75244">
        <ele>190</ele>
        <time>2018-01-23T11:51:32Z</time>
      </trkpt>
      <trkpt lat="45.95425" lon="4.75237">
        <ele>190</ele>
        <time>2018-01-23T11:51:33Z</time>
      </trkpt>
      <trkpt lat="45.9542" lon="4.75231">
        <ele>190</ele>
        <time>2018-01-23T11:51:34Z</time>
      </trkpt>
      <trkpt lat="45.95417" lon="4.75224">
        <ele>189</ele>
        <time>2018-01-23T11:51:35Z</time>
      </trkpt>
      <trkpt lat="45.95412" lon="4.75217">
        <ele>189</ele>
        <time>2018-01-23T11:51:36Z</time>
      </trkpt>
      <trkpt lat="45.95409" lon="4.75211">
        <ele>189</ele>
        <time>2018-01-23T11:51:37Z</time>
      </trkpt>
      <trkpt lat="45.95405" lon="4.75205">
        <ele>189</ele>
        <time>2018-01-23T11:51:38Z</time>
      </trkpt>
      <trkpt lat="45.95403" lon="4.75199">
        <ele>189</ele>
        <time>2018-01-23T11:51:39Z</time>
      </trkpt>
      <trkpt lat="45.95399" lon="4.75193">
        <ele>189</ele>
        <time>2018-01-23T11:51:40Z</time>
      </trkpt>
      <trkpt lat="45.95396" lon="4.75186">
        <ele>189</ele>
        <time>2018-01-23T11:51:41Z</time>
      </trkpt>
      <trkpt lat="45.95392" lon="4.75181">
        <ele>189</ele>
        <time>2018-01-23T11:51:42Z</time>
      </trkpt>
      <trkpt lat="45.95388" lon="4.75175">
        <ele>189</ele>
        <time>2018-01-23T11:51:43Z</time>
      </trkpt>
      <trkpt lat="45.95384" lon="4.75168">
        <ele>189</ele>
        <time>2018-01-23T11:51:44Z</time>
      </trkpt>
      <trkpt lat="45.95381" lon="4.75161">
        <ele>191</ele>
        <time>2018-01-23T11:51:45Z</time>
      </trkpt>
      <trkpt lat="45.95377" lon="4.75155">
        <ele>191</ele>
        <time>2018-01-23T11:51:46Z</time>
      </trkpt>
      <trkpt lat="45.95374" lon="4.75149">
        <ele>191</ele>
        <time>2018-01-23T11:51:47Z</time>
      </trkpt>
      <trkpt lat="45.95371" lon="4.75143">
        <ele>191</ele>
        <time>2018-01-23T11:51:48Z</time>
      </trkpt>
      <trkpt lat="45.95366" lon="4.75136">
        <ele>191</ele>
        <time>2018-01-23T11:51:49Z</time>
      </trkpt>
      <trkpt lat="45.95364" lon="4.75131">
        <ele>191</ele>
        <time>2018-01-23T11:51:50Z</time>
      </trkpt>
      <trkpt lat="45.9536" lon="4.75124">
        <ele>191</ele>
        <time>2018-01-23T11:51:51Z</time>
      </trkpt>
      <trkpt lat="45.95356" lon="4.75119">
        <ele>191</ele>
        <time>2018-01-23T11:51:52Z</time>
      </trkpt>
      <trkpt lat="45.95352" lon="4.75115">
        <ele>192</ele>
        <time>2018-01-23T11:51:53Z</time>
      </trkpt>
      <trkpt lat="45.95348" lon="4.75109">
        <ele>192</ele>
        <time>2018-01-23T11:51:54Z</time>
      </trkpt>
      <trkpt lat="45.95344" lon="4.75103">
        <ele>192</ele>
        <time>2018-01-23T11:51:55Z</time>
      </trkpt>
      <trkpt lat="45.95341" lon="4.75096">
        <ele>192</ele>
        <time>2018-01-23T11:51:56Z</time>
      </trkpt>
      <trkpt lat="45.95337" lon="4.7509">
        <ele>193</ele>
        <time>2018-01-23T11:51:57Z</time>
      </trkpt>
      <trkpt lat="45.95333" lon="4.75084">
        <ele>193</ele>
        <time>2018-01-23T11:51:58Z</time>
      </trkpt>
      <trkpt lat="45.95329" lon="4.75079">
        <ele>193</ele>
        <time>2018-01-23T11:51:59Z</time>
      </trkpt>
      <trkpt lat="45.95325" lon="4.75074">
        <ele>192</ele>
        <time>2018-01-23T11:52:00Z</time>
      </trkpt>
      <trkpt lat="45.95321" lon="4.75068">
        <ele>192</ele>
        <time>2018-01-23T11:52:01Z</time>
      </trkpt>
      <trkpt lat="45.95318" lon="4.75063">
        <ele>192</ele>
        <time>2018-01-23T11:52:02Z</time>
      </trkpt>
      <trkpt lat="45.95314" lon="4.75058">
        <ele>192</ele>
        <time>2018-01-23T11:52:03Z</time>
      </trkpt>
      <trkpt lat="45.95311" lon="4.75052">
        <ele>192</ele>
        <time>2018-01-23T11:52:04Z</time>
      </trkpt>
      <trkpt lat="45.95308" lon="4.75047">
        <ele>192</ele>
        <time>2018-01-23T11:52:05Z</time>
      </trkpt>
      <trkpt lat="45.95304" lon="4.75042">
        <ele>192</ele>
        <time>2018-01-23T11:52:06Z</time>
      </trkpt>
      <trkpt lat="45.95301" lon="4.75037">
        <ele>191</ele>
        <time>2018-01-23T11:52:07Z</time>
      </trkpt>
      <trkpt lat="45.95298" lon="4.75031">
        <ele>191</ele>
        <time>2018-01-23T11:52:08Z</time>
      </trkpt>
      <trkpt lat="45.95294" lon="4.75026">
        <ele>191</ele>
        <time>2018-01-23T11:52:09Z</time>
      </trkpt>
      <trkpt lat="45.95291" lon="4.7502">
        <ele>191</ele>
        <time>2018-01-23T11:52:10Z</time>
      </trkpt>
      <trkpt lat="45.95287" lon="4.75014">
        <ele>191</ele>
        <time>2018-01-23T11:52:11Z</time>
      </trkpt>
      <trkpt lat="45.95284" lon="4.75009">
        <ele>191</ele>
        <time>2018-01-23T11:52:12Z</time>
      </trkpt>
      <trkpt lat="45.9528" lon="4.75004">
        <ele>191</ele>
        <time>2018-01-23T11:52:13Z</time>
      </trkpt>
      <trkpt lat="45.95277" lon="4.74998">
        <ele>192</ele>
        <time>2018-01-23T11:52:14Z</time>
      </trkpt>
      <trkpt lat="45.95273" lon="4.74993">
        <ele>192</ele>
        <time>2018-01-23T11:52:15Z</time>
      </trkpt>
      <trkpt lat="45.95269" lon="4.74987">
        <ele>192</ele>
        <time>2018-01-23T11:52:16Z</time>
      </trkpt>
      <trkpt lat="45.95265" lon="4.7498">
        <ele>192</ele>
        <time>2018-01-23T11:52:17Z</time>
      </trkpt>
      <trkpt lat="45.95263" lon="4.74975">
        <ele>192</ele>
        <time>2018-01-23T11:52:18Z</time>
      </trkpt>
      <trkpt lat="45.95259" lon="4.74969">
        <ele>192</ele>
        <time>2018-01-23T11:52:19Z</time>
      </trkpt>
      <trkpt lat="45.95256" lon="4.74964">
        <ele>192</ele>
        <time>2018-01-23T11:52:20Z</time>
      </trkpt>
      <trkpt lat="45.95252" lon="4.74958">
        <ele>192</ele>
        <time>2018-01-23T11:52:21Z</time>
      </trkpt>
      <trkpt lat="45.95248" lon="4.74952">
        <ele>192</ele>
        <time>2018-01-23T11:52:22Z</time>
      </trkpt>
      <trkpt lat="45.95244" lon="4.74946">
        <ele>192</ele>
        <time>2018-01-23T11:52:23Z</time>
      </trkpt>
      <trkpt lat="45.9524" lon="4.74941">
        <ele>192</ele>
        <time>2018-01-23T11:52:24Z</time>
      </trkpt>
      <trkpt lat="45.95237" lon="4.74935">
        <ele>192</ele>
        <time>2018-01-23T11:52:25Z</time>
      </trkpt>
      <trkpt lat="45.95233" lon="4.74929">
        <ele>192</ele>
        <time>2018-01-23T11:52:26Z</time>
      </trkpt>
      <trkpt lat="45.95229" lon="4.74924">
        <ele>192</ele>
        <time>2018-01-23T11:52:27Z</time>
      </trkpt>
      <trkpt lat="45.95224" lon="4.74914">
        <ele>193</ele>
        <time>2018-01-23T11:52:29Z</time>
      </trkpt>
      <trkpt lat="45.9522" lon="4.7491">
        <ele>193</ele>
        <time>2018-01-23T11:52:30Z</time>
      </trkpt>
      <trkpt lat="45.95217" lon="4.74905">
        <ele>193</ele>
        <time>2018-01-23T11:52:31Z</time>
      </trkpt>
      <trkpt lat="45.95215" lon="4.74899">
        <ele>193</ele>
        <time>2018-01-23T11:52:32Z</time>
      </trkpt>
      <trkpt lat="45.9521" lon="4.74895">
        <ele>193</ele>
        <time>2018-01-23T11:52:33Z</time>
      </trkpt>
      <trkpt lat="45.95207" lon="4.74889">
        <ele>194</ele>
        <time>2018-01-23T11:52:34Z</time>
      </trkpt>
      <trkpt lat="45.95204" lon="4.74882">
        <ele>194</ele>
        <time>2018-01-23T11:52:35Z</time>
      </trkpt>
      <trkpt lat="45.952" lon="4.74875">
        <ele>194</ele>
        <time>2018-01-23T11:52:36Z</time>
      </trkpt>
      <trkpt lat="45.95198" lon="4.7487">
        <ele>194</ele>
        <time>2018-01-23T11:52:37Z</time>
      </trkpt>
      <trkpt lat="45.95193" lon="4.74864">
        <ele>194</ele>
        <time>2018-01-23T11:52:38Z</time>
      </trkpt>
      <trkpt lat="45.95188" lon="4.74858">
        <ele>194</ele>
        <time>2018-01-23T11:52:39Z</time>
      </trkpt>
      <trkpt lat="45.95185" lon="4.74852">
        <ele>194</ele>
        <time>2018-01-23T11:52:40Z</time>
      </trkpt>
      <trkpt lat="45.9518" lon="4.74846">
        <ele>194</ele>
        <time>2018-01-23T11:52:41Z</time>
      </trkpt>
      <trkpt lat="45.95177" lon="4.74841">
        <ele>194</ele>
        <time>2018-01-23T11:52:42Z</time>
      </trkpt>
      <trkpt lat="45.95174" lon="4.74834">
        <ele>194</ele>
        <time>2018-01-23T11:52:43Z</time>
      </trkpt>
      <trkpt lat="45.9517" lon="4.74828">
        <ele>194</ele>
        <time>2018-01-23T11:52:44Z</time>
      </trkpt>
      <trkpt lat="45.95165" lon="4.74824">
        <ele>194</ele>
        <time>2018-01-23T11:52:45Z</time>
      </trkpt>
      <trkpt lat="45.95162" lon="4.74819">
        <ele>194</ele>
        <time>2018-01-23T11:52:46Z</time>
      </trkpt>
      <trkpt lat="45.95158" lon="4.74811">
        <ele>194</ele>
        <time>2018-01-23T11:52:47Z</time>
      </trkpt>
      <trkpt lat="45.95155" lon="4.74805">
        <ele>194</ele>
        <time>2018-01-23T11:52:48Z</time>
      </trkpt>
      <trkpt lat="45.95151" lon="4.748">
        <ele>194</ele>
        <time>2018-01-23T11:52:49Z</time>
      </trkpt>
      <trkpt lat="45.95148" lon="4.74793">
        <ele>194</ele>
        <time>2018-01-23T11:52:50Z</time>
      </trkpt>
      <trkpt lat="45.95145" lon="4.74787">
        <ele>194</ele>
        <time>2018-01-23T11:52:51Z</time>
      </trkpt>
      <trkpt lat="45.95141" lon="4.74781">
        <ele>194</ele>
        <time>2018-01-23T11:52:52Z</time>
      </trkpt>
      <trkpt lat="45.95137" lon="4.74774">
        <ele>194</ele>
        <time>2018-01-23T11:52:53Z</time>
      </trkpt>
      <trkpt lat="45.95133" lon="4.74768">
        <ele>194</ele>
        <time>2018-01-23T11:52:54Z</time>
      </trkpt>
      <trkpt lat="45.9513" lon="4.74762">
        <ele>194</ele>
        <time>2018-01-23T11:52:55Z</time>
      </trkpt>
      <trkpt lat="45.95126" lon="4.74757">
        <ele>194</ele>
        <time>2018-01-23T11:52:56Z</time>
      </trkpt>
      <trkpt lat="45.95122" lon="4.74752">
        <ele>194</ele>
        <time>2018-01-23T11:52:57Z</time>
      </trkpt>
      <trkpt lat="45.95118" lon="4.74746">
        <ele>194</ele>
        <time>2018-01-23T11:52:58Z</time>
      </trkpt>
      <trkpt lat="45.95115" lon="4.74741">
        <ele>194</ele>
        <time>2018-01-23T11:52:59Z</time>
      </trkpt>
      <trkpt lat="45.95114" lon="4.74732">
        <ele>194</ele>
        <time>2018-01-23T11:53:00Z</time>
      </trkpt>
      <trkpt lat="45.95111" lon="4.74727">
        <ele>194</ele>
        <time>2018-01-23T11:53:01Z</time>
      </trkpt>
      <trkpt lat="45.95105" lon="4.7472">
        <ele>194</ele>
        <time>2018-01-23T11:53:02Z</time>
      </trkpt>
      <trkpt lat="45.95101" lon="4.74715">
        <ele>194</ele>
        <time>2018-01-23T11:53:03Z</time>
      </trkpt>
      <trkpt lat="45.95098" lon="4.7471">
        <ele>194</ele>
        <time>2018-01-23T11:53:04Z</time>
      </trkpt>
      <trkpt lat="45.95095" lon="4.74705">
        <ele>194</ele>
        <time>2018-01-23T11:53:05Z</time>
      </trkpt>
      <trkpt lat="45.9509" lon="4.74699">
        <ele>194</ele>
        <time>2018-01-23T11:53:06Z</time>
      </trkpt>
      <trkpt lat="45.95086" lon="4.74694">
        <ele>194</ele>
        <time>2018-01-23T11:53:07Z</time>
      </trkpt>
      <trkpt lat="45.95083" lon="4.74687">
        <ele>194</ele>
        <time>2018-01-23T11:53:08Z</time>
      </trkpt>
      <trkpt lat="45.95079" lon="4.74681">
        <ele>194</ele>
        <time>2018-01-23T11:53:09Z</time>
      </trkpt>
      <trkpt lat="45.95076" lon="4.74674">
        <ele>194</ele>
        <time>2018-01-23T11:53:10Z</time>
      </trkpt>
      <trkpt lat="45.95072" lon="4.74667">
        <ele>194</ele>
        <time>2018-01-23T11:53:11Z</time>
      </trkpt>
      <trkpt lat="45.9507" lon="4.74662">
        <ele>195</ele>
        <time>2018-01-23T11:53:12Z</time>
      </trkpt>
      <trkpt lat="45.95067" lon="4.74656">
        <ele>195</ele>
        <time>2018-01-23T11:53:13Z</time>
      </trkpt>
      <trkpt lat="45.95063" lon="4.74649">
        <ele>195</ele>
        <time>2018-01-23T11:53:14Z</time>
      </trkpt>
      <trkpt lat="45.95059" lon="4.74642">
        <ele>194</ele>
        <time>2018-01-23T11:53:15Z</time>
      </trkpt>
      <trkpt lat="45.95055" lon="4.74636">
        <ele>194</ele>
        <time>2018-01-23T11:53:16Z</time>
      </trkpt>
      <trkpt lat="45.95051" lon="4.74629">
        <ele>194</ele>
        <time>2018-01-23T11:53:17Z</time>
      </trkpt>
      <trkpt lat="45.95048" lon="4.74623">
        <ele>194</ele>
        <time>2018-01-23T11:53:18Z</time>
      </trkpt>
      <trkpt lat="45.95044" lon="4.74616">
        <ele>194</ele>
        <time>2018-01-23T11:53:19Z</time>
      </trkpt>
      <trkpt lat="45.9504" lon="4.74609">
        <ele>194</ele>
        <time>2018-01-23T11:53:20Z</time>
      </trkpt>
      <trkpt lat="45.95037" lon="4.74602">
        <ele>194</ele>
        <time>2018-01-23T11:53:21Z</time>
      </trkpt>
      <trkpt lat="45.95034" lon="4.74594">
        <ele>194</ele>
        <time>2018-01-23T11:53:22Z</time>
      </trkpt>
      <trkpt lat="45.9503" lon="4.74587">
        <ele>194</ele>
        <time>2018-01-23T11:53:23Z</time>
      </trkpt>
      <trkpt lat="45.95026" lon="4.7458">
        <ele>194</ele>
        <time>2018-01-23T11:53:24Z</time>
      </trkpt>
      <trkpt lat="45.95021" lon="4.74573">
        <ele>194</ele>
        <time>2018-01-23T11:53:25Z</time>
      </trkpt>
      <trkpt lat="45.95016" lon="4.74565">
        <ele>194</ele>
        <time>2018-01-23T11:53:26Z</time>
      </trkpt>
      <trkpt lat="45.95013" lon="4.74557">
        <ele>194</ele>
        <time>2018-01-23T11:53:27Z</time>
      </trkpt>
      <trkpt lat="45.9501" lon="4.7455">
        <ele>194</ele>
        <time>2018-01-23T11:53:28Z</time>
      </trkpt>
      <trkpt lat="45.95003" lon="4.74541">
        <ele>194</ele>
        <time>2018-01-23T11:53:29Z</time>
      </trkpt>
      <trkpt lat="45.94999" lon="4.74534">
        <ele>193</ele>
        <time>2018-01-23T11:53:30Z</time>
      </trkpt>
      <trkpt lat="45.94995" lon="4.74526">
        <ele>193</ele>
        <time>2018-01-23T11:53:31Z</time>
      </trkpt>
      <trkpt lat="45.9499" lon="4.74518">
        <ele>193</ele>
        <time>2018-01-23T11:53:32Z</time>
      </trkpt>
      <trkpt lat="45.94986" lon="4.74509">
        <ele>193</ele>
        <time>2018-01-23T11:53:33Z</time>
      </trkpt>
      <trkpt lat="45.94982" lon="4.745">
        <ele>193</ele>
        <time>2018-01-23T11:53:34Z</time>
      </trkpt>
      <trkpt lat="45.94978" lon="4.74493">
        <ele>193</ele>
        <time>2018-01-23T11:53:35Z</time>
      </trkpt>
      <trkpt lat="45.94974" lon="4.74484">
        <ele>193</ele>
        <time>2018-01-23T11:53:36Z</time>
      </trkpt>
      <trkpt lat="45.94969" lon="4.74476">
        <ele>193</ele>
        <time>2018-01-23T11:53:37Z</time>
      </trkpt>
      <trkpt lat="45.94965" lon="4.74467">
        <ele>193</ele>
        <time>2018-01-23T11:53:38Z</time>
      </trkpt>
      <trkpt lat="45.94961" lon="4.74459">
        <ele>193</ele>
        <time>2018-01-23T11:53:39Z</time>
      </trkpt>
      <trkpt lat="45.94956" lon="4.7445">
        <ele>192</ele>
        <time>2018-01-23T11:53:40Z</time>
      </trkpt>
      <trkpt lat="45.94952" lon="4.74441">
        <ele>192</ele>
        <time>2018-01-23T11:53:41Z</time>
      </trkpt>
      <trkpt lat="45.94948" lon="4.74433">
        <ele>192</ele>
        <time>2018-01-23T11:53:42Z</time>
      </trkpt>
      <trkpt lat="45.94944" lon="4.74425">
        <ele>192</ele>
        <time>2018-01-23T11:53:43Z</time>
      </trkpt>
      <trkpt lat="45.9494" lon="4.74417">
        <ele>192</ele>
        <time>2018-01-23T11:53:44Z</time>
      </trkpt>
      <trkpt lat="45.94936" lon="4.74408">
        <ele>192</ele>
        <time>2018-01-23T11:53:45Z</time>
      </trkpt>
      <trkpt lat="45.94932" lon="4.74399">
        <ele>192</ele>
        <time>2018-01-23T11:53:46Z</time>
      </trkpt>
      <trkpt lat="45.94927" lon="4.7439">
        <ele>192</ele>
        <time>2018-01-23T11:53:47Z</time>
      </trkpt>
      <trkpt lat="45.94923" lon="4.74382">
        <ele>192</ele>
        <time>2018-01-23T11:53:48Z</time>
      </trkpt>
      <trkpt lat="45.94918" lon="4.74374">
        <ele>192</ele>
        <time>2018-01-23T11:53:49Z</time>
      </trkpt>
      <trkpt lat="45.94913" lon="4.74366">
        <ele>191</ele>
        <time>2018-01-23T11:53:50Z</time>
      </trkpt>
      <trkpt lat="45.94911" lon="4.74355">
        <ele>191</ele>
        <time>2018-01-23T11:53:51Z</time>
      </trkpt>
      <trkpt lat="45.94905" lon="4.74348">
        <ele>191</ele>
        <time>2018-01-23T11:53:52Z</time>
      </trkpt>
      <trkpt lat="45.94901" lon="4.74339">
        <ele>191</ele>
        <time>2018-01-23T11:53:53Z</time>
      </trkpt>
      <trkpt lat="45.94896" lon="4.74331">
        <ele>191</ele>
        <time>2018-01-23T11:53:54Z</time>
      </trkpt>
      <trkpt lat="45.94892" lon="4.74324">
        <ele>191</ele>
        <time>2018-01-23T11:53:55Z</time>
      </trkpt>
      <trkpt lat="45.9489" lon="4.74315">
        <ele>191</ele>
        <time>2018-01-23T11:53:56Z</time>
      </trkpt>
      <trkpt lat="45.94884" lon="4.74308">
        <ele>191</ele>
        <time>2018-01-23T11:53:57Z</time>
      </trkpt>
      <trkpt lat="45.94881" lon="4.74299">
        <ele>191</ele>
        <time>2018-01-23T11:53:58Z</time>
      </trkpt>
      <trkpt lat="45.94876" lon="4.74292">
        <ele>191</ele>
        <time>2018-01-23T11:53:59Z</time>
      </trkpt>
      <trkpt lat="45.94873" lon="4.74285">
        <ele>191</ele>
        <time>2018-01-23T11:54:00Z</time>
      </trkpt>
      <trkpt lat="45.94869" lon="4.74279">
        <ele>191</ele>
        <time>2018-01-23T11:54:01Z</time>
      </trkpt>
      <trkpt lat="45.94865" lon="4.74271">
        <ele>190</ele>
        <time>2018-01-23T11:54:02Z</time>
      </trkpt>
      <trkpt lat="45.94861" lon="4.74262">
        <ele>190</ele>
        <time>2018-01-23T11:54:03Z</time>
      </trkpt>
      <trkpt lat="45.94857" lon="4.74255">
        <ele>190</ele>
        <time>2018-01-23T11:54:04Z</time>
      </trkpt>
      <trkpt lat="45.94852" lon="4.74248">
        <ele>190</ele>
        <time>2018-01-23T11:54:05Z</time>
      </trkpt>
      <trkpt lat="45.94848" lon="4.7424">
        <ele>190</ele>
        <time>2018-01-23T11:54:06Z</time>
      </trkpt>
      <trkpt lat="45.94845" lon="4.74231">
        <ele>190</ele>
        <time>2018-01-23T11:54:07Z</time>
      </trkpt>
      <trkpt lat="45.94839" lon="4.74224">
        <ele>190</ele>
        <time>2018-01-23T11:54:08Z</time>
      </trkpt>
      <trkpt lat="45.94834" lon="4.74215">
        <ele>190</ele>
        <time>2018-01-23T11:54:09Z</time>
      </trkpt>
      <trkpt lat="45.9483" lon="4.74208">
        <ele>189</ele>
        <time>2018-01-23T11:54:10Z</time>
      </trkpt>
      <trkpt lat="45.94826" lon="4.742">
        <ele>189</ele>
        <time>2018-01-23T11:54:11Z</time>
      </trkpt>
      <trkpt lat="45.94821" lon="4.74192">
        <ele>189</ele>
        <time>2018-01-23T11:54:12Z</time>
      </trkpt>
      <trkpt lat="45.94816" lon="4.74184">
        <ele>189</ele>
        <time>2018-01-23T11:54:13Z</time>
      </trkpt>
      <trkpt lat="45.94811" lon="4.74176">
        <ele>189</ele>
        <time>2018-01-23T11:54:14Z</time>
      </trkpt>
      <trkpt lat="45.94805" lon="4.74168">
        <ele>189</ele>
        <time>2018-01-23T11:54:15Z</time>
      </trkpt>
      <trkpt lat="45.94802" lon="4.74159">
        <ele>189</ele>
        <time>2018-01-23T11:54:16Z</time>
      </trkpt>
      <trkpt lat="45.94797" lon="4.74151">
        <ele>189</ele>
        <time>2018-01-23T11:54:17Z</time>
      </trkpt>
      <trkpt lat="45.94793" lon="4.74144">
        <ele>189</ele>
        <time>2018-01-23T11:54:18Z</time>
      </trkpt>
      <trkpt lat="45.94788" lon="4.74137">
        <ele>189</ele>
        <time>2018-01-23T11:54:19Z</time>
      </trkpt>
      <trkpt lat="45.94786" lon="4.74131">
        <ele>189</ele>
        <time>2018-01-23T11:54:20Z</time>
      </trkpt>
      <trkpt lat="45.94782" lon="4.74124">
        <ele>189</ele>
        <time>2018-01-23T11:54:21Z</time>
      </trkpt>
      <trkpt lat="45.94777" lon="4.74119">
        <ele>189</ele>
        <time>2018-01-23T11:54:22Z</time>
      </trkpt>
      <trkpt lat="45.94773" lon="4.74112">
        <ele>189</ele>
        <time>2018-01-23T11:54:23Z</time>
      </trkpt>
      <trkpt lat="45.9477" lon="4.74106">
        <ele>189</ele>
        <time>2018-01-23T11:54:24Z</time>
      </trkpt>
      <trkpt lat="45.94767" lon="4.741">
        <ele>189</ele>
        <time>2018-01-23T11:54:25Z</time>
      </trkpt>
      <trkpt lat="45.94763" lon="4.74096">
        <ele>189</ele>
        <time>2018-01-23T11:54:26Z</time>
      </trkpt>
      <trkpt lat="45.94759" lon="4.74091">
        <ele>189</ele>
        <time>2018-01-23T11:54:27Z</time>
      </trkpt>
      <trkpt lat="45.94754" lon="4.74086">
        <ele>189</ele>
        <time>2018-01-23T11:54:28Z</time>
      </trkpt>
      <trkpt lat="45.9475" lon="4.7408">
        <ele>189</ele>
        <time>2018-01-23T11:54:29Z</time>
      </trkpt>
      <trkpt lat="45.94744" lon="4.74073">
        <ele>188</ele>
        <time>2018-01-23T11:54:30Z</time>
      </trkpt>
      <trkpt lat="45.94739" lon="4.74067">
        <ele>188</ele>
        <time>2018-01-23T11:54:31Z</time>
      </trkpt>
      <trkpt lat="45.94735" lon="4.7406">
        <ele>188</ele>
        <time>2018-01-23T11:54:32Z</time>
      </trkpt>
      <trkpt lat="45.9473" lon="4.74055">
        <ele>188</ele>
        <time>2018-01-23T11:54:33Z</time>
      </trkpt>
      <trkpt lat="45.94726" lon="4.74048">
        <ele>188</ele>
        <time>2018-01-23T11:54:34Z</time>
      </trkpt>
      <trkpt lat="45.94721" lon="4.74042">
        <ele>187</ele>
        <time>2018-01-23T11:54:35Z</time>
      </trkpt>
      <trkpt lat="45.94717" lon="4.74036">
        <ele>187</ele>
        <time>2018-01-23T11:54:36Z</time>
      </trkpt>
      <trkpt lat="45.94714" lon="4.7403">
        <ele>187</ele>
        <time>2018-01-23T11:54:37Z</time>
      </trkpt>
      <trkpt lat="45.9471" lon="4.74025">
        <ele>187</ele>
        <time>2018-01-23T11:54:38Z</time>
      </trkpt>
      <trkpt lat="45.94706" lon="4.74019">
        <ele>187</ele>
        <time>2018-01-23T11:54:39Z</time>
      </trkpt>
      <trkpt lat="45.94702" lon="4.74014">
        <ele>187</ele>
        <time>2018-01-23T11:54:40Z</time>
      </trkpt>
      <trkpt lat="45.94697" lon="4.74009">
        <ele>187</ele>
        <time>2018-01-23T11:54:41Z</time>
      </trkpt>
      <trkpt lat="45.94693" lon="4.74004">
        <ele>187</ele>
        <time>2018-01-23T11:54:42Z</time>
      </trkpt>
      <trkpt lat="45.94689" lon="4.73999">
        <ele>187</ele>
        <time>2018-01-23T11:54:43Z</time>
      </trkpt>
      <trkpt lat="45.94684" lon="4.73994">
        <ele>187</ele>
        <time>2018-01-23T11:54:44Z</time>
      </trkpt>
      <trkpt lat="45.9468" lon="4.73988">
        <ele>187</ele>
        <time>2018-01-23T11:54:45Z</time>
      </trkpt>
      <trkpt lat="45.94676" lon="4.73983">
        <ele>187</ele>
        <time>2018-01-23T11:54:46Z</time>
      </trkpt>
      <trkpt lat="45.94672" lon="4.73977">
        <ele>187</ele>
        <time>2018-01-23T11:54:47Z</time>
      </trkpt>
      <trkpt lat="45.94668" lon="4.73971">
        <ele>187</ele>
        <time>2018-01-23T11:54:48Z</time>
      </trkpt>
      <trkpt lat="45.94665" lon="4.73965">
        <ele>187</ele>
        <time>2018-01-23T11:54:49Z</time>
      </trkpt>
      <trkpt lat="45.94661" lon="4.73958">
        <ele>187</ele>
        <time>2018-01-23T11:54:50Z</time>
      </trkpt>
      <trkpt lat="45.94656" lon="4.73953">
        <ele>187</ele>
        <time>2018-01-23T11:54:51Z</time>
      </trkpt>
      <trkpt lat="45.94652" lon="4.73947">
        <ele>187</ele>
        <time>2018-01-23T11:54:52Z</time>
      </trkpt>
      <trkpt lat="45.94648" lon="4.73942">
        <ele>187</ele>
        <time>2018-01-23T11:54:53Z</time>
      </trkpt>
      <trkpt lat="45.94644" lon="4.73937">
        <ele>187</ele>
        <time>2018-01-23T11:54:54Z</time>
      </trkpt>
      <trkpt lat="45.94638" lon="4.73931">
        <ele>187</ele>
        <time>2018-01-23T11:54:55Z</time>
      </trkpt>
      <trkpt lat="45.94634" lon="4.73924">
        <ele>187</ele>
        <time>2018-01-23T11:54:56Z</time>
      </trkpt>
      <trkpt lat="45.9463" lon="4.73918">
        <ele>187</ele>
        <time>2018-01-23T11:54:57Z</time>
      </trkpt>
      <trkpt lat="45.94625" lon="4.73912">
        <ele>187</ele>
        <time>2018-01-23T11:54:58Z</time>
      </trkpt>
      <trkpt lat="45.94619" lon="4.73906">
        <ele>187</ele>
        <time>2018-01-23T11:54:59Z</time>
      </trkpt>
      <trkpt lat="45.94614" lon="4.73899">
        <ele>187</ele>
        <time>2018-01-23T11:55:00Z</time>
      </trkpt>
      <trkpt lat="45.94609" lon="4.73893">
        <ele>187</ele>
        <time>2018-01-23T11:55:01Z</time>
      </trkpt>
      <trkpt lat="45.94604" lon="4.73887">
        <ele>187</ele>
        <time>2018-01-23T11:55:02Z</time>
      </trkpt>
      <trkpt lat="45.946" lon="4.73882">
        <ele>187</ele>
        <time>2018-01-23T11:55:03Z</time>
      </trkpt>
      <trkpt lat="45.94595" lon="4.73876">
        <ele>187</ele>
        <time>2018-01-23T11:55:04Z</time>
      </trkpt>
      <trkpt lat="45.94589" lon="4.7387">
        <ele>187</ele>
        <time>2018-01-23T11:55:05Z</time>
      </trkpt>
      <trkpt lat="45.94584" lon="4.73865">
        <ele>187</ele>
        <time>2018-01-23T11:55:06Z</time>
      </trkpt>
      <trkpt lat="45.94577" lon="4.73859">
        <ele>186</ele>
        <time>2018-01-23T11:55:07Z</time>
      </trkpt>
      <trkpt lat="45.94572" lon="4.73852">
        <ele>186</ele>
        <time>2018-01-23T11:55:08Z</time>
      </trkpt>
      <trkpt lat="45.94567" lon="4.73847">
        <ele>186</ele>
        <time>2018-01-23T11:55:09Z</time>
      </trkpt>
      <trkpt lat="45.94562" lon="4.73843">
        <ele>186</ele>
        <time>2018-01-23T11:55:10Z</time>
      </trkpt>
      <trkpt lat="45.94557" lon="4.73838">
        <ele>186</ele>
        <time>2018-01-23T11:55:11Z</time>
      </trkpt>
      <trkpt lat="45.94551" lon="4.73834">
        <ele>186</ele>
        <time>2018-01-23T11:55:12Z</time>
      </trkpt>
      <trkpt lat="45.94546" lon="4.73828">
        <ele>186</ele>
        <time>2018-01-23T11:55:13Z</time>
      </trkpt>
      <trkpt lat="45.94541" lon="4.73822">
        <ele>186</ele>
        <time>2018-01-23T11:55:14Z</time>
      </trkpt>
      <trkpt lat="45.94536" lon="4.73815">
        <ele>186</ele>
        <time>2018-01-23T11:55:15Z</time>
      </trkpt>
      <trkpt lat="45.94531" lon="4.7381">
        <ele>186</ele>
        <time>2018-01-23T11:55:16Z</time>
      </trkpt>
      <trkpt lat="45.94526" lon="4.73805">
        <ele>186</ele>
        <time>2018-01-23T11:55:17Z</time>
      </trkpt>
      <trkpt lat="45.94522" lon="4.73798">
        <ele>186</ele>
        <time>2018-01-23T11:55:18Z</time>
      </trkpt>
      <trkpt lat="45.94518" lon="4.73791">
        <ele>186</ele>
        <time>2018-01-23T11:55:19Z</time>
      </trkpt>
      <trkpt lat="45.94514" lon="4.73787">
        <ele>186</ele>
        <time>2018-01-23T11:55:20Z</time>
      </trkpt>
      <trkpt lat="45.9451" lon="4.73782">
        <ele>186</ele>
        <time>2018-01-23T11:55:21Z</time>
      </trkpt>
      <trkpt lat="45.94505" lon="4.73777">
        <ele>186</ele>
        <time>2018-01-23T11:55:22Z</time>
      </trkpt>
      <trkpt lat="45.94501" lon="4.73772">
        <ele>186</ele>
        <time>2018-01-23T11:55:23Z</time>
      </trkpt>
      <trkpt lat="45.94497" lon="4.73767">
        <ele>186</ele>
        <time>2018-01-23T11:55:24Z</time>
      </trkpt>
      <trkpt lat="45.94493" lon="4.73762">
        <ele>186</ele>
        <time>2018-01-23T11:55:25Z</time>
      </trkpt>
      <trkpt lat="45.9449" lon="4.73755">
        <ele>186</ele>
        <time>2018-01-23T11:55:26Z</time>
      </trkpt>
      <trkpt lat="45.94488" lon="4.73748">
        <ele>186</ele>
        <time>2018-01-23T11:55:27Z</time>
      </trkpt>
      <trkpt lat="45.94488" lon="4.73741">
        <ele>186</ele>
        <time>2018-01-23T11:55:28Z</time>
      </trkpt>
      <trkpt lat="45.9449" lon="4.73734">
        <ele>186</ele>
        <time>2018-01-23T11:55:29Z</time>
      </trkpt>
      <trkpt lat="45.9449" lon="4.73726">
        <ele>186</ele>
        <time>2018-01-23T11:55:30Z</time>
      </trkpt>
      <trkpt lat="45.94491" lon="4.73719">
        <ele>186</ele>
        <time>2018-01-23T11:55:31Z</time>
      </trkpt>
      <trkpt lat="45.94492" lon="4.73711">
        <ele>186</ele>
        <time>2018-01-23T11:55:32Z</time>
      </trkpt>
      <trkpt lat="45.94493" lon="4.73703">
        <ele>186</ele>
        <time>2018-01-23T11:55:33Z</time>
      </trkpt>
      <trkpt lat="45.94493" lon="4.73694">
        <ele>186</ele>
        <time>2018-01-23T11:55:34Z</time>
      </trkpt>
      <trkpt lat="45.94494" lon="4.73685">
        <ele>186</ele>
        <time>2018-01-23T11:55:35Z</time>
      </trkpt>
      <trkpt lat="45.94495" lon="4.73676">
        <ele>185</ele>
        <time>2018-01-23T11:55:36Z</time>
      </trkpt>
      <trkpt lat="45.94497" lon="4.73667">
        <ele>185</ele>
        <time>2018-01-23T11:55:37Z</time>
      </trkpt>
      <trkpt lat="45.94497" lon="4.73659">
        <ele>185</ele>
        <time>2018-01-23T11:55:38Z</time>
      </trkpt>
      <trkpt lat="45.94499" lon="4.73651">
        <ele>185</ele>
        <time>2018-01-23T11:55:39Z</time>
      </trkpt>
      <trkpt lat="45.945" lon="4.73642">
        <ele>186</ele>
        <time>2018-01-23T11:55:40Z</time>
      </trkpt>
      <trkpt lat="45.945" lon="4.73633">
        <ele>184</ele>
        <time>2018-01-23T11:55:41Z</time>
      </trkpt>
      <trkpt lat="45.94501" lon="4.73624">
        <ele>184</ele>
        <time>2018-01-23T11:55:42Z</time>
      </trkpt>
      <trkpt lat="45.94503" lon="4.73615">
        <ele>184</ele>
        <time>2018-01-23T11:55:43Z</time>
      </trkpt>
      <trkpt lat="45.94503" lon="4.73605">
        <ele>184</ele>
        <time>2018-01-23T11:55:44Z</time>
      </trkpt>
      <trkpt lat="45.94504" lon="4.73595">
        <ele>184</ele>
        <time>2018-01-23T11:55:45Z</time>
      </trkpt>
      <trkpt lat="45.94504" lon="4.73586">
        <ele>185</ele>
        <time>2018-01-23T11:55:46Z</time>
      </trkpt>
      <trkpt lat="45.94504" lon="4.73576">
        <ele>184</ele>
        <time>2018-01-23T11:55:47Z</time>
      </trkpt>
      <trkpt lat="45.94504" lon="4.73566">
        <ele>184</ele>
        <time>2018-01-23T11:55:48Z</time>
      </trkpt>
      <trkpt lat="45.94505" lon="4.73556">
        <ele>184</ele>
        <time>2018-01-23T11:55:49Z</time>
      </trkpt>
      <trkpt lat="45.94505" lon="4.73546">
        <ele>183</ele>
        <time>2018-01-23T11:55:50Z</time>
      </trkpt>
      <trkpt lat="45.94505" lon="4.73535">
        <ele>183</ele>
        <time>2018-01-23T11:55:51Z</time>
      </trkpt>
      <trkpt lat="45.94505" lon="4.73524">
        <ele>183</ele>
        <time>2018-01-23T11:55:52Z</time>
      </trkpt>
      <trkpt lat="45.94505" lon="4.73514">
        <ele>183</ele>
        <time>2018-01-23T11:55:53Z</time>
      </trkpt>
      <trkpt lat="45.94504" lon="4.73503">
        <ele>183</ele>
        <time>2018-01-23T11:55:54Z</time>
      </trkpt>
      <trkpt lat="45.94503" lon="4.73491">
        <ele>182</ele>
        <time>2018-01-23T11:55:55Z</time>
      </trkpt>
      <trkpt lat="45.94503" lon="4.73481">
        <ele>182</ele>
        <time>2018-01-23T11:55:56Z</time>
      </trkpt>
      <trkpt lat="45.94503" lon="4.73469">
        <ele>182</ele>
        <time>2018-01-23T11:55:57Z</time>
      </trkpt>
      <trkpt lat="45.94503" lon="4.73458">
        <ele>181</ele>
        <time>2018-01-23T11:55:58Z</time>
      </trkpt>
      <trkpt lat="45.94502" lon="4.73447">
        <ele>181</ele>
        <time>2018-01-23T11:55:59Z</time>
      </trkpt>
      <trkpt lat="45.94502" lon="4.73435">
        <ele>181</ele>
        <time>2018-01-23T11:56:00Z</time>
      </trkpt>
      <trkpt lat="45.94502" lon="4.73425">
        <ele>180</ele>
        <time>2018-01-23T11:56:01Z</time>
      </trkpt>
      <trkpt lat="45.94502" lon="4.73414">
        <ele>180</ele>
        <time>2018-01-23T11:56:02Z</time>
      </trkpt>
      <trkpt lat="45.94503" lon="4.73403">
        <ele>179</ele>
        <time>2018-01-23T11:56:03Z</time>
      </trkpt>
      <trkpt lat="45.94502" lon="4.73392">
        <ele>179</ele>
        <time>2018-01-23T11:56:04Z</time>
      </trkpt>
      <trkpt lat="45.945" lon="4.73381">
        <ele>179</ele>
        <time>2018-01-23T11:56:05Z</time>
      </trkpt>
      <trkpt lat="45.94499" lon="4.73369">
        <ele>179</ele>
        <time>2018-01-23T11:56:06Z</time>
      </trkpt>
      <trkpt lat="45.94498" lon="4.73358">
        <ele>178</ele>
        <time>2018-01-23T11:56:07Z</time>
      </trkpt>
      <trkpt lat="45.94496" lon="4.73346">
        <ele>178</ele>
        <time>2018-01-23T11:56:08Z</time>
      </trkpt>
      <trkpt lat="45.94495" lon="4.73335">
        <ele>177</ele>
        <time>2018-01-23T11:56:09Z</time>
      </trkpt>
      <trkpt lat="45.94494" lon="4.73323">
        <ele>177</ele>
        <time>2018-01-23T11:56:10Z</time>
      </trkpt>
      <trkpt lat="45.94493" lon="4.73312">
        <ele>177</ele>
        <time>2018-01-23T11:56:11Z</time>
      </trkpt>
      <trkpt lat="45.94492" lon="4.73299">
        <ele>177</ele>
        <time>2018-01-23T11:56:12Z</time>
      </trkpt>
      <trkpt lat="45.94489" lon="4.73287">
        <ele>177</ele>
        <time>2018-01-23T11:56:13Z</time>
      </trkpt>
      <trkpt lat="45.94488" lon="4.73276">
        <ele>177</ele>
        <time>2018-01-23T11:56:14Z</time>
      </trkpt>
      <trkpt lat="45.94486" lon="4.73264">
        <ele>177</ele>
        <time>2018-01-23T11:56:15Z</time>
      </trkpt>
      <trkpt lat="45.94484" lon="4.73253">
        <ele>176</ele>
        <time>2018-01-23T11:56:16Z</time>
      </trkpt>
      <trkpt lat="45.94483" lon="4.73242">
        <ele>175</ele>
        <time>2018-01-23T11:56:17Z</time>
      </trkpt>
      <trkpt lat="45.94481" lon="4.73229">
        <ele>175</ele>
        <time>2018-01-23T11:56:18Z</time>
      </trkpt>
      <trkpt lat="45.9448" lon="4.73216">
        <ele>175</ele>
        <time>2018-01-23T11:56:19Z</time>
      </trkpt>
      <trkpt lat="45.94479" lon="4.73204">
        <ele>175</ele>
        <time>2018-01-23T11:56:20Z</time>
      </trkpt>
      <trkpt lat="45.94479" lon="4.73191">
        <ele>174</ele>
        <time>2018-01-23T11:56:21Z</time>
      </trkpt>
      <trkpt lat="45.94477" lon="4.7318">
        <ele>174</ele>
        <time>2018-01-23T11:56:22Z</time>
      </trkpt>
      <trkpt lat="45.94477" lon="4.73168">
        <ele>174</ele>
        <time>2018-01-23T11:56:23Z</time>
      </trkpt>
      <trkpt lat="45.94474" lon="4.73157">
        <ele>173</ele>
        <time>2018-01-23T11:56:24Z</time>
      </trkpt>
      <trkpt lat="45.94473" lon="4.73145">
        <ele>172</ele>
        <time>2018-01-23T11:56:25Z</time>
      </trkpt>
      <trkpt lat="45.94472" lon="4.73134">
        <ele>172</ele>
        <time>2018-01-23T11:56:26Z</time>
      </trkpt>
      <trkpt lat="45.9447" lon="4.73122">
        <ele>172</ele>
        <time>2018-01-23T11:56:27Z</time>
      </trkpt>
      <trkpt lat="45.94469" lon="4.73112">
        <ele>172</ele>
        <time>2018-01-23T11:56:28Z</time>
      </trkpt>
      <trkpt lat="45.94466" lon="4.73101">
        <ele>172</ele>
        <time>2018-01-23T11:56:29Z</time>
      </trkpt>
      <trkpt lat="45.94464" lon="4.73091">
        <ele>171</ele>
        <time>2018-01-23T11:56:30Z</time>
      </trkpt>
      <trkpt lat="45.94462" lon="4.73082">
        <ele>170</ele>
        <time>2018-01-23T11:56:31Z</time>
      </trkpt>
      <trkpt lat="45.94462" lon="4.73073">
        <ele>170</ele>
        <time>2018-01-23T11:56:32Z</time>
      </trkpt>
      <trkpt lat="45.94461" lon="4.73064">
        <ele>170</ele>
        <time>2018-01-23T11:56:33Z</time>
      </trkpt>
      <trkpt lat="45.9446" lon="4.73056">
        <ele>170</ele>
        <time>2018-01-23T11:56:34Z</time>
      </trkpt>
      <trkpt lat="45.94457" lon="4.73049">
        <ele>170</ele>
        <time>2018-01-23T11:56:35Z</time>
      </trkpt>
      <trkpt lat="45.94456" lon="4.73041">
        <ele>169</ele>
        <time>2018-01-23T11:56:36Z</time>
      </trkpt>
      <trkpt lat="45.94452" lon="4.73033">
        <ele>169</ele>
        <time>2018-01-23T11:56:37Z</time>
      </trkpt>
      <trkpt lat="45.94451" lon="4.73026">
        <ele>169</ele>
        <time>2018-01-23T11:56:38Z</time>
      </trkpt>
      <trkpt lat="45.9445" lon="4.73019">
        <ele>169</ele>
        <time>2018-01-23T11:56:39Z</time>
      </trkpt>
      <trkpt lat="45.94448" lon="4.73012">
        <ele>169</ele>
        <time>2018-01-23T11:56:40Z</time>
      </trkpt>
      <trkpt lat="45.94448" lon="4.73005">
        <ele>169</ele>
        <time>2018-01-23T11:56:41Z</time>
      </trkpt>
      <trkpt lat="45.94449" lon="4.72999">
        <ele>167</ele>
        <time>2018-01-23T11:56:42Z</time>
      </trkpt>
      <trkpt lat="45.94449" lon="4.72992">
        <ele>167</ele>
        <time>2018-01-23T11:56:43Z</time>
      </trkpt>
      <trkpt lat="45.94448" lon="4.7298">
        <ele>167</ele>
        <time>2018-01-23T11:56:45Z</time>
      </trkpt>
      <trkpt lat="45.94447" lon="4.72973">
        <ele>167</ele>
        <time>2018-01-23T11:56:46Z</time>
      </trkpt>
      <trkpt lat="45.94447" lon="4.72966">
        <ele>167</ele>
        <time>2018-01-23T11:56:47Z</time>
      </trkpt>
      <trkpt lat="45.94445" lon="4.7296">
        <ele>167</ele>
        <time>2018-01-23T11:56:48Z</time>
      </trkpt>
      <trkpt lat="45.94444" lon="4.72948">
        <ele>167</ele>
        <time>2018-01-23T11:56:50Z</time>
      </trkpt>
      <trkpt lat="45.94443" lon="4.72943">
        <ele>167</ele>
        <time>2018-01-23T11:56:51Z</time>
      </trkpt>
      <trkpt lat="45.94443" lon="4.72932">
        <ele>167</ele>
        <time>2018-01-23T11:56:53Z</time>
      </trkpt>
      <trkpt lat="45.94442" lon="4.72926">
        <ele>167</ele>
        <time>2018-01-23T11:56:54Z</time>
      </trkpt>
      <trkpt lat="45.94441" lon="4.72914">
        <ele>166</ele>
        <time>2018-01-23T11:56:56Z</time>
      </trkpt>
      <trkpt lat="45.9444" lon="4.72908">
        <ele>166</ele>
        <time>2018-01-23T11:56:57Z</time>
      </trkpt>
      <trkpt lat="45.9444" lon="4.72901">
        <ele>166</ele>
        <time>2018-01-23T11:56:58Z</time>
      </trkpt>
      <trkpt lat="45.94439" lon="4.72894">
        <ele>166</ele>
        <time>2018-01-23T11:56:59Z</time>
      </trkpt>
      <trkpt lat="45.94438" lon="4.72887">
        <ele>166</ele>
        <time>2018-01-23T11:57:00Z</time>
      </trkpt>
      <trkpt lat="45.94436" lon="4.7288">
        <ele>166</ele>
        <time>2018-01-23T11:57:01Z</time>
      </trkpt>
      <trkpt lat="45.94435" lon="4.72873">
        <ele>166</ele>
        <time>2018-01-23T11:57:02Z</time>
      </trkpt>
      <trkpt lat="45.94434" lon="4.72864">
        <ele>166</ele>
        <time>2018-01-23T11:57:03Z</time>
      </trkpt>
      <trkpt lat="45.94433" lon="4.72855">
        <ele>166</ele>
        <time>2018-01-23T11:57:04Z</time>
      </trkpt>
      <trkpt lat="45.94432" lon="4.72846">
        <ele>166</ele>
        <time>2018-01-23T11:57:05Z</time>
      </trkpt>
      <trkpt lat="45.94431" lon="4.72838">
        <ele>166</ele>
        <time>2018-01-23T11:57:06Z</time>
      </trkpt>
      <trkpt lat="45.94429" lon="4.72829">
        <ele>167</ele>
        <time>2018-01-23T11:57:07Z</time>
      </trkpt>
      <trkpt lat="45.94426" lon="4.72819">
        <ele>167</ele>
        <time>2018-01-23T11:57:08Z</time>
      </trkpt>
      <trkpt lat="45.94425" lon="4.7281">
        <ele>167</ele>
        <time>2018-01-23T11:57:09Z</time>
      </trkpt>
      <trkpt lat="45.94423" lon="4.72801">
        <ele>167</ele>
        <time>2018-01-23T11:57:10Z</time>
      </trkpt>
      <trkpt lat="45.94421" lon="4.7279">
        <ele>168</ele>
        <time>2018-01-23T11:57:11Z</time>
      </trkpt>
      <trkpt lat="45.94419" lon="4.72782">
        <ele>168</ele>
        <time>2018-01-23T11:57:12Z</time>
      </trkpt>
      <trkpt lat="45.94417" lon="4.72773">
        <ele>169</ele>
        <time>2018-01-23T11:57:13Z</time>
      </trkpt>
      <trkpt lat="45.94417" lon="4.72761">
        <ele>170</ele>
        <time>2018-01-23T11:57:14Z</time>
      </trkpt>
      <trkpt lat="45.94414" lon="4.7275">
        <ele>171</ele>
        <time>2018-01-23T11:57:15Z</time>
      </trkpt>
      <trkpt lat="45.94414" lon="4.72738">
        <ele>171</ele>
        <time>2018-01-23T11:57:16Z</time>
      </trkpt>
      <trkpt lat="45.94413" lon="4.72727">
        <ele>172</ele>
        <time>2018-01-23T11:57:17Z</time>
      </trkpt>
      <trkpt lat="45.94412" lon="4.72716">
        <ele>172</ele>
        <time>2018-01-23T11:57:18Z</time>
      </trkpt>
      <trkpt lat="45.9441" lon="4.72705">
        <ele>172</ele>
        <time>2018-01-23T11:57:19Z</time>
      </trkpt>
      <trkpt lat="45.94409" lon="4.72694">
        <ele>173</ele>
        <time>2018-01-23T11:57:20Z</time>
      </trkpt>
      <trkpt lat="45.94407" lon="4.72683">
        <ele>173</ele>
        <time>2018-01-23T11:57:21Z</time>
      </trkpt>
      <trkpt lat="45.94406" lon="4.72673">
        <ele>173</ele>
        <time>2018-01-23T11:57:22Z</time>
      </trkpt>
      <trkpt lat="45.94405" lon="4.72661">
        <ele>174</ele>
        <time>2018-01-23T11:57:23Z</time>
      </trkpt>
      <trkpt lat="45.94403" lon="4.72651">
        <ele>174</ele>
        <time>2018-01-23T11:57:24Z</time>
      </trkpt>
      <trkpt lat="45.94401" lon="4.72641">
        <ele>174</ele>
        <time>2018-01-23T11:57:25Z</time>
      </trkpt>
      <trkpt lat="45.94399" lon="4.72631">
        <ele>174</ele>
        <time>2018-01-23T11:57:26Z</time>
      </trkpt>
      <trkpt lat="45.94399" lon="4.72621">
        <ele>173</ele>
        <time>2018-01-23T11:57:27Z</time>
      </trkpt>
      <trkpt lat="45.94399" lon="4.72612">
        <ele>173</ele>
        <time>2018-01-23T11:57:28Z</time>
      </trkpt>
      <trkpt lat="45.94399" lon="4.72602">
        <ele>173</ele>
        <time>2018-01-23T11:57:29Z</time>
      </trkpt>
      <trkpt lat="45.94399" lon="4.72593">
        <ele>173</ele>
        <time>2018-01-23T11:57:30Z</time>
      </trkpt>
      <trkpt lat="45.94398" lon="4.72583">
        <ele>173</ele>
        <time>2018-01-23T11:57:31Z</time>
      </trkpt>
      <trkpt lat="45.94397" lon="4.72575">
        <ele>173</ele>
        <time>2018-01-23T11:57:32Z</time>
      </trkpt>
      <trkpt lat="45.94396" lon="4.72566">
        <ele>173</ele>
        <time>2018-01-23T11:57:33Z</time>
      </trkpt>
      <trkpt lat="45.94395" lon="4.72557">
        <ele>173</ele>
        <time>2018-01-23T11:57:34Z</time>
      </trkpt>
      <trkpt lat="45.94394" lon="4.72549">
        <ele>173</ele>
        <time>2018-01-23T11:57:35Z</time>
      </trkpt>
      <trkpt lat="45.94392" lon="4.72541">
        <ele>174</ele>
        <time>2018-01-23T11:57:36Z</time>
      </trkpt>
      <trkpt lat="45.9439" lon="4.72533">
        <ele>174</ele>
        <time>2018-01-23T11:57:37Z</time>
      </trkpt>
      <trkpt lat="45.94389" lon="4.72527">
        <ele>174</ele>
        <time>2018-01-23T11:57:38Z</time>
      </trkpt>
      <trkpt lat="45.94388" lon="4.72519">
        <ele>174</ele>
        <time>2018-01-23T11:57:39Z</time>
      </trkpt>
      <trkpt lat="45.94385" lon="4.72512">
        <ele>174</ele>
        <time>2018-01-23T11:57:40Z</time>
      </trkpt>
      <trkpt lat="45.94383" lon="4.72505">
        <ele>174</ele>
        <time>2018-01-23T11:57:41Z</time>
      </trkpt>
      <trkpt lat="45.94381" lon="4.72498">
        <ele>173</ele>
        <time>2018-01-23T11:57:42Z</time>
      </trkpt>
      <trkpt lat="45.94378" lon="4.7249">
        <ele>173</ele>
        <time>2018-01-23T11:57:43Z</time>
      </trkpt>
      <trkpt lat="45.94375" lon="4.72484">
        <ele>173</ele>
        <time>2018-01-23T11:57:44Z</time>
      </trkpt>
      <trkpt lat="45.94372" lon="4.72476">
        <ele>173</ele>
        <time>2018-01-23T11:57:45Z</time>
      </trkpt>
      <trkpt lat="45.94367" lon="4.72468">
        <ele>173</ele>
        <time>2018-01-23T11:57:46Z</time>
      </trkpt>
      <trkpt lat="45.94365" lon="4.72461">
        <ele>173</ele>
        <time>2018-01-23T11:57:47Z</time>
      </trkpt>
      <trkpt lat="45.94361" lon="4.72453">
        <ele>173</ele>
        <time>2018-01-23T11:57:48Z</time>
      </trkpt>
      <trkpt lat="45.94359" lon="4.72444">
        <ele>173</ele>
        <time>2018-01-23T11:57:49Z</time>
      </trkpt>
      <trkpt lat="45.94356" lon="4.72436">
        <ele>173</ele>
        <time>2018-01-23T11:57:50Z</time>
      </trkpt>
      <trkpt lat="45.94352" lon="4.72428">
        <ele>173</ele>
        <time>2018-01-23T11:57:51Z</time>
      </trkpt>
      <trkpt lat="45.94349" lon="4.7242">
        <ele>173</ele>
        <time>2018-01-23T11:57:52Z</time>
      </trkpt>
      <trkpt lat="45.94345" lon="4.72412">
        <ele>173</ele>
        <time>2018-01-23T11:57:53Z</time>
      </trkpt>
      <trkpt lat="45.94341" lon="4.72404">
        <ele>173</ele>
        <time>2018-01-23T11:57:54Z</time>
      </trkpt>
      <trkpt lat="45.94338" lon="4.72396">
        <ele>172</ele>
        <time>2018-01-23T11:57:55Z</time>
      </trkpt>
      <trkpt lat="45.94334" lon="4.72391">
        <ele>172</ele>
        <time>2018-01-23T11:57:56Z</time>
      </trkpt>
      <trkpt lat="45.9433" lon="4.72385">
        <ele>172</ele>
        <time>2018-01-23T11:57:57Z</time>
      </trkpt>
      <trkpt lat="45.94328" lon="4.72379">
        <ele>172</ele>
        <time>2018-01-23T11:57:58Z</time>
      </trkpt>
      <trkpt lat="45.94326" lon="4.72372">
        <ele>172</ele>
        <time>2018-01-23T11:57:59Z</time>
      </trkpt>
      <trkpt lat="45.94322" lon="4.72365">
        <ele>172</ele>
        <time>2018-01-23T11:58:00Z</time>
      </trkpt>
      <trkpt lat="45.94319" lon="4.72358">
        <ele>172</ele>
        <time>2018-01-23T11:58:01Z</time>
      </trkpt>
      <trkpt lat="45.94316" lon="4.72349">
        <ele>172</ele>
        <time>2018-01-23T11:58:02Z</time>
      </trkpt>
      <trkpt lat="45.94313" lon="4.72342">
        <ele>172</ele>
        <time>2018-01-23T11:58:03Z</time>
      </trkpt>
      <trkpt lat="45.9431" lon="4.72334">
        <ele>172</ele>
        <time>2018-01-23T11:58:04Z</time>
      </trkpt>
      <trkpt lat="45.94307" lon="4.72328">
        <ele>171</ele>
        <time>2018-01-23T11:58:05Z</time>
      </trkpt>
      <trkpt lat="45.94303" lon="4.7232">
        <ele>171</ele>
        <time>2018-01-23T11:58:06Z</time>
      </trkpt>
      <trkpt lat="45.94299" lon="4.72312">
        <ele>171</ele>
        <time>2018-01-23T11:58:07Z</time>
      </trkpt>
      <trkpt lat="45.94295" lon="4.72304">
        <ele>171</ele>
        <time>2018-01-23T11:58:08Z</time>
      </trkpt>
      <trkpt lat="45.94292" lon="4.72297">
        <ele>171</ele>
        <time>2018-01-23T11:58:09Z</time>
      </trkpt>
      <trkpt lat="45.94288" lon="4.7229">
        <ele>171</ele>
        <time>2018-01-23T11:58:10Z</time>
      </trkpt>
      <trkpt lat="45.94283" lon="4.72283">
        <ele>171</ele>
        <time>2018-01-23T11:58:11Z</time>
      </trkpt>
      <trkpt lat="45.9428" lon="4.72277">
        <ele>171</ele>
        <time>2018-01-23T11:58:12Z</time>
      </trkpt>
      <trkpt lat="45.94275" lon="4.72274">
        <ele>171</ele>
        <time>2018-01-23T11:58:13Z</time>
      </trkpt>
      <trkpt lat="45.94269" lon="4.72274">
        <ele>171</ele>
        <time>2018-01-23T11:58:14Z</time>
      </trkpt>
      <trkpt lat="45.94262" lon="4.72276">
        <ele>171</ele>
        <time>2018-01-23T11:58:15Z</time>
      </trkpt>
      <trkpt lat="45.94257" lon="4.72278">
        <ele>171</ele>
        <time>2018-01-23T11:58:16Z</time>
      </trkpt>
      <trkpt lat="45.9425" lon="4.72279">
        <ele>171</ele>
        <time>2018-01-23T11:58:17Z</time>
      </trkpt>
      <trkpt lat="45.94244" lon="4.7228">
        <ele>171</ele>
        <time>2018-01-23T11:58:18Z</time>
      </trkpt>
      <trkpt lat="45.9424" lon="4.72283">
        <ele>171</ele>
        <time>2018-01-23T11:58:19Z</time>
      </trkpt>
      <trkpt lat="45.94233" lon="4.72286">
        <ele>171</ele>
        <time>2018-01-23T11:58:20Z</time>
      </trkpt>
      <trkpt lat="45.94228" lon="4.72289">
        <ele>171</ele>
        <time>2018-01-23T11:58:21Z</time>
      </trkpt>
      <trkpt lat="45.94222" lon="4.7229">
        <ele>171</ele>
        <time>2018-01-23T11:58:22Z</time>
      </trkpt>
      <trkpt lat="45.94218" lon="4.72292">
        <ele>171</ele>
        <time>2018-01-23T11:58:23Z</time>
      </trkpt>
      <trkpt lat="45.94212" lon="4.72291">
        <ele>171</ele>
        <time>2018-01-23T11:58:24Z</time>
      </trkpt>
      <trkpt lat="45.94206" lon="4.72291">
        <ele>171</ele>
        <time>2018-01-23T11:58:25Z</time>
      </trkpt>
      <trkpt lat="45.942" lon="4.72291">
        <ele>171</ele>
        <time>2018-01-23T11:58:26Z</time>
      </trkpt>
      <trkpt lat="45.94193" lon="4.72291">
        <ele>171</ele>
        <time>2018-01-23T11:58:27Z</time>
      </trkpt>
      <trkpt lat="45.94188" lon="4.7229">
        <ele>171</ele>
        <time>2018-01-23T11:58:28Z</time>
      </trkpt>
      <trkpt lat="45.94182" lon="4.7229">
        <ele>171</ele>
        <time>2018-01-23T11:58:29Z</time>
      </trkpt>
      <trkpt lat="45.94175" lon="4.72289">
        <ele>171</ele>
        <time>2018-01-23T11:58:30Z</time>
      </trkpt>
      <trkpt lat="45.94171" lon="4.72288">
        <ele>171</ele>
        <time>2018-01-23T11:58:31Z</time>
      </trkpt>
      <trkpt lat="45.94166" lon="4.72287">
        <ele>171</ele>
        <time>2018-01-23T11:58:32Z</time>
      </trkpt>
      <trkpt lat="45.94161" lon="4.72285">
        <ele>171</ele>
        <time>2018-01-23T11:58:33Z</time>
      </trkpt>
      <trkpt lat="45.94156" lon="4.72284">
        <ele>171</ele>
        <time>2018-01-23T11:58:34Z</time>
      </trkpt>
      <trkpt lat="45.94151" lon="4.72281">
        <ele>171</ele>
        <time>2018-01-23T11:58:35Z</time>
      </trkpt>
      <trkpt lat="45.94146" lon="4.72279">
        <ele>171</ele>
        <time>2018-01-23T11:58:36Z</time>
      </trkpt>
      <trkpt lat="45.94141" lon="4.72277">
        <ele>171</ele>
        <time>2018-01-23T11:58:37Z</time>
      </trkpt>
      <trkpt lat="45.94136" lon="4.72274">
        <ele>171</ele>
        <time>2018-01-23T11:58:38Z</time>
      </trkpt>
      <trkpt lat="45.94132" lon="4.72271">
        <ele>171</ele>
        <time>2018-01-23T11:58:39Z</time>
      </trkpt>
      <trkpt lat="45.94126" lon="4.72267">
        <ele>171</ele>
        <time>2018-01-23T11:58:40Z</time>
      </trkpt>
      <trkpt lat="45.9412" lon="4.72265">
        <ele>171</ele>
        <time>2018-01-23T11:58:41Z</time>
      </trkpt>
      <trkpt lat="45.94114" lon="4.72264">
        <ele>171</ele>
        <time>2018-01-23T11:58:42Z</time>
      </trkpt>
      <trkpt lat="45.94108" lon="4.72264">
        <ele>171</ele>
        <time>2018-01-23T11:58:43Z</time>
      </trkpt>
      <trkpt lat="45.94103" lon="4.72264">
        <ele>171</ele>
        <time>2018-01-23T11:58:44Z</time>
      </trkpt>
      <trkpt lat="45.94097" lon="4.72264">
        <ele>171</ele>
        <time>2018-01-23T11:58:45Z</time>
      </trkpt>
      <trkpt lat="45.94092" lon="4.72266">
        <ele>171</ele>
        <time>2018-01-23T11:58:46Z</time>
      </trkpt>
      <trkpt lat="45.94086" lon="4.72268">
        <ele>171</ele>
        <time>2018-01-23T11:58:47Z</time>
      </trkpt>
      <trkpt lat="45.94081" lon="4.72272">
        <ele>171</ele>
        <time>2018-01-23T11:58:48Z</time>
      </trkpt>
      <trkpt lat="45.94076" lon="4.72275">
        <ele>171</ele>
        <time>2018-01-23T11:58:49Z</time>
      </trkpt>
      <trkpt lat="45.9407" lon="4.72279">
        <ele>171</ele>
        <time>2018-01-23T11:58:50Z</time>
      </trkpt>
      <trkpt lat="45.94065" lon="4.72284">
        <ele>171</ele>
        <time>2018-01-23T11:58:51Z</time>
      </trkpt>
      <trkpt lat="45.94061" lon="4.7229">
        <ele>171</ele>
        <time>2018-01-23T11:58:52Z</time>
      </trkpt>
      <trkpt lat="45.94056" lon="4.72295">
        <ele>171</ele>
        <time>2018-01-23T11:58:53Z</time>
      </trkpt>
      <trkpt lat="45.94053" lon="4.72301">
        <ele>171</ele>
        <time>2018-01-23T11:58:54Z</time>
      </trkpt>
      <trkpt lat="45.94049" lon="4.72307">
        <ele>171</ele>
        <time>2018-01-23T11:58:55Z</time>
      </trkpt>
      <trkpt lat="45.94045" lon="4.72314">
        <ele>171</ele>
        <time>2018-01-23T11:58:56Z</time>
      </trkpt>
      <trkpt lat="45.9404" lon="4.72319">
        <ele>171</ele>
        <time>2018-01-23T11:58:57Z</time>
      </trkpt>
      <trkpt lat="45.94036" lon="4.72325">
        <ele>171</ele>
        <time>2018-01-23T11:58:58Z</time>
      </trkpt>
      <trkpt lat="45.94032" lon="4.72331">
        <ele>171</ele>
        <time>2018-01-23T11:58:59Z</time>
      </trkpt>
      <trkpt lat="45.94027" lon="4.72337">
        <ele>171</ele>
        <time>2018-01-23T11:59:00Z</time>
      </trkpt>
      <trkpt lat="45.94021" lon="4.72342">
        <ele>171</ele>
        <time>2018-01-23T11:59:01Z</time>
      </trkpt>
      <trkpt lat="45.94016" lon="4.72349">
        <ele>171</ele>
        <time>2018-01-23T11:59:02Z</time>
      </trkpt>
      <trkpt lat="45.94013" lon="4.72358">
        <ele>171</ele>
        <time>2018-01-23T11:59:03Z</time>
      </trkpt>
      <trkpt lat="45.94008" lon="4.72363">
        <ele>171</ele>
        <time>2018-01-23T11:59:04Z</time>
      </trkpt>
      <trkpt lat="45.94003" lon="4.7237">
        <ele>171</ele>
        <time>2018-01-23T11:59:05Z</time>
      </trkpt>
      <trkpt lat="45.93998" lon="4.72376">
        <ele>171</ele>
        <time>2018-01-23T11:59:06Z</time>
      </trkpt>
      <trkpt lat="45.93993" lon="4.72381">
        <ele>171</ele>
        <time>2018-01-23T11:59:07Z</time>
      </trkpt>
      <trkpt lat="45.93988" lon="4.72388">
        <ele>171</ele>
        <time>2018-01-23T11:59:08Z</time>
      </trkpt>
      <trkpt lat="45.93982" lon="4.72394">
        <ele>171</ele>
        <time>2018-01-23T11:59:09Z</time>
      </trkpt>
      <trkpt lat="45.93978" lon="4.72398">
        <ele>171</ele>
        <time>2018-01-23T11:59:10Z</time>
      </trkpt>
      <trkpt lat="45.93973" lon="4.72403">
        <ele>171</ele>
        <time>2018-01-23T11:59:11Z</time>
      </trkpt>
      <trkpt lat="45.93968" lon="4.72409">
        <ele>171</ele>
        <time>2018-01-23T11:59:12Z</time>
      </trkpt>
      <trkpt lat="45.93963" lon="4.72413">
        <ele>171</ele>
        <time>2018-01-23T11:59:13Z</time>
      </trkpt>
      <trkpt lat="45.93959" lon="4.72419">
        <ele>171</ele>
        <time>2018-01-23T11:59:14Z</time>
      </trkpt>
      <trkpt lat="45.93954" lon="4.72423">
        <ele>171</ele>
        <time>2018-01-23T11:59:15Z</time>
      </trkpt>
      <trkpt lat="45.93949" lon="4.72428">
        <ele>171</ele>
        <time>2018-01-23T11:59:16Z</time>
      </trkpt>
      <trkpt lat="45.93945" lon="4.72433">
        <ele>171</ele>
        <time>2018-01-23T11:59:17Z</time>
      </trkpt>
      <trkpt lat="45.93941" lon="4.72439">
        <ele>171</ele>
        <time>2018-01-23T11:59:18Z</time>
      </trkpt>
      <trkpt lat="45.93936" lon="4.72444">
        <ele>171</ele>
        <time>2018-01-23T11:59:19Z</time>
      </trkpt>
      <trkpt lat="45.93932" lon="4.7245">
        <ele>171</ele>
        <time>2018-01-23T11:59:20Z</time>
      </trkpt>
      <trkpt lat="45.93928" lon="4.72456">
        <ele>171</ele>
        <time>2018-01-23T11:59:21Z</time>
      </trkpt>
      <trkpt lat="45.93922" lon="4.72461">
        <ele>171</ele>
        <time>2018-01-23T11:59:22Z</time>
      </trkpt>
      <trkpt lat="45.93918" lon="4.72466">
        <ele>171</ele>
        <time>2018-01-23T11:59:23Z</time>
      </trkpt>
      <trkpt lat="45.93913" lon="4.72471">
        <ele>172</ele>
        <time>2018-01-23T11:59:24Z</time>
      </trkpt>
      <trkpt lat="45.9391" lon="4.72477">
        <ele>172</ele>
        <time>2018-01-23T11:59:25Z</time>
      </trkpt>
      <trkpt lat="45.93906" lon="4.72483">
        <ele>172</ele>
        <time>2018-01-23T11:59:26Z</time>
      </trkpt>
      <trkpt lat="45.93902" lon="4.72489">
        <ele>172</ele>
        <time>2018-01-23T11:59:27Z</time>
      </trkpt>
      <trkpt lat="45.93898" lon="4.72495">
        <ele>172</ele>
        <time>2018-01-23T11:59:28Z</time>
      </trkpt>
      <trkpt lat="45.93894" lon="4.725">
        <ele>172</ele>
        <time>2018-01-23T11:59:29Z</time>
      </trkpt>
      <trkpt lat="45.9389" lon="4.72505">
        <ele>173</ele>
        <time>2018-01-23T11:59:30Z</time>
      </trkpt>
      <trkpt lat="45.93885" lon="4.7251">
        <ele>173</ele>
        <time>2018-01-23T11:59:31Z</time>
      </trkpt>
      <trkpt lat="45.9388" lon="4.72515">
        <ele>173</ele>
        <time>2018-01-23T11:59:32Z</time>
      </trkpt>
      <trkpt lat="45.93875" lon="4.72518">
        <ele>173</ele>
        <time>2018-01-23T11:59:33Z</time>
      </trkpt>
      <trkpt lat="45.9387" lon="4.72519">
        <ele>173</ele>
        <time>2018-01-23T11:59:34Z</time>
      </trkpt>
      <trkpt lat="45.93864" lon="4.72517">
        <ele>173</ele>
        <time>2018-01-23T11:59:35Z</time>
      </trkpt>
      <trkpt lat="45.93859" lon="4.72512">
        <ele>173</ele>
        <time>2018-01-23T11:59:36Z</time>
      </trkpt>
      <trkpt lat="45.93846" lon="4.72507">
        <ele>174</ele>
        <time>2018-01-23T11:59:42Z</time>
      </trkpt>
      <trkpt lat="45.93846" lon="4.72476">
        <ele>173</ele>
        <time>2018-01-23T11:59:43Z</time>
      </trkpt>
      <trkpt lat="45.93841" lon="4.72478">
        <ele>173</ele>
        <time>2018-01-23T11:59:44Z</time>
      </trkpt>
      <trkpt lat="45.93823" lon="4.7247">
        <ele>172</ele>
        <time>2018-01-23T11:59:45Z</time>
      </trkpt>
      <trkpt lat="45.93818" lon="4.72466">
        <ele>172</ele>
        <time>2018-01-23T11:59:46Z</time>
      </trkpt>
      <trkpt lat="45.93814" lon="4.72463">
        <ele>172</ele>
        <time>2018-01-23T11:59:47Z</time>
      </trkpt>
      <trkpt lat="45.93807" lon="4.7246">
        <ele>172</ele>
        <time>2018-01-23T11:59:48Z</time>
      </trkpt>
      <trkpt lat="45.93802" lon="4.72459">
        <ele>172</ele>
        <time>2018-01-23T11:59:49Z</time>
      </trkpt>
      <trkpt lat="45.93798" lon="4.72457">
        <ele>172</ele>
        <time>2018-01-23T11:59:50Z</time>
      </trkpt>
      <trkpt lat="45.93793" lon="4.72453">
        <ele>172</ele>
        <time>2018-01-23T11:59:51Z</time>
      </trkpt>
      <trkpt lat="45.9379" lon="4.72447">
        <ele>172</ele>
        <time>2018-01-23T11:59:52Z</time>
      </trkpt>
      <trkpt lat="45.93783" lon="4.72442">
        <ele>172</ele>
        <time>2018-01-23T11:59:53Z</time>
      </trkpt>
      <trkpt lat="45.9378" lon="4.72437">
        <ele>172</ele>
        <time>2018-01-23T11:59:54Z</time>
      </trkpt>
      <trkpt lat="45.93775" lon="4.72433">
        <ele>171</ele>
        <time>2018-01-23T11:59:55Z</time>
      </trkpt>
      <trkpt lat="45.9377" lon="4.7243">
        <ele>171</ele>
        <time>2018-01-23T11:59:56Z</time>
      </trkpt>
      <trkpt lat="45.93766" lon="4.72426">
        <ele>171</ele>
        <time>2018-01-23T11:59:57Z</time>
      </trkpt>
      <trkpt lat="45.93763" lon="4.72421">
        <ele>171</ele>
        <time>2018-01-23T11:59:58Z</time>
      </trkpt>
      <trkpt lat="45.93758" lon="4.72418">
        <ele>171</ele>
        <time>2018-01-23T11:59:59Z</time>
      </trkpt>
      <trkpt lat="45.93754" lon="4.72413">
        <ele>171</ele>
        <time>2018-01-23T12:00:00Z</time>
      </trkpt>
      <trkpt lat="45.9375" lon="4.72408">
        <ele>171</ele>
        <time>2018-01-23T12:00:01Z</time>
      </trkpt>
      <trkpt lat="45.93744" lon="4.72404">
        <ele>171</ele>
        <time>2018-01-23T12:00:02Z</time>
      </trkpt>
      <trkpt lat="45.9374" lon="4.72399">
        <ele>171</ele>
        <time>2018-01-23T12:00:03Z</time>
      </trkpt>
      <trkpt lat="45.93734" lon="4.72395">
        <ele>171</ele>
        <time>2018-01-23T12:00:04Z</time>
      </trkpt>
      <trkpt lat="45.9373" lon="4.72391">
        <ele>171</ele>
        <time>2018-01-23T12:00:05Z</time>
      </trkpt>
      <trkpt lat="45.93726" lon="4.72388">
        <ele>171</ele>
        <time>2018-01-23T12:00:06Z</time>
      </trkpt>
      <trkpt lat="45.93722" lon="4.72382">
        <ele>171</ele>
        <time>2018-01-23T12:00:07Z</time>
      </trkpt>
      <trkpt lat="45.93717" lon="4.72372">
        <ele>172</ele>
        <time>2018-01-23T12:00:09Z</time>
      </trkpt>
      <trkpt lat="45.93713" lon="4.72368">
        <ele>172</ele>
        <time>2018-01-23T12:00:10Z</time>
      </trkpt>
      <trkpt lat="45.93708" lon="4.72364">
        <ele>171</ele>
        <time>2018-01-23T12:00:11Z</time>
      </trkpt>
      <trkpt lat="45.93704" lon="4.7236">
        <ele>171</ele>
        <time>2018-01-23T12:00:12Z</time>
      </trkpt>
      <trkpt lat="45.93702" lon="4.72356">
        <ele>171</ele>
        <time>2018-01-23T12:00:14Z</time>
      </trkpt>
      <trkpt lat="45.93696" lon="4.72354">
        <ele>171</ele>
        <time>2018-01-23T12:00:15Z</time>
      </trkpt>
      <trkpt lat="45.9369" lon="4.72348">
        <ele>171</ele>
        <time>2018-01-23T12:00:16Z</time>
      </trkpt>
      <trkpt lat="45.93686" lon="4.72343">
        <ele>171</ele>
        <time>2018-01-23T12:00:17Z</time>
      </trkpt>
      <trkpt lat="45.93681" lon="4.72338">
        <ele>171</ele>
        <time>2018-01-23T12:00:18Z</time>
      </trkpt>
      <trkpt lat="45.93679" lon="4.72333">
        <ele>171</ele>
        <time>2018-01-23T12:00:19Z</time>
      </trkpt>
      <trkpt lat="45.93674" lon="4.72327">
        <ele>171</ele>
        <time>2018-01-23T12:00:20Z</time>
      </trkpt>
      <trkpt lat="45.9367" lon="4.72323">
        <ele>171</ele>
        <time>2018-01-23T12:00:21Z</time>
      </trkpt>
      <trkpt lat="45.93666" lon="4.72317">
        <ele>172</ele>
        <time>2018-01-23T12:00:22Z</time>
      </trkpt>
      <trkpt lat="45.93661" lon="4.72311">
        <ele>172</ele>
        <time>2018-01-23T12:00:23Z</time>
      </trkpt>
      <trkpt lat="45.93657" lon="4.72305">
        <ele>172</ele>
        <time>2018-01-23T12:00:24Z</time>
      </trkpt>
      <trkpt lat="45.93652" lon="4.723">
        <ele>172</ele>
        <time>2018-01-23T12:00:25Z</time>
      </trkpt>
      <trkpt lat="45.93648" lon="4.72296">
        <ele>172</ele>
        <time>2018-01-23T12:00:26Z</time>
      </trkpt>
      <trkpt lat="45.93641" lon="4.72291">
        <ele>172</ele>
        <time>2018-01-23T12:00:27Z</time>
      </trkpt>
      <trkpt lat="45.93637" lon="4.72287">
        <ele>172</ele>
        <time>2018-01-23T12:00:28Z</time>
      </trkpt>
      <trkpt lat="45.93633" lon="4.72284">
        <ele>172</ele>
        <time>2018-01-23T12:00:29Z</time>
      </trkpt>
      <trkpt lat="45.93628" lon="4.7228">
        <ele>172</ele>
        <time>2018-01-23T12:00:30Z</time>
      </trkpt>
      <trkpt lat="45.93625" lon="4.72276">
        <ele>172</ele>
        <time>2018-01-23T12:00:31Z</time>
      </trkpt>
      <trkpt lat="45.9362" lon="4.72272">
        <ele>172</ele>
        <time>2018-01-23T12:00:32Z</time>
      </trkpt>
      <trkpt lat="45.93616" lon="4.72268">
        <ele>172</ele>
        <time>2018-01-23T12:00:33Z</time>
      </trkpt>
      <trkpt lat="45.93609" lon="4.72261">
        <ele>172</ele>
        <time>2018-01-23T12:00:35Z</time>
      </trkpt>
      <trkpt lat="45.93607" lon="4.72258">
        <ele>173</ele>
        <time>2018-01-23T12:00:36Z</time>
      </trkpt>
      <trkpt lat="45.93602" lon="4.72252">
        <ele>173</ele>
        <time>2018-01-23T12:00:39Z</time>
      </trkpt>
      <trkpt lat="45.93599" lon="4.72252">
        <ele>173</ele>
        <time>2018-01-23T12:00:40Z</time>
      </trkpt>
      <trkpt lat="45.93595" lon="4.72242">
        <ele>173</ele>
        <time>2018-01-23T12:00:48Z</time>
      </trkpt>
      <trkpt lat="45.93594" lon="4.72241">
        <ele>173</ele>
        <time>2018-01-23T12:00:49Z</time>
      </trkpt>
      <trkpt lat="45.93586" lon="4.72239">
        <ele>173</ele>
        <time>2018-01-23T12:00:55Z</time>
      </trkpt>
      <trkpt lat="45.93585" lon="4.72238">
        <ele>173</ele>
        <time>2018-01-23T12:00:56Z</time>
      </trkpt>
      <trkpt lat="45.93578" lon="4.72235">
        <ele>173</ele>
        <time>2018-01-23T12:01:07Z</time>
      </trkpt>
      <trkpt lat="45.93577" lon="4.72236">
        <ele>173</ele>
        <time>2018-01-23T12:01:08Z</time>
      </trkpt>
      <trkpt lat="45.93577" lon="4.72238">
        <ele>173</ele>
        <time>2018-01-23T12:01:11Z</time>
      </trkpt>
      <trkpt lat="45.93577" lon="4.72239">
        <ele>173</ele>
        <time>2018-01-23T12:01:12Z</time>
      </trkpt>
      <trkpt lat="45.93569" lon="4.72234">
        <ele>173</ele>
        <time>2018-01-23T12:01:17Z</time>
      </trkpt>
      <trkpt lat="45.93566" lon="4.72233">
        <ele>173</ele>
        <time>2018-01-23T12:01:18Z</time>
      </trkpt>
      <trkpt lat="45.93557" lon="4.72234">
        <ele>173</ele>
        <time>2018-01-23T12:01:21Z</time>
      </trkpt>
      <trkpt lat="45.93555" lon="4.72236">
        <ele>173</ele>
        <time>2018-01-23T12:01:22Z</time>
      </trkpt>
      <trkpt lat="45.93549" lon="4.72245">
        <ele>172</ele>
        <time>2018-01-23T12:01:25Z</time>
      </trkpt>
      <trkpt lat="45.93547" lon="4.72249">
        <ele>172</ele>
        <time>2018-01-23T12:01:26Z</time>
      </trkpt>
      <trkpt lat="45.93543" lon="4.72257">
        <ele>172</ele>
        <time>2018-01-23T12:01:28Z</time>
      </trkpt>
      <trkpt lat="45.93541" lon="4.72262">
        <ele>172</ele>
        <time>2018-01-23T12:01:29Z</time>
      </trkpt>
      <trkpt lat="45.93537" lon="4.72271">
        <ele>172</ele>
        <time>2018-01-23T12:01:31Z</time>
      </trkpt>
      <trkpt lat="45.93534" lon="4.72276">
        <ele>172</ele>
        <time>2018-01-23T12:01:32Z</time>
      </trkpt>
      <trkpt lat="45.9353" lon="4.72286">
        <ele>172</ele>
        <time>2018-01-23T12:01:34Z</time>
      </trkpt>
      <trkpt lat="45.93527" lon="4.72291">
        <ele>172</ele>
        <time>2018-01-23T12:01:35Z</time>
      </trkpt>
      <trkpt lat="45.93523" lon="4.72301">
        <ele>172</ele>
        <time>2018-01-23T12:01:37Z</time>
      </trkpt>
      <trkpt lat="45.9352" lon="4.72306">
        <ele>173</ele>
        <time>2018-01-23T12:01:38Z</time>
      </trkpt>
      <trkpt lat="45.93518" lon="4.72312">
        <ele>173</ele>
        <time>2018-01-23T12:01:39Z</time>
      </trkpt>
      <trkpt lat="45.93515" lon="4.72318">
        <ele>173</ele>
        <time>2018-01-23T12:01:40Z</time>
      </trkpt>
      <trkpt lat="45.93511" lon="4.72321">
        <ele>173</ele>
        <time>2018-01-23T12:01:41Z</time>
      </trkpt>
      <trkpt lat="45.93505" lon="4.72322">
        <ele>173</ele>
        <time>2018-01-23T12:01:42Z</time>
      </trkpt>
      <trkpt lat="45.935" lon="4.72326">
        <ele>173</ele>
        <time>2018-01-23T12:01:43Z</time>
      </trkpt>
      <trkpt lat="45.93495" lon="4.72329">
        <ele>173</ele>
        <time>2018-01-23T12:01:44Z</time>
      </trkpt>
      <trkpt lat="45.93491" lon="4.72332">
        <ele>173</ele>
        <time>2018-01-23T12:01:45Z</time>
      </trkpt>
      <trkpt lat="45.93488" lon="4.72337">
        <ele>173</ele>
        <time>2018-01-23T12:01:46Z</time>
      </trkpt>
      <trkpt lat="45.93484" lon="4.72342">
        <ele>173</ele>
        <time>2018-01-23T12:01:47Z</time>
      </trkpt>
      <trkpt lat="45.93481" lon="4.72347">
        <ele>173</ele>
        <time>2018-01-23T12:01:48Z</time>
      </trkpt>
      <trkpt lat="45.93476" lon="4.72352">
        <ele>173</ele>
        <time>2018-01-23T12:01:49Z</time>
      </trkpt>
      <trkpt lat="45.93471" lon="4.72362">
        <ele>173</ele>
        <time>2018-01-23T12:01:50Z</time>
      </trkpt>
      <trkpt lat="45.93466" lon="4.72368">
        <ele>173</ele>
        <time>2018-01-23T12:01:51Z</time>
      </trkpt>
      <trkpt lat="45.93462" lon="4.72371">
        <ele>173</ele>
        <time>2018-01-23T12:01:52Z</time>
      </trkpt>
      <trkpt lat="45.9346" lon="4.72377">
        <ele>173</ele>
        <time>2018-01-23T12:01:53Z</time>
      </trkpt>
      <trkpt lat="45.93456" lon="4.72382">
        <ele>173</ele>
        <time>2018-01-23T12:01:54Z</time>
      </trkpt>
      <trkpt lat="45.93449" lon="4.72387">
        <ele>173</ele>
        <time>2018-01-23T12:01:55Z</time>
      </trkpt>
      <trkpt lat="45.93445" lon="4.72389">
        <ele>173</ele>
        <time>2018-01-23T12:01:56Z</time>
      </trkpt>
      <trkpt lat="45.9344" lon="4.72393">
        <ele>173</ele>
        <time>2018-01-23T12:01:57Z</time>
      </trkpt>
      <trkpt lat="45.93436" lon="4.72397">
        <ele>173</ele>
        <time>2018-01-23T12:01:58Z</time>
      </trkpt>
      <trkpt lat="45.93431" lon="4.72402">
        <ele>174</ele>
        <time>2018-01-23T12:02:01Z</time>
      </trkpt>
      <trkpt lat="45.93428" lon="4.72404">
        <ele>174</ele>
        <time>2018-01-23T12:02:02Z</time>
      </trkpt>
      <trkpt lat="45.9342" lon="4.72407">
        <ele>174</ele>
        <time>2018-01-23T12:02:03Z</time>
      </trkpt>
      <trkpt lat="45.93416" lon="4.72408">
        <ele>174</ele>
        <time>2018-01-23T12:02:04Z</time>
      </trkpt>
      <trkpt lat="45.93411" lon="4.72408">
        <ele>174</ele>
        <time>2018-01-23T12:02:05Z</time>
      </trkpt>
      <trkpt lat="45.93406" lon="4.72407">
        <ele>174</ele>
        <time>2018-01-23T12:02:06Z</time>
      </trkpt>
      <trkpt lat="45.93401" lon="4.72407">
        <ele>174</ele>
        <time>2018-01-23T12:02:07Z</time>
      </trkpt>
      <trkpt lat="45.93396" lon="4.7241">
        <ele>174</ele>
        <time>2018-01-23T12:02:08Z</time>
      </trkpt>
      <trkpt lat="45.9339" lon="4.72414">
        <ele>174</ele>
        <time>2018-01-23T12:02:09Z</time>
      </trkpt>
      <trkpt lat="45.93386" lon="4.7242">
        <ele>173</ele>
        <time>2018-01-23T12:02:10Z</time>
      </trkpt>
      <trkpt lat="45.93386" lon="4.72427">
        <ele>173</ele>
        <time>2018-01-23T12:02:11Z</time>
      </trkpt>
      <trkpt lat="45.93389" lon="4.72436">
        <ele>173</ele>
        <time>2018-01-23T12:02:12Z</time>
      </trkpt>
      <trkpt lat="45.9339" lon="4.72442">
        <ele>173</ele>
        <time>2018-01-23T12:02:13Z</time>
      </trkpt>
      <trkpt lat="45.93392" lon="4.72449">
        <ele>173</ele>
        <time>2018-01-23T12:02:14Z</time>
      </trkpt>
      <trkpt lat="45.93393" lon="4.72457">
        <ele>173</ele>
        <time>2018-01-23T12:02:15Z</time>
      </trkpt>
      <trkpt lat="45.9339" lon="4.72463">
        <ele>173</ele>
        <time>2018-01-23T12:02:16Z</time>
      </trkpt>
      <trkpt lat="45.93387" lon="4.72468">
        <ele>173</ele>
        <time>2018-01-23T12:02:17Z</time>
      </trkpt>
      <trkpt lat="45.93384" lon="4.72473">
        <ele>173</ele>
        <time>2018-01-23T12:02:18Z</time>
      </trkpt>
      <trkpt lat="45.93381" lon="4.72477">
        <ele>173</ele>
        <time>2018-01-23T12:02:19Z</time>
      </trkpt>
      <trkpt lat="45.93377" lon="4.72483">
        <ele>173</ele>
        <time>2018-01-23T12:02:20Z</time>
      </trkpt>
      <trkpt lat="45.93373" lon="4.72489">
        <ele>173</ele>
        <time>2018-01-23T12:02:21Z</time>
      </trkpt>
      <trkpt lat="45.93369" lon="4.72494">
        <ele>173</ele>
        <time>2018-01-23T12:02:22Z</time>
      </trkpt>
      <trkpt lat="45.93365" lon="4.72499">
        <ele>173</ele>
        <time>2018-01-23T12:02:23Z</time>
      </trkpt>
      <trkpt lat="45.9336" lon="4.72505">
        <ele>172</ele>
        <time>2018-01-23T12:02:24Z</time>
      </trkpt>
      <trkpt lat="45.93355" lon="4.72513">
        <ele>172</ele>
        <time>2018-01-23T12:02:25Z</time>
      </trkpt>
      <trkpt lat="45.93352" lon="4.72518">
        <ele>172</ele>
        <time>2018-01-23T12:02:26Z</time>
      </trkpt>
      <trkpt lat="45.9335" lon="4.72524">
        <ele>172</ele>
        <time>2018-01-23T12:02:27Z</time>
      </trkpt>
      <trkpt lat="45.93345" lon="4.72528">
        <ele>172</ele>
        <time>2018-01-23T12:02:28Z</time>
      </trkpt>
      <trkpt lat="45.93341" lon="4.72533">
        <ele>172</ele>
        <time>2018-01-23T12:02:29Z</time>
      </trkpt>
      <trkpt lat="45.93337" lon="4.72538">
        <ele>171</ele>
        <time>2018-01-23T12:02:30Z</time>
      </trkpt>
      <trkpt lat="45.93334" lon="4.72544">
        <ele>171</ele>
        <time>2018-01-23T12:02:31Z</time>
      </trkpt>
      <trkpt lat="45.93331" lon="4.72548">
        <ele>172</ele>
        <time>2018-01-23T12:02:32Z</time>
      </trkpt>
      <trkpt lat="45.93328" lon="4.72553">
        <ele>171</ele>
        <time>2018-01-23T12:02:33Z</time>
      </trkpt>
      <trkpt lat="45.93324" lon="4.72558">
        <ele>171</ele>
        <time>2018-01-23T12:02:34Z</time>
      </trkpt>
      <trkpt lat="45.93316" lon="4.72562">
        <ele>171</ele>
        <time>2018-01-23T12:02:35Z</time>
      </trkpt>
      <trkpt lat="45.93312" lon="4.72568">
        <ele>171</ele>
        <time>2018-01-23T12:02:36Z</time>
      </trkpt>
      <trkpt lat="45.93307" lon="4.72574">
        <ele>171</ele>
        <time>2018-01-23T12:02:37Z</time>
      </trkpt>
      <trkpt lat="45.93303" lon="4.72579">
        <ele>171</ele>
        <time>2018-01-23T12:02:38Z</time>
      </trkpt>
      <trkpt lat="45.93298" lon="4.72583">
        <ele>171</ele>
        <time>2018-01-23T12:02:39Z</time>
      </trkpt>
      <trkpt lat="45.93292" lon="4.72587">
        <ele>170</ele>
        <time>2018-01-23T12:02:40Z</time>
      </trkpt>
      <trkpt lat="45.93289" lon="4.72592">
        <ele>170</ele>
        <time>2018-01-23T12:02:41Z</time>
      </trkpt>
      <trkpt lat="45.93284" lon="4.72596">
        <ele>170</ele>
        <time>2018-01-23T12:02:42Z</time>
      </trkpt>
      <trkpt lat="45.9328" lon="4.726">
        <ele>170</ele>
        <time>2018-01-23T12:02:43Z</time>
      </trkpt>
      <trkpt lat="45.93275" lon="4.72605">
        <ele>170</ele>
        <time>2018-01-23T12:02:44Z</time>
      </trkpt>
      <trkpt lat="45.93271" lon="4.7261">
        <ele>170</ele>
        <time>2018-01-23T12:02:45Z</time>
      </trkpt>
      <trkpt lat="45.93267" lon="4.72615">
        <ele>170</ele>
        <time>2018-01-23T12:02:46Z</time>
      </trkpt>
      <trkpt lat="45.93263" lon="4.72619">
        <ele>170</ele>
        <time>2018-01-23T12:02:47Z</time>
      </trkpt>
      <trkpt lat="45.93259" lon="4.72624">
        <ele>170</ele>
        <time>2018-01-23T12:02:48Z</time>
      </trkpt>
      <trkpt lat="45.93254" lon="4.72628">
        <ele>170</ele>
        <time>2018-01-23T12:02:49Z</time>
      </trkpt>
      <trkpt lat="45.9325" lon="4.72633">
        <ele>170</ele>
        <time>2018-01-23T12:02:50Z</time>
      </trkpt>
      <trkpt lat="45.93245" lon="4.72639">
        <ele>170</ele>
        <time>2018-01-23T12:02:51Z</time>
      </trkpt>
      <trkpt lat="45.93241" lon="4.72645">
        <ele>170</ele>
        <time>2018-01-23T12:02:52Z</time>
      </trkpt>
      <trkpt lat="45.93237" lon="4.7265">
        <ele>170</ele>
        <time>2018-01-23T12:02:53Z</time>
      </trkpt>
      <trkpt lat="45.93233" lon="4.72655">
        <ele>169</ele>
        <time>2018-01-23T12:02:54Z</time>
      </trkpt>
      <trkpt lat="45.93228" lon="4.7266">
        <ele>169</ele>
        <time>2018-01-23T12:02:55Z</time>
      </trkpt>
      <trkpt lat="45.93224" lon="4.72665">
        <ele>170</ele>
        <time>2018-01-23T12:02:56Z</time>
      </trkpt>
      <trkpt lat="45.9322" lon="4.7267">
        <ele>169</ele>
        <time>2018-01-23T12:02:57Z</time>
      </trkpt>
      <trkpt lat="45.93216" lon="4.72675">
        <ele>169</ele>
        <time>2018-01-23T12:02:58Z</time>
      </trkpt>
      <trkpt lat="45.93208" lon="4.72682">
        <ele>169</ele>
        <time>2018-01-23T12:02:59Z</time>
      </trkpt>
      <trkpt lat="45.93204" lon="4.72688">
        <ele>169</ele>
        <time>2018-01-23T12:03:00Z</time>
      </trkpt>
      <trkpt lat="45.932" lon="4.72693">
        <ele>169</ele>
        <time>2018-01-23T12:03:01Z</time>
      </trkpt>
      <trkpt lat="45.93196" lon="4.72697">
        <ele>169</ele>
        <time>2018-01-23T12:03:02Z</time>
      </trkpt>
      <trkpt lat="45.93192" lon="4.72702">
        <ele>169</ele>
        <time>2018-01-23T12:03:03Z</time>
      </trkpt>
      <trkpt lat="45.93187" lon="4.72706">
        <ele>169</ele>
        <time>2018-01-23T12:03:04Z</time>
      </trkpt>
      <trkpt lat="45.93184" lon="4.7271">
        <ele>169</ele>
        <time>2018-01-23T12:03:05Z</time>
      </trkpt>
      <trkpt lat="45.93177" lon="4.72715">
        <ele>169</ele>
        <time>2018-01-23T12:03:06Z</time>
      </trkpt>
      <trkpt lat="45.93173" lon="4.7272">
        <ele>170</ele>
        <time>2018-01-23T12:03:07Z</time>
      </trkpt>
      <trkpt lat="45.93169" lon="4.72725">
        <ele>170</ele>
        <time>2018-01-23T12:03:08Z</time>
      </trkpt>
      <trkpt lat="45.93164" lon="4.72731">
        <ele>170</ele>
        <time>2018-01-23T12:03:09Z</time>
      </trkpt>
      <trkpt lat="45.93157" lon="4.72735">
        <ele>170</ele>
        <time>2018-01-23T12:03:10Z</time>
      </trkpt>
      <trkpt lat="45.93153" lon="4.72741">
        <ele>170</ele>
        <time>2018-01-23T12:03:11Z</time>
      </trkpt>
      <trkpt lat="45.93148" lon="4.72744">
        <ele>170</ele>
        <time>2018-01-23T12:03:12Z</time>
      </trkpt>
      <trkpt lat="45.93143" lon="4.72749">
        <ele>170</ele>
        <time>2018-01-23T12:03:13Z</time>
      </trkpt>
      <trkpt lat="45.93139" lon="4.72754">
        <ele>171</ele>
        <time>2018-01-23T12:03:14Z</time>
      </trkpt>
      <trkpt lat="45.93134" lon="4.7276">
        <ele>171</ele>
        <time>2018-01-23T12:03:15Z</time>
      </trkpt>
      <trkpt lat="45.9313" lon="4.72766">
        <ele>171</ele>
        <time>2018-01-23T12:03:16Z</time>
      </trkpt>
      <trkpt lat="45.93125" lon="4.72772">
        <ele>171</ele>
        <time>2018-01-23T12:03:17Z</time>
      </trkpt>
      <trkpt lat="45.9312" lon="4.72777">
        <ele>171</ele>
        <time>2018-01-23T12:03:18Z</time>
      </trkpt>
      <trkpt lat="45.93115" lon="4.72782">
        <ele>171</ele>
        <time>2018-01-23T12:03:19Z</time>
      </trkpt>
      <trkpt lat="45.93111" lon="4.72788">
        <ele>171</ele>
        <time>2018-01-23T12:03:20Z</time>
      </trkpt>
      <trkpt lat="45.93105" lon="4.72796">
        <ele>171</ele>
        <time>2018-01-23T12:03:21Z</time>
      </trkpt>
      <trkpt lat="45.93101" lon="4.728">
        <ele>171</ele>
        <time>2018-01-23T12:03:22Z</time>
      </trkpt>
      <trkpt lat="45.93096" lon="4.72805">
        <ele>171</ele>
        <time>2018-01-23T12:03:23Z</time>
      </trkpt>
      <trkpt lat="45.93092" lon="4.72809">
        <ele>172</ele>
        <time>2018-01-23T12:03:24Z</time>
      </trkpt>
      <trkpt lat="45.93088" lon="4.72815">
        <ele>172</ele>
        <time>2018-01-23T12:03:25Z</time>
      </trkpt>
      <trkpt lat="45.9308" lon="4.72819">
        <ele>173</ele>
        <time>2018-01-23T12:03:27Z</time>
      </trkpt>
      <trkpt lat="45.93076" lon="4.72823">
        <ele>173</ele>
        <time>2018-01-23T12:03:28Z</time>
      </trkpt>
      <trkpt lat="45.9307" lon="4.72818">
        <ele>172</ele>
        <time>2018-01-23T12:03:31Z</time>
      </trkpt>
      <trkpt lat="45.93054" lon="4.72843">
        <ele>172</ele>
        <time>2018-01-23T12:03:32Z</time>
      </trkpt>
      <trkpt lat="45.9305" lon="4.72845">
        <ele>172</ele>
        <time>2018-01-23T12:03:33Z</time>
      </trkpt>
      <trkpt lat="45.93038" lon="4.72846">
        <ele>172</ele>
        <time>2018-01-23T12:03:34Z</time>
      </trkpt>
      <trkpt lat="45.93039" lon="4.72852">
        <ele>172</ele>
        <time>2018-01-23T12:03:35Z</time>
      </trkpt>
      <trkpt lat="45.93038" lon="4.72861">
        <ele>172</ele>
        <time>2018-01-23T12:03:36Z</time>
      </trkpt>
      <trkpt lat="45.93035" lon="4.7287">
        <ele>172</ele>
        <time>2018-01-23T12:03:37Z</time>
      </trkpt>
      <trkpt lat="45.93032" lon="4.72878">
        <ele>172</ele>
        <time>2018-01-23T12:03:38Z</time>
      </trkpt>
      <trkpt lat="45.93027" lon="4.72883">
        <ele>172</ele>
        <time>2018-01-23T12:03:39Z</time>
      </trkpt>
      <trkpt lat="45.93024" lon="4.7289">
        <ele>172</ele>
        <time>2018-01-23T12:03:40Z</time>
      </trkpt>
      <trkpt lat="45.93019" lon="4.72896">
        <ele>172</ele>
        <time>2018-01-23T12:03:41Z</time>
      </trkpt>
      <trkpt lat="45.93014" lon="4.72902">
        <ele>172</ele>
        <time>2018-01-23T12:03:42Z</time>
      </trkpt>
      <trkpt lat="45.93009" lon="4.72907">
        <ele>171</ele>
        <time>2018-01-23T12:03:43Z</time>
      </trkpt>
      <trkpt lat="45.93005" lon="4.72913">
        <ele>171</ele>
        <time>2018-01-23T12:03:44Z</time>
      </trkpt>
      <trkpt lat="45.93" lon="4.72918">
        <ele>171</ele>
        <time>2018-01-23T12:03:45Z</time>
      </trkpt>
      <trkpt lat="45.92996" lon="4.72924">
        <ele>171</ele>
        <time>2018-01-23T12:03:46Z</time>
      </trkpt>
      <trkpt lat="45.92992" lon="4.7293">
        <ele>171</ele>
        <time>2018-01-23T12:03:47Z</time>
      </trkpt>
      <trkpt lat="45.92987" lon="4.72935">
        <ele>171</ele>
        <time>2018-01-23T12:03:48Z</time>
      </trkpt>
      <trkpt lat="45.92979" lon="4.7294">
        <ele>171</ele>
        <time>2018-01-23T12:03:49Z</time>
      </trkpt>
      <trkpt lat="45.92975" lon="4.72946">
        <ele>171</ele>
        <time>2018-01-23T12:03:50Z</time>
      </trkpt>
      <trkpt lat="45.92971" lon="4.72951">
        <ele>171</ele>
        <time>2018-01-23T12:03:51Z</time>
      </trkpt>
      <trkpt lat="45.92967" lon="4.72957">
        <ele>171</ele>
        <time>2018-01-23T12:03:52Z</time>
      </trkpt>
      <trkpt lat="45.92963" lon="4.72961">
        <ele>171</ele>
        <time>2018-01-23T12:03:53Z</time>
      </trkpt>
      <trkpt lat="45.92958" lon="4.72966">
        <ele>171</ele>
        <time>2018-01-23T12:03:54Z</time>
      </trkpt>
      <trkpt lat="45.92953" lon="4.72971">
        <ele>171</ele>
        <time>2018-01-23T12:03:55Z</time>
      </trkpt>
      <trkpt lat="45.92949" lon="4.72977">
        <ele>171</ele>
        <time>2018-01-23T12:03:56Z</time>
      </trkpt>
      <trkpt lat="45.92943" lon="4.72981">
        <ele>171</ele>
        <time>2018-01-23T12:03:57Z</time>
      </trkpt>
      <trkpt lat="45.92941" lon="4.72987">
        <ele>171</ele>
        <time>2018-01-23T12:03:58Z</time>
      </trkpt>
      <trkpt lat="45.92935" lon="4.72994">
        <ele>172</ele>
        <time>2018-01-23T12:03:59Z</time>
      </trkpt>
      <trkpt lat="45.92931" lon="4.72999">
        <ele>172</ele>
        <time>2018-01-23T12:04:00Z</time>
      </trkpt>
      <trkpt lat="45.92925" lon="4.73004">
        <ele>172</ele>
        <time>2018-01-23T12:04:01Z</time>
      </trkpt>
      <trkpt lat="45.92921" lon="4.73009">
        <ele>172</ele>
        <time>2018-01-23T12:04:02Z</time>
      </trkpt>
      <trkpt lat="45.92918" lon="4.73014">
        <ele>172</ele>
        <time>2018-01-23T12:04:03Z</time>
      </trkpt>
      <trkpt lat="45.92913" lon="4.7302">
        <ele>172</ele>
        <time>2018-01-23T12:04:04Z</time>
      </trkpt>
      <trkpt lat="45.92909" lon="4.73025">
        <ele>172</ele>
        <time>2018-01-23T12:04:05Z</time>
      </trkpt>
      <trkpt lat="45.92904" lon="4.7303">
        <ele>172</ele>
        <time>2018-01-23T12:04:06Z</time>
      </trkpt>
      <trkpt lat="45.92899" lon="4.73036">
        <ele>172</ele>
        <time>2018-01-23T12:04:07Z</time>
      </trkpt>
      <trkpt lat="45.92896" lon="4.73042">
        <ele>172</ele>
        <time>2018-01-23T12:04:08Z</time>
      </trkpt>
      <trkpt lat="45.92891" lon="4.73047">
        <ele>172</ele>
        <time>2018-01-23T12:04:09Z</time>
      </trkpt>
      <trkpt lat="45.92887" lon="4.73054">
        <ele>172</ele>
        <time>2018-01-23T12:04:10Z</time>
      </trkpt>
      <trkpt lat="45.92884" lon="4.7306">
        <ele>172</ele>
        <time>2018-01-23T12:04:11Z</time>
      </trkpt>
      <trkpt lat="45.92881" lon="4.73066">
        <ele>172</ele>
        <time>2018-01-23T12:04:12Z</time>
      </trkpt>
      <trkpt lat="45.92877" lon="4.73073">
        <ele>172</ele>
        <time>2018-01-23T12:04:13Z</time>
      </trkpt>
      <trkpt lat="45.92873" lon="4.73079">
        <ele>172</ele>
        <time>2018-01-23T12:04:14Z</time>
      </trkpt>
      <trkpt lat="45.92869" lon="4.73083">
        <ele>172</ele>
        <time>2018-01-23T12:04:15Z</time>
      </trkpt>
      <trkpt lat="45.92865" lon="4.73089">
        <ele>172</ele>
        <time>2018-01-23T12:04:16Z</time>
      </trkpt>
      <trkpt lat="45.92862" lon="4.73095">
        <ele>171</ele>
        <time>2018-01-23T12:04:17Z</time>
      </trkpt>
      <trkpt lat="45.92859" lon="4.73101">
        <ele>171</ele>
        <time>2018-01-23T12:04:18Z</time>
      </trkpt>
      <trkpt lat="45.92851" lon="4.73106">
        <ele>171</ele>
        <time>2018-01-23T12:04:20Z</time>
      </trkpt>
      <trkpt lat="45.92847" lon="4.73102">
        <ele>171</ele>
        <time>2018-01-23T12:04:21Z</time>
      </trkpt>
      <trkpt lat="45.92845" lon="4.7309">
        <ele>171</ele>
        <time>2018-01-23T12:04:23Z</time>
      </trkpt>
      <trkpt lat="45.92845" lon="4.73083">
        <ele>171</ele>
        <time>2018-01-23T12:04:24Z</time>
      </trkpt>
      <trkpt lat="45.92845" lon="4.73076">
        <ele>171</ele>
        <time>2018-01-23T12:04:25Z</time>
      </trkpt>
      <trkpt lat="45.92843" lon="4.73068">
        <ele>171</ele>
        <time>2018-01-23T12:04:26Z</time>
      </trkpt>
      <trkpt lat="45.92842" lon="4.7306">
        <ele>171</ele>
        <time>2018-01-23T12:04:27Z</time>
      </trkpt>
      <trkpt lat="45.92841" lon="4.73051">
        <ele>171</ele>
        <time>2018-01-23T12:04:28Z</time>
      </trkpt>
      <trkpt lat="45.9284" lon="4.73043">
        <ele>171</ele>
        <time>2018-01-23T12:04:29Z</time>
      </trkpt>
      <trkpt lat="45.9284" lon="4.73035">
        <ele>171</ele>
        <time>2018-01-23T12:04:30Z</time>
      </trkpt>
      <trkpt lat="45.92838" lon="4.73028">
        <ele>171</ele>
        <time>2018-01-23T12:04:31Z</time>
      </trkpt>
      <trkpt lat="45.92836" lon="4.73021">
        <ele>171</ele>
        <time>2018-01-23T12:04:32Z</time>
      </trkpt>
      <trkpt lat="45.92835" lon="4.73013">
        <ele>171</ele>
        <time>2018-01-23T12:04:33Z</time>
      </trkpt>
      <trkpt lat="45.92834" lon="4.73005">
        <ele>170</ele>
        <time>2018-01-23T12:04:34Z</time>
      </trkpt>
      <trkpt lat="45.92833" lon="4.72997">
        <ele>170</ele>
        <time>2018-01-23T12:04:35Z</time>
      </trkpt>
      <trkpt lat="45.92831" lon="4.7299">
        <ele>170</ele>
        <time>2018-01-23T12:04:36Z</time>
      </trkpt>
      <trkpt lat="45.9283" lon="4.72983">
        <ele>170</ele>
        <time>2018-01-23T12:04:37Z</time>
      </trkpt>
      <trkpt lat="45.9283" lon="4.72976">
        <ele>170</ele>
        <time>2018-01-23T12:04:38Z</time>
      </trkpt>
      <trkpt lat="45.9283" lon="4.72967">
        <ele>170</ele>
        <time>2018-01-23T12:04:39Z</time>
      </trkpt>
      <trkpt lat="45.92827" lon="4.7296">
        <ele>170</ele>
        <time>2018-01-23T12:04:40Z</time>
      </trkpt>
      <trkpt lat="45.92826" lon="4.72952">
        <ele>170</ele>
        <time>2018-01-23T12:04:41Z</time>
      </trkpt>
      <trkpt lat="45.92825" lon="4.72943">
        <ele>170</ele>
        <time>2018-01-23T12:04:42Z</time>
      </trkpt>
      <trkpt lat="45.92825" lon="4.72935">
        <ele>170</ele>
        <time>2018-01-23T12:04:43Z</time>
      </trkpt>
      <trkpt lat="45.92825" lon="4.72928">
        <ele>170</ele>
        <time>2018-01-23T12:04:44Z</time>
      </trkpt>
      <trkpt lat="45.92824" lon="4.7292">
        <ele>170</ele>
        <time>2018-01-23T12:04:45Z</time>
      </trkpt>
      <trkpt lat="45.92824" lon="4.72912">
        <ele>170</ele>
        <time>2018-01-23T12:04:46Z</time>
      </trkpt>
      <trkpt lat="45.92823" lon="4.72905">
        <ele>170</ele>
        <time>2018-01-23T12:04:47Z</time>
      </trkpt>
      <trkpt lat="45.92822" lon="4.72898">
        <ele>170</ele>
        <time>2018-01-23T12:04:48Z</time>
      </trkpt>
      <trkpt lat="45.92821" lon="4.72891">
        <ele>170</ele>
        <time>2018-01-23T12:04:49Z</time>
      </trkpt>
      <trkpt lat="45.92821" lon="4.72882">
        <ele>170</ele>
        <time>2018-01-23T12:04:50Z</time>
      </trkpt>
      <trkpt lat="45.9282" lon="4.72875">
        <ele>170</ele>
        <time>2018-01-23T12:04:51Z</time>
      </trkpt>
      <trkpt lat="45.92818" lon="4.72868">
        <ele>170</ele>
        <time>2018-01-23T12:04:52Z</time>
      </trkpt>
      <trkpt lat="45.92816" lon="4.72861">
        <ele>170</ele>
        <time>2018-01-23T12:04:53Z</time>
      </trkpt>
      <trkpt lat="45.92815" lon="4.72854">
        <ele>170</ele>
        <time>2018-01-23T12:04:54Z</time>
      </trkpt>
      <trkpt lat="45.92813" lon="4.72847">
        <ele>170</ele>
        <time>2018-01-23T12:04:55Z</time>
      </trkpt>
      <trkpt lat="45.92811" lon="4.72839">
        <ele>170</ele>
        <time>2018-01-23T12:04:56Z</time>
      </trkpt>
      <trkpt lat="45.9281" lon="4.72832">
        <ele>171</ele>
        <time>2018-01-23T12:04:57Z</time>
      </trkpt>
      <trkpt lat="45.92809" lon="4.72826">
        <ele>171</ele>
        <time>2018-01-23T12:04:58Z</time>
      </trkpt>
      <trkpt lat="45.92808" lon="4.7282">
        <ele>171</ele>
        <time>2018-01-23T12:04:59Z</time>
      </trkpt>
      <trkpt lat="45.92806" lon="4.72812">
        <ele>171</ele>
        <time>2018-01-23T12:05:00Z</time>
      </trkpt>
      <trkpt lat="45.92805" lon="4.72805">
        <ele>171</ele>
        <time>2018-01-23T12:05:01Z</time>
      </trkpt>
      <trkpt lat="45.92804" lon="4.72799">
        <ele>171</ele>
        <time>2018-01-23T12:05:02Z</time>
      </trkpt>
      <trkpt lat="45.92802" lon="4.72793">
        <ele>171</ele>
        <time>2018-01-23T12:05:03Z</time>
      </trkpt>
      <trkpt lat="45.92799" lon="4.72788">
        <ele>171</ele>
        <time>2018-01-23T12:05:04Z</time>
      </trkpt>
      <trkpt lat="45.92793" lon="4.72787">
        <ele>171</ele>
        <time>2018-01-23T12:05:06Z</time>
      </trkpt>
      <trkpt lat="45.92789" lon="4.72791">
        <ele>170</ele>
        <time>2018-01-23T12:05:07Z</time>
      </trkpt>
      <trkpt lat="45.92786" lon="4.72796">
        <ele>170</ele>
        <time>2018-01-23T12:05:08Z</time>
      </trkpt>
      <trkpt lat="45.92782" lon="4.72801">
        <ele>170</ele>
        <time>2018-01-23T12:05:09Z</time>
      </trkpt>
      <trkpt lat="45.92778" lon="4.72804">
        <ele>170</ele>
        <time>2018-01-23T12:05:10Z</time>
      </trkpt>
      <trkpt lat="45.92773" lon="4.72807">
        <ele>170</ele>
        <time>2018-01-23T12:05:11Z</time>
      </trkpt>
      <trkpt lat="45.92768" lon="4.72811">
        <ele>170</ele>
        <time>2018-01-23T12:05:12Z</time>
      </trkpt>
      <trkpt lat="45.92764" lon="4.72813">
        <ele>170</ele>
        <time>2018-01-23T12:05:13Z</time>
      </trkpt>
      <trkpt lat="45.92759" lon="4.72817">
        <ele>170</ele>
        <time>2018-01-23T12:05:14Z</time>
      </trkpt>
      <trkpt lat="45.92755" lon="4.7282">
        <ele>170</ele>
        <time>2018-01-23T12:05:15Z</time>
      </trkpt>
      <trkpt lat="45.92751" lon="4.72823">
        <ele>170</ele>
        <time>2018-01-23T12:05:16Z</time>
      </trkpt>
      <trkpt lat="45.92745" lon="4.72826">
        <ele>169</ele>
        <time>2018-01-23T12:05:17Z</time>
      </trkpt>
      <trkpt lat="45.92742" lon="4.72828">
        <ele>169</ele>
        <time>2018-01-23T12:05:18Z</time>
      </trkpt>
      <trkpt lat="45.92737" lon="4.72832">
        <ele>169</ele>
        <time>2018-01-23T12:05:19Z</time>
      </trkpt>
      <trkpt lat="45.9273" lon="4.72838">
        <ele>169</ele>
        <time>2018-01-23T12:05:21Z</time>
      </trkpt>
      <trkpt lat="45.92725" lon="4.72841">
        <ele>169</ele>
        <time>2018-01-23T12:05:22Z</time>
      </trkpt>
      <trkpt lat="45.92721" lon="4.72844">
        <ele>169</ele>
        <time>2018-01-23T12:05:23Z</time>
      </trkpt>
      <trkpt lat="45.92716" lon="4.72847">
        <ele>169</ele>
        <time>2018-01-23T12:05:24Z</time>
      </trkpt>
      <trkpt lat="45.92712" lon="4.72851">
        <ele>169</ele>
        <time>2018-01-23T12:05:25Z</time>
      </trkpt>
      <trkpt lat="45.92707" lon="4.72855">
        <ele>169</ele>
        <time>2018-01-23T12:05:26Z</time>
      </trkpt>
      <trkpt lat="45.92702" lon="4.72859">
        <ele>169</ele>
        <time>2018-01-23T12:05:27Z</time>
      </trkpt>
      <trkpt lat="45.92697" lon="4.72863">
        <ele>169</ele>
        <time>2018-01-23T12:05:28Z</time>
      </trkpt>
      <trkpt lat="45.92692" lon="4.72869">
        <ele>169</ele>
        <time>2018-01-23T12:05:29Z</time>
      </trkpt>
      <trkpt lat="45.92688" lon="4.72874">
        <ele>169</ele>
        <time>2018-01-23T12:05:30Z</time>
      </trkpt>
      <trkpt lat="45.92682" lon="4.72878">
        <ele>170</ele>
        <time>2018-01-23T12:05:31Z</time>
      </trkpt>
      <trkpt lat="45.92677" lon="4.72882">
        <ele>170</ele>
        <time>2018-01-23T12:05:32Z</time>
      </trkpt>
      <trkpt lat="45.92672" lon="4.72886">
        <ele>170</ele>
        <time>2018-01-23T12:05:33Z</time>
      </trkpt>
      <trkpt lat="45.92666" lon="4.72889">
        <ele>169</ele>
        <time>2018-01-23T12:05:34Z</time>
      </trkpt>
      <trkpt lat="45.92661" lon="4.72894">
        <ele>170</ele>
        <time>2018-01-23T12:05:35Z</time>
      </trkpt>
      <trkpt lat="45.92657" lon="4.72898">
        <ele>170</ele>
        <time>2018-01-23T12:05:36Z</time>
      </trkpt>
      <trkpt lat="45.92651" lon="4.72901">
        <ele>170</ele>
        <time>2018-01-23T12:05:37Z</time>
      </trkpt>
      <trkpt lat="45.92647" lon="4.72905">
        <ele>170</ele>
        <time>2018-01-23T12:05:38Z</time>
      </trkpt>
      <trkpt lat="45.92642" lon="4.7291">
        <ele>169</ele>
        <time>2018-01-23T12:05:39Z</time>
      </trkpt>
      <trkpt lat="45.92637" lon="4.72913">
        <ele>169</ele>
        <time>2018-01-23T12:05:40Z</time>
      </trkpt>
      <trkpt lat="45.92632" lon="4.72918">
        <ele>170</ele>
        <time>2018-01-23T12:05:41Z</time>
      </trkpt>
      <trkpt lat="45.92627" lon="4.72922">
        <ele>170</ele>
        <time>2018-01-23T12:05:42Z</time>
      </trkpt>
      <trkpt lat="45.92621" lon="4.72927">
        <ele>169</ele>
        <time>2018-01-23T12:05:43Z</time>
      </trkpt>
      <trkpt lat="45.92616" lon="4.72932">
        <ele>169</ele>
        <time>2018-01-23T12:05:44Z</time>
      </trkpt>
      <trkpt lat="45.92611" lon="4.72937">
        <ele>169</ele>
        <time>2018-01-23T12:05:45Z</time>
      </trkpt>
      <trkpt lat="45.92605" lon="4.72942">
        <ele>169</ele>
        <time>2018-01-23T12:05:46Z</time>
      </trkpt>
      <trkpt lat="45.92599" lon="4.72948">
        <ele>169</ele>
        <time>2018-01-23T12:05:47Z</time>
      </trkpt>
      <trkpt lat="45.92594" lon="4.72953">
        <ele>169</ele>
        <time>2018-01-23T12:05:48Z</time>
      </trkpt>
      <trkpt lat="45.92588" lon="4.72959">
        <ele>169</ele>
        <time>2018-01-23T12:05:49Z</time>
      </trkpt>
      <trkpt lat="45.92583" lon="4.72966">
        <ele>169</ele>
        <time>2018-01-23T12:05:50Z</time>
      </trkpt>
      <trkpt lat="45.92578" lon="4.72971">
        <ele>169</ele>
        <time>2018-01-23T12:05:51Z</time>
      </trkpt>
      <trkpt lat="45.92571" lon="4.72976">
        <ele>169</ele>
        <time>2018-01-23T12:05:52Z</time>
      </trkpt>
      <trkpt lat="45.92564" lon="4.72979">
        <ele>169</ele>
        <time>2018-01-23T12:05:53Z</time>
      </trkpt>
      <trkpt lat="45.92559" lon="4.72985">
        <ele>169</ele>
        <time>2018-01-23T12:05:54Z</time>
      </trkpt>
      <trkpt lat="45.92553" lon="4.7299">
        <ele>169</ele>
        <time>2018-01-23T12:05:55Z</time>
      </trkpt>
      <trkpt lat="45.92549" lon="4.72996">
        <ele>169</ele>
        <time>2018-01-23T12:05:56Z</time>
      </trkpt>
      <trkpt lat="45.92543" lon="4.73002">
        <ele>169</ele>
        <time>2018-01-23T12:05:57Z</time>
      </trkpt>
      <trkpt lat="45.92539" lon="4.73007">
        <ele>169</ele>
        <time>2018-01-23T12:05:58Z</time>
      </trkpt>
      <trkpt lat="45.92533" lon="4.73012">
        <ele>169</ele>
        <time>2018-01-23T12:05:59Z</time>
      </trkpt>
      <trkpt lat="45.9253" lon="4.73016">
        <ele>169</ele>
        <time>2018-01-23T12:06:00Z</time>
      </trkpt>
      <trkpt lat="45.92525" lon="4.73021">
        <ele>169</ele>
        <time>2018-01-23T12:06:01Z</time>
      </trkpt>
      <trkpt lat="45.9252" lon="4.73026">
        <ele>169</ele>
        <time>2018-01-23T12:06:02Z</time>
      </trkpt>
      <trkpt lat="45.92515" lon="4.73031">
        <ele>169</ele>
        <time>2018-01-23T12:06:03Z</time>
      </trkpt>
      <trkpt lat="45.92509" lon="4.73036">
        <ele>169</ele>
        <time>2018-01-23T12:06:04Z</time>
      </trkpt>
      <trkpt lat="45.92504" lon="4.7304">
        <ele>169</ele>
        <time>2018-01-23T12:06:05Z</time>
      </trkpt>
      <trkpt lat="45.92498" lon="4.73045">
        <ele>170</ele>
        <time>2018-01-23T12:06:06Z</time>
      </trkpt>
      <trkpt lat="45.92493" lon="4.7305">
        <ele>170</ele>
        <time>2018-01-23T12:06:07Z</time>
      </trkpt>
      <trkpt lat="45.92488" lon="4.73054">
        <ele>170</ele>
        <time>2018-01-23T12:06:08Z</time>
      </trkpt>
      <trkpt lat="45.92482" lon="4.73059">
        <ele>170</ele>
        <time>2018-01-23T12:06:09Z</time>
      </trkpt>
      <trkpt lat="45.92476" lon="4.73064">
        <ele>170</ele>
        <time>2018-01-23T12:06:10Z</time>
      </trkpt>
      <trkpt lat="45.92472" lon="4.73069">
        <ele>170</ele>
        <time>2018-01-23T12:06:11Z</time>
      </trkpt>
      <trkpt lat="45.92465" lon="4.73074">
        <ele>170</ele>
        <time>2018-01-23T12:06:12Z</time>
      </trkpt>
      <trkpt lat="45.92459" lon="4.7308">
        <ele>170</ele>
        <time>2018-01-23T12:06:13Z</time>
      </trkpt>
      <trkpt lat="45.92454" lon="4.73085">
        <ele>170</ele>
        <time>2018-01-23T12:06:14Z</time>
      </trkpt>
      <trkpt lat="45.92448" lon="4.73089">
        <ele>170</ele>
        <time>2018-01-23T12:06:15Z</time>
      </trkpt>
      <trkpt lat="45.92442" lon="4.73094">
        <ele>170</ele>
        <time>2018-01-23T12:06:16Z</time>
      </trkpt>
      <trkpt lat="45.92437" lon="4.73098">
        <ele>171</ele>
        <time>2018-01-23T12:06:17Z</time>
      </trkpt>
      <trkpt lat="45.92431" lon="4.73102">
        <ele>171</ele>
        <time>2018-01-23T12:06:18Z</time>
      </trkpt>
      <trkpt lat="45.92426" lon="4.73106">
        <ele>171</ele>
        <time>2018-01-23T12:06:19Z</time>
      </trkpt>
      <trkpt lat="45.92421" lon="4.73111">
        <ele>170</ele>
        <time>2018-01-23T12:06:20Z</time>
      </trkpt>
      <trkpt lat="45.92415" lon="4.73114">
        <ele>171</ele>
        <time>2018-01-23T12:06:21Z</time>
      </trkpt>
      <trkpt lat="45.92411" lon="4.73119">
        <ele>171</ele>
        <time>2018-01-23T12:06:22Z</time>
      </trkpt>
      <trkpt lat="45.92408" lon="4.73126">
        <ele>171</ele>
        <time>2018-01-23T12:06:23Z</time>
      </trkpt>
      <trkpt lat="45.92407" lon="4.73134">
        <ele>171</ele>
        <time>2018-01-23T12:06:24Z</time>
      </trkpt>
      <trkpt lat="45.92406" lon="4.73142">
        <ele>171</ele>
        <time>2018-01-23T12:06:25Z</time>
      </trkpt>
      <trkpt lat="45.92406" lon="4.7315">
        <ele>171</ele>
        <time>2018-01-23T12:06:26Z</time>
      </trkpt>
      <trkpt lat="45.92406" lon="4.73158">
        <ele>170</ele>
        <time>2018-01-23T12:06:27Z</time>
      </trkpt>
      <trkpt lat="45.92406" lon="4.73167">
        <ele>170</ele>
        <time>2018-01-23T12:06:28Z</time>
      </trkpt>
      <trkpt lat="45.92406" lon="4.73174">
        <ele>171</ele>
        <time>2018-01-23T12:06:29Z</time>
      </trkpt>
      <trkpt lat="45.92408" lon="4.73183">
        <ele>171</ele>
        <time>2018-01-23T12:06:30Z</time>
      </trkpt>
      <trkpt lat="45.92408" lon="4.7319">
        <ele>171</ele>
        <time>2018-01-23T12:06:31Z</time>
      </trkpt>
      <trkpt lat="45.92409" lon="4.73198">
        <ele>171</ele>
        <time>2018-01-23T12:06:32Z</time>
      </trkpt>
      <trkpt lat="45.92409" lon="4.73207">
        <ele>171</ele>
        <time>2018-01-23T12:06:33Z</time>
      </trkpt>
      <trkpt lat="45.92409" lon="4.73214">
        <ele>171</ele>
        <time>2018-01-23T12:06:34Z</time>
      </trkpt>
      <trkpt lat="45.92409" lon="4.73224">
        <ele>171</ele>
        <time>2018-01-23T12:06:35Z</time>
      </trkpt>
      <trkpt lat="45.9241" lon="4.73232">
        <ele>171</ele>
        <time>2018-01-23T12:06:36Z</time>
      </trkpt>
      <trkpt lat="45.9241" lon="4.73242">
        <ele>171</ele>
        <time>2018-01-23T12:06:37Z</time>
      </trkpt>
      <trkpt lat="45.9241" lon="4.73251">
        <ele>171</ele>
        <time>2018-01-23T12:06:38Z</time>
      </trkpt>
      <trkpt lat="45.92411" lon="4.7326">
        <ele>171</ele>
        <time>2018-01-23T12:06:39Z</time>
      </trkpt>
      <trkpt lat="45.9241" lon="4.73267">
        <ele>171</ele>
        <time>2018-01-23T12:06:40Z</time>
      </trkpt>
      <trkpt lat="45.92411" lon="4.73274">
        <ele>171</ele>
        <time>2018-01-23T12:06:41Z</time>
      </trkpt>
      <trkpt lat="45.92412" lon="4.73282">
        <ele>171</ele>
        <time>2018-01-23T12:06:42Z</time>
      </trkpt>
      <trkpt lat="45.92412" lon="4.73289">
        <ele>171</ele>
        <time>2018-01-23T12:06:43Z</time>
      </trkpt>
      <trkpt lat="45.92413" lon="4.73298">
        <ele>171</ele>
        <time>2018-01-23T12:06:44Z</time>
      </trkpt>
      <trkpt lat="45.92414" lon="4.73304">
        <ele>171</ele>
        <time>2018-01-23T12:06:45Z</time>
      </trkpt>
      <trkpt lat="45.92415" lon="4.73311">
        <ele>171</ele>
        <time>2018-01-23T12:06:46Z</time>
      </trkpt>
      <trkpt lat="45.92416" lon="4.73318">
        <ele>171</ele>
        <time>2018-01-23T12:06:47Z</time>
      </trkpt>
      <trkpt lat="45.92416" lon="4.73327">
        <ele>171</ele>
        <time>2018-01-23T12:06:48Z</time>
      </trkpt>
      <trkpt lat="45.92417" lon="4.73334">
        <ele>171</ele>
        <time>2018-01-23T12:06:49Z</time>
      </trkpt>
      <trkpt lat="45.92418" lon="4.73344">
        <ele>171</ele>
        <time>2018-01-23T12:06:50Z</time>
      </trkpt>
      <trkpt lat="45.92419" lon="4.73351">
        <ele>171</ele>
        <time>2018-01-23T12:06:51Z</time>
      </trkpt>
      <trkpt lat="45.9242" lon="4.7336">
        <ele>171</ele>
        <time>2018-01-23T12:06:52Z</time>
      </trkpt>
      <trkpt lat="45.92421" lon="4.73368">
        <ele>172</ele>
        <time>2018-01-23T12:06:53Z</time>
      </trkpt>
      <trkpt lat="45.92422" lon="4.73376">
        <ele>172</ele>
        <time>2018-01-23T12:06:54Z</time>
      </trkpt>
      <trkpt lat="45.92423" lon="4.73384">
        <ele>172</ele>
        <time>2018-01-23T12:06:55Z</time>
      </trkpt>
      <trkpt lat="45.92425" lon="4.73391">
        <ele>172</ele>
        <time>2018-01-23T12:06:56Z</time>
      </trkpt>
      <trkpt lat="45.92427" lon="4.73398">
        <ele>172</ele>
        <time>2018-01-23T12:06:57Z</time>
      </trkpt>
      <trkpt lat="45.9243" lon="4.73404">
        <ele>172</ele>
        <time>2018-01-23T12:06:58Z</time>
      </trkpt>
      <trkpt lat="45.92433" lon="4.73412">
        <ele>172</ele>
        <time>2018-01-23T12:06:59Z</time>
      </trkpt>
      <trkpt lat="45.92437" lon="4.73416">
        <ele>172</ele>
        <time>2018-01-23T12:07:00Z</time>
      </trkpt>
      <trkpt lat="45.92442" lon="4.73418">
        <ele>173</ele>
        <time>2018-01-23T12:07:01Z</time>
      </trkpt>
      <trkpt lat="45.92446" lon="4.73422">
        <ele>173</ele>
        <time>2018-01-23T12:07:02Z</time>
      </trkpt>
      <trkpt lat="45.92451" lon="4.73426">
        <ele>173</ele>
        <time>2018-01-23T12:07:03Z</time>
      </trkpt>
      <trkpt lat="45.92455" lon="4.7343">
        <ele>173</ele>
        <time>2018-01-23T12:07:04Z</time>
      </trkpt>
      <trkpt lat="45.92459" lon="4.73435">
        <ele>173</ele>
        <time>2018-01-23T12:07:05Z</time>
      </trkpt>
      <trkpt lat="45.92462" lon="4.73442">
        <ele>173</ele>
        <time>2018-01-23T12:07:06Z</time>
      </trkpt>
      <trkpt lat="45.92465" lon="4.7345">
        <ele>173</ele>
        <time>2018-01-23T12:07:07Z</time>
      </trkpt>
      <trkpt lat="45.92467" lon="4.73457">
        <ele>173</ele>
        <time>2018-01-23T12:07:08Z</time>
      </trkpt>
      <trkpt lat="45.92469" lon="4.73465">
        <ele>173</ele>
        <time>2018-01-23T12:07:09Z</time>
      </trkpt>
      <trkpt lat="45.9247" lon="4.73473">
        <ele>173</ele>
        <time>2018-01-23T12:07:10Z</time>
      </trkpt>
      <trkpt lat="45.9247" lon="4.73481">
        <ele>173</ele>
        <time>2018-01-23T12:07:11Z</time>
      </trkpt>
      <trkpt lat="45.92469" lon="4.7349">
        <ele>173</ele>
        <time>2018-01-23T12:07:12Z</time>
      </trkpt>
      <trkpt lat="45.92468" lon="4.73498">
        <ele>173</ele>
        <time>2018-01-23T12:07:13Z</time>
      </trkpt>
      <trkpt lat="45.92467" lon="4.73506">
        <ele>174</ele>
        <time>2018-01-23T12:07:14Z</time>
      </trkpt>
      <trkpt lat="45.92467" lon="4.73515">
        <ele>174</ele>
        <time>2018-01-23T12:07:15Z</time>
      </trkpt>
      <trkpt lat="45.92467" lon="4.73523">
        <ele>174</ele>
        <time>2018-01-23T12:07:16Z</time>
      </trkpt>
      <trkpt lat="45.92467" lon="4.73535">
        <ele>174</ele>
        <time>2018-01-23T12:07:18Z</time>
      </trkpt>
      <trkpt lat="45.92466" lon="4.73542">
        <ele>173</ele>
        <time>2018-01-23T12:07:19Z</time>
      </trkpt>
      <trkpt lat="45.92466" lon="4.73548">
        <ele>173</ele>
        <time>2018-01-23T12:07:20Z</time>
      </trkpt>
      <trkpt lat="45.92466" lon="4.73555">
        <ele>173</ele>
        <time>2018-01-23T12:07:21Z</time>
      </trkpt>
      <trkpt lat="45.92467" lon="4.73563">
        <ele>173</ele>
        <time>2018-01-23T12:07:22Z</time>
      </trkpt>
      <trkpt lat="45.92467" lon="4.73571">
        <ele>173</ele>
        <time>2018-01-23T12:07:23Z</time>
      </trkpt>
      <trkpt lat="45.92467" lon="4.73579">
        <ele>173</ele>
        <time>2018-01-23T12:07:24Z</time>
      </trkpt>
      <trkpt lat="45.92468" lon="4.73587">
        <ele>174</ele>
        <time>2018-01-23T12:07:25Z</time>
      </trkpt>
      <trkpt lat="45.92468" lon="4.73595">
        <ele>174</ele>
        <time>2018-01-23T12:07:26Z</time>
      </trkpt>
      <trkpt lat="45.92469" lon="4.73604">
        <ele>174</ele>
        <time>2018-01-23T12:07:27Z</time>
      </trkpt>
      <trkpt lat="45.92468" lon="4.73612">
        <ele>174</ele>
        <time>2018-01-23T12:07:28Z</time>
      </trkpt>
      <trkpt lat="45.92468" lon="4.7362">
        <ele>174</ele>
        <time>2018-01-23T12:07:29Z</time>
      </trkpt>
      <trkpt lat="45.92469" lon="4.73627">
        <ele>174</ele>
        <time>2018-01-23T12:07:30Z</time>
      </trkpt>
      <trkpt lat="45.9247" lon="4.73635">
        <ele>174</ele>
        <time>2018-01-23T12:07:31Z</time>
      </trkpt>
      <trkpt lat="45.92469" lon="4.73642">
        <ele>174</ele>
        <time>2018-01-23T12:07:32Z</time>
      </trkpt>
      <trkpt lat="45.92469" lon="4.73649">
        <ele>174</ele>
        <time>2018-01-23T12:07:33Z</time>
      </trkpt>
      <trkpt lat="45.92469" lon="4.73657">
        <ele>174</ele>
        <time>2018-01-23T12:07:34Z</time>
      </trkpt>
      <trkpt lat="45.92469" lon="4.73663">
        <ele>174</ele>
        <time>2018-01-23T12:07:35Z</time>
      </trkpt>
      <trkpt lat="45.92468" lon="4.73671">
        <ele>174</ele>
        <time>2018-01-23T12:07:36Z</time>
      </trkpt>
      <trkpt lat="45.92468" lon="4.73677">
        <ele>174</ele>
        <time>2018-01-23T12:07:37Z</time>
      </trkpt>
      <trkpt lat="45.92465" lon="4.73688">
        <ele>174</ele>
        <time>2018-01-23T12:07:39Z</time>
      </trkpt>
      <trkpt lat="45.92464" lon="4.73695">
        <ele>174</ele>
        <time>2018-01-23T12:07:40Z</time>
      </trkpt>
      <trkpt lat="45.92464" lon="4.73707">
        <ele>174</ele>
        <time>2018-01-23T12:07:44Z</time>
      </trkpt>
      <trkpt lat="45.92464" lon="4.73707">
        <ele>174</ele>
        <time>2018-01-23T12:07:45Z</time>
      </trkpt>
      <trkpt lat="45.92466" lon="4.73709">
        <ele>174</ele>
        <time>2018-01-23T12:07:53Z</time>
      </trkpt>
      <trkpt lat="45.92466" lon="4.73709">
        <ele>174</ele>
        <time>2018-01-23T12:07:54Z</time>
      </trkpt>
      <trkpt lat="45.92469" lon="4.73712">
        <ele>174</ele>
        <time>2018-01-23T12:08:24.196Z</time>
      </trkpt>
    </trkseg>
  </trk>
</gpx>